<?xml version='1.0' encoding='UTF-8'?><gpx version="1.1" creator="JPX - https://github.com/jenetics/jpx" xmlns="http://www.topografix.com/GPX/1/1"><trk><trkseg><trkpt lat="45.6225444" lon="12.5582372"><ele>4.0</ele><time>2026-03-22T07:22:50.193Z</time></trkpt><trkpt lat="45.6225506" lon="12.5583313"><ele>4.0</ele><time>2026-03-22T07:22:57.213Z</time></trkpt><trkpt lat="45.6224978" lon="12.5583878"><ele>4.0</ele><time>2026-03-22T07:23:02.217Z</time></trkpt><trkpt lat="45.6224896" lon="12.5584814"><ele>4.0</ele><time>2026-03-22T07:23:45.901Z</time></trkpt></trkseg><trkseg><trkpt lat="45.6225238" lon="12.5584348"><ele>3.9999999999999996</ele><time>2026-03-22T07:48:18.267Z</time></trkpt><trkpt lat="45.6225453" lon="12.5585339"><ele>4.0</ele><time>2026-03-22T07:48:19.264Z</time></trkpt><trkpt lat="45.6225804" lon="12.5586417"><ele>4.0</ele><time>2026-03-22T07:48:20.255Z</time></trkpt><trkpt lat="45.6226153" lon="12.5587569"><ele>4.0</ele><time>2026-03-22T07:48:21.259Z</time></trkpt><trkpt lat="45.6226554" lon="12.5588733"><ele>3.9999999999999996</ele><time>2026-03-22T07:48:22.258Z</time></trkpt><trkpt lat="45.6226931" lon="12.559006"><ele>4.0</ele><time>2026-03-22T07:48:23.28Z</time></trkpt><trkpt lat="45.6227314" lon="12.5591478"><ele>4.0</ele><time>2026-03-22T07:48:24.246Z</time></trkpt><trkpt lat="45.6227704" lon="12.5592919"><ele>4.0</ele><time>2026-03-22T07:48:25.26Z</time></trkpt><trkpt lat="45.6228161" lon="12.5594358"><ele>4.0</ele><time>2026-03-22T07:48:26.251Z</time></trkpt><trkpt lat="45.6228609" lon="12.5595879"><ele>4.0</ele><time>2026-03-22T07:48:27.251Z</time></trkpt><trkpt lat="45.6229052" lon="12.5597427"><ele>3.25</ele><time>2026-03-22T07:48:28.255Z</time></trkpt><trkpt lat="45.6229504" lon="12.5599006"><ele>2.5</ele><time>2026-03-22T07:48:29.275Z</time></trkpt><trkpt lat="45.6229977" lon="12.5600634"><ele>1.75</ele><time>2026-03-22T07:48:30.254Z</time></trkpt><trkpt lat="45.6230478" lon="12.5602301"><ele>1.0</ele><time>2026-03-22T07:48:31.25Z</time></trkpt><trkpt lat="45.6230988" lon="12.560399"><ele>1.0</ele><time>2026-03-22T07:48:32.252Z</time></trkpt><trkpt lat="45.6231557" lon="12.560568"><ele>1.0</ele><time>2026-03-22T07:48:33.246Z</time></trkpt><trkpt lat="45.6232159" lon="12.5607455"><ele>1.0</ele><time>2026-03-22T07:48:34.257Z</time></trkpt><trkpt lat="45.6232888" lon="12.5609211"><ele>1.0</ele><time>2026-03-22T07:48:35.249Z</time></trkpt><trkpt lat="45.6233669" lon="12.5610959"><ele>1.25</ele><time>2026-03-22T07:48:36.252Z</time></trkpt><trkpt lat="45.6234497" lon="12.5612685"><ele>1.5</ele><time>2026-03-22T07:48:37.262Z</time></trkpt><trkpt lat="45.6235262" lon="12.5614397"><ele>1.75</ele><time>2026-03-22T07:48:38.26Z</time></trkpt><trkpt lat="45.623601" lon="12.5616034"><ele>2.0</ele><time>2026-03-22T07:48:39.261Z</time></trkpt><trkpt lat="45.6236737" lon="12.5617609"><ele>2.0</ele><time>2026-03-22T07:48:40.262Z</time></trkpt><trkpt lat="45.6237448" lon="12.5619151"><ele>2.0</ele><time>2026-03-22T07:48:41.258Z</time></trkpt><trkpt lat="45.6238171" lon="12.5620629"><ele>2.0</ele><time>2026-03-22T07:48:42.261Z</time></trkpt><trkpt lat="45.6238904" lon="12.5622076"><ele>2.0</ele><time>2026-03-22T07:48:43.26Z</time></trkpt><trkpt lat="45.6239694" lon="12.5623453"><ele>2.75</ele><time>2026-03-22T07:48:44.247Z</time></trkpt><trkpt lat="45.6240548" lon="12.5624747"><ele>3.5</ele><time>2026-03-22T07:48:45.267Z</time></trkpt><trkpt lat="45.6241462" lon="12.5625899"><ele>4.25</ele><time>2026-03-22T07:48:46.26Z</time></trkpt><trkpt lat="45.6242428" lon="12.5626864"><ele>5.0</ele><time>2026-03-22T07:48:47.251Z</time></trkpt><trkpt lat="45.6243397" lon="12.5627699"><ele>5.0</ele><time>2026-03-22T07:48:48.258Z</time></trkpt><trkpt lat="45.6244367" lon="12.5628325"><ele>5.0</ele><time>2026-03-22T07:48:49.262Z</time></trkpt><trkpt lat="45.6245351" lon="12.5628731"><ele>5.0</ele><time>2026-03-22T07:48:50.253Z</time></trkpt><trkpt lat="45.6246378" lon="12.5628974"><ele>5.0</ele><time>2026-03-22T07:48:51.293Z</time></trkpt><trkpt lat="45.6247475" lon="12.5629024"><ele>5.0</ele><time>2026-03-22T07:48:52.272Z</time></trkpt><trkpt lat="45.6248594" lon="12.5629003"><ele>4.75</ele><time>2026-03-22T07:48:53.276Z</time></trkpt><trkpt lat="45.6249746" lon="12.5629077"><ele>4.5</ele><time>2026-03-22T07:48:54.281Z</time></trkpt><trkpt lat="45.6250962" lon="12.5629282"><ele>4.25</ele><time>2026-03-22T07:48:55.249Z</time></trkpt><trkpt lat="45.625229" lon="12.5629408"><ele>4.0</ele><time>2026-03-22T07:48:56.258Z</time></trkpt><trkpt lat="45.6253715" lon="12.5629462"><ele>3.5</ele><time>2026-03-22T07:48:57.264Z</time></trkpt><trkpt lat="45.6255105" lon="12.5629696"><ele>3.0</ele><time>2026-03-22T07:48:58.247Z</time></trkpt><trkpt lat="45.6256475" lon="12.5629957"><ele>2.5</ele><time>2026-03-22T07:48:59.267Z</time></trkpt><trkpt lat="45.6257765" lon="12.5630206"><ele>2.0</ele><time>2026-03-22T07:49:00.272Z</time></trkpt><trkpt lat="45.6258957" lon="12.5630422"><ele>2.0</ele><time>2026-03-22T07:49:01.265Z</time></trkpt><trkpt lat="45.6260104" lon="12.5630637"><ele>2.0</ele><time>2026-03-22T07:49:02.261Z</time></trkpt><trkpt lat="45.6261205" lon="12.5630912"><ele>2.0</ele><time>2026-03-22T07:49:03.27Z</time></trkpt><trkpt lat="45.6262281" lon="12.5631056"><ele>2.0</ele><time>2026-03-22T07:49:04.247Z</time></trkpt><trkpt lat="45.6263298" lon="12.563108"><ele>2.0</ele><time>2026-03-22T07:49:05.275Z</time></trkpt><trkpt lat="45.62643" lon="12.5631047"><ele>3.333333333333333</ele><time>2026-03-22T07:49:06.265Z</time></trkpt><trkpt lat="45.6265203" lon="12.5631159"><ele>4.666666666666667</ele><time>2026-03-22T07:49:07.27Z</time></trkpt><trkpt lat="45.6266003" lon="12.563123"><ele>6.0</ele><time>2026-03-22T07:49:08.265Z</time></trkpt><trkpt lat="45.6266676" lon="12.5631332"><ele>7.333333333333334</ele><time>2026-03-22T07:49:09.271Z</time></trkpt><trkpt lat="45.6267698" lon="12.5632027"><ele>8.666666666666668</ele><time>2026-03-22T07:49:11.272Z</time></trkpt><trkpt lat="45.6268587" lon="12.5632295"><ele>10.0</ele><time>2026-03-22T07:49:13.27Z</time></trkpt><trkpt lat="45.6269093" lon="12.563116"><ele>10.0</ele><time>2026-03-22T07:49:15.262Z</time></trkpt><trkpt lat="45.6269156" lon="12.563014"><ele>10.0</ele><time>2026-03-22T07:49:16.252Z</time></trkpt><trkpt lat="45.626932" lon="12.5629067"><ele>10.0</ele><time>2026-03-22T07:49:17.26Z</time></trkpt><trkpt lat="45.6269671" lon="12.5627924"><ele>10.0</ele><time>2026-03-22T07:49:18.25Z</time></trkpt><trkpt lat="45.6270242" lon="12.5626739"><ele>10.0</ele><time>2026-03-22T07:49:19.261Z</time></trkpt><trkpt lat="45.627097" lon="12.5625505"><ele>10.0</ele><time>2026-03-22T07:49:20.257Z</time></trkpt><trkpt lat="45.6271926" lon="12.5624345"><ele>9.0</ele><time>2026-03-22T07:49:21.243Z</time></trkpt><trkpt lat="45.6272947" lon="12.56231"><ele>8.0</ele><time>2026-03-22T07:49:22.267Z</time></trkpt><trkpt lat="45.6274005" lon="12.5621807"><ele>7.0</ele><time>2026-03-22T07:49:23.254Z</time></trkpt><trkpt lat="45.6275061" lon="12.5620456"><ele>6.0</ele><time>2026-03-22T07:49:24.258Z</time></trkpt><trkpt lat="45.6276117" lon="12.5619101"><ele>6.0</ele><time>2026-03-22T07:49:25.269Z</time></trkpt><trkpt lat="45.6277207" lon="12.5617793"><ele>6.0</ele><time>2026-03-22T07:49:26.265Z</time></trkpt><trkpt lat="45.6278262" lon="12.561642"><ele>6.0</ele><time>2026-03-22T07:49:27.256Z</time></trkpt><trkpt lat="45.6279331" lon="12.5615025"><ele>6.0</ele><time>2026-03-22T07:49:28.253Z</time></trkpt><trkpt lat="45.6280446" lon="12.5613669"><ele>6.25</ele><time>2026-03-22T07:49:29.264Z</time></trkpt><trkpt lat="45.6281571" lon="12.5612331"><ele>6.5</ele><time>2026-03-22T07:49:30.247Z</time></trkpt><trkpt lat="45.6282699" lon="12.5610983"><ele>6.75</ele><time>2026-03-22T07:49:31.267Z</time></trkpt><trkpt lat="45.6283871" lon="12.5609684"><ele>7.0</ele><time>2026-03-22T07:49:32.254Z</time></trkpt><trkpt lat="45.6285024" lon="12.5608352"><ele>6.25</ele><time>2026-03-22T07:49:33.258Z</time></trkpt><trkpt lat="45.6286123" lon="12.5606993"><ele>5.5</ele><time>2026-03-22T07:49:34.284Z</time></trkpt><trkpt lat="45.6287303" lon="12.5605791"><ele>4.75</ele><time>2026-03-22T07:49:35.263Z</time></trkpt><trkpt lat="45.6288499" lon="12.5604575"><ele>4.0</ele><time>2026-03-22T07:49:36.26Z</time></trkpt><trkpt lat="45.6289714" lon="12.5603368"><ele>4.0</ele><time>2026-03-22T07:49:37.261Z</time></trkpt><trkpt lat="45.6290934" lon="12.5602102"><ele>4.0</ele><time>2026-03-22T07:49:38.257Z</time></trkpt><trkpt lat="45.6292137" lon="12.560078"><ele>4.0</ele><time>2026-03-22T07:49:39.248Z</time></trkpt><trkpt lat="45.6293311" lon="12.5599523"><ele>4.0</ele><time>2026-03-22T07:49:40.266Z</time></trkpt><trkpt lat="45.6294461" lon="12.5598148"><ele>4.0</ele><time>2026-03-22T07:49:41.25Z</time></trkpt><trkpt lat="45.6295591" lon="12.5596696"><ele>4.0</ele><time>2026-03-22T07:49:42.25Z</time></trkpt><trkpt lat="45.6296631" lon="12.5595096"><ele>4.0</ele><time>2026-03-22T07:49:43.252Z</time></trkpt><trkpt lat="45.629765" lon="12.5593392"><ele>4.333333333333333</ele><time>2026-03-22T07:49:44.259Z</time></trkpt><trkpt lat="45.6298567" lon="12.5591533"><ele>4.666666666666667</ele><time>2026-03-22T07:49:45.273Z</time></trkpt><trkpt lat="45.6299391" lon="12.558955"><ele>5.0</ele><time>2026-03-22T07:49:46.263Z</time></trkpt><trkpt lat="45.6300129" lon="12.5587474"><ele>6.0</ele><time>2026-03-22T07:49:47.263Z</time></trkpt><trkpt lat="45.6300884" lon="12.5585369"><ele>7.0</ele><time>2026-03-22T07:49:48.261Z</time></trkpt><trkpt lat="45.6301681" lon="12.5583251"><ele>8.0</ele><time>2026-03-22T07:49:49.271Z</time></trkpt><trkpt lat="45.6302538" lon="12.5581143"><ele>8.0</ele><time>2026-03-22T07:49:50.27Z</time></trkpt><trkpt lat="45.6303392" lon="12.5578945"><ele>8.0</ele><time>2026-03-22T07:49:51.262Z</time></trkpt><trkpt lat="45.630425" lon="12.5576693"><ele>8.0</ele><time>2026-03-22T07:49:52.263Z</time></trkpt><trkpt lat="45.630513" lon="12.5574399"><ele>7.333333333333333</ele><time>2026-03-22T07:49:53.262Z</time></trkpt><trkpt lat="45.6306003" lon="12.5572054"><ele>6.666666666666666</ele><time>2026-03-22T07:49:54.266Z</time></trkpt><trkpt lat="45.6306905" lon="12.556968"><ele>6.0</ele><time>2026-03-22T07:49:55.266Z</time></trkpt><trkpt lat="45.6307825" lon="12.5567282"><ele>5.666666666666667</ele><time>2026-03-22T07:49:56.282Z</time></trkpt><trkpt lat="45.6308748" lon="12.5564866"><ele>5.333333333333334</ele><time>2026-03-22T07:49:57.276Z</time></trkpt><trkpt lat="45.6309662" lon="12.556246"><ele>5.0</ele><time>2026-03-22T07:49:58.293Z</time></trkpt><trkpt lat="45.6310553" lon="12.5560108"><ele>5.0</ele><time>2026-03-22T07:49:59.271Z</time></trkpt><trkpt lat="45.6311344" lon="12.5557762"><ele>5.0</ele><time>2026-03-22T07:50:00.265Z</time></trkpt><trkpt lat="45.6312156" lon="12.5555526"><ele>5.0</ele><time>2026-03-22T07:50:01.267Z</time></trkpt><trkpt lat="45.6312971" lon="12.5553377"><ele>4.333333333333334</ele><time>2026-03-22T07:50:02.28Z</time></trkpt><trkpt lat="45.6313792" lon="12.5551258"><ele>3.666666666666667</ele><time>2026-03-22T07:50:03.288Z</time></trkpt><trkpt lat="45.6314616" lon="12.5549148"><ele>3.0</ele><time>2026-03-22T07:50:04.284Z</time></trkpt><trkpt lat="45.6315432" lon="12.5547007"><ele>3.0</ele><time>2026-03-22T07:50:05.276Z</time></trkpt><trkpt lat="45.6316251" lon="12.5544806"><ele>3.0</ele><time>2026-03-22T07:50:06.258Z</time></trkpt><trkpt lat="45.6317041" lon="12.5542547"><ele>3.0</ele><time>2026-03-22T07:50:07.263Z</time></trkpt><trkpt lat="45.6317802" lon="12.554023"><ele>3.0</ele><time>2026-03-22T07:50:08.258Z</time></trkpt><trkpt lat="45.6318603" lon="12.5537918"><ele>3.0</ele><time>2026-03-22T07:50:09.279Z</time></trkpt><trkpt lat="45.631933" lon="12.5535548"><ele>3.0</ele><time>2026-03-22T07:50:10.27Z</time></trkpt><trkpt lat="45.6320053" lon="12.5533191"><ele>3.0</ele><time>2026-03-22T07:50:11.283Z</time></trkpt><trkpt lat="45.6320753" lon="12.5530844"><ele>3.0</ele><time>2026-03-22T07:50:12.283Z</time></trkpt><trkpt lat="45.6321437" lon="12.552851"><ele>3.0</ele><time>2026-03-22T07:50:13.297Z</time></trkpt><trkpt lat="45.632201" lon="12.5526165"><ele>2.6666666666666665</ele><time>2026-03-22T07:50:14.263Z</time></trkpt><trkpt lat="45.6322798" lon="12.5523904"><ele>2.333333333333333</ele><time>2026-03-22T07:50:15.269Z</time></trkpt><trkpt lat="45.6323498" lon="12.5521575"><ele>2.0</ele><time>2026-03-22T07:50:16.279Z</time></trkpt><trkpt lat="45.6324129" lon="12.5519175"><ele>2.0</ele><time>2026-03-22T07:50:17.275Z</time></trkpt><trkpt lat="45.6324726" lon="12.5516746"><ele>2.0</ele><time>2026-03-22T07:50:18.279Z</time></trkpt><trkpt lat="45.6325347" lon="12.5514302"><ele>2.0</ele><time>2026-03-22T07:50:19.266Z</time></trkpt><trkpt lat="45.6325924" lon="12.551183"><ele>2.6666666666666665</ele><time>2026-03-22T07:50:20.268Z</time></trkpt><trkpt lat="45.632646" lon="12.5509366"><ele>3.333333333333333</ele><time>2026-03-22T07:50:21.266Z</time></trkpt><trkpt lat="45.6326938" lon="12.5506934"><ele>4.0</ele><time>2026-03-22T07:50:22.261Z</time></trkpt><trkpt lat="45.6327334" lon="12.5504526"><ele>4.333333333333333</ele><time>2026-03-22T07:50:23.281Z</time></trkpt><trkpt lat="45.6327643" lon="12.5502122"><ele>4.666666666666667</ele><time>2026-03-22T07:50:24.271Z</time></trkpt><trkpt lat="45.6327933" lon="12.5499756"><ele>5.0</ele><time>2026-03-22T07:50:25.275Z</time></trkpt><trkpt lat="45.6328217" lon="12.5497438"><ele>5.333333333333334</ele><time>2026-03-22T07:50:26.268Z</time></trkpt><trkpt lat="45.6328486" lon="12.5495139"><ele>5.666666666666667</ele><time>2026-03-22T07:50:27.28Z</time></trkpt><trkpt lat="45.6328875" lon="12.5492894"><ele>6.0</ele><time>2026-03-22T07:50:28.266Z</time></trkpt><trkpt lat="45.6329236" lon="12.5490669"><ele>6.0</ele><time>2026-03-22T07:50:29.274Z</time></trkpt><trkpt lat="45.6329562" lon="12.5488472"><ele>6.0</ele><time>2026-03-22T07:50:30.267Z</time></trkpt><trkpt lat="45.6329856" lon="12.5486307"><ele>6.0</ele><time>2026-03-22T07:50:31.285Z</time></trkpt><trkpt lat="45.6330126" lon="12.5484182"><ele>5.5</ele><time>2026-03-22T07:50:32.265Z</time></trkpt><trkpt lat="45.6330392" lon="12.5482124"><ele>5.0</ele><time>2026-03-22T07:50:33.268Z</time></trkpt><trkpt lat="45.6330661" lon="12.5480141"><ele>4.5</ele><time>2026-03-22T07:50:34.273Z</time></trkpt><trkpt lat="45.6330985" lon="12.5478237"><ele>4.0</ele><time>2026-03-22T07:50:35.263Z</time></trkpt><trkpt lat="45.6331428" lon="12.547641"><ele>4.0</ele><time>2026-03-22T07:50:36.267Z</time></trkpt><trkpt lat="45.6332017" lon="12.5474698"><ele>4.0</ele><time>2026-03-22T07:50:37.252Z</time></trkpt><trkpt lat="45.6332729" lon="12.5473132"><ele>4.0</ele><time>2026-03-22T07:50:38.283Z</time></trkpt><trkpt lat="45.6334796" lon="12.5470532"><ele>4.0</ele><time>2026-03-22T07:50:40.26Z</time></trkpt><trkpt lat="45.6336088" lon="12.5469633"><ele>4.0</ele><time>2026-03-22T07:50:41.271Z</time></trkpt><trkpt lat="45.6337346" lon="12.5468821"><ele>4.0</ele><time>2026-03-22T07:50:42.262Z</time></trkpt><trkpt lat="45.6338574" lon="12.5468015"><ele>4.0</ele><time>2026-03-22T07:50:43.275Z</time></trkpt><trkpt lat="45.6339665" lon="12.5467284"><ele>3.4000000000000004</ele><time>2026-03-22T07:50:44.258Z</time></trkpt><trkpt lat="45.6340592" lon="12.5466414"><ele>2.8000000000000003</ele><time>2026-03-22T07:50:45.258Z</time></trkpt><trkpt lat="45.6341458" lon="12.5465576"><ele>2.2</ele><time>2026-03-22T07:50:46.244Z</time></trkpt><trkpt lat="45.6342291" lon="12.5464931"><ele>1.6</ele><time>2026-03-22T07:50:47.27Z</time></trkpt><trkpt lat="45.6343054" lon="12.5464498"><ele>1.0</ele><time>2026-03-22T07:50:48.253Z</time></trkpt><trkpt lat="45.6343628" lon="12.5463978"><ele>1.0</ele><time>2026-03-22T07:50:49.253Z</time></trkpt><trkpt lat="45.634435" lon="12.5462774"><ele>1.0</ele><time>2026-03-22T07:50:51.246Z</time></trkpt><trkpt lat="45.6344217" lon="12.5461011"><ele>1.0</ele><time>2026-03-22T07:50:53.26Z</time></trkpt><trkpt lat="45.6344097" lon="12.5460087"><ele>1.0</ele><time>2026-03-22T07:50:54.25Z</time></trkpt><trkpt lat="45.6344233" lon="12.5459087"><ele>1.0</ele><time>2026-03-22T07:50:55.277Z</time></trkpt><trkpt lat="45.634451" lon="12.5457915"><ele>0.8</ele><time>2026-03-22T07:50:56.251Z</time></trkpt><trkpt lat="45.6344971" lon="12.5456635"><ele>0.6000000000000001</ele><time>2026-03-22T07:50:57.259Z</time></trkpt><trkpt lat="45.634559" lon="12.5455344"><ele>0.4</ele><time>2026-03-22T07:50:58.249Z</time></trkpt><trkpt lat="45.6346334" lon="12.5454022"><ele>0.2</ele><time>2026-03-22T07:50:59.255Z</time></trkpt><trkpt lat="45.6347067" lon="12.5452693"><ele>0.0</ele><time>2026-03-22T07:51:00.256Z</time></trkpt><trkpt lat="45.634791" lon="12.5451419"><ele>0.5</ele><time>2026-03-22T07:51:01.261Z</time></trkpt><trkpt lat="45.6348853" lon="12.5450168"><ele>1.0</ele><time>2026-03-22T07:51:02.255Z</time></trkpt><trkpt lat="45.6349859" lon="12.5448924"><ele>1.5</ele><time>2026-03-22T07:51:03.249Z</time></trkpt><trkpt lat="45.6350898" lon="12.5447629"><ele>2.0</ele><time>2026-03-22T07:51:04.259Z</time></trkpt><trkpt lat="45.6351947" lon="12.5446266"><ele>2.6666666666666665</ele><time>2026-03-22T07:51:05.262Z</time></trkpt><trkpt lat="45.6353092" lon="12.5444961"><ele>3.333333333333333</ele><time>2026-03-22T07:51:06.263Z</time></trkpt><trkpt lat="45.6354269" lon="12.544363"><ele>4.0</ele><time>2026-03-22T07:51:07.261Z</time></trkpt><trkpt lat="45.635554" lon="12.5442386"><ele>4.0</ele><time>2026-03-22T07:51:08.258Z</time></trkpt><trkpt lat="45.6356737" lon="12.5440963"><ele>4.0</ele><time>2026-03-22T07:51:09.275Z</time></trkpt><trkpt lat="45.6357985" lon="12.5439502"><ele>4.0</ele><time>2026-03-22T07:51:10.254Z</time></trkpt><trkpt lat="45.6359274" lon="12.5437964"><ele>4.0</ele><time>2026-03-22T07:51:11.263Z</time></trkpt><trkpt lat="45.6360699" lon="12.5436596"><ele>4.0</ele><time>2026-03-22T07:51:12.266Z</time></trkpt><trkpt lat="45.6362064" lon="12.5435149"><ele>4.0</ele><time>2026-03-22T07:51:13.258Z</time></trkpt><trkpt lat="45.6363374" lon="12.5433643"><ele>3.6666666666666665</ele><time>2026-03-22T07:51:14.26Z</time></trkpt><trkpt lat="45.6364671" lon="12.5432168"><ele>3.333333333333333</ele><time>2026-03-22T07:51:15.262Z</time></trkpt><trkpt lat="45.6365947" lon="12.5430706"><ele>3.0</ele><time>2026-03-22T07:51:16.259Z</time></trkpt><trkpt lat="45.6367202" lon="12.5429245"><ele>3.333333333333333</ele><time>2026-03-22T07:51:17.276Z</time></trkpt><trkpt lat="45.636841" lon="12.5427812"><ele>3.6666666666666665</ele><time>2026-03-22T07:51:18.256Z</time></trkpt><trkpt lat="45.6369579" lon="12.5426487"><ele>4.0</ele><time>2026-03-22T07:51:19.263Z</time></trkpt><trkpt lat="45.6370692" lon="12.5425124"><ele>4.0</ele><time>2026-03-22T07:51:20.26Z</time></trkpt><trkpt lat="45.6371797" lon="12.5423814"><ele>4.0</ele><time>2026-03-22T07:51:21.25Z</time></trkpt><trkpt lat="45.6372971" lon="12.5422685"><ele>4.0</ele><time>2026-03-22T07:51:22.254Z</time></trkpt><trkpt lat="45.6374147" lon="12.5421584"><ele>4.0</ele><time>2026-03-22T07:51:23.244Z</time></trkpt><trkpt lat="45.6375329" lon="12.5420517"><ele>4.0</ele><time>2026-03-22T07:51:24.266Z</time></trkpt><trkpt lat="45.6376494" lon="12.5419609"><ele>4.0</ele><time>2026-03-22T07:51:25.268Z</time></trkpt><trkpt lat="45.637761" lon="12.5418611"><ele>4.0</ele><time>2026-03-22T07:51:26.269Z</time></trkpt><trkpt lat="45.6378792" lon="12.5417757"><ele>4.0</ele><time>2026-03-22T07:51:27.264Z</time></trkpt><trkpt lat="45.6380029" lon="12.5416994"><ele>4.0</ele><time>2026-03-22T07:51:28.269Z</time></trkpt><trkpt lat="45.6381356" lon="12.5416402"><ele>4.0</ele><time>2026-03-22T07:51:29.264Z</time></trkpt><trkpt lat="45.6382708" lon="12.5415967"><ele>4.0</ele><time>2026-03-22T07:51:30.267Z</time></trkpt><trkpt lat="45.6384058" lon="12.5415507"><ele>4.0</ele><time>2026-03-22T07:51:31.27Z</time></trkpt><trkpt lat="45.6385458" lon="12.5415309"><ele>3.333333333333333</ele><time>2026-03-22T07:51:32.265Z</time></trkpt><trkpt lat="45.6386897" lon="12.5414973"><ele>2.6666666666666665</ele><time>2026-03-22T07:51:33.273Z</time></trkpt><trkpt lat="45.6388413" lon="12.5415004"><ele>2.0</ele><time>2026-03-22T07:51:34.264Z</time></trkpt><trkpt lat="45.639002" lon="12.541515"><ele>2.0</ele><time>2026-03-22T07:51:35.28Z</time></trkpt><trkpt lat="45.6391691" lon="12.5415353"><ele>2.0</ele><time>2026-03-22T07:51:36.263Z</time></trkpt><trkpt lat="45.6393406" lon="12.5415637"><ele>2.0</ele><time>2026-03-22T07:51:37.255Z</time></trkpt><trkpt lat="45.6395167" lon="12.5415906"><ele>2.0</ele><time>2026-03-22T07:51:38.257Z</time></trkpt><trkpt lat="45.6396953" lon="12.54162"><ele>2.0</ele><time>2026-03-22T07:51:39.261Z</time></trkpt><trkpt lat="45.6398783" lon="12.541643"><ele>2.0</ele><time>2026-03-22T07:51:40.262Z</time></trkpt><trkpt lat="45.6400649" lon="12.5416593"><ele>2.0</ele><time>2026-03-22T07:51:41.254Z</time></trkpt><trkpt lat="45.6402507" lon="12.5416748"><ele>2.0</ele><time>2026-03-22T07:51:42.259Z</time></trkpt><trkpt lat="45.6404356" lon="12.5417009"><ele>2.0</ele><time>2026-03-22T07:51:43.265Z</time></trkpt><trkpt lat="45.6406182" lon="12.5417131"><ele>1.6666666666666665</ele><time>2026-03-22T07:51:44.256Z</time></trkpt><trkpt lat="45.6407975" lon="12.5417325"><ele>1.3333333333333333</ele><time>2026-03-22T07:51:45.267Z</time></trkpt><trkpt lat="45.640973" lon="12.5417542"><ele>1.0</ele><time>2026-03-22T07:51:46.271Z</time></trkpt><trkpt lat="45.6411462" lon="12.5417731"><ele>1.0</ele><time>2026-03-22T07:51:47.259Z</time></trkpt><trkpt lat="45.6413177" lon="12.5417872"><ele>1.0</ele><time>2026-03-22T07:51:48.257Z</time></trkpt><trkpt lat="45.6414881" lon="12.5418071"><ele>1.0</ele><time>2026-03-22T07:51:49.255Z</time></trkpt><trkpt lat="45.6416577" lon="12.5418288"><ele>1.0</ele><time>2026-03-22T07:51:50.259Z</time></trkpt><trkpt lat="45.6418262" lon="12.5418509"><ele>1.0</ele><time>2026-03-22T07:51:51.271Z</time></trkpt><trkpt lat="45.6419943" lon="12.5418716"><ele>1.0</ele><time>2026-03-22T07:51:52.255Z</time></trkpt><trkpt lat="45.6421625" lon="12.5418925"><ele>1.0</ele><time>2026-03-22T07:51:53.274Z</time></trkpt><trkpt lat="45.6423313" lon="12.5419133"><ele>1.0</ele><time>2026-03-22T07:51:54.273Z</time></trkpt><trkpt lat="45.6424997" lon="12.5419329"><ele>1.0</ele><time>2026-03-22T07:51:55.257Z</time></trkpt><trkpt lat="45.642669" lon="12.5419498"><ele>1.3333333333333333</ele><time>2026-03-22T07:51:56.272Z</time></trkpt><trkpt lat="45.6428388" lon="12.5419699"><ele>1.6666666666666665</ele><time>2026-03-22T07:51:57.27Z</time></trkpt><trkpt lat="45.6430082" lon="12.5420016"><ele>2.0</ele><time>2026-03-22T07:51:58.274Z</time></trkpt><trkpt lat="45.6431757" lon="12.5420336"><ele>2.0</ele><time>2026-03-22T07:51:59.282Z</time></trkpt><trkpt lat="45.6433312" lon="12.542116"><ele>2.0</ele><time>2026-03-22T07:52:00.281Z</time></trkpt><trkpt lat="45.6434853" lon="12.5421989"><ele>2.0</ele><time>2026-03-22T07:52:01.288Z</time></trkpt><trkpt lat="45.6436358" lon="12.5422883"><ele>1.3333333333333333</ele><time>2026-03-22T07:52:02.274Z</time></trkpt><trkpt lat="45.6437841" lon="12.5423866"><ele>0.6666666666666666</ele><time>2026-03-22T07:52:03.266Z</time></trkpt><trkpt lat="45.6439208" lon="12.5425064"><ele>0.0</ele><time>2026-03-22T07:52:04.264Z</time></trkpt><trkpt lat="45.644062" lon="12.5426171"><ele>0.0</ele><time>2026-03-22T07:52:05.271Z</time></trkpt><trkpt lat="45.6441891" lon="12.5427575"><ele>0.0</ele><time>2026-03-22T07:52:06.276Z</time></trkpt><trkpt lat="45.6443086" lon="12.542914"><ele>0.0</ele><time>2026-03-22T07:52:07.264Z</time></trkpt><trkpt lat="45.6444238" lon="12.5430813"><ele>0.6666666666666666</ele><time>2026-03-22T07:52:08.259Z</time></trkpt><trkpt lat="45.644535" lon="12.5432607"><ele>1.3333333333333333</ele><time>2026-03-22T07:52:09.263Z</time></trkpt><trkpt lat="45.6446465" lon="12.5434474"><ele>2.0</ele><time>2026-03-22T07:52:10.287Z</time></trkpt><trkpt lat="45.6447583" lon="12.5436394"><ele>2.0</ele><time>2026-03-22T07:52:11.271Z</time></trkpt><trkpt lat="45.6448696" lon="12.5438333"><ele>2.0</ele><time>2026-03-22T07:52:12.271Z</time></trkpt><trkpt lat="45.6449706" lon="12.544038"><ele>2.0</ele><time>2026-03-22T07:52:13.261Z</time></trkpt><trkpt lat="45.6450766" lon="12.5442309"><ele>2.0</ele><time>2026-03-22T07:52:14.267Z</time></trkpt><trkpt lat="45.6451869" lon="12.5444097"><ele>2.0</ele><time>2026-03-22T07:52:15.281Z</time></trkpt><trkpt lat="45.6452868" lon="12.5445943"><ele>2.0</ele><time>2026-03-22T07:52:16.279Z</time></trkpt><trkpt lat="45.6453894" lon="12.5447728"><ele>2.0</ele><time>2026-03-22T07:52:17.28Z</time></trkpt><trkpt lat="45.6454923" lon="12.5449522"><ele>2.0</ele><time>2026-03-22T07:52:18.268Z</time></trkpt><trkpt lat="45.6455942" lon="12.5451354"><ele>2.0</ele><time>2026-03-22T07:52:19.264Z</time></trkpt><trkpt lat="45.6456966" lon="12.5453176"><ele>2.0</ele><time>2026-03-22T07:52:20.268Z</time></trkpt><trkpt lat="45.6457991" lon="12.5454976"><ele>2.0</ele><time>2026-03-22T07:52:21.288Z</time></trkpt><trkpt lat="45.6458997" lon="12.5456722"><ele>2.0</ele><time>2026-03-22T07:52:22.256Z</time></trkpt><trkpt lat="45.6459969" lon="12.5458369"><ele>2.0</ele><time>2026-03-22T07:52:23.268Z</time></trkpt><trkpt lat="45.6460874" lon="12.5459957"><ele>2.0</ele><time>2026-03-22T07:52:24.286Z</time></trkpt><trkpt lat="45.6461761" lon="12.5461468"><ele>2.0</ele><time>2026-03-22T07:52:25.272Z</time></trkpt><trkpt lat="45.6462582" lon="12.546289"><ele>2.0</ele><time>2026-03-22T07:52:26.27Z</time></trkpt><trkpt lat="45.6463308" lon="12.5464224"><ele>2.0</ele><time>2026-03-22T07:52:27.259Z</time></trkpt><trkpt lat="45.64639" lon="12.5465561"><ele>2.0</ele><time>2026-03-22T07:52:28.252Z</time></trkpt><trkpt lat="45.6464359" lon="12.5466911"><ele>2.0</ele><time>2026-03-22T07:52:29.257Z</time></trkpt><trkpt lat="45.6464698" lon="12.5468263"><ele>2.0</ele><time>2026-03-22T07:52:30.256Z</time></trkpt><trkpt lat="45.6464868" lon="12.5469651"><ele>2.0</ele><time>2026-03-22T07:52:31.28Z</time></trkpt><trkpt lat="45.6464965" lon="12.5471046"><ele>2.2</ele><time>2026-03-22T07:52:32.271Z</time></trkpt><trkpt lat="45.6464875" lon="12.5472452"><ele>2.4000000000000004</ele><time>2026-03-22T07:52:33.267Z</time></trkpt><trkpt lat="45.6464841" lon="12.5473863"><ele>2.5999999999999996</ele><time>2026-03-22T07:52:34.255Z</time></trkpt><trkpt lat="45.6464997" lon="12.5475189"><ele>2.8</ele><time>2026-03-22T07:52:35.262Z</time></trkpt><trkpt lat="45.6465559" lon="12.5476352"><ele>3.0</ele><time>2026-03-22T07:52:36.272Z</time></trkpt><trkpt lat="45.6466191" lon="12.547743"><ele>3.0</ele><time>2026-03-22T07:52:37.259Z</time></trkpt><trkpt lat="45.6467027" lon="12.5478231"><ele>3.0</ele><time>2026-03-22T07:52:38.259Z</time></trkpt><trkpt lat="45.6468105" lon="12.5478756"><ele>3.0</ele><time>2026-03-22T07:52:39.256Z</time></trkpt><trkpt lat="45.646924" lon="12.5479219"><ele>3.0</ele><time>2026-03-22T07:52:40.259Z</time></trkpt><trkpt lat="45.6470443" lon="12.5479743"><ele>2.75</ele><time>2026-03-22T07:52:41.26Z</time></trkpt><trkpt lat="45.6471663" lon="12.548052"><ele>2.5</ele><time>2026-03-22T07:52:42.267Z</time></trkpt><trkpt lat="45.6472797" lon="12.5481709"><ele>2.25</ele><time>2026-03-22T07:52:43.262Z</time></trkpt><trkpt lat="45.6473907" lon="12.5483199"><ele>2.0</ele><time>2026-03-22T07:52:44.268Z</time></trkpt><trkpt lat="45.6475082" lon="12.5484885"><ele>2.0</ele><time>2026-03-22T07:52:45.259Z</time></trkpt><trkpt lat="45.6476224" lon="12.5486838"><ele>2.0</ele><time>2026-03-22T07:52:46.26Z</time></trkpt><trkpt lat="45.6477376" lon="12.5488919"><ele>2.0</ele><time>2026-03-22T07:52:47.256Z</time></trkpt><trkpt lat="45.6478548" lon="12.5491128"><ele>2.0</ele><time>2026-03-22T07:52:48.255Z</time></trkpt><trkpt lat="45.6479634" lon="12.5493433"><ele>2.0</ele><time>2026-03-22T07:52:49.261Z</time></trkpt><trkpt lat="45.6480495" lon="12.549577"><ele>2.0</ele><time>2026-03-22T07:52:50.257Z</time></trkpt><trkpt lat="45.6481163" lon="12.5498066"><ele>2.0</ele><time>2026-03-22T07:52:51.271Z</time></trkpt><trkpt lat="45.6481562" lon="12.5500363"><ele>2.0</ele><time>2026-03-22T07:52:52.262Z</time></trkpt><trkpt lat="45.6481915" lon="12.5502525"><ele>2.0</ele><time>2026-03-22T07:52:53.265Z</time></trkpt><trkpt lat="45.6482325" lon="12.5504538"><ele>2.0</ele><time>2026-03-22T07:52:54.259Z</time></trkpt><trkpt lat="45.6482622" lon="12.5506495"><ele>2.0</ele><time>2026-03-22T07:52:55.266Z</time></trkpt><trkpt lat="45.6482845" lon="12.5508465"><ele>2.0</ele><time>2026-03-22T07:52:56.259Z</time></trkpt><trkpt lat="45.6483174" lon="12.5510417"><ele>2.0</ele><time>2026-03-22T07:52:57.272Z</time></trkpt><trkpt lat="45.6483478" lon="12.5512428"><ele>1.6666666666666665</ele><time>2026-03-22T07:52:58.276Z</time></trkpt><trkpt lat="45.648376" lon="12.5514503"><ele>1.3333333333333333</ele><time>2026-03-22T07:52:59.272Z</time></trkpt><trkpt lat="45.6484055" lon="12.5516635"><ele>1.0</ele><time>2026-03-22T07:53:00.256Z</time></trkpt><trkpt lat="45.6484249" lon="12.5518874"><ele>1.0</ele><time>2026-03-22T07:53:01.279Z</time></trkpt><trkpt lat="45.6484594" lon="12.5521102"><ele>1.0</ele><time>2026-03-22T07:53:02.257Z</time></trkpt><trkpt lat="45.6484886" lon="12.5523326"><ele>1.0</ele><time>2026-03-22T07:53:03.289Z</time></trkpt><trkpt lat="45.6485175" lon="12.5525498"><ele>1.0</ele><time>2026-03-22T07:53:04.272Z</time></trkpt><trkpt lat="45.6485368" lon="12.5527673"><ele>1.0</ele><time>2026-03-22T07:53:05.261Z</time></trkpt><trkpt lat="45.6485614" lon="12.5529816"><ele>1.0</ele><time>2026-03-22T07:53:06.265Z</time></trkpt><trkpt lat="45.6485977" lon="12.5531899"><ele>1.0</ele><time>2026-03-22T07:53:07.264Z</time></trkpt><trkpt lat="45.6486285" lon="12.5533986"><ele>1.0</ele><time>2026-03-22T07:53:08.262Z</time></trkpt><trkpt lat="45.6486575" lon="12.553611"><ele>1.0</ele><time>2026-03-22T07:53:09.268Z</time></trkpt><trkpt lat="45.6486778" lon="12.5538326"><ele>0.6666666666666666</ele><time>2026-03-22T07:53:10.266Z</time></trkpt><trkpt lat="45.6487039" lon="12.5540593"><ele>0.3333333333333333</ele><time>2026-03-22T07:53:11.263Z</time></trkpt><trkpt lat="45.6487394" lon="12.5542895"><ele>0.0</ele><time>2026-03-22T07:53:12.28Z</time></trkpt><trkpt lat="45.6487706" lon="12.5545263"><ele>0.0</ele><time>2026-03-22T07:53:13.285Z</time></trkpt><trkpt lat="45.6488005" lon="12.5547656"><ele>0.0</ele><time>2026-03-22T07:53:14.288Z</time></trkpt><trkpt lat="45.6488294" lon="12.5550038"><ele>0.0</ele><time>2026-03-22T07:53:15.285Z</time></trkpt><trkpt lat="45.6488493" lon="12.5552427"><ele>-0.3333333333333333</ele><time>2026-03-22T07:53:16.268Z</time></trkpt><trkpt lat="45.648877" lon="12.5554774"><ele>-0.6666666666666666</ele><time>2026-03-22T07:53:17.265Z</time></trkpt><trkpt lat="45.6489157" lon="12.5557072"><ele>-1.0</ele><time>2026-03-22T07:53:18.251Z</time></trkpt><trkpt lat="45.6489498" lon="12.555938"><ele>-1.0</ele><time>2026-03-22T07:53:19.267Z</time></trkpt><trkpt lat="45.6489728" lon="12.5561734"><ele>-1.0</ele><time>2026-03-22T07:53:20.258Z</time></trkpt><trkpt lat="45.6490005" lon="12.5564059"><ele>-1.0</ele><time>2026-03-22T07:53:21.271Z</time></trkpt><trkpt lat="45.6490291" lon="12.5566344"><ele>-1.0</ele><time>2026-03-22T07:53:22.263Z</time></trkpt><trkpt lat="45.6490605" lon="12.5568607"><ele>-1.0</ele><time>2026-03-22T07:53:23.267Z</time></trkpt><trkpt lat="45.6490908" lon="12.5570867"><ele>-1.0</ele><time>2026-03-22T07:53:24.255Z</time></trkpt><trkpt lat="45.6491207" lon="12.5573104"><ele>-1.0</ele><time>2026-03-22T07:53:25.267Z</time></trkpt><trkpt lat="45.6491509" lon="12.557533"><ele>-1.0</ele><time>2026-03-22T07:53:26.259Z</time></trkpt><trkpt lat="45.6491913" lon="12.5577516"><ele>-1.0</ele><time>2026-03-22T07:53:27.264Z</time></trkpt><trkpt lat="45.6492283" lon="12.5579702"><ele>-0.6666666666666666</ele><time>2026-03-22T07:53:28.264Z</time></trkpt><trkpt lat="45.6492831" lon="12.5581816"><ele>-0.3333333333333333</ele><time>2026-03-22T07:53:29.262Z</time></trkpt><trkpt lat="45.6493559" lon="12.5583811"><ele>0.0</ele><time>2026-03-22T07:53:30.265Z</time></trkpt><trkpt lat="45.6494387" lon="12.5585747"><ele>0.0</ele><time>2026-03-22T07:53:31.269Z</time></trkpt><trkpt lat="45.6495297" lon="12.5587638"><ele>0.0</ele><time>2026-03-22T07:53:32.269Z</time></trkpt><trkpt lat="45.6496216" lon="12.5589532"><ele>0.0</ele><time>2026-03-22T07:53:33.262Z</time></trkpt><trkpt lat="45.6497133" lon="12.559143"><ele>0.0</ele><time>2026-03-22T07:53:34.265Z</time></trkpt><trkpt lat="45.6498054" lon="12.5593323"><ele>0.0</ele><time>2026-03-22T07:53:35.259Z</time></trkpt><trkpt lat="45.6498962" lon="12.5595218"><ele>0.0</ele><time>2026-03-22T07:53:36.255Z</time></trkpt><trkpt lat="45.6499932" lon="12.5597032"><ele>0.0</ele><time>2026-03-22T07:53:37.259Z</time></trkpt><trkpt lat="45.6500774" lon="12.5598973"><ele>0.0</ele><time>2026-03-22T07:53:38.258Z</time></trkpt><trkpt lat="45.6501659" lon="12.5600897"><ele>0.0</ele><time>2026-03-22T07:53:39.265Z</time></trkpt><trkpt lat="45.6502576" lon="12.5602815"><ele>-0.3333333333333333</ele><time>2026-03-22T07:53:40.263Z</time></trkpt><trkpt lat="45.6503519" lon="12.5604747"><ele>-0.6666666666666666</ele><time>2026-03-22T07:53:41.256Z</time></trkpt><trkpt lat="45.6504465" lon="12.5606723"><ele>-1.0</ele><time>2026-03-22T07:53:42.262Z</time></trkpt><trkpt lat="45.6505429" lon="12.5608719"><ele>-1.0</ele><time>2026-03-22T07:53:43.258Z</time></trkpt><trkpt lat="45.6506417" lon="12.5610727"><ele>-1.0</ele><time>2026-03-22T07:53:44.275Z</time></trkpt><trkpt lat="45.6507419" lon="12.5612741"><ele>-1.0</ele><time>2026-03-22T07:53:45.258Z</time></trkpt><trkpt lat="45.6508419" lon="12.5614755"><ele>-1.0</ele><time>2026-03-22T07:53:46.27Z</time></trkpt><trkpt lat="45.6509409" lon="12.561676"><ele>-1.0</ele><time>2026-03-22T07:53:47.269Z</time></trkpt><trkpt lat="45.6510391" lon="12.5618765"><ele>-1.0</ele><time>2026-03-22T07:53:48.244Z</time></trkpt><trkpt lat="45.651136" lon="12.5620794"><ele>-1.0</ele><time>2026-03-22T07:53:49.268Z</time></trkpt><trkpt lat="45.6512311" lon="12.5622859"><ele>-1.0</ele><time>2026-03-22T07:53:50.259Z</time></trkpt><trkpt lat="45.6513316" lon="12.5624901"><ele>-1.0</ele><time>2026-03-22T07:53:51.26Z</time></trkpt><trkpt lat="45.6514187" lon="12.5627098"><ele>-1.0</ele><time>2026-03-22T07:53:52.254Z</time></trkpt><trkpt lat="45.65151" lon="12.562929"><ele>-1.0</ele><time>2026-03-22T07:53:53.26Z</time></trkpt><trkpt lat="45.6516022" lon="12.5631511"><ele>-1.0</ele><time>2026-03-22T07:53:54.259Z</time></trkpt><trkpt lat="45.6516958" lon="12.5633773"><ele>-1.0</ele><time>2026-03-22T07:53:55.261Z</time></trkpt><trkpt lat="45.6517908" lon="12.5636057"><ele>-1.0</ele><time>2026-03-22T07:53:56.257Z</time></trkpt><trkpt lat="45.6518845" lon="12.5638343"><ele>-1.0</ele><time>2026-03-22T07:53:57.263Z</time></trkpt><trkpt lat="45.651972" lon="12.5640597"><ele>-0.6666666666666666</ele><time>2026-03-22T07:53:58.267Z</time></trkpt><trkpt lat="45.6520614" lon="12.564279"><ele>-0.3333333333333333</ele><time>2026-03-22T07:53:59.256Z</time></trkpt><trkpt lat="45.6521506" lon="12.5644963"><ele>0.0</ele><time>2026-03-22T07:54:00.262Z</time></trkpt><trkpt lat="45.6522399" lon="12.5647136"><ele>0.0</ele><time>2026-03-22T07:54:01.275Z</time></trkpt><trkpt lat="45.6523287" lon="12.5649325"><ele>0.0</ele><time>2026-03-22T07:54:02.26Z</time></trkpt><trkpt lat="45.652418" lon="12.565153"><ele>0.0</ele><time>2026-03-22T07:54:03.272Z</time></trkpt><trkpt lat="45.6525101" lon="12.5653729"><ele>-0.3333333333333333</ele><time>2026-03-22T07:54:04.262Z</time></trkpt><trkpt lat="45.6526045" lon="12.5655921"><ele>-0.6666666666666666</ele><time>2026-03-22T07:54:05.27Z</time></trkpt><trkpt lat="45.6527035" lon="12.5658108"><ele>-1.0</ele><time>2026-03-22T07:54:06.264Z</time></trkpt><trkpt lat="45.6528033" lon="12.5660308"><ele>-0.3333333333333333</ele><time>2026-03-22T07:54:07.28Z</time></trkpt><trkpt lat="45.6529056" lon="12.5662504"><ele>0.3333333333333333</ele><time>2026-03-22T07:54:08.263Z</time></trkpt><trkpt lat="45.6530056" lon="12.566468"><ele>1.0</ele><time>2026-03-22T07:54:09.265Z</time></trkpt><trkpt lat="45.6531055" lon="12.5666818"><ele>1.0</ele><time>2026-03-22T07:54:10.256Z</time></trkpt><trkpt lat="45.6532056" lon="12.5668923"><ele>1.0</ele><time>2026-03-22T07:54:11.257Z</time></trkpt><trkpt lat="45.6533086" lon="12.5671021"><ele>1.0</ele><time>2026-03-22T07:54:12.267Z</time></trkpt><trkpt lat="45.6534069" lon="12.5673138"><ele>1.0</ele><time>2026-03-22T07:54:13.281Z</time></trkpt><trkpt lat="45.6535077" lon="12.5675234"><ele>1.0</ele><time>2026-03-22T07:54:14.267Z</time></trkpt><trkpt lat="45.6536101" lon="12.5677319"><ele>1.0</ele><time>2026-03-22T07:54:15.271Z</time></trkpt><trkpt lat="45.6537132" lon="12.5679418"><ele>0.6666666666666666</ele><time>2026-03-22T07:54:16.272Z</time></trkpt><trkpt lat="45.6538143" lon="12.5681557"><ele>0.3333333333333333</ele><time>2026-03-22T07:54:17.266Z</time></trkpt><trkpt lat="45.6539147" lon="12.5683712"><ele>0.0</ele><time>2026-03-22T07:54:18.267Z</time></trkpt><trkpt lat="45.6540157" lon="12.5685874"><ele>-0.6666666666666666</ele><time>2026-03-22T07:54:19.284Z</time></trkpt><trkpt lat="45.6541157" lon="12.5688052"><ele>-1.3333333333333333</ele><time>2026-03-22T07:54:20.272Z</time></trkpt><trkpt lat="45.654215" lon="12.5690226"><ele>-2.0</ele><time>2026-03-22T07:54:21.276Z</time></trkpt><trkpt lat="45.6543126" lon="12.5692407"><ele>-2.0</ele><time>2026-03-22T07:54:22.29Z</time></trkpt><trkpt lat="45.6544092" lon="12.56946"><ele>-2.0</ele><time>2026-03-22T07:54:23.274Z</time></trkpt><trkpt lat="45.6545054" lon="12.569681"><ele>-2.0</ele><time>2026-03-22T07:54:24.284Z</time></trkpt><trkpt lat="45.6546019" lon="12.569903"><ele>-1.6666666666666665</ele><time>2026-03-22T07:54:25.281Z</time></trkpt><trkpt lat="45.6546992" lon="12.5701246"><ele>-1.3333333333333333</ele><time>2026-03-22T07:54:26.272Z</time></trkpt><trkpt lat="45.6547977" lon="12.5703448"><ele>-1.0</ele><time>2026-03-22T07:54:27.267Z</time></trkpt><trkpt lat="45.6548969" lon="12.5705644"><ele>-0.6666666666666666</ele><time>2026-03-22T07:54:28.288Z</time></trkpt><trkpt lat="45.6549949" lon="12.5707834"><ele>-0.3333333333333333</ele><time>2026-03-22T07:54:29.283Z</time></trkpt><trkpt lat="45.65509" lon="12.5710011"><ele>0.0</ele><time>2026-03-22T07:54:30.271Z</time></trkpt><trkpt lat="45.655181" lon="12.5712128"><ele>0.0</ele><time>2026-03-22T07:54:31.304Z</time></trkpt><trkpt lat="45.65527" lon="12.5714154"><ele>0.0</ele><time>2026-03-22T07:54:32.289Z</time></trkpt><trkpt lat="45.6553493" lon="12.5716131"><ele>0.0</ele><time>2026-03-22T07:54:33.281Z</time></trkpt><trkpt lat="45.6554254" lon="12.5718023"><ele>-0.5</ele><time>2026-03-22T07:54:34.295Z</time></trkpt><trkpt lat="45.6555006" lon="12.5719825"><ele>-1.0</ele><time>2026-03-22T07:54:35.295Z</time></trkpt><trkpt lat="45.6555751" lon="12.5721528"><ele>-1.5</ele><time>2026-03-22T07:54:36.274Z</time></trkpt><trkpt lat="45.6556491" lon="12.5723166"><ele>-2.0</ele><time>2026-03-22T07:54:37.269Z</time></trkpt><trkpt lat="45.6557229" lon="12.5724739"><ele>-2.0</ele><time>2026-03-22T07:54:38.291Z</time></trkpt><trkpt lat="45.6557693" lon="12.572625"><ele>-2.0</ele><time>2026-03-22T07:54:39.272Z</time></trkpt><trkpt lat="45.6558104" lon="12.572781"><ele>-2.0</ele><time>2026-03-22T07:54:40.279Z</time></trkpt><trkpt lat="45.6558284" lon="12.5729297"><ele>-2.0</ele><time>2026-03-22T07:54:41.283Z</time></trkpt><trkpt lat="45.6558206" lon="12.5730598"><ele>-2.0</ele><time>2026-03-22T07:54:42.256Z</time></trkpt><trkpt lat="45.6558077" lon="12.5732349"><ele>-1.75</ele><time>2026-03-22T07:54:43.29Z</time></trkpt><trkpt lat="45.6557922" lon="12.5734237"><ele>-1.5</ele><time>2026-03-22T07:54:44.26Z</time></trkpt><trkpt lat="45.6558323" lon="12.5735883"><ele>-1.25</ele><time>2026-03-22T07:54:45.279Z</time></trkpt><trkpt lat="45.6558909" lon="12.5737432"><ele>-1.0</ele><time>2026-03-22T07:54:46.26Z</time></trkpt><trkpt lat="45.655973" lon="12.5738846"><ele>-0.75</ele><time>2026-03-22T07:54:47.282Z</time></trkpt><trkpt lat="45.6561155" lon="12.5739618"><ele>-0.5</ele><time>2026-03-22T07:54:48.275Z</time></trkpt><trkpt lat="45.6562399" lon="12.5740239"><ele>-0.25</ele><time>2026-03-22T07:54:49.263Z</time></trkpt><trkpt lat="45.6563634" lon="12.5740853"><ele>0.0</ele><time>2026-03-22T07:54:50.267Z</time></trkpt><trkpt lat="45.6564297" lon="12.5742466"><ele>-0.6666666666666666</ele><time>2026-03-22T07:54:51.27Z</time></trkpt><trkpt lat="45.6564871" lon="12.5744397"><ele>-1.3333333333333333</ele><time>2026-03-22T07:54:52.269Z</time></trkpt><trkpt lat="45.65656" lon="12.5746348"><ele>-2.0</ele><time>2026-03-22T07:54:53.27Z</time></trkpt><trkpt lat="45.6566383" lon="12.5748513"><ele>-2.0</ele><time>2026-03-22T07:54:54.268Z</time></trkpt><trkpt lat="45.6567219" lon="12.575073"><ele>-2.0</ele><time>2026-03-22T07:54:55.262Z</time></trkpt><trkpt lat="45.6568055" lon="12.5752919"><ele>-2.0</ele><time>2026-03-22T07:54:56.253Z</time></trkpt><trkpt lat="45.6568865" lon="12.5754948"><ele>-2.25</ele><time>2026-03-22T07:54:57.264Z</time></trkpt><trkpt lat="45.6569625" lon="12.5756815"><ele>-2.5</ele><time>2026-03-22T07:54:58.284Z</time></trkpt><trkpt lat="45.6570322" lon="12.5758511"><ele>-2.75</ele><time>2026-03-22T07:54:59.259Z</time></trkpt><trkpt lat="45.6570936" lon="12.5760102"><ele>-3.0</ele><time>2026-03-22T07:55:00.268Z</time></trkpt><trkpt lat="45.6571579" lon="12.5761685"><ele>-3.25</ele><time>2026-03-22T07:55:01.266Z</time></trkpt><trkpt lat="45.6572271" lon="12.5763365"><ele>-3.5</ele><time>2026-03-22T07:55:02.275Z</time></trkpt><trkpt lat="45.6572992" lon="12.5765137"><ele>-3.75</ele><time>2026-03-22T07:55:03.276Z</time></trkpt><trkpt lat="45.6573763" lon="12.5766934"><ele>-4.0</ele><time>2026-03-22T07:55:04.274Z</time></trkpt><trkpt lat="45.6574753" lon="12.5768615"><ele>-4.0</ele><time>2026-03-22T07:55:05.278Z</time></trkpt><trkpt lat="45.6575978" lon="12.5770147"><ele>-4.0</ele><time>2026-03-22T07:55:06.272Z</time></trkpt><trkpt lat="45.6577311" lon="12.5771732"><ele>-4.0</ele><time>2026-03-22T07:55:07.274Z</time></trkpt><trkpt lat="45.6578922" lon="12.577306"><ele>-3.333333333333333</ele><time>2026-03-22T07:55:08.263Z</time></trkpt><trkpt lat="45.6580573" lon="12.5774434"><ele>-2.6666666666666665</ele><time>2026-03-22T07:55:09.281Z</time></trkpt><trkpt lat="45.6582174" lon="12.5775994"><ele>-2.0</ele><time>2026-03-22T07:55:10.27Z</time></trkpt><trkpt lat="45.6583858" lon="12.5777345"><ele>-2.333333333333333</ele><time>2026-03-22T07:55:11.268Z</time></trkpt><trkpt lat="45.6585518" lon="12.577877"><ele>-2.6666666666666665</ele><time>2026-03-22T07:55:12.278Z</time></trkpt><trkpt lat="45.65872" lon="12.5780168"><ele>-3.0</ele><time>2026-03-22T07:55:13.269Z</time></trkpt><trkpt lat="45.6588841" lon="12.5781724"><ele>-3.0</ele><time>2026-03-22T07:55:14.27Z</time></trkpt><trkpt lat="45.6590455" lon="12.5783375"><ele>-3.0</ele><time>2026-03-22T07:55:15.28Z</time></trkpt><trkpt lat="45.6592032" lon="12.5785088"><ele>-3.0</ele><time>2026-03-22T07:55:16.269Z</time></trkpt><trkpt lat="45.65936" lon="12.5786798"><ele>-2.3333333333333335</ele><time>2026-03-22T07:55:17.273Z</time></trkpt><trkpt lat="45.659518" lon="12.5788469"><ele>-1.6666666666666665</ele><time>2026-03-22T07:55:18.263Z</time></trkpt><trkpt lat="45.6596747" lon="12.5790163"><ele>-1.0</ele><time>2026-03-22T07:55:19.27Z</time></trkpt><trkpt lat="45.6598323" lon="12.5791841"><ele>-1.0</ele><time>2026-03-22T07:55:20.285Z</time></trkpt><trkpt lat="45.6599874" lon="12.5793533"><ele>-1.0</ele><time>2026-03-22T07:55:21.286Z</time></trkpt><trkpt lat="45.6601389" lon="12.5795145"><ele>-1.0</ele><time>2026-03-22T07:55:22.277Z</time></trkpt><trkpt lat="45.6602882" lon="12.5796682"><ele>-1.6666666666666665</ele><time>2026-03-22T07:55:23.272Z</time></trkpt><trkpt lat="45.6604408" lon="12.5798164"><ele>-2.3333333333333335</ele><time>2026-03-22T07:55:24.262Z</time></trkpt><trkpt lat="45.6606009" lon="12.5799538"><ele>-3.0</ele><time>2026-03-22T07:55:25.285Z</time></trkpt><trkpt lat="45.6607677" lon="12.5800815"><ele>-3.0</ele><time>2026-03-22T07:55:26.256Z</time></trkpt><trkpt lat="45.6609418" lon="12.5801948"><ele>-3.0</ele><time>2026-03-22T07:55:27.257Z</time></trkpt><trkpt lat="45.6611196" lon="12.5802982"><ele>-3.0</ele><time>2026-03-22T07:55:28.271Z</time></trkpt><trkpt lat="45.6613001" lon="12.5803924"><ele>-3.0</ele><time>2026-03-22T07:55:29.272Z</time></trkpt><trkpt lat="45.6614831" lon="12.5804751"><ele>-3.0</ele><time>2026-03-22T07:55:30.261Z</time></trkpt><trkpt lat="45.6616669" lon="12.5805471"><ele>-3.0</ele><time>2026-03-22T07:55:31.288Z</time></trkpt><trkpt lat="45.6618527" lon="12.5806037"><ele>-3.333333333333333</ele><time>2026-03-22T07:55:32.285Z</time></trkpt><trkpt lat="45.6620403" lon="12.5806481"><ele>-3.6666666666666665</ele><time>2026-03-22T07:55:33.277Z</time></trkpt><trkpt lat="45.6622291" lon="12.5806859"><ele>-4.0</ele><time>2026-03-22T07:55:34.257Z</time></trkpt><trkpt lat="45.6624201" lon="12.5807198"><ele>-4.0</ele><time>2026-03-22T07:55:35.286Z</time></trkpt><trkpt lat="45.6626142" lon="12.580762"><ele>-4.0</ele><time>2026-03-22T07:55:36.27Z</time></trkpt><trkpt lat="45.6628128" lon="12.5808043"><ele>-4.0</ele><time>2026-03-22T07:55:37.254Z</time></trkpt><trkpt lat="45.6630143" lon="12.5808342"><ele>-3.333333333333333</ele><time>2026-03-22T07:55:38.261Z</time></trkpt><trkpt lat="45.6632173" lon="12.5808675"><ele>-2.6666666666666665</ele><time>2026-03-22T07:55:39.259Z</time></trkpt><trkpt lat="45.6634206" lon="12.5809071"><ele>-2.0</ele><time>2026-03-22T07:55:40.268Z</time></trkpt><trkpt lat="45.6636223" lon="12.5809445"><ele>-2.0</ele><time>2026-03-22T07:55:41.314Z</time></trkpt><trkpt lat="45.6638216" lon="12.5809814"><ele>-2.0</ele><time>2026-03-22T07:55:42.273Z</time></trkpt><trkpt lat="45.6640183" lon="12.5810178"><ele>-2.0</ele><time>2026-03-22T07:55:43.272Z</time></trkpt><trkpt lat="45.6642122" lon="12.5810533"><ele>-2.0</ele><time>2026-03-22T07:55:44.269Z</time></trkpt><trkpt lat="45.6644027" lon="12.5810866"><ele>-2.0</ele><time>2026-03-22T07:55:45.262Z</time></trkpt><trkpt lat="45.6645883" lon="12.581119"><ele>-2.0</ele><time>2026-03-22T07:55:46.295Z</time></trkpt><trkpt lat="45.664769" lon="12.5811419"><ele>-2.333333333333333</ele><time>2026-03-22T07:55:47.286Z</time></trkpt><trkpt lat="45.6649464" lon="12.5811715"><ele>-2.6666666666666665</ele><time>2026-03-22T07:55:48.262Z</time></trkpt><trkpt lat="45.6651221" lon="12.5812003"><ele>-3.0</ele><time>2026-03-22T07:55:49.279Z</time></trkpt><trkpt lat="45.6652972" lon="12.5812397"><ele>-3.0</ele><time>2026-03-22T07:55:50.281Z</time></trkpt><trkpt lat="45.665473" lon="12.5812719"><ele>-3.0</ele><time>2026-03-22T07:55:51.264Z</time></trkpt><trkpt lat="45.6656484" lon="12.5812901"><ele>-3.0</ele><time>2026-03-22T07:55:52.282Z</time></trkpt><trkpt lat="45.6658246" lon="12.5813173"><ele>-3.0</ele><time>2026-03-22T07:55:53.28Z</time></trkpt><trkpt lat="45.6660043" lon="12.5813491"><ele>-3.0</ele><time>2026-03-22T07:55:54.272Z</time></trkpt><trkpt lat="45.6661876" lon="12.5813923"><ele>-3.0</ele><time>2026-03-22T07:55:55.266Z</time></trkpt><trkpt lat="45.6663736" lon="12.5814155"><ele>-2.3333333333333335</ele><time>2026-03-22T07:55:56.281Z</time></trkpt><trkpt lat="45.6665596" lon="12.5814462"><ele>-1.6666666666666665</ele><time>2026-03-22T07:55:57.282Z</time></trkpt><trkpt lat="45.6667437" lon="12.581478"><ele>-1.0</ele><time>2026-03-22T07:55:58.27Z</time></trkpt><trkpt lat="45.6669225" lon="12.5815093"><ele>-1.3333333333333333</ele><time>2026-03-22T07:55:59.263Z</time></trkpt><trkpt lat="45.6670943" lon="12.5815393"><ele>-1.6666666666666665</ele><time>2026-03-22T07:56:00.269Z</time></trkpt><trkpt lat="45.6672593" lon="12.5815675"><ele>-2.0</ele><time>2026-03-22T07:56:01.269Z</time></trkpt><trkpt lat="45.6674179" lon="12.5815888"><ele>-2.0</ele><time>2026-03-22T07:56:02.27Z</time></trkpt><trkpt lat="45.667568" lon="12.5816194"><ele>-2.0</ele><time>2026-03-22T07:56:03.272Z</time></trkpt><trkpt lat="45.6677113" lon="12.5816252"><ele>-2.0</ele><time>2026-03-22T07:56:04.277Z</time></trkpt><trkpt lat="45.6678418" lon="12.5815953"><ele>-2.0</ele><time>2026-03-22T07:56:05.283Z</time></trkpt><trkpt lat="45.6679603" lon="12.5815428"><ele>-2.0</ele><time>2026-03-22T07:56:06.295Z</time></trkpt><trkpt lat="45.6680832" lon="12.5815014"><ele>-2.0</ele><time>2026-03-22T07:56:07.275Z</time></trkpt><trkpt lat="45.6682244" lon="12.5814967"><ele>-2.0</ele><time>2026-03-22T07:56:08.276Z</time></trkpt><trkpt lat="45.6683771" lon="12.5815258"><ele>-2.0</ele><time>2026-03-22T07:56:09.282Z</time></trkpt><trkpt lat="45.6685295" lon="12.5815352"><ele>-1.75</ele><time>2026-03-22T07:56:10.282Z</time></trkpt><trkpt lat="45.6686748" lon="12.581532"><ele>-1.5</ele><time>2026-03-22T07:56:11.281Z</time></trkpt><trkpt lat="45.6688154" lon="12.581569"><ele>-1.25</ele><time>2026-03-22T07:56:12.28Z</time></trkpt><trkpt lat="45.6689535" lon="12.5816419"><ele>-1.0</ele><time>2026-03-22T07:56:13.264Z</time></trkpt><trkpt lat="45.669101" lon="12.5817828"><ele>-1.0</ele><time>2026-03-22T07:56:14.279Z</time></trkpt><trkpt lat="45.6692799" lon="12.5818962"><ele>-1.0</ele><time>2026-03-22T07:56:15.282Z</time></trkpt><trkpt lat="45.669485" lon="12.5819591"><ele>-1.0</ele><time>2026-03-22T07:56:16.272Z</time></trkpt><trkpt lat="45.6696957" lon="12.5820004"><ele>-1.0</ele><time>2026-03-22T07:56:17.275Z</time></trkpt><trkpt lat="45.6699186" lon="12.582037"><ele>-1.0</ele><time>2026-03-22T07:56:18.262Z</time></trkpt><trkpt lat="45.6701408" lon="12.5820743"><ele>-1.0</ele><time>2026-03-22T07:56:19.277Z</time></trkpt><trkpt lat="45.6703497" lon="12.5821098"><ele>-1.0</ele><time>2026-03-22T07:56:20.275Z</time></trkpt><trkpt lat="45.6705466" lon="12.5821504"><ele>-1.0</ele><time>2026-03-22T07:56:21.278Z</time></trkpt><trkpt lat="45.6707333" lon="12.5821717"><ele>-1.0</ele><time>2026-03-22T07:56:22.27Z</time></trkpt><trkpt lat="45.6709152" lon="12.5822122"><ele>-1.0</ele><time>2026-03-22T07:56:23.28Z</time></trkpt><trkpt lat="45.6710949" lon="12.582249"><ele>-1.0</ele><time>2026-03-22T07:56:24.261Z</time></trkpt><trkpt lat="45.6712727" lon="12.5822878"><ele>-1.0</ele><time>2026-03-22T07:56:25.276Z</time></trkpt><trkpt lat="45.6714478" lon="12.5823583"><ele>-1.3333333333333333</ele><time>2026-03-22T07:56:26.269Z</time></trkpt><trkpt lat="45.6716148" lon="12.5824649"><ele>-1.6666666666666665</ele><time>2026-03-22T07:56:27.264Z</time></trkpt><trkpt lat="45.6717719" lon="12.5826015"><ele>-2.0</ele><time>2026-03-22T07:56:28.282Z</time></trkpt><trkpt lat="45.6719205" lon="12.5827636"><ele>-2.6666666666666665</ele><time>2026-03-22T07:56:29.254Z</time></trkpt><trkpt lat="45.672068" lon="12.5829437"><ele>-3.333333333333333</ele><time>2026-03-22T07:56:30.263Z</time></trkpt><trkpt lat="45.6722152" lon="12.5831256"><ele>-4.0</ele><time>2026-03-22T07:56:31.284Z</time></trkpt><trkpt lat="45.6723556" lon="12.5833012"><ele>-4.0</ele><time>2026-03-22T07:56:32.269Z</time></trkpt><trkpt lat="45.6724899" lon="12.5834679"><ele>-4.0</ele><time>2026-03-22T07:56:33.268Z</time></trkpt><trkpt lat="45.6726208" lon="12.5836293"><ele>-4.0</ele><time>2026-03-22T07:56:34.281Z</time></trkpt><trkpt lat="45.672751" lon="12.5837883"><ele>-3.333333333333333</ele><time>2026-03-22T07:56:35.281Z</time></trkpt><trkpt lat="45.67288" lon="12.5839487"><ele>-2.6666666666666665</ele><time>2026-03-22T07:56:36.279Z</time></trkpt><trkpt lat="45.6730104" lon="12.584109"><ele>-2.0</ele><time>2026-03-22T07:56:37.28Z</time></trkpt><trkpt lat="45.673143" lon="12.5842696"><ele>-2.0</ele><time>2026-03-22T07:56:38.27Z</time></trkpt><trkpt lat="45.673276" lon="12.5844309"><ele>-2.0</ele><time>2026-03-22T07:56:39.284Z</time></trkpt><trkpt lat="45.6734042" lon="12.5846006"><ele>-2.0</ele><time>2026-03-22T07:56:40.272Z</time></trkpt><trkpt lat="45.6735354" lon="12.584764"><ele>-2.333333333333333</ele><time>2026-03-22T07:56:41.28Z</time></trkpt><trkpt lat="45.6736663" lon="12.5849231"><ele>-2.6666666666666665</ele><time>2026-03-22T07:56:42.264Z</time></trkpt><trkpt lat="45.6737928" lon="12.5850831"><ele>-3.0</ele><time>2026-03-22T07:56:43.28Z</time></trkpt><trkpt lat="45.673921" lon="12.5852262"><ele>-3.0</ele><time>2026-03-22T07:56:44.267Z</time></trkpt><trkpt lat="45.6740446" lon="12.5853758"><ele>-3.0</ele><time>2026-03-22T07:56:45.272Z</time></trkpt><trkpt lat="45.6741669" lon="12.5855204"><ele>-3.0</ele><time>2026-03-22T07:56:46.258Z</time></trkpt><trkpt lat="45.6742866" lon="12.5856637"><ele>-3.0</ele><time>2026-03-22T07:56:47.261Z</time></trkpt><trkpt lat="45.6744009" lon="12.5858158"><ele>-3.0</ele><time>2026-03-22T07:56:48.266Z</time></trkpt><trkpt lat="45.6745221" lon="12.5859481"><ele>-3.0</ele><time>2026-03-22T07:56:49.264Z</time></trkpt><trkpt lat="45.6746401" lon="12.586084"><ele>-3.0</ele><time>2026-03-22T07:56:50.266Z</time></trkpt><trkpt lat="45.6747564" lon="12.5862243"><ele>-3.0</ele><time>2026-03-22T07:56:51.288Z</time></trkpt><trkpt lat="45.6748711" lon="12.5863596"><ele>-3.0</ele><time>2026-03-22T07:56:52.29Z</time></trkpt><trkpt lat="45.6749808" lon="12.5865034"><ele>-3.0</ele><time>2026-03-22T07:56:53.294Z</time></trkpt><trkpt lat="45.6750927" lon="12.5866405"><ele>-3.0</ele><time>2026-03-22T07:56:54.28Z</time></trkpt><trkpt lat="45.6752022" lon="12.5867759"><ele>-3.0</ele><time>2026-03-22T07:56:55.281Z</time></trkpt><trkpt lat="45.6753092" lon="12.5869102"><ele>-3.0</ele><time>2026-03-22T07:56:56.278Z</time></trkpt><trkpt lat="45.6754158" lon="12.5870406"><ele>-3.0</ele><time>2026-03-22T07:56:57.272Z</time></trkpt><trkpt lat="45.6755199" lon="12.5871705"><ele>-2.25</ele><time>2026-03-22T07:56:58.265Z</time></trkpt><trkpt lat="45.6756209" lon="12.5872947"><ele>-1.5</ele><time>2026-03-22T07:56:59.274Z</time></trkpt><trkpt lat="45.6757175" lon="12.5874134"><ele>-0.75</ele><time>2026-03-22T07:57:00.26Z</time></trkpt><trkpt lat="45.6758082" lon="12.5875246"><ele>0.0</ele><time>2026-03-22T07:57:01.283Z</time></trkpt><trkpt lat="45.6758896" lon="12.587623"><ele>0.0</ele><time>2026-03-22T07:57:02.265Z</time></trkpt><trkpt lat="45.6759599" lon="12.5877107"><ele>0.0</ele><time>2026-03-22T07:57:03.272Z</time></trkpt><trkpt lat="45.6760214" lon="12.5877877"><ele>0.0</ele><time>2026-03-22T07:57:04.268Z</time></trkpt><trkpt lat="45.6760996" lon="12.5878733"><ele>0.0</ele><time>2026-03-22T07:57:06.26Z</time></trkpt><trkpt lat="45.676166" lon="12.5879588"><ele>0.0</ele><time>2026-03-22T07:57:09.283Z</time></trkpt><trkpt lat="45.6762237" lon="12.5880195"><ele>0.0</ele><time>2026-03-22T07:57:12.27Z</time></trkpt><trkpt lat="45.6762818" lon="12.5880881"><ele>-0.16666666666666666</ele><time>2026-03-22T07:57:16.277Z</time></trkpt><trkpt lat="45.6763344" lon="12.5881581"><ele>-0.3333333333333333</ele><time>2026-03-22T07:57:18.263Z</time></trkpt><trkpt lat="45.6764164" lon="12.5882599"><ele>-0.5</ele><time>2026-03-22T07:57:20.264Z</time></trkpt><trkpt lat="45.6764736" lon="12.5883327"><ele>-0.6666666666666666</ele><time>2026-03-22T07:57:21.269Z</time></trkpt><trkpt lat="45.6765501" lon="12.5884045"><ele>-0.8333333333333333</ele><time>2026-03-22T07:57:22.289Z</time></trkpt><trkpt lat="45.6766247" lon="12.5884955"><ele>-1.0</ele><time>2026-03-22T07:57:23.267Z</time></trkpt><trkpt lat="45.6767145" lon="12.5886026"><ele>-0.3333333333333333</ele><time>2026-03-22T07:57:24.27Z</time></trkpt><trkpt lat="45.6768211" lon="12.5887219"><ele>0.3333333333333333</ele><time>2026-03-22T07:57:25.258Z</time></trkpt><trkpt lat="45.6769326" lon="12.5888432"><ele>1.0</ele><time>2026-03-22T07:57:26.289Z</time></trkpt><trkpt lat="45.6771586" lon="12.5890882"><ele>1.0</ele><time>2026-03-22T07:57:28.265Z</time></trkpt><trkpt lat="45.6772772" lon="12.5892128"><ele>1.0</ele><time>2026-03-22T07:57:29.266Z</time></trkpt><trkpt lat="45.6773999" lon="12.5893344"><ele>1.0</ele><time>2026-03-22T07:57:30.295Z</time></trkpt><trkpt lat="45.6775182" lon="12.5894621"><ele>1.0</ele><time>2026-03-22T07:57:31.272Z</time></trkpt><trkpt lat="45.6776312" lon="12.5895901"><ele>0.75</ele><time>2026-03-22T07:57:32.264Z</time></trkpt><trkpt lat="45.6777427" lon="12.5897046"><ele>0.5</ele><time>2026-03-22T07:57:33.275Z</time></trkpt><trkpt lat="45.6778498" lon="12.5898147"><ele>0.25</ele><time>2026-03-22T07:57:34.275Z</time></trkpt><trkpt lat="45.6779455" lon="12.5899238"><ele>0.0</ele><time>2026-03-22T07:57:35.267Z</time></trkpt><trkpt lat="45.6780457" lon="12.5900279"><ele>0.0</ele><time>2026-03-22T07:57:36.278Z</time></trkpt><trkpt lat="45.678151" lon="12.5901488"><ele>0.0</ele><time>2026-03-22T07:57:37.283Z</time></trkpt><trkpt lat="45.6782671" lon="12.5902865"><ele>0.0</ele><time>2026-03-22T07:57:38.274Z</time></trkpt><trkpt lat="45.6784049" lon="12.590432"><ele>0.0</ele><time>2026-03-22T07:57:39.269Z</time></trkpt><trkpt lat="45.678558" lon="12.5906033"><ele>0.0</ele><time>2026-03-22T07:57:40.258Z</time></trkpt><trkpt lat="45.6787399" lon="12.5907949"><ele>0.0</ele><time>2026-03-22T07:57:41.278Z</time></trkpt><trkpt lat="45.6789482" lon="12.5910122"><ele>0.0</ele><time>2026-03-22T07:57:42.26Z</time></trkpt><trkpt lat="45.6791784" lon="12.5912529"><ele>0.0</ele><time>2026-03-22T07:57:43.272Z</time></trkpt><trkpt lat="45.6794308" lon="12.5915129"><ele>0.5</ele><time>2026-03-22T07:57:44.279Z</time></trkpt><trkpt lat="45.6796862" lon="12.591783"><ele>1.0</ele><time>2026-03-22T07:57:45.277Z</time></trkpt><trkpt lat="45.6799336" lon="12.5920485"><ele>1.0</ele><time>2026-03-22T07:57:46.271Z</time></trkpt><trkpt lat="45.6801659" lon="12.5922988"><ele>1.0</ele><time>2026-03-22T07:57:47.267Z</time></trkpt><trkpt lat="45.6803829" lon="12.592534"><ele>0.5</ele><time>2026-03-22T07:57:48.265Z</time></trkpt><trkpt lat="45.6805854" lon="12.5927454"><ele>0.0</ele><time>2026-03-22T07:57:49.284Z</time></trkpt><trkpt lat="45.6807759" lon="12.592914"><ele>-0.3333333333333333</ele><time>2026-03-22T07:57:50.269Z</time></trkpt><trkpt lat="45.6809649" lon="12.5930556"><ele>-0.6666666666666666</ele><time>2026-03-22T07:57:51.273Z</time></trkpt><trkpt lat="45.681168" lon="12.5931304"><ele>-1.0</ele><time>2026-03-22T07:57:52.269Z</time></trkpt><trkpt lat="45.6813831" lon="12.5931561"><ele>-1.5</ele><time>2026-03-22T07:57:53.281Z</time></trkpt><trkpt lat="45.681606" lon="12.5931639"><ele>-2.0</ele><time>2026-03-22T07:57:54.271Z</time></trkpt><trkpt lat="45.6818338" lon="12.5931717"><ele>-1.6666666666666665</ele><time>2026-03-22T07:57:55.276Z</time></trkpt><trkpt lat="45.6820616" lon="12.5931787"><ele>-1.3333333333333333</ele><time>2026-03-22T07:57:56.261Z</time></trkpt><trkpt lat="45.6822757" lon="12.5932028"><ele>-1.0</ele><time>2026-03-22T07:57:57.285Z</time></trkpt><trkpt lat="45.6824781" lon="12.5932188"><ele>-1.0</ele><time>2026-03-22T07:57:58.262Z</time></trkpt><trkpt lat="45.6826765" lon="12.5932377"><ele>-1.0</ele><time>2026-03-22T07:57:59.28Z</time></trkpt><trkpt lat="45.6828733" lon="12.5932693"><ele>-1.0</ele><time>2026-03-22T07:58:00.269Z</time></trkpt><trkpt lat="45.6830678" lon="12.5933197"><ele>-0.6666666666666666</ele><time>2026-03-22T07:58:01.285Z</time></trkpt><trkpt lat="45.6832573" lon="12.5933754"><ele>-0.3333333333333333</ele><time>2026-03-22T07:58:02.259Z</time></trkpt><trkpt lat="45.683443" lon="12.5934816"><ele>0.0</ele><time>2026-03-22T07:58:03.277Z</time></trkpt><trkpt lat="45.683628" lon="12.5936139"><ele>0.3333333333333333</ele><time>2026-03-22T07:58:04.282Z</time></trkpt><trkpt lat="45.6838095" lon="12.5937855"><ele>0.6666666666666666</ele><time>2026-03-22T07:58:05.284Z</time></trkpt><trkpt lat="45.6839985" lon="12.5939564"><ele>1.0</ele><time>2026-03-22T07:58:06.289Z</time></trkpt><trkpt lat="45.6841705" lon="12.5941675"><ele>1.0</ele><time>2026-03-22T07:58:07.271Z</time></trkpt><trkpt lat="45.6843373" lon="12.5943782"><ele>1.0</ele><time>2026-03-22T07:58:08.277Z</time></trkpt><trkpt lat="45.6845017" lon="12.5945927"><ele>1.0</ele><time>2026-03-22T07:58:09.275Z</time></trkpt><trkpt lat="45.6846655" lon="12.5948046"><ele>0.3333333333333333</ele><time>2026-03-22T07:58:10.272Z</time></trkpt><trkpt lat="45.6848365" lon="12.5950137"><ele>-0.3333333333333333</ele><time>2026-03-22T07:58:11.266Z</time></trkpt><trkpt lat="45.6850039" lon="12.5952227"><ele>-1.0</ele><time>2026-03-22T07:58:12.273Z</time></trkpt><trkpt lat="45.6851659" lon="12.5954303"><ele>-1.6666666666666665</ele><time>2026-03-22T07:58:13.284Z</time></trkpt><trkpt lat="45.6853169" lon="12.5956248"><ele>-2.3333333333333335</ele><time>2026-03-22T07:58:14.271Z</time></trkpt><trkpt lat="45.6854632" lon="12.5958143"><ele>-3.0</ele><time>2026-03-22T07:58:15.275Z</time></trkpt><trkpt lat="45.6856055" lon="12.5959967"><ele>-2.6666666666666665</ele><time>2026-03-22T07:58:16.262Z</time></trkpt><trkpt lat="45.6857471" lon="12.5961724"><ele>-2.333333333333333</ele><time>2026-03-22T07:58:17.256Z</time></trkpt><trkpt lat="45.6858883" lon="12.5963455"><ele>-2.0</ele><time>2026-03-22T07:58:18.287Z</time></trkpt><trkpt lat="45.6860293" lon="12.5965178"><ele>-2.0</ele><time>2026-03-22T07:58:19.266Z</time></trkpt><trkpt lat="45.68617" lon="12.5966919"><ele>-2.0</ele><time>2026-03-22T07:58:20.29Z</time></trkpt><trkpt lat="45.6863118" lon="12.5968687"><ele>-2.0</ele><time>2026-03-22T07:58:21.276Z</time></trkpt><trkpt lat="45.6864542" lon="12.5970489"><ele>-2.0</ele><time>2026-03-22T07:58:22.279Z</time></trkpt><trkpt lat="45.6865956" lon="12.5972306"><ele>-2.0</ele><time>2026-03-22T07:58:23.267Z</time></trkpt><trkpt lat="45.6867362" lon="12.5974107"><ele>-2.0</ele><time>2026-03-22T07:58:24.273Z</time></trkpt><trkpt lat="45.6868764" lon="12.5975896"><ele>-2.0</ele><time>2026-03-22T07:58:25.29Z</time></trkpt><trkpt lat="45.6870172" lon="12.5977677"><ele>-2.0</ele><time>2026-03-22T07:58:26.272Z</time></trkpt><trkpt lat="45.6871584" lon="12.5979478"><ele>-2.0</ele><time>2026-03-22T07:58:27.278Z</time></trkpt><trkpt lat="45.6873007" lon="12.5981295"><ele>-2.0</ele><time>2026-03-22T07:58:28.267Z</time></trkpt><trkpt lat="45.6874435" lon="12.598312"><ele>-2.0</ele><time>2026-03-22T07:58:29.284Z</time></trkpt><trkpt lat="45.687588" lon="12.5984934"><ele>-2.0</ele><time>2026-03-22T07:58:30.288Z</time></trkpt><trkpt lat="45.6877344" lon="12.5986754"><ele>-2.0</ele><time>2026-03-22T07:58:31.284Z</time></trkpt><trkpt lat="45.6878817" lon="12.5988602"><ele>-2.0</ele><time>2026-03-22T07:58:32.27Z</time></trkpt><trkpt lat="45.6880277" lon="12.5990472"><ele>-2.0</ele><time>2026-03-22T07:58:33.271Z</time></trkpt><trkpt lat="45.68817" lon="12.5992368"><ele>-2.0</ele><time>2026-03-22T07:58:34.296Z</time></trkpt><trkpt lat="45.6883126" lon="12.5994213"><ele>-2.0</ele><time>2026-03-22T07:58:35.292Z</time></trkpt><trkpt lat="45.6884554" lon="12.5996021"><ele>-2.0</ele><time>2026-03-22T07:58:36.271Z</time></trkpt><trkpt lat="45.6885985" lon="12.5997819"><ele>-1.3333333333333333</ele><time>2026-03-22T07:58:37.271Z</time></trkpt><trkpt lat="45.6887423" lon="12.599959"><ele>-0.6666666666666666</ele><time>2026-03-22T07:58:38.275Z</time></trkpt><trkpt lat="45.6888837" lon="12.6001384"><ele>0.0</ele><time>2026-03-22T07:58:39.268Z</time></trkpt><trkpt lat="45.6890246" lon="12.6003175"><ele>0.0</ele><time>2026-03-22T07:58:40.274Z</time></trkpt><trkpt lat="45.6891636" lon="12.6004982"><ele>0.0</ele><time>2026-03-22T07:58:41.293Z</time></trkpt><trkpt lat="45.6893024" lon="12.6006781"><ele>0.0</ele><time>2026-03-22T07:58:42.286Z</time></trkpt><trkpt lat="45.68944" lon="12.6008584"><ele>0.0</ele><time>2026-03-22T07:58:43.308Z</time></trkpt><trkpt lat="45.6895748" lon="12.6010294"><ele>0.0</ele><time>2026-03-22T07:58:44.292Z</time></trkpt><trkpt lat="45.6896989" lon="12.6011982"><ele>0.0</ele><time>2026-03-22T07:58:45.306Z</time></trkpt><trkpt lat="45.6898184" lon="12.6013557"><ele>0.0</ele><time>2026-03-22T07:58:46.277Z</time></trkpt><trkpt lat="45.6899323" lon="12.6014996"><ele>0.0</ele><time>2026-03-22T07:58:47.28Z</time></trkpt><trkpt lat="45.6900343" lon="12.6016359"><ele>0.0</ele><time>2026-03-22T07:58:48.272Z</time></trkpt><trkpt lat="45.6901271" lon="12.6017587"><ele>0.0</ele><time>2026-03-22T07:58:49.281Z</time></trkpt><trkpt lat="45.6902049" lon="12.6018835"><ele>0.25</ele><time>2026-03-22T07:58:50.264Z</time></trkpt><trkpt lat="45.6902654" lon="12.6020222"><ele>0.5</ele><time>2026-03-22T07:58:51.281Z</time></trkpt><trkpt lat="45.690316" lon="12.6021762"><ele>0.75</ele><time>2026-03-22T07:58:52.263Z</time></trkpt><trkpt lat="45.690352" lon="12.6023586"><ele>1.0</ele><time>2026-03-22T07:58:53.283Z</time></trkpt><trkpt lat="45.6904311" lon="12.6025344"><ele>1.0</ele><time>2026-03-22T07:58:54.274Z</time></trkpt><trkpt lat="45.6905205" lon="12.6027056"><ele>1.0</ele><time>2026-03-22T07:58:55.288Z</time></trkpt><trkpt lat="45.6906086" lon="12.6028615"><ele>1.0</ele><time>2026-03-22T07:58:56.276Z</time></trkpt><trkpt lat="45.6906951" lon="12.6030019"><ele>1.0</ele><time>2026-03-22T07:58:57.282Z</time></trkpt><trkpt lat="45.6907899" lon="12.6031124"><ele>1.0</ele><time>2026-03-22T07:58:58.265Z</time></trkpt><trkpt lat="45.690908" lon="12.6031795"><ele>1.0</ele><time>2026-03-22T07:58:59.265Z</time></trkpt><trkpt lat="45.6910483" lon="12.6031948"><ele>1.0</ele><time>2026-03-22T07:59:00.293Z</time></trkpt><trkpt lat="45.691203" lon="12.603169"><ele>1.0</ele><time>2026-03-22T07:59:01.268Z</time></trkpt><trkpt lat="45.6913663" lon="12.6031517"><ele>1.0</ele><time>2026-03-22T07:59:02.275Z</time></trkpt><trkpt lat="45.6915279" lon="12.603126"><ele>1.0</ele><time>2026-03-22T07:59:03.277Z</time></trkpt><trkpt lat="45.6916958" lon="12.6031208"><ele>1.0</ele><time>2026-03-22T07:59:04.266Z</time></trkpt><trkpt lat="45.6918775" lon="12.6031797"><ele>0.3333333333333333</ele><time>2026-03-22T07:59:05.279Z</time></trkpt><trkpt lat="45.6920626" lon="12.6032532"><ele>-0.3333333333333333</ele><time>2026-03-22T07:59:06.284Z</time></trkpt><trkpt lat="45.6922516" lon="12.6033408"><ele>-1.0</ele><time>2026-03-22T07:59:07.277Z</time></trkpt><trkpt lat="45.6924382" lon="12.6034073"><ele>-1.0</ele><time>2026-03-22T07:59:08.267Z</time></trkpt><trkpt lat="45.6926209" lon="12.6034885"><ele>-1.0</ele><time>2026-03-22T07:59:09.269Z</time></trkpt><trkpt lat="45.6927994" lon="12.6035604"><ele>-1.0</ele><time>2026-03-22T07:59:10.274Z</time></trkpt><trkpt lat="45.6929747" lon="12.6036325"><ele>-1.0</ele><time>2026-03-22T07:59:11.28Z</time></trkpt><trkpt lat="45.6931477" lon="12.6037036"><ele>-1.0</ele><time>2026-03-22T07:59:12.282Z</time></trkpt><trkpt lat="45.6933199" lon="12.6037734"><ele>-1.0</ele><time>2026-03-22T07:59:13.29Z</time></trkpt><trkpt lat="45.693491" lon="12.6038449"><ele>-0.6666666666666666</ele><time>2026-03-22T07:59:14.283Z</time></trkpt><trkpt lat="45.6936627" lon="12.6039127"><ele>-0.3333333333333333</ele><time>2026-03-22T07:59:15.269Z</time></trkpt><trkpt lat="45.6938338" lon="12.6039791"><ele>0.0</ele><time>2026-03-22T07:59:16.271Z</time></trkpt><trkpt lat="45.6940041" lon="12.604046"><ele>0.0</ele><time>2026-03-22T07:59:17.27Z</time></trkpt><trkpt lat="45.6941747" lon="12.6041112"><ele>0.0</ele><time>2026-03-22T07:59:18.274Z</time></trkpt><trkpt lat="45.6943437" lon="12.6041751"><ele>0.0</ele><time>2026-03-22T07:59:19.281Z</time></trkpt><trkpt lat="45.6945111" lon="12.6042381"><ele>0.0</ele><time>2026-03-22T07:59:20.284Z</time></trkpt><trkpt lat="45.6946789" lon="12.6043015"><ele>0.0</ele><time>2026-03-22T07:59:21.285Z</time></trkpt><trkpt lat="45.6948467" lon="12.6043485"><ele>0.0</ele><time>2026-03-22T07:59:22.282Z</time></trkpt><trkpt lat="45.695014" lon="12.6044226"><ele>0.0</ele><time>2026-03-22T07:59:23.283Z</time></trkpt><trkpt lat="45.695184" lon="12.6044725"><ele>0.0</ele><time>2026-03-22T07:59:24.265Z</time></trkpt><trkpt lat="45.6953536" lon="12.6045329"><ele>0.0</ele><time>2026-03-22T07:59:25.273Z</time></trkpt><trkpt lat="45.6955257" lon="12.6045953"><ele>-0.6666666666666666</ele><time>2026-03-22T07:59:26.269Z</time></trkpt><trkpt lat="45.6957005" lon="12.604672"><ele>-1.3333333333333333</ele><time>2026-03-22T07:59:27.274Z</time></trkpt><trkpt lat="45.6958794" lon="12.6047394"><ele>-2.0</ele><time>2026-03-22T07:59:28.27Z</time></trkpt><trkpt lat="45.6960602" lon="12.6047967"><ele>-2.0</ele><time>2026-03-22T07:59:29.266Z</time></trkpt><trkpt lat="45.6962418" lon="12.6048635"><ele>-2.0</ele><time>2026-03-22T07:59:30.279Z</time></trkpt><trkpt lat="45.6964258" lon="12.6049277"><ele>-2.0</ele><time>2026-03-22T07:59:31.281Z</time></trkpt><trkpt lat="45.6966128" lon="12.6049925"><ele>-2.0</ele><time>2026-03-22T07:59:32.278Z</time></trkpt><trkpt lat="45.6968019" lon="12.6050598"><ele>-2.0</ele><time>2026-03-22T07:59:33.282Z</time></trkpt><trkpt lat="45.6969923" lon="12.605129"><ele>-2.0</ele><time>2026-03-22T07:59:34.274Z</time></trkpt><trkpt lat="45.6971827" lon="12.6051992"><ele>-1.6666666666666665</ele><time>2026-03-22T07:59:35.263Z</time></trkpt><trkpt lat="45.6973711" lon="12.6052689"><ele>-1.3333333333333333</ele><time>2026-03-22T07:59:36.262Z</time></trkpt><trkpt lat="45.697556" lon="12.6053374"><ele>-1.0</ele><time>2026-03-22T07:59:37.285Z</time></trkpt><trkpt lat="45.6977363" lon="12.6054034"><ele>-0.6666666666666666</ele><time>2026-03-22T07:59:38.276Z</time></trkpt><trkpt lat="45.6979113" lon="12.6054674"><ele>-0.3333333333333333</ele><time>2026-03-22T07:59:39.279Z</time></trkpt><trkpt lat="45.6980821" lon="12.6055281"><ele>0.0</ele><time>2026-03-22T07:59:40.275Z</time></trkpt><trkpt lat="45.6982532" lon="12.6055862"><ele>0.0</ele><time>2026-03-22T07:59:41.278Z</time></trkpt><trkpt lat="45.6984254" lon="12.6056299"><ele>0.0</ele><time>2026-03-22T07:59:42.267Z</time></trkpt><trkpt lat="45.6985975" lon="12.605682"><ele>0.0</ele><time>2026-03-22T07:59:43.299Z</time></trkpt><trkpt lat="45.698773" lon="12.6057266"><ele>-0.3333333333333333</ele><time>2026-03-22T07:59:44.285Z</time></trkpt><trkpt lat="45.6989571" lon="12.6057433"><ele>-0.6666666666666666</ele><time>2026-03-22T07:59:45.263Z</time></trkpt><trkpt lat="45.6991506" lon="12.6057475"><ele>-1.0</ele><time>2026-03-22T07:59:46.26Z</time></trkpt><trkpt lat="45.6993565" lon="12.6057446"><ele>-0.3333333333333333</ele><time>2026-03-22T07:59:47.275Z</time></trkpt><trkpt lat="45.6995689" lon="12.6057462"><ele>0.3333333333333333</ele><time>2026-03-22T07:59:48.285Z</time></trkpt><trkpt lat="45.6997749" lon="12.6057504"><ele>1.0</ele><time>2026-03-22T07:59:49.275Z</time></trkpt><trkpt lat="45.6999672" lon="12.6057611"><ele>1.0</ele><time>2026-03-22T07:59:50.266Z</time></trkpt><trkpt lat="45.700149" lon="12.6057654"><ele>1.0</ele><time>2026-03-22T07:59:51.26Z</time></trkpt><trkpt lat="45.700323" lon="12.6057688"><ele>1.0</ele><time>2026-03-22T07:59:52.264Z</time></trkpt><trkpt lat="45.7004928" lon="12.6057902"><ele>0.3333333333333333</ele><time>2026-03-22T07:59:53.295Z</time></trkpt><trkpt lat="45.7006594" lon="12.6058009"><ele>-0.3333333333333333</ele><time>2026-03-22T07:59:54.264Z</time></trkpt><trkpt lat="45.7008224" lon="12.6058094"><ele>-1.0</ele><time>2026-03-22T07:59:55.283Z</time></trkpt><trkpt lat="45.7009715" lon="12.6058165"><ele>-1.0</ele><time>2026-03-22T07:59:56.274Z</time></trkpt><trkpt lat="45.7010944" lon="12.6057865"><ele>-1.0</ele><time>2026-03-22T07:59:57.258Z</time></trkpt><trkpt lat="45.7011963" lon="12.6057845"><ele>-1.0</ele><time>2026-03-22T07:59:58.271Z</time></trkpt><trkpt lat="45.7012784" lon="12.6057859"><ele>-1.0</ele><time>2026-03-22T07:59:59.273Z</time></trkpt><trkpt lat="45.701378" lon="12.6058768"><ele>-1.0</ele><time>2026-03-22T08:00:01.276Z</time></trkpt><trkpt lat="45.7013744" lon="12.6060608"><ele>-1.25</ele><time>2026-03-22T08:00:03.276Z</time></trkpt><trkpt lat="45.7013255" lon="12.6061753"><ele>-1.5</ele><time>2026-03-22T08:00:04.274Z</time></trkpt><trkpt lat="45.701264" lon="12.6063159"><ele>-1.75</ele><time>2026-03-22T08:00:05.281Z</time></trkpt><trkpt lat="45.7011929" lon="12.6064856"><ele>-2.0</ele><time>2026-03-22T08:00:06.283Z</time></trkpt><trkpt lat="45.7011178" lon="12.606659"><ele>-1.75</ele><time>2026-03-22T08:00:07.281Z</time></trkpt><trkpt lat="45.7010503" lon="12.6068256"><ele>-1.5</ele><time>2026-03-22T08:00:08.259Z</time></trkpt><trkpt lat="45.7009888" lon="12.6069922"><ele>-1.25</ele><time>2026-03-22T08:00:09.278Z</time></trkpt><trkpt lat="45.7009329" lon="12.6071671"><ele>-1.0</ele><time>2026-03-22T08:00:10.284Z</time></trkpt><trkpt lat="45.700893" lon="12.607359"><ele>-1.25</ele><time>2026-03-22T08:00:11.271Z</time></trkpt><trkpt lat="45.7008561" lon="12.6075611"><ele>-1.5</ele><time>2026-03-22T08:00:12.266Z</time></trkpt><trkpt lat="45.7008242" lon="12.607769"><ele>-1.75</ele><time>2026-03-22T08:00:13.279Z</time></trkpt><trkpt lat="45.7008012" lon="12.6079745"><ele>-2.0</ele><time>2026-03-22T08:00:14.27Z</time></trkpt><trkpt lat="45.7007748" lon="12.6081765"><ele>-2.0</ele><time>2026-03-22T08:00:15.281Z</time></trkpt><trkpt lat="45.700763" lon="12.6083836"><ele>-2.0</ele><time>2026-03-22T08:00:16.265Z</time></trkpt><trkpt lat="45.700751" lon="12.6085906"><ele>-2.0</ele><time>2026-03-22T08:00:17.279Z</time></trkpt><trkpt lat="45.7007284" lon="12.6087933"><ele>-2.0</ele><time>2026-03-22T08:00:18.264Z</time></trkpt><trkpt lat="45.7006964" lon="12.6089915"><ele>-1.75</ele><time>2026-03-22T08:00:19.274Z</time></trkpt><trkpt lat="45.7006697" lon="12.6091879"><ele>-1.5</ele><time>2026-03-22T08:00:20.284Z</time></trkpt><trkpt lat="45.7006464" lon="12.6093818"><ele>-1.25</ele><time>2026-03-22T08:00:21.281Z</time></trkpt><trkpt lat="45.700637" lon="12.6095773"><ele>-1.0</ele><time>2026-03-22T08:00:22.289Z</time></trkpt><trkpt lat="45.7006287" lon="12.6097759"><ele>-0.75</ele><time>2026-03-22T08:00:23.299Z</time></trkpt><trkpt lat="45.7006374" lon="12.6099782"><ele>-0.5</ele><time>2026-03-22T08:00:24.27Z</time></trkpt><trkpt lat="45.7006518" lon="12.6101784"><ele>-0.25</ele><time>2026-03-22T08:00:25.279Z</time></trkpt><trkpt lat="45.7006664" lon="12.6103777"><ele>0.0</ele><time>2026-03-22T08:00:26.28Z</time></trkpt><trkpt lat="45.7006936" lon="12.6105759"><ele>0.0</ele><time>2026-03-22T08:00:27.281Z</time></trkpt><trkpt lat="45.700705" lon="12.6107764"><ele>0.0</ele><time>2026-03-22T08:00:28.287Z</time></trkpt><trkpt lat="45.7007158" lon="12.6109803"><ele>0.0</ele><time>2026-03-22T08:00:29.267Z</time></trkpt><trkpt lat="45.7007316" lon="12.6111887"><ele>0.0</ele><time>2026-03-22T08:00:30.268Z</time></trkpt><trkpt lat="45.700719" lon="12.6114009"><ele>0.0</ele><time>2026-03-22T08:00:31.278Z</time></trkpt><trkpt lat="45.7006549" lon="12.6116088"><ele>0.0</ele><time>2026-03-22T08:00:32.27Z</time></trkpt><trkpt lat="45.7006043" lon="12.6118201"><ele>0.0</ele><time>2026-03-22T08:00:33.283Z</time></trkpt><trkpt lat="45.7005389" lon="12.6120231"><ele>0.25</ele><time>2026-03-22T08:00:34.27Z</time></trkpt><trkpt lat="45.7004817" lon="12.6122292"><ele>0.5</ele><time>2026-03-22T08:00:35.277Z</time></trkpt><trkpt lat="45.7004055" lon="12.6124215"><ele>0.75</ele><time>2026-03-22T08:00:36.262Z</time></trkpt><trkpt lat="45.7003312" lon="12.6125893"><ele>1.0</ele><time>2026-03-22T08:00:37.262Z</time></trkpt><trkpt lat="45.7002595" lon="12.6127085"><ele>0.9999999999999999</ele><time>2026-03-22T08:00:38.269Z</time></trkpt><trkpt lat="45.7001936" lon="12.6127993"><ele>1.0</ele><time>2026-03-22T08:00:39.278Z</time></trkpt><trkpt lat="45.7001517" lon="12.6128786"><ele>1.0</ele><time>2026-03-22T08:00:40.272Z</time></trkpt><trkpt lat="45.7001351" lon="12.6129954"><ele>1.0</ele><time>2026-03-22T08:00:42.271Z</time></trkpt><trkpt lat="45.7001418" lon="12.613105"><ele>0.9999999999999999</ele><time>2026-03-22T08:00:45.286Z</time></trkpt><trkpt lat="45.7002495" lon="12.6130674"><ele>1.0</ele><time>2026-03-22T08:00:49.277Z</time></trkpt><trkpt lat="45.7003485" lon="12.612949"><ele>1.0</ele><time>2026-03-22T08:00:50.261Z</time></trkpt><trkpt lat="45.7004777" lon="12.6128064"><ele>1.0</ele><time>2026-03-22T08:00:51.281Z</time></trkpt><trkpt lat="45.7006314" lon="12.6126515"><ele>1.0</ele><time>2026-03-22T08:00:52.268Z</time></trkpt><trkpt lat="45.7008007" lon="12.6124788"><ele>1.0</ele><time>2026-03-22T08:00:53.292Z</time></trkpt><trkpt lat="45.7009689" lon="12.6123059"><ele>1.0</ele><time>2026-03-22T08:00:54.27Z</time></trkpt><trkpt lat="45.7011338" lon="12.6121334"><ele>1.0</ele><time>2026-03-22T08:00:55.279Z</time></trkpt><trkpt lat="45.7012925" lon="12.6119725"><ele>0.3333333333333333</ele><time>2026-03-22T08:00:56.266Z</time></trkpt><trkpt lat="45.7014463" lon="12.6118005"><ele>-0.3333333333333333</ele><time>2026-03-22T08:00:57.286Z</time></trkpt><trkpt lat="45.7016088" lon="12.6116465"><ele>-1.0</ele><time>2026-03-22T08:00:58.283Z</time></trkpt><trkpt lat="45.7017692" lon="12.6114876"><ele>0.33333333333333337</ele><time>2026-03-22T08:00:59.261Z</time></trkpt><trkpt lat="45.7019269" lon="12.6113249"><ele>1.6666666666666667</ele><time>2026-03-22T08:01:00.278Z</time></trkpt><trkpt lat="45.7020721" lon="12.6111428"><ele>3.0</ele><time>2026-03-22T08:01:01.269Z</time></trkpt><trkpt lat="45.7022232" lon="12.610974"><ele>3.0</ele><time>2026-03-22T08:01:02.274Z</time></trkpt><trkpt lat="45.7023766" lon="12.610808"><ele>3.0</ele><time>2026-03-22T08:01:03.283Z</time></trkpt><trkpt lat="45.7025329" lon="12.6106431"><ele>3.0</ele><time>2026-03-22T08:01:04.27Z</time></trkpt><trkpt lat="45.7026931" lon="12.6104755"><ele>3.0</ele><time>2026-03-22T08:01:05.282Z</time></trkpt><trkpt lat="45.7028561" lon="12.6103021"><ele>3.0</ele><time>2026-03-22T08:01:06.273Z</time></trkpt><trkpt lat="45.7030179" lon="12.6101196"><ele>3.0</ele><time>2026-03-22T08:01:07.267Z</time></trkpt><trkpt lat="45.703184" lon="12.6099408"><ele>3.0</ele><time>2026-03-22T08:01:08.277Z</time></trkpt><trkpt lat="45.7033523" lon="12.609765"><ele>3.0</ele><time>2026-03-22T08:01:09.285Z</time></trkpt><trkpt lat="45.7035182" lon="12.609589"><ele>3.0</ele><time>2026-03-22T08:01:10.279Z</time></trkpt><trkpt lat="45.7036799" lon="12.6094142"><ele>3.0</ele><time>2026-03-22T08:01:11.275Z</time></trkpt><trkpt lat="45.7038349" lon="12.6092472"><ele>3.0</ele><time>2026-03-22T08:01:12.289Z</time></trkpt><trkpt lat="45.7039841" lon="12.6090883"><ele>3.0</ele><time>2026-03-22T08:01:13.297Z</time></trkpt><trkpt lat="45.7041331" lon="12.608936"><ele>3.0</ele><time>2026-03-22T08:01:14.26Z</time></trkpt><trkpt lat="45.7042802" lon="12.6087857"><ele>3.0</ele><time>2026-03-22T08:01:15.282Z</time></trkpt><trkpt lat="45.7044246" lon="12.608634"><ele>3.0</ele><time>2026-03-22T08:01:16.283Z</time></trkpt><trkpt lat="45.7045681" lon="12.6084809"><ele>2.3333333333333335</ele><time>2026-03-22T08:01:17.278Z</time></trkpt><trkpt lat="45.7047137" lon="12.6083308"><ele>1.6666666666666665</ele><time>2026-03-22T08:01:18.268Z</time></trkpt><trkpt lat="45.7048631" lon="12.6081867"><ele>1.0</ele><time>2026-03-22T08:01:19.275Z</time></trkpt><trkpt lat="45.7050073" lon="12.6080316"><ele>1.0</ele><time>2026-03-22T08:01:20.273Z</time></trkpt><trkpt lat="45.7051527" lon="12.607879"><ele>1.0</ele><time>2026-03-22T08:01:21.263Z</time></trkpt><trkpt lat="45.7052955" lon="12.607718"><ele>1.0</ele><time>2026-03-22T08:01:22.292Z</time></trkpt><trkpt lat="45.7054432" lon="12.6075654"><ele>1.3333333333333333</ele><time>2026-03-22T08:01:23.279Z</time></trkpt><trkpt lat="45.7055917" lon="12.607411"><ele>1.6666666666666665</ele><time>2026-03-22T08:01:24.268Z</time></trkpt><trkpt lat="45.7057429" lon="12.607256"><ele>2.0</ele><time>2026-03-22T08:01:25.284Z</time></trkpt><trkpt lat="45.7059067" lon="12.60712"><ele>1.6666666666666665</ele><time>2026-03-22T08:01:26.267Z</time></trkpt><trkpt lat="45.7060491" lon="12.6069436"><ele>1.3333333333333333</ele><time>2026-03-22T08:01:27.286Z</time></trkpt><trkpt lat="45.7061985" lon="12.6067806"><ele>1.0</ele><time>2026-03-22T08:01:28.276Z</time></trkpt><trkpt lat="45.7063485" lon="12.6066198"><ele>1.0</ele><time>2026-03-22T08:01:29.279Z</time></trkpt><trkpt lat="45.7064979" lon="12.6064599"><ele>1.0</ele><time>2026-03-22T08:01:30.266Z</time></trkpt><trkpt lat="45.7066467" lon="12.6063007"><ele>1.0</ele><time>2026-03-22T08:01:31.256Z</time></trkpt><trkpt lat="45.7067959" lon="12.6061442"><ele>1.3333333333333333</ele><time>2026-03-22T08:01:32.274Z</time></trkpt><trkpt lat="45.7069544" lon="12.6060055"><ele>1.6666666666666665</ele><time>2026-03-22T08:01:33.267Z</time></trkpt><trkpt lat="45.7071032" lon="12.6058539"><ele>2.0</ele><time>2026-03-22T08:01:34.271Z</time></trkpt><trkpt lat="45.707247" lon="12.6057018"><ele>2.0</ele><time>2026-03-22T08:01:35.282Z</time></trkpt><trkpt lat="45.707388" lon="12.6055527"><ele>2.0</ele><time>2026-03-22T08:01:36.271Z</time></trkpt><trkpt lat="45.7075284" lon="12.6054087"><ele>2.0</ele><time>2026-03-22T08:01:37.302Z</time></trkpt><trkpt lat="45.7076674" lon="12.6052747"><ele>1.6666666666666665</ele><time>2026-03-22T08:01:38.262Z</time></trkpt><trkpt lat="45.7078039" lon="12.6051512"><ele>1.3333333333333333</ele><time>2026-03-22T08:01:39.285Z</time></trkpt><trkpt lat="45.7079362" lon="12.6050377"><ele>1.0</ele><time>2026-03-22T08:01:40.267Z</time></trkpt><trkpt lat="45.708063" lon="12.6049349"><ele>1.0</ele><time>2026-03-22T08:01:41.295Z</time></trkpt><trkpt lat="45.7081859" lon="12.6048507"><ele>1.0</ele><time>2026-03-22T08:01:42.272Z</time></trkpt><trkpt lat="45.7083035" lon="12.6047904"><ele>1.0</ele><time>2026-03-22T08:01:43.307Z</time></trkpt><trkpt lat="45.7084212" lon="12.6047625"><ele>1.0</ele><time>2026-03-22T08:01:44.271Z</time></trkpt><trkpt lat="45.7085411" lon="12.6047577"><ele>1.0</ele><time>2026-03-22T08:01:45.278Z</time></trkpt><trkpt lat="45.7086651" lon="12.6047358"><ele>1.0</ele><time>2026-03-22T08:01:46.276Z</time></trkpt><trkpt lat="45.7087879" lon="12.6046629"><ele>1.0</ele><time>2026-03-22T08:01:47.272Z</time></trkpt><trkpt lat="45.7089114" lon="12.6045662"><ele>1.0</ele><time>2026-03-22T08:01:48.276Z</time></trkpt><trkpt lat="45.7090319" lon="12.6044215"><ele>1.0</ele><time>2026-03-22T08:01:49.275Z</time></trkpt><trkpt lat="45.7091726" lon="12.6042935"><ele>1.0</ele><time>2026-03-22T08:01:50.27Z</time></trkpt><trkpt lat="45.7093272" lon="12.6041771"><ele>1.0</ele><time>2026-03-22T08:01:51.267Z</time></trkpt><trkpt lat="45.7094832" lon="12.6040816"><ele>0.75</ele><time>2026-03-22T08:01:52.268Z</time></trkpt><trkpt lat="45.7096293" lon="12.6040005"><ele>0.5</ele><time>2026-03-22T08:01:53.288Z</time></trkpt><trkpt lat="45.7097687" lon="12.6039257"><ele>0.25</ele><time>2026-03-22T08:01:54.273Z</time></trkpt><trkpt lat="45.7098992" lon="12.603857"><ele>0.0</ele><time>2026-03-22T08:01:55.281Z</time></trkpt><trkpt lat="45.7100118" lon="12.6038035"><ele>0.0</ele><time>2026-03-22T08:01:56.272Z</time></trkpt><trkpt lat="45.7101062" lon="12.603768"><ele>0.0</ele><time>2026-03-22T08:01:57.283Z</time></trkpt><trkpt lat="45.7101892" lon="12.6037521"><ele>0.0</ele><time>2026-03-22T08:01:58.27Z</time></trkpt><trkpt lat="45.7102615" lon="12.6037306"><ele>0.0</ele><time>2026-03-22T08:01:59.29Z</time></trkpt><trkpt lat="45.7103759" lon="12.6036973"><ele>0.0</ele><time>2026-03-22T08:02:01.273Z</time></trkpt><trkpt lat="45.710468" lon="12.60368"><ele>0.16666666666666666</ele><time>2026-03-22T08:02:03.279Z</time></trkpt><trkpt lat="45.7105394" lon="12.6036762"><ele>0.3333333333333333</ele><time>2026-03-22T08:02:05.284Z</time></trkpt><trkpt lat="45.7106067" lon="12.6036801"><ele>0.5</ele><time>2026-03-22T08:02:07.28Z</time></trkpt><trkpt lat="45.7106837" lon="12.6037301"><ele>0.6666666666666666</ele><time>2026-03-22T08:02:09.282Z</time></trkpt><trkpt lat="45.7107481" lon="12.603775"><ele>0.8333333333333333</ele><time>2026-03-22T08:02:11.269Z</time></trkpt><trkpt lat="45.7108529" lon="12.6039256"><ele>1.0</ele><time>2026-03-22T08:02:38.267Z</time></trkpt><trkpt lat="45.710956" lon="12.6039511"><ele>1.0</ele><time>2026-03-22T08:02:40.264Z</time></trkpt><trkpt lat="45.7110413" lon="12.6039546"><ele>1.0</ele><time>2026-03-22T08:02:42.28Z</time></trkpt><trkpt lat="45.7111011" lon="12.6037697"><ele>1.0</ele><time>2026-03-22T08:02:48.283Z</time></trkpt><trkpt lat="45.7110007" lon="12.6036956"><ele>1.0</ele><time>2026-03-22T08:02:50.269Z</time></trkpt><trkpt lat="45.7108922" lon="12.6036773"><ele>1.0</ele><time>2026-03-22T08:02:51.277Z</time></trkpt><trkpt lat="45.7107503" lon="12.6036703"><ele>1.0</ele><time>2026-03-22T08:02:52.267Z</time></trkpt><trkpt lat="45.7106083" lon="12.6036805"><ele>1.0</ele><time>2026-03-22T08:02:53.291Z</time></trkpt><trkpt lat="45.7104694" lon="12.6036923"><ele>1.0</ele><time>2026-03-22T08:02:54.279Z</time></trkpt><trkpt lat="45.7103291" lon="12.603709"><ele>0.75</ele><time>2026-03-22T08:02:55.281Z</time></trkpt><trkpt lat="45.7101908" lon="12.6037385"><ele>0.5</ele><time>2026-03-22T08:02:56.265Z</time></trkpt><trkpt lat="45.7100522" lon="12.6037822"><ele>0.25</ele><time>2026-03-22T08:02:57.282Z</time></trkpt><trkpt lat="45.7099075" lon="12.6038366"><ele>0.0</ele><time>2026-03-22T08:02:58.285Z</time></trkpt><trkpt lat="45.7097605" lon="12.6039021"><ele>0.0</ele><time>2026-03-22T08:02:59.273Z</time></trkpt><trkpt lat="45.7096143" lon="12.6039734"><ele>0.0</ele><time>2026-03-22T08:03:00.276Z</time></trkpt><trkpt lat="45.7094698" lon="12.604049"><ele>0.0</ele><time>2026-03-22T08:03:01.275Z</time></trkpt><trkpt lat="45.7093355" lon="12.6041157"><ele>0.25</ele><time>2026-03-22T08:03:02.282Z</time></trkpt><trkpt lat="45.7092119" lon="12.6041616"><ele>0.5</ele><time>2026-03-22T08:03:03.281Z</time></trkpt><trkpt lat="45.7090976" lon="12.6041958"><ele>0.75</ele><time>2026-03-22T08:03:04.269Z</time></trkpt><trkpt lat="45.7089859" lon="12.6041945"><ele>1.0</ele><time>2026-03-22T08:03:05.274Z</time></trkpt><trkpt lat="45.70888" lon="12.6041553"><ele>1.0</ele><time>2026-03-22T08:03:06.283Z</time></trkpt><trkpt lat="45.7087843" lon="12.604083"><ele>1.0</ele><time>2026-03-22T08:03:07.268Z</time></trkpt><trkpt lat="45.7086792" lon="12.6040254"><ele>1.0</ele><time>2026-03-22T08:03:08.274Z</time></trkpt><trkpt lat="45.7085735" lon="12.6040524"><ele>1.0</ele><time>2026-03-22T08:03:09.277Z</time></trkpt><trkpt lat="45.7084751" lon="12.6041045"><ele>1.0</ele><time>2026-03-22T08:03:10.278Z</time></trkpt><trkpt lat="45.7083976" lon="12.6042321"><ele>1.0</ele><time>2026-03-22T08:03:11.272Z</time></trkpt><trkpt lat="45.7083391" lon="12.6044046"><ele>1.0</ele><time>2026-03-22T08:03:12.276Z</time></trkpt><trkpt lat="45.7082708" lon="12.6045704"><ele>1.0</ele><time>2026-03-22T08:03:13.274Z</time></trkpt><trkpt lat="45.7082149" lon="12.604759"><ele>1.0</ele><time>2026-03-22T08:03:14.265Z</time></trkpt><trkpt lat="45.7080992" lon="12.6048899"><ele>1.0</ele><time>2026-03-22T08:03:15.263Z</time></trkpt><trkpt lat="45.7079631" lon="12.6050075"><ele>1.0</ele><time>2026-03-22T08:03:16.284Z</time></trkpt><trkpt lat="45.7078227" lon="12.6051315"><ele>1.0</ele><time>2026-03-22T08:03:17.286Z</time></trkpt><trkpt lat="45.7076803" lon="12.6052675"><ele>1.3333333333333333</ele><time>2026-03-22T08:03:18.273Z</time></trkpt><trkpt lat="45.7075348" lon="12.6054083"><ele>1.6666666666666665</ele><time>2026-03-22T08:03:19.27Z</time></trkpt><trkpt lat="45.7073887" lon="12.6055566"><ele>2.0</ele><time>2026-03-22T08:03:20.269Z</time></trkpt><trkpt lat="45.7072451" lon="12.6057131"><ele>2.0</ele><time>2026-03-22T08:03:21.278Z</time></trkpt><trkpt lat="45.7070942" lon="12.6058575"><ele>2.0</ele><time>2026-03-22T08:03:22.282Z</time></trkpt><trkpt lat="45.7069488" lon="12.6060068"><ele>2.0</ele><time>2026-03-22T08:03:23.295Z</time></trkpt><trkpt lat="45.7068053" lon="12.6061518"><ele>1.6666666666666665</ele><time>2026-03-22T08:03:24.287Z</time></trkpt><trkpt lat="45.7066648" lon="12.606296"><ele>1.3333333333333333</ele><time>2026-03-22T08:03:25.289Z</time></trkpt><trkpt lat="45.7065309" lon="12.6064464"><ele>1.0</ele><time>2026-03-22T08:03:26.269Z</time></trkpt><trkpt lat="45.7063952" lon="12.6065949"><ele>1.0</ele><time>2026-03-22T08:03:27.294Z</time></trkpt><trkpt lat="45.7062542" lon="12.6067448"><ele>1.0</ele><time>2026-03-22T08:03:28.284Z</time></trkpt><trkpt lat="45.7061086" lon="12.6068998"><ele>1.0</ele><time>2026-03-22T08:03:29.287Z</time></trkpt><trkpt lat="45.7059589" lon="12.6070582"><ele>1.3333333333333333</ele><time>2026-03-22T08:03:30.278Z</time></trkpt><trkpt lat="45.7058062" lon="12.6072189"><ele>1.6666666666666665</ele><time>2026-03-22T08:03:31.273Z</time></trkpt><trkpt lat="45.7056527" lon="12.6073821"><ele>2.0</ele><time>2026-03-22T08:03:32.267Z</time></trkpt><trkpt lat="45.7054968" lon="12.6075409"><ele>2.0</ele><time>2026-03-22T08:03:33.287Z</time></trkpt><trkpt lat="45.7053429" lon="12.6077002"><ele>2.0</ele><time>2026-03-22T08:03:34.284Z</time></trkpt><trkpt lat="45.705193" lon="12.6078599"><ele>2.0</ele><time>2026-03-22T08:03:35.286Z</time></trkpt><trkpt lat="45.7050294" lon="12.6079813"><ele>1.6666666666666665</ele><time>2026-03-22T08:03:36.267Z</time></trkpt><trkpt lat="45.7048825" lon="12.6081264"><ele>1.3333333333333333</ele><time>2026-03-22T08:03:37.297Z</time></trkpt><trkpt lat="45.7047377" lon="12.6082773"><ele>1.0</ele><time>2026-03-22T08:03:38.294Z</time></trkpt><trkpt lat="45.7045925" lon="12.6084311"><ele>1.0</ele><time>2026-03-22T08:03:39.274Z</time></trkpt><trkpt lat="45.7044621" lon="12.6086125"><ele>1.0</ele><time>2026-03-22T08:03:40.269Z</time></trkpt><trkpt lat="45.7043052" lon="12.6087458"><ele>1.0</ele><time>2026-03-22T08:03:41.288Z</time></trkpt><trkpt lat="45.7041744" lon="12.6089258"><ele>1.6666666666666665</ele><time>2026-03-22T08:03:42.289Z</time></trkpt><trkpt lat="45.7040328" lon="12.6090861"><ele>2.3333333333333335</ele><time>2026-03-22T08:03:43.281Z</time></trkpt><trkpt lat="45.7038863" lon="12.6092379"><ele>3.0</ele><time>2026-03-22T08:03:44.278Z</time></trkpt><trkpt lat="45.7037399" lon="12.6093917"><ele>3.0</ele><time>2026-03-22T08:03:45.28Z</time></trkpt><trkpt lat="45.7035942" lon="12.6095465"><ele>3.0</ele><time>2026-03-22T08:03:46.292Z</time></trkpt><trkpt lat="45.7034472" lon="12.6096979"><ele>3.0</ele><time>2026-03-22T08:03:47.288Z</time></trkpt><trkpt lat="45.7033027" lon="12.6098544"><ele>3.0</ele><time>2026-03-22T08:03:48.282Z</time></trkpt><trkpt lat="45.7031541" lon="12.6100107"><ele>3.0</ele><time>2026-03-22T08:03:49.277Z</time></trkpt><trkpt lat="45.703002" lon="12.6101699"><ele>3.0</ele><time>2026-03-22T08:03:50.274Z</time></trkpt><trkpt lat="45.7028543" lon="12.6103393"><ele>3.0</ele><time>2026-03-22T08:03:51.282Z</time></trkpt><trkpt lat="45.7027044" lon="12.6105006"><ele>3.0</ele><time>2026-03-22T08:03:52.271Z</time></trkpt><trkpt lat="45.7025589" lon="12.6106556"><ele>3.0</ele><time>2026-03-22T08:03:53.282Z</time></trkpt><trkpt lat="45.7024184" lon="12.610804"><ele>3.0</ele><time>2026-03-22T08:03:54.271Z</time></trkpt><trkpt lat="45.7022816" lon="12.6109474"><ele>3.0</ele><time>2026-03-22T08:03:55.29Z</time></trkpt><trkpt lat="45.7021534" lon="12.6110847"><ele>3.0</ele><time>2026-03-22T08:03:56.267Z</time></trkpt><trkpt lat="45.7020444" lon="12.6112034"><ele>3.0</ele><time>2026-03-22T08:03:57.293Z</time></trkpt><trkpt lat="45.7019604" lon="12.6112916"><ele>3.0</ele><time>2026-03-22T08:03:58.261Z</time></trkpt><trkpt lat="45.7018877" lon="12.6113493"><ele>3.0</ele><time>2026-03-22T08:03:59.288Z</time></trkpt><trkpt lat="45.7018324" lon="12.6114005"><ele>3.0</ele><time>2026-03-22T08:04:00.259Z</time></trkpt><trkpt lat="45.7017524" lon="12.6114509"><ele>3.0</ele><time>2026-03-22T08:04:02.262Z</time></trkpt><trkpt lat="45.7016754" lon="12.6114253"><ele>3.0</ele><time>2026-03-22T08:04:04.271Z</time></trkpt><trkpt lat="45.7016085" lon="12.6114272"><ele>2.1999999999999997</ele><time>2026-03-22T08:04:06.274Z</time></trkpt><trkpt lat="45.7014929" lon="12.6114066"><ele>1.4</ele><time>2026-03-22T08:04:39.284Z</time></trkpt><trkpt lat="45.7013813" lon="12.6114329"><ele>0.5999999999999999</ele><time>2026-03-22T08:05:40.285Z</time></trkpt><trkpt lat="45.7013137" lon="12.6114155"><ele>-0.20000000000000007</ele><time>2026-03-22T08:10:54.246Z</time></trkpt><trkpt lat="45.7013344" lon="12.6115093"><ele>-1.0</ele><time>2026-03-22T08:10:56.265Z</time></trkpt><trkpt lat="45.7013344" lon="12.6116387"><ele>-1.0</ele><time>2026-03-22T08:10:58.294Z</time></trkpt><trkpt lat="45.701429" lon="12.6116645"><ele>-0.9999999999999999</ele><time>2026-03-22T08:11:04.267Z</time></trkpt><trkpt lat="45.7014919" lon="12.6116399"><ele>-1.0</ele><time>2026-03-22T08:11:05.29Z</time></trkpt><trkpt lat="45.701532" lon="12.6115646"><ele>-1.0</ele><time>2026-03-22T08:11:08.268Z</time></trkpt><trkpt lat="45.7015739" lon="12.6114858"><ele>-0.9999999999999999</ele><time>2026-03-22T08:11:10.266Z</time></trkpt><trkpt lat="45.7016376" lon="12.611515"><ele>-1.0</ele><time>2026-03-22T08:11:14.262Z</time></trkpt><trkpt lat="45.7017078" lon="12.6115004"><ele>-1.0</ele><time>2026-03-22T08:12:39.281Z</time></trkpt><trkpt lat="45.7017778" lon="12.6114518"><ele>-1.0</ele><time>2026-03-22T08:12:40.263Z</time></trkpt><trkpt lat="45.7018635" lon="12.6113749"><ele>-1.0</ele><time>2026-03-22T08:12:41.284Z</time></trkpt><trkpt lat="45.701955" lon="12.6112736"><ele>-1.0</ele><time>2026-03-22T08:12:42.263Z</time></trkpt><trkpt lat="45.7020791" lon="12.6111377"><ele>-1.0</ele><time>2026-03-22T08:12:43.289Z</time></trkpt><trkpt lat="45.7022399" lon="12.6109698"><ele>1.0</ele><time>2026-03-22T08:12:44.294Z</time></trkpt><trkpt lat="45.7024351" lon="12.6107791"><ele>3.0</ele><time>2026-03-22T08:12:45.29Z</time></trkpt><trkpt lat="45.7026389" lon="12.6105726"><ele>3.0</ele><time>2026-03-22T08:12:46.259Z</time></trkpt><trkpt lat="45.7028271" lon="12.6103737"><ele>3.0</ele><time>2026-03-22T08:12:47.267Z</time></trkpt><trkpt lat="45.7029982" lon="12.6101901"><ele>3.0</ele><time>2026-03-22T08:12:48.263Z</time></trkpt><trkpt lat="45.7031574" lon="12.6100317"><ele>3.0</ele><time>2026-03-22T08:12:49.285Z</time></trkpt><trkpt lat="45.703298" lon="12.6098889"><ele>3.0</ele><time>2026-03-22T08:12:50.28Z</time></trkpt><trkpt lat="45.7034265" lon="12.60975"><ele>3.0</ele><time>2026-03-22T08:12:51.278Z</time></trkpt><trkpt lat="45.7035521" lon="12.6096165"><ele>3.0</ele><time>2026-03-22T08:12:52.269Z</time></trkpt><trkpt lat="45.7036767" lon="12.6094844"><ele>3.0</ele><time>2026-03-22T08:12:53.279Z</time></trkpt><trkpt lat="45.7038027" lon="12.6093553"><ele>3.0</ele><time>2026-03-22T08:12:54.267Z</time></trkpt><trkpt lat="45.7039324" lon="12.6092336"><ele>3.0</ele><time>2026-03-22T08:12:55.277Z</time></trkpt><trkpt lat="45.70406" lon="12.6091055"><ele>3.0</ele><time>2026-03-22T08:12:56.278Z</time></trkpt><trkpt lat="45.7041869" lon="12.6089757"><ele>3.0</ele><time>2026-03-22T08:12:57.277Z</time></trkpt><trkpt lat="45.7043127" lon="12.608845"><ele>2.6666666666666665</ele><time>2026-03-22T08:12:58.273Z</time></trkpt><trkpt lat="45.7044345" lon="12.6087072"><ele>2.333333333333333</ele><time>2026-03-22T08:12:59.283Z</time></trkpt><trkpt lat="45.7045608" lon="12.6085716"><ele>2.0</ele><time>2026-03-22T08:13:00.259Z</time></trkpt><trkpt lat="45.7046886" lon="12.608432"><ele>1.6666666666666665</ele><time>2026-03-22T08:13:01.288Z</time></trkpt><trkpt lat="45.7048193" lon="12.6082901"><ele>1.3333333333333333</ele><time>2026-03-22T08:13:02.296Z</time></trkpt><trkpt lat="45.7049527" lon="12.6081493"><ele>1.0</ele><time>2026-03-22T08:13:03.283Z</time></trkpt><trkpt lat="45.7050871" lon="12.6080109"><ele>1.0</ele><time>2026-03-22T08:13:04.281Z</time></trkpt><trkpt lat="45.7052209" lon="12.6078704"><ele>1.0</ele><time>2026-03-22T08:13:05.275Z</time></trkpt><trkpt lat="45.7053549" lon="12.6077298"><ele>1.0</ele><time>2026-03-22T08:13:06.279Z</time></trkpt><trkpt lat="45.7054896" lon="12.6075885"><ele>1.3333333333333333</ele><time>2026-03-22T08:13:07.28Z</time></trkpt><trkpt lat="45.7056258" lon="12.6074452"><ele>1.6666666666666665</ele><time>2026-03-22T08:13:08.289Z</time></trkpt><trkpt lat="45.7057648" lon="12.6072988"><ele>2.0</ele><time>2026-03-22T08:13:09.282Z</time></trkpt><trkpt lat="45.7059054" lon="12.6071508"><ele>2.0</ele><time>2026-03-22T08:13:10.296Z</time></trkpt><trkpt lat="45.7060455" lon="12.607002"><ele>2.0</ele><time>2026-03-22T08:13:11.27Z</time></trkpt><trkpt lat="45.7061838" lon="12.6068552"><ele>2.0</ele><time>2026-03-22T08:13:12.268Z</time></trkpt><trkpt lat="45.7063181" lon="12.6067087"><ele>1.6666666666666665</ele><time>2026-03-22T08:13:13.288Z</time></trkpt><trkpt lat="45.7064512" lon="12.606566"><ele>1.3333333333333333</ele><time>2026-03-22T08:13:14.281Z</time></trkpt><trkpt lat="45.7065841" lon="12.6064242"><ele>1.0</ele><time>2026-03-22T08:13:15.294Z</time></trkpt><trkpt lat="45.7067186" lon="12.6062807"><ele>1.0</ele><time>2026-03-22T08:13:16.273Z</time></trkpt><trkpt lat="45.7068534" lon="12.6061367"><ele>1.0</ele><time>2026-03-22T08:13:17.288Z</time></trkpt><trkpt lat="45.7069853" lon="12.6059931"><ele>1.0</ele><time>2026-03-22T08:13:18.278Z</time></trkpt><trkpt lat="45.7071166" lon="12.6058518"><ele>1.3333333333333333</ele><time>2026-03-22T08:13:19.27Z</time></trkpt><trkpt lat="45.7072474" lon="12.6057102"><ele>1.6666666666666665</ele><time>2026-03-22T08:13:20.263Z</time></trkpt><trkpt lat="45.7073786" lon="12.6055691"><ele>2.0</ele><time>2026-03-22T08:13:21.285Z</time></trkpt><trkpt lat="45.7075104" lon="12.6054315"><ele>2.0</ele><time>2026-03-22T08:13:22.303Z</time></trkpt><trkpt lat="45.7076424" lon="12.605303"><ele>2.0</ele><time>2026-03-22T08:13:23.296Z</time></trkpt><trkpt lat="45.7077704" lon="12.6051867"><ele>2.0</ele><time>2026-03-22T08:13:24.275Z</time></trkpt><trkpt lat="45.7078926" lon="12.6050812"><ele>1.75</ele><time>2026-03-22T08:13:25.277Z</time></trkpt><trkpt lat="45.7080093" lon="12.6049826"><ele>1.5</ele><time>2026-03-22T08:13:26.279Z</time></trkpt><trkpt lat="45.7081221" lon="12.6048896"><ele>1.25</ele><time>2026-03-22T08:13:27.29Z</time></trkpt><trkpt lat="45.7082335" lon="12.6048125"><ele>1.0</ele><time>2026-03-22T08:13:28.276Z</time></trkpt><trkpt lat="45.7083479" lon="12.6047601"><ele>1.0</ele><time>2026-03-22T08:13:29.274Z</time></trkpt><trkpt lat="45.7084669" lon="12.604743"><ele>1.0</ele><time>2026-03-22T08:13:30.271Z</time></trkpt><trkpt lat="45.7085844" lon="12.6047428"><ele>1.0</ele><time>2026-03-22T08:13:31.278Z</time></trkpt><trkpt lat="45.7087" lon="12.6047194"><ele>1.0</ele><time>2026-03-22T08:13:32.266Z</time></trkpt><trkpt lat="45.7088151" lon="12.6046582"><ele>1.0</ele><time>2026-03-22T08:13:33.283Z</time></trkpt><trkpt lat="45.7089248" lon="12.6045519"><ele>1.0</ele><time>2026-03-22T08:13:34.284Z</time></trkpt><trkpt lat="45.7090449" lon="12.6044272"><ele>1.0</ele><time>2026-03-22T08:13:35.296Z</time></trkpt><trkpt lat="45.7091754" lon="12.6043062"><ele>1.0</ele><time>2026-03-22T08:13:36.272Z</time></trkpt><trkpt lat="45.7093306" lon="12.6042103"><ele>0.6666666666666666</ele><time>2026-03-22T08:13:37.28Z</time></trkpt><trkpt lat="45.7094962" lon="12.6041302"><ele>0.3333333333333333</ele><time>2026-03-22T08:13:38.261Z</time></trkpt><trkpt lat="45.709664" lon="12.6040449"><ele>0.0</ele><time>2026-03-22T08:13:39.283Z</time></trkpt><trkpt lat="45.7098336" lon="12.6039543"><ele>0.0</ele><time>2026-03-22T08:13:40.29Z</time></trkpt><trkpt lat="45.7100022" lon="12.6038707"><ele>0.0</ele><time>2026-03-22T08:13:41.276Z</time></trkpt><trkpt lat="45.7101739" lon="12.6038126"><ele>0.0</ele><time>2026-03-22T08:13:42.283Z</time></trkpt><trkpt lat="45.7103484" lon="12.6037711"><ele>0.3333333333333333</ele><time>2026-03-22T08:13:43.284Z</time></trkpt><trkpt lat="45.7105252" lon="12.6037409"><ele>0.6666666666666666</ele><time>2026-03-22T08:13:44.288Z</time></trkpt><trkpt lat="45.7107046" lon="12.6037221"><ele>1.0</ele><time>2026-03-22T08:13:45.276Z</time></trkpt><trkpt lat="45.7108865" lon="12.6037179"><ele>1.0</ele><time>2026-03-22T08:13:46.281Z</time></trkpt><trkpt lat="45.711069" lon="12.6037205"><ele>1.0</ele><time>2026-03-22T08:13:47.276Z</time></trkpt><trkpt lat="45.7112496" lon="12.6037258"><ele>1.0</ele><time>2026-03-22T08:13:48.275Z</time></trkpt><trkpt lat="45.7114271" lon="12.6037364"><ele>1.3333333333333333</ele><time>2026-03-22T08:13:49.283Z</time></trkpt><trkpt lat="45.7116026" lon="12.6037361"><ele>1.6666666666666665</ele><time>2026-03-22T08:13:50.279Z</time></trkpt><trkpt lat="45.7117746" lon="12.6037372"><ele>2.0</ele><time>2026-03-22T08:13:51.285Z</time></trkpt><trkpt lat="45.7119425" lon="12.6037296"><ele>2.333333333333333</ele><time>2026-03-22T08:13:52.266Z</time></trkpt><trkpt lat="45.712106" lon="12.6037137"><ele>2.6666666666666665</ele><time>2026-03-22T08:13:53.286Z</time></trkpt><trkpt lat="45.7122666" lon="12.6036849"><ele>3.0</ele><time>2026-03-22T08:13:54.284Z</time></trkpt><trkpt lat="45.7124264" lon="12.6036394"><ele>2.3333333333333335</ele><time>2026-03-22T08:13:55.304Z</time></trkpt><trkpt lat="45.7125868" lon="12.6035811"><ele>1.6666666666666665</ele><time>2026-03-22T08:13:56.274Z</time></trkpt><trkpt lat="45.7127489" lon="12.6035095"><ele>1.0</ele><time>2026-03-22T08:13:57.273Z</time></trkpt><trkpt lat="45.7129099" lon="12.6034205"><ele>0.6666666666666666</ele><time>2026-03-22T08:13:58.279Z</time></trkpt><trkpt lat="45.7130668" lon="12.6033218"><ele>0.3333333333333333</ele><time>2026-03-22T08:13:59.288Z</time></trkpt><trkpt lat="45.7132147" lon="12.6032063"><ele>0.0</ele><time>2026-03-22T08:14:00.257Z</time></trkpt><trkpt lat="45.7133551" lon="12.6030801"><ele>0.0</ele><time>2026-03-22T08:14:01.273Z</time></trkpt><trkpt lat="45.7134903" lon="12.6029448"><ele>0.0</ele><time>2026-03-22T08:14:02.271Z</time></trkpt><trkpt lat="45.7136303" lon="12.6027949"><ele>0.0</ele><time>2026-03-22T08:14:03.277Z</time></trkpt><trkpt lat="45.7137603" lon="12.6026236"><ele>0.6666666666666666</ele><time>2026-03-22T08:14:04.271Z</time></trkpt><trkpt lat="45.7139076" lon="12.6025007"><ele>1.3333333333333333</ele><time>2026-03-22T08:14:05.28Z</time></trkpt><trkpt lat="45.7140063" lon="12.6023129"><ele>2.0</ele><time>2026-03-22T08:14:06.27Z</time></trkpt><trkpt lat="45.7141247" lon="12.6021577"><ele>2.0</ele><time>2026-03-22T08:14:07.292Z</time></trkpt><trkpt lat="45.7142455" lon="12.602008"><ele>2.0</ele><time>2026-03-22T08:14:08.277Z</time></trkpt><trkpt lat="45.7143856" lon="12.6018858"><ele>2.0</ele><time>2026-03-22T08:14:09.267Z</time></trkpt><trkpt lat="45.7145129" lon="12.6017461"><ele>1.3333333333333333</ele><time>2026-03-22T08:14:10.285Z</time></trkpt><trkpt lat="45.7146363" lon="12.6016055"><ele>0.6666666666666666</ele><time>2026-03-22T08:14:11.279Z</time></trkpt><trkpt lat="45.7147583" lon="12.6014641"><ele>0.0</ele><time>2026-03-22T08:14:12.283Z</time></trkpt><trkpt lat="45.714881" lon="12.6013236"><ele>0.0</ele><time>2026-03-22T08:14:13.275Z</time></trkpt><trkpt lat="45.715006" lon="12.6011893"><ele>0.0</ele><time>2026-03-22T08:14:14.278Z</time></trkpt><trkpt lat="45.7151303" lon="12.601065"><ele>0.0</ele><time>2026-03-22T08:14:15.277Z</time></trkpt><trkpt lat="45.7152565" lon="12.6009527"><ele>0.0</ele><time>2026-03-22T08:14:16.29Z</time></trkpt><trkpt lat="45.7153859" lon="12.6008479"><ele>0.0</ele><time>2026-03-22T08:14:17.274Z</time></trkpt><trkpt lat="45.7155201" lon="12.6007558"><ele>0.0</ele><time>2026-03-22T08:14:18.281Z</time></trkpt><trkpt lat="45.7156459" lon="12.6006438"><ele>0.0</ele><time>2026-03-22T08:14:19.28Z</time></trkpt><trkpt lat="45.7157881" lon="12.6005656"><ele>0.0</ele><time>2026-03-22T08:14:20.276Z</time></trkpt><trkpt lat="45.7159403" lon="12.6004996"><ele>0.0</ele><time>2026-03-22T08:14:21.284Z</time></trkpt><trkpt lat="45.7161033" lon="12.6004431"><ele>0.0</ele><time>2026-03-22T08:14:22.276Z</time></trkpt><trkpt lat="45.7162826" lon="12.6004107"><ele>0.3333333333333333</ele><time>2026-03-22T08:14:23.259Z</time></trkpt><trkpt lat="45.7164745" lon="12.6003911"><ele>0.6666666666666666</ele><time>2026-03-22T08:14:24.284Z</time></trkpt><trkpt lat="45.7166858" lon="12.6003855"><ele>1.0</ele><time>2026-03-22T08:14:25.289Z</time></trkpt><trkpt lat="45.7169173" lon="12.6004149"><ele>1.5</ele><time>2026-03-22T08:14:26.267Z</time></trkpt><trkpt lat="45.7171522" lon="12.6004746"><ele>2.0</ele><time>2026-03-22T08:14:27.276Z</time></trkpt><trkpt lat="45.7173787" lon="12.6005621"><ele>2.0</ele><time>2026-03-22T08:14:28.282Z</time></trkpt><trkpt lat="45.7175899" lon="12.6006655"><ele>2.0</ele><time>2026-03-22T08:14:29.286Z</time></trkpt><trkpt lat="45.7177911" lon="12.600782"><ele>2.0</ele><time>2026-03-22T08:14:30.283Z</time></trkpt><trkpt lat="45.7179854" lon="12.6008948"><ele>2.0</ele><time>2026-03-22T08:14:31.294Z</time></trkpt><trkpt lat="45.7181734" lon="12.6009971"><ele>2.0</ele><time>2026-03-22T08:14:32.27Z</time></trkpt><trkpt lat="45.7183561" lon="12.6011024"><ele>2.0</ele><time>2026-03-22T08:14:33.278Z</time></trkpt><trkpt lat="45.7185395" lon="12.6011852"><ele>1.6666666666666665</ele><time>2026-03-22T08:14:34.28Z</time></trkpt><trkpt lat="45.7187255" lon="12.6012506"><ele>1.3333333333333333</ele><time>2026-03-22T08:14:35.283Z</time></trkpt><trkpt lat="45.7189106" lon="12.6013066"><ele>1.0</ele><time>2026-03-22T08:14:36.269Z</time></trkpt><trkpt lat="45.7190849" lon="12.6013791"><ele>1.0</ele><time>2026-03-22T08:14:37.294Z</time></trkpt><trkpt lat="45.7192433" lon="12.6014749"><ele>1.0</ele><time>2026-03-22T08:14:38.274Z</time></trkpt><trkpt lat="45.7193903" lon="12.6015768"><ele>1.0</ele><time>2026-03-22T08:14:39.27Z</time></trkpt><trkpt lat="45.7195297" lon="12.6016582"><ele>1.0</ele><time>2026-03-22T08:14:40.294Z</time></trkpt><trkpt lat="45.7196563" lon="12.6017254"><ele>1.0</ele><time>2026-03-22T08:14:41.281Z</time></trkpt><trkpt lat="45.7197597" lon="12.6017667"><ele>1.0</ele><time>2026-03-22T08:14:42.283Z</time></trkpt><trkpt lat="45.7198297" lon="12.6018119"><ele>1.0</ele><time>2026-03-22T08:14:43.284Z</time></trkpt><trkpt lat="45.7199386" lon="12.601855"><ele>1.0</ele><time>2026-03-22T08:14:45.261Z</time></trkpt><trkpt lat="45.7200184" lon="12.6019806"><ele>1.4</ele><time>2026-03-22T08:14:47.283Z</time></trkpt><trkpt lat="45.7200406" lon="12.6020879"><ele>1.8</ele><time>2026-03-22T08:14:48.276Z</time></trkpt><trkpt lat="45.7201009" lon="12.6021773"><ele>2.1999999999999997</ele><time>2026-03-22T08:14:49.273Z</time></trkpt><trkpt lat="45.7201959" lon="12.6022384"><ele>2.6</ele><time>2026-03-22T08:14:50.284Z</time></trkpt><trkpt lat="45.7203074" lon="12.6023095"><ele>3.0</ele><time>2026-03-22T08:14:51.266Z</time></trkpt><trkpt lat="45.7204349" lon="12.6023829"><ele>3.0</ele><time>2026-03-22T08:14:52.273Z</time></trkpt><trkpt lat="45.7205619" lon="12.6024855"><ele>3.0</ele><time>2026-03-22T08:14:53.285Z</time></trkpt><trkpt lat="45.7207023" lon="12.6025757"><ele>3.0</ele><time>2026-03-22T08:14:54.275Z</time></trkpt><trkpt lat="45.7208401" lon="12.6026879"><ele>3.0</ele><time>2026-03-22T08:14:55.282Z</time></trkpt><trkpt lat="45.7209841" lon="12.6027934"><ele>3.0</ele><time>2026-03-22T08:14:56.277Z</time></trkpt><trkpt lat="45.7211328" lon="12.6028951"><ele>3.0</ele><time>2026-03-22T08:14:57.278Z</time></trkpt><trkpt lat="45.7212851" lon="12.6029936"><ele>3.333333333333333</ele><time>2026-03-22T08:14:58.283Z</time></trkpt><trkpt lat="45.7214396" lon="12.6030893"><ele>3.6666666666666665</ele><time>2026-03-22T08:14:59.258Z</time></trkpt><trkpt lat="45.7215966" lon="12.6031758"><ele>4.0</ele><time>2026-03-22T08:15:00.296Z</time></trkpt><trkpt lat="45.7217549" lon="12.6032513"><ele>3.0</ele><time>2026-03-22T08:15:01.275Z</time></trkpt><trkpt lat="45.7219113" lon="12.6033201"><ele>2.0</ele><time>2026-03-22T08:15:02.29Z</time></trkpt><trkpt lat="45.7220604" lon="12.6033812"><ele>1.0</ele><time>2026-03-22T08:15:03.289Z</time></trkpt><trkpt lat="45.7222045" lon="12.6034373"><ele>1.0</ele><time>2026-03-22T08:15:04.271Z</time></trkpt><trkpt lat="45.7223521" lon="12.6034812"><ele>1.0</ele><time>2026-03-22T08:15:05.29Z</time></trkpt><trkpt lat="45.7225003" lon="12.6035295"><ele>1.0</ele><time>2026-03-22T08:15:06.281Z</time></trkpt><trkpt lat="45.7226484" lon="12.6035921"><ele>1.0</ele><time>2026-03-22T08:15:07.314Z</time></trkpt><trkpt lat="45.7227984" lon="12.6036607"><ele>1.0</ele><time>2026-03-22T08:15:08.27Z</time></trkpt><trkpt lat="45.7229526" lon="12.6037288"><ele>1.0</ele><time>2026-03-22T08:15:09.297Z</time></trkpt><trkpt lat="45.723109" lon="12.6037876"><ele>1.3333333333333333</ele><time>2026-03-22T08:15:10.283Z</time></trkpt><trkpt lat="45.7232632" lon="12.603848"><ele>1.6666666666666665</ele><time>2026-03-22T08:15:11.3Z</time></trkpt><trkpt lat="45.7234168" lon="12.6039197"><ele>2.0</ele><time>2026-03-22T08:15:12.278Z</time></trkpt><trkpt lat="45.7235745" lon="12.6039722"><ele>2.333333333333333</ele><time>2026-03-22T08:15:13.267Z</time></trkpt><trkpt lat="45.7237331" lon="12.6040329"><ele>2.6666666666666665</ele><time>2026-03-22T08:15:14.285Z</time></trkpt><trkpt lat="45.7238951" lon="12.6040799"><ele>3.0</ele><time>2026-03-22T08:15:15.296Z</time></trkpt><trkpt lat="45.7240483" lon="12.6041531"><ele>3.0</ele><time>2026-03-22T08:15:16.283Z</time></trkpt><trkpt lat="45.7242057" lon="12.6042014"><ele>3.0</ele><time>2026-03-22T08:15:17.279Z</time></trkpt><trkpt lat="45.7243539" lon="12.6042717"><ele>3.0</ele><time>2026-03-22T08:15:18.29Z</time></trkpt><trkpt lat="45.724503" lon="12.6043186"><ele>3.25</ele><time>2026-03-22T08:15:19.29Z</time></trkpt><trkpt lat="45.7246462" lon="12.6043734"><ele>3.5</ele><time>2026-03-22T08:15:20.286Z</time></trkpt><trkpt lat="45.7247816" lon="12.6044426"><ele>3.75</ele><time>2026-03-22T08:15:21.281Z</time></trkpt><trkpt lat="45.7249154" lon="12.6044989"><ele>4.0</ele><time>2026-03-22T08:15:22.261Z</time></trkpt><trkpt lat="45.7250496" lon="12.604535"><ele>3.5</ele><time>2026-03-22T08:15:23.298Z</time></trkpt><trkpt lat="45.7251707" lon="12.6045959"><ele>3.0</ele><time>2026-03-22T08:15:24.306Z</time></trkpt><trkpt lat="45.7252886" lon="12.6046308"><ele>2.5</ele><time>2026-03-22T08:15:25.274Z</time></trkpt><trkpt lat="45.7253974" lon="12.6046716"><ele>2.0</ele><time>2026-03-22T08:15:26.279Z</time></trkpt><trkpt lat="45.7254992" lon="12.6047104"><ele>1.9999999999999998</ele><time>2026-03-22T08:15:27.283Z</time></trkpt><trkpt lat="45.7255883" lon="12.604743"><ele>2.0</ele><time>2026-03-22T08:15:28.272Z</time></trkpt><trkpt lat="45.7256618" lon="12.6047724"><ele>2.0</ele><time>2026-03-22T08:15:29.281Z</time></trkpt><trkpt lat="45.725726" lon="12.604797"><ele>2.0</ele><time>2026-03-22T08:15:30.264Z</time></trkpt><trkpt lat="45.7258382" lon="12.6048413"><ele>1.9999999999999998</ele><time>2026-03-22T08:15:32.284Z</time></trkpt><trkpt lat="45.7259297" lon="12.6048775"><ele>2.0</ele><time>2026-03-22T08:15:34.284Z</time></trkpt><trkpt lat="45.7259967" lon="12.6049001"><ele>1.8333333333333333</ele><time>2026-03-22T08:15:36.279Z</time></trkpt><trkpt lat="45.7260778" lon="12.604941"><ele>1.6666666666666665</ele><time>2026-03-22T08:15:39.276Z</time></trkpt><trkpt lat="45.7261482" lon="12.6049684"><ele>1.5</ele><time>2026-03-22T08:15:42.273Z</time></trkpt><trkpt lat="45.7262414" lon="12.6049973"><ele>1.3333333333333333</ele><time>2026-03-22T08:15:45.28Z</time></trkpt><trkpt lat="45.7263154" lon="12.605021"><ele>1.1666666666666665</ele><time>2026-03-22T08:15:47.28Z</time></trkpt><trkpt lat="45.7263971" lon="12.6050541"><ele>1.0</ele><time>2026-03-22T08:15:49.274Z</time></trkpt><trkpt lat="45.726479" lon="12.6050864"><ele>1.0</ele><time>2026-03-22T08:15:51.286Z</time></trkpt><trkpt lat="45.7265514" lon="12.6051144"><ele>0.9999999999999999</ele><time>2026-03-22T08:15:53.282Z</time></trkpt><trkpt lat="45.7266366" lon="12.6051485"><ele>1.0</ele><time>2026-03-22T08:15:56.29Z</time></trkpt><trkpt lat="45.7267028" lon="12.6051842"><ele>1.0</ele><time>2026-03-22T08:15:59.279Z</time></trkpt><trkpt lat="45.7267752" lon="12.6051646"><ele>0.9999999999999999</ele><time>2026-03-22T08:16:19.282Z</time></trkpt><trkpt lat="45.7268276" lon="12.6052261"><ele>1.0</ele><time>2026-03-22T08:16:22.277Z</time></trkpt><trkpt lat="45.7268319" lon="12.6053288"><ele>1.0</ele><time>2026-03-22T08:16:30.267Z</time></trkpt><trkpt lat="45.726819" lon="12.6054383"><ele>1.0</ele><time>2026-03-22T08:16:32.299Z</time></trkpt><trkpt lat="45.7267888" lon="12.605598"><ele>1.0</ele><time>2026-03-22T08:16:34.269Z</time></trkpt><trkpt lat="45.7267645" lon="12.6056923"><ele>1.0</ele><time>2026-03-22T08:16:35.274Z</time></trkpt><trkpt lat="45.7267319" lon="12.6058021"><ele>1.0</ele><time>2026-03-22T08:16:36.28Z</time></trkpt><trkpt lat="45.7266981" lon="12.6059311"><ele>1.0</ele><time>2026-03-22T08:16:37.282Z</time></trkpt><trkpt lat="45.7266596" lon="12.6060706"><ele>1.0</ele><time>2026-03-22T08:16:38.265Z</time></trkpt><trkpt lat="45.7266155" lon="12.6062196"><ele>1.0</ele><time>2026-03-22T08:16:39.288Z</time></trkpt><trkpt lat="45.7265725" lon="12.6063775"><ele>1.0</ele><time>2026-03-22T08:16:40.303Z</time></trkpt><trkpt lat="45.7265339" lon="12.6065431"><ele>1.0</ele><time>2026-03-22T08:16:41.287Z</time></trkpt><trkpt lat="45.7264929" lon="12.6067123"><ele>1.0</ele><time>2026-03-22T08:16:42.283Z</time></trkpt><trkpt lat="45.7264503" lon="12.6068825"><ele>1.0</ele><time>2026-03-22T08:16:43.28Z</time></trkpt><trkpt lat="45.7264085" lon="12.6070557"><ele>1.0</ele><time>2026-03-22T08:16:44.286Z</time></trkpt><trkpt lat="45.7263655" lon="12.6072358"><ele>1.0</ele><time>2026-03-22T08:16:45.295Z</time></trkpt><trkpt lat="45.72632" lon="12.6074208"><ele>1.0</ele><time>2026-03-22T08:16:46.284Z</time></trkpt><trkpt lat="45.7262697" lon="12.6076121"><ele>1.0</ele><time>2026-03-22T08:16:47.305Z</time></trkpt><trkpt lat="45.7262241" lon="12.6078115"><ele>1.0</ele><time>2026-03-22T08:16:48.297Z</time></trkpt><trkpt lat="45.726176" lon="12.6080159"><ele>1.0</ele><time>2026-03-22T08:16:49.286Z</time></trkpt><trkpt lat="45.7261255" lon="12.6082245"><ele>1.0</ele><time>2026-03-22T08:16:50.278Z</time></trkpt><trkpt lat="45.7260738" lon="12.608437"><ele>1.0</ele><time>2026-03-22T08:16:51.282Z</time></trkpt><trkpt lat="45.7260197" lon="12.6086499"><ele>1.0</ele><time>2026-03-22T08:16:52.276Z</time></trkpt><trkpt lat="45.7259788" lon="12.6088702"><ele>1.3333333333333333</ele><time>2026-03-22T08:16:53.28Z</time></trkpt><trkpt lat="45.7259275" lon="12.609085"><ele>1.6666666666666665</ele><time>2026-03-22T08:16:54.298Z</time></trkpt><trkpt lat="45.7258747" lon="12.6092982"><ele>2.0</ele><time>2026-03-22T08:16:55.279Z</time></trkpt><trkpt lat="45.7258232" lon="12.6095108"><ele>2.0</ele><time>2026-03-22T08:16:56.272Z</time></trkpt><trkpt lat="45.7257721" lon="12.609725"><ele>2.0</ele><time>2026-03-22T08:16:57.278Z</time></trkpt><trkpt lat="45.7257208" lon="12.6099426"><ele>2.0</ele><time>2026-03-22T08:16:58.288Z</time></trkpt><trkpt lat="45.7256658" lon="12.610164"><ele>2.6666666666666665</ele><time>2026-03-22T08:16:59.279Z</time></trkpt><trkpt lat="45.7256115" lon="12.6103899"><ele>3.333333333333333</ele><time>2026-03-22T08:17:00.279Z</time></trkpt><trkpt lat="45.725557" lon="12.6106203"><ele>4.0</ele><time>2026-03-22T08:17:01.271Z</time></trkpt><trkpt lat="45.725498" lon="12.6108563"><ele>4.0</ele><time>2026-03-22T08:17:02.283Z</time></trkpt><trkpt lat="45.725433" lon="12.6110975"><ele>4.0</ele><time>2026-03-22T08:17:03.27Z</time></trkpt><trkpt lat="45.7253478" lon="12.6113311"><ele>4.0</ele><time>2026-03-22T08:17:04.273Z</time></trkpt><trkpt lat="45.7252795" lon="12.611578"><ele>2.6666666666666665</ele><time>2026-03-22T08:17:05.275Z</time></trkpt><trkpt lat="45.7252157" lon="12.61183"><ele>1.3333333333333333</ele><time>2026-03-22T08:17:06.275Z</time></trkpt><trkpt lat="45.7251512" lon="12.612083"><ele>0.0</ele><time>2026-03-22T08:17:07.278Z</time></trkpt><trkpt lat="45.7251055" lon="12.6123448"><ele>0.0</ele><time>2026-03-22T08:17:08.277Z</time></trkpt><trkpt lat="45.7250242" lon="12.6125815"><ele>0.0</ele><time>2026-03-22T08:17:09.274Z</time></trkpt><trkpt lat="45.7249581" lon="12.6128184"><ele>0.0</ele><time>2026-03-22T08:17:10.289Z</time></trkpt><trkpt lat="45.7248973" lon="12.6130509"><ele>-0.3333333333333333</ele><time>2026-03-22T08:17:11.275Z</time></trkpt><trkpt lat="45.7248406" lon="12.6132803"><ele>-0.6666666666666666</ele><time>2026-03-22T08:17:12.279Z</time></trkpt><trkpt lat="45.724782" lon="12.6135067"><ele>-1.0</ele><time>2026-03-22T08:17:13.272Z</time></trkpt><trkpt lat="45.7247222" lon="12.6137288"><ele>-1.0</ele><time>2026-03-22T08:17:14.278Z</time></trkpt><trkpt lat="45.7246569" lon="12.6139462"><ele>-1.0</ele><time>2026-03-22T08:17:15.285Z</time></trkpt><trkpt lat="45.7245844" lon="12.6141588"><ele>-1.0</ele><time>2026-03-22T08:17:16.264Z</time></trkpt><trkpt lat="45.7245092" lon="12.6143703"><ele>-0.3333333333333333</ele><time>2026-03-22T08:17:17.282Z</time></trkpt><trkpt lat="45.7244393" lon="12.6145868"><ele>0.3333333333333333</ele><time>2026-03-22T08:17:18.302Z</time></trkpt><trkpt lat="45.7243757" lon="12.6148067"><ele>1.0</ele><time>2026-03-22T08:17:19.277Z</time></trkpt><trkpt lat="45.7243143" lon="12.6150291"><ele>1.0</ele><time>2026-03-22T08:17:20.289Z</time></trkpt><trkpt lat="45.7242527" lon="12.6152534"><ele>1.0</ele><time>2026-03-22T08:17:21.289Z</time></trkpt><trkpt lat="45.7241919" lon="12.615478"><ele>1.0</ele><time>2026-03-22T08:17:22.281Z</time></trkpt><trkpt lat="45.7241311" lon="12.6157036"><ele>1.0</ele><time>2026-03-22T08:17:23.278Z</time></trkpt><trkpt lat="45.7240901" lon="12.6159427"><ele>1.0</ele><time>2026-03-22T08:17:24.267Z</time></trkpt><trkpt lat="45.7240267" lon="12.6161697"><ele>1.0</ele><time>2026-03-22T08:17:25.292Z</time></trkpt><trkpt lat="45.7239725" lon="12.6164001"><ele>1.0</ele><time>2026-03-22T08:17:26.268Z</time></trkpt><trkpt lat="45.7239032" lon="12.6166217"><ele>1.0</ele><time>2026-03-22T08:17:27.295Z</time></trkpt><trkpt lat="45.7238495" lon="12.6168545"><ele>1.0</ele><time>2026-03-22T08:17:28.273Z</time></trkpt><trkpt lat="45.7237909" lon="12.6170872"><ele>1.0</ele><time>2026-03-22T08:17:29.298Z</time></trkpt><trkpt lat="45.723727" lon="12.6173184"><ele>1.0</ele><time>2026-03-22T08:17:30.279Z</time></trkpt><trkpt lat="45.7236627" lon="12.6175506"><ele>1.0</ele><time>2026-03-22T08:17:31.283Z</time></trkpt><trkpt lat="45.723599" lon="12.6177849"><ele>0.3333333333333333</ele><time>2026-03-22T08:17:32.282Z</time></trkpt><trkpt lat="45.7235304" lon="12.6180178"><ele>-0.3333333333333333</ele><time>2026-03-22T08:17:33.263Z</time></trkpt><trkpt lat="45.7234775" lon="12.6182597"><ele>-1.0</ele><time>2026-03-22T08:17:34.273Z</time></trkpt><trkpt lat="45.7234189" lon="12.618498"><ele>-0.6666666666666666</ele><time>2026-03-22T08:17:35.296Z</time></trkpt><trkpt lat="45.7233567" lon="12.6187272"><ele>-0.3333333333333333</ele><time>2026-03-22T08:17:36.299Z</time></trkpt><trkpt lat="45.7232951" lon="12.6189494"><ele>0.0</ele><time>2026-03-22T08:17:37.284Z</time></trkpt><trkpt lat="45.7232361" lon="12.6191716"><ele>0.0</ele><time>2026-03-22T08:17:38.291Z</time></trkpt><trkpt lat="45.7231778" lon="12.6193916"><ele>0.0</ele><time>2026-03-22T08:17:39.3Z</time></trkpt><trkpt lat="45.7231062" lon="12.6195941"><ele>0.0</ele><time>2026-03-22T08:17:40.291Z</time></trkpt><trkpt lat="45.7230476" lon="12.6197875"><ele>0.25</ele><time>2026-03-22T08:17:41.284Z</time></trkpt><trkpt lat="45.7230004" lon="12.6199664"><ele>0.5</ele><time>2026-03-22T08:17:42.299Z</time></trkpt><trkpt lat="45.7229606" lon="12.6201295"><ele>0.75</ele><time>2026-03-22T08:17:43.298Z</time></trkpt><trkpt lat="45.7229059" lon="12.6202635"><ele>1.0</ele><time>2026-03-22T08:17:44.279Z</time></trkpt><trkpt lat="45.7229" lon="12.62041"><ele>0.5</ele><time>2026-03-22T08:17:45.283Z</time></trkpt><trkpt lat="45.7228771" lon="12.6205499"><ele>0.0</ele><time>2026-03-22T08:17:46.28Z</time></trkpt><trkpt lat="45.7228693" lon="12.6207154"><ele>-0.5</ele><time>2026-03-22T08:17:47.284Z</time></trkpt><trkpt lat="45.7228518" lon="12.6209094"><ele>-1.0</ele><time>2026-03-22T08:17:48.292Z</time></trkpt><trkpt lat="45.7228445" lon="12.6211321"><ele>-1.3333333333333333</ele><time>2026-03-22T08:17:49.295Z</time></trkpt><trkpt lat="45.7228484" lon="12.6213764"><ele>-1.6666666666666665</ele><time>2026-03-22T08:17:50.276Z</time></trkpt><trkpt lat="45.7228567" lon="12.6216412"><ele>-2.0</ele><time>2026-03-22T08:17:51.286Z</time></trkpt><trkpt lat="45.7228634" lon="12.621925"><ele>-2.0</ele><time>2026-03-22T08:17:52.298Z</time></trkpt><trkpt lat="45.7228725" lon="12.6222268"><ele>-2.0</ele><time>2026-03-22T08:17:53.304Z</time></trkpt><trkpt lat="45.7228847" lon="12.6225383"><ele>-2.0</ele><time>2026-03-22T08:17:54.275Z</time></trkpt><trkpt lat="45.7228985" lon="12.622849"><ele>-1.6666666666666665</ele><time>2026-03-22T08:17:55.295Z</time></trkpt><trkpt lat="45.7229075" lon="12.6231556"><ele>-1.3333333333333333</ele><time>2026-03-22T08:17:56.271Z</time></trkpt><trkpt lat="45.7229253" lon="12.6234554"><ele>-1.0</ele><time>2026-03-22T08:17:57.288Z</time></trkpt><trkpt lat="45.7229399" lon="12.6237493"><ele>-1.0</ele><time>2026-03-22T08:17:58.278Z</time></trkpt><trkpt lat="45.722953" lon="12.6240398"><ele>-1.0</ele><time>2026-03-22T08:17:59.299Z</time></trkpt><trkpt lat="45.7229646" lon="12.6243293"><ele>-1.0</ele><time>2026-03-22T08:18:00.277Z</time></trkpt><trkpt lat="45.722982" lon="12.624617"><ele>-0.3333333333333333</ele><time>2026-03-22T08:18:01.285Z</time></trkpt><trkpt lat="45.7229931" lon="12.6249058"><ele>0.3333333333333333</ele><time>2026-03-22T08:18:02.289Z</time></trkpt><trkpt lat="45.7229977" lon="12.6251962"><ele>1.0</ele><time>2026-03-22T08:18:03.287Z</time></trkpt><trkpt lat="45.7230087" lon="12.6254856"><ele>1.0</ele><time>2026-03-22T08:18:04.279Z</time></trkpt><trkpt lat="45.72302" lon="12.6257732"><ele>1.0</ele><time>2026-03-22T08:18:05.299Z</time></trkpt><trkpt lat="45.7230316" lon="12.6260586"><ele>1.0</ele><time>2026-03-22T08:18:06.282Z</time></trkpt><trkpt lat="45.7230445" lon="12.6263417"><ele>0.6666666666666666</ele><time>2026-03-22T08:18:07.28Z</time></trkpt><trkpt lat="45.7230587" lon="12.6266233"><ele>0.3333333333333333</ele><time>2026-03-22T08:18:08.274Z</time></trkpt><trkpt lat="45.7230753" lon="12.626904"><ele>0.0</ele><time>2026-03-22T08:18:09.287Z</time></trkpt><trkpt lat="45.7230894" lon="12.6271856"><ele>0.0</ele><time>2026-03-22T08:18:10.274Z</time></trkpt><trkpt lat="45.7231084" lon="12.6274663"><ele>0.0</ele><time>2026-03-22T08:18:11.287Z</time></trkpt><trkpt lat="45.7231218" lon="12.6277467"><ele>0.0</ele><time>2026-03-22T08:18:12.273Z</time></trkpt><trkpt lat="45.7231333" lon="12.6280267"><ele>-0.3333333333333333</ele><time>2026-03-22T08:18:13.282Z</time></trkpt><trkpt lat="45.7231493" lon="12.6283065"><ele>-0.6666666666666666</ele><time>2026-03-22T08:18:14.289Z</time></trkpt><trkpt lat="45.7231583" lon="12.6285861"><ele>-1.0</ele><time>2026-03-22T08:18:15.288Z</time></trkpt><trkpt lat="45.7231702" lon="12.6288644"><ele>-1.0</ele><time>2026-03-22T08:18:16.299Z</time></trkpt><trkpt lat="45.7231852" lon="12.629141"><ele>-1.0</ele><time>2026-03-22T08:18:17.302Z</time></trkpt><trkpt lat="45.7232041" lon="12.6294142"><ele>-1.0</ele><time>2026-03-22T08:18:18.272Z</time></trkpt><trkpt lat="45.7232132" lon="12.6296867"><ele>-0.6666666666666666</ele><time>2026-03-22T08:18:19.288Z</time></trkpt><trkpt lat="45.7232295" lon="12.6299581"><ele>-0.3333333333333333</ele><time>2026-03-22T08:18:20.272Z</time></trkpt><trkpt lat="45.7232403" lon="12.6302301"><ele>0.0</ele><time>2026-03-22T08:18:21.283Z</time></trkpt><trkpt lat="45.7232399" lon="12.6305054"><ele>-0.6666666666666666</ele><time>2026-03-22T08:18:22.268Z</time></trkpt><trkpt lat="45.7232475" lon="12.6307834"><ele>-1.3333333333333333</ele><time>2026-03-22T08:18:23.28Z</time></trkpt><trkpt lat="45.7232566" lon="12.6310635"><ele>-2.0</ele><time>2026-03-22T08:18:24.273Z</time></trkpt><trkpt lat="45.7232674" lon="12.6313451"><ele>-2.0</ele><time>2026-03-22T08:18:25.273Z</time></trkpt><trkpt lat="45.7232786" lon="12.631628"><ele>-2.0</ele><time>2026-03-22T08:18:26.28Z</time></trkpt><trkpt lat="45.7232891" lon="12.6319134"><ele>-2.0</ele><time>2026-03-22T08:18:27.289Z</time></trkpt><trkpt lat="45.7233005" lon="12.6322013"><ele>-2.0</ele><time>2026-03-22T08:18:28.281Z</time></trkpt><trkpt lat="45.7233133" lon="12.6324904"><ele>-2.0</ele><time>2026-03-22T08:18:29.286Z</time></trkpt><trkpt lat="45.7233216" lon="12.6327796"><ele>-2.0</ele><time>2026-03-22T08:18:30.282Z</time></trkpt><trkpt lat="45.723333" lon="12.6330666"><ele>-2.0</ele><time>2026-03-22T08:18:31.28Z</time></trkpt><trkpt lat="45.7233448" lon="12.6333482"><ele>-2.0</ele><time>2026-03-22T08:18:32.287Z</time></trkpt><trkpt lat="45.7233583" lon="12.6336226"><ele>-2.0</ele><time>2026-03-22T08:18:33.288Z</time></trkpt><trkpt lat="45.7233729" lon="12.6338925"><ele>-2.0</ele><time>2026-03-22T08:18:34.291Z</time></trkpt><trkpt lat="45.7233589" lon="12.6341605"><ele>-2.0</ele><time>2026-03-22T08:18:35.269Z</time></trkpt><trkpt lat="45.7233712" lon="12.6344274"><ele>-2.0</ele><time>2026-03-22T08:18:36.276Z</time></trkpt><trkpt lat="45.7233828" lon="12.6346945"><ele>-2.0</ele><time>2026-03-22T08:18:37.281Z</time></trkpt><trkpt lat="45.7234157" lon="12.6349621"><ele>-2.0</ele><time>2026-03-22T08:18:38.276Z</time></trkpt><trkpt lat="45.7234363" lon="12.6352303"><ele>-2.0</ele><time>2026-03-22T08:18:39.279Z</time></trkpt><trkpt lat="45.723453" lon="12.6354952"><ele>-2.0</ele><time>2026-03-22T08:18:40.269Z</time></trkpt><trkpt lat="45.7234678" lon="12.6357548"><ele>-2.0</ele><time>2026-03-22T08:18:41.282Z</time></trkpt><trkpt lat="45.723482" lon="12.63601"><ele>-2.0</ele><time>2026-03-22T08:18:42.272Z</time></trkpt><trkpt lat="45.7234967" lon="12.6362628"><ele>-2.0</ele><time>2026-03-22T08:18:43.281Z</time></trkpt><trkpt lat="45.7235092" lon="12.636514"><ele>-2.0</ele><time>2026-03-22T08:18:44.268Z</time></trkpt><trkpt lat="45.7235191" lon="12.6367626"><ele>-2.0</ele><time>2026-03-22T08:18:45.281Z</time></trkpt><trkpt lat="45.7235348" lon="12.6370058"><ele>-1.6666666666666665</ele><time>2026-03-22T08:18:46.275Z</time></trkpt><trkpt lat="45.7235481" lon="12.6372437"><ele>-1.3333333333333333</ele><time>2026-03-22T08:18:47.278Z</time></trkpt><trkpt lat="45.7235529" lon="12.6374759"><ele>-1.0</ele><time>2026-03-22T08:18:48.279Z</time></trkpt><trkpt lat="45.7235636" lon="12.6377029"><ele>0.0</ele><time>2026-03-22T08:18:49.28Z</time></trkpt><trkpt lat="45.7235755" lon="12.6379235"><ele>1.0</ele><time>2026-03-22T08:18:50.284Z</time></trkpt><trkpt lat="45.7235788" lon="12.6381389"><ele>2.0</ele><time>2026-03-22T08:18:51.288Z</time></trkpt><trkpt lat="45.7236248" lon="12.6383548"><ele>2.0</ele><time>2026-03-22T08:18:52.277Z</time></trkpt><trkpt lat="45.7236884" lon="12.6385663"><ele>2.0</ele><time>2026-03-22T08:18:53.27Z</time></trkpt><trkpt lat="45.7237643" lon="12.6387731"><ele>2.0</ele><time>2026-03-22T08:18:54.266Z</time></trkpt><trkpt lat="45.7238562" lon="12.6389709"><ele>1.6666666666666665</ele><time>2026-03-22T08:18:55.282Z</time></trkpt><trkpt lat="45.7239647" lon="12.6391537"><ele>1.3333333333333333</ele><time>2026-03-22T08:18:56.271Z</time></trkpt><trkpt lat="45.7240804" lon="12.6393297"><ele>1.0</ele><time>2026-03-22T08:18:57.276Z</time></trkpt><trkpt lat="45.7242019" lon="12.6394943"><ele>0.6666666666666666</ele><time>2026-03-22T08:18:58.274Z</time></trkpt><trkpt lat="45.7242912" lon="12.6396866"><ele>0.3333333333333333</ele><time>2026-03-22T08:18:59.263Z</time></trkpt><trkpt lat="45.7243783" lon="12.6398596"><ele>0.0</ele><time>2026-03-22T08:19:00.287Z</time></trkpt><trkpt lat="45.7244385" lon="12.6400499"><ele>0.0</ele><time>2026-03-22T08:19:01.307Z</time></trkpt><trkpt lat="45.7244764" lon="12.6402487"><ele>0.0</ele><time>2026-03-22T08:19:02.271Z</time></trkpt><trkpt lat="45.7244641" lon="12.6404632"><ele>0.0</ele><time>2026-03-22T08:19:03.289Z</time></trkpt><trkpt lat="45.7244476" lon="12.6406681"><ele>0.0</ele><time>2026-03-22T08:19:04.267Z</time></trkpt><trkpt lat="45.7244135" lon="12.640865"><ele>-0.25</ele><time>2026-03-22T08:19:05.297Z</time></trkpt><trkpt lat="45.7243605" lon="12.6410523"><ele>-0.5</ele><time>2026-03-22T08:19:06.283Z</time></trkpt><trkpt lat="45.7242954" lon="12.6412289"><ele>-0.75</ele><time>2026-03-22T08:19:07.301Z</time></trkpt><trkpt lat="45.7242165" lon="12.6413948"><ele>-1.0</ele><time>2026-03-22T08:19:08.293Z</time></trkpt><trkpt lat="45.7241108" lon="12.6415356"><ele>-1.0</ele><time>2026-03-22T08:19:09.282Z</time></trkpt><trkpt lat="45.7239916" lon="12.6416612"><ele>-1.0</ele><time>2026-03-22T08:19:10.276Z</time></trkpt><trkpt lat="45.7238662" lon="12.6417796"><ele>-1.0</ele><time>2026-03-22T08:19:11.283Z</time></trkpt><trkpt lat="45.7237444" lon="12.641901"><ele>-1.0</ele><time>2026-03-22T08:19:12.29Z</time></trkpt><trkpt lat="45.7236303" lon="12.6420187"><ele>-1.0</ele><time>2026-03-22T08:19:13.285Z</time></trkpt><trkpt lat="45.7235227" lon="12.6421331"><ele>-1.0</ele><time>2026-03-22T08:19:14.286Z</time></trkpt><trkpt lat="45.723421" lon="12.6422481"><ele>-1.0</ele><time>2026-03-22T08:19:15.278Z</time></trkpt><trkpt lat="45.723331" lon="12.6423778"><ele>-1.0</ele><time>2026-03-22T08:19:16.274Z</time></trkpt><trkpt lat="45.7232315" lon="12.6424886"><ele>-1.0</ele><time>2026-03-22T08:19:17.284Z</time></trkpt><trkpt lat="45.7231686" lon="12.6426426"><ele>-1.0</ele><time>2026-03-22T08:19:18.282Z</time></trkpt><trkpt lat="45.7231233" lon="12.6428144"><ele>-1.0</ele><time>2026-03-22T08:19:19.27Z</time></trkpt><trkpt lat="45.7231038" lon="12.6430075"><ele>-1.0</ele><time>2026-03-22T08:19:20.272Z</time></trkpt><trkpt lat="45.7230973" lon="12.6432084"><ele>-1.0</ele><time>2026-03-22T08:19:21.281Z</time></trkpt><trkpt lat="45.7231187" lon="12.6434142"><ele>-1.0</ele><time>2026-03-22T08:19:22.281Z</time></trkpt><trkpt lat="45.7231611" lon="12.6436138"><ele>-1.0</ele><time>2026-03-22T08:19:23.29Z</time></trkpt><trkpt lat="45.7232196" lon="12.6438015"><ele>-1.0</ele><time>2026-03-22T08:19:24.289Z</time></trkpt><trkpt lat="45.7233196" lon="12.6439753"><ele>-1.3333333333333333</ele><time>2026-03-22T08:19:25.296Z</time></trkpt><trkpt lat="45.7234154" lon="12.6441527"><ele>-1.6666666666666665</ele><time>2026-03-22T08:19:26.271Z</time></trkpt><trkpt lat="45.7235198" lon="12.6443208"><ele>-2.0</ele><time>2026-03-22T08:19:27.284Z</time></trkpt><trkpt lat="45.7236193" lon="12.6444824"><ele>-2.0</ele><time>2026-03-22T08:19:28.287Z</time></trkpt><trkpt lat="45.7237145" lon="12.6446415"><ele>-2.0</ele><time>2026-03-22T08:19:29.284Z</time></trkpt><trkpt lat="45.7238016" lon="12.6447946"><ele>-2.0</ele><time>2026-03-22T08:19:30.275Z</time></trkpt><trkpt lat="45.7238541" lon="12.6449825"><ele>-2.0</ele><time>2026-03-22T08:19:31.297Z</time></trkpt><trkpt lat="45.7238879" lon="12.6451945"><ele>-2.0</ele><time>2026-03-22T08:19:32.263Z</time></trkpt><trkpt lat="45.7239014" lon="12.6454285"><ele>-2.0</ele><time>2026-03-22T08:19:33.309Z</time></trkpt><trkpt lat="45.7238952" lon="12.6456958"><ele>-2.0</ele><time>2026-03-22T08:19:34.275Z</time></trkpt><trkpt lat="45.7238941" lon="12.6459943"><ele>-1.0</ele><time>2026-03-22T08:19:35.277Z</time></trkpt><trkpt lat="45.7239039" lon="12.6463146"><ele>0.0</ele><time>2026-03-22T08:19:36.274Z</time></trkpt><trkpt lat="45.7239171" lon="12.6466414"><ele>1.0</ele><time>2026-03-22T08:19:37.283Z</time></trkpt><trkpt lat="45.7239343" lon="12.6469677"><ele>2.0</ele><time>2026-03-22T08:19:38.267Z</time></trkpt><trkpt lat="45.7239505" lon="12.647292"><ele>2.0</ele><time>2026-03-22T08:19:39.277Z</time></trkpt><trkpt lat="45.7239667" lon="12.6476113"><ele>2.0</ele><time>2026-03-22T08:19:40.276Z</time></trkpt><trkpt lat="45.723983" lon="12.647925"><ele>2.0</ele><time>2026-03-22T08:19:41.277Z</time></trkpt><trkpt lat="45.7239981" lon="12.6482267"><ele>1.3333333333333333</ele><time>2026-03-22T08:19:42.265Z</time></trkpt><trkpt lat="45.7240108" lon="12.6485082"><ele>0.6666666666666666</ele><time>2026-03-22T08:19:43.278Z</time></trkpt><trkpt lat="45.7240186" lon="12.6487709"><ele>0.0</ele><time>2026-03-22T08:19:44.28Z</time></trkpt><trkpt lat="45.7240283" lon="12.6490231"><ele>0.0</ele><time>2026-03-22T08:19:45.287Z</time></trkpt><trkpt lat="45.7240405" lon="12.6492705"><ele>0.0</ele><time>2026-03-22T08:19:46.273Z</time></trkpt><trkpt lat="45.7240516" lon="12.6495166"><ele>0.0</ele><time>2026-03-22T08:19:47.283Z</time></trkpt><trkpt lat="45.7240627" lon="12.6497639"><ele>0.0</ele><time>2026-03-22T08:19:48.285Z</time></trkpt><trkpt lat="45.7240753" lon="12.6500156"><ele>0.0</ele><time>2026-03-22T08:19:49.288Z</time></trkpt><trkpt lat="45.7240847" lon="12.6502729"><ele>0.0</ele><time>2026-03-22T08:19:50.268Z</time></trkpt><trkpt lat="45.7240987" lon="12.6505355"><ele>-0.3333333333333333</ele><time>2026-03-22T08:19:51.275Z</time></trkpt><trkpt lat="45.7241118" lon="12.6508022"><ele>-0.6666666666666666</ele><time>2026-03-22T08:19:52.274Z</time></trkpt><trkpt lat="45.7241237" lon="12.6510713"><ele>-1.0</ele><time>2026-03-22T08:19:53.286Z</time></trkpt><trkpt lat="45.7241359" lon="12.6513422"><ele>-1.0</ele><time>2026-03-22T08:19:54.288Z</time></trkpt><trkpt lat="45.7241476" lon="12.6516153"><ele>-1.0</ele><time>2026-03-22T08:19:55.286Z</time></trkpt><trkpt lat="45.7241621" lon="12.6518897"><ele>-1.0</ele><time>2026-03-22T08:19:56.287Z</time></trkpt><trkpt lat="45.7241758" lon="12.6521658"><ele>-0.6666666666666666</ele><time>2026-03-22T08:19:57.277Z</time></trkpt><trkpt lat="45.7241884" lon="12.6524428"><ele>-0.3333333333333333</ele><time>2026-03-22T08:19:58.263Z</time></trkpt><trkpt lat="45.7241963" lon="12.652721"><ele>0.0</ele><time>2026-03-22T08:19:59.278Z</time></trkpt><trkpt lat="45.7242068" lon="12.6529993"><ele>0.3333333333333333</ele><time>2026-03-22T08:20:00.272Z</time></trkpt><trkpt lat="45.7242143" lon="12.65328"><ele>0.6666666666666666</ele><time>2026-03-22T08:20:01.272Z</time></trkpt><trkpt lat="45.7242351" lon="12.6535615"><ele>1.0</ele><time>2026-03-22T08:20:02.272Z</time></trkpt><trkpt lat="45.7242518" lon="12.653845"><ele>0.0</ele><time>2026-03-22T08:20:03.267Z</time></trkpt><trkpt lat="45.724262" lon="12.6541301"><ele>-1.0</ele><time>2026-03-22T08:20:04.284Z</time></trkpt><trkpt lat="45.7242731" lon="12.6544157"><ele>-2.0</ele><time>2026-03-22T08:20:05.278Z</time></trkpt><trkpt lat="45.7242732" lon="12.6547042"><ele>-2.0</ele><time>2026-03-22T08:20:06.263Z</time></trkpt><trkpt lat="45.7242891" lon="12.65499"><ele>-2.0</ele><time>2026-03-22T08:20:07.286Z</time></trkpt><trkpt lat="45.7243133" lon="12.655274"><ele>-2.0</ele><time>2026-03-22T08:20:08.274Z</time></trkpt><trkpt lat="45.7243451" lon="12.6555558"><ele>-2.0</ele><time>2026-03-22T08:20:09.278Z</time></trkpt><trkpt lat="45.7243856" lon="12.6558343"><ele>-2.0</ele><time>2026-03-22T08:20:10.281Z</time></trkpt><trkpt lat="45.7244298" lon="12.6561087"><ele>-2.0</ele><time>2026-03-22T08:20:11.279Z</time></trkpt><trkpt lat="45.7244737" lon="12.6563784"><ele>-2.0</ele><time>2026-03-22T08:20:12.265Z</time></trkpt><trkpt lat="45.7245144" lon="12.6566454"><ele>-2.0</ele><time>2026-03-22T08:20:13.286Z</time></trkpt><trkpt lat="45.7245756" lon="12.6569025"><ele>-2.0</ele><time>2026-03-22T08:20:14.292Z</time></trkpt><trkpt lat="45.7246372" lon="12.6571587"><ele>-2.0</ele><time>2026-03-22T08:20:15.296Z</time></trkpt><trkpt lat="45.7247112" lon="12.6574085"><ele>-2.0</ele><time>2026-03-22T08:20:16.274Z</time></trkpt><trkpt lat="45.7247946" lon="12.6576539"><ele>-2.0</ele><time>2026-03-22T08:20:17.281Z</time></trkpt><trkpt lat="45.7248879" lon="12.6578943"><ele>-1.6666666666666665</ele><time>2026-03-22T08:20:18.28Z</time></trkpt><trkpt lat="45.7250208" lon="12.658105"><ele>-1.3333333333333333</ele><time>2026-03-22T08:20:19.285Z</time></trkpt><trkpt lat="45.7251335" lon="12.6583451"><ele>-1.0</ele><time>2026-03-22T08:20:20.273Z</time></trkpt><trkpt lat="45.7252487" lon="12.6585851"><ele>-0.6666666666666666</ele><time>2026-03-22T08:20:21.275Z</time></trkpt><trkpt lat="45.7253501" lon="12.6588418"><ele>-0.3333333333333333</ele><time>2026-03-22T08:20:22.276Z</time></trkpt><trkpt lat="45.7254671" lon="12.6590839"><ele>0.0</ele><time>2026-03-22T08:20:23.282Z</time></trkpt><trkpt lat="45.7255929" lon="12.65932"><ele>-0.3333333333333333</ele><time>2026-03-22T08:20:24.283Z</time></trkpt><trkpt lat="45.7257179" lon="12.6595638"><ele>-0.6666666666666666</ele><time>2026-03-22T08:20:25.276Z</time></trkpt><trkpt lat="45.7258512" lon="12.6598043"><ele>-1.0</ele><time>2026-03-22T08:20:26.277Z</time></trkpt><trkpt lat="45.7259818" lon="12.6600482"><ele>-1.0</ele><time>2026-03-22T08:20:27.279Z</time></trkpt><trkpt lat="45.7261104" lon="12.6602876"><ele>-1.0</ele><time>2026-03-22T08:20:28.277Z</time></trkpt><trkpt lat="45.7262299" lon="12.6605246"><ele>-1.0</ele><time>2026-03-22T08:20:29.309Z</time></trkpt><trkpt lat="45.7263514" lon="12.6607474"><ele>-1.0</ele><time>2026-03-22T08:20:30.278Z</time></trkpt><trkpt lat="45.726462" lon="12.6609655"><ele>-1.0</ele><time>2026-03-22T08:20:31.275Z</time></trkpt><trkpt lat="45.7265682" lon="12.6611706"><ele>-1.0</ele><time>2026-03-22T08:20:32.28Z</time></trkpt><trkpt lat="45.7266681" lon="12.6613676"><ele>-1.0</ele><time>2026-03-22T08:20:33.278Z</time></trkpt><trkpt lat="45.726767" lon="12.6615512"><ele>-1.0</ele><time>2026-03-22T08:20:34.273Z</time></trkpt><trkpt lat="45.7268608" lon="12.6617297"><ele>-1.0</ele><time>2026-03-22T08:20:35.263Z</time></trkpt><trkpt lat="45.726954" lon="12.661908"><ele>0.0</ele><time>2026-03-22T08:20:36.264Z</time></trkpt><trkpt lat="45.727055" lon="12.6620915"><ele>1.0</ele><time>2026-03-22T08:20:37.275Z</time></trkpt><trkpt lat="45.7271687" lon="12.662285"><ele>2.0</ele><time>2026-03-22T08:20:38.273Z</time></trkpt><trkpt lat="45.7272925" lon="12.662494"><ele>2.0</ele><time>2026-03-22T08:20:39.262Z</time></trkpt><trkpt lat="45.7274273" lon="12.6627184"><ele>2.0</ele><time>2026-03-22T08:20:40.278Z</time></trkpt><trkpt lat="45.7275719" lon="12.6629558"><ele>2.0</ele><time>2026-03-22T08:20:41.271Z</time></trkpt><trkpt lat="45.727723" lon="12.663197"><ele>0.0</ele><time>2026-03-22T08:20:42.276Z</time></trkpt><trkpt lat="45.7278757" lon="12.6634387"><ele>-2.0</ele><time>2026-03-22T08:20:43.278Z</time></trkpt><trkpt lat="45.7280245" lon="12.6636831"><ele>-2.333333333333333</ele><time>2026-03-22T08:20:44.268Z</time></trkpt><trkpt lat="45.7281718" lon="12.6639237"><ele>-2.6666666666666665</ele><time>2026-03-22T08:20:45.28Z</time></trkpt><trkpt lat="45.7283254" lon="12.664152"><ele>-3.0</ele><time>2026-03-22T08:20:46.286Z</time></trkpt><trkpt lat="45.7284796" lon="12.6643693"><ele>-2.3333333333333335</ele><time>2026-03-22T08:20:47.266Z</time></trkpt><trkpt lat="45.7286333" lon="12.6645923"><ele>-1.6666666666666665</ele><time>2026-03-22T08:20:48.276Z</time></trkpt><trkpt lat="45.7287898" lon="12.6648083"><ele>-1.0</ele><time>2026-03-22T08:20:49.266Z</time></trkpt><trkpt lat="45.7289477" lon="12.6650209"><ele>-1.0</ele><time>2026-03-22T08:20:50.276Z</time></trkpt><trkpt lat="45.7290991" lon="12.6652441"><ele>-1.0</ele><time>2026-03-22T08:20:51.281Z</time></trkpt><trkpt lat="45.7292529" lon="12.6654674"><ele>-1.0</ele><time>2026-03-22T08:20:52.298Z</time></trkpt><trkpt lat="45.7294084" lon="12.6656924"><ele>-1.0</ele><time>2026-03-22T08:20:53.284Z</time></trkpt><trkpt lat="45.7295611" lon="12.6659241"><ele>-1.0</ele><time>2026-03-22T08:20:54.283Z</time></trkpt><trkpt lat="45.729719" lon="12.6661524"><ele>-1.0</ele><time>2026-03-22T08:20:55.286Z</time></trkpt><trkpt lat="45.7298699" lon="12.6663932"><ele>0.5</ele><time>2026-03-22T08:20:56.276Z</time></trkpt><trkpt lat="45.7300182" lon="12.6666411"><ele>2.0</ele><time>2026-03-22T08:20:57.273Z</time></trkpt><trkpt lat="45.7301679" lon="12.6668927"><ele>1.5</ele><time>2026-03-22T08:20:58.268Z</time></trkpt><trkpt lat="45.7303195" lon="12.6671457"><ele>1.0</ele><time>2026-03-22T08:20:59.287Z</time></trkpt><trkpt lat="45.7304674" lon="12.6674053"><ele>1.0</ele><time>2026-03-22T08:21:00.275Z</time></trkpt><trkpt lat="45.7306116" lon="12.6676694"><ele>1.0</ele><time>2026-03-22T08:21:01.278Z</time></trkpt><trkpt lat="45.7307522" lon="12.6679354"><ele>1.0</ele><time>2026-03-22T08:21:02.28Z</time></trkpt><trkpt lat="45.7308927" lon="12.6681986"><ele>1.0</ele><time>2026-03-22T08:21:03.27Z</time></trkpt><trkpt lat="45.7310486" lon="12.668444"><ele>0.5</ele><time>2026-03-22T08:21:04.276Z</time></trkpt><trkpt lat="45.7311814" lon="12.6687112"><ele>0.0</ele><time>2026-03-22T08:21:05.271Z</time></trkpt><trkpt lat="45.7313182" lon="12.66897"><ele>0.0</ele><time>2026-03-22T08:21:06.265Z</time></trkpt><trkpt lat="45.7314551" lon="12.6692267"><ele>0.0</ele><time>2026-03-22T08:21:07.282Z</time></trkpt><trkpt lat="45.7315914" lon="12.6694808"><ele>0.0</ele><time>2026-03-22T08:21:08.275Z</time></trkpt><trkpt lat="45.7317249" lon="12.6697325"><ele>0.0</ele><time>2026-03-22T08:21:09.278Z</time></trkpt><trkpt lat="45.7318563" lon="12.6699843"><ele>0.0</ele><time>2026-03-22T08:21:10.283Z</time></trkpt><trkpt lat="45.7319913" lon="12.6702307"><ele>0.0</ele><time>2026-03-22T08:21:11.282Z</time></trkpt><trkpt lat="45.7321251" lon="12.6704758"><ele>0.0</ele><time>2026-03-22T08:21:12.293Z</time></trkpt><trkpt lat="45.732255" lon="12.6707213"><ele>0.0</ele><time>2026-03-22T08:21:13.291Z</time></trkpt><trkpt lat="45.732385" lon="12.670961"><ele>0.0</ele><time>2026-03-22T08:21:14.278Z</time></trkpt><trkpt lat="45.7325131" lon="12.6711955"><ele>-0.3333333333333333</ele><time>2026-03-22T08:21:15.279Z</time></trkpt><trkpt lat="45.7326375" lon="12.6714271"><ele>-0.6666666666666666</ele><time>2026-03-22T08:21:16.295Z</time></trkpt><trkpt lat="45.7327599" lon="12.6716568"><ele>-1.0</ele><time>2026-03-22T08:21:17.278Z</time></trkpt><trkpt lat="45.7328785" lon="12.6718902"><ele>0.0</ele><time>2026-03-22T08:21:18.272Z</time></trkpt><trkpt lat="45.7329912" lon="12.6721313"><ele>1.0</ele><time>2026-03-22T08:21:19.272Z</time></trkpt><trkpt lat="45.7330971" lon="12.6723845"><ele>2.0</ele><time>2026-03-22T08:21:20.284Z</time></trkpt><trkpt lat="45.7331933" lon="12.6726476"><ele>2.333333333333333</ele><time>2026-03-22T08:21:21.291Z</time></trkpt><trkpt lat="45.7332769" lon="12.6729129"><ele>2.6666666666666665</ele><time>2026-03-22T08:21:22.293Z</time></trkpt><trkpt lat="45.7333466" lon="12.6731784"><ele>3.0</ele><time>2026-03-22T08:21:23.285Z</time></trkpt><trkpt lat="45.7334081" lon="12.6734427"><ele>2.6666666666666665</ele><time>2026-03-22T08:21:24.285Z</time></trkpt><trkpt lat="45.7334631" lon="12.6737044"><ele>2.333333333333333</ele><time>2026-03-22T08:21:25.293Z</time></trkpt><trkpt lat="45.7335157" lon="12.6739604"><ele>2.0</ele><time>2026-03-22T08:21:26.277Z</time></trkpt><trkpt lat="45.7335676" lon="12.6742114"><ele>1.3333333333333333</ele><time>2026-03-22T08:21:27.279Z</time></trkpt><trkpt lat="45.7336236" lon="12.6744585"><ele>0.6666666666666666</ele><time>2026-03-22T08:21:28.275Z</time></trkpt><trkpt lat="45.7336667" lon="12.6747085"><ele>0.0</ele><time>2026-03-22T08:21:29.282Z</time></trkpt><trkpt lat="45.7337168" lon="12.6749582"><ele>0.0</ele><time>2026-03-22T08:21:30.286Z</time></trkpt><trkpt lat="45.7337672" lon="12.675209"><ele>0.0</ele><time>2026-03-22T08:21:31.309Z</time></trkpt><trkpt lat="45.7338085" lon="12.6754666"><ele>0.0</ele><time>2026-03-22T08:21:32.278Z</time></trkpt><trkpt lat="45.7338755" lon="12.6757195"><ele>0.6666666666666666</ele><time>2026-03-22T08:21:33.28Z</time></trkpt><trkpt lat="45.7339445" lon="12.6759744"><ele>1.3333333333333333</ele><time>2026-03-22T08:21:34.286Z</time></trkpt><trkpt lat="45.7340054" lon="12.6762353"><ele>2.0</ele><time>2026-03-22T08:21:35.273Z</time></trkpt><trkpt lat="45.7340649" lon="12.6764979"><ele>2.6666666666666665</ele><time>2026-03-22T08:21:36.29Z</time></trkpt><trkpt lat="45.7341312" lon="12.6767593"><ele>3.333333333333333</ele><time>2026-03-22T08:21:37.29Z</time></trkpt><trkpt lat="45.7341905" lon="12.6770253"><ele>4.0</ele><time>2026-03-22T08:21:38.292Z</time></trkpt><trkpt lat="45.7342461" lon="12.6772945"><ele>4.0</ele><time>2026-03-22T08:21:39.293Z</time></trkpt><trkpt lat="45.7343031" lon="12.6775643"><ele>4.0</ele><time>2026-03-22T08:21:40.279Z</time></trkpt><trkpt lat="45.7343607" lon="12.6778308"><ele>4.0</ele><time>2026-03-22T08:21:41.281Z</time></trkpt><trkpt lat="45.7344209" lon="12.6780874"><ele>3.333333333333333</ele><time>2026-03-22T08:21:42.281Z</time></trkpt><trkpt lat="45.734477" lon="12.6783326"><ele>2.6666666666666665</ele><time>2026-03-22T08:21:43.28Z</time></trkpt><trkpt lat="45.7345171" lon="12.6785661"><ele>2.0</ele><time>2026-03-22T08:21:44.277Z</time></trkpt><trkpt lat="45.7345418" lon="12.678789"><ele>2.0</ele><time>2026-03-22T08:21:45.28Z</time></trkpt><trkpt lat="45.7345604" lon="12.679002"><ele>2.0</ele><time>2026-03-22T08:21:46.275Z</time></trkpt><trkpt lat="45.7345417" lon="12.6792102"><ele>2.0</ele><time>2026-03-22T08:21:47.275Z</time></trkpt><trkpt lat="45.7344914" lon="12.6794123"><ele>2.0</ele><time>2026-03-22T08:21:48.27Z</time></trkpt><trkpt lat="45.7344163" lon="12.6796019"><ele>2.0</ele><time>2026-03-22T08:21:49.273Z</time></trkpt><trkpt lat="45.7343253" lon="12.6797838"><ele>2.0</ele><time>2026-03-22T08:21:50.273Z</time></trkpt><trkpt lat="45.7342144" lon="12.6799552"><ele>2.0</ele><time>2026-03-22T08:21:51.302Z</time></trkpt><trkpt lat="45.7340943" lon="12.680131"><ele>1.6666666666666665</ele><time>2026-03-22T08:21:52.288Z</time></trkpt><trkpt lat="45.7339605" lon="12.6803081"><ele>1.3333333333333333</ele><time>2026-03-22T08:21:53.292Z</time></trkpt><trkpt lat="45.7338121" lon="12.6804783"><ele>1.0</ele><time>2026-03-22T08:21:54.288Z</time></trkpt><trkpt lat="45.733652" lon="12.6806483"><ele>1.3333333333333333</ele><time>2026-03-22T08:21:55.298Z</time></trkpt><trkpt lat="45.7334789" lon="12.6808088"><ele>1.6666666666666665</ele><time>2026-03-22T08:21:56.28Z</time></trkpt><trkpt lat="45.733304" lon="12.6809637"><ele>2.0</ele><time>2026-03-22T08:21:57.29Z</time></trkpt><trkpt lat="45.7331218" lon="12.6810804"><ele>2.0</ele><time>2026-03-22T08:21:58.279Z</time></trkpt><trkpt lat="45.7329538" lon="12.6811989"><ele>2.0</ele><time>2026-03-22T08:21:59.277Z</time></trkpt><trkpt lat="45.7327811" lon="12.6812742"><ele>2.0</ele><time>2026-03-22T08:22:00.281Z</time></trkpt><trkpt lat="45.7326587" lon="12.6814331"><ele>2.2</ele><time>2026-03-22T08:22:01.304Z</time></trkpt><trkpt lat="45.7325582" lon="12.6815943"><ele>2.4000000000000004</ele><time>2026-03-22T08:22:02.291Z</time></trkpt><trkpt lat="45.7324706" lon="12.6817315"><ele>2.5999999999999996</ele><time>2026-03-22T08:22:03.312Z</time></trkpt><trkpt lat="45.7324142" lon="12.6818464"><ele>2.8</ele><time>2026-03-22T08:22:04.281Z</time></trkpt><trkpt lat="45.7323818" lon="12.6819306"><ele>3.0</ele><time>2026-03-22T08:22:05.271Z</time></trkpt><trkpt lat="45.732306" lon="12.6820008"><ele>2.6666666666666665</ele><time>2026-03-22T08:22:07.275Z</time></trkpt><trkpt lat="45.7322524" lon="12.6820556"><ele>2.3333333333333335</ele><time>2026-03-22T08:22:09.267Z</time></trkpt><trkpt lat="45.7322262" lon="12.6821378"><ele>2.0</ele><time>2026-03-22T08:22:11.263Z</time></trkpt><trkpt lat="45.7321873" lon="12.68226"><ele>1.6666666666666665</ele><time>2026-03-22T08:22:13.262Z</time></trkpt><trkpt lat="45.7321321" lon="12.6823566"><ele>1.3333333333333333</ele><time>2026-03-22T08:22:15.278Z</time></trkpt><trkpt lat="45.732048" lon="12.6823208"><ele>1.0</ele><time>2026-03-22T08:22:17.294Z</time></trkpt><trkpt lat="45.7319491" lon="12.6823536"><ele>1.6</ele><time>2026-03-22T08:22:20.285Z</time></trkpt><trkpt lat="45.7318668" lon="12.6822698"><ele>2.2</ele><time>2026-03-22T08:22:21.28Z</time></trkpt><trkpt lat="45.7317723" lon="12.6821576"><ele>2.8000000000000003</ele><time>2026-03-22T08:22:22.276Z</time></trkpt><trkpt lat="45.73169" lon="12.6820607"><ele>3.4000000000000004</ele><time>2026-03-22T08:22:23.266Z</time></trkpt><trkpt lat="45.731619" lon="12.6819662"><ele>4.0</ele><time>2026-03-22T08:22:24.269Z</time></trkpt><trkpt lat="45.7315599" lon="12.6818807"><ele>4.0</ele><time>2026-03-22T08:22:25.278Z</time></trkpt><trkpt lat="45.7315169" lon="12.6818049"><ele>4.0</ele><time>2026-03-22T08:22:26.278Z</time></trkpt><trkpt lat="45.7314026" lon="12.6817258"><ele>4.0</ele><time>2026-03-22T08:22:28.264Z</time></trkpt><trkpt lat="45.731325" lon="12.6817356"><ele>4.0</ele><time>2026-03-22T08:22:29.271Z</time></trkpt><trkpt lat="45.7312258" lon="12.6817484"><ele>4.0</ele><time>2026-03-22T08:22:30.274Z</time></trkpt><trkpt lat="45.7310975" lon="12.6817207"><ele>4.25</ele><time>2026-03-22T08:22:31.285Z</time></trkpt><trkpt lat="45.7309607" lon="12.6816788"><ele>4.5</ele><time>2026-03-22T08:22:32.288Z</time></trkpt><trkpt lat="45.7308259" lon="12.6816423"><ele>4.75</ele><time>2026-03-22T08:22:33.278Z</time></trkpt><trkpt lat="45.7306844" lon="12.6816014"><ele>5.0</ele><time>2026-03-22T08:22:34.309Z</time></trkpt><trkpt lat="45.7305376" lon="12.6815707"><ele>5.0</ele><time>2026-03-22T08:22:35.309Z</time></trkpt><trkpt lat="45.7303971" lon="12.6815502"><ele>5.0</ele><time>2026-03-22T08:22:36.289Z</time></trkpt><trkpt lat="45.7302643" lon="12.6815181"><ele>5.0</ele><time>2026-03-22T08:22:37.277Z</time></trkpt><trkpt lat="45.7301513" lon="12.6814929"><ele>5.0</ele><time>2026-03-22T08:22:38.273Z</time></trkpt><trkpt lat="45.7300676" lon="12.681467"><ele>5.333333333333334</ele><time>2026-03-22T08:22:39.285Z</time></trkpt><trkpt lat="45.7299895" lon="12.6814515"><ele>5.666666666666667</ele><time>2026-03-22T08:22:40.286Z</time></trkpt><trkpt lat="45.7299139" lon="12.6814217"><ele>6.0</ele><time>2026-03-22T08:22:41.284Z</time></trkpt><trkpt lat="45.7298426" lon="12.6813888"><ele>6.333333333333334</ele><time>2026-03-22T08:22:42.285Z</time></trkpt><trkpt lat="45.7297478" lon="12.6813657"><ele>6.666666666666667</ele><time>2026-03-22T08:22:44.269Z</time></trkpt><trkpt lat="45.729681" lon="12.6814623"><ele>7.0</ele><time>2026-03-22T08:22:46.275Z</time></trkpt><trkpt lat="45.7296862" lon="12.6815766"><ele>7.0</ele><time>2026-03-22T08:22:47.278Z</time></trkpt><trkpt lat="45.7296812" lon="12.6817126"><ele>6.999999999999999</ele><time>2026-03-22T08:22:48.266Z</time></trkpt><trkpt lat="45.7296856" lon="12.6818603"><ele>6.999999999999999</ele><time>2026-03-22T08:22:49.285Z</time></trkpt><trkpt lat="45.7296885" lon="12.68201"><ele>7.0</ele><time>2026-03-22T08:22:50.285Z</time></trkpt><trkpt lat="45.7296864" lon="12.6821626"><ele>7.0</ele><time>2026-03-22T08:22:51.269Z</time></trkpt><trkpt lat="45.7296986" lon="12.682313"><ele>6.75</ele><time>2026-03-22T08:22:52.283Z</time></trkpt><trkpt lat="45.7296791" lon="12.6824715"><ele>6.5</ele><time>2026-03-22T08:22:53.298Z</time></trkpt><trkpt lat="45.7296605" lon="12.6826384"><ele>6.25</ele><time>2026-03-22T08:22:54.267Z</time></trkpt><trkpt lat="45.7296356" lon="12.6828071"><ele>6.0</ele><time>2026-03-22T08:22:55.291Z</time></trkpt><trkpt lat="45.7295926" lon="12.6829769"><ele>5.75</ele><time>2026-03-22T08:22:56.267Z</time></trkpt><trkpt lat="45.7295218" lon="12.6831427"><ele>5.5</ele><time>2026-03-22T08:22:57.271Z</time></trkpt><trkpt lat="45.7294493" lon="12.6833108"><ele>5.25</ele><time>2026-03-22T08:22:58.273Z</time></trkpt><trkpt lat="45.7293435" lon="12.683457"><ele>5.0</ele><time>2026-03-22T08:22:59.275Z</time></trkpt><trkpt lat="45.7292852" lon="12.6836549"><ele>5.0</ele><time>2026-03-22T08:23:00.285Z</time></trkpt><trkpt lat="45.7292166" lon="12.6838554"><ele>5.0</ele><time>2026-03-22T08:23:01.27Z</time></trkpt><trkpt lat="45.7291449" lon="12.6840605"><ele>5.0</ele><time>2026-03-22T08:23:02.276Z</time></trkpt><trkpt lat="45.7290696" lon="12.6842631"><ele>4.666666666666667</ele><time>2026-03-22T08:23:03.277Z</time></trkpt><trkpt lat="45.7289935" lon="12.6844579"><ele>4.333333333333333</ele><time>2026-03-22T08:23:04.281Z</time></trkpt><trkpt lat="45.7289164" lon="12.6846424"><ele>4.0</ele><time>2026-03-22T08:23:05.269Z</time></trkpt><trkpt lat="45.7288363" lon="12.6848196"><ele>4.0</ele><time>2026-03-22T08:23:06.272Z</time></trkpt><trkpt lat="45.7287577" lon="12.6849964"><ele>4.0</ele><time>2026-03-22T08:23:07.277Z</time></trkpt><trkpt lat="45.7286847" lon="12.6851773"><ele>4.0</ele><time>2026-03-22T08:23:08.278Z</time></trkpt><trkpt lat="45.7286075" lon="12.6853566"><ele>4.0</ele><time>2026-03-22T08:23:09.278Z</time></trkpt><trkpt lat="45.7285344" lon="12.68554"><ele>3.75</ele><time>2026-03-22T08:23:10.275Z</time></trkpt><trkpt lat="45.7284576" lon="12.6857229"><ele>3.5</ele><time>2026-03-22T08:23:11.284Z</time></trkpt><trkpt lat="45.7283802" lon="12.6859055"><ele>3.25</ele><time>2026-03-22T08:23:12.272Z</time></trkpt><trkpt lat="45.7283072" lon="12.6860939"><ele>3.0</ele><time>2026-03-22T08:23:13.265Z</time></trkpt><trkpt lat="45.7282343" lon="12.6862844"><ele>2.75</ele><time>2026-03-22T08:23:14.281Z</time></trkpt><trkpt lat="45.728161" lon="12.6864708"><ele>2.5</ele><time>2026-03-22T08:23:15.277Z</time></trkpt><trkpt lat="45.7280853" lon="12.6866455"><ele>2.25</ele><time>2026-03-22T08:23:16.273Z</time></trkpt><trkpt lat="45.7280133" lon="12.686809"><ele>2.0</ele><time>2026-03-22T08:23:17.277Z</time></trkpt><trkpt lat="45.7279507" lon="12.6869552"><ele>2.0</ele><time>2026-03-22T08:23:18.278Z</time></trkpt><trkpt lat="45.727902" lon="12.6870956"><ele>2.0</ele><time>2026-03-22T08:23:19.277Z</time></trkpt><trkpt lat="45.7278375" lon="12.6872247"><ele>2.0</ele><time>2026-03-22T08:23:20.275Z</time></trkpt><trkpt lat="45.7277811" lon="12.6873661"><ele>2.0</ele><time>2026-03-22T08:23:21.283Z</time></trkpt><trkpt lat="45.7277185" lon="12.6875207"><ele>2.0</ele><time>2026-03-22T08:23:22.28Z</time></trkpt><trkpt lat="45.7276424" lon="12.6876786"><ele>2.0</ele><time>2026-03-22T08:23:23.282Z</time></trkpt><trkpt lat="45.7275609" lon="12.6878455"><ele>2.0</ele><time>2026-03-22T08:23:24.267Z</time></trkpt><trkpt lat="45.7274823" lon="12.6880262"><ele>2.0</ele><time>2026-03-22T08:23:25.274Z</time></trkpt><trkpt lat="45.7274036" lon="12.6882113"><ele>2.0</ele><time>2026-03-22T08:23:26.276Z</time></trkpt><trkpt lat="45.7273337" lon="12.6884048"><ele>2.0</ele><time>2026-03-22T08:23:27.279Z</time></trkpt><trkpt lat="45.7272575" lon="12.6885948"><ele>2.0</ele><time>2026-03-22T08:23:28.277Z</time></trkpt><trkpt lat="45.7271799" lon="12.6887823"><ele>2.0</ele><time>2026-03-22T08:23:29.283Z</time></trkpt><trkpt lat="45.7271004" lon="12.6889684"><ele>2.0</ele><time>2026-03-22T08:23:30.282Z</time></trkpt><trkpt lat="45.7270161" lon="12.6891502"><ele>2.0</ele><time>2026-03-22T08:23:31.277Z</time></trkpt><trkpt lat="45.7269335" lon="12.689337"><ele>2.0</ele><time>2026-03-22T08:23:32.271Z</time></trkpt><trkpt lat="45.7268535" lon="12.6895308"><ele>2.0</ele><time>2026-03-22T08:23:33.286Z</time></trkpt><trkpt lat="45.7267713" lon="12.6897284"><ele>2.0</ele><time>2026-03-22T08:23:34.264Z</time></trkpt><trkpt lat="45.7266863" lon="12.689927"><ele>2.0</ele><time>2026-03-22T08:23:35.273Z</time></trkpt><trkpt lat="45.7265756" lon="12.6901031"><ele>2.0</ele><time>2026-03-22T08:23:36.272Z</time></trkpt><trkpt lat="45.7265018" lon="12.6903128"><ele>2.0</ele><time>2026-03-22T08:23:37.279Z</time></trkpt><trkpt lat="45.7264261" lon="12.6905167"><ele>1.6666666666666665</ele><time>2026-03-22T08:23:38.272Z</time></trkpt><trkpt lat="45.7263567" lon="12.6907192"><ele>1.3333333333333333</ele><time>2026-03-22T08:23:39.269Z</time></trkpt><trkpt lat="45.7262847" lon="12.6909096"><ele>1.0</ele><time>2026-03-22T08:23:40.272Z</time></trkpt><trkpt lat="45.7262115" lon="12.6910915"><ele>0.75</ele><time>2026-03-22T08:23:41.285Z</time></trkpt><trkpt lat="45.7261378" lon="12.6912723"><ele>0.5</ele><time>2026-03-22T08:23:42.276Z</time></trkpt><trkpt lat="45.7260591" lon="12.6914522"><ele>0.25</ele><time>2026-03-22T08:23:43.282Z</time></trkpt><trkpt lat="45.7259823" lon="12.6916365"><ele>0.0</ele><time>2026-03-22T08:23:44.278Z</time></trkpt><trkpt lat="45.7258993" lon="12.6918174"><ele>0.6666666666666666</ele><time>2026-03-22T08:23:45.288Z</time></trkpt><trkpt lat="45.7258306" lon="12.6920135"><ele>1.3333333333333333</ele><time>2026-03-22T08:23:46.287Z</time></trkpt><trkpt lat="45.7257589" lon="12.6922035"><ele>2.0</ele><time>2026-03-22T08:23:47.277Z</time></trkpt><trkpt lat="45.7256878" lon="12.6923875"><ele>2.0</ele><time>2026-03-22T08:23:48.26Z</time></trkpt><trkpt lat="45.7256045" lon="12.6925559"><ele>2.0</ele><time>2026-03-22T08:23:49.265Z</time></trkpt><trkpt lat="45.7255279" lon="12.692731"><ele>2.0</ele><time>2026-03-22T08:23:50.26Z</time></trkpt><trkpt lat="45.7254532" lon="12.6929103"><ele>2.0</ele><time>2026-03-22T08:23:51.299Z</time></trkpt><trkpt lat="45.725378" lon="12.6930933"><ele>2.0</ele><time>2026-03-22T08:23:52.281Z</time></trkpt><trkpt lat="45.7252996" lon="12.6932832"><ele>2.0</ele><time>2026-03-22T08:23:53.271Z</time></trkpt><trkpt lat="45.7252162" lon="12.6934804"><ele>2.0</ele><time>2026-03-22T08:23:54.282Z</time></trkpt><trkpt lat="45.725115" lon="12.6936606"><ele>1.75</ele><time>2026-03-22T08:23:55.272Z</time></trkpt><trkpt lat="45.7250205" lon="12.6938359"><ele>1.5</ele><time>2026-03-22T08:23:56.273Z</time></trkpt><trkpt lat="45.7249146" lon="12.6939865"><ele>1.25</ele><time>2026-03-22T08:23:57.274Z</time></trkpt><trkpt lat="45.7248414" lon="12.6941546"><ele>1.0</ele><time>2026-03-22T08:23:58.292Z</time></trkpt><trkpt lat="45.7247813" lon="12.6943185"><ele>1.25</ele><time>2026-03-22T08:23:59.266Z</time></trkpt><trkpt lat="45.7247443" lon="12.6944915"><ele>1.5</ele><time>2026-03-22T08:24:00.262Z</time></trkpt><trkpt lat="45.7246995" lon="12.6946556"><ele>1.75</ele><time>2026-03-22T08:24:01.271Z</time></trkpt><trkpt lat="45.7246468" lon="12.6948119"><ele>2.0</ele><time>2026-03-22T08:24:02.306Z</time></trkpt><trkpt lat="45.7245871" lon="12.694967"><ele>2.0</ele><time>2026-03-22T08:24:03.295Z</time></trkpt><trkpt lat="45.7245254" lon="12.6951208"><ele>2.0</ele><time>2026-03-22T08:24:04.272Z</time></trkpt><trkpt lat="45.7244521" lon="12.6952682"><ele>2.0</ele><time>2026-03-22T08:24:05.284Z</time></trkpt><trkpt lat="45.7243849" lon="12.6954223"><ele>2.0</ele><time>2026-03-22T08:24:06.287Z</time></trkpt><trkpt lat="45.7243137" lon="12.6955732"><ele>1.5</ele><time>2026-03-22T08:24:07.308Z</time></trkpt><trkpt lat="45.724254" lon="12.6957326"><ele>1.0</ele><time>2026-03-22T08:24:08.283Z</time></trkpt><trkpt lat="45.7241934" lon="12.6958875"><ele>0.5</ele><time>2026-03-22T08:24:09.294Z</time></trkpt><trkpt lat="45.7241283" lon="12.6960374"><ele>0.0</ele><time>2026-03-22T08:24:10.263Z</time></trkpt><trkpt lat="45.7240624" lon="12.696188"><ele>-0.25</ele><time>2026-03-22T08:24:11.273Z</time></trkpt><trkpt lat="45.724" lon="12.6963446"><ele>-0.5</ele><time>2026-03-22T08:24:12.276Z</time></trkpt><trkpt lat="45.7239307" lon="12.6964959"><ele>-0.75</ele><time>2026-03-22T08:24:13.276Z</time></trkpt><trkpt lat="45.7238616" lon="12.6966473"><ele>-1.0</ele><time>2026-03-22T08:24:14.262Z</time></trkpt><trkpt lat="45.7237888" lon="12.6967902"><ele>-1.0</ele><time>2026-03-22T08:24:15.277Z</time></trkpt><trkpt lat="45.7237259" lon="12.696931"><ele>-1.0</ele><time>2026-03-22T08:24:16.27Z</time></trkpt><trkpt lat="45.7236804" lon="12.697071"><ele>-1.0</ele><time>2026-03-22T08:24:17.284Z</time></trkpt><trkpt lat="45.7236325" lon="12.6971945"><ele>-1.0</ele><time>2026-03-22T08:24:18.263Z</time></trkpt><trkpt lat="45.7235792" lon="12.6972909"><ele>-1.0</ele><time>2026-03-22T08:24:19.291Z</time></trkpt><trkpt lat="45.7235349" lon="12.6974087"><ele>-0.8333333333333333</ele><time>2026-03-22T08:24:21.29Z</time></trkpt><trkpt lat="45.723489" lon="12.6974726"><ele>-0.6666666666666666</ele><time>2026-03-22T08:24:23.28Z</time></trkpt><trkpt lat="45.7234126" lon="12.6975451"><ele>-0.5</ele><time>2026-03-22T08:24:25.267Z</time></trkpt><trkpt lat="45.723389" lon="12.6976344"><ele>-0.3333333333333333</ele><time>2026-03-22T08:24:26.282Z</time></trkpt><trkpt lat="45.7233729" lon="12.6977684"><ele>-0.16666666666666666</ele><time>2026-03-22T08:24:27.294Z</time></trkpt><trkpt lat="45.7233317" lon="12.6979388"><ele>0.0</ele><time>2026-03-22T08:24:28.277Z</time></trkpt><trkpt lat="45.723256" lon="12.698123"><ele>0.0</ele><time>2026-03-22T08:24:29.275Z</time></trkpt><trkpt lat="45.723171" lon="12.6983142"><ele>0.0</ele><time>2026-03-22T08:24:30.283Z</time></trkpt><trkpt lat="45.7230914" lon="12.6985023"><ele>0.0</ele><time>2026-03-22T08:24:31.303Z</time></trkpt><trkpt lat="45.7230151" lon="12.6986812"><ele>0.0</ele><time>2026-03-22T08:24:32.292Z</time></trkpt><trkpt lat="45.7229421" lon="12.698856"><ele>0.0</ele><time>2026-03-22T08:24:33.279Z</time></trkpt><trkpt lat="45.722868" lon="12.6990232"><ele>0.0</ele><time>2026-03-22T08:24:34.267Z</time></trkpt><trkpt lat="45.722796" lon="12.6991865"><ele>0.0</ele><time>2026-03-22T08:24:35.281Z</time></trkpt><trkpt lat="45.7227282" lon="12.699345"><ele>0.6</ele><time>2026-03-22T08:24:36.271Z</time></trkpt><trkpt lat="45.7226654" lon="12.6994978"><ele>1.2</ele><time>2026-03-22T08:24:37.281Z</time></trkpt><trkpt lat="45.7225944" lon="12.6996285"><ele>1.7999999999999998</ele><time>2026-03-22T08:24:38.29Z</time></trkpt><trkpt lat="45.722526" lon="12.6997334"><ele>2.4</ele><time>2026-03-22T08:24:39.279Z</time></trkpt><trkpt lat="45.722466" lon="12.6998191"><ele>3.0</ele><time>2026-03-22T08:24:40.278Z</time></trkpt><trkpt lat="45.7223669" lon="12.699821"><ele>3.0</ele><time>2026-03-22T08:24:41.269Z</time></trkpt><trkpt lat="45.7223052" lon="12.6998787"><ele>3.0</ele><time>2026-03-22T08:24:42.265Z</time></trkpt><trkpt lat="45.722219" lon="12.6998583"><ele>3.0</ele><time>2026-03-22T08:24:43.268Z</time></trkpt><trkpt lat="45.7221567" lon="12.6998956"><ele>3.0</ele><time>2026-03-22T08:24:44.253Z</time></trkpt><trkpt lat="45.7221182" lon="12.6999941"><ele>3.0</ele><time>2026-03-22T08:24:45.271Z</time></trkpt><trkpt lat="45.7220918" lon="12.7001022"><ele>3.0</ele><time>2026-03-22T08:24:46.27Z</time></trkpt><trkpt lat="45.7220847" lon="12.7002255"><ele>2.8</ele><time>2026-03-22T08:24:47.284Z</time></trkpt><trkpt lat="45.7221086" lon="12.7003412"><ele>2.5999999999999996</ele><time>2026-03-22T08:24:48.275Z</time></trkpt><trkpt lat="45.7221568" lon="12.7004545"><ele>2.4000000000000004</ele><time>2026-03-22T08:24:49.273Z</time></trkpt><trkpt lat="45.7222323" lon="12.7005579"><ele>2.2</ele><time>2026-03-22T08:24:50.262Z</time></trkpt><trkpt lat="45.7223174" lon="12.700643"><ele>2.0</ele><time>2026-03-22T08:24:51.279Z</time></trkpt><trkpt lat="45.722418" lon="12.700694"><ele>2.0</ele><time>2026-03-22T08:24:52.278Z</time></trkpt><trkpt lat="45.7225271" lon="12.7007271"><ele>2.0</ele><time>2026-03-22T08:24:53.305Z</time></trkpt><trkpt lat="45.7226399" lon="12.7007476"><ele>2.0</ele><time>2026-03-22T08:24:54.269Z</time></trkpt><trkpt lat="45.7227561" lon="12.7007686"><ele>2.0</ele><time>2026-03-22T08:24:55.279Z</time></trkpt><trkpt lat="45.7228618" lon="12.7008511"><ele>2.0</ele><time>2026-03-22T08:24:56.27Z</time></trkpt><trkpt lat="45.7229568" lon="12.7009707"><ele>2.0</ele><time>2026-03-22T08:24:57.276Z</time></trkpt><trkpt lat="45.7230545" lon="12.7010985"><ele>2.0</ele><time>2026-03-22T08:24:58.272Z</time></trkpt><trkpt lat="45.7231526" lon="12.7012343"><ele>2.0</ele><time>2026-03-22T08:24:59.273Z</time></trkpt><trkpt lat="45.723258" lon="12.7013689"><ele>2.0</ele><time>2026-03-22T08:25:00.277Z</time></trkpt><trkpt lat="45.7233614" lon="12.7015181"><ele>2.0</ele><time>2026-03-22T08:25:01.281Z</time></trkpt><trkpt lat="45.7234776" lon="12.7016563"><ele>2.0</ele><time>2026-03-22T08:25:02.284Z</time></trkpt><trkpt lat="45.7235862" lon="12.7018126"><ele>2.0</ele><time>2026-03-22T08:25:03.283Z</time></trkpt><trkpt lat="45.7237064" lon="12.7019628"><ele>2.0</ele><time>2026-03-22T08:25:04.286Z</time></trkpt><trkpt lat="45.7238274" lon="12.7021297"><ele>2.0</ele><time>2026-03-22T08:25:05.282Z</time></trkpt><trkpt lat="45.7239597" lon="12.7023092"><ele>2.0</ele><time>2026-03-22T08:25:06.294Z</time></trkpt><trkpt lat="45.7241039" lon="12.702499"><ele>2.0</ele><time>2026-03-22T08:25:07.283Z</time></trkpt><trkpt lat="45.7242583" lon="12.702693"><ele>2.0</ele><time>2026-03-22T08:25:08.279Z</time></trkpt><trkpt lat="45.7244069" lon="12.7029015"><ele>1.3333333333333333</ele><time>2026-03-22T08:25:09.284Z</time></trkpt><trkpt lat="45.7245586" lon="12.7031076"><ele>0.6666666666666666</ele><time>2026-03-22T08:25:10.273Z</time></trkpt><trkpt lat="45.7247164" lon="12.7033031"><ele>0.0</ele><time>2026-03-22T08:25:11.273Z</time></trkpt><trkpt lat="45.7248651" lon="12.7035058"><ele>0.0</ele><time>2026-03-22T08:25:12.281Z</time></trkpt><trkpt lat="45.7250126" lon="12.7037032"><ele>0.0</ele><time>2026-03-22T08:25:13.291Z</time></trkpt><trkpt lat="45.7251571" lon="12.7038984"><ele>0.0</ele><time>2026-03-22T08:25:14.275Z</time></trkpt><trkpt lat="45.7253032" lon="12.704086"><ele>0.0</ele><time>2026-03-22T08:25:15.285Z</time></trkpt><trkpt lat="45.7254474" lon="12.7042707"><ele>0.0</ele><time>2026-03-22T08:25:16.29Z</time></trkpt><trkpt lat="45.7255928" lon="12.7044462"><ele>0.0</ele><time>2026-03-22T08:25:17.295Z</time></trkpt><trkpt lat="45.7257232" lon="12.7046371"><ele>0.0</ele><time>2026-03-22T08:25:18.279Z</time></trkpt><trkpt lat="45.7258649" lon="12.7048073"><ele>0.0</ele><time>2026-03-22T08:25:19.277Z</time></trkpt><trkpt lat="45.7260006" lon="12.704985"><ele>0.0</ele><time>2026-03-22T08:25:20.266Z</time></trkpt><trkpt lat="45.7261347" lon="12.7051604"><ele>0.6666666666666666</ele><time>2026-03-22T08:25:21.278Z</time></trkpt><trkpt lat="45.7262689" lon="12.7053319"><ele>1.3333333333333333</ele><time>2026-03-22T08:25:22.276Z</time></trkpt><trkpt lat="45.7264019" lon="12.7055047"><ele>2.0</ele><time>2026-03-22T08:25:23.272Z</time></trkpt><trkpt lat="45.7265343" lon="12.705679"><ele>2.0</ele><time>2026-03-22T08:25:24.267Z</time></trkpt><trkpt lat="45.7266671" lon="12.7058538"><ele>2.0</ele><time>2026-03-22T08:25:25.286Z</time></trkpt><trkpt lat="45.7267923" lon="12.7060385"><ele>2.0</ele><time>2026-03-22T08:25:26.275Z</time></trkpt><trkpt lat="45.7269085" lon="12.7062301"><ele>1.3333333333333333</ele><time>2026-03-22T08:25:27.278Z</time></trkpt><trkpt lat="45.7270194" lon="12.7064255"><ele>0.6666666666666666</ele><time>2026-03-22T08:25:28.289Z</time></trkpt><trkpt lat="45.7271245" lon="12.7066283"><ele>0.0</ele><time>2026-03-22T08:25:29.273Z</time></trkpt><trkpt lat="45.7272228" lon="12.7068406"><ele>0.6666666666666666</ele><time>2026-03-22T08:25:30.268Z</time></trkpt><trkpt lat="45.7273158" lon="12.7070603"><ele>1.3333333333333333</ele><time>2026-03-22T08:25:31.277Z</time></trkpt><trkpt lat="45.727409" lon="12.7072809"><ele>2.0</ele><time>2026-03-22T08:25:32.269Z</time></trkpt><trkpt lat="45.7274993" lon="12.7075042"><ele>2.0</ele><time>2026-03-22T08:25:33.282Z</time></trkpt><trkpt lat="45.7275908" lon="12.707726"><ele>2.0</ele><time>2026-03-22T08:25:34.286Z</time></trkpt><trkpt lat="45.727682" lon="12.7079479"><ele>2.0</ele><time>2026-03-22T08:25:35.277Z</time></trkpt><trkpt lat="45.7277696" lon="12.7081743"><ele>1.3333333333333333</ele><time>2026-03-22T08:25:36.274Z</time></trkpt><trkpt lat="45.7278595" lon="12.7084008"><ele>0.6666666666666666</ele><time>2026-03-22T08:25:37.285Z</time></trkpt><trkpt lat="45.7279495" lon="12.7086284"><ele>0.0</ele><time>2026-03-22T08:25:38.27Z</time></trkpt><trkpt lat="45.7280395" lon="12.708852"><ele>0.0</ele><time>2026-03-22T08:25:39.283Z</time></trkpt><trkpt lat="45.7281265" lon="12.7090656"><ele>0.0</ele><time>2026-03-22T08:25:40.288Z</time></trkpt><trkpt lat="45.7282079" lon="12.7092701"><ele>0.0</ele><time>2026-03-22T08:25:41.278Z</time></trkpt><trkpt lat="45.7282884" lon="12.7094673"><ele>0.0</ele><time>2026-03-22T08:25:42.286Z</time></trkpt><trkpt lat="45.7283678" lon="12.7096602"><ele>0.0</ele><time>2026-03-22T08:25:43.281Z</time></trkpt><trkpt lat="45.7284466" lon="12.7098503"><ele>0.0</ele><time>2026-03-22T08:25:44.291Z</time></trkpt><trkpt lat="45.7285254" lon="12.7100385"><ele>0.0</ele><time>2026-03-22T08:25:45.277Z</time></trkpt><trkpt lat="45.728603" lon="12.710227"><ele>0.0</ele><time>2026-03-22T08:25:46.28Z</time></trkpt><trkpt lat="45.7286811" lon="12.7104155"><ele>0.0</ele><time>2026-03-22T08:25:47.284Z</time></trkpt><trkpt lat="45.7287586" lon="12.710606"><ele>0.0</ele><time>2026-03-22T08:25:48.268Z</time></trkpt><trkpt lat="45.7288387" lon="12.7107954"><ele>0.0</ele><time>2026-03-22T08:25:49.279Z</time></trkpt><trkpt lat="45.7289123" lon="12.7109908"><ele>0.0</ele><time>2026-03-22T08:25:50.277Z</time></trkpt><trkpt lat="45.7289893" lon="12.7111847"><ele>0.0</ele><time>2026-03-22T08:25:51.275Z</time></trkpt><trkpt lat="45.7290701" lon="12.7113775"><ele>0.0</ele><time>2026-03-22T08:25:52.276Z</time></trkpt><trkpt lat="45.7291452" lon="12.7115756"><ele>0.0</ele><time>2026-03-22T08:25:53.29Z</time></trkpt><trkpt lat="45.7292274" lon="12.711769"><ele>-0.6666666666666666</ele><time>2026-03-22T08:25:54.268Z</time></trkpt><trkpt lat="45.7293075" lon="12.7119645"><ele>-1.3333333333333333</ele><time>2026-03-22T08:25:55.29Z</time></trkpt><trkpt lat="45.7293831" lon="12.712164"><ele>-2.0</ele><time>2026-03-22T08:25:56.298Z</time></trkpt><trkpt lat="45.7294614" lon="12.7123613"><ele>-2.0</ele><time>2026-03-22T08:25:57.27Z</time></trkpt><trkpt lat="45.7295406" lon="12.712557"><ele>-2.0</ele><time>2026-03-22T08:25:58.291Z</time></trkpt><trkpt lat="45.7296209" lon="12.7127493"><ele>-2.0</ele><time>2026-03-22T08:25:59.302Z</time></trkpt><trkpt lat="45.7297006" lon="12.7129394"><ele>-1.75</ele><time>2026-03-22T08:26:00.292Z</time></trkpt><trkpt lat="45.7297768" lon="12.7131283"><ele>-1.5</ele><time>2026-03-22T08:26:01.282Z</time></trkpt><trkpt lat="45.7298519" lon="12.7133135"><ele>-1.25</ele><time>2026-03-22T08:26:02.282Z</time></trkpt><trkpt lat="45.7299273" lon="12.7134954"><ele>-1.0</ele><time>2026-03-22T08:26:03.292Z</time></trkpt><trkpt lat="45.7300023" lon="12.7136719"><ele>-0.75</ele><time>2026-03-22T08:26:04.285Z</time></trkpt><trkpt lat="45.7300738" lon="12.7138409"><ele>-0.5</ele><time>2026-03-22T08:26:05.292Z</time></trkpt><trkpt lat="45.73014" lon="12.7139973"><ele>-0.25</ele><time>2026-03-22T08:26:06.285Z</time></trkpt><trkpt lat="45.7301976" lon="12.714138"><ele>0.0</ele><time>2026-03-22T08:26:07.301Z</time></trkpt><trkpt lat="45.7302359" lon="12.7142759"><ele>0.0</ele><time>2026-03-22T08:26:08.287Z</time></trkpt><trkpt lat="45.7302451" lon="12.7144196"><ele>0.0</ele><time>2026-03-22T08:26:09.285Z</time></trkpt><trkpt lat="45.7302342" lon="12.714569"><ele>0.0</ele><time>2026-03-22T08:26:10.29Z</time></trkpt><trkpt lat="45.7302049" lon="12.714717"><ele>0.0</ele><time>2026-03-22T08:26:11.293Z</time></trkpt><trkpt lat="45.730189" lon="12.714863"><ele>0.0</ele><time>2026-03-22T08:26:12.29Z</time></trkpt><trkpt lat="45.7302181" lon="12.7150004"><ele>-0.4</ele><time>2026-03-22T08:26:13.292Z</time></trkpt><trkpt lat="45.7302682" lon="12.7151163"><ele>-0.8</ele><time>2026-03-22T08:26:14.281Z</time></trkpt><trkpt lat="45.7303436" lon="12.7152055"><ele>-1.2000000000000002</ele><time>2026-03-22T08:26:15.297Z</time></trkpt><trkpt lat="45.7304393" lon="12.7152554"><ele>-1.6</ele><time>2026-03-22T08:26:16.279Z</time></trkpt><trkpt lat="45.7305412" lon="12.7152844"><ele>-2.0</ele><time>2026-03-22T08:26:17.276Z</time></trkpt><trkpt lat="45.7306356" lon="12.7153242"><ele>-2.0</ele><time>2026-03-22T08:26:18.277Z</time></trkpt><trkpt lat="45.7307174" lon="12.7153771"><ele>-2.0</ele><time>2026-03-22T08:26:19.284Z</time></trkpt><trkpt lat="45.7307774" lon="12.7154965"><ele>-2.0</ele><time>2026-03-22T08:26:20.282Z</time></trkpt><trkpt lat="45.7308353" lon="12.7156412"><ele>-2.0</ele><time>2026-03-22T08:26:21.286Z</time></trkpt><trkpt lat="45.7308908" lon="12.7158103"><ele>-2.0</ele><time>2026-03-22T08:26:22.283Z</time></trkpt><trkpt lat="45.7309549" lon="12.7159819"><ele>-1.75</ele><time>2026-03-22T08:26:23.288Z</time></trkpt><trkpt lat="45.7310225" lon="12.7161547"><ele>-1.5</ele><time>2026-03-22T08:26:24.278Z</time></trkpt><trkpt lat="45.7310902" lon="12.7163306"><ele>-1.25</ele><time>2026-03-22T08:26:25.277Z</time></trkpt><trkpt lat="45.7311626" lon="12.7165107"><ele>-1.0</ele><time>2026-03-22T08:26:26.294Z</time></trkpt><trkpt lat="45.7312359" lon="12.7166905"><ele>-0.3333333333333333</ele><time>2026-03-22T08:26:27.284Z</time></trkpt><trkpt lat="45.7313131" lon="12.7168731"><ele>0.3333333333333333</ele><time>2026-03-22T08:26:28.293Z</time></trkpt><trkpt lat="45.7313947" lon="12.7170641"><ele>1.0</ele><time>2026-03-22T08:26:29.281Z</time></trkpt><trkpt lat="45.7314814" lon="12.7172666"><ele>1.0</ele><time>2026-03-22T08:26:30.28Z</time></trkpt><trkpt lat="45.7315745" lon="12.7174807"><ele>1.0</ele><time>2026-03-22T08:26:31.283Z</time></trkpt><trkpt lat="45.7316655" lon="12.7177139"><ele>1.0</ele><time>2026-03-22T08:26:32.268Z</time></trkpt><trkpt lat="45.7317677" lon="12.7179423"><ele>1.0</ele><time>2026-03-22T08:26:33.293Z</time></trkpt><trkpt lat="45.7318641" lon="12.7181838"><ele>1.0</ele><time>2026-03-22T08:26:34.28Z</time></trkpt><trkpt lat="45.7319605" lon="12.7184321"><ele>1.0</ele><time>2026-03-22T08:26:35.277Z</time></trkpt><trkpt lat="45.7320631" lon="12.7186773"><ele>0.6666666666666666</ele><time>2026-03-22T08:26:36.28Z</time></trkpt><trkpt lat="45.7321674" lon="12.7189219"><ele>0.3333333333333333</ele><time>2026-03-22T08:26:37.28Z</time></trkpt><trkpt lat="45.7322697" lon="12.7191693"><ele>0.0</ele><time>2026-03-22T08:26:38.278Z</time></trkpt><trkpt lat="45.7323736" lon="12.7194215"><ele>0.0</ele><time>2026-03-22T08:26:39.286Z</time></trkpt><trkpt lat="45.7324862" lon="12.7196677"><ele>0.0</ele><time>2026-03-22T08:26:40.297Z</time></trkpt><trkpt lat="45.7325954" lon="12.7199225"><ele>0.0</ele><time>2026-03-22T08:26:41.284Z</time></trkpt><trkpt lat="45.7326948" lon="12.7201848"><ele>0.0</ele><time>2026-03-22T08:26:42.301Z</time></trkpt><trkpt lat="45.7327924" lon="12.7204484"><ele>0.0</ele><time>2026-03-22T08:26:43.299Z</time></trkpt><trkpt lat="45.7328855" lon="12.7207139"><ele>0.0</ele><time>2026-03-22T08:26:44.277Z</time></trkpt><trkpt lat="45.7329824" lon="12.7209739"><ele>-0.3333333333333333</ele><time>2026-03-22T08:26:45.292Z</time></trkpt><trkpt lat="45.7330651" lon="12.7212393"><ele>-0.6666666666666666</ele><time>2026-03-22T08:26:46.271Z</time></trkpt><trkpt lat="45.7331626" lon="12.7214926"><ele>-1.0</ele><time>2026-03-22T08:26:47.294Z</time></trkpt><trkpt lat="45.7332655" lon="12.7217411"><ele>-0.6666666666666666</ele><time>2026-03-22T08:26:48.276Z</time></trkpt><trkpt lat="45.7333733" lon="12.7219866"><ele>-0.3333333333333333</ele><time>2026-03-22T08:26:49.292Z</time></trkpt><trkpt lat="45.7334771" lon="12.7222336"><ele>0.0</ele><time>2026-03-22T08:26:50.263Z</time></trkpt><trkpt lat="45.73358" lon="12.7224803"><ele>-0.6666666666666666</ele><time>2026-03-22T08:26:51.29Z</time></trkpt><trkpt lat="45.7336793" lon="12.7227296"><ele>-1.3333333333333333</ele><time>2026-03-22T08:26:52.287Z</time></trkpt><trkpt lat="45.7337847" lon="12.7229734"><ele>-2.0</ele><time>2026-03-22T08:26:53.285Z</time></trkpt><trkpt lat="45.7338821" lon="12.7232233"><ele>-2.0</ele><time>2026-03-22T08:26:54.292Z</time></trkpt><trkpt lat="45.7339846" lon="12.7234685"><ele>-2.0</ele><time>2026-03-22T08:26:55.272Z</time></trkpt><trkpt lat="45.7340856" lon="12.7237152"><ele>-2.0</ele><time>2026-03-22T08:26:56.275Z</time></trkpt><trkpt lat="45.7341804" lon="12.7239662"><ele>-1.6666666666666665</ele><time>2026-03-22T08:26:57.273Z</time></trkpt><trkpt lat="45.7342829" lon="12.7242103"><ele>-1.3333333333333333</ele><time>2026-03-22T08:26:58.298Z</time></trkpt><trkpt lat="45.7343831" lon="12.7244567"><ele>-1.0</ele><time>2026-03-22T08:26:59.276Z</time></trkpt><trkpt lat="45.7344863" lon="12.7247025"><ele>-1.0</ele><time>2026-03-22T08:27:00.282Z</time></trkpt><trkpt lat="45.7345888" lon="12.72495"><ele>-1.0</ele><time>2026-03-22T08:27:01.293Z</time></trkpt><trkpt lat="45.7346893" lon="12.7252005"><ele>-1.0</ele><time>2026-03-22T08:27:02.285Z</time></trkpt><trkpt lat="45.7347907" lon="12.7254509"><ele>-1.0</ele><time>2026-03-22T08:27:03.281Z</time></trkpt><trkpt lat="45.7348932" lon="12.7257027"><ele>-1.0</ele><time>2026-03-22T08:27:04.279Z</time></trkpt><trkpt lat="45.7349928" lon="12.72596"><ele>-1.0</ele><time>2026-03-22T08:27:05.289Z</time></trkpt><trkpt lat="45.735099" lon="12.7262178"><ele>-1.0</ele><time>2026-03-22T08:27:06.293Z</time></trkpt><trkpt lat="45.7352039" lon="12.7264818"><ele>-1.0</ele><time>2026-03-22T08:27:07.279Z</time></trkpt><trkpt lat="45.7353122" lon="12.7267466"><ele>-1.0</ele><time>2026-03-22T08:27:08.283Z</time></trkpt><trkpt lat="45.7354082" lon="12.7270186"><ele>-1.0</ele><time>2026-03-22T08:27:09.281Z</time></trkpt><trkpt lat="45.7355221" lon="12.7272759"><ele>-1.0</ele><time>2026-03-22T08:27:10.284Z</time></trkpt><trkpt lat="45.7356272" lon="12.7275353"><ele>-1.0</ele><time>2026-03-22T08:27:11.292Z</time></trkpt><trkpt lat="45.7357306" lon="12.7277891"><ele>-1.3333333333333333</ele><time>2026-03-22T08:27:12.295Z</time></trkpt><trkpt lat="45.7358343" lon="12.7280384"><ele>-1.6666666666666665</ele><time>2026-03-22T08:27:13.292Z</time></trkpt><trkpt lat="45.7359378" lon="12.728287"><ele>-2.0</ele><time>2026-03-22T08:27:14.27Z</time></trkpt><trkpt lat="45.7360448" lon="12.7285339"><ele>-1.6666666666666665</ele><time>2026-03-22T08:27:15.281Z</time></trkpt><trkpt lat="45.7361438" lon="12.7287856"><ele>-1.3333333333333333</ele><time>2026-03-22T08:27:16.289Z</time></trkpt><trkpt lat="45.7362462" lon="12.7290362"><ele>-1.0</ele><time>2026-03-22T08:27:17.285Z</time></trkpt><trkpt lat="45.7363442" lon="12.7292928"><ele>0.0</ele><time>2026-03-22T08:27:18.275Z</time></trkpt><trkpt lat="45.7364457" lon="12.7295481"><ele>1.0</ele><time>2026-03-22T08:27:19.29Z</time></trkpt><trkpt lat="45.7365519" lon="12.7298023"><ele>2.0</ele><time>2026-03-22T08:27:20.286Z</time></trkpt><trkpt lat="45.7366486" lon="12.7300624"><ele>1.0</ele><time>2026-03-22T08:27:21.283Z</time></trkpt><trkpt lat="45.736758" lon="12.7303152"><ele>0.0</ele><time>2026-03-22T08:27:22.288Z</time></trkpt><trkpt lat="45.736863" lon="12.7305707"><ele>-1.0</ele><time>2026-03-22T08:27:23.288Z</time></trkpt><trkpt lat="45.7369624" lon="12.7308311"><ele>-1.0</ele><time>2026-03-22T08:27:24.278Z</time></trkpt><trkpt lat="45.7370704" lon="12.7310832"><ele>-1.0</ele><time>2026-03-22T08:27:25.277Z</time></trkpt><trkpt lat="45.7371725" lon="12.7313383"><ele>-1.0</ele><time>2026-03-22T08:27:26.278Z</time></trkpt><trkpt lat="45.7372764" lon="12.7315918"><ele>-1.0</ele><time>2026-03-22T08:27:27.28Z</time></trkpt><trkpt lat="45.7373785" lon="12.731847"><ele>-1.0</ele><time>2026-03-22T08:27:28.283Z</time></trkpt><trkpt lat="45.7374806" lon="12.732101"><ele>-1.0</ele><time>2026-03-22T08:27:29.277Z</time></trkpt><trkpt lat="45.7375891" lon="12.7323475"><ele>-1.0</ele><time>2026-03-22T08:27:30.297Z</time></trkpt><trkpt lat="45.7376905" lon="12.7325988"><ele>-1.0</ele><time>2026-03-22T08:27:31.29Z</time></trkpt><trkpt lat="45.7377956" lon="12.7328476"><ele>-1.0</ele><time>2026-03-22T08:27:32.287Z</time></trkpt><trkpt lat="45.7378947" lon="12.7331027"><ele>-1.0</ele><time>2026-03-22T08:27:33.297Z</time></trkpt><trkpt lat="45.7379948" lon="12.7333594"><ele>-1.0</ele><time>2026-03-22T08:27:34.278Z</time></trkpt><trkpt lat="45.7380994" lon="12.7336145"><ele>-1.0</ele><time>2026-03-22T08:27:35.273Z</time></trkpt><trkpt lat="45.7382024" lon="12.7338724"><ele>-1.0</ele><time>2026-03-22T08:27:36.272Z</time></trkpt><trkpt lat="45.7383069" lon="12.7341295"><ele>-1.0</ele><time>2026-03-22T08:27:37.304Z</time></trkpt><trkpt lat="45.7384125" lon="12.7343852"><ele>-1.0</ele><time>2026-03-22T08:27:38.269Z</time></trkpt><trkpt lat="45.7385153" lon="12.7346431"><ele>-1.0</ele><time>2026-03-22T08:27:39.277Z</time></trkpt><trkpt lat="45.738616" lon="12.7349028"><ele>-1.0</ele><time>2026-03-22T08:27:40.278Z</time></trkpt><trkpt lat="45.738724" lon="12.7351566"><ele>-1.0</ele><time>2026-03-22T08:27:41.279Z</time></trkpt><trkpt lat="45.7388291" lon="12.7354111"><ele>-1.0</ele><time>2026-03-22T08:27:42.268Z</time></trkpt><trkpt lat="45.7389353" lon="12.7356631"><ele>-1.0</ele><time>2026-03-22T08:27:43.274Z</time></trkpt><trkpt lat="45.7390361" lon="12.7359195"><ele>-1.0</ele><time>2026-03-22T08:27:44.271Z</time></trkpt><trkpt lat="45.739137" lon="12.7361741"><ele>-1.0</ele><time>2026-03-22T08:27:45.276Z</time></trkpt><trkpt lat="45.7392382" lon="12.7364268"><ele>-1.0</ele><time>2026-03-22T08:27:46.281Z</time></trkpt><trkpt lat="45.7393467" lon="12.7366731"><ele>-1.0</ele><time>2026-03-22T08:27:47.282Z</time></trkpt><trkpt lat="45.7394479" lon="12.7369237"><ele>-1.3333333333333333</ele><time>2026-03-22T08:27:48.273Z</time></trkpt><trkpt lat="45.7395411" lon="12.7371772"><ele>-1.6666666666666665</ele><time>2026-03-22T08:27:49.28Z</time></trkpt><trkpt lat="45.7396402" lon="12.7374231"><ele>-2.0</ele><time>2026-03-22T08:27:50.281Z</time></trkpt><trkpt lat="45.7397424" lon="12.7376645"><ele>-2.0</ele><time>2026-03-22T08:27:51.276Z</time></trkpt><trkpt lat="45.7398407" lon="12.7379073"><ele>-2.0</ele><time>2026-03-22T08:27:52.275Z</time></trkpt><trkpt lat="45.7399392" lon="12.7381481"><ele>-2.0</ele><time>2026-03-22T08:27:53.271Z</time></trkpt><trkpt lat="45.7400361" lon="12.7383898"><ele>-2.0</ele><time>2026-03-22T08:27:54.286Z</time></trkpt><trkpt lat="45.7401328" lon="12.7386317"><ele>-2.0</ele><time>2026-03-22T08:27:55.278Z</time></trkpt><trkpt lat="45.7402315" lon="12.7388758"><ele>-2.0</ele><time>2026-03-22T08:27:56.279Z</time></trkpt><trkpt lat="45.7403307" lon="12.7391226"><ele>-2.0</ele><time>2026-03-22T08:27:57.285Z</time></trkpt><trkpt lat="45.7404308" lon="12.7393703"><ele>-2.0</ele><time>2026-03-22T08:27:58.287Z</time></trkpt><trkpt lat="45.7405315" lon="12.7396196"><ele>-2.0</ele><time>2026-03-22T08:27:59.276Z</time></trkpt><trkpt lat="45.7406346" lon="12.739872"><ele>-2.0</ele><time>2026-03-22T08:28:00.292Z</time></trkpt><trkpt lat="45.7407335" lon="12.7401265"><ele>-2.0</ele><time>2026-03-22T08:28:01.288Z</time></trkpt><trkpt lat="45.740837" lon="12.7403802"><ele>-2.0</ele><time>2026-03-22T08:28:02.277Z</time></trkpt><trkpt lat="45.7409372" lon="12.7406398"><ele>-1.6666666666666665</ele><time>2026-03-22T08:28:03.268Z</time></trkpt><trkpt lat="45.7410368" lon="12.7409007"><ele>-1.3333333333333333</ele><time>2026-03-22T08:28:04.301Z</time></trkpt><trkpt lat="45.7411489" lon="12.7411611"><ele>-1.0</ele><time>2026-03-22T08:28:05.294Z</time></trkpt><trkpt lat="45.7412644" lon="12.7414241"><ele>-1.0</ele><time>2026-03-22T08:28:06.285Z</time></trkpt><trkpt lat="45.7413702" lon="12.7417017"><ele>-1.0</ele><time>2026-03-22T08:28:07.281Z</time></trkpt><trkpt lat="45.7414832" lon="12.7419736"><ele>-1.0</ele><time>2026-03-22T08:28:08.285Z</time></trkpt><trkpt lat="45.7415889" lon="12.7422521"><ele>-1.0</ele><time>2026-03-22T08:28:09.28Z</time></trkpt><trkpt lat="45.741699" lon="12.7425246"><ele>-1.0</ele><time>2026-03-22T08:28:10.273Z</time></trkpt><trkpt lat="45.7418108" lon="12.7427904"><ele>-1.0</ele><time>2026-03-22T08:28:11.277Z</time></trkpt><trkpt lat="45.74192" lon="12.7430528"><ele>-1.0</ele><time>2026-03-22T08:28:12.279Z</time></trkpt><trkpt lat="45.7420192" lon="12.74332"><ele>-1.0</ele><time>2026-03-22T08:28:13.284Z</time></trkpt><trkpt lat="45.7421264" lon="12.7435805"><ele>-1.0</ele><time>2026-03-22T08:28:14.28Z</time></trkpt><trkpt lat="45.742232" lon="12.743843"><ele>-1.0</ele><time>2026-03-22T08:28:15.274Z</time></trkpt><trkpt lat="45.7423375" lon="12.7441032"><ele>-1.0</ele><time>2026-03-22T08:28:16.273Z</time></trkpt><trkpt lat="45.7424428" lon="12.744359"><ele>-1.0</ele><time>2026-03-22T08:28:17.277Z</time></trkpt><trkpt lat="45.7425492" lon="12.7446104"><ele>-1.0</ele><time>2026-03-22T08:28:18.28Z</time></trkpt><trkpt lat="45.7426548" lon="12.7448581"><ele>-1.0</ele><time>2026-03-22T08:28:19.276Z</time></trkpt><trkpt lat="45.7427559" lon="12.7451064"><ele>-1.0</ele><time>2026-03-22T08:28:20.275Z</time></trkpt><trkpt lat="45.7428543" lon="12.7453556"><ele>-1.0</ele><time>2026-03-22T08:28:21.28Z</time></trkpt><trkpt lat="45.7429527" lon="12.7456049"><ele>-1.0</ele><time>2026-03-22T08:28:22.284Z</time></trkpt><trkpt lat="45.7430571" lon="12.7458496"><ele>-1.0</ele><time>2026-03-22T08:28:23.279Z</time></trkpt><trkpt lat="45.7431504" lon="12.7461038"><ele>-0.3333333333333333</ele><time>2026-03-22T08:28:24.272Z</time></trkpt><trkpt lat="45.7432594" lon="12.7463446"><ele>0.3333333333333333</ele><time>2026-03-22T08:28:25.286Z</time></trkpt><trkpt lat="45.7433559" lon="12.7465951"><ele>1.0</ele><time>2026-03-22T08:28:26.285Z</time></trkpt><trkpt lat="45.7434575" lon="12.7468408"><ele>0.3333333333333333</ele><time>2026-03-22T08:28:27.293Z</time></trkpt><trkpt lat="45.7435568" lon="12.7470887"><ele>-0.3333333333333333</ele><time>2026-03-22T08:28:28.281Z</time></trkpt><trkpt lat="45.7436592" lon="12.7473359"><ele>-1.0</ele><time>2026-03-22T08:28:29.305Z</time></trkpt><trkpt lat="45.7437577" lon="12.7475865"><ele>-0.6666666666666666</ele><time>2026-03-22T08:28:30.28Z</time></trkpt><trkpt lat="45.7438553" lon="12.7478371"><ele>-0.3333333333333333</ele><time>2026-03-22T08:28:31.286Z</time></trkpt><trkpt lat="45.743949" lon="12.7480878"><ele>0.0</ele><time>2026-03-22T08:28:32.297Z</time></trkpt><trkpt lat="45.744029" lon="12.7483487"><ele>0.0</ele><time>2026-03-22T08:28:33.279Z</time></trkpt><trkpt lat="45.7441053" lon="12.7486121"><ele>0.0</ele><time>2026-03-22T08:28:34.282Z</time></trkpt><trkpt lat="45.7441784" lon="12.748876"><ele>0.0</ele><time>2026-03-22T08:28:35.274Z</time></trkpt><trkpt lat="45.7442566" lon="12.7491371"><ele>0.3333333333333333</ele><time>2026-03-22T08:28:36.275Z</time></trkpt><trkpt lat="45.7443287" lon="12.749399"><ele>0.6666666666666666</ele><time>2026-03-22T08:28:37.281Z</time></trkpt><trkpt lat="45.7444015" lon="12.7496588"><ele>1.0</ele><time>2026-03-22T08:28:38.281Z</time></trkpt><trkpt lat="45.7444732" lon="12.7499176"><ele>1.0</ele><time>2026-03-22T08:28:39.27Z</time></trkpt><trkpt lat="45.7445512" lon="12.7501712"><ele>1.0</ele><time>2026-03-22T08:28:40.284Z</time></trkpt><trkpt lat="45.7446198" lon="12.7504297"><ele>1.0</ele><time>2026-03-22T08:28:41.292Z</time></trkpt><trkpt lat="45.7446907" lon="12.7506871"><ele>1.0</ele><time>2026-03-22T08:28:42.291Z</time></trkpt><trkpt lat="45.7447574" lon="12.750947"><ele>1.0</ele><time>2026-03-22T08:28:43.284Z</time></trkpt><trkpt lat="45.7448285" lon="12.7512044"><ele>1.0</ele><time>2026-03-22T08:28:44.279Z</time></trkpt><trkpt lat="45.7448992" lon="12.751462"><ele>1.0</ele><time>2026-03-22T08:28:45.282Z</time></trkpt><trkpt lat="45.7449706" lon="12.7517195"><ele>1.0</ele><time>2026-03-22T08:28:46.278Z</time></trkpt><trkpt lat="45.7450514" lon="12.7519736"><ele>1.0</ele><time>2026-03-22T08:28:47.279Z</time></trkpt><trkpt lat="45.7451286" lon="12.7522318"><ele>0.3333333333333333</ele><time>2026-03-22T08:28:48.286Z</time></trkpt><trkpt lat="45.745202" lon="12.7524944"><ele>-0.3333333333333333</ele><time>2026-03-22T08:28:49.278Z</time></trkpt><trkpt lat="45.7452754" lon="12.7527591"><ele>-1.0</ele><time>2026-03-22T08:28:50.281Z</time></trkpt><trkpt lat="45.7453474" lon="12.7530271"><ele>0.33333333333333337</ele><time>2026-03-22T08:28:51.293Z</time></trkpt><trkpt lat="45.7454183" lon="12.7532975"><ele>1.6666666666666667</ele><time>2026-03-22T08:28:52.287Z</time></trkpt><trkpt lat="45.7454934" lon="12.753566"><ele>3.0</ele><time>2026-03-22T08:28:53.299Z</time></trkpt><trkpt lat="45.7455692" lon="12.7538346"><ele>3.0</ele><time>2026-03-22T08:28:54.278Z</time></trkpt><trkpt lat="45.7456433" lon="12.7541039"><ele>3.0</ele><time>2026-03-22T08:28:55.282Z</time></trkpt><trkpt lat="45.7457128" lon="12.7543758"><ele>3.0</ele><time>2026-03-22T08:28:56.271Z</time></trkpt><trkpt lat="45.7457863" lon="12.7546457"><ele>2.6666666666666665</ele><time>2026-03-22T08:28:57.302Z</time></trkpt><trkpt lat="45.7458686" lon="12.7549096"><ele>2.333333333333333</ele><time>2026-03-22T08:28:58.282Z</time></trkpt><trkpt lat="45.7459448" lon="12.7551742"><ele>2.0</ele><time>2026-03-22T08:28:59.285Z</time></trkpt><trkpt lat="45.7460239" lon="12.7554333"><ele>1.0</ele><time>2026-03-22T08:29:00.29Z</time></trkpt><trkpt lat="45.7460979" lon="12.7556912"><ele>0.0</ele><time>2026-03-22T08:29:01.289Z</time></trkpt><trkpt lat="45.7461699" lon="12.7559467"><ele>-1.0</ele><time>2026-03-22T08:29:02.291Z</time></trkpt><trkpt lat="45.7462413" lon="12.7561985"><ele>-1.0</ele><time>2026-03-22T08:29:03.308Z</time></trkpt><trkpt lat="45.7463087" lon="12.7564464"><ele>-1.0</ele><time>2026-03-22T08:29:04.28Z</time></trkpt><trkpt lat="45.7463753" lon="12.7566843"><ele>-1.0</ele><time>2026-03-22T08:29:05.286Z</time></trkpt><trkpt lat="45.7464405" lon="12.7569103"><ele>0.0</ele><time>2026-03-22T08:29:06.301Z</time></trkpt><trkpt lat="45.7464979" lon="12.7571306"><ele>1.0</ele><time>2026-03-22T08:29:07.286Z</time></trkpt><trkpt lat="45.746548" lon="12.7573353"><ele>2.0</ele><time>2026-03-22T08:29:08.288Z</time></trkpt><trkpt lat="45.7465389" lon="12.7575368"><ele>2.2</ele><time>2026-03-22T08:29:09.285Z</time></trkpt><trkpt lat="45.7465385" lon="12.7577206"><ele>2.4000000000000004</ele><time>2026-03-22T08:29:10.279Z</time></trkpt><trkpt lat="45.7465257" lon="12.7578802"><ele>2.5999999999999996</ele><time>2026-03-22T08:29:11.31Z</time></trkpt><trkpt lat="45.7465036" lon="12.7580157"><ele>2.8</ele><time>2026-03-22T08:29:12.299Z</time></trkpt><trkpt lat="45.7464603" lon="12.7581282"><ele>3.0</ele><time>2026-03-22T08:29:13.288Z</time></trkpt><trkpt lat="45.7464069" lon="12.7582351"><ele>3.0</ele><time>2026-03-22T08:29:14.282Z</time></trkpt><trkpt lat="45.7463422" lon="12.7583393"><ele>3.0</ele><time>2026-03-22T08:29:15.275Z</time></trkpt><trkpt lat="45.7463066" lon="12.7584701"><ele>3.0</ele><time>2026-03-22T08:29:16.273Z</time></trkpt><trkpt lat="45.7462878" lon="12.7586084"><ele>3.0</ele><time>2026-03-22T08:29:17.277Z</time></trkpt><trkpt lat="45.746306" lon="12.7587453"><ele>3.0</ele><time>2026-03-22T08:29:18.29Z</time></trkpt><trkpt lat="45.7463729" lon="12.7588689"><ele>2.75</ele><time>2026-03-22T08:29:19.296Z</time></trkpt><trkpt lat="45.7464486" lon="12.7589911"><ele>2.5</ele><time>2026-03-22T08:29:20.293Z</time></trkpt><trkpt lat="45.7465332" lon="12.7591149"><ele>2.25</ele><time>2026-03-22T08:29:21.29Z</time></trkpt><trkpt lat="45.7466043" lon="12.759272"><ele>2.0</ele><time>2026-03-22T08:29:22.283Z</time></trkpt><trkpt lat="45.7466332" lon="12.7594798"><ele>2.0</ele><time>2026-03-22T08:29:23.281Z</time></trkpt><trkpt lat="45.7466517" lon="12.7596946"><ele>2.0</ele><time>2026-03-22T08:29:24.27Z</time></trkpt><trkpt lat="45.7466767" lon="12.7599114"><ele>2.0</ele><time>2026-03-22T08:29:25.301Z</time></trkpt><trkpt lat="45.7467181" lon="12.7601269"><ele>2.0</ele><time>2026-03-22T08:29:26.286Z</time></trkpt><trkpt lat="45.7467711" lon="12.7603394"><ele>2.0</ele><time>2026-03-22T08:29:27.278Z</time></trkpt><trkpt lat="45.746828" lon="12.7605596"><ele>2.0</ele><time>2026-03-22T08:29:28.278Z</time></trkpt><trkpt lat="45.746874" lon="12.7607983"><ele>1.3333333333333333</ele><time>2026-03-22T08:29:29.271Z</time></trkpt><trkpt lat="45.7468918" lon="12.7610615"><ele>0.6666666666666666</ele><time>2026-03-22T08:29:30.273Z</time></trkpt><trkpt lat="45.7468897" lon="12.7613337"><ele>0.0</ele><time>2026-03-22T08:29:31.287Z</time></trkpt><trkpt lat="45.7468919" lon="12.761604"><ele>-0.3333333333333333</ele><time>2026-03-22T08:29:32.281Z</time></trkpt><trkpt lat="45.7468928" lon="12.761872"><ele>-0.6666666666666666</ele><time>2026-03-22T08:29:33.296Z</time></trkpt><trkpt lat="45.7468885" lon="12.7621373"><ele>-1.0</ele><time>2026-03-22T08:29:34.295Z</time></trkpt><trkpt lat="45.7468811" lon="12.7623998"><ele>-1.0</ele><time>2026-03-22T08:29:35.287Z</time></trkpt><trkpt lat="45.7468782" lon="12.7626593"><ele>-1.0</ele><time>2026-03-22T08:29:36.298Z</time></trkpt><trkpt lat="45.7468788" lon="12.7629189"><ele>-1.0</ele><time>2026-03-22T08:29:37.271Z</time></trkpt><trkpt lat="45.7468777" lon="12.7631812"><ele>-0.6666666666666666</ele><time>2026-03-22T08:29:38.287Z</time></trkpt><trkpt lat="45.7468724" lon="12.7634475"><ele>-0.3333333333333333</ele><time>2026-03-22T08:29:39.288Z</time></trkpt><trkpt lat="45.7468707" lon="12.7637168"><ele>0.0</ele><time>2026-03-22T08:29:40.287Z</time></trkpt><trkpt lat="45.7468719" lon="12.7639875"><ele>0.0</ele><time>2026-03-22T08:29:41.288Z</time></trkpt><trkpt lat="45.7468714" lon="12.7642538"><ele>0.0</ele><time>2026-03-22T08:29:42.291Z</time></trkpt><trkpt lat="45.7468659" lon="12.7645136"><ele>0.0</ele><time>2026-03-22T08:29:43.281Z</time></trkpt><trkpt lat="45.7468674" lon="12.764766"><ele>0.0</ele><time>2026-03-22T08:29:44.289Z</time></trkpt><trkpt lat="45.7468662" lon="12.7650128"><ele>0.0</ele><time>2026-03-22T08:29:45.29Z</time></trkpt><trkpt lat="45.7468641" lon="12.7652578"><ele>0.0</ele><time>2026-03-22T08:29:46.296Z</time></trkpt><trkpt lat="45.7468595" lon="12.7655063"><ele>0.0</ele><time>2026-03-22T08:29:47.276Z</time></trkpt><trkpt lat="45.7468618" lon="12.7657594"><ele>0.0</ele><time>2026-03-22T08:29:48.284Z</time></trkpt><trkpt lat="45.7468591" lon="12.7660181"><ele>0.0</ele><time>2026-03-22T08:29:49.295Z</time></trkpt><trkpt lat="45.7468519" lon="12.7662815"><ele>0.0</ele><time>2026-03-22T08:29:50.274Z</time></trkpt><trkpt lat="45.7468458" lon="12.7665493"><ele>0.0</ele><time>2026-03-22T08:29:51.282Z</time></trkpt><trkpt lat="45.74683" lon="12.7668212"><ele>0.0</ele><time>2026-03-22T08:29:52.28Z</time></trkpt><trkpt lat="45.7468204" lon="12.7670967"><ele>0.6666666666666666</ele><time>2026-03-22T08:29:53.287Z</time></trkpt><trkpt lat="45.746807" lon="12.7673793"><ele>1.3333333333333333</ele><time>2026-03-22T08:29:54.286Z</time></trkpt><trkpt lat="45.7467954" lon="12.7676681"><ele>2.0</ele><time>2026-03-22T08:29:55.289Z</time></trkpt><trkpt lat="45.7467818" lon="12.7679593"><ele>2.333333333333333</ele><time>2026-03-22T08:29:56.289Z</time></trkpt><trkpt lat="45.746769" lon="12.7682524"><ele>2.6666666666666665</ele><time>2026-03-22T08:29:57.286Z</time></trkpt><trkpt lat="45.7467548" lon="12.7685455"><ele>3.0</ele><time>2026-03-22T08:29:58.282Z</time></trkpt><trkpt lat="45.7467403" lon="12.7688377"><ele>3.0</ele><time>2026-03-22T08:29:59.292Z</time></trkpt><trkpt lat="45.7467326" lon="12.7691295"><ele>3.0</ele><time>2026-03-22T08:30:00.279Z</time></trkpt><trkpt lat="45.7467377" lon="12.7694212"><ele>3.0</ele><time>2026-03-22T08:30:01.301Z</time></trkpt><trkpt lat="45.7467494" lon="12.7697162"><ele>3.0</ele><time>2026-03-22T08:30:02.29Z</time></trkpt><trkpt lat="45.7467895" lon="12.7700113"><ele>3.0</ele><time>2026-03-22T08:30:03.291Z</time></trkpt><trkpt lat="45.7468394" lon="12.7703036"><ele>3.0</ele><time>2026-03-22T08:30:04.302Z</time></trkpt><trkpt lat="45.746909" lon="12.7705897"><ele>3.0</ele><time>2026-03-22T08:30:05.295Z</time></trkpt><trkpt lat="45.7469736" lon="12.7708791"><ele>3.0</ele><time>2026-03-22T08:30:06.282Z</time></trkpt><trkpt lat="45.7470535" lon="12.7711644"><ele>3.0</ele><time>2026-03-22T08:30:07.267Z</time></trkpt><trkpt lat="45.7471477" lon="12.7714438"><ele>2.0</ele><time>2026-03-22T08:30:08.28Z</time></trkpt><trkpt lat="45.7472455" lon="12.7717212"><ele>1.0</ele><time>2026-03-22T08:30:09.294Z</time></trkpt><trkpt lat="45.7473385" lon="12.7719992"><ele>0.0</ele><time>2026-03-22T08:30:10.275Z</time></trkpt><trkpt lat="45.74743" lon="12.7722752"><ele>0.0</ele><time>2026-03-22T08:30:11.285Z</time></trkpt><trkpt lat="45.7475226" lon="12.7725486"><ele>0.0</ele><time>2026-03-22T08:30:12.29Z</time></trkpt><trkpt lat="45.7476147" lon="12.772819"><ele>0.0</ele><time>2026-03-22T08:30:13.29Z</time></trkpt><trkpt lat="45.7477053" lon="12.7730866"><ele>-0.3333333333333333</ele><time>2026-03-22T08:30:14.286Z</time></trkpt><trkpt lat="45.7478055" lon="12.7733457"><ele>-0.6666666666666666</ele><time>2026-03-22T08:30:15.292Z</time></trkpt><trkpt lat="45.7478992" lon="12.7736081"><ele>-1.0</ele><time>2026-03-22T08:30:16.281Z</time></trkpt><trkpt lat="45.7479794" lon="12.773879"><ele>-1.0</ele><time>2026-03-22T08:30:17.299Z</time></trkpt><trkpt lat="45.7480658" lon="12.7741421"><ele>-1.0</ele><time>2026-03-22T08:30:18.286Z</time></trkpt><trkpt lat="45.7481479" lon="12.7744045"><ele>-1.0</ele><time>2026-03-22T08:30:19.27Z</time></trkpt><trkpt lat="45.7482277" lon="12.7746648"><ele>-1.0</ele><time>2026-03-22T08:30:20.276Z</time></trkpt><trkpt lat="45.7482959" lon="12.7749304"><ele>-1.0</ele><time>2026-03-22T08:30:21.281Z</time></trkpt><trkpt lat="45.7483451" lon="12.7752041"><ele>-1.0</ele><time>2026-03-22T08:30:22.296Z</time></trkpt><trkpt lat="45.7484001" lon="12.7754776"><ele>-1.0</ele><time>2026-03-22T08:30:23.278Z</time></trkpt><trkpt lat="45.7484509" lon="12.7757533"><ele>-1.0</ele><time>2026-03-22T08:30:24.29Z</time></trkpt><trkpt lat="45.7485048" lon="12.7760247"><ele>-1.0</ele><time>2026-03-22T08:30:25.277Z</time></trkpt><trkpt lat="45.7485585" lon="12.7762937"><ele>-1.0</ele><time>2026-03-22T08:30:26.267Z</time></trkpt><trkpt lat="45.7486073" lon="12.7765617"><ele>-1.0</ele><time>2026-03-22T08:30:27.278Z</time></trkpt><trkpt lat="45.7486526" lon="12.7768273"><ele>-1.0</ele><time>2026-03-22T08:30:28.274Z</time></trkpt><trkpt lat="45.7486988" lon="12.7770878"><ele>-0.6666666666666666</ele><time>2026-03-22T08:30:29.285Z</time></trkpt><trkpt lat="45.748744" lon="12.7773465"><ele>-0.3333333333333333</ele><time>2026-03-22T08:30:30.275Z</time></trkpt><trkpt lat="45.7487885" lon="12.7776036"><ele>0.0</ele><time>2026-03-22T08:30:31.276Z</time></trkpt><trkpt lat="45.7488339" lon="12.7778597"><ele>0.3333333333333333</ele><time>2026-03-22T08:30:32.263Z</time></trkpt><trkpt lat="45.7488801" lon="12.7781149"><ele>0.6666666666666666</ele><time>2026-03-22T08:30:33.287Z</time></trkpt><trkpt lat="45.7489261" lon="12.7783706"><ele>1.0</ele><time>2026-03-22T08:30:34.279Z</time></trkpt><trkpt lat="45.7489677" lon="12.7786313"><ele>1.0</ele><time>2026-03-22T08:30:35.273Z</time></trkpt><trkpt lat="45.7490111" lon="12.7788949"><ele>1.0</ele><time>2026-03-22T08:30:36.28Z</time></trkpt><trkpt lat="45.7490544" lon="12.7791617"><ele>1.0</ele><time>2026-03-22T08:30:37.279Z</time></trkpt><trkpt lat="45.7490985" lon="12.7794313"><ele>0.6666666666666666</ele><time>2026-03-22T08:30:38.275Z</time></trkpt><trkpt lat="45.7491446" lon="12.7797018"><ele>0.3333333333333333</ele><time>2026-03-22T08:30:39.285Z</time></trkpt><trkpt lat="45.7491937" lon="12.7799697"><ele>0.0</ele><time>2026-03-22T08:30:40.278Z</time></trkpt><trkpt lat="45.7492409" lon="12.7802367"><ele>0.0</ele><time>2026-03-22T08:30:41.28Z</time></trkpt><trkpt lat="45.7492873" lon="12.7805031"><ele>0.0</ele><time>2026-03-22T08:30:42.277Z</time></trkpt><trkpt lat="45.7493313" lon="12.7807704"><ele>0.0</ele><time>2026-03-22T08:30:43.283Z</time></trkpt><trkpt lat="45.7493773" lon="12.7810382"><ele>0.0</ele><time>2026-03-22T08:30:44.273Z</time></trkpt><trkpt lat="45.7494241" lon="12.781306"><ele>0.0</ele><time>2026-03-22T08:30:45.273Z</time></trkpt><trkpt lat="45.7494692" lon="12.7815744"><ele>0.0</ele><time>2026-03-22T08:30:46.272Z</time></trkpt><trkpt lat="45.7495096" lon="12.7818465"><ele>-0.3333333333333333</ele><time>2026-03-22T08:30:47.272Z</time></trkpt><trkpt lat="45.7495651" lon="12.7821156"><ele>-0.6666666666666666</ele><time>2026-03-22T08:30:48.276Z</time></trkpt><trkpt lat="45.7496186" lon="12.7823878"><ele>-1.0</ele><time>2026-03-22T08:30:49.274Z</time></trkpt><trkpt lat="45.7496813" lon="12.7826571"><ele>-1.3333333333333333</ele><time>2026-03-22T08:30:50.284Z</time></trkpt><trkpt lat="45.7497485" lon="12.7829244"><ele>-1.6666666666666665</ele><time>2026-03-22T08:30:51.278Z</time></trkpt><trkpt lat="45.7498194" lon="12.7831878"><ele>-2.0</ele><time>2026-03-22T08:30:52.293Z</time></trkpt><trkpt lat="45.7499043" lon="12.7834404"><ele>-2.0</ele><time>2026-03-22T08:30:53.268Z</time></trkpt><trkpt lat="45.749996" lon="12.7836857"><ele>-2.0</ele><time>2026-03-22T08:30:54.272Z</time></trkpt><trkpt lat="45.7500985" lon="12.783921"><ele>-2.0</ele><time>2026-03-22T08:30:55.277Z</time></trkpt><trkpt lat="45.7502109" lon="12.7841468"><ele>-1.6666666666666665</ele><time>2026-03-22T08:30:56.316Z</time></trkpt><trkpt lat="45.7503437" lon="12.7843498"><ele>-1.3333333333333333</ele><time>2026-03-22T08:30:57.279Z</time></trkpt><trkpt lat="45.7504835" lon="12.7845414"><ele>-1.0</ele><time>2026-03-22T08:30:58.275Z</time></trkpt><trkpt lat="45.7506293" lon="12.7847213"><ele>-1.0</ele><time>2026-03-22T08:30:59.279Z</time></trkpt><trkpt lat="45.7507808" lon="12.7848899"><ele>-1.0</ele><time>2026-03-22T08:31:00.276Z</time></trkpt><trkpt lat="45.7509407" lon="12.7850415"><ele>-1.0</ele><time>2026-03-22T08:31:01.284Z</time></trkpt><trkpt lat="45.7510908" lon="12.7852089"><ele>-1.0</ele><time>2026-03-22T08:31:02.283Z</time></trkpt><trkpt lat="45.7512366" lon="12.7853798"><ele>-1.0</ele><time>2026-03-22T08:31:03.277Z</time></trkpt><trkpt lat="45.7513831" lon="12.7855446"><ele>-1.0</ele><time>2026-03-22T08:31:04.279Z</time></trkpt><trkpt lat="45.7515275" lon="12.785708"><ele>-1.0</ele><time>2026-03-22T08:31:05.283Z</time></trkpt><trkpt lat="45.7516715" lon="12.785867"><ele>-1.0</ele><time>2026-03-22T08:31:06.273Z</time></trkpt><trkpt lat="45.7518131" lon="12.7860266"><ele>-1.0</ele><time>2026-03-22T08:31:07.27Z</time></trkpt><trkpt lat="45.7519538" lon="12.7861879"><ele>-0.5</ele><time>2026-03-22T08:31:08.397Z</time></trkpt><trkpt lat="45.7522339" lon="12.7865122"><ele>0.0</ele><time>2026-03-22T08:31:10.264Z</time></trkpt><trkpt lat="45.7523705" lon="12.7866786"><ele>0.6666666666666666</ele><time>2026-03-22T08:31:11.295Z</time></trkpt><trkpt lat="45.7525044" lon="12.786848"><ele>1.3333333333333333</ele><time>2026-03-22T08:31:12.285Z</time></trkpt><trkpt lat="45.7526463" lon="12.7870052"><ele>2.0</ele><time>2026-03-22T08:31:13.261Z</time></trkpt><trkpt lat="45.7527902" lon="12.7871588"><ele>2.0</ele><time>2026-03-22T08:31:14.274Z</time></trkpt><trkpt lat="45.7529192" lon="12.7873377"><ele>2.0</ele><time>2026-03-22T08:31:15.27Z</time></trkpt><trkpt lat="45.7530557" lon="12.7875077"><ele>2.0</ele><time>2026-03-22T08:31:16.263Z</time></trkpt><trkpt lat="45.7531983" lon="12.7876709"><ele>2.0</ele><time>2026-03-22T08:31:17.261Z</time></trkpt><trkpt lat="45.7533391" lon="12.7878386"><ele>2.0</ele><time>2026-03-22T08:31:18.259Z</time></trkpt><trkpt lat="45.7534791" lon="12.7880108"><ele>2.0</ele><time>2026-03-22T08:31:19.282Z</time></trkpt><trkpt lat="45.7536161" lon="12.7881939"><ele>2.0</ele><time>2026-03-22T08:31:20.271Z</time></trkpt><trkpt lat="45.753745" lon="12.7883934"><ele>2.0</ele><time>2026-03-22T08:31:21.279Z</time></trkpt><trkpt lat="45.7538661" lon="12.7886066"><ele>2.0</ele><time>2026-03-22T08:31:22.265Z</time></trkpt><trkpt lat="45.7539805" lon="12.7888285"><ele>2.0</ele><time>2026-03-22T08:31:23.283Z</time></trkpt><trkpt lat="45.7540857" lon="12.789057"><ele>2.0</ele><time>2026-03-22T08:31:24.27Z</time></trkpt><trkpt lat="45.7541838" lon="12.7892873"><ele>2.0</ele><time>2026-03-22T08:31:25.267Z</time></trkpt><trkpt lat="45.7542612" lon="12.7895299"><ele>2.0</ele><time>2026-03-22T08:31:26.261Z</time></trkpt><trkpt lat="45.7543278" lon="12.7897781"><ele>2.0</ele><time>2026-03-22T08:31:27.271Z</time></trkpt><trkpt lat="45.7543805" lon="12.7900384"><ele>2.0</ele><time>2026-03-22T08:31:28.271Z</time></trkpt><trkpt lat="45.754421" lon="12.7903104"><ele>1.3333333333333333</ele><time>2026-03-22T08:31:29.268Z</time></trkpt><trkpt lat="45.7544731" lon="12.7905807"><ele>0.6666666666666666</ele><time>2026-03-22T08:31:30.271Z</time></trkpt><trkpt lat="45.7545211" lon="12.7908556"><ele>0.0</ele><time>2026-03-22T08:31:31.272Z</time></trkpt><trkpt lat="45.7545669" lon="12.7911328"><ele>-0.6666666666666666</ele><time>2026-03-22T08:31:32.266Z</time></trkpt><trkpt lat="45.7546106" lon="12.7914119"><ele>-1.3333333333333333</ele><time>2026-03-22T08:31:33.275Z</time></trkpt><trkpt lat="45.7546636" lon="12.7916862"><ele>-2.0</ele><time>2026-03-22T08:31:34.267Z</time></trkpt><trkpt lat="45.7547116" lon="12.791962"><ele>-2.0</ele><time>2026-03-22T08:31:35.267Z</time></trkpt><trkpt lat="45.7547617" lon="12.7922361"><ele>-2.0</ele><time>2026-03-22T08:31:36.267Z</time></trkpt><trkpt lat="45.7548057" lon="12.7925117"><ele>-2.0</ele><time>2026-03-22T08:31:37.268Z</time></trkpt><trkpt lat="45.7548535" lon="12.7927845"><ele>-1.3333333333333333</ele><time>2026-03-22T08:31:38.295Z</time></trkpt><trkpt lat="45.7548979" lon="12.7930566"><ele>-0.6666666666666666</ele><time>2026-03-22T08:31:39.268Z</time></trkpt><trkpt lat="45.754944" lon="12.7933248"><ele>0.0</ele><time>2026-03-22T08:31:40.282Z</time></trkpt><trkpt lat="45.7549874" lon="12.7935932"><ele>0.0</ele><time>2026-03-22T08:31:41.285Z</time></trkpt><trkpt lat="45.7550355" lon="12.7938591"><ele>0.0</ele><time>2026-03-22T08:31:42.298Z</time></trkpt><trkpt lat="45.7550832" lon="12.7941235"><ele>0.0</ele><time>2026-03-22T08:31:43.307Z</time></trkpt><trkpt lat="45.7551274" lon="12.7943885"><ele>0.0</ele><time>2026-03-22T08:31:44.289Z</time></trkpt><trkpt lat="45.7551744" lon="12.7946525"><ele>0.0</ele><time>2026-03-22T08:31:45.309Z</time></trkpt><trkpt lat="45.7552188" lon="12.7949175"><ele>0.0</ele><time>2026-03-22T08:31:46.287Z</time></trkpt><trkpt lat="45.7552641" lon="12.7951817"><ele>0.0</ele><time>2026-03-22T08:31:47.278Z</time></trkpt><trkpt lat="45.7553135" lon="12.7954441"><ele>0.0</ele><time>2026-03-22T08:31:48.279Z</time></trkpt><trkpt lat="45.755356" lon="12.7957096"><ele>0.0</ele><time>2026-03-22T08:31:49.281Z</time></trkpt><trkpt lat="45.7554019" lon="12.7959744"><ele>0.3333333333333333</ele><time>2026-03-22T08:31:50.28Z</time></trkpt><trkpt lat="45.7554446" lon="12.7962405"><ele>0.6666666666666666</ele><time>2026-03-22T08:31:51.289Z</time></trkpt><trkpt lat="45.7554898" lon="12.7965076"><ele>1.0</ele><time>2026-03-22T08:31:52.274Z</time></trkpt><trkpt lat="45.7555349" lon="12.7967781"><ele>1.3333333333333333</ele><time>2026-03-22T08:31:53.289Z</time></trkpt><trkpt lat="45.7555862" lon="12.7970479"><ele>1.6666666666666665</ele><time>2026-03-22T08:31:54.29Z</time></trkpt><trkpt lat="45.7556299" lon="12.7973209"><ele>2.0</ele><time>2026-03-22T08:31:55.289Z</time></trkpt><trkpt lat="45.7556788" lon="12.7975921"><ele>2.0</ele><time>2026-03-22T08:31:56.286Z</time></trkpt><trkpt lat="45.7557284" lon="12.7978635"><ele>2.0</ele><time>2026-03-22T08:31:57.286Z</time></trkpt><trkpt lat="45.7557735" lon="12.7981373"><ele>2.0</ele><time>2026-03-22T08:31:58.294Z</time></trkpt><trkpt lat="45.7558236" lon="12.7984089"><ele>2.0</ele><time>2026-03-22T08:31:59.298Z</time></trkpt><trkpt lat="45.7558682" lon="12.7986824"><ele>2.0</ele><time>2026-03-22T08:32:00.287Z</time></trkpt><trkpt lat="45.7559118" lon="12.7989546"><ele>2.0</ele><time>2026-03-22T08:32:01.289Z</time></trkpt><trkpt lat="45.7559576" lon="12.7992236"><ele>2.0</ele><time>2026-03-22T08:32:02.286Z</time></trkpt><trkpt lat="45.7560006" lon="12.799493"><ele>2.0</ele><time>2026-03-22T08:32:03.294Z</time></trkpt><trkpt lat="45.7560552" lon="12.7997571"><ele>2.0</ele><time>2026-03-22T08:32:04.279Z</time></trkpt><trkpt lat="45.7560983" lon="12.8000253"><ele>2.6666666666666665</ele><time>2026-03-22T08:32:05.327Z</time></trkpt><trkpt lat="45.7561452" lon="12.8002917"><ele>3.333333333333333</ele><time>2026-03-22T08:32:06.288Z</time></trkpt><trkpt lat="45.7561951" lon="12.800558"><ele>4.0</ele><time>2026-03-22T08:32:07.318Z</time></trkpt><trkpt lat="45.7562474" lon="12.8008244"><ele>3.6666666666666665</ele><time>2026-03-22T08:32:08.285Z</time></trkpt><trkpt lat="45.7562931" lon="12.8010941"><ele>3.333333333333333</ele><time>2026-03-22T08:32:09.292Z</time></trkpt><trkpt lat="45.7563371" lon="12.8013659"><ele>3.0</ele><time>2026-03-22T08:32:10.288Z</time></trkpt><trkpt lat="45.7563789" lon="12.8016388"><ele>3.0</ele><time>2026-03-22T08:32:11.285Z</time></trkpt><trkpt lat="45.7564249" lon="12.8019076"><ele>3.0</ele><time>2026-03-22T08:32:12.283Z</time></trkpt><trkpt lat="45.7564767" lon="12.8021709"><ele>3.0</ele><time>2026-03-22T08:32:13.285Z</time></trkpt><trkpt lat="45.7565266" lon="12.8024258"><ele>2.3333333333333335</ele><time>2026-03-22T08:32:14.3Z</time></trkpt><trkpt lat="45.7565753" lon="12.80267"><ele>1.6666666666666665</ele><time>2026-03-22T08:32:15.304Z</time></trkpt><trkpt lat="45.7566211" lon="12.80291"><ele>1.0</ele><time>2026-03-22T08:32:16.298Z</time></trkpt><trkpt lat="45.756664" lon="12.8031493"><ele>1.0</ele><time>2026-03-22T08:32:17.293Z</time></trkpt><trkpt lat="45.7567111" lon="12.8033878"><ele>1.0</ele><time>2026-03-22T08:32:18.295Z</time></trkpt><trkpt lat="45.7567533" lon="12.8036307"><ele>1.0</ele><time>2026-03-22T08:32:19.306Z</time></trkpt><trkpt lat="45.7567994" lon="12.8038755"><ele>1.0</ele><time>2026-03-22T08:32:20.289Z</time></trkpt><trkpt lat="45.7568499" lon="12.804121"><ele>1.0</ele><time>2026-03-22T08:32:21.297Z</time></trkpt><trkpt lat="45.7568968" lon="12.8043694"><ele>1.0</ele><time>2026-03-22T08:32:22.283Z</time></trkpt><trkpt lat="45.7569435" lon="12.8046192"><ele>1.0</ele><time>2026-03-22T08:32:23.29Z</time></trkpt><trkpt lat="45.7569986" lon="12.8048657"><ele>1.0</ele><time>2026-03-22T08:32:24.29Z</time></trkpt><trkpt lat="45.7570451" lon="12.8051168"><ele>1.0</ele><time>2026-03-22T08:32:25.295Z</time></trkpt><trkpt lat="45.7570898" lon="12.8053687"><ele>1.3333333333333333</ele><time>2026-03-22T08:32:26.284Z</time></trkpt><trkpt lat="45.7571384" lon="12.8056193"><ele>1.6666666666666665</ele><time>2026-03-22T08:32:27.298Z</time></trkpt><trkpt lat="45.75719" lon="12.8058691"><ele>2.0</ele><time>2026-03-22T08:32:28.286Z</time></trkpt><trkpt lat="45.757237" lon="12.8061227"><ele>2.0</ele><time>2026-03-22T08:32:29.31Z</time></trkpt><trkpt lat="45.757287" lon="12.8063748"><ele>2.0</ele><time>2026-03-22T08:32:30.285Z</time></trkpt><trkpt lat="45.7573364" lon="12.8066269"><ele>2.0</ele><time>2026-03-22T08:32:31.282Z</time></trkpt><trkpt lat="45.7573839" lon="12.8068794"><ele>2.0</ele><time>2026-03-22T08:32:32.285Z</time></trkpt><trkpt lat="45.7574356" lon="12.8071295"><ele>2.0</ele><time>2026-03-22T08:32:33.295Z</time></trkpt><trkpt lat="45.7574852" lon="12.8073794"><ele>2.0</ele><time>2026-03-22T08:32:34.283Z</time></trkpt><trkpt lat="45.7575323" lon="12.8076302"><ele>1.6666666666666665</ele><time>2026-03-22T08:32:35.282Z</time></trkpt><trkpt lat="45.7575757" lon="12.8078827"><ele>1.3333333333333333</ele><time>2026-03-22T08:32:36.288Z</time></trkpt><trkpt lat="45.7576375" lon="12.8081268"><ele>1.0</ele><time>2026-03-22T08:32:37.282Z</time></trkpt><trkpt lat="45.7576915" lon="12.8083735"><ele>0.6666666666666666</ele><time>2026-03-22T08:32:38.287Z</time></trkpt><trkpt lat="45.7577427" lon="12.8086214"><ele>0.3333333333333333</ele><time>2026-03-22T08:32:39.293Z</time></trkpt><trkpt lat="45.7578016" lon="12.8088668"><ele>0.0</ele><time>2026-03-22T08:32:40.303Z</time></trkpt><trkpt lat="45.7578564" lon="12.8091132"><ele>0.6666666666666666</ele><time>2026-03-22T08:32:41.309Z</time></trkpt><trkpt lat="45.7578979" lon="12.8093647"><ele>1.3333333333333333</ele><time>2026-03-22T08:32:42.276Z</time></trkpt><trkpt lat="45.7579474" lon="12.8096123"><ele>2.0</ele><time>2026-03-22T08:32:43.271Z</time></trkpt><trkpt lat="45.7579986" lon="12.8098585"><ele>2.0</ele><time>2026-03-22T08:32:44.27Z</time></trkpt><trkpt lat="45.7580613" lon="12.8100963"><ele>2.0</ele><time>2026-03-22T08:32:45.276Z</time></trkpt><trkpt lat="45.7581377" lon="12.8103157"><ele>2.0</ele><time>2026-03-22T08:32:46.283Z</time></trkpt><trkpt lat="45.7582232" lon="12.8105167"><ele>2.6666666666666665</ele><time>2026-03-22T08:32:47.299Z</time></trkpt><trkpt lat="45.7583428" lon="12.8106785"><ele>3.333333333333333</ele><time>2026-03-22T08:32:48.273Z</time></trkpt><trkpt lat="45.7584814" lon="12.8108089"><ele>4.0</ele><time>2026-03-22T08:32:49.282Z</time></trkpt><trkpt lat="45.7586487" lon="12.8108818"><ele>4.666666666666666</ele><time>2026-03-22T08:32:50.273Z</time></trkpt><trkpt lat="45.7588254" lon="12.8109121"><ele>5.333333333333333</ele><time>2026-03-22T08:32:51.275Z</time></trkpt><trkpt lat="45.7590098" lon="12.8109005"><ele>6.0</ele><time>2026-03-22T08:32:52.267Z</time></trkpt><trkpt lat="45.7591984" lon="12.8108759"><ele>6.0</ele><time>2026-03-22T08:32:53.272Z</time></trkpt><trkpt lat="45.7593918" lon="12.8108412"><ele>6.0</ele><time>2026-03-22T08:32:54.273Z</time></trkpt><trkpt lat="45.7595899" lon="12.8108126"><ele>6.0</ele><time>2026-03-22T08:32:55.271Z</time></trkpt><trkpt lat="45.7597907" lon="12.8107787"><ele>6.0</ele><time>2026-03-22T08:32:56.257Z</time></trkpt><trkpt lat="45.7599922" lon="12.8107468"><ele>6.0</ele><time>2026-03-22T08:32:57.294Z</time></trkpt><trkpt lat="45.7601953" lon="12.810714"><ele>6.0</ele><time>2026-03-22T08:32:58.279Z</time></trkpt><trkpt lat="45.7604008" lon="12.8106779"><ele>5.333333333333333</ele><time>2026-03-22T08:32:59.267Z</time></trkpt><trkpt lat="45.7606085" lon="12.8106341"><ele>4.666666666666666</ele><time>2026-03-22T08:33:00.287Z</time></trkpt><trkpt lat="45.760818" lon="12.8105966"><ele>4.0</ele><time>2026-03-22T08:33:01.268Z</time></trkpt><trkpt lat="45.7610286" lon="12.8105635"><ele>3.6666666666666665</ele><time>2026-03-22T08:33:02.29Z</time></trkpt><trkpt lat="45.7612397" lon="12.8105261"><ele>3.333333333333333</ele><time>2026-03-22T08:33:03.27Z</time></trkpt><trkpt lat="45.7614492" lon="12.8104892"><ele>3.0</ele><time>2026-03-22T08:33:04.28Z</time></trkpt><trkpt lat="45.7616561" lon="12.81045"><ele>3.0</ele><time>2026-03-22T08:33:05.269Z</time></trkpt><trkpt lat="45.761858" lon="12.8104132"><ele>3.0</ele><time>2026-03-22T08:33:06.277Z</time></trkpt><trkpt lat="45.7620542" lon="12.810374"><ele>3.0</ele><time>2026-03-22T08:33:07.296Z</time></trkpt><trkpt lat="45.762241" lon="12.8103362"><ele>2.6666666666666665</ele><time>2026-03-22T08:33:08.291Z</time></trkpt><trkpt lat="45.7624155" lon="12.8103036"><ele>2.333333333333333</ele><time>2026-03-22T08:33:09.274Z</time></trkpt><trkpt lat="45.7625776" lon="12.810276"><ele>2.0</ele><time>2026-03-22T08:33:10.27Z</time></trkpt><trkpt lat="45.7627274" lon="12.8102493"><ele>2.0</ele><time>2026-03-22T08:33:11.282Z</time></trkpt><trkpt lat="45.7628666" lon="12.8102248"><ele>2.0</ele><time>2026-03-22T08:33:12.279Z</time></trkpt><trkpt lat="45.7630001" lon="12.8102114"><ele>2.0</ele><time>2026-03-22T08:33:13.271Z</time></trkpt><trkpt lat="45.7631316" lon="12.8102092"><ele>2.0</ele><time>2026-03-22T08:33:14.263Z</time></trkpt><trkpt lat="45.7632587" lon="12.8102459"><ele>2.0</ele><time>2026-03-22T08:33:15.286Z</time></trkpt><trkpt lat="45.7633806" lon="12.8103135"><ele>2.0</ele><time>2026-03-22T08:33:16.274Z</time></trkpt><trkpt lat="45.7634925" lon="12.8104083"><ele>2.0</ele><time>2026-03-22T08:33:17.295Z</time></trkpt><trkpt lat="45.7635951" lon="12.8105126"><ele>2.0</ele><time>2026-03-22T08:33:18.267Z</time></trkpt><trkpt lat="45.7637058" lon="12.8105824"><ele>2.25</ele><time>2026-03-22T08:33:19.279Z</time></trkpt><trkpt lat="45.7638237" lon="12.8106038"><ele>2.5</ele><time>2026-03-22T08:33:20.266Z</time></trkpt><trkpt lat="45.7639437" lon="12.8105934"><ele>2.75</ele><time>2026-03-22T08:33:21.297Z</time></trkpt><trkpt lat="45.7640575" lon="12.8105069"><ele>3.0</ele><time>2026-03-22T08:33:22.282Z</time></trkpt><trkpt lat="45.7641608" lon="12.8103932"><ele>3.0</ele><time>2026-03-22T08:33:23.284Z</time></trkpt><trkpt lat="45.7642553" lon="12.8102496"><ele>3.0</ele><time>2026-03-22T08:33:24.279Z</time></trkpt><trkpt lat="45.7643562" lon="12.8101077"><ele>3.0</ele><time>2026-03-22T08:33:25.288Z</time></trkpt><trkpt lat="45.7644887" lon="12.8100086"><ele>3.0</ele><time>2026-03-22T08:33:26.266Z</time></trkpt><trkpt lat="45.7646416" lon="12.8099344"><ele>3.333333333333333</ele><time>2026-03-22T08:33:27.282Z</time></trkpt><trkpt lat="45.7648134" lon="12.8098848"><ele>3.6666666666666665</ele><time>2026-03-22T08:33:28.284Z</time></trkpt><trkpt lat="45.7650054" lon="12.8098603"><ele>4.0</ele><time>2026-03-22T08:33:29.276Z</time></trkpt><trkpt lat="45.7652129" lon="12.8098385"><ele>4.0</ele><time>2026-03-22T08:33:30.277Z</time></trkpt><trkpt lat="45.7654274" lon="12.8098242"><ele>4.0</ele><time>2026-03-22T08:33:31.274Z</time></trkpt><trkpt lat="45.7656469" lon="12.8098215"><ele>4.0</ele><time>2026-03-22T08:33:32.267Z</time></trkpt><trkpt lat="45.7658679" lon="12.80984"><ele>4.0</ele><time>2026-03-22T08:33:33.281Z</time></trkpt><trkpt lat="45.7660902" lon="12.8098742"><ele>4.0</ele><time>2026-03-22T08:33:34.265Z</time></trkpt><trkpt lat="45.7663127" lon="12.8099222"><ele>4.0</ele><time>2026-03-22T08:33:35.309Z</time></trkpt><trkpt lat="45.7665333" lon="12.8099888"><ele>4.0</ele><time>2026-03-22T08:33:36.27Z</time></trkpt><trkpt lat="45.766747" lon="12.8100672"><ele>4.0</ele><time>2026-03-22T08:33:37.276Z</time></trkpt><trkpt lat="45.7669554" lon="12.8101449"><ele>4.0</ele><time>2026-03-22T08:33:38.27Z</time></trkpt><trkpt lat="45.7671511" lon="12.8102461"><ele>4.0</ele><time>2026-03-22T08:33:39.27Z</time></trkpt><trkpt lat="45.7673377" lon="12.8103443"><ele>4.0</ele><time>2026-03-22T08:33:40.277Z</time></trkpt><trkpt lat="45.7675147" lon="12.8104501"><ele>4.0</ele><time>2026-03-22T08:33:41.268Z</time></trkpt><trkpt lat="45.7676934" lon="12.8105507"><ele>4.0</ele><time>2026-03-22T08:33:42.28Z</time></trkpt><trkpt lat="45.7678703" lon="12.8106554"><ele>4.0</ele><time>2026-03-22T08:33:43.281Z</time></trkpt><trkpt lat="45.7680461" lon="12.8107579"><ele>4.0</ele><time>2026-03-22T08:33:44.278Z</time></trkpt><trkpt lat="45.7682241" lon="12.8108561"><ele>4.0</ele><time>2026-03-22T08:33:45.283Z</time></trkpt><trkpt lat="45.7684023" lon="12.8109602"><ele>4.0</ele><time>2026-03-22T08:33:46.266Z</time></trkpt><trkpt lat="45.7685845" lon="12.8110588"><ele>4.0</ele><time>2026-03-22T08:33:47.283Z</time></trkpt><trkpt lat="45.7687639" lon="12.8111707"><ele>4.0</ele><time>2026-03-22T08:33:48.288Z</time></trkpt><trkpt lat="45.7689491" lon="12.8112722"><ele>4.0</ele><time>2026-03-22T08:33:49.278Z</time></trkpt><trkpt lat="45.7691359" lon="12.8113784"><ele>4.0</ele><time>2026-03-22T08:33:50.278Z</time></trkpt><trkpt lat="45.7693245" lon="12.8114879"><ele>4.333333333333333</ele><time>2026-03-22T08:33:51.277Z</time></trkpt><trkpt lat="45.7695144" lon="12.8115995"><ele>4.666666666666667</ele><time>2026-03-22T08:33:52.272Z</time></trkpt><trkpt lat="45.7697064" lon="12.8117101"><ele>5.0</ele><time>2026-03-22T08:33:53.273Z</time></trkpt><trkpt lat="45.7699035" lon="12.8118172"><ele>4.666666666666667</ele><time>2026-03-22T08:33:54.288Z</time></trkpt><trkpt lat="45.7701025" lon="12.8119287"><ele>4.333333333333333</ele><time>2026-03-22T08:33:55.289Z</time></trkpt><trkpt lat="45.7703045" lon="12.8120369"><ele>4.0</ele><time>2026-03-22T08:33:56.285Z</time></trkpt><trkpt lat="45.7705074" lon="12.8121486"><ele>4.0</ele><time>2026-03-22T08:33:57.281Z</time></trkpt><trkpt lat="45.7707176" lon="12.8122407"><ele>4.0</ele><time>2026-03-22T08:33:58.278Z</time></trkpt><trkpt lat="45.7709294" lon="12.812327"><ele>4.0</ele><time>2026-03-22T08:33:59.28Z</time></trkpt><trkpt lat="45.7711427" lon="12.8124036"><ele>2.6666666666666665</ele><time>2026-03-22T08:34:00.28Z</time></trkpt><trkpt lat="45.7713566" lon="12.8124723"><ele>1.3333333333333333</ele><time>2026-03-22T08:34:01.283Z</time></trkpt><trkpt lat="45.771572" lon="12.812527"><ele>0.0</ele><time>2026-03-22T08:34:02.291Z</time></trkpt><trkpt lat="45.7717874" lon="12.8125767"><ele>-0.3333333333333333</ele><time>2026-03-22T08:34:03.287Z</time></trkpt><trkpt lat="45.7720024" lon="12.8126233"><ele>-0.6666666666666666</ele><time>2026-03-22T08:34:04.288Z</time></trkpt><trkpt lat="45.7722178" lon="12.8126666"><ele>-1.0</ele><time>2026-03-22T08:34:05.282Z</time></trkpt><trkpt lat="45.772435" lon="12.8126934"><ele>-1.3333333333333333</ele><time>2026-03-22T08:34:06.269Z</time></trkpt><trkpt lat="45.7726507" lon="12.8127233"><ele>-1.6666666666666665</ele><time>2026-03-22T08:34:07.279Z</time></trkpt><trkpt lat="45.7728649" lon="12.8127472"><ele>-2.0</ele><time>2026-03-22T08:34:08.283Z</time></trkpt><trkpt lat="45.7730768" lon="12.812768"><ele>-1.3333333333333333</ele><time>2026-03-22T08:34:09.283Z</time></trkpt><trkpt lat="45.7732881" lon="12.8127816"><ele>-0.6666666666666666</ele><time>2026-03-22T08:34:10.29Z</time></trkpt><trkpt lat="45.7734986" lon="12.8127988"><ele>0.0</ele><time>2026-03-22T08:34:11.297Z</time></trkpt><trkpt lat="45.7737083" lon="12.8128245"><ele>0.0</ele><time>2026-03-22T08:34:12.287Z</time></trkpt><trkpt lat="45.7739183" lon="12.8128443"><ele>0.0</ele><time>2026-03-22T08:34:13.297Z</time></trkpt><trkpt lat="45.7741274" lon="12.8128707"><ele>0.0</ele><time>2026-03-22T08:34:14.268Z</time></trkpt><trkpt lat="45.7743379" lon="12.8128866"><ele>0.0</ele><time>2026-03-22T08:34:15.285Z</time></trkpt><trkpt lat="45.7745499" lon="12.812909"><ele>0.0</ele><time>2026-03-22T08:34:16.289Z</time></trkpt><trkpt lat="45.7747632" lon="12.8129344"><ele>0.0</ele><time>2026-03-22T08:34:17.28Z</time></trkpt><trkpt lat="45.7749778" lon="12.812958"><ele>0.3333333333333333</ele><time>2026-03-22T08:34:18.279Z</time></trkpt><trkpt lat="45.7751958" lon="12.8129614"><ele>0.6666666666666666</ele><time>2026-03-22T08:34:19.302Z</time></trkpt><trkpt lat="45.7754161" lon="12.8129777"><ele>1.0</ele><time>2026-03-22T08:34:20.281Z</time></trkpt><trkpt lat="45.775635" lon="12.8130042"><ele>1.0</ele><time>2026-03-22T08:34:21.289Z</time></trkpt><trkpt lat="45.7758538" lon="12.8130229"><ele>1.0</ele><time>2026-03-22T08:34:22.304Z</time></trkpt><trkpt lat="45.7760709" lon="12.8130477"><ele>1.0</ele><time>2026-03-22T08:34:23.3Z</time></trkpt><trkpt lat="45.7762872" lon="12.81307"><ele>1.6666666666666665</ele><time>2026-03-22T08:34:24.282Z</time></trkpt><trkpt lat="45.7765021" lon="12.8130925"><ele>2.3333333333333335</ele><time>2026-03-22T08:34:25.279Z</time></trkpt><trkpt lat="45.7767171" lon="12.8131156"><ele>3.0</ele><time>2026-03-22T08:34:26.312Z</time></trkpt><trkpt lat="45.776931" lon="12.8131384"><ele>3.0</ele><time>2026-03-22T08:34:27.284Z</time></trkpt><trkpt lat="45.7771442" lon="12.81316"><ele>3.0</ele><time>2026-03-22T08:34:28.26Z</time></trkpt><trkpt lat="45.7773578" lon="12.8131787"><ele>3.0</ele><time>2026-03-22T08:34:29.267Z</time></trkpt><trkpt lat="45.7775716" lon="12.8132023"><ele>2.6666666666666665</ele><time>2026-03-22T08:34:30.279Z</time></trkpt><trkpt lat="45.7777867" lon="12.8132206"><ele>2.333333333333333</ele><time>2026-03-22T08:34:31.354Z</time></trkpt><trkpt lat="45.7780034" lon="12.8132408"><ele>2.0</ele><time>2026-03-22T08:34:32.284Z</time></trkpt><trkpt lat="45.7782219" lon="12.8132717"><ele>2.0</ele><time>2026-03-22T08:34:33.284Z</time></trkpt><trkpt lat="45.778442" lon="12.813304"><ele>2.0</ele><time>2026-03-22T08:34:34.28Z</time></trkpt><trkpt lat="45.7786633" lon="12.8133394"><ele>2.0</ele><time>2026-03-22T08:34:35.275Z</time></trkpt><trkpt lat="45.7788865" lon="12.8133788"><ele>2.0</ele><time>2026-03-22T08:34:36.277Z</time></trkpt><trkpt lat="45.7791103" lon="12.8134278"><ele>2.0</ele><time>2026-03-22T08:34:37.28Z</time></trkpt><trkpt lat="45.7793325" lon="12.8134841"><ele>2.6666666666666665</ele><time>2026-03-22T08:34:38.267Z</time></trkpt><trkpt lat="45.779552" lon="12.813542"><ele>3.333333333333333</ele><time>2026-03-22T08:34:39.279Z</time></trkpt><trkpt lat="45.7797669" lon="12.8136076"><ele>4.0</ele><time>2026-03-22T08:34:40.279Z</time></trkpt><trkpt lat="45.779978" lon="12.8136775"><ele>3.6666666666666665</ele><time>2026-03-22T08:34:41.279Z</time></trkpt><trkpt lat="45.7801875" lon="12.8137556"><ele>3.333333333333333</ele><time>2026-03-22T08:34:42.287Z</time></trkpt><trkpt lat="45.7803964" lon="12.8138389"><ele>3.0</ele><time>2026-03-22T08:34:43.273Z</time></trkpt><trkpt lat="45.7806044" lon="12.8139306"><ele>3.0</ele><time>2026-03-22T08:34:44.285Z</time></trkpt><trkpt lat="45.7808155" lon="12.8140209"><ele>3.0</ele><time>2026-03-22T08:34:45.309Z</time></trkpt><trkpt lat="45.7810254" lon="12.8141234"><ele>3.0</ele><time>2026-03-22T08:34:46.276Z</time></trkpt><trkpt lat="45.7812325" lon="12.8142392"><ele>3.333333333333333</ele><time>2026-03-22T08:34:47.299Z</time></trkpt><trkpt lat="45.7814388" lon="12.8143592"><ele>3.6666666666666665</ele><time>2026-03-22T08:34:48.287Z</time></trkpt><trkpt lat="45.7816414" lon="12.8144892"><ele>4.0</ele><time>2026-03-22T08:34:49.271Z</time></trkpt><trkpt lat="45.7818412" lon="12.8146254"><ele>4.0</ele><time>2026-03-22T08:34:50.297Z</time></trkpt><trkpt lat="45.7820408" lon="12.8147626"><ele>4.0</ele><time>2026-03-22T08:34:51.285Z</time></trkpt><trkpt lat="45.7822377" lon="12.814907"><ele>4.0</ele><time>2026-03-22T08:34:52.29Z</time></trkpt><trkpt lat="45.7824341" lon="12.8150514"><ele>4.0</ele><time>2026-03-22T08:34:53.272Z</time></trkpt><trkpt lat="45.7826254" lon="12.8152065"><ele>4.0</ele><time>2026-03-22T08:34:54.298Z</time></trkpt><trkpt lat="45.7828152" lon="12.815361"><ele>4.0</ele><time>2026-03-22T08:34:55.29Z</time></trkpt><trkpt lat="45.783001" lon="12.815523"><ele>3.6666666666666665</ele><time>2026-03-22T08:34:56.28Z</time></trkpt><trkpt lat="45.7831886" lon="12.8156814"><ele>3.333333333333333</ele><time>2026-03-22T08:34:57.267Z</time></trkpt><trkpt lat="45.7833743" lon="12.8158413"><ele>3.0</ele><time>2026-03-22T08:34:58.273Z</time></trkpt><trkpt lat="45.7835479" lon="12.81602"><ele>3.0</ele><time>2026-03-22T08:34:59.303Z</time></trkpt><trkpt lat="45.7837164" lon="12.816205"><ele>3.0</ele><time>2026-03-22T08:35:00.289Z</time></trkpt><trkpt lat="45.7838843" lon="12.8163884"><ele>3.0</ele><time>2026-03-22T08:35:01.282Z</time></trkpt><trkpt lat="45.7840393" lon="12.8165937"><ele>3.0</ele><time>2026-03-22T08:35:02.27Z</time></trkpt><trkpt lat="45.7841902" lon="12.8168073"><ele>3.0</ele><time>2026-03-22T08:35:03.282Z</time></trkpt><trkpt lat="45.7843332" lon="12.8170326"><ele>3.0</ele><time>2026-03-22T08:35:04.296Z</time></trkpt><trkpt lat="45.7844708" lon="12.8172665"><ele>3.0</ele><time>2026-03-22T08:35:05.295Z</time></trkpt><trkpt lat="45.7846093" lon="12.817501"><ele>3.0</ele><time>2026-03-22T08:35:06.279Z</time></trkpt><trkpt lat="45.7847498" lon="12.8177335"><ele>3.0</ele><time>2026-03-22T08:35:07.282Z</time></trkpt><trkpt lat="45.784882" lon="12.817973"><ele>3.0</ele><time>2026-03-22T08:35:08.287Z</time></trkpt><trkpt lat="45.7850168" lon="12.8182074"><ele>3.0</ele><time>2026-03-22T08:35:09.275Z</time></trkpt><trkpt lat="45.78514" lon="12.8184527"><ele>3.0</ele><time>2026-03-22T08:35:10.286Z</time></trkpt><trkpt lat="45.7852538" lon="12.8187084"><ele>3.333333333333333</ele><time>2026-03-22T08:35:11.266Z</time></trkpt><trkpt lat="45.7853782" lon="12.8189553"><ele>3.6666666666666665</ele><time>2026-03-22T08:35:12.282Z</time></trkpt><trkpt lat="45.7854892" lon="12.8192145"><ele>4.0</ele><time>2026-03-22T08:35:13.277Z</time></trkpt><trkpt lat="45.7855962" lon="12.819475"><ele>4.0</ele><time>2026-03-22T08:35:14.274Z</time></trkpt><trkpt lat="45.7857023" lon="12.8197353"><ele>4.0</ele><time>2026-03-22T08:35:15.278Z</time></trkpt><trkpt lat="45.7857934" lon="12.8200097"><ele>4.0</ele><time>2026-03-22T08:35:16.287Z</time></trkpt><trkpt lat="45.7858852" lon="12.8202854"><ele>3.6666666666666665</ele><time>2026-03-22T08:35:17.293Z</time></trkpt><trkpt lat="45.7859734" lon="12.8205633"><ele>3.333333333333333</ele><time>2026-03-22T08:35:18.285Z</time></trkpt><trkpt lat="45.7860612" lon="12.8208408"><ele>3.0</ele><time>2026-03-22T08:35:19.284Z</time></trkpt><trkpt lat="45.786143" lon="12.8211202"><ele>3.333333333333333</ele><time>2026-03-22T08:35:20.281Z</time></trkpt><trkpt lat="45.7862233" lon="12.8213942"><ele>3.6666666666666665</ele><time>2026-03-22T08:35:21.275Z</time></trkpt><trkpt lat="45.7862858" lon="12.8216652"><ele>4.0</ele><time>2026-03-22T08:35:22.295Z</time></trkpt><trkpt lat="45.7863477" lon="12.8219267"><ele>4.0</ele><time>2026-03-22T08:35:23.278Z</time></trkpt><trkpt lat="45.7864057" lon="12.8221875"><ele>4.0</ele><time>2026-03-22T08:35:24.266Z</time></trkpt><trkpt lat="45.7864651" lon="12.822447"><ele>4.0</ele><time>2026-03-22T08:35:25.299Z</time></trkpt><trkpt lat="45.7865191" lon="12.8227139"><ele>3.6666666666666665</ele><time>2026-03-22T08:35:26.275Z</time></trkpt><trkpt lat="45.7865735" lon="12.8229851"><ele>3.333333333333333</ele><time>2026-03-22T08:35:27.276Z</time></trkpt><trkpt lat="45.7866188" lon="12.8232614"><ele>3.0</ele><time>2026-03-22T08:35:28.278Z</time></trkpt><trkpt lat="45.786655" lon="12.8235461"><ele>3.0</ele><time>2026-03-22T08:35:29.287Z</time></trkpt><trkpt lat="45.7866899" lon="12.8238327"><ele>3.0</ele><time>2026-03-22T08:35:30.266Z</time></trkpt><trkpt lat="45.7867179" lon="12.8241188"><ele>3.0</ele><time>2026-03-22T08:35:31.287Z</time></trkpt><trkpt lat="45.786735" lon="12.8244079"><ele>3.333333333333333</ele><time>2026-03-22T08:35:32.283Z</time></trkpt><trkpt lat="45.7867474" lon="12.8246989"><ele>3.6666666666666665</ele><time>2026-03-22T08:35:33.291Z</time></trkpt><trkpt lat="45.78676" lon="12.8249884"><ele>4.0</ele><time>2026-03-22T08:35:34.286Z</time></trkpt><trkpt lat="45.786795" lon="12.8252718"><ele>4.333333333333333</ele><time>2026-03-22T08:35:35.285Z</time></trkpt><trkpt lat="45.7868263" lon="12.8255431"><ele>4.666666666666667</ele><time>2026-03-22T08:35:36.285Z</time></trkpt><trkpt lat="45.7868529" lon="12.8258035"><ele>5.0</ele><time>2026-03-22T08:35:37.293Z</time></trkpt><trkpt lat="45.7868771" lon="12.8260541"><ele>5.333333333333334</ele><time>2026-03-22T08:35:38.275Z</time></trkpt><trkpt lat="45.7868999" lon="12.8262964"><ele>5.666666666666667</ele><time>2026-03-22T08:35:39.28Z</time></trkpt><trkpt lat="45.7869195" lon="12.8265315"><ele>6.0</ele><time>2026-03-22T08:35:40.279Z</time></trkpt><trkpt lat="45.7869378" lon="12.8267581"><ele>6.0</ele><time>2026-03-22T08:35:41.275Z</time></trkpt><trkpt lat="45.7869599" lon="12.8269731"><ele>6.0</ele><time>2026-03-22T08:35:42.282Z</time></trkpt><trkpt lat="45.7869814" lon="12.8271781"><ele>6.0</ele><time>2026-03-22T08:35:43.283Z</time></trkpt><trkpt lat="45.7869988" lon="12.8273714"><ele>6.0</ele><time>2026-03-22T08:35:44.27Z</time></trkpt><trkpt lat="45.787013" lon="12.8275419"><ele>5.8</ele><time>2026-03-22T08:35:45.288Z</time></trkpt><trkpt lat="45.7870285" lon="12.8276725"><ele>5.6</ele><time>2026-03-22T08:35:46.307Z</time></trkpt><trkpt lat="45.7870319" lon="12.827768"><ele>5.4</ele><time>2026-03-22T08:35:47.282Z</time></trkpt><trkpt lat="45.7870206" lon="12.8279054"><ele>5.2</ele><time>2026-03-22T08:35:49.276Z</time></trkpt><trkpt lat="45.7869797" lon="12.8280865"><ele>5.0</ele><time>2026-03-22T08:35:51.275Z</time></trkpt><trkpt lat="45.7869452" lon="12.8282081"><ele>5.0</ele><time>2026-03-22T08:35:52.268Z</time></trkpt><trkpt lat="45.7869021" lon="12.8283472"><ele>5.0</ele><time>2026-03-22T08:35:53.281Z</time></trkpt><trkpt lat="45.7868581" lon="12.8285026"><ele>5.0</ele><time>2026-03-22T08:35:54.287Z</time></trkpt><trkpt lat="45.7867913" lon="12.828662"><ele>5.0</ele><time>2026-03-22T08:35:55.291Z</time></trkpt><trkpt lat="45.7867171" lon="12.8288247"><ele>4.75</ele><time>2026-03-22T08:35:56.283Z</time></trkpt><trkpt lat="45.7866377" lon="12.8289814"><ele>4.5</ele><time>2026-03-22T08:35:57.277Z</time></trkpt><trkpt lat="45.7865643" lon="12.8291382"><ele>4.25</ele><time>2026-03-22T08:35:58.272Z</time></trkpt><trkpt lat="45.7864988" lon="12.8292948"><ele>4.0</ele><time>2026-03-22T08:35:59.275Z</time></trkpt><trkpt lat="45.7864336" lon="12.8294452"><ele>4.0</ele><time>2026-03-22T08:36:00.277Z</time></trkpt><trkpt lat="45.7863678" lon="12.8295897"><ele>4.0</ele><time>2026-03-22T08:36:01.272Z</time></trkpt><trkpt lat="45.7863062" lon="12.8297315"><ele>4.0</ele><time>2026-03-22T08:36:02.273Z</time></trkpt><trkpt lat="45.7862458" lon="12.8298686"><ele>4.0</ele><time>2026-03-22T08:36:03.268Z</time></trkpt><trkpt lat="45.7861887" lon="12.8299905"><ele>3.9999999999999996</ele><time>2026-03-22T08:36:04.271Z</time></trkpt><trkpt lat="45.7861442" lon="12.8300814"><ele>4.0</ele><time>2026-03-22T08:36:05.277Z</time></trkpt><trkpt lat="45.7861069" lon="12.8301702"><ele>4.0</ele><time>2026-03-22T08:36:07.29Z</time></trkpt><trkpt lat="45.786057" lon="12.8302892"><ele>4.0</ele><time>2026-03-22T08:36:12.277Z</time></trkpt><trkpt lat="45.7860615" lon="12.8304251"><ele>3.9999999999999996</ele><time>2026-03-22T08:36:14.264Z</time></trkpt><trkpt lat="45.786097" lon="12.8305276"><ele>4.0</ele><time>2026-03-22T08:36:15.29Z</time></trkpt><trkpt lat="45.7861147" lon="12.8306733"><ele>4.0</ele><time>2026-03-22T08:36:16.28Z</time></trkpt><trkpt lat="45.7861305" lon="12.83086"><ele>4.0</ele><time>2026-03-22T08:36:17.269Z</time></trkpt><trkpt lat="45.7861234" lon="12.8310806"><ele>4.0</ele><time>2026-03-22T08:36:18.279Z</time></trkpt><trkpt lat="45.7861163" lon="12.8313136"><ele>4.0</ele><time>2026-03-22T08:36:19.27Z</time></trkpt><trkpt lat="45.7861146" lon="12.8315394"><ele>4.0</ele><time>2026-03-22T08:36:20.284Z</time></trkpt><trkpt lat="45.7861119" lon="12.8317497"><ele>4.0</ele><time>2026-03-22T08:36:21.283Z</time></trkpt><trkpt lat="45.786107" lon="12.8319476"><ele>4.0</ele><time>2026-03-22T08:36:22.284Z</time></trkpt><trkpt lat="45.7861022" lon="12.8321359"><ele>4.0</ele><time>2026-03-22T08:36:23.275Z</time></trkpt><trkpt lat="45.7861142" lon="12.8323203"><ele>4.0</ele><time>2026-03-22T08:36:24.275Z</time></trkpt><trkpt lat="45.7861624" lon="12.8324987"><ele>4.0</ele><time>2026-03-22T08:36:25.28Z</time></trkpt><trkpt lat="45.7862192" lon="12.8326776"><ele>4.0</ele><time>2026-03-22T08:36:26.271Z</time></trkpt><trkpt lat="45.7862799" lon="12.8328619"><ele>4.0</ele><time>2026-03-22T08:36:27.288Z</time></trkpt><trkpt lat="45.7863456" lon="12.8330502"><ele>4.0</ele><time>2026-03-22T08:36:28.277Z</time></trkpt><trkpt lat="45.7864009" lon="12.8332532"><ele>4.0</ele><time>2026-03-22T08:36:29.271Z</time></trkpt><trkpt lat="45.7864634" lon="12.8334586"><ele>4.0</ele><time>2026-03-22T08:36:30.298Z</time></trkpt><trkpt lat="45.786508" lon="12.8336791"><ele>4.0</ele><time>2026-03-22T08:36:31.276Z</time></trkpt><trkpt lat="45.7865396" lon="12.8339097"><ele>4.0</ele><time>2026-03-22T08:36:32.284Z</time></trkpt><trkpt lat="45.7865549" lon="12.8341537"><ele>4.0</ele><time>2026-03-22T08:36:33.269Z</time></trkpt><trkpt lat="45.7865766" lon="12.83441"><ele>4.0</ele><time>2026-03-22T08:36:34.28Z</time></trkpt><trkpt lat="45.7866065" lon="12.8346809"><ele>4.0</ele><time>2026-03-22T08:36:35.27Z</time></trkpt><trkpt lat="45.7866357" lon="12.8349647"><ele>4.0</ele><time>2026-03-22T08:36:36.287Z</time></trkpt><trkpt lat="45.7866762" lon="12.8352519"><ele>4.0</ele><time>2026-03-22T08:36:37.27Z</time></trkpt><trkpt lat="45.7867008" lon="12.8355461"><ele>4.0</ele><time>2026-03-22T08:36:38.286Z</time></trkpt><trkpt lat="45.7867282" lon="12.8358387"><ele>4.0</ele><time>2026-03-22T08:36:39.275Z</time></trkpt><trkpt lat="45.7867593" lon="12.8361288"><ele>4.0</ele><time>2026-03-22T08:36:40.276Z</time></trkpt><trkpt lat="45.7867897" lon="12.8364129"><ele>4.0</ele><time>2026-03-22T08:36:41.284Z</time></trkpt><trkpt lat="45.7868195" lon="12.8366821"><ele>4.0</ele><time>2026-03-22T08:36:42.278Z</time></trkpt><trkpt lat="45.7868454" lon="12.8369359"><ele>4.0</ele><time>2026-03-22T08:36:43.289Z</time></trkpt><trkpt lat="45.7868723" lon="12.8371802"><ele>4.0</ele><time>2026-03-22T08:36:44.273Z</time></trkpt><trkpt lat="45.7868973" lon="12.8374167"><ele>4.0</ele><time>2026-03-22T08:36:45.288Z</time></trkpt><trkpt lat="45.786921" lon="12.8376446"><ele>4.0</ele><time>2026-03-22T08:36:46.282Z</time></trkpt><trkpt lat="45.7869278" lon="12.8378665"><ele>4.0</ele><time>2026-03-22T08:36:47.27Z</time></trkpt><trkpt lat="45.7869214" lon="12.8380802"><ele>4.0</ele><time>2026-03-22T08:36:48.278Z</time></trkpt><trkpt lat="45.7868874" lon="12.838278"><ele>4.0</ele><time>2026-03-22T08:36:49.282Z</time></trkpt><trkpt lat="45.7868307" lon="12.8384572"><ele>4.0</ele><time>2026-03-22T08:36:50.285Z</time></trkpt><trkpt lat="45.7867715" lon="12.838619"><ele>4.0</ele><time>2026-03-22T08:36:51.269Z</time></trkpt><trkpt lat="45.7867234" lon="12.8387628"><ele>4.0</ele><time>2026-03-22T08:36:52.273Z</time></trkpt><trkpt lat="45.7866847" lon="12.8388756"><ele>4.0</ele><time>2026-03-22T08:36:53.28Z</time></trkpt><trkpt lat="45.7866392" lon="12.8389872"><ele>4.0</ele><time>2026-03-22T08:36:55.294Z</time></trkpt><trkpt lat="45.7866091" lon="12.8390686"><ele>3.9999999999999996</ele><time>2026-03-22T08:36:58.278Z</time></trkpt><trkpt lat="45.786637" lon="12.8391934"><ele>4.0</ele><time>2026-03-22T08:37:00.278Z</time></trkpt><trkpt lat="45.7866897" lon="12.8392699"><ele>4.0</ele><time>2026-03-22T08:37:01.274Z</time></trkpt><trkpt lat="45.7867669" lon="12.8393181"><ele>4.0</ele><time>2026-03-22T08:37:02.269Z</time></trkpt><trkpt lat="45.7868536" lon="12.8393487"><ele>3.9999999999999996</ele><time>2026-03-22T08:37:03.271Z</time></trkpt><trkpt lat="45.786928" lon="12.8393701"><ele>4.0</ele><time>2026-03-22T08:37:04.276Z</time></trkpt><trkpt lat="45.786992" lon="12.8394316"><ele>4.25</ele><time>2026-03-22T08:37:05.275Z</time></trkpt><trkpt lat="45.7870717" lon="12.8394845"><ele>4.5</ele><time>2026-03-22T08:37:06.275Z</time></trkpt><trkpt lat="45.7871673" lon="12.8395608"><ele>4.75</ele><time>2026-03-22T08:37:07.279Z</time></trkpt><trkpt lat="45.7872888" lon="12.8396106"><ele>5.0</ele><time>2026-03-22T08:37:08.273Z</time></trkpt><trkpt lat="45.787411" lon="12.8396946"><ele>5.0</ele><time>2026-03-22T08:37:09.292Z</time></trkpt><trkpt lat="45.7875396" lon="12.839784"><ele>5.0</ele><time>2026-03-22T08:37:10.284Z</time></trkpt><trkpt lat="45.787661" lon="12.8399033"><ele>5.0</ele><time>2026-03-22T08:37:11.28Z</time></trkpt><trkpt lat="45.7877862" lon="12.8400239"><ele>5.0</ele><time>2026-03-22T08:37:12.279Z</time></trkpt><trkpt lat="45.7879154" lon="12.8401472"><ele>5.0</ele><time>2026-03-22T08:37:13.276Z</time></trkpt><trkpt lat="45.7880459" lon="12.8402734"><ele>5.0</ele><time>2026-03-22T08:37:14.281Z</time></trkpt><trkpt lat="45.7881788" lon="12.8404053"><ele>5.0</ele><time>2026-03-22T08:37:15.282Z</time></trkpt><trkpt lat="45.7883164" lon="12.8405389"><ele>5.0</ele><time>2026-03-22T08:37:16.289Z</time></trkpt><trkpt lat="45.7884576" lon="12.8406791"><ele>5.0</ele><time>2026-03-22T08:37:17.29Z</time></trkpt><trkpt lat="45.7886145" lon="12.8408073"><ele>5.0</ele><time>2026-03-22T08:37:18.281Z</time></trkpt><trkpt lat="45.78877" lon="12.8409547"><ele>5.333333333333334</ele><time>2026-03-22T08:37:19.294Z</time></trkpt><trkpt lat="45.7889343" lon="12.8411036"><ele>5.666666666666667</ele><time>2026-03-22T08:37:20.28Z</time></trkpt><trkpt lat="45.7891014" lon="12.8412664"><ele>6.0</ele><time>2026-03-22T08:37:21.279Z</time></trkpt><trkpt lat="45.7892759" lon="12.8414242"><ele>6.0</ele><time>2026-03-22T08:37:22.282Z</time></trkpt><trkpt lat="45.7894513" lon="12.8415704"><ele>6.0</ele><time>2026-03-22T08:37:23.288Z</time></trkpt><trkpt lat="45.7896155" lon="12.8417128"><ele>6.0</ele><time>2026-03-22T08:37:24.282Z</time></trkpt><trkpt lat="45.7897671" lon="12.8418554"><ele>6.0</ele><time>2026-03-22T08:37:25.278Z</time></trkpt><trkpt lat="45.7899161" lon="12.8419831"><ele>6.0</ele><time>2026-03-22T08:37:26.279Z</time></trkpt><trkpt lat="45.7900589" lon="12.8421037"><ele>6.0</ele><time>2026-03-22T08:37:27.282Z</time></trkpt><trkpt lat="45.7901964" lon="12.8422196"><ele>5.333333333333333</ele><time>2026-03-22T08:37:28.284Z</time></trkpt><trkpt lat="45.7903331" lon="12.8423315"><ele>4.666666666666666</ele><time>2026-03-22T08:37:29.299Z</time></trkpt><trkpt lat="45.790469" lon="12.8424397"><ele>4.0</ele><time>2026-03-22T08:37:30.296Z</time></trkpt><trkpt lat="45.7906023" lon="12.842551"><ele>4.333333333333333</ele><time>2026-03-22T08:37:31.292Z</time></trkpt><trkpt lat="45.7907441" lon="12.8426465"><ele>4.666666666666667</ele><time>2026-03-22T08:37:32.282Z</time></trkpt><trkpt lat="45.7908945" lon="12.8427139"><ele>5.0</ele><time>2026-03-22T08:37:33.282Z</time></trkpt><trkpt lat="45.7910465" lon="12.8427725"><ele>5.0</ele><time>2026-03-22T08:37:34.286Z</time></trkpt><trkpt lat="45.7911991" lon="12.8428119"><ele>5.0</ele><time>2026-03-22T08:37:35.284Z</time></trkpt><trkpt lat="45.7913509" lon="12.8428289"><ele>5.0</ele><time>2026-03-22T08:37:36.282Z</time></trkpt><trkpt lat="45.7915031" lon="12.8428244"><ele>5.0</ele><time>2026-03-22T08:37:37.276Z</time></trkpt><trkpt lat="45.7916509" lon="12.8428067"><ele>5.0</ele><time>2026-03-22T08:37:38.28Z</time></trkpt><trkpt lat="45.7917957" lon="12.8427733"><ele>5.0</ele><time>2026-03-22T08:37:39.279Z</time></trkpt><trkpt lat="45.7919337" lon="12.8427244"><ele>5.0</ele><time>2026-03-22T08:37:40.279Z</time></trkpt><trkpt lat="45.7920702" lon="12.8426936"><ele>5.0</ele><time>2026-03-22T08:37:41.292Z</time></trkpt><trkpt lat="45.7921985" lon="12.8426327"><ele>5.0</ele><time>2026-03-22T08:37:42.285Z</time></trkpt><trkpt lat="45.792325" lon="12.8425905"><ele>5.0</ele><time>2026-03-22T08:37:43.28Z</time></trkpt><trkpt lat="45.7924501" lon="12.8425738"><ele>5.0</ele><time>2026-03-22T08:37:44.272Z</time></trkpt><trkpt lat="45.7925726" lon="12.842569"><ele>4.75</ele><time>2026-03-22T08:37:45.296Z</time></trkpt><trkpt lat="45.7926912" lon="12.8425776"><ele>4.5</ele><time>2026-03-22T08:37:46.273Z</time></trkpt><trkpt lat="45.7928099" lon="12.8426066"><ele>4.25</ele><time>2026-03-22T08:37:47.291Z</time></trkpt><trkpt lat="45.7929314" lon="12.8426377"><ele>4.0</ele><time>2026-03-22T08:37:48.274Z</time></trkpt><trkpt lat="45.7930558" lon="12.8426937"><ele>4.0</ele><time>2026-03-22T08:37:49.275Z</time></trkpt><trkpt lat="45.7931831" lon="12.8427905"><ele>4.0</ele><time>2026-03-22T08:37:50.272Z</time></trkpt><trkpt lat="45.7933189" lon="12.8428916"><ele>4.0</ele><time>2026-03-22T08:37:51.279Z</time></trkpt><trkpt lat="45.7934516" lon="12.8430279"><ele>4.0</ele><time>2026-03-22T08:37:52.279Z</time></trkpt><trkpt lat="45.7935784" lon="12.843193"><ele>4.0</ele><time>2026-03-22T08:37:53.278Z</time></trkpt><trkpt lat="45.7937022" lon="12.8433719"><ele>4.0</ele><time>2026-03-22T08:37:54.265Z</time></trkpt><trkpt lat="45.7938161" lon="12.8435613"><ele>4.0</ele><time>2026-03-22T08:37:55.275Z</time></trkpt><trkpt lat="45.7939245" lon="12.8437496"><ele>4.0</ele><time>2026-03-22T08:37:56.277Z</time></trkpt><trkpt lat="45.7940291" lon="12.8439332"><ele>4.0</ele><time>2026-03-22T08:37:57.275Z</time></trkpt><trkpt lat="45.7941335" lon="12.8441164"><ele>4.0</ele><time>2026-03-22T08:37:58.278Z</time></trkpt><trkpt lat="45.7942474" lon="12.8442893"><ele>4.0</ele><time>2026-03-22T08:37:59.273Z</time></trkpt><trkpt lat="45.7943597" lon="12.8444692"><ele>4.0</ele><time>2026-03-22T08:38:00.268Z</time></trkpt><trkpt lat="45.7944729" lon="12.8446517"><ele>4.0</ele><time>2026-03-22T08:38:01.278Z</time></trkpt><trkpt lat="45.7945888" lon="12.8448338"><ele>4.0</ele><time>2026-03-22T08:38:02.276Z</time></trkpt><trkpt lat="45.7946977" lon="12.8450231"><ele>4.0</ele><time>2026-03-22T08:38:03.274Z</time></trkpt><trkpt lat="45.7948143" lon="12.8452038"><ele>4.0</ele><time>2026-03-22T08:38:04.276Z</time></trkpt><trkpt lat="45.7949296" lon="12.8453876"><ele>4.0</ele><time>2026-03-22T08:38:05.279Z</time></trkpt><trkpt lat="45.7950534" lon="12.8455638"><ele>4.0</ele><time>2026-03-22T08:38:06.281Z</time></trkpt><trkpt lat="45.7951712" lon="12.8457506"><ele>4.0</ele><time>2026-03-22T08:38:07.276Z</time></trkpt><trkpt lat="45.795284" lon="12.8459451"><ele>4.0</ele><time>2026-03-22T08:38:08.266Z</time></trkpt><trkpt lat="45.7954083" lon="12.8461277"><ele>4.0</ele><time>2026-03-22T08:38:09.28Z</time></trkpt><trkpt lat="45.7955239" lon="12.8463269"><ele>3.6666666666666665</ele><time>2026-03-22T08:38:10.271Z</time></trkpt><trkpt lat="45.7956451" lon="12.8465237"><ele>3.333333333333333</ele><time>2026-03-22T08:38:11.278Z</time></trkpt><trkpt lat="45.7957692" lon="12.8467167"><ele>3.0</ele><time>2026-03-22T08:38:12.278Z</time></trkpt><trkpt lat="45.7958904" lon="12.8469134"><ele>2.3333333333333335</ele><time>2026-03-22T08:38:13.281Z</time></trkpt><trkpt lat="45.7960135" lon="12.847105"><ele>1.6666666666666665</ele><time>2026-03-22T08:38:14.276Z</time></trkpt><trkpt lat="45.7961399" lon="12.8472934"><ele>1.0</ele><time>2026-03-22T08:38:15.279Z</time></trkpt><trkpt lat="45.7962619" lon="12.8474862"><ele>1.3333333333333333</ele><time>2026-03-22T08:38:16.274Z</time></trkpt><trkpt lat="45.7963818" lon="12.8476804"><ele>1.6666666666666665</ele><time>2026-03-22T08:38:17.28Z</time></trkpt><trkpt lat="45.796506" lon="12.8478679"><ele>2.0</ele><time>2026-03-22T08:38:18.266Z</time></trkpt><trkpt lat="45.7966219" lon="12.8480671"><ele>2.0</ele><time>2026-03-22T08:38:19.265Z</time></trkpt><trkpt lat="45.7967506" lon="12.8482529"><ele>2.0</ele><time>2026-03-22T08:38:20.279Z</time></trkpt><trkpt lat="45.7968816" lon="12.8484362"><ele>2.0</ele><time>2026-03-22T08:38:21.285Z</time></trkpt><trkpt lat="45.7970222" lon="12.8486098"><ele>2.333333333333333</ele><time>2026-03-22T08:38:22.273Z</time></trkpt><trkpt lat="45.7971676" lon="12.8487776"><ele>2.6666666666666665</ele><time>2026-03-22T08:38:23.283Z</time></trkpt><trkpt lat="45.7973139" lon="12.8489483"><ele>3.0</ele><time>2026-03-22T08:38:24.295Z</time></trkpt><trkpt lat="45.7974617" lon="12.8491221"><ele>3.666666666666667</ele><time>2026-03-22T08:38:25.298Z</time></trkpt><trkpt lat="45.7976147" lon="12.8492927"><ele>4.333333333333334</ele><time>2026-03-22T08:38:26.273Z</time></trkpt><trkpt lat="45.7977798" lon="12.8494419"><ele>5.0</ele><time>2026-03-22T08:38:27.278Z</time></trkpt><trkpt lat="45.7979438" lon="12.8495942"><ele>5.666666666666667</ele><time>2026-03-22T08:38:28.276Z</time></trkpt><trkpt lat="45.7981134" lon="12.8497377"><ele>6.333333333333334</ele><time>2026-03-22T08:38:29.266Z</time></trkpt><trkpt lat="45.7982846" lon="12.8498775"><ele>7.0</ele><time>2026-03-22T08:38:30.287Z</time></trkpt><trkpt lat="45.7984642" lon="12.8499934"><ele>6.666666666666667</ele><time>2026-03-22T08:38:31.284Z</time></trkpt><trkpt lat="45.7986373" lon="12.8500918"><ele>6.333333333333334</ele><time>2026-03-22T08:38:32.288Z</time></trkpt><trkpt lat="45.7988168" lon="12.8501407"><ele>6.0</ele><time>2026-03-22T08:38:33.278Z</time></trkpt><trkpt lat="45.7989826" lon="12.8502496"><ele>6.0</ele><time>2026-03-22T08:38:34.275Z</time></trkpt><trkpt lat="45.7991555" lon="12.8503432"><ele>6.0</ele><time>2026-03-22T08:38:35.266Z</time></trkpt><trkpt lat="45.7993258" lon="12.8504601"><ele>6.0</ele><time>2026-03-22T08:38:36.279Z</time></trkpt><trkpt lat="45.7995031" lon="12.8505406"><ele>5.0</ele><time>2026-03-22T08:38:37.276Z</time></trkpt><trkpt lat="45.7996805" lon="12.8505981"><ele>4.0</ele><time>2026-03-22T08:38:38.278Z</time></trkpt><trkpt lat="45.7998527" lon="12.8506542"><ele>3.0</ele><time>2026-03-22T08:38:39.289Z</time></trkpt><trkpt lat="45.8000201" lon="12.8507053"><ele>3.0</ele><time>2026-03-22T08:38:40.276Z</time></trkpt><trkpt lat="45.8001833" lon="12.8507515"><ele>3.0</ele><time>2026-03-22T08:38:41.272Z</time></trkpt><trkpt lat="45.8003346" lon="12.850788"><ele>3.0</ele><time>2026-03-22T08:38:42.274Z</time></trkpt><trkpt lat="45.8004808" lon="12.8508061"><ele>3.0</ele><time>2026-03-22T08:38:43.293Z</time></trkpt><trkpt lat="45.8006246" lon="12.850821"><ele>3.0</ele><time>2026-03-22T08:38:44.285Z</time></trkpt><trkpt lat="45.8007733" lon="12.8508277"><ele>3.0</ele><time>2026-03-22T08:38:45.279Z</time></trkpt><trkpt lat="45.800923" lon="12.8508482"><ele>3.0</ele><time>2026-03-22T08:38:46.277Z</time></trkpt><trkpt lat="45.8010726" lon="12.850853"><ele>3.5</ele><time>2026-03-22T08:38:47.277Z</time></trkpt><trkpt lat="45.8012184" lon="12.8508523"><ele>4.0</ele><time>2026-03-22T08:38:48.29Z</time></trkpt><trkpt lat="45.8013595" lon="12.8508604"><ele>4.5</ele><time>2026-03-22T08:38:49.275Z</time></trkpt><trkpt lat="45.8014969" lon="12.8508464"><ele>5.0</ele><time>2026-03-22T08:38:50.275Z</time></trkpt><trkpt lat="45.8016289" lon="12.8508517"><ele>5.0</ele><time>2026-03-22T08:38:51.278Z</time></trkpt><trkpt lat="45.8017581" lon="12.8508438"><ele>5.0</ele><time>2026-03-22T08:38:52.269Z</time></trkpt><trkpt lat="45.8018864" lon="12.8508316"><ele>5.0</ele><time>2026-03-22T08:38:53.287Z</time></trkpt><trkpt lat="45.8020143" lon="12.8508177"><ele>5.0</ele><time>2026-03-22T08:38:54.277Z</time></trkpt><trkpt lat="45.8021426" lon="12.8508027"><ele>5.0</ele><time>2026-03-22T08:38:55.278Z</time></trkpt><trkpt lat="45.8022714" lon="12.8507915"><ele>5.0</ele><time>2026-03-22T08:38:56.272Z</time></trkpt><trkpt lat="45.8023986" lon="12.8507753"><ele>5.0</ele><time>2026-03-22T08:38:57.275Z</time></trkpt><trkpt lat="45.8025238" lon="12.8507628"><ele>5.0</ele><time>2026-03-22T08:38:58.264Z</time></trkpt><trkpt lat="45.8026474" lon="12.850753"><ele>5.0</ele><time>2026-03-22T08:38:59.276Z</time></trkpt><trkpt lat="45.802771" lon="12.8507443"><ele>5.0</ele><time>2026-03-22T08:39:00.277Z</time></trkpt><trkpt lat="45.8028963" lon="12.8507408"><ele>5.0</ele><time>2026-03-22T08:39:01.278Z</time></trkpt><trkpt lat="45.803023" lon="12.850744"><ele>5.0</ele><time>2026-03-22T08:39:02.271Z</time></trkpt><trkpt lat="45.8031506" lon="12.8507561"><ele>5.0</ele><time>2026-03-22T08:39:03.28Z</time></trkpt><trkpt lat="45.803279" lon="12.8507746"><ele>5.0</ele><time>2026-03-22T08:39:04.275Z</time></trkpt><trkpt lat="45.8034086" lon="12.8507956"><ele>5.0</ele><time>2026-03-22T08:39:05.292Z</time></trkpt><trkpt lat="45.8035391" lon="12.8508208"><ele>5.0</ele><time>2026-03-22T08:39:06.284Z</time></trkpt><trkpt lat="45.8036691" lon="12.8508552"><ele>5.25</ele><time>2026-03-22T08:39:07.28Z</time></trkpt><trkpt lat="45.8038017" lon="12.8508932"><ele>5.5</ele><time>2026-03-22T08:39:08.3Z</time></trkpt><trkpt lat="45.8039388" lon="12.850945"><ele>5.75</ele><time>2026-03-22T08:39:09.294Z</time></trkpt><trkpt lat="45.8040777" lon="12.8510052"><ele>6.0</ele><time>2026-03-22T08:39:10.297Z</time></trkpt><trkpt lat="45.8042166" lon="12.8510692"><ele>5.666666666666667</ele><time>2026-03-22T08:39:11.292Z</time></trkpt><trkpt lat="45.8043573" lon="12.8511366"><ele>5.333333333333334</ele><time>2026-03-22T08:39:12.274Z</time></trkpt><trkpt lat="45.8045008" lon="12.851223"><ele>5.0</ele><time>2026-03-22T08:39:13.302Z</time></trkpt><trkpt lat="45.8046488" lon="12.851314"><ele>5.0</ele><time>2026-03-22T08:39:14.281Z</time></trkpt><trkpt lat="45.804795" lon="12.8514221"><ele>5.0</ele><time>2026-03-22T08:39:15.278Z</time></trkpt><trkpt lat="45.8049432" lon="12.8515321"><ele>5.0</ele><time>2026-03-22T08:39:16.288Z</time></trkpt><trkpt lat="45.8050908" lon="12.8516415"><ele>5.0</ele><time>2026-03-22T08:39:17.292Z</time></trkpt><trkpt lat="45.8052321" lon="12.8517491"><ele>5.0</ele><time>2026-03-22T08:39:18.278Z</time></trkpt><trkpt lat="45.8053599" lon="12.8518553"><ele>5.0</ele><time>2026-03-22T08:39:19.299Z</time></trkpt><trkpt lat="45.8054815" lon="12.8519431"><ele>5.0</ele><time>2026-03-22T08:39:20.277Z</time></trkpt><trkpt lat="45.8055946" lon="12.852034"><ele>5.0</ele><time>2026-03-22T08:39:21.294Z</time></trkpt><trkpt lat="45.8057068" lon="12.8521209"><ele>5.0</ele><time>2026-03-22T08:39:22.287Z</time></trkpt><trkpt lat="45.8058179" lon="12.8522034"><ele>5.0</ele><time>2026-03-22T08:39:23.281Z</time></trkpt><trkpt lat="45.8059256" lon="12.8522837"><ele>5.0</ele><time>2026-03-22T08:39:24.279Z</time></trkpt><trkpt lat="45.8060281" lon="12.8523665"><ele>5.0</ele><time>2026-03-22T08:39:25.281Z</time></trkpt><trkpt lat="45.8061291" lon="12.8524427"><ele>5.0</ele><time>2026-03-22T08:39:26.273Z</time></trkpt><trkpt lat="45.8062305" lon="12.8525189"><ele>5.0</ele><time>2026-03-22T08:39:27.303Z</time></trkpt><trkpt lat="45.806336" lon="12.8525945"><ele>5.0</ele><time>2026-03-22T08:39:28.276Z</time></trkpt><trkpt lat="45.8064424" lon="12.8526795"><ele>5.25</ele><time>2026-03-22T08:39:29.292Z</time></trkpt><trkpt lat="45.8065536" lon="12.8527595"><ele>5.5</ele><time>2026-03-22T08:39:30.283Z</time></trkpt><trkpt lat="45.8066645" lon="12.8528473"><ele>5.75</ele><time>2026-03-22T08:39:31.283Z</time></trkpt><trkpt lat="45.8067803" lon="12.8529308"><ele>6.0</ele><time>2026-03-22T08:39:32.282Z</time></trkpt><trkpt lat="45.8068997" lon="12.8530168"><ele>6.0</ele><time>2026-03-22T08:39:33.283Z</time></trkpt><trkpt lat="45.8070185" lon="12.8531158"><ele>6.0</ele><time>2026-03-22T08:39:34.292Z</time></trkpt><trkpt lat="45.8071354" lon="12.8532305"><ele>6.0</ele><time>2026-03-22T08:39:35.301Z</time></trkpt><trkpt lat="45.8072575" lon="12.8533401"><ele>6.0</ele><time>2026-03-22T08:39:36.303Z</time></trkpt><trkpt lat="45.8073651" lon="12.8534709"><ele>5.75</ele><time>2026-03-22T08:39:37.299Z</time></trkpt><trkpt lat="45.8074694" lon="12.8535925"><ele>5.5</ele><time>2026-03-22T08:39:38.288Z</time></trkpt><trkpt lat="45.8075603" lon="12.8537214"><ele>5.25</ele><time>2026-03-22T08:39:39.292Z</time></trkpt><trkpt lat="45.807639" lon="12.8538568"><ele>5.0</ele><time>2026-03-22T08:39:40.287Z</time></trkpt><trkpt lat="45.8077035" lon="12.8540001"><ele>5.5</ele><time>2026-03-22T08:39:41.308Z</time></trkpt><trkpt lat="45.8077377" lon="12.854163"><ele>6.0</ele><time>2026-03-22T08:39:42.304Z</time></trkpt><trkpt lat="45.8077414" lon="12.8543386"><ele>6.5</ele><time>2026-03-22T08:39:43.28Z</time></trkpt><trkpt lat="45.8077314" lon="12.8545139"><ele>7.0</ele><time>2026-03-22T08:39:44.304Z</time></trkpt><trkpt lat="45.8077037" lon="12.8546894"><ele>7.0</ele><time>2026-03-22T08:39:45.276Z</time></trkpt><trkpt lat="45.8076608" lon="12.8548671"><ele>7.0</ele><time>2026-03-22T08:39:46.288Z</time></trkpt><trkpt lat="45.8075987" lon="12.8550411"><ele>7.0</ele><time>2026-03-22T08:39:47.272Z</time></trkpt><trkpt lat="45.8075336" lon="12.8552194"><ele>7.0</ele><time>2026-03-22T08:39:48.272Z</time></trkpt><trkpt lat="45.807468" lon="12.8554057"><ele>7.0</ele><time>2026-03-22T08:39:49.279Z</time></trkpt><trkpt lat="45.807389" lon="12.8555916"><ele>7.0</ele><time>2026-03-22T08:39:50.283Z</time></trkpt><trkpt lat="45.8073111" lon="12.855785"><ele>7.0</ele><time>2026-03-22T08:39:51.273Z</time></trkpt><trkpt lat="45.807237" lon="12.8559849"><ele>7.0</ele><time>2026-03-22T08:39:52.29Z</time></trkpt><trkpt lat="45.8071631" lon="12.8561904"><ele>7.0</ele><time>2026-03-22T08:39:53.284Z</time></trkpt><trkpt lat="45.8070867" lon="12.8563993"><ele>7.0</ele><time>2026-03-22T08:39:54.289Z</time></trkpt><trkpt lat="45.8070101" lon="12.8566104"><ele>7.0</ele><time>2026-03-22T08:39:55.27Z</time></trkpt><trkpt lat="45.8069324" lon="12.8568223"><ele>7.0</ele><time>2026-03-22T08:39:56.277Z</time></trkpt><trkpt lat="45.8068551" lon="12.857037"><ele>7.0</ele><time>2026-03-22T08:39:57.28Z</time></trkpt><trkpt lat="45.8067775" lon="12.8572526"><ele>7.0</ele><time>2026-03-22T08:39:58.281Z</time></trkpt><trkpt lat="45.8067028" lon="12.8574707"><ele>7.0</ele><time>2026-03-22T08:39:59.273Z</time></trkpt><trkpt lat="45.8066352" lon="12.8576929"><ele>7.0</ele><time>2026-03-22T08:40:00.286Z</time></trkpt><trkpt lat="45.8065878" lon="12.8579233"><ele>6.666666666666667</ele><time>2026-03-22T08:40:01.293Z</time></trkpt><trkpt lat="45.8065597" lon="12.8581559"><ele>6.333333333333334</ele><time>2026-03-22T08:40:02.278Z</time></trkpt><trkpt lat="45.8065462" lon="12.8583844"><ele>6.0</ele><time>2026-03-22T08:40:03.29Z</time></trkpt><trkpt lat="45.8065475" lon="12.8586123"><ele>6.0</ele><time>2026-03-22T08:40:04.261Z</time></trkpt><trkpt lat="45.8065621" lon="12.8588433"><ele>6.0</ele><time>2026-03-22T08:40:05.291Z</time></trkpt><trkpt lat="45.8065901" lon="12.8590747"><ele>6.0</ele><time>2026-03-22T08:40:06.296Z</time></trkpt><trkpt lat="45.806634" lon="12.8593042"><ele>6.0</ele><time>2026-03-22T08:40:07.275Z</time></trkpt><trkpt lat="45.8066886" lon="12.85953"><ele>6.0</ele><time>2026-03-22T08:40:08.261Z</time></trkpt><trkpt lat="45.8067634" lon="12.8597452"><ele>6.0</ele><time>2026-03-22T08:40:09.274Z</time></trkpt><trkpt lat="45.8068555" lon="12.8599478"><ele>6.333333333333334</ele><time>2026-03-22T08:40:10.27Z</time></trkpt><trkpt lat="45.8069643" lon="12.8601304"><ele>6.666666666666667</ele><time>2026-03-22T08:40:11.278Z</time></trkpt><trkpt lat="45.8070827" lon="12.8602961"><ele>7.0</ele><time>2026-03-22T08:40:12.277Z</time></trkpt><trkpt lat="45.8072041" lon="12.860451"><ele>7.0</ele><time>2026-03-22T08:40:13.279Z</time></trkpt><trkpt lat="45.807337" lon="12.860584"><ele>7.0</ele><time>2026-03-22T08:40:14.286Z</time></trkpt><trkpt lat="45.8074758" lon="12.8607069"><ele>7.0</ele><time>2026-03-22T08:40:15.283Z</time></trkpt><trkpt lat="45.8076214" lon="12.8608172"><ele>6.666666666666667</ele><time>2026-03-22T08:40:16.291Z</time></trkpt><trkpt lat="45.8077657" lon="12.8609331"><ele>6.333333333333334</ele><time>2026-03-22T08:40:17.279Z</time></trkpt><trkpt lat="45.807912" lon="12.861047"><ele>6.0</ele><time>2026-03-22T08:40:18.282Z</time></trkpt><trkpt lat="45.808065" lon="12.8611492"><ele>6.0</ele><time>2026-03-22T08:40:19.285Z</time></trkpt><trkpt lat="45.8082139" lon="12.8612659"><ele>6.0</ele><time>2026-03-22T08:40:20.281Z</time></trkpt><trkpt lat="45.8083598" lon="12.8613921"><ele>6.0</ele><time>2026-03-22T08:40:21.29Z</time></trkpt><trkpt lat="45.8085045" lon="12.8615186"><ele>6.666666666666666</ele><time>2026-03-22T08:40:22.289Z</time></trkpt><trkpt lat="45.8086515" lon="12.8616329"><ele>7.333333333333333</ele><time>2026-03-22T08:40:23.281Z</time></trkpt><trkpt lat="45.8087941" lon="12.861745"><ele>8.0</ele><time>2026-03-22T08:40:24.29Z</time></trkpt><trkpt lat="45.8089301" lon="12.8618556"><ele>8.0</ele><time>2026-03-22T08:40:25.299Z</time></trkpt><trkpt lat="45.8090635" lon="12.8619608"><ele>8.0</ele><time>2026-03-22T08:40:26.281Z</time></trkpt><trkpt lat="45.8091916" lon="12.8620679"><ele>8.0</ele><time>2026-03-22T08:40:27.299Z</time></trkpt><trkpt lat="45.8093203" lon="12.8621606"><ele>8.0</ele><time>2026-03-22T08:40:28.278Z</time></trkpt><trkpt lat="45.809443" lon="12.8622542"><ele>7.5</ele><time>2026-03-22T08:40:29.291Z</time></trkpt><trkpt lat="45.8095633" lon="12.8623396"><ele>7.0</ele><time>2026-03-22T08:40:30.289Z</time></trkpt><trkpt lat="45.8096787" lon="12.8624243"><ele>6.5</ele><time>2026-03-22T08:40:31.295Z</time></trkpt><trkpt lat="45.8097895" lon="12.8625094"><ele>6.0</ele><time>2026-03-22T08:40:32.272Z</time></trkpt><trkpt lat="45.8098942" lon="12.8625965"><ele>6.0</ele><time>2026-03-22T08:40:33.283Z</time></trkpt><trkpt lat="45.8099995" lon="12.8626676"><ele>6.0</ele><time>2026-03-22T08:40:34.267Z</time></trkpt><trkpt lat="45.810097" lon="12.8627465"><ele>6.0</ele><time>2026-03-22T08:40:35.284Z</time></trkpt><trkpt lat="45.8101909" lon="12.8628229"><ele>6.0</ele><time>2026-03-22T08:40:36.281Z</time></trkpt><trkpt lat="45.8102774" lon="12.8629039"><ele>6.0</ele><time>2026-03-22T08:40:37.283Z</time></trkpt><trkpt lat="45.8103487" lon="12.8629975"><ele>6.0</ele><time>2026-03-22T08:40:38.298Z</time></trkpt><trkpt lat="45.8104026" lon="12.863097"><ele>6.0</ele><time>2026-03-22T08:40:39.279Z</time></trkpt><trkpt lat="45.8104413" lon="12.8631999"><ele>6.0</ele><time>2026-03-22T08:40:40.282Z</time></trkpt><trkpt lat="45.8105129" lon="12.8632534"><ele>6.0</ele><time>2026-03-22T08:40:41.276Z</time></trkpt><trkpt lat="45.8105953" lon="12.8632696"><ele>6.0</ele><time>2026-03-22T08:40:42.274Z</time></trkpt><trkpt lat="45.8106887" lon="12.8632716"><ele>6.0</ele><time>2026-03-22T08:40:43.275Z</time></trkpt><trkpt lat="45.8108111" lon="12.8632629"><ele>6.0</ele><time>2026-03-22T08:40:44.269Z</time></trkpt><trkpt lat="45.8109541" lon="12.8632981"><ele>6.0</ele><time>2026-03-22T08:40:45.275Z</time></trkpt><trkpt lat="45.8111007" lon="12.8633725"><ele>6.0</ele><time>2026-03-22T08:40:46.279Z</time></trkpt><trkpt lat="45.8112473" lon="12.8634559"><ele>6.0</ele><time>2026-03-22T08:40:47.281Z</time></trkpt><trkpt lat="45.8113981" lon="12.8635232"><ele>6.0</ele><time>2026-03-22T08:40:48.28Z</time></trkpt><trkpt lat="45.8115501" lon="12.8635864"><ele>6.0</ele><time>2026-03-22T08:40:49.279Z</time></trkpt><trkpt lat="45.8117021" lon="12.8636532"><ele>5.666666666666667</ele><time>2026-03-22T08:40:50.276Z</time></trkpt><trkpt lat="45.8118549" lon="12.8637202"><ele>5.333333333333334</ele><time>2026-03-22T08:40:51.277Z</time></trkpt><trkpt lat="45.8120126" lon="12.8637742"><ele>5.0</ele><time>2026-03-22T08:40:52.276Z</time></trkpt><trkpt lat="45.8121719" lon="12.863836"><ele>5.0</ele><time>2026-03-22T08:40:53.279Z</time></trkpt><trkpt lat="45.8123357" lon="12.8638936"><ele>5.0</ele><time>2026-03-22T08:40:54.278Z</time></trkpt><trkpt lat="45.8125043" lon="12.8639437"><ele>5.0</ele><time>2026-03-22T08:40:55.293Z</time></trkpt><trkpt lat="45.8126758" lon="12.8639927"><ele>6.0</ele><time>2026-03-22T08:40:56.268Z</time></trkpt><trkpt lat="45.8128507" lon="12.8640372"><ele>7.0</ele><time>2026-03-22T08:40:57.292Z</time></trkpt><trkpt lat="45.8130309" lon="12.8640776"><ele>8.0</ele><time>2026-03-22T08:40:58.284Z</time></trkpt><trkpt lat="45.8132162" lon="12.8641188"><ele>8.0</ele><time>2026-03-22T08:40:59.298Z</time></trkpt><trkpt lat="45.8134069" lon="12.8641628"><ele>8.0</ele><time>2026-03-22T08:41:00.288Z</time></trkpt><trkpt lat="45.813604" lon="12.8641987"><ele>8.0</ele><time>2026-03-22T08:41:01.292Z</time></trkpt><trkpt lat="45.8138058" lon="12.864234"><ele>8.0</ele><time>2026-03-22T08:41:02.284Z</time></trkpt><trkpt lat="45.8140095" lon="12.8642798"><ele>8.0</ele><time>2026-03-22T08:41:03.283Z</time></trkpt><trkpt lat="45.8142167" lon="12.8643192"><ele>8.0</ele><time>2026-03-22T08:41:04.281Z</time></trkpt><trkpt lat="45.8144261" lon="12.8643493"><ele>8.0</ele><time>2026-03-22T08:41:05.283Z</time></trkpt><trkpt lat="45.814636" lon="12.8643851"><ele>8.0</ele><time>2026-03-22T08:41:06.272Z</time></trkpt><trkpt lat="45.8148478" lon="12.86442"><ele>8.0</ele><time>2026-03-22T08:41:07.274Z</time></trkpt><trkpt lat="45.8150604" lon="12.8644564"><ele>8.333333333333332</ele><time>2026-03-22T08:41:08.275Z</time></trkpt><trkpt lat="45.8152711" lon="12.8645058"><ele>8.666666666666666</ele><time>2026-03-22T08:41:09.288Z</time></trkpt><trkpt lat="45.8154835" lon="12.8645435"><ele>9.0</ele><time>2026-03-22T08:41:10.276Z</time></trkpt><trkpt lat="45.8156963" lon="12.8645826"><ele>9.0</ele><time>2026-03-22T08:41:11.292Z</time></trkpt><trkpt lat="45.8159063" lon="12.8646263"><ele>9.0</ele><time>2026-03-22T08:41:12.291Z</time></trkpt><trkpt lat="45.8161117" lon="12.8646623"><ele>9.0</ele><time>2026-03-22T08:41:13.284Z</time></trkpt><trkpt lat="45.8163102" lon="12.8647153"><ele>8.666666666666666</ele><time>2026-03-22T08:41:14.287Z</time></trkpt><trkpt lat="45.8165079" lon="12.8647452"><ele>8.333333333333332</ele><time>2026-03-22T08:41:15.285Z</time></trkpt><trkpt lat="45.8166992" lon="12.8647827"><ele>8.0</ele><time>2026-03-22T08:41:16.277Z</time></trkpt><trkpt lat="45.8168884" lon="12.8648145"><ele>8.0</ele><time>2026-03-22T08:41:17.301Z</time></trkpt><trkpt lat="45.8170762" lon="12.8648541"><ele>8.0</ele><time>2026-03-22T08:41:18.274Z</time></trkpt><trkpt lat="45.8172645" lon="12.864889"><ele>8.0</ele><time>2026-03-22T08:41:19.288Z</time></trkpt><trkpt lat="45.8174531" lon="12.8649237"><ele>8.0</ele><time>2026-03-22T08:41:20.281Z</time></trkpt><trkpt lat="45.8176423" lon="12.8649696"><ele>8.0</ele><time>2026-03-22T08:41:21.288Z</time></trkpt><trkpt lat="45.8178329" lon="12.8650215"><ele>8.0</ele><time>2026-03-22T08:41:22.282Z</time></trkpt><trkpt lat="45.8180231" lon="12.8650811"><ele>8.333333333333332</ele><time>2026-03-22T08:41:23.276Z</time></trkpt><trkpt lat="45.8182117" lon="12.86515"><ele>8.666666666666666</ele><time>2026-03-22T08:41:24.28Z</time></trkpt><trkpt lat="45.8183858" lon="12.8652555"><ele>9.0</ele><time>2026-03-22T08:41:25.281Z</time></trkpt><trkpt lat="45.81854" lon="12.8653911"><ele>9.0</ele><time>2026-03-22T08:41:26.296Z</time></trkpt><trkpt lat="45.818686" lon="12.8655233"><ele>9.0</ele><time>2026-03-22T08:41:27.28Z</time></trkpt><trkpt lat="45.8188257" lon="12.8656598"><ele>9.0</ele><time>2026-03-22T08:41:28.277Z</time></trkpt><trkpt lat="45.8189552" lon="12.8658055"><ele>9.0</ele><time>2026-03-22T08:41:29.289Z</time></trkpt><trkpt lat="45.8190793" lon="12.8659383"><ele>9.0</ele><time>2026-03-22T08:41:30.28Z</time></trkpt><trkpt lat="45.8191976" lon="12.8660631"><ele>9.0</ele><time>2026-03-22T08:41:31.284Z</time></trkpt><trkpt lat="45.8193087" lon="12.866183"><ele>9.0</ele><time>2026-03-22T08:41:32.291Z</time></trkpt><trkpt lat="45.8194182" lon="12.8662926"><ele>9.0</ele><time>2026-03-22T08:41:33.302Z</time></trkpt><trkpt lat="45.8195254" lon="12.8663935"><ele>9.0</ele><time>2026-03-22T08:41:34.271Z</time></trkpt><trkpt lat="45.8196266" lon="12.8664892"><ele>9.0</ele><time>2026-03-22T08:41:35.282Z</time></trkpt><trkpt lat="45.819715" lon="12.8665936"><ele>9.0</ele><time>2026-03-22T08:41:36.285Z</time></trkpt><trkpt lat="45.8197863" lon="12.8667009"><ele>8.833333333333334</ele><time>2026-03-22T08:41:37.283Z</time></trkpt><trkpt lat="45.8198491" lon="12.8667973"><ele>8.666666666666666</ele><time>2026-03-22T08:41:38.275Z</time></trkpt><trkpt lat="45.8198982" lon="12.8668978"><ele>8.5</ele><time>2026-03-22T08:41:39.261Z</time></trkpt><trkpt lat="45.8199327" lon="12.867007"><ele>8.333333333333332</ele><time>2026-03-22T08:41:40.278Z</time></trkpt><trkpt lat="45.8199671" lon="12.8671144"><ele>8.166666666666666</ele><time>2026-03-22T08:41:41.274Z</time></trkpt><trkpt lat="45.8200194" lon="12.8672132"><ele>8.0</ele><time>2026-03-22T08:41:42.278Z</time></trkpt><trkpt lat="45.8201012" lon="12.8672808"><ele>8.25</ele><time>2026-03-22T08:41:43.279Z</time></trkpt><trkpt lat="45.8201978" lon="12.8673195"><ele>8.5</ele><time>2026-03-22T08:41:44.272Z</time></trkpt><trkpt lat="45.8202977" lon="12.8673668"><ele>8.75</ele><time>2026-03-22T08:41:45.286Z</time></trkpt><trkpt lat="45.8204058" lon="12.867429"><ele>9.0</ele><time>2026-03-22T08:41:46.276Z</time></trkpt><trkpt lat="45.8205177" lon="12.8675245"><ele>8.75</ele><time>2026-03-22T08:41:47.281Z</time></trkpt><trkpt lat="45.8206322" lon="12.8676397"><ele>8.5</ele><time>2026-03-22T08:41:48.281Z</time></trkpt><trkpt lat="45.8207476" lon="12.867773"><ele>8.25</ele><time>2026-03-22T08:41:49.279Z</time></trkpt><trkpt lat="45.8208643" lon="12.8679248"><ele>8.0</ele><time>2026-03-22T08:41:50.287Z</time></trkpt><trkpt lat="45.820985" lon="12.8680926"><ele>7.666666666666666</ele><time>2026-03-22T08:41:51.279Z</time></trkpt><trkpt lat="45.8211198" lon="12.8682531"><ele>7.333333333333334</ele><time>2026-03-22T08:41:52.28Z</time></trkpt><trkpt lat="45.8212446" lon="12.8684314"><ele>7.0</ele><time>2026-03-22T08:41:53.271Z</time></trkpt><trkpt lat="45.8213719" lon="12.8686078"><ele>7.0</ele><time>2026-03-22T08:41:54.284Z</time></trkpt><trkpt lat="45.8215004" lon="12.8687825"><ele>7.0</ele><time>2026-03-22T08:41:55.263Z</time></trkpt><trkpt lat="45.8216263" lon="12.8689609"><ele>7.0</ele><time>2026-03-22T08:41:56.273Z</time></trkpt><trkpt lat="45.8217471" lon="12.8691472"><ele>7.0</ele><time>2026-03-22T08:41:57.275Z</time></trkpt><trkpt lat="45.8218707" lon="12.8693317"><ele>7.0</ele><time>2026-03-22T08:41:58.291Z</time></trkpt><trkpt lat="45.8219908" lon="12.8695227"><ele>7.0</ele><time>2026-03-22T08:41:59.279Z</time></trkpt><trkpt lat="45.8221122" lon="12.86972"><ele>7.0</ele><time>2026-03-22T08:42:00.287Z</time></trkpt><trkpt lat="45.8222328" lon="12.8699287"><ele>7.0</ele><time>2026-03-22T08:42:01.278Z</time></trkpt><trkpt lat="45.8223589" lon="12.8701376"><ele>7.0</ele><time>2026-03-22T08:42:02.269Z</time></trkpt><trkpt lat="45.8224873" lon="12.8703528"><ele>7.0</ele><time>2026-03-22T08:42:03.276Z</time></trkpt><trkpt lat="45.8226193" lon="12.8705711"><ele>7.0</ele><time>2026-03-22T08:42:04.279Z</time></trkpt><trkpt lat="45.8227522" lon="12.870797"><ele>7.0</ele><time>2026-03-22T08:42:05.283Z</time></trkpt><trkpt lat="45.8228843" lon="12.8710342"><ele>7.666666666666667</ele><time>2026-03-22T08:42:06.283Z</time></trkpt><trkpt lat="45.823019" lon="12.871275"><ele>8.333333333333334</ele><time>2026-03-22T08:42:07.288Z</time></trkpt><trkpt lat="45.8231521" lon="12.87152"><ele>9.0</ele><time>2026-03-22T08:42:08.28Z</time></trkpt><trkpt lat="45.8232836" lon="12.8717665"><ele>9.0</ele><time>2026-03-22T08:42:09.3Z</time></trkpt><trkpt lat="45.8234143" lon="12.8720116"><ele>9.0</ele><time>2026-03-22T08:42:10.276Z</time></trkpt><trkpt lat="45.8235428" lon="12.8722562"><ele>9.0</ele><time>2026-03-22T08:42:11.292Z</time></trkpt><trkpt lat="45.8236613" lon="12.8725074"><ele>9.0</ele><time>2026-03-22T08:42:12.283Z</time></trkpt><trkpt lat="45.8237824" lon="12.8727537"><ele>9.0</ele><time>2026-03-22T08:42:13.274Z</time></trkpt><trkpt lat="45.8238932" lon="12.8730101"><ele>9.0</ele><time>2026-03-22T08:42:14.283Z</time></trkpt><trkpt lat="45.8239989" lon="12.8732713"><ele>8.666666666666666</ele><time>2026-03-22T08:42:15.278Z</time></trkpt><trkpt lat="45.824107" lon="12.8735273"><ele>8.333333333333332</ele><time>2026-03-22T08:42:16.281Z</time></trkpt><trkpt lat="45.8242158" lon="12.8737798"><ele>8.0</ele><time>2026-03-22T08:42:17.288Z</time></trkpt><trkpt lat="45.8243229" lon="12.8740333"><ele>7.666666666666666</ele><time>2026-03-22T08:42:18.276Z</time></trkpt><trkpt lat="45.8244261" lon="12.8742882"><ele>7.333333333333334</ele><time>2026-03-22T08:42:19.281Z</time></trkpt><trkpt lat="45.8245243" lon="12.8745436"><ele>7.0</ele><time>2026-03-22T08:42:20.294Z</time></trkpt><trkpt lat="45.8246226" lon="12.8747921"><ele>7.0</ele><time>2026-03-22T08:42:21.286Z</time></trkpt><trkpt lat="45.8247154" lon="12.8750396"><ele>7.0</ele><time>2026-03-22T08:42:22.282Z</time></trkpt><trkpt lat="45.8248121" lon="12.8752797"><ele>7.0</ele><time>2026-03-22T08:42:23.288Z</time></trkpt><trkpt lat="45.8249022" lon="12.8755224"><ele>7.333333333333334</ele><time>2026-03-22T08:42:24.313Z</time></trkpt><trkpt lat="45.8249856" lon="12.8757689"><ele>7.666666666666666</ele><time>2026-03-22T08:42:25.286Z</time></trkpt><trkpt lat="45.8250705" lon="12.8760114"><ele>8.0</ele><time>2026-03-22T08:42:26.283Z</time></trkpt><trkpt lat="45.8251559" lon="12.8762508"><ele>8.333333333333332</ele><time>2026-03-22T08:42:27.287Z</time></trkpt><trkpt lat="45.8252423" lon="12.8764861"><ele>8.666666666666666</ele><time>2026-03-22T08:42:28.306Z</time></trkpt><trkpt lat="45.8253289" lon="12.8767147"><ele>9.0</ele><time>2026-03-22T08:42:29.284Z</time></trkpt><trkpt lat="45.8254094" lon="12.8769379"><ele>9.0</ele><time>2026-03-22T08:42:30.287Z</time></trkpt><trkpt lat="45.8254857" lon="12.8771538"><ele>9.0</ele><time>2026-03-22T08:42:31.285Z</time></trkpt><trkpt lat="45.8255621" lon="12.8773607"><ele>9.0</ele><time>2026-03-22T08:42:32.279Z</time></trkpt><trkpt lat="45.8256368" lon="12.8775599"><ele>9.0</ele><time>2026-03-22T08:42:33.285Z</time></trkpt><trkpt lat="45.8257083" lon="12.8777518"><ele>9.0</ele><time>2026-03-22T08:42:34.284Z</time></trkpt><trkpt lat="45.8257811" lon="12.8779323"><ele>9.0</ele><time>2026-03-22T08:42:35.282Z</time></trkpt><trkpt lat="45.8258453" lon="12.8781092"><ele>9.0</ele><time>2026-03-22T08:42:36.274Z</time></trkpt><trkpt lat="45.8259074" lon="12.8782766"><ele>9.0</ele><time>2026-03-22T08:42:37.284Z</time></trkpt><trkpt lat="45.825962" lon="12.8784346"><ele>9.0</ele><time>2026-03-22T08:42:38.28Z</time></trkpt><trkpt lat="45.8260067" lon="12.8785866"><ele>9.0</ele><time>2026-03-22T08:42:39.285Z</time></trkpt><trkpt lat="45.8260369" lon="12.8787277"><ele>9.0</ele><time>2026-03-22T08:42:40.289Z</time></trkpt><trkpt lat="45.8260529" lon="12.8788616"><ele>9.0</ele><time>2026-03-22T08:42:41.282Z</time></trkpt><trkpt lat="45.8260541" lon="12.8789974"><ele>8.8</ele><time>2026-03-22T08:42:42.272Z</time></trkpt><trkpt lat="45.8260489" lon="12.8791263"><ele>8.600000000000001</ele><time>2026-03-22T08:42:43.289Z</time></trkpt><trkpt lat="45.8260673" lon="12.8792484"><ele>8.4</ele><time>2026-03-22T08:42:44.281Z</time></trkpt><trkpt lat="45.8261258" lon="12.8793439"><ele>8.200000000000001</ele><time>2026-03-22T08:42:45.275Z</time></trkpt><trkpt lat="45.8262035" lon="12.879424"><ele>8.0</ele><time>2026-03-22T08:42:46.285Z</time></trkpt><trkpt lat="45.8263004" lon="12.8794955"><ele>8.5</ele><time>2026-03-22T08:42:47.279Z</time></trkpt><trkpt lat="45.8263911" lon="12.8796134"><ele>9.0</ele><time>2026-03-22T08:42:48.274Z</time></trkpt><trkpt lat="45.8264622" lon="12.8797932"><ele>9.5</ele><time>2026-03-22T08:42:49.285Z</time></trkpt><trkpt lat="45.8265251" lon="12.8800001"><ele>10.0</ele><time>2026-03-22T08:42:50.28Z</time></trkpt><trkpt lat="45.826602" lon="12.8802028"><ele>10.333333333333334</ele><time>2026-03-22T08:42:51.275Z</time></trkpt><trkpt lat="45.8266729" lon="12.8804078"><ele>10.666666666666666</ele><time>2026-03-22T08:42:52.274Z</time></trkpt><trkpt lat="45.8267526" lon="12.8806146"><ele>11.0</ele><time>2026-03-22T08:42:53.281Z</time></trkpt><trkpt lat="45.8268296" lon="12.8808247"><ele>11.0</ele><time>2026-03-22T08:42:54.281Z</time></trkpt><trkpt lat="45.8269077" lon="12.8810317"><ele>11.0</ele><time>2026-03-22T08:42:55.273Z</time></trkpt><trkpt lat="45.8269833" lon="12.8812399"><ele>11.0</ele><time>2026-03-22T08:42:56.274Z</time></trkpt><trkpt lat="45.8270578" lon="12.8814509"><ele>11.0</ele><time>2026-03-22T08:42:57.279Z</time></trkpt><trkpt lat="45.8271354" lon="12.8816633"><ele>11.0</ele><time>2026-03-22T08:42:58.266Z</time></trkpt><trkpt lat="45.8272075" lon="12.8818833"><ele>11.0</ele><time>2026-03-22T08:42:59.284Z</time></trkpt><trkpt lat="45.82728" lon="12.8821113"><ele>10.333333333333332</ele><time>2026-03-22T08:43:00.28Z</time></trkpt><trkpt lat="45.8273655" lon="12.8823362"><ele>9.666666666666666</ele><time>2026-03-22T08:43:01.281Z</time></trkpt><trkpt lat="45.8274451" lon="12.8825763"><ele>9.0</ele><time>2026-03-22T08:43:02.277Z</time></trkpt><trkpt lat="45.8275384" lon="12.8828142"><ele>9.0</ele><time>2026-03-22T08:43:03.278Z</time></trkpt><trkpt lat="45.8276269" lon="12.8830605"><ele>9.0</ele><time>2026-03-22T08:43:04.273Z</time></trkpt><trkpt lat="45.8277158" lon="12.8833084"><ele>9.0</ele><time>2026-03-22T08:43:05.279Z</time></trkpt><trkpt lat="45.8278102" lon="12.8835563"><ele>9.333333333333334</ele><time>2026-03-22T08:43:06.277Z</time></trkpt><trkpt lat="45.8279071" lon="12.8838125"><ele>9.666666666666668</ele><time>2026-03-22T08:43:07.275Z</time></trkpt><trkpt lat="45.8279998" lon="12.8840784"><ele>10.0</ele><time>2026-03-22T08:43:08.282Z</time></trkpt><trkpt lat="45.828088" lon="12.8843528"><ele>10.333333333333334</ele><time>2026-03-22T08:43:09.292Z</time></trkpt><trkpt lat="45.8281754" lon="12.8846314"><ele>10.666666666666666</ele><time>2026-03-22T08:43:10.282Z</time></trkpt><trkpt lat="45.828271" lon="12.884909"><ele>11.0</ele><time>2026-03-22T08:43:11.28Z</time></trkpt><trkpt lat="45.8283835" lon="12.8851773"><ele>10.333333333333332</ele><time>2026-03-22T08:43:12.28Z</time></trkpt><trkpt lat="45.8284855" lon="12.8854565"><ele>9.666666666666666</ele><time>2026-03-22T08:43:13.29Z</time></trkpt><trkpt lat="45.8285925" lon="12.885732"><ele>9.0</ele><time>2026-03-22T08:43:14.294Z</time></trkpt><trkpt lat="45.8286967" lon="12.8860076"><ele>9.0</ele><time>2026-03-22T08:43:15.28Z</time></trkpt><trkpt lat="45.8288" lon="12.8862847"><ele>9.0</ele><time>2026-03-22T08:43:16.289Z</time></trkpt><trkpt lat="45.8288974" lon="12.8865669"><ele>9.0</ele><time>2026-03-22T08:43:17.285Z</time></trkpt><trkpt lat="45.8290006" lon="12.886845"><ele>9.0</ele><time>2026-03-22T08:43:18.28Z</time></trkpt><trkpt lat="45.8291039" lon="12.8871238"><ele>9.0</ele><time>2026-03-22T08:43:19.308Z</time></trkpt><trkpt lat="45.8292068" lon="12.8874036"><ele>9.0</ele><time>2026-03-22T08:43:20.295Z</time></trkpt><trkpt lat="45.8293085" lon="12.887684"><ele>9.0</ele><time>2026-03-22T08:43:21.282Z</time></trkpt><trkpt lat="45.8294082" lon="12.8879655"><ele>9.0</ele><time>2026-03-22T08:43:22.279Z</time></trkpt><trkpt lat="45.8295077" lon="12.8882453"><ele>9.0</ele><time>2026-03-22T08:43:23.291Z</time></trkpt><trkpt lat="45.8296041" lon="12.8885259"><ele>9.0</ele><time>2026-03-22T08:43:24.279Z</time></trkpt><trkpt lat="45.8297042" lon="12.8888029"><ele>9.0</ele><time>2026-03-22T08:43:25.275Z</time></trkpt><trkpt lat="45.8298046" lon="12.8890777"><ele>9.0</ele><time>2026-03-22T08:43:26.281Z</time></trkpt><trkpt lat="45.8299121" lon="12.8893466"><ele>9.333333333333334</ele><time>2026-03-22T08:43:27.288Z</time></trkpt><trkpt lat="45.8300137" lon="12.8896196"><ele>9.666666666666668</ele><time>2026-03-22T08:43:28.294Z</time></trkpt><trkpt lat="45.8301125" lon="12.889895"><ele>10.0</ele><time>2026-03-22T08:43:29.294Z</time></trkpt><trkpt lat="45.8302057" lon="12.8901743"><ele>10.333333333333334</ele><time>2026-03-22T08:43:30.284Z</time></trkpt><trkpt lat="45.8303022" lon="12.8904508"><ele>10.666666666666666</ele><time>2026-03-22T08:43:31.278Z</time></trkpt><trkpt lat="45.8304005" lon="12.8907263"><ele>11.0</ele><time>2026-03-22T08:43:32.283Z</time></trkpt><trkpt lat="45.8304991" lon="12.8910011"><ele>11.0</ele><time>2026-03-22T08:43:33.277Z</time></trkpt><trkpt lat="45.8306049" lon="12.8912708"><ele>11.0</ele><time>2026-03-22T08:43:34.28Z</time></trkpt><trkpt lat="45.830708" lon="12.8915422"><ele>11.0</ele><time>2026-03-22T08:43:35.292Z</time></trkpt><trkpt lat="45.830807" lon="12.8918167"><ele>11.0</ele><time>2026-03-22T08:43:36.285Z</time></trkpt><trkpt lat="45.8309104" lon="12.8920882"><ele>11.0</ele><time>2026-03-22T08:43:37.29Z</time></trkpt><trkpt lat="45.8310071" lon="12.892364"><ele>11.0</ele><time>2026-03-22T08:43:38.288Z</time></trkpt><trkpt lat="45.831108" lon="12.8926363"><ele>11.0</ele><time>2026-03-22T08:43:39.28Z</time></trkpt><trkpt lat="45.8312112" lon="12.8929066"><ele>11.0</ele><time>2026-03-22T08:43:40.28Z</time></trkpt><trkpt lat="45.8313087" lon="12.8931799"><ele>11.0</ele><time>2026-03-22T08:43:41.308Z</time></trkpt><trkpt lat="45.8314009" lon="12.8934555"><ele>11.0</ele><time>2026-03-22T08:43:42.281Z</time></trkpt><trkpt lat="45.8314984" lon="12.8937254"><ele>11.0</ele><time>2026-03-22T08:43:43.31Z</time></trkpt><trkpt lat="45.8315934" lon="12.8939948"><ele>11.0</ele><time>2026-03-22T08:43:44.288Z</time></trkpt><trkpt lat="45.8316942" lon="12.894258"><ele>11.0</ele><time>2026-03-22T08:43:45.292Z</time></trkpt><trkpt lat="45.8317873" lon="12.8945253"><ele>11.0</ele><time>2026-03-22T08:43:46.286Z</time></trkpt><trkpt lat="45.831886" lon="12.894787"><ele>11.0</ele><time>2026-03-22T08:43:47.285Z</time></trkpt><trkpt lat="45.8319851" lon="12.8950484"><ele>10.666666666666666</ele><time>2026-03-22T08:43:48.288Z</time></trkpt><trkpt lat="45.8320855" lon="12.8953091"><ele>10.333333333333334</ele><time>2026-03-22T08:43:49.289Z</time></trkpt><trkpt lat="45.8321754" lon="12.8955779"><ele>10.0</ele><time>2026-03-22T08:43:50.295Z</time></trkpt><trkpt lat="45.8322795" lon="12.8958384"><ele>10.333333333333334</ele><time>2026-03-22T08:43:51.283Z</time></trkpt><trkpt lat="45.8323795" lon="12.8961043"><ele>10.666666666666666</ele><time>2026-03-22T08:43:52.285Z</time></trkpt><trkpt lat="45.8324799" lon="12.8963726"><ele>11.0</ele><time>2026-03-22T08:43:53.293Z</time></trkpt><trkpt lat="45.8325805" lon="12.8966434"><ele>10.666666666666666</ele><time>2026-03-22T08:43:54.273Z</time></trkpt><trkpt lat="45.832677" lon="12.8969184"><ele>10.333333333333334</ele><time>2026-03-22T08:43:55.288Z</time></trkpt><trkpt lat="45.8327802" lon="12.8971913"><ele>10.0</ele><time>2026-03-22T08:43:56.291Z</time></trkpt><trkpt lat="45.8328755" lon="12.8974736"><ele>10.333333333333334</ele><time>2026-03-22T08:43:57.296Z</time></trkpt><trkpt lat="45.8329803" lon="12.8977507"><ele>10.666666666666666</ele><time>2026-03-22T08:43:58.318Z</time></trkpt><trkpt lat="45.8330865" lon="12.8980279"><ele>11.0</ele><time>2026-03-22T08:43:59.293Z</time></trkpt><trkpt lat="45.8331783" lon="12.8983158"><ele>11.0</ele><time>2026-03-22T08:44:00.29Z</time></trkpt><trkpt lat="45.8332777" lon="12.8985976"><ele>11.0</ele><time>2026-03-22T08:44:01.318Z</time></trkpt><trkpt lat="45.8333839" lon="12.8988737"><ele>11.0</ele><time>2026-03-22T08:44:02.284Z</time></trkpt><trkpt lat="45.8334819" lon="12.8991522"><ele>11.0</ele><time>2026-03-22T08:44:03.297Z</time></trkpt><trkpt lat="45.8335823" lon="12.8994204"><ele>11.0</ele><time>2026-03-22T08:44:04.279Z</time></trkpt><trkpt lat="45.8336811" lon="12.8996803"><ele>11.0</ele><time>2026-03-22T08:44:05.292Z</time></trkpt><trkpt lat="45.8337715" lon="12.8999395"><ele>11.0</ele><time>2026-03-22T08:44:06.303Z</time></trkpt><trkpt lat="45.8338684" lon="12.9001928"><ele>11.0</ele><time>2026-03-22T08:44:07.292Z</time></trkpt><trkpt lat="45.8339576" lon="12.9004541"><ele>11.0</ele><time>2026-03-22T08:44:08.284Z</time></trkpt><trkpt lat="45.8340513" lon="12.9007146"><ele>11.0</ele><time>2026-03-22T08:44:09.28Z</time></trkpt><trkpt lat="45.834147" lon="12.9009766"><ele>11.0</ele><time>2026-03-22T08:44:10.295Z</time></trkpt><trkpt lat="45.8342426" lon="12.9012413"><ele>11.0</ele><time>2026-03-22T08:44:11.278Z</time></trkpt><trkpt lat="45.8343373" lon="12.9015115"><ele>11.0</ele><time>2026-03-22T08:44:12.289Z</time></trkpt><trkpt lat="45.8344345" lon="12.9017853"><ele>11.0</ele><time>2026-03-22T08:44:13.28Z</time></trkpt><trkpt lat="45.8345415" lon="12.902055"><ele>11.0</ele><time>2026-03-22T08:44:14.279Z</time></trkpt><trkpt lat="45.8346465" lon="12.9023276"><ele>10.666666666666666</ele><time>2026-03-22T08:44:15.284Z</time></trkpt><trkpt lat="45.8347387" lon="12.902612"><ele>10.333333333333334</ele><time>2026-03-22T08:44:16.283Z</time></trkpt><trkpt lat="45.834837" lon="12.9028933"><ele>10.0</ele><time>2026-03-22T08:44:17.296Z</time></trkpt><trkpt lat="45.8349379" lon="12.9031733"><ele>10.333333333333334</ele><time>2026-03-22T08:44:18.285Z</time></trkpt><trkpt lat="45.8350415" lon="12.9034512"><ele>10.666666666666666</ele><time>2026-03-22T08:44:19.279Z</time></trkpt><trkpt lat="45.8351478" lon="12.903727"><ele>11.0</ele><time>2026-03-22T08:44:20.283Z</time></trkpt><trkpt lat="45.8352538" lon="12.904004"><ele>10.666666666666666</ele><time>2026-03-22T08:44:21.283Z</time></trkpt><trkpt lat="45.8353606" lon="12.9042839"><ele>10.333333333333334</ele><time>2026-03-22T08:44:22.278Z</time></trkpt><trkpt lat="45.8354592" lon="12.9045716"><ele>10.0</ele><time>2026-03-22T08:44:23.287Z</time></trkpt><trkpt lat="45.8355616" lon="12.9048576"><ele>10.0</ele><time>2026-03-22T08:44:24.297Z</time></trkpt><trkpt lat="45.8356651" lon="12.9051443"><ele>10.0</ele><time>2026-03-22T08:44:25.278Z</time></trkpt><trkpt lat="45.835768" lon="12.9054336"><ele>10.0</ele><time>2026-03-22T08:44:26.293Z</time></trkpt><trkpt lat="45.8358674" lon="12.9057247"><ele>10.0</ele><time>2026-03-22T08:44:27.297Z</time></trkpt><trkpt lat="45.8359708" lon="12.9060129"><ele>10.0</ele><time>2026-03-22T08:44:28.281Z</time></trkpt><trkpt lat="45.8360767" lon="12.9062979"><ele>10.0</ele><time>2026-03-22T08:44:29.308Z</time></trkpt><trkpt lat="45.8361811" lon="12.9065829"><ele>10.0</ele><time>2026-03-22T08:44:30.286Z</time></trkpt><trkpt lat="45.8362835" lon="12.9068673"><ele>10.0</ele><time>2026-03-22T08:44:31.291Z</time></trkpt><trkpt lat="45.8363816" lon="12.9071475"><ele>10.0</ele><time>2026-03-22T08:44:32.287Z</time></trkpt><trkpt lat="45.8364773" lon="12.9074242"><ele>10.0</ele><time>2026-03-22T08:44:33.29Z</time></trkpt><trkpt lat="45.8365787" lon="12.9076955"><ele>10.0</ele><time>2026-03-22T08:44:34.284Z</time></trkpt><trkpt lat="45.8366814" lon="12.9079647"><ele>10.0</ele><time>2026-03-22T08:44:35.288Z</time></trkpt><trkpt lat="45.8367738" lon="12.9082385"><ele>10.0</ele><time>2026-03-22T08:44:36.288Z</time></trkpt><trkpt lat="45.8368744" lon="12.9085057"><ele>10.0</ele><time>2026-03-22T08:44:37.28Z</time></trkpt><trkpt lat="45.836972" lon="12.9087747"><ele>10.0</ele><time>2026-03-22T08:44:38.291Z</time></trkpt><trkpt lat="45.8370707" lon="12.9090435"><ele>10.0</ele><time>2026-03-22T08:44:39.304Z</time></trkpt><trkpt lat="45.837164" lon="12.9093173"><ele>10.0</ele><time>2026-03-22T08:44:40.276Z</time></trkpt><trkpt lat="45.8372737" lon="12.9095798"><ele>10.0</ele><time>2026-03-22T08:44:41.276Z</time></trkpt><trkpt lat="45.8373679" lon="12.9098547"><ele>10.0</ele><time>2026-03-22T08:44:42.275Z</time></trkpt><trkpt lat="45.8374597" lon="12.9101309"><ele>10.0</ele><time>2026-03-22T08:44:43.271Z</time></trkpt><trkpt lat="45.8375614" lon="12.9103985"><ele>10.0</ele><time>2026-03-22T08:44:44.273Z</time></trkpt><trkpt lat="45.8376575" lon="12.9106696"><ele>10.0</ele><time>2026-03-22T08:44:45.282Z</time></trkpt><trkpt lat="45.8377537" lon="12.9109403"><ele>9.666666666666668</ele><time>2026-03-22T08:44:46.276Z</time></trkpt><trkpt lat="45.8378537" lon="12.9112088"><ele>9.333333333333334</ele><time>2026-03-22T08:44:47.271Z</time></trkpt><trkpt lat="45.8379477" lon="12.9114824"><ele>9.0</ele><time>2026-03-22T08:44:48.285Z</time></trkpt><trkpt lat="45.8380481" lon="12.9117517"><ele>9.0</ele><time>2026-03-22T08:44:49.277Z</time></trkpt><trkpt lat="45.8381446" lon="12.9120238"><ele>9.0</ele><time>2026-03-22T08:44:50.274Z</time></trkpt><trkpt lat="45.838245" lon="12.9122929"><ele>9.0</ele><time>2026-03-22T08:44:51.277Z</time></trkpt><trkpt lat="45.8383494" lon="12.9125589"><ele>8.666666666666666</ele><time>2026-03-22T08:44:52.267Z</time></trkpt><trkpt lat="45.8384399" lon="12.9128349"><ele>8.333333333333332</ele><time>2026-03-22T08:44:53.292Z</time></trkpt><trkpt lat="45.8385466" lon="12.9130989"><ele>8.0</ele><time>2026-03-22T08:44:54.276Z</time></trkpt><trkpt lat="45.83864" lon="12.9133725"><ele>8.333333333333332</ele><time>2026-03-22T08:44:55.278Z</time></trkpt><trkpt lat="45.8387387" lon="12.9136425"><ele>8.666666666666666</ele><time>2026-03-22T08:44:56.278Z</time></trkpt><trkpt lat="45.8388378" lon="12.9139126"><ele>9.0</ele><time>2026-03-22T08:44:57.286Z</time></trkpt><trkpt lat="45.8389368" lon="12.9141834"><ele>9.0</ele><time>2026-03-22T08:44:58.269Z</time></trkpt><trkpt lat="45.8390275" lon="12.9144603"><ele>9.0</ele><time>2026-03-22T08:44:59.297Z</time></trkpt><trkpt lat="45.8391249" lon="12.9147321"><ele>9.0</ele><time>2026-03-22T08:45:00.273Z</time></trkpt><trkpt lat="45.8392228" lon="12.915003"><ele>8.333333333333334</ele><time>2026-03-22T08:45:01.28Z</time></trkpt><trkpt lat="45.8393219" lon="12.9152724"><ele>7.666666666666667</ele><time>2026-03-22T08:45:02.275Z</time></trkpt><trkpt lat="45.8394187" lon="12.9155425"><ele>7.0</ele><time>2026-03-22T08:45:03.278Z</time></trkpt><trkpt lat="45.8395149" lon="12.9158128"><ele>7.0</ele><time>2026-03-22T08:45:04.271Z</time></trkpt><trkpt lat="45.839613" lon="12.9160811"><ele>7.0</ele><time>2026-03-22T08:45:05.268Z</time></trkpt><trkpt lat="45.8397168" lon="12.9163454"><ele>7.0</ele><time>2026-03-22T08:45:06.268Z</time></trkpt><trkpt lat="45.8398198" lon="12.9166117"><ele>7.0</ele><time>2026-03-22T08:45:07.282Z</time></trkpt><trkpt lat="45.8399209" lon="12.9168807"><ele>7.0</ele><time>2026-03-22T08:45:08.271Z</time></trkpt><trkpt lat="45.8400189" lon="12.9171521"><ele>7.0</ele><time>2026-03-22T08:45:09.276Z</time></trkpt><trkpt lat="45.840114" lon="12.9174252"><ele>6.666666666666667</ele><time>2026-03-22T08:45:10.276Z</time></trkpt><trkpt lat="45.8402095" lon="12.917698"><ele>6.333333333333334</ele><time>2026-03-22T08:45:11.278Z</time></trkpt><trkpt lat="45.8403041" lon="12.917971"><ele>6.0</ele><time>2026-03-22T08:45:12.285Z</time></trkpt><trkpt lat="45.8404054" lon="12.9182386"><ele>6.666666666666666</ele><time>2026-03-22T08:45:13.276Z</time></trkpt><trkpt lat="45.840504" lon="12.9185082"><ele>7.333333333333333</ele><time>2026-03-22T08:45:14.277Z</time></trkpt><trkpt lat="45.8405992" lon="12.9187812"><ele>8.0</ele><time>2026-03-22T08:45:15.275Z</time></trkpt><trkpt lat="45.8407028" lon="12.9190481"><ele>8.0</ele><time>2026-03-22T08:45:16.267Z</time></trkpt><trkpt lat="45.8407943" lon="12.9193242"><ele>8.0</ele><time>2026-03-22T08:45:17.284Z</time></trkpt><trkpt lat="45.8408989" lon="12.9195897"><ele>8.0</ele><time>2026-03-22T08:45:18.285Z</time></trkpt><trkpt lat="45.8409917" lon="12.9198638"><ele>8.0</ele><time>2026-03-22T08:45:19.292Z</time></trkpt><trkpt lat="45.841091" lon="12.9201332"><ele>8.0</ele><time>2026-03-22T08:45:20.273Z</time></trkpt><trkpt lat="45.8411817" lon="12.920409"><ele>8.0</ele><time>2026-03-22T08:45:21.275Z</time></trkpt><trkpt lat="45.8412769" lon="12.9206814"><ele>8.333333333333332</ele><time>2026-03-22T08:45:22.273Z</time></trkpt><trkpt lat="45.8413729" lon="12.9209537"><ele>8.666666666666666</ele><time>2026-03-22T08:45:23.277Z</time></trkpt><trkpt lat="45.8414727" lon="12.9212239"><ele>9.0</ele><time>2026-03-22T08:45:24.283Z</time></trkpt><trkpt lat="45.8415692" lon="12.9214965"><ele>9.0</ele><time>2026-03-22T08:45:25.278Z</time></trkpt><trkpt lat="45.8416699" lon="12.9217651"><ele>9.0</ele><time>2026-03-22T08:45:26.283Z</time></trkpt><trkpt lat="45.8417651" lon="12.9220373"><ele>9.0</ele><time>2026-03-22T08:45:27.307Z</time></trkpt><trkpt lat="45.8418629" lon="12.9223075"><ele>9.666666666666666</ele><time>2026-03-22T08:45:28.281Z</time></trkpt><trkpt lat="45.8419635" lon="12.922576"><ele>10.333333333333332</ele><time>2026-03-22T08:45:29.281Z</time></trkpt><trkpt lat="45.842067" lon="12.9228427"><ele>11.0</ele><time>2026-03-22T08:45:30.258Z</time></trkpt><trkpt lat="45.8421668" lon="12.9231121"><ele>11.0</ele><time>2026-03-22T08:45:31.28Z</time></trkpt><trkpt lat="45.8422641" lon="12.9233831"><ele>11.0</ele><time>2026-03-22T08:45:32.273Z</time></trkpt><trkpt lat="45.8423595" lon="12.9236555"><ele>11.0</ele><time>2026-03-22T08:45:33.276Z</time></trkpt><trkpt lat="45.8424563" lon="12.9239268"><ele>11.0</ele><time>2026-03-22T08:45:34.287Z</time></trkpt><trkpt lat="45.8425555" lon="12.9241961"><ele>11.0</ele><time>2026-03-22T08:45:35.27Z</time></trkpt><trkpt lat="45.842656" lon="12.9244647"><ele>11.0</ele><time>2026-03-22T08:45:36.282Z</time></trkpt><trkpt lat="45.8427505" lon="12.9247385"><ele>10.666666666666666</ele><time>2026-03-22T08:45:37.291Z</time></trkpt><trkpt lat="45.8428494" lon="12.925009"><ele>10.333333333333334</ele><time>2026-03-22T08:45:38.295Z</time></trkpt><trkpt lat="45.8429508" lon="12.9252776"><ele>10.0</ele><time>2026-03-22T08:45:39.292Z</time></trkpt><trkpt lat="45.8430489" lon="12.9255488"><ele>10.0</ele><time>2026-03-22T08:45:40.298Z</time></trkpt><trkpt lat="45.8431466" lon="12.92582"><ele>10.0</ele><time>2026-03-22T08:45:41.295Z</time></trkpt><trkpt lat="45.8432436" lon="12.9260916"><ele>10.0</ele><time>2026-03-22T08:45:42.291Z</time></trkpt><trkpt lat="45.8433434" lon="12.92636"><ele>10.333333333333334</ele><time>2026-03-22T08:45:43.288Z</time></trkpt><trkpt lat="45.8434431" lon="12.9266246"><ele>10.666666666666666</ele><time>2026-03-22T08:45:44.282Z</time></trkpt><trkpt lat="45.8435455" lon="12.9268823"><ele>11.0</ele><time>2026-03-22T08:45:45.295Z</time></trkpt><trkpt lat="45.8436396" lon="12.9271435"><ele>10.0</ele><time>2026-03-22T08:45:46.286Z</time></trkpt><trkpt lat="45.8437329" lon="12.9274048"><ele>9.0</ele><time>2026-03-22T08:45:47.306Z</time></trkpt><trkpt lat="45.843824" lon="12.927668"><ele>8.0</ele><time>2026-03-22T08:45:48.281Z</time></trkpt><trkpt lat="45.8439184" lon="12.927927"><ele>8.0</ele><time>2026-03-22T08:45:49.279Z</time></trkpt><trkpt lat="45.8440105" lon="12.9281866"><ele>8.0</ele><time>2026-03-22T08:45:50.278Z</time></trkpt><trkpt lat="45.8440999" lon="12.9284473"><ele>8.0</ele><time>2026-03-22T08:45:51.286Z</time></trkpt><trkpt lat="45.8441994" lon="12.9287001"><ele>8.0</ele><time>2026-03-22T08:45:52.296Z</time></trkpt><trkpt lat="45.8442931" lon="12.9289588"><ele>8.0</ele><time>2026-03-22T08:45:53.273Z</time></trkpt><trkpt lat="45.8443882" lon="12.9292174"><ele>8.0</ele><time>2026-03-22T08:45:54.291Z</time></trkpt><trkpt lat="45.844483" lon="12.9294766"><ele>8.333333333333332</ele><time>2026-03-22T08:45:55.289Z</time></trkpt><trkpt lat="45.8445763" lon="12.9297368"><ele>8.666666666666666</ele><time>2026-03-22T08:45:56.28Z</time></trkpt><trkpt lat="45.844671" lon="12.9299949"><ele>9.0</ele><time>2026-03-22T08:45:57.298Z</time></trkpt><trkpt lat="45.8447628" lon="12.9302545"><ele>9.666666666666666</ele><time>2026-03-22T08:45:58.277Z</time></trkpt><trkpt lat="45.8448516" lon="12.9305169"><ele>10.333333333333332</ele><time>2026-03-22T08:45:59.278Z</time></trkpt><trkpt lat="45.8449456" lon="12.9307756"><ele>11.0</ele><time>2026-03-22T08:46:00.278Z</time></trkpt><trkpt lat="45.8450435" lon="12.9310325"><ele>11.0</ele><time>2026-03-22T08:46:01.284Z</time></trkpt><trkpt lat="45.8451385" lon="12.931293"><ele>11.0</ele><time>2026-03-22T08:46:02.299Z</time></trkpt><trkpt lat="45.8452376" lon="12.9315529"><ele>11.0</ele><time>2026-03-22T08:46:03.278Z</time></trkpt><trkpt lat="45.8453323" lon="12.9318169"><ele>11.0</ele><time>2026-03-22T08:46:04.279Z</time></trkpt><trkpt lat="45.8454259" lon="12.9320813"><ele>11.0</ele><time>2026-03-22T08:46:05.283Z</time></trkpt><trkpt lat="45.8455259" lon="12.9323406"><ele>11.0</ele><time>2026-03-22T08:46:06.277Z</time></trkpt><trkpt lat="45.8456191" lon="12.9326038"><ele>11.0</ele><time>2026-03-22T08:46:07.298Z</time></trkpt><trkpt lat="45.8457126" lon="12.9328654"><ele>11.0</ele><time>2026-03-22T08:46:08.307Z</time></trkpt><trkpt lat="45.8458104" lon="12.933124"><ele>11.0</ele><time>2026-03-22T08:46:09.287Z</time></trkpt><trkpt lat="45.8459041" lon="12.9333861"><ele>10.666666666666666</ele><time>2026-03-22T08:46:10.283Z</time></trkpt><trkpt lat="45.8459951" lon="12.9336503"><ele>10.333333333333334</ele><time>2026-03-22T08:46:11.298Z</time></trkpt><trkpt lat="45.8460894" lon="12.9339131"><ele>10.0</ele><time>2026-03-22T08:46:12.287Z</time></trkpt><trkpt lat="45.8461848" lon="12.9341754"><ele>10.333333333333334</ele><time>2026-03-22T08:46:13.302Z</time></trkpt><trkpt lat="45.8462773" lon="12.9344392"><ele>10.666666666666666</ele><time>2026-03-22T08:46:14.292Z</time></trkpt><trkpt lat="45.8463807" lon="12.934694"><ele>11.0</ele><time>2026-03-22T08:46:15.278Z</time></trkpt><trkpt lat="45.8464733" lon="12.934957"><ele>11.333333333333332</ele><time>2026-03-22T08:46:16.296Z</time></trkpt><trkpt lat="45.8465643" lon="12.9352212"><ele>11.666666666666666</ele><time>2026-03-22T08:46:17.298Z</time></trkpt><trkpt lat="45.8466621" lon="12.93548"><ele>12.0</ele><time>2026-03-22T08:46:18.274Z</time></trkpt><trkpt lat="45.8467551" lon="12.9357419"><ele>12.0</ele><time>2026-03-22T08:46:19.275Z</time></trkpt><trkpt lat="45.8468505" lon="12.9360025"><ele>12.0</ele><time>2026-03-22T08:46:20.278Z</time></trkpt><trkpt lat="45.8469439" lon="12.9362647"><ele>12.0</ele><time>2026-03-22T08:46:21.278Z</time></trkpt><trkpt lat="45.8470388" lon="12.9365257"><ele>12.333333333333332</ele><time>2026-03-22T08:46:22.285Z</time></trkpt><trkpt lat="45.8471395" lon="12.9367828"><ele>12.666666666666666</ele><time>2026-03-22T08:46:23.299Z</time></trkpt><trkpt lat="45.8472249" lon="12.9370525"><ele>13.0</ele><time>2026-03-22T08:46:24.3Z</time></trkpt><trkpt lat="45.8473213" lon="12.9373143"><ele>12.666666666666666</ele><time>2026-03-22T08:46:25.3Z</time></trkpt><trkpt lat="45.8474074" lon="12.9375833"><ele>12.333333333333332</ele><time>2026-03-22T08:46:26.298Z</time></trkpt><trkpt lat="45.8474966" lon="12.9378489"><ele>12.0</ele><time>2026-03-22T08:46:27.289Z</time></trkpt><trkpt lat="45.8475892" lon="12.9381112"><ele>12.0</ele><time>2026-03-22T08:46:28.29Z</time></trkpt><trkpt lat="45.8476798" lon="12.9383752"><ele>12.0</ele><time>2026-03-22T08:46:29.294Z</time></trkpt><trkpt lat="45.8477786" lon="12.9386337"><ele>12.0</ele><time>2026-03-22T08:46:30.277Z</time></trkpt><trkpt lat="45.847873" lon="12.938896"><ele>11.666666666666666</ele><time>2026-03-22T08:46:31.292Z</time></trkpt><trkpt lat="45.8479697" lon="12.9391566"><ele>11.333333333333332</ele><time>2026-03-22T08:46:32.291Z</time></trkpt><trkpt lat="45.8480796" lon="12.939406"><ele>11.0</ele><time>2026-03-22T08:46:33.286Z</time></trkpt><trkpt lat="45.848178" lon="12.9396642"><ele>11.333333333333332</ele><time>2026-03-22T08:46:34.291Z</time></trkpt><trkpt lat="45.8482814" lon="12.9399194"><ele>11.666666666666666</ele><time>2026-03-22T08:46:35.308Z</time></trkpt><trkpt lat="45.8483768" lon="12.940181"><ele>12.0</ele><time>2026-03-22T08:46:36.293Z</time></trkpt><trkpt lat="45.8484674" lon="12.9404466"><ele>12.0</ele><time>2026-03-22T08:46:37.3Z</time></trkpt><trkpt lat="45.8485567" lon="12.9407134"><ele>12.0</ele><time>2026-03-22T08:46:38.28Z</time></trkpt><trkpt lat="45.8486525" lon="12.9409749"><ele>12.0</ele><time>2026-03-22T08:46:39.286Z</time></trkpt><trkpt lat="45.8487468" lon="12.9412367"><ele>11.666666666666666</ele><time>2026-03-22T08:46:40.293Z</time></trkpt><trkpt lat="45.8488407" lon="12.9414966"><ele>11.333333333333332</ele><time>2026-03-22T08:46:41.301Z</time></trkpt><trkpt lat="45.8489351" lon="12.9417558"><ele>11.0</ele><time>2026-03-22T08:46:42.287Z</time></trkpt><trkpt lat="45.8490316" lon="12.942015"><ele>11.0</ele><time>2026-03-22T08:46:43.301Z</time></trkpt><trkpt lat="45.8491214" lon="12.9422807"><ele>11.0</ele><time>2026-03-22T08:46:44.298Z</time></trkpt><trkpt lat="45.8492191" lon="12.9425419"><ele>11.0</ele><time>2026-03-22T08:46:45.291Z</time></trkpt><trkpt lat="45.8493104" lon="12.9428083"><ele>11.333333333333332</ele><time>2026-03-22T08:46:46.29Z</time></trkpt><trkpt lat="45.8494036" lon="12.9430726"><ele>11.666666666666666</ele><time>2026-03-22T08:46:47.297Z</time></trkpt><trkpt lat="45.8494996" lon="12.9433336"><ele>12.0</ele><time>2026-03-22T08:46:48.282Z</time></trkpt><trkpt lat="45.8495923" lon="12.9435968"><ele>12.333333333333332</ele><time>2026-03-22T08:46:49.292Z</time></trkpt><trkpt lat="45.8496925" lon="12.9438553"><ele>12.666666666666666</ele><time>2026-03-22T08:46:50.279Z</time></trkpt><trkpt lat="45.8497823" lon="12.9441207"><ele>13.0</ele><time>2026-03-22T08:46:51.299Z</time></trkpt><trkpt lat="45.8498709" lon="12.9443865"><ele>13.0</ele><time>2026-03-22T08:46:52.284Z</time></trkpt><trkpt lat="45.8499694" lon="12.9446454"><ele>13.0</ele><time>2026-03-22T08:46:53.301Z</time></trkpt><trkpt lat="45.8500548" lon="12.9449137"><ele>13.0</ele><time>2026-03-22T08:46:54.281Z</time></trkpt><trkpt lat="45.8501455" lon="12.9451765"><ele>13.0</ele><time>2026-03-22T08:46:55.302Z</time></trkpt><trkpt lat="45.850244" lon="12.9454338"><ele>13.0</ele><time>2026-03-22T08:46:56.292Z</time></trkpt><trkpt lat="45.8503421" lon="12.9456932"><ele>13.0</ele><time>2026-03-22T08:46:57.312Z</time></trkpt><trkpt lat="45.8504382" lon="12.945955"><ele>13.0</ele><time>2026-03-22T08:46:58.285Z</time></trkpt><trkpt lat="45.8505352" lon="12.9462107"><ele>13.0</ele><time>2026-03-22T08:46:59.292Z</time></trkpt><trkpt lat="45.8506285" lon="12.9464677"><ele>13.0</ele><time>2026-03-22T08:47:00.302Z</time></trkpt><trkpt lat="45.8507216" lon="12.9467275"><ele>13.0</ele><time>2026-03-22T08:47:01.293Z</time></trkpt><trkpt lat="45.8508139" lon="12.9469895"><ele>13.0</ele><time>2026-03-22T08:47:02.279Z</time></trkpt><trkpt lat="45.850915" lon="12.9472461"><ele>13.0</ele><time>2026-03-22T08:47:03.28Z</time></trkpt><trkpt lat="45.8510155" lon="12.9475025"><ele>12.666666666666666</ele><time>2026-03-22T08:47:04.278Z</time></trkpt><trkpt lat="45.8511162" lon="12.9477626"><ele>12.333333333333332</ele><time>2026-03-22T08:47:05.297Z</time></trkpt><trkpt lat="45.8512045" lon="12.9480293"><ele>12.0</ele><time>2026-03-22T08:47:06.285Z</time></trkpt><trkpt lat="45.851293" lon="12.9482957"><ele>12.0</ele><time>2026-03-22T08:47:07.287Z</time></trkpt><trkpt lat="45.8513831" lon="12.9485613"><ele>12.0</ele><time>2026-03-22T08:47:08.28Z</time></trkpt><trkpt lat="45.8514802" lon="12.9488212"><ele>12.0</ele><time>2026-03-22T08:47:09.291Z</time></trkpt><trkpt lat="45.8515753" lon="12.9490823"><ele>12.0</ele><time>2026-03-22T08:47:10.28Z</time></trkpt><trkpt lat="45.8516648" lon="12.9493491"><ele>12.0</ele><time>2026-03-22T08:47:11.279Z</time></trkpt><trkpt lat="45.8517656" lon="12.9496078"><ele>12.0</ele><time>2026-03-22T08:47:12.291Z</time></trkpt><trkpt lat="45.8518682" lon="12.9498645"><ele>12.0</ele><time>2026-03-22T08:47:13.29Z</time></trkpt><trkpt lat="45.8519601" lon="12.9501283"><ele>12.0</ele><time>2026-03-22T08:47:14.286Z</time></trkpt><trkpt lat="45.8520519" lon="12.9503915"><ele>12.0</ele><time>2026-03-22T08:47:15.293Z</time></trkpt><trkpt lat="45.8521487" lon="12.9506503"><ele>12.333333333333332</ele><time>2026-03-22T08:47:16.279Z</time></trkpt><trkpt lat="45.8522409" lon="12.9509126"><ele>12.666666666666666</ele><time>2026-03-22T08:47:17.264Z</time></trkpt><trkpt lat="45.8523346" lon="12.9511746"><ele>13.0</ele><time>2026-03-22T08:47:18.276Z</time></trkpt><trkpt lat="45.8524318" lon="12.9514351"><ele>13.0</ele><time>2026-03-22T08:47:19.283Z</time></trkpt><trkpt lat="45.8525265" lon="12.9516981"><ele>13.0</ele><time>2026-03-22T08:47:20.287Z</time></trkpt><trkpt lat="45.8526208" lon="12.9519601"><ele>13.0</ele><time>2026-03-22T08:47:21.283Z</time></trkpt><trkpt lat="45.8527174" lon="12.9522202"><ele>13.0</ele><time>2026-03-22T08:47:22.274Z</time></trkpt><trkpt lat="45.8528137" lon="12.952481"><ele>13.0</ele><time>2026-03-22T08:47:23.297Z</time></trkpt><trkpt lat="45.852908" lon="12.9527431"><ele>13.0</ele><time>2026-03-22T08:47:24.298Z</time></trkpt><trkpt lat="45.8530001" lon="12.9529991"><ele>13.333333333333332</ele><time>2026-03-22T08:47:25.287Z</time></trkpt><trkpt lat="45.8530953" lon="12.9532352"><ele>13.666666666666668</ele><time>2026-03-22T08:47:26.292Z</time></trkpt><trkpt lat="45.8531813" lon="12.9534617"><ele>14.0</ele><time>2026-03-22T08:47:27.294Z</time></trkpt><trkpt lat="45.8532591" lon="12.9536836"><ele>14.0</ele><time>2026-03-22T08:47:28.302Z</time></trkpt><trkpt lat="45.8533369" lon="12.9538989"><ele>14.0</ele><time>2026-03-22T08:47:29.287Z</time></trkpt><trkpt lat="45.8534112" lon="12.9541162"><ele>14.0</ele><time>2026-03-22T08:47:30.276Z</time></trkpt><trkpt lat="45.8534904" lon="12.9543326"><ele>13.0</ele><time>2026-03-22T08:47:31.281Z</time></trkpt><trkpt lat="45.8535741" lon="12.9545458"><ele>12.0</ele><time>2026-03-22T08:47:32.285Z</time></trkpt><trkpt lat="45.8536534" lon="12.9547558"><ele>11.0</ele><time>2026-03-22T08:47:33.28Z</time></trkpt><trkpt lat="45.853725" lon="12.9549629"><ele>12.0</ele><time>2026-03-22T08:47:34.289Z</time></trkpt><trkpt lat="45.8537903" lon="12.955167"><ele>13.0</ele><time>2026-03-22T08:47:35.282Z</time></trkpt><trkpt lat="45.8538639" lon="12.9553577"><ele>14.0</ele><time>2026-03-22T08:47:36.305Z</time></trkpt><trkpt lat="45.8539341" lon="12.9555454"><ele>14.0</ele><time>2026-03-22T08:47:37.304Z</time></trkpt><trkpt lat="45.8539991" lon="12.9557322"><ele>14.0</ele><time>2026-03-22T08:47:38.289Z</time></trkpt><trkpt lat="45.8540669" lon="12.9559139"><ele>14.0</ele><time>2026-03-22T08:47:39.281Z</time></trkpt><trkpt lat="45.8541259" lon="12.9561011"><ele>14.0</ele><time>2026-03-22T08:47:40.29Z</time></trkpt><trkpt lat="45.8541977" lon="12.9562766"><ele>14.0</ele><time>2026-03-22T08:47:41.291Z</time></trkpt><trkpt lat="45.8542678" lon="12.9564497"><ele>14.0</ele><time>2026-03-22T08:47:42.297Z</time></trkpt><trkpt lat="45.8543297" lon="12.9566244"><ele>14.0</ele><time>2026-03-22T08:47:43.283Z</time></trkpt><trkpt lat="45.8543874" lon="12.9567951"><ele>14.0</ele><time>2026-03-22T08:47:44.286Z</time></trkpt><trkpt lat="45.8544409" lon="12.9569614"><ele>14.0</ele><time>2026-03-22T08:47:45.286Z</time></trkpt><trkpt lat="45.8544964" lon="12.9571245"><ele>14.0</ele><time>2026-03-22T08:47:46.288Z</time></trkpt><trkpt lat="45.8545554" lon="12.9572865"><ele>14.0</ele><time>2026-03-22T08:47:47.298Z</time></trkpt><trkpt lat="45.8546131" lon="12.9574527"><ele>14.0</ele><time>2026-03-22T08:47:48.284Z</time></trkpt><trkpt lat="45.8546732" lon="12.9576211"><ele>13.5</ele><time>2026-03-22T08:47:49.293Z</time></trkpt><trkpt lat="45.854738" lon="12.9577925"><ele>13.0</ele><time>2026-03-22T08:47:50.281Z</time></trkpt><trkpt lat="45.8548044" lon="12.9579731"><ele>12.5</ele><time>2026-03-22T08:47:51.285Z</time></trkpt><trkpt lat="45.8548585" lon="12.9581655"><ele>12.0</ele><time>2026-03-22T08:47:52.28Z</time></trkpt><trkpt lat="45.8549208" lon="12.9583448"><ele>11.75</ele><time>2026-03-22T08:47:53.291Z</time></trkpt><trkpt lat="45.8549789" lon="12.9585191"><ele>11.5</ele><time>2026-03-22T08:47:54.299Z</time></trkpt><trkpt lat="45.8550426" lon="12.9586847"><ele>11.25</ele><time>2026-03-22T08:47:55.292Z</time></trkpt><trkpt lat="45.8551116" lon="12.9588371"><ele>11.0</ele><time>2026-03-22T08:47:56.312Z</time></trkpt><trkpt lat="45.8551669" lon="12.9589865"><ele>11.0</ele><time>2026-03-22T08:47:57.3Z</time></trkpt><trkpt lat="45.8552099" lon="12.9591359"><ele>11.0</ele><time>2026-03-22T08:47:58.287Z</time></trkpt><trkpt lat="45.8552649" lon="12.9592709"><ele>11.0</ele><time>2026-03-22T08:47:59.286Z</time></trkpt><trkpt lat="45.8553137" lon="12.9594014"><ele>11.0</ele><time>2026-03-22T08:48:00.303Z</time></trkpt><trkpt lat="45.855352" lon="12.9595219"><ele>11.0</ele><time>2026-03-22T08:48:01.293Z</time></trkpt><trkpt lat="45.8553881" lon="12.959631"><ele>11.0</ele><time>2026-03-22T08:48:02.28Z</time></trkpt><trkpt lat="45.8554212" lon="12.9597357"><ele>11.0</ele><time>2026-03-22T08:48:03.293Z</time></trkpt><trkpt lat="45.8554551" lon="12.9598391"><ele>11.0</ele><time>2026-03-22T08:48:04.287Z</time></trkpt><trkpt lat="45.8554684" lon="12.9599551"><ele>11.0</ele><time>2026-03-22T08:48:05.298Z</time></trkpt><trkpt lat="45.855442" lon="12.9600674"><ele>11.0</ele><time>2026-03-22T08:48:06.274Z</time></trkpt><trkpt lat="45.8554214" lon="12.9601719"><ele>11.0</ele><time>2026-03-22T08:48:07.278Z</time></trkpt><trkpt lat="45.8554173" lon="12.9602769"><ele>11.200000000000001</ele><time>2026-03-22T08:48:08.274Z</time></trkpt><trkpt lat="45.8554592" lon="12.9603824"><ele>11.4</ele><time>2026-03-22T08:48:09.28Z</time></trkpt><trkpt lat="45.8555244" lon="12.9604725"><ele>11.6</ele><time>2026-03-22T08:48:10.288Z</time></trkpt><trkpt lat="45.8556246" lon="12.9605215"><ele>11.8</ele><time>2026-03-22T08:48:11.282Z</time></trkpt><trkpt lat="45.8557082" lon="12.9606005"><ele>12.0</ele><time>2026-03-22T08:48:12.278Z</time></trkpt><trkpt lat="45.8557876" lon="12.9607053"><ele>12.0</ele><time>2026-03-22T08:48:13.3Z</time></trkpt><trkpt lat="45.8558415" lon="12.9608409"><ele>12.0</ele><time>2026-03-22T08:48:14.293Z</time></trkpt><trkpt lat="45.8558964" lon="12.9609804"><ele>12.0</ele><time>2026-03-22T08:48:15.291Z</time></trkpt><trkpt lat="45.8559485" lon="12.961125"><ele>12.0</ele><time>2026-03-22T08:48:16.277Z</time></trkpt><trkpt lat="45.8560001" lon="12.9612778"><ele>11.75</ele><time>2026-03-22T08:48:17.285Z</time></trkpt><trkpt lat="45.856052" lon="12.9614416"><ele>11.5</ele><time>2026-03-22T08:48:18.285Z</time></trkpt><trkpt lat="45.8561122" lon="12.9616067"><ele>11.25</ele><time>2026-03-22T08:48:19.283Z</time></trkpt><trkpt lat="45.8561744" lon="12.9617791"><ele>11.0</ele><time>2026-03-22T08:48:20.291Z</time></trkpt><trkpt lat="45.8562417" lon="12.9619596"><ele>11.0</ele><time>2026-03-22T08:48:21.298Z</time></trkpt><trkpt lat="45.8563139" lon="12.9621477"><ele>11.0</ele><time>2026-03-22T08:48:22.292Z</time></trkpt><trkpt lat="45.8563842" lon="12.9623484"><ele>11.0</ele><time>2026-03-22T08:48:23.286Z</time></trkpt><trkpt lat="45.8564623" lon="12.9625488"><ele>10.666666666666666</ele><time>2026-03-22T08:48:24.293Z</time></trkpt><trkpt lat="45.8565335" lon="12.9627583"><ele>10.333333333333334</ele><time>2026-03-22T08:48:25.289Z</time></trkpt><trkpt lat="45.8566035" lon="12.9629763"><ele>10.0</ele><time>2026-03-22T08:48:26.273Z</time></trkpt><trkpt lat="45.8566938" lon="12.9631878"><ele>9.666666666666668</ele><time>2026-03-22T08:48:27.28Z</time></trkpt><trkpt lat="45.8567696" lon="12.9634192"><ele>9.333333333333334</ele><time>2026-03-22T08:48:28.28Z</time></trkpt><trkpt lat="45.856857" lon="12.963651"><ele>9.0</ele><time>2026-03-22T08:48:29.282Z</time></trkpt><trkpt lat="45.8569457" lon="12.9638915"><ele>10.0</ele><time>2026-03-22T08:48:30.279Z</time></trkpt><trkpt lat="45.857032" lon="12.964142"><ele>11.0</ele><time>2026-03-22T08:48:31.296Z</time></trkpt><trkpt lat="45.8571232" lon="12.9643925"><ele>12.0</ele><time>2026-03-22T08:48:32.28Z</time></trkpt><trkpt lat="45.8572129" lon="12.9646451"><ele>12.0</ele><time>2026-03-22T08:48:33.289Z</time></trkpt><trkpt lat="45.8573056" lon="12.9648939"><ele>12.0</ele><time>2026-03-22T08:48:34.274Z</time></trkpt><trkpt lat="45.8573921" lon="12.9651447"><ele>12.0</ele><time>2026-03-22T08:48:35.299Z</time></trkpt><trkpt lat="45.8574854" lon="12.9653891"><ele>11.666666666666666</ele><time>2026-03-22T08:48:36.279Z</time></trkpt><trkpt lat="45.8575725" lon="12.9656366"><ele>11.333333333333332</ele><time>2026-03-22T08:48:37.292Z</time></trkpt><trkpt lat="45.8576581" lon="12.9658844"><ele>11.0</ele><time>2026-03-22T08:48:38.284Z</time></trkpt><trkpt lat="45.8577453" lon="12.9661302"><ele>11.0</ele><time>2026-03-22T08:48:39.283Z</time></trkpt><trkpt lat="45.8578353" lon="12.9663737"><ele>11.0</ele><time>2026-03-22T08:48:40.279Z</time></trkpt><trkpt lat="45.8579252" lon="12.966616"><ele>11.0</ele><time>2026-03-22T08:48:41.282Z</time></trkpt><trkpt lat="45.8580134" lon="12.9668574"><ele>11.0</ele><time>2026-03-22T08:48:42.28Z</time></trkpt><trkpt lat="45.8580939" lon="12.9671012"><ele>11.0</ele><time>2026-03-22T08:48:43.291Z</time></trkpt><trkpt lat="45.8581787" lon="12.9673374"><ele>11.0</ele><time>2026-03-22T08:48:44.281Z</time></trkpt><trkpt lat="45.8582652" lon="12.9675666"><ele>11.333333333333332</ele><time>2026-03-22T08:48:45.278Z</time></trkpt><trkpt lat="45.8583513" lon="12.9677897"><ele>11.666666666666666</ele><time>2026-03-22T08:48:46.292Z</time></trkpt><trkpt lat="45.8584328" lon="12.9680107"><ele>12.0</ele><time>2026-03-22T08:48:47.298Z</time></trkpt><trkpt lat="45.8585118" lon="12.9682299"><ele>12.333333333333332</ele><time>2026-03-22T08:48:48.282Z</time></trkpt><trkpt lat="45.8585864" lon="12.9684521"><ele>12.666666666666666</ele><time>2026-03-22T08:48:49.296Z</time></trkpt><trkpt lat="45.858665" lon="12.9686722"><ele>13.0</ele><time>2026-03-22T08:48:50.28Z</time></trkpt><trkpt lat="45.8587433" lon="12.9688943"><ele>13.0</ele><time>2026-03-22T08:48:51.283Z</time></trkpt><trkpt lat="45.8588221" lon="12.9691182"><ele>13.0</ele><time>2026-03-22T08:48:52.295Z</time></trkpt><trkpt lat="45.8589046" lon="12.9693413"><ele>13.0</ele><time>2026-03-22T08:48:53.276Z</time></trkpt><trkpt lat="45.8589855" lon="12.9695679"><ele>13.333333333333332</ele><time>2026-03-22T08:48:54.297Z</time></trkpt><trkpt lat="45.8590749" lon="12.9697901"><ele>13.666666666666668</ele><time>2026-03-22T08:48:55.304Z</time></trkpt><trkpt lat="45.8591656" lon="12.9700125"><ele>14.0</ele><time>2026-03-22T08:48:56.289Z</time></trkpt><trkpt lat="45.8592472" lon="12.970243"><ele>13.666666666666668</ele><time>2026-03-22T08:48:57.29Z</time></trkpt><trkpt lat="45.8593281" lon="12.9704754"><ele>13.333333333333332</ele><time>2026-03-22T08:48:58.294Z</time></trkpt><trkpt lat="45.8594194" lon="12.9707032"><ele>13.0</ele><time>2026-03-22T08:48:59.296Z</time></trkpt><trkpt lat="45.859497" lon="12.9709434"><ele>13.0</ele><time>2026-03-22T08:49:00.278Z</time></trkpt><trkpt lat="45.8595864" lon="12.9711764"><ele>13.0</ele><time>2026-03-22T08:49:01.305Z</time></trkpt><trkpt lat="45.8596666" lon="12.9714187"><ele>13.0</ele><time>2026-03-22T08:49:02.29Z</time></trkpt><trkpt lat="45.859758" lon="12.9716541"><ele>13.0</ele><time>2026-03-22T08:49:03.291Z</time></trkpt><trkpt lat="45.8598412" lon="12.9718966"><ele>13.0</ele><time>2026-03-22T08:49:04.28Z</time></trkpt><trkpt lat="45.8599302" lon="12.9721376"><ele>13.0</ele><time>2026-03-22T08:49:05.283Z</time></trkpt><trkpt lat="45.8600218" lon="12.972376"><ele>13.0</ele><time>2026-03-22T08:49:06.292Z</time></trkpt><trkpt lat="45.8601085" lon="12.9726179"><ele>13.0</ele><time>2026-03-22T08:49:07.275Z</time></trkpt><trkpt lat="45.8601955" lon="12.9728611"><ele>13.0</ele><time>2026-03-22T08:49:08.278Z</time></trkpt><trkpt lat="45.8602802" lon="12.9731067"><ele>12.0</ele><time>2026-03-22T08:49:09.287Z</time></trkpt><trkpt lat="45.86037" lon="12.973344"><ele>11.0</ele><time>2026-03-22T08:49:10.284Z</time></trkpt><trkpt lat="45.860457" lon="12.9735787"><ele>10.0</ele><time>2026-03-22T08:49:11.287Z</time></trkpt><trkpt lat="45.8605369" lon="12.9738133"><ele>10.0</ele><time>2026-03-22T08:49:12.291Z</time></trkpt><trkpt lat="45.8606209" lon="12.9740376"><ele>10.0</ele><time>2026-03-22T08:49:13.299Z</time></trkpt><trkpt lat="45.8607004" lon="12.974262"><ele>10.0</ele><time>2026-03-22T08:49:14.28Z</time></trkpt><trkpt lat="45.8607761" lon="12.9744881"><ele>10.0</ele><time>2026-03-22T08:49:15.287Z</time></trkpt><trkpt lat="45.8608637" lon="12.9747068"><ele>10.0</ele><time>2026-03-22T08:49:16.274Z</time></trkpt><trkpt lat="45.8609567" lon="12.9749251"><ele>10.0</ele><time>2026-03-22T08:49:17.288Z</time></trkpt><trkpt lat="45.8610334" lon="12.9751614"><ele>10.666666666666668</ele><time>2026-03-22T08:49:18.28Z</time></trkpt><trkpt lat="45.8611191" lon="12.9753957"><ele>11.333333333333334</ele><time>2026-03-22T08:49:19.285Z</time></trkpt><trkpt lat="45.8612037" lon="12.9756334"><ele>12.0</ele><time>2026-03-22T08:49:20.283Z</time></trkpt><trkpt lat="45.861286" lon="12.9758733"><ele>12.333333333333332</ele><time>2026-03-22T08:49:21.293Z</time></trkpt><trkpt lat="45.8613702" lon="12.9761126"><ele>12.666666666666666</ele><time>2026-03-22T08:49:22.289Z</time></trkpt><trkpt lat="45.8614551" lon="12.976354"><ele>13.0</ele><time>2026-03-22T08:49:23.285Z</time></trkpt><trkpt lat="45.8615315" lon="12.9766038"><ele>13.333333333333332</ele><time>2026-03-22T08:49:24.279Z</time></trkpt><trkpt lat="45.8616244" lon="12.9768422"><ele>13.666666666666668</ele><time>2026-03-22T08:49:25.287Z</time></trkpt><trkpt lat="45.8617146" lon="12.9770857"><ele>14.0</ele><time>2026-03-22T08:49:26.304Z</time></trkpt><trkpt lat="45.8618039" lon="12.9773353"><ele>13.666666666666668</ele><time>2026-03-22T08:49:27.295Z</time></trkpt><trkpt lat="45.8618997" lon="12.9775819"><ele>13.333333333333332</ele><time>2026-03-22T08:49:28.288Z</time></trkpt><trkpt lat="45.8619962" lon="12.9778293"><ele>13.0</ele><time>2026-03-22T08:49:29.302Z</time></trkpt><trkpt lat="45.862096" lon="12.9780779"><ele>13.0</ele><time>2026-03-22T08:49:30.302Z</time></trkpt><trkpt lat="45.862185" lon="12.9783362"><ele>13.0</ele><time>2026-03-22T08:49:31.281Z</time></trkpt><trkpt lat="45.8622666" lon="12.978598"><ele>13.0</ele><time>2026-03-22T08:49:32.29Z</time></trkpt><trkpt lat="45.8623576" lon="12.9788493"><ele>13.0</ele><time>2026-03-22T08:49:33.296Z</time></trkpt><trkpt lat="45.8624446" lon="12.9791015"><ele>13.0</ele><time>2026-03-22T08:49:34.276Z</time></trkpt><trkpt lat="45.8625338" lon="12.979352"><ele>13.0</ele><time>2026-03-22T08:49:35.298Z</time></trkpt><trkpt lat="45.8626227" lon="12.9796049"><ele>13.0</ele><time>2026-03-22T08:49:36.278Z</time></trkpt><trkpt lat="45.8627145" lon="12.9798602"><ele>13.0</ele><time>2026-03-22T08:49:37.29Z</time></trkpt><trkpt lat="45.8628081" lon="12.9801185"><ele>13.0</ele><time>2026-03-22T08:49:38.308Z</time></trkpt><trkpt lat="45.8629058" lon="12.9803806"><ele>13.333333333333332</ele><time>2026-03-22T08:49:39.266Z</time></trkpt><trkpt lat="45.8629993" lon="12.9806514"><ele>13.666666666666668</ele><time>2026-03-22T08:49:40.281Z</time></trkpt><trkpt lat="45.8630979" lon="12.9809207"><ele>14.0</ele><time>2026-03-22T08:49:41.277Z</time></trkpt><trkpt lat="45.8631948" lon="12.9811943"><ele>14.333333333333334</ele><time>2026-03-22T08:49:42.287Z</time></trkpt><trkpt lat="45.8632928" lon="12.9814688"><ele>14.666666666666668</ele><time>2026-03-22T08:49:43.289Z</time></trkpt><trkpt lat="45.8633987" lon="12.9817381"><ele>15.0</ele><time>2026-03-22T08:49:44.279Z</time></trkpt><trkpt lat="45.8635058" lon="12.9820066"><ele>14.666666666666668</ele><time>2026-03-22T08:49:45.293Z</time></trkpt><trkpt lat="45.863609" lon="12.9822781"><ele>14.333333333333334</ele><time>2026-03-22T08:49:46.287Z</time></trkpt><trkpt lat="45.8637059" lon="12.982554"><ele>14.0</ele><time>2026-03-22T08:49:47.278Z</time></trkpt><trkpt lat="45.8638081" lon="12.9828223"><ele>14.0</ele><time>2026-03-22T08:49:48.286Z</time></trkpt><trkpt lat="45.8639067" lon="12.9830899"><ele>14.0</ele><time>2026-03-22T08:49:49.277Z</time></trkpt><trkpt lat="45.8640021" lon="12.9833585"><ele>14.0</ele><time>2026-03-22T08:49:50.283Z</time></trkpt><trkpt lat="45.8640927" lon="12.9836269"><ele>14.0</ele><time>2026-03-22T08:49:51.284Z</time></trkpt><trkpt lat="45.8641773" lon="12.9838937"><ele>14.0</ele><time>2026-03-22T08:49:52.287Z</time></trkpt><trkpt lat="45.8642693" lon="12.9841493"><ele>14.0</ele><time>2026-03-22T08:49:53.278Z</time></trkpt><trkpt lat="45.8643605" lon="12.9844017"><ele>14.0</ele><time>2026-03-22T08:49:54.294Z</time></trkpt><trkpt lat="45.864451" lon="12.9846551"><ele>14.0</ele><time>2026-03-22T08:49:55.296Z</time></trkpt><trkpt lat="45.8645426" lon="12.9849097"><ele>14.0</ele><time>2026-03-22T08:49:56.281Z</time></trkpt><trkpt lat="45.8646368" lon="12.9851607"><ele>14.0</ele><time>2026-03-22T08:49:57.289Z</time></trkpt><trkpt lat="45.8647275" lon="12.9854069"><ele>14.0</ele><time>2026-03-22T08:49:58.284Z</time></trkpt><trkpt lat="45.8648164" lon="12.985638"><ele>14.0</ele><time>2026-03-22T08:49:59.295Z</time></trkpt><trkpt lat="45.8649033" lon="12.9858578"><ele>13.666666666666668</ele><time>2026-03-22T08:50:00.28Z</time></trkpt><trkpt lat="45.8649868" lon="12.9860709"><ele>13.333333333333332</ele><time>2026-03-22T08:50:01.292Z</time></trkpt><trkpt lat="45.8650632" lon="12.9862785"><ele>13.0</ele><time>2026-03-22T08:50:02.273Z</time></trkpt><trkpt lat="45.8651413" lon="12.9864794"><ele>12.666666666666666</ele><time>2026-03-22T08:50:03.286Z</time></trkpt><trkpt lat="45.8652177" lon="12.9866859"><ele>12.333333333333332</ele><time>2026-03-22T08:50:04.287Z</time></trkpt><trkpt lat="45.8653057" lon="12.9868918"><ele>12.0</ele><time>2026-03-22T08:50:05.278Z</time></trkpt><trkpt lat="45.8653902" lon="12.9871082"><ele>12.0</ele><time>2026-03-22T08:50:06.3Z</time></trkpt><trkpt lat="45.8654749" lon="12.9873319"><ele>12.0</ele><time>2026-03-22T08:50:07.302Z</time></trkpt><trkpt lat="45.8655619" lon="12.9875617"><ele>12.0</ele><time>2026-03-22T08:50:08.284Z</time></trkpt><trkpt lat="45.8656571" lon="12.9877859"><ele>12.0</ele><time>2026-03-22T08:50:09.294Z</time></trkpt><trkpt lat="45.8657538" lon="12.9880079"><ele>12.0</ele><time>2026-03-22T08:50:10.289Z</time></trkpt><trkpt lat="45.8658479" lon="12.98823"><ele>12.0</ele><time>2026-03-22T08:50:11.285Z</time></trkpt><trkpt lat="45.8659424" lon="12.9884511"><ele>11.666666666666666</ele><time>2026-03-22T08:50:12.286Z</time></trkpt><trkpt lat="45.8660351" lon="12.9886712"><ele>11.333333333333332</ele><time>2026-03-22T08:50:13.307Z</time></trkpt><trkpt lat="45.8661322" lon="12.9888891"><ele>11.0</ele><time>2026-03-22T08:50:14.298Z</time></trkpt><trkpt lat="45.8662314" lon="12.9891043"><ele>10.666666666666666</ele><time>2026-03-22T08:50:15.286Z</time></trkpt><trkpt lat="45.8663278" lon="12.9893224"><ele>10.333333333333334</ele><time>2026-03-22T08:50:16.294Z</time></trkpt><trkpt lat="45.866433" lon="12.9895323"><ele>10.0</ele><time>2026-03-22T08:50:17.294Z</time></trkpt><trkpt lat="45.8665313" lon="12.9897485"><ele>10.0</ele><time>2026-03-22T08:50:18.279Z</time></trkpt><trkpt lat="45.8666423" lon="12.9899532"><ele>10.0</ele><time>2026-03-22T08:50:19.296Z</time></trkpt><trkpt lat="45.8667426" lon="12.9901714"><ele>10.0</ele><time>2026-03-22T08:50:20.29Z</time></trkpt><trkpt lat="45.8668503" lon="12.9903845"><ele>10.333333333333334</ele><time>2026-03-22T08:50:21.296Z</time></trkpt><trkpt lat="45.8669636" lon="12.9905973"><ele>10.666666666666666</ele><time>2026-03-22T08:50:22.289Z</time></trkpt><trkpt lat="45.8670774" lon="12.9908136"><ele>11.0</ele><time>2026-03-22T08:50:23.301Z</time></trkpt><trkpt lat="45.8671851" lon="12.9910359"><ele>11.333333333333332</ele><time>2026-03-22T08:50:24.283Z</time></trkpt><trkpt lat="45.8673085" lon="12.9912423"><ele>11.666666666666666</ele><time>2026-03-22T08:50:25.306Z</time></trkpt><trkpt lat="45.8674172" lon="12.9914624"><ele>12.0</ele><time>2026-03-22T08:50:26.291Z</time></trkpt><trkpt lat="45.8675451" lon="12.9916612"><ele>12.333333333333332</ele><time>2026-03-22T08:50:27.282Z</time></trkpt><trkpt lat="45.8676631" lon="12.9918677"><ele>12.666666666666666</ele><time>2026-03-22T08:50:28.282Z</time></trkpt><trkpt lat="45.8677856" lon="12.9920665"><ele>13.0</ele><time>2026-03-22T08:50:29.287Z</time></trkpt><trkpt lat="45.8679021" lon="12.9922737"><ele>13.0</ele><time>2026-03-22T08:50:30.306Z</time></trkpt><trkpt lat="45.8680224" lon="12.9924765"><ele>13.0</ele><time>2026-03-22T08:50:31.288Z</time></trkpt><trkpt lat="45.8681357" lon="12.9926871"><ele>13.0</ele><time>2026-03-22T08:50:32.288Z</time></trkpt><trkpt lat="45.8682563" lon="12.9928901"><ele>13.0</ele><time>2026-03-22T08:50:33.284Z</time></trkpt><trkpt lat="45.8683763" lon="12.9930975"><ele>13.0</ele><time>2026-03-22T08:50:34.286Z</time></trkpt><trkpt lat="45.8685032" lon="12.9932994"><ele>13.0</ele><time>2026-03-22T08:50:35.286Z</time></trkpt><trkpt lat="45.8686344" lon="12.9934997"><ele>12.666666666666666</ele><time>2026-03-22T08:50:36.309Z</time></trkpt><trkpt lat="45.8687601" lon="12.9937126"><ele>12.333333333333332</ele><time>2026-03-22T08:50:37.293Z</time></trkpt><trkpt lat="45.8688919" lon="12.9939227"><ele>12.0</ele><time>2026-03-22T08:50:38.281Z</time></trkpt><trkpt lat="45.8690323" lon="12.9941256"><ele>11.666666666666666</ele><time>2026-03-22T08:50:39.287Z</time></trkpt><trkpt lat="45.8691756" lon="12.9943273"><ele>11.333333333333332</ele><time>2026-03-22T08:50:40.306Z</time></trkpt><trkpt lat="45.8693204" lon="12.9945284"><ele>11.0</ele><time>2026-03-22T08:50:41.283Z</time></trkpt><trkpt lat="45.8694651" lon="12.994731"><ele>11.0</ele><time>2026-03-22T08:50:42.291Z</time></trkpt><trkpt lat="45.8696068" lon="12.9949389"><ele>11.0</ele><time>2026-03-22T08:50:43.281Z</time></trkpt><trkpt lat="45.8697433" lon="12.9951539"><ele>11.0</ele><time>2026-03-22T08:50:44.284Z</time></trkpt><trkpt lat="45.869888" lon="12.9953552"><ele>11.333333333333332</ele><time>2026-03-22T08:50:45.287Z</time></trkpt><trkpt lat="45.8700218" lon="12.9955693"><ele>11.666666666666666</ele><time>2026-03-22T08:50:46.275Z</time></trkpt><trkpt lat="45.8701638" lon="12.9957673"><ele>12.0</ele><time>2026-03-22T08:50:47.28Z</time></trkpt><trkpt lat="45.8703054" lon="12.9959559"><ele>12.0</ele><time>2026-03-22T08:50:48.282Z</time></trkpt><trkpt lat="45.8704486" lon="12.9961321"><ele>12.0</ele><time>2026-03-22T08:50:49.282Z</time></trkpt><trkpt lat="45.8705862" lon="12.9963135"><ele>12.0</ele><time>2026-03-22T08:50:50.281Z</time></trkpt><trkpt lat="45.870728" lon="12.9964853"><ele>12.0</ele><time>2026-03-22T08:50:51.286Z</time></trkpt><trkpt lat="45.8708642" lon="12.9966628"><ele>12.0</ele><time>2026-03-22T08:50:52.282Z</time></trkpt><trkpt lat="45.8709963" lon="12.9968445"><ele>12.0</ele><time>2026-03-22T08:50:53.311Z</time></trkpt><trkpt lat="45.8711306" lon="12.9970194"><ele>12.0</ele><time>2026-03-22T08:50:54.3Z</time></trkpt><trkpt lat="45.8712703" lon="12.997183"><ele>12.0</ele><time>2026-03-22T08:50:55.289Z</time></trkpt><trkpt lat="45.871407" lon="12.9973477"><ele>12.0</ele><time>2026-03-22T08:50:56.285Z</time></trkpt><trkpt lat="45.8715421" lon="12.997511"><ele>12.0</ele><time>2026-03-22T08:50:57.297Z</time></trkpt><trkpt lat="45.8716867" lon="12.9976536"><ele>12.0</ele><time>2026-03-22T08:50:58.278Z</time></trkpt><trkpt lat="45.8718262" lon="12.997804"><ele>12.0</ele><time>2026-03-22T08:50:59.285Z</time></trkpt><trkpt lat="45.8719603" lon="12.9979631"><ele>12.0</ele><time>2026-03-22T08:51:00.306Z</time></trkpt><trkpt lat="45.8720899" lon="12.9981289"><ele>12.0</ele><time>2026-03-22T08:51:01.293Z</time></trkpt><trkpt lat="45.8722175" lon="12.9982927"><ele>12.0</ele><time>2026-03-22T08:51:02.294Z</time></trkpt><trkpt lat="45.8723467" lon="12.9984441"><ele>12.0</ele><time>2026-03-22T08:51:03.302Z</time></trkpt><trkpt lat="45.8724735" lon="12.9985906"><ele>12.0</ele><time>2026-03-22T08:51:04.29Z</time></trkpt><trkpt lat="45.8725979" lon="12.9987351"><ele>12.0</ele><time>2026-03-22T08:51:05.29Z</time></trkpt><trkpt lat="45.8727191" lon="12.9988781"><ele>12.0</ele><time>2026-03-22T08:51:06.289Z</time></trkpt><trkpt lat="45.8728362" lon="12.9990197"><ele>12.0</ele><time>2026-03-22T08:51:07.296Z</time></trkpt><trkpt lat="45.8729528" lon="12.9991512"><ele>12.0</ele><time>2026-03-22T08:51:08.287Z</time></trkpt><trkpt lat="45.8730622" lon="12.9992782"><ele>12.0</ele><time>2026-03-22T08:51:09.288Z</time></trkpt><trkpt lat="45.8731617" lon="12.9993971"><ele>12.0</ele><time>2026-03-22T08:51:10.292Z</time></trkpt><trkpt lat="45.8732536" lon="12.9995144"><ele>12.0</ele><time>2026-03-22T08:51:11.287Z</time></trkpt><trkpt lat="45.8733459" lon="12.9996327"><ele>12.0</ele><time>2026-03-22T08:51:12.293Z</time></trkpt><trkpt lat="45.873442" lon="12.9997512"><ele>12.0</ele><time>2026-03-22T08:51:13.296Z</time></trkpt><trkpt lat="45.873543" lon="12.9998688"><ele>12.0</ele><time>2026-03-22T08:51:14.277Z</time></trkpt><trkpt lat="45.8736459" lon="12.9999884"><ele>12.0</ele><time>2026-03-22T08:51:15.303Z</time></trkpt><trkpt lat="45.8737471" lon="13.000118"><ele>12.0</ele><time>2026-03-22T08:51:16.308Z</time></trkpt><trkpt lat="45.873854" lon="13.0002485"><ele>12.0</ele><time>2026-03-22T08:51:17.299Z</time></trkpt><trkpt lat="45.8739685" lon="13.0003777"><ele>12.0</ele><time>2026-03-22T08:51:18.281Z</time></trkpt><trkpt lat="45.8740901" lon="13.0005089"><ele>12.0</ele><time>2026-03-22T08:51:19.298Z</time></trkpt><trkpt lat="45.8742169" lon="13.0006512"><ele>12.0</ele><time>2026-03-22T08:51:20.297Z</time></trkpt><trkpt lat="45.8743421" lon="13.0008016"><ele>12.0</ele><time>2026-03-22T08:51:21.301Z</time></trkpt><trkpt lat="45.8744786" lon="13.0009476"><ele>12.0</ele><time>2026-03-22T08:51:22.293Z</time></trkpt><trkpt lat="45.8746126" lon="13.0011154"><ele>12.0</ele><time>2026-03-22T08:51:23.292Z</time></trkpt><trkpt lat="45.8747541" lon="13.0012927"><ele>12.0</ele><time>2026-03-22T08:51:24.299Z</time></trkpt><trkpt lat="45.8749097" lon="13.0014695"><ele>12.0</ele><time>2026-03-22T08:51:25.28Z</time></trkpt><trkpt lat="45.8750711" lon="13.0016566"><ele>12.0</ele><time>2026-03-22T08:51:26.279Z</time></trkpt><trkpt lat="45.8752321" lon="13.0018555"><ele>11.666666666666666</ele><time>2026-03-22T08:51:27.283Z</time></trkpt><trkpt lat="45.8754002" lon="13.002046"><ele>11.333333333333332</ele><time>2026-03-22T08:51:28.294Z</time></trkpt><trkpt lat="45.8755674" lon="13.0022333"><ele>11.0</ele><time>2026-03-22T08:51:29.294Z</time></trkpt><trkpt lat="45.8757204" lon="13.002435"><ele>11.333333333333332</ele><time>2026-03-22T08:51:30.281Z</time></trkpt><trkpt lat="45.8758822" lon="13.0026138"><ele>11.666666666666666</ele><time>2026-03-22T08:51:31.294Z</time></trkpt><trkpt lat="45.8760365" lon="13.0028007"><ele>12.0</ele><time>2026-03-22T08:51:32.283Z</time></trkpt><trkpt lat="45.8761916" lon="13.0029851"><ele>12.0</ele><time>2026-03-22T08:51:33.284Z</time></trkpt><trkpt lat="45.8763541" lon="13.0031576"><ele>12.0</ele><time>2026-03-22T08:51:34.294Z</time></trkpt><trkpt lat="45.8765087" lon="13.0033433"><ele>12.0</ele><time>2026-03-22T08:51:35.296Z</time></trkpt><trkpt lat="45.8766638" lon="13.0035281"><ele>12.666666666666668</ele><time>2026-03-22T08:51:36.288Z</time></trkpt><trkpt lat="45.8768171" lon="13.0037159"><ele>13.333333333333334</ele><time>2026-03-22T08:51:37.284Z</time></trkpt><trkpt lat="45.8769709" lon="13.0039012"><ele>14.0</ele><time>2026-03-22T08:51:38.282Z</time></trkpt><trkpt lat="45.8771247" lon="13.00408"><ele>13.333333333333334</ele><time>2026-03-22T08:51:39.289Z</time></trkpt><trkpt lat="45.8772748" lon="13.0042561"><ele>12.666666666666668</ele><time>2026-03-22T08:51:40.281Z</time></trkpt><trkpt lat="45.8774221" lon="13.0044308"><ele>12.0</ele><time>2026-03-22T08:51:41.297Z</time></trkpt><trkpt lat="45.8775684" lon="13.0046025"><ele>12.333333333333332</ele><time>2026-03-22T08:51:42.278Z</time></trkpt><trkpt lat="45.8777114" lon="13.0047753"><ele>12.666666666666666</ele><time>2026-03-22T08:51:43.266Z</time></trkpt><trkpt lat="45.877852" lon="13.0049462"><ele>13.0</ele><time>2026-03-22T08:51:44.284Z</time></trkpt><trkpt lat="45.8779929" lon="13.0051099"><ele>13.0</ele><time>2026-03-22T08:51:45.28Z</time></trkpt><trkpt lat="45.8781282" lon="13.0052761"><ele>13.0</ele><time>2026-03-22T08:51:46.308Z</time></trkpt><trkpt lat="45.8782686" lon="13.0054398"><ele>13.0</ele><time>2026-03-22T08:51:47.309Z</time></trkpt><trkpt lat="45.8783995" lon="13.0055949"><ele>13.0</ele><time>2026-03-22T08:51:48.279Z</time></trkpt><trkpt lat="45.8785327" lon="13.0057513"><ele>13.0</ele><time>2026-03-22T08:51:49.287Z</time></trkpt><trkpt lat="45.8786687" lon="13.0059086"><ele>13.0</ele><time>2026-03-22T08:51:50.292Z</time></trkpt><trkpt lat="45.8788031" lon="13.0060698"><ele>13.0</ele><time>2026-03-22T08:51:51.304Z</time></trkpt><trkpt lat="45.8789343" lon="13.0062288"><ele>13.0</ele><time>2026-03-22T08:51:52.289Z</time></trkpt><trkpt lat="45.8790674" lon="13.0063896"><ele>13.0</ele><time>2026-03-22T08:51:53.287Z</time></trkpt><trkpt lat="45.8791961" lon="13.0065449"><ele>13.333333333333332</ele><time>2026-03-22T08:51:54.285Z</time></trkpt><trkpt lat="45.8793215" lon="13.0066917"><ele>13.666666666666668</ele><time>2026-03-22T08:51:55.277Z</time></trkpt><trkpt lat="45.8794454" lon="13.0068342"><ele>14.0</ele><time>2026-03-22T08:51:56.283Z</time></trkpt><trkpt lat="45.8795667" lon="13.0069791"><ele>14.0</ele><time>2026-03-22T08:51:57.291Z</time></trkpt><trkpt lat="45.8796878" lon="13.0071227"><ele>14.0</ele><time>2026-03-22T08:51:58.295Z</time></trkpt><trkpt lat="45.8798052" lon="13.007261"><ele>14.0</ele><time>2026-03-22T08:51:59.265Z</time></trkpt><trkpt lat="45.8799256" lon="13.0074037"><ele>13.666666666666668</ele><time>2026-03-22T08:52:00.284Z</time></trkpt><trkpt lat="45.8800454" lon="13.0075445"><ele>13.333333333333332</ele><time>2026-03-22T08:52:01.282Z</time></trkpt><trkpt lat="45.8801662" lon="13.0076877"><ele>13.0</ele><time>2026-03-22T08:52:02.283Z</time></trkpt><trkpt lat="45.8802885" lon="13.0078322"><ele>13.666666666666666</ele><time>2026-03-22T08:52:03.291Z</time></trkpt><trkpt lat="45.8804112" lon="13.0079789"><ele>14.333333333333332</ele><time>2026-03-22T08:52:04.29Z</time></trkpt><trkpt lat="45.8805392" lon="13.0081293"><ele>15.0</ele><time>2026-03-22T08:52:05.297Z</time></trkpt><trkpt lat="45.880666" lon="13.0082764"><ele>15.0</ele><time>2026-03-22T08:52:06.29Z</time></trkpt><trkpt lat="45.8807947" lon="13.0084284"><ele>15.0</ele><time>2026-03-22T08:52:07.287Z</time></trkpt><trkpt lat="45.8809242" lon="13.0085826"><ele>15.0</ele><time>2026-03-22T08:52:08.302Z</time></trkpt><trkpt lat="45.8810513" lon="13.0087342"><ele>15.0</ele><time>2026-03-22T08:52:09.299Z</time></trkpt><trkpt lat="45.8811744" lon="13.0088849"><ele>15.0</ele><time>2026-03-22T08:52:10.288Z</time></trkpt><trkpt lat="45.8812955" lon="13.0090326"><ele>15.0</ele><time>2026-03-22T08:52:11.293Z</time></trkpt><trkpt lat="45.8814148" lon="13.0091756"><ele>15.25</ele><time>2026-03-22T08:52:12.289Z</time></trkpt><trkpt lat="45.8815295" lon="13.0093108"><ele>15.5</ele><time>2026-03-22T08:52:13.288Z</time></trkpt><trkpt lat="45.881652" lon="13.0094309"><ele>15.75</ele><time>2026-03-22T08:52:14.282Z</time></trkpt><trkpt lat="45.881772" lon="13.0095437"><ele>16.0</ele><time>2026-03-22T08:52:15.282Z</time></trkpt><trkpt lat="45.8818952" lon="13.009629"><ele>16.0</ele><time>2026-03-22T08:52:16.285Z</time></trkpt><trkpt lat="45.8820114" lon="13.0097031"><ele>16.0</ele><time>2026-03-22T08:52:17.299Z</time></trkpt><trkpt lat="45.8821175" lon="13.0097794"><ele>16.0</ele><time>2026-03-22T08:52:18.283Z</time></trkpt><trkpt lat="45.8822174" lon="13.0098548"><ele>16.0</ele><time>2026-03-22T08:52:19.287Z</time></trkpt><trkpt lat="45.8823112" lon="13.0099353"><ele>16.2</ele><time>2026-03-22T08:52:20.288Z</time></trkpt><trkpt lat="45.8823944" lon="13.0100331"><ele>16.400000000000002</ele><time>2026-03-22T08:52:21.292Z</time></trkpt><trkpt lat="45.8824666" lon="13.0101505"><ele>16.6</ele><time>2026-03-22T08:52:22.282Z</time></trkpt><trkpt lat="45.8825367" lon="13.0102708"><ele>16.8</ele><time>2026-03-22T08:52:23.296Z</time></trkpt><trkpt lat="45.8825984" lon="13.0103943"><ele>17.0</ele><time>2026-03-22T08:52:24.286Z</time></trkpt><trkpt lat="45.8826489" lon="13.0105091"><ele>17.0</ele><time>2026-03-22T08:52:25.283Z</time></trkpt><trkpt lat="45.882691" lon="13.0106128"><ele>17.0</ele><time>2026-03-22T08:52:26.284Z</time></trkpt><trkpt lat="45.8827261" lon="13.0107107"><ele>17.0</ele><time>2026-03-22T08:52:27.281Z</time></trkpt><trkpt lat="45.8827365" lon="13.0108232"><ele>17.0</ele><time>2026-03-22T08:52:28.292Z</time></trkpt><trkpt lat="45.8827331" lon="13.0109418"><ele>17.0</ele><time>2026-03-22T08:52:29.277Z</time></trkpt><trkpt lat="45.882743" lon="13.0110646"><ele>17.0</ele><time>2026-03-22T08:52:30.282Z</time></trkpt><trkpt lat="45.8827823" lon="13.011187"><ele>17.0</ele><time>2026-03-22T08:52:31.274Z</time></trkpt><trkpt lat="45.8828562" lon="13.0112848"><ele>17.0</ele><time>2026-03-22T08:52:32.28Z</time></trkpt><trkpt lat="45.8829552" lon="13.0113526"><ele>17.0</ele><time>2026-03-22T08:52:33.295Z</time></trkpt><trkpt lat="45.8830663" lon="13.0113994"><ele>17.0</ele><time>2026-03-22T08:52:34.282Z</time></trkpt><trkpt lat="45.8831772" lon="13.0114658"><ele>17.0</ele><time>2026-03-22T08:52:35.285Z</time></trkpt><trkpt lat="45.8832864" lon="13.0115584"><ele>17.0</ele><time>2026-03-22T08:52:36.296Z</time></trkpt><trkpt lat="45.8833955" lon="13.0116716"><ele>17.0</ele><time>2026-03-22T08:52:37.279Z</time></trkpt><trkpt lat="45.8835038" lon="13.0118017"><ele>17.0</ele><time>2026-03-22T08:52:38.279Z</time></trkpt><trkpt lat="45.883612" lon="13.0119485"><ele>17.0</ele><time>2026-03-22T08:52:39.29Z</time></trkpt><trkpt lat="45.883731" lon="13.0121049"><ele>17.333333333333336</ele><time>2026-03-22T08:52:40.276Z</time></trkpt><trkpt lat="45.8838808" lon="13.0122409"><ele>17.666666666666668</ele><time>2026-03-22T08:52:41.304Z</time></trkpt><trkpt lat="45.8840444" lon="13.0123618"><ele>18.0</ele><time>2026-03-22T08:52:42.276Z</time></trkpt><trkpt lat="45.8842078" lon="13.0124699"><ele>17.333333333333332</ele><time>2026-03-22T08:52:43.285Z</time></trkpt><trkpt lat="45.8843506" lon="13.0125986"><ele>16.666666666666664</ele><time>2026-03-22T08:52:44.291Z</time></trkpt><trkpt lat="45.8844789" lon="13.0127391"><ele>16.0</ele><time>2026-03-22T08:52:45.283Z</time></trkpt><trkpt lat="45.8845998" lon="13.0128783"><ele>16.0</ele><time>2026-03-22T08:52:46.282Z</time></trkpt><trkpt lat="45.884712" lon="13.0130195"><ele>16.0</ele><time>2026-03-22T08:52:47.279Z</time></trkpt><trkpt lat="45.8848193" lon="13.013164"><ele>16.0</ele><time>2026-03-22T08:52:48.282Z</time></trkpt><trkpt lat="45.8849315" lon="13.0133066"><ele>16.0</ele><time>2026-03-22T08:52:49.311Z</time></trkpt><trkpt lat="45.8850532" lon="13.0134474"><ele>15.666666666666666</ele><time>2026-03-22T08:52:50.271Z</time></trkpt><trkpt lat="45.8851822" lon="13.0135981"><ele>15.333333333333332</ele><time>2026-03-22T08:52:51.302Z</time></trkpt><trkpt lat="45.8853174" lon="13.013762"><ele>15.0</ele><time>2026-03-22T08:52:52.28Z</time></trkpt><trkpt lat="45.8854609" lon="13.0139337"><ele>15.0</ele><time>2026-03-22T08:52:53.282Z</time></trkpt><trkpt lat="45.8856141" lon="13.0141141"><ele>15.0</ele><time>2026-03-22T08:52:54.287Z</time></trkpt><trkpt lat="45.885781" lon="13.0142979"><ele>15.0</ele><time>2026-03-22T08:52:55.287Z</time></trkpt><trkpt lat="45.8859544" lon="13.0144938"><ele>15.0</ele><time>2026-03-22T08:52:56.282Z</time></trkpt><trkpt lat="45.8861356" lon="13.0146999"><ele>15.0</ele><time>2026-03-22T08:52:57.291Z</time></trkpt><trkpt lat="45.8863315" lon="13.0149219"><ele>15.0</ele><time>2026-03-22T08:52:58.282Z</time></trkpt><trkpt lat="45.8865359" lon="13.0151583"><ele>15.0</ele><time>2026-03-22T08:52:59.28Z</time></trkpt><trkpt lat="45.8867343" lon="13.0154023"><ele>15.5</ele><time>2026-03-22T08:53:00.28Z</time></trkpt><trkpt lat="45.8869281" lon="13.0156406"><ele>16.0</ele><time>2026-03-22T08:53:01.284Z</time></trkpt><trkpt lat="45.8871172" lon="13.0158716"><ele>16.0</ele><time>2026-03-22T08:53:02.282Z</time></trkpt><trkpt lat="45.8873002" lon="13.0160956"><ele>16.0</ele><time>2026-03-22T08:53:03.279Z</time></trkpt><trkpt lat="45.8874789" lon="13.0163118"><ele>15.5</ele><time>2026-03-22T08:53:04.278Z</time></trkpt><trkpt lat="45.8876572" lon="13.016516"><ele>15.0</ele><time>2026-03-22T08:53:05.282Z</time></trkpt><trkpt lat="45.8878325" lon="13.0167156"><ele>15.0</ele><time>2026-03-22T08:53:06.293Z</time></trkpt><trkpt lat="45.8880022" lon="13.0169182"><ele>15.0</ele><time>2026-03-22T08:53:07.278Z</time></trkpt><trkpt lat="45.8881699" lon="13.0171189"><ele>15.0</ele><time>2026-03-22T08:53:08.282Z</time></trkpt><trkpt lat="45.8883375" lon="13.0173205"><ele>15.333333333333332</ele><time>2026-03-22T08:53:09.272Z</time></trkpt><trkpt lat="45.8885045" lon="13.0175221"><ele>15.666666666666666</ele><time>2026-03-22T08:53:10.285Z</time></trkpt><trkpt lat="45.8886721" lon="13.0177218"><ele>16.0</ele><time>2026-03-22T08:53:11.288Z</time></trkpt><trkpt lat="45.8888415" lon="13.0179183"><ele>16.0</ele><time>2026-03-22T08:53:12.282Z</time></trkpt><trkpt lat="45.8890093" lon="13.0181197"><ele>16.0</ele><time>2026-03-22T08:53:13.28Z</time></trkpt><trkpt lat="45.8891781" lon="13.0183194"><ele>16.0</ele><time>2026-03-22T08:53:14.278Z</time></trkpt><trkpt lat="45.8893476" lon="13.0185178"><ele>15.666666666666666</ele><time>2026-03-22T08:53:15.277Z</time></trkpt><trkpt lat="45.8895125" lon="13.0187211"><ele>15.333333333333332</ele><time>2026-03-22T08:53:16.28Z</time></trkpt><trkpt lat="45.8896774" lon="13.0189194"><ele>15.0</ele><time>2026-03-22T08:53:17.273Z</time></trkpt><trkpt lat="45.8898389" lon="13.0191145"><ele>15.0</ele><time>2026-03-22T08:53:18.28Z</time></trkpt><trkpt lat="45.8900004" lon="13.019305"><ele>15.0</ele><time>2026-03-22T08:53:19.281Z</time></trkpt><trkpt lat="45.8901606" lon="13.019494"><ele>15.0</ele><time>2026-03-22T08:53:20.282Z</time></trkpt><trkpt lat="45.8903213" lon="13.019682"><ele>15.666666666666668</ele><time>2026-03-22T08:53:21.287Z</time></trkpt><trkpt lat="45.8904815" lon="13.0198673"><ele>16.333333333333336</ele><time>2026-03-22T08:53:22.289Z</time></trkpt><trkpt lat="45.8906405" lon="13.0200522"><ele>17.0</ele><time>2026-03-22T08:53:23.278Z</time></trkpt><trkpt lat="45.8907973" lon="13.0202393"><ele>17.0</ele><time>2026-03-22T08:53:24.28Z</time></trkpt><trkpt lat="45.8909526" lon="13.0204317"><ele>17.0</ele><time>2026-03-22T08:53:25.289Z</time></trkpt><trkpt lat="45.8911127" lon="13.0206211"><ele>17.0</ele><time>2026-03-22T08:53:26.277Z</time></trkpt><trkpt lat="45.8912735" lon="13.0208133"><ele>17.0</ele><time>2026-03-22T08:53:27.281Z</time></trkpt><trkpt lat="45.8914335" lon="13.0210085"><ele>17.0</ele><time>2026-03-22T08:53:28.298Z</time></trkpt><trkpt lat="45.8915985" lon="13.021196"><ele>17.0</ele><time>2026-03-22T08:53:29.285Z</time></trkpt><trkpt lat="45.8917599" lon="13.021391"><ele>17.0</ele><time>2026-03-22T08:53:30.279Z</time></trkpt><trkpt lat="45.8919216" lon="13.0215859"><ele>17.0</ele><time>2026-03-22T08:53:31.288Z</time></trkpt><trkpt lat="45.8920858" lon="13.0217779"><ele>17.0</ele><time>2026-03-22T08:53:32.299Z</time></trkpt><trkpt lat="45.8922499" lon="13.0219737"><ele>17.0</ele><time>2026-03-22T08:53:33.284Z</time></trkpt><trkpt lat="45.8924139" lon="13.0221734"><ele>17.0</ele><time>2026-03-22T08:53:34.286Z</time></trkpt><trkpt lat="45.8925862" lon="13.0223604"><ele>17.0</ele><time>2026-03-22T08:53:35.271Z</time></trkpt><trkpt lat="45.8927507" lon="13.0225606"><ele>17.0</ele><time>2026-03-22T08:53:36.295Z</time></trkpt><trkpt lat="45.8929174" lon="13.0227569"><ele>17.0</ele><time>2026-03-22T08:53:37.283Z</time></trkpt><trkpt lat="45.8930813" lon="13.0229581"><ele>17.0</ele><time>2026-03-22T08:53:38.286Z</time></trkpt><trkpt lat="45.8932492" lon="13.0231486"><ele>16.666666666666668</ele><time>2026-03-22T08:53:39.304Z</time></trkpt><trkpt lat="45.8934095" lon="13.0233403"><ele>16.333333333333332</ele><time>2026-03-22T08:53:40.296Z</time></trkpt><trkpt lat="45.8935616" lon="13.0235318"><ele>16.0</ele><time>2026-03-22T08:53:41.297Z</time></trkpt><trkpt lat="45.8937196" lon="13.0237012"><ele>16.666666666666664</ele><time>2026-03-22T08:53:42.279Z</time></trkpt><trkpt lat="45.8938671" lon="13.0238795"><ele>17.333333333333332</ele><time>2026-03-22T08:53:43.286Z</time></trkpt><trkpt lat="45.8940118" lon="13.0240487"><ele>18.0</ele><time>2026-03-22T08:53:44.29Z</time></trkpt><trkpt lat="45.8941484" lon="13.0242138"><ele>17.333333333333332</ele><time>2026-03-22T08:53:45.292Z</time></trkpt><trkpt lat="45.8942773" lon="13.0243753"><ele>16.666666666666664</ele><time>2026-03-22T08:53:46.28Z</time></trkpt><trkpt lat="45.8944044" lon="13.0245218"><ele>16.0</ele><time>2026-03-22T08:53:47.281Z</time></trkpt><trkpt lat="45.8945253" lon="13.024658"><ele>16.0</ele><time>2026-03-22T08:53:48.268Z</time></trkpt><trkpt lat="45.8946394" lon="13.0247842"><ele>16.0</ele><time>2026-03-22T08:53:49.29Z</time></trkpt><trkpt lat="45.8947454" lon="13.0249104"><ele>16.0</ele><time>2026-03-22T08:53:50.278Z</time></trkpt><trkpt lat="45.8948429" lon="13.0250344"><ele>16.0</ele><time>2026-03-22T08:53:51.28Z</time></trkpt><trkpt lat="45.8949339" lon="13.0251481"><ele>16.2</ele><time>2026-03-22T08:53:52.285Z</time></trkpt><trkpt lat="45.8950194" lon="13.0252551"><ele>16.400000000000002</ele><time>2026-03-22T08:53:53.3Z</time></trkpt><trkpt lat="45.895089" lon="13.0253742"><ele>16.6</ele><time>2026-03-22T08:53:54.277Z</time></trkpt><trkpt lat="45.8951313" lon="13.0255103"><ele>16.8</ele><time>2026-03-22T08:53:55.289Z</time></trkpt><trkpt lat="45.8951554" lon="13.0256539"><ele>17.0</ele><time>2026-03-22T08:53:56.277Z</time></trkpt><trkpt lat="45.8952266" lon="13.0257596"><ele>17.75</ele><time>2026-03-22T08:53:57.292Z</time></trkpt><trkpt lat="45.8953307" lon="13.0258477"><ele>18.5</ele><time>2026-03-22T08:53:58.271Z</time></trkpt><trkpt lat="45.8954673" lon="13.0258813"><ele>19.25</ele><time>2026-03-22T08:53:59.286Z</time></trkpt><trkpt lat="45.8956003" lon="13.0259527"><ele>20.0</ele><time>2026-03-22T08:54:00.286Z</time></trkpt><trkpt lat="45.8957369" lon="13.0260626"><ele>20.0</ele><time>2026-03-22T08:54:01.285Z</time></trkpt><trkpt lat="45.8958776" lon="13.0261996"><ele>20.0</ele><time>2026-03-22T08:54:02.281Z</time></trkpt><trkpt lat="45.8960131" lon="13.0263544"><ele>20.0</ele><time>2026-03-22T08:54:03.295Z</time></trkpt><trkpt lat="45.8961426" lon="13.0265088"><ele>18.333333333333336</ele><time>2026-03-22T08:54:04.286Z</time></trkpt><trkpt lat="45.8962599" lon="13.026673"><ele>16.666666666666668</ele><time>2026-03-22T08:54:05.307Z</time></trkpt><trkpt lat="45.8963798" lon="13.0268301"><ele>15.0</ele><time>2026-03-22T08:54:06.293Z</time></trkpt><trkpt lat="45.8964909" lon="13.0269829"><ele>15.0</ele><time>2026-03-22T08:54:07.297Z</time></trkpt><trkpt lat="45.896604" lon="13.0271186"><ele>15.0</ele><time>2026-03-22T08:54:08.281Z</time></trkpt><trkpt lat="45.8967189" lon="13.0272529"><ele>15.0</ele><time>2026-03-22T08:54:09.286Z</time></trkpt><trkpt lat="45.8968369" lon="13.0273891"><ele>15.0</ele><time>2026-03-22T08:54:10.277Z</time></trkpt><trkpt lat="45.8969592" lon="13.0275292"><ele>16.666666666666668</ele><time>2026-03-22T08:54:11.296Z</time></trkpt><trkpt lat="45.8970821" lon="13.0276793"><ele>18.333333333333336</ele><time>2026-03-22T08:54:12.288Z</time></trkpt><trkpt lat="45.897213" lon="13.0278268"><ele>20.0</ele><time>2026-03-22T08:54:13.288Z</time></trkpt><trkpt lat="45.8973429" lon="13.0279802"><ele>20.0</ele><time>2026-03-22T08:54:14.284Z</time></trkpt><trkpt lat="45.8974751" lon="13.0281354"><ele>20.0</ele><time>2026-03-22T08:54:15.286Z</time></trkpt><trkpt lat="45.8976151" lon="13.028282"><ele>20.0</ele><time>2026-03-22T08:54:16.284Z</time></trkpt><trkpt lat="45.8977523" lon="13.0284385"><ele>19.0</ele><time>2026-03-22T08:54:17.284Z</time></trkpt><trkpt lat="45.8978876" lon="13.0285995"><ele>18.0</ele><time>2026-03-22T08:54:18.279Z</time></trkpt><trkpt lat="45.898034" lon="13.0287446"><ele>17.0</ele><time>2026-03-22T08:54:19.284Z</time></trkpt><trkpt lat="45.8981666" lon="13.028914"><ele>17.0</ele><time>2026-03-22T08:54:20.279Z</time></trkpt><trkpt lat="45.8983009" lon="13.0290824"><ele>17.0</ele><time>2026-03-22T08:54:21.289Z</time></trkpt><trkpt lat="45.8984414" lon="13.0292413"><ele>17.0</ele><time>2026-03-22T08:54:22.292Z</time></trkpt><trkpt lat="45.8985823" lon="13.0294024"><ele>17.0</ele><time>2026-03-22T08:54:23.282Z</time></trkpt><trkpt lat="45.8987229" lon="13.0295696"><ele>17.0</ele><time>2026-03-22T08:54:24.278Z</time></trkpt><trkpt lat="45.8988653" lon="13.0297405"><ele>17.0</ele><time>2026-03-22T08:54:25.291Z</time></trkpt><trkpt lat="45.8990132" lon="13.0299007"><ele>17.0</ele><time>2026-03-22T08:54:26.303Z</time></trkpt><trkpt lat="45.899149" lon="13.0300769"><ele>17.0</ele><time>2026-03-22T08:54:27.296Z</time></trkpt><trkpt lat="45.8992894" lon="13.0302418"><ele>17.0</ele><time>2026-03-22T08:54:28.279Z</time></trkpt><trkpt lat="45.8994221" lon="13.0304236"><ele>18.333333333333336</ele><time>2026-03-22T08:54:29.287Z</time></trkpt><trkpt lat="45.8995597" lon="13.0306034"><ele>19.666666666666668</ele><time>2026-03-22T08:54:30.282Z</time></trkpt><trkpt lat="45.8997048" lon="13.0307752"><ele>21.0</ele><time>2026-03-22T08:54:31.287Z</time></trkpt><trkpt lat="45.8998485" lon="13.0309548"><ele>21.333333333333332</ele><time>2026-03-22T08:54:32.297Z</time></trkpt><trkpt lat="45.8999999" lon="13.0311233"><ele>21.666666666666664</ele><time>2026-03-22T08:54:33.296Z</time></trkpt><trkpt lat="45.9001418" lon="13.0313076"><ele>22.0</ele><time>2026-03-22T08:54:34.283Z</time></trkpt><trkpt lat="45.9002903" lon="13.0314798"><ele>22.0</ele><time>2026-03-22T08:54:35.303Z</time></trkpt><trkpt lat="45.900443" lon="13.0316446"><ele>22.0</ele><time>2026-03-22T08:54:36.287Z</time></trkpt><trkpt lat="45.9005877" lon="13.0318253"><ele>22.0</ele><time>2026-03-22T08:54:37.285Z</time></trkpt><trkpt lat="45.9007394" lon="13.0319972"><ele>22.0</ele><time>2026-03-22T08:54:38.28Z</time></trkpt><trkpt lat="45.9008888" lon="13.0321799"><ele>22.0</ele><time>2026-03-22T08:54:39.283Z</time></trkpt><trkpt lat="45.9010424" lon="13.0323633"><ele>22.0</ele><time>2026-03-22T08:54:40.301Z</time></trkpt><trkpt lat="45.9011982" lon="13.0325481"><ele>20.333333333333332</ele><time>2026-03-22T08:54:41.288Z</time></trkpt><trkpt lat="45.9013557" lon="13.0327351"><ele>18.666666666666668</ele><time>2026-03-22T08:54:42.286Z</time></trkpt><trkpt lat="45.9015131" lon="13.0329273"><ele>17.0</ele><time>2026-03-22T08:54:43.282Z</time></trkpt><trkpt lat="45.9016712" lon="13.0331221"><ele>17.333333333333336</ele><time>2026-03-22T08:54:44.28Z</time></trkpt><trkpt lat="45.9018324" lon="13.0333124"><ele>17.666666666666668</ele><time>2026-03-22T08:54:45.297Z</time></trkpt><trkpt lat="45.9019896" lon="13.0335086"><ele>18.0</ele><time>2026-03-22T08:54:46.282Z</time></trkpt><trkpt lat="45.90215" lon="13.0336975"><ele>18.0</ele><time>2026-03-22T08:54:47.288Z</time></trkpt><trkpt lat="45.9023086" lon="13.0338833"><ele>18.0</ele><time>2026-03-22T08:54:48.301Z</time></trkpt><trkpt lat="45.9024623" lon="13.0340673"><ele>18.0</ele><time>2026-03-22T08:54:49.281Z</time></trkpt><trkpt lat="45.9026167" lon="13.034244"><ele>18.666666666666668</ele><time>2026-03-22T08:54:50.28Z</time></trkpt><trkpt lat="45.9027696" lon="13.0344204"><ele>19.333333333333336</ele><time>2026-03-22T08:54:51.29Z</time></trkpt><trkpt lat="45.9029225" lon="13.0345951"><ele>20.0</ele><time>2026-03-22T08:54:52.29Z</time></trkpt><trkpt lat="45.9030751" lon="13.0347713"><ele>20.0</ele><time>2026-03-22T08:54:53.288Z</time></trkpt><trkpt lat="45.9032271" lon="13.0349514"><ele>20.0</ele><time>2026-03-22T08:54:54.28Z</time></trkpt><trkpt lat="45.9033781" lon="13.0351361"><ele>20.0</ele><time>2026-03-22T08:54:55.295Z</time></trkpt><trkpt lat="45.9035337" lon="13.0353113"><ele>19.333333333333336</ele><time>2026-03-22T08:54:56.296Z</time></trkpt><trkpt lat="45.9036914" lon="13.0354842"><ele>18.666666666666668</ele><time>2026-03-22T08:54:57.29Z</time></trkpt><trkpt lat="45.9038446" lon="13.0356641"><ele>18.0</ele><time>2026-03-22T08:54:58.275Z</time></trkpt><trkpt lat="45.9039971" lon="13.0358462"><ele>18.0</ele><time>2026-03-22T08:54:59.299Z</time></trkpt><trkpt lat="45.9041463" lon="13.0360335"><ele>18.0</ele><time>2026-03-22T08:55:00.284Z</time></trkpt><trkpt lat="45.9042971" lon="13.0362211"><ele>18.0</ele><time>2026-03-22T08:55:01.29Z</time></trkpt><trkpt lat="45.9044484" lon="13.0364073"><ele>17.666666666666668</ele><time>2026-03-22T08:55:02.291Z</time></trkpt><trkpt lat="45.9046017" lon="13.0365883"><ele>17.333333333333336</ele><time>2026-03-22T08:55:03.272Z</time></trkpt><trkpt lat="45.9047568" lon="13.0367669"><ele>17.0</ele><time>2026-03-22T08:55:04.292Z</time></trkpt><trkpt lat="45.9049103" lon="13.036948"><ele>17.0</ele><time>2026-03-22T08:55:05.296Z</time></trkpt><trkpt lat="45.9050644" lon="13.0371284"><ele>17.0</ele><time>2026-03-22T08:55:06.281Z</time></trkpt><trkpt lat="45.9052152" lon="13.0373128"><ele>17.0</ele><time>2026-03-22T08:55:07.303Z</time></trkpt><trkpt lat="45.905366" lon="13.0374921"><ele>16.666666666666668</ele><time>2026-03-22T08:55:08.282Z</time></trkpt><trkpt lat="45.9055144" lon="13.0376707"><ele>16.333333333333332</ele><time>2026-03-22T08:55:09.285Z</time></trkpt><trkpt lat="45.9056602" lon="13.0378497"><ele>16.0</ele><time>2026-03-22T08:55:10.299Z</time></trkpt><trkpt lat="45.9058069" lon="13.0380213"><ele>16.666666666666664</ele><time>2026-03-22T08:55:11.288Z</time></trkpt><trkpt lat="45.9059497" lon="13.0381912"><ele>17.333333333333332</ele><time>2026-03-22T08:55:12.29Z</time></trkpt><trkpt lat="45.9060905" lon="13.0383585"><ele>18.0</ele><time>2026-03-22T08:55:13.309Z</time></trkpt><trkpt lat="45.9062341" lon="13.0385158"><ele>18.0</ele><time>2026-03-22T08:55:14.288Z</time></trkpt><trkpt lat="45.9063783" lon="13.0386711"><ele>18.0</ele><time>2026-03-22T08:55:15.294Z</time></trkpt><trkpt lat="45.9065156" lon="13.0388377"><ele>18.0</ele><time>2026-03-22T08:55:16.288Z</time></trkpt><trkpt lat="45.9066577" lon="13.0389969"><ele>17.0</ele><time>2026-03-22T08:55:17.31Z</time></trkpt><trkpt lat="45.9067997" lon="13.0391602"><ele>16.0</ele><time>2026-03-22T08:55:18.287Z</time></trkpt><trkpt lat="45.9069407" lon="13.03933"><ele>15.0</ele><time>2026-03-22T08:55:19.284Z</time></trkpt><trkpt lat="45.9070811" lon="13.0395045"><ele>15.0</ele><time>2026-03-22T08:55:20.298Z</time></trkpt><trkpt lat="45.9072297" lon="13.0396661"><ele>15.0</ele><time>2026-03-22T08:55:21.297Z</time></trkpt><trkpt lat="45.9073696" lon="13.0398429"><ele>15.0</ele><time>2026-03-22T08:55:22.283Z</time></trkpt><trkpt lat="45.9075154" lon="13.0400049"><ele>14.666666666666668</ele><time>2026-03-22T08:55:23.287Z</time></trkpt><trkpt lat="45.9076584" lon="13.0401711"><ele>14.333333333333334</ele><time>2026-03-22T08:55:24.282Z</time></trkpt><trkpt lat="45.9077962" lon="13.0403466"><ele>14.0</ele><time>2026-03-22T08:55:25.282Z</time></trkpt><trkpt lat="45.9079382" lon="13.0405156"><ele>14.0</ele><time>2026-03-22T08:55:26.29Z</time></trkpt><trkpt lat="45.9080789" lon="13.0406889"><ele>14.0</ele><time>2026-03-22T08:55:27.315Z</time></trkpt><trkpt lat="45.9082212" lon="13.0408606"><ele>14.0</ele><time>2026-03-22T08:55:28.286Z</time></trkpt><trkpt lat="45.9083655" lon="13.0410306"><ele>15.0</ele><time>2026-03-22T08:55:29.295Z</time></trkpt><trkpt lat="45.9085117" lon="13.0412017"><ele>16.0</ele><time>2026-03-22T08:55:30.287Z</time></trkpt><trkpt lat="45.9086588" lon="13.0413773"><ele>17.0</ele><time>2026-03-22T08:55:31.306Z</time></trkpt><trkpt lat="45.9088087" lon="13.0415549"><ele>17.333333333333336</ele><time>2026-03-22T08:55:32.289Z</time></trkpt><trkpt lat="45.9089595" lon="13.0417348"><ele>17.666666666666668</ele><time>2026-03-22T08:55:33.289Z</time></trkpt><trkpt lat="45.9091093" lon="13.0419131"><ele>18.0</ele><time>2026-03-22T08:55:34.281Z</time></trkpt><trkpt lat="45.9092571" lon="13.042089"><ele>18.0</ele><time>2026-03-22T08:55:35.291Z</time></trkpt><trkpt lat="45.9093977" lon="13.0422693"><ele>18.0</ele><time>2026-03-22T08:55:36.296Z</time></trkpt><trkpt lat="45.9095448" lon="13.0424336"><ele>18.0</ele><time>2026-03-22T08:55:37.285Z</time></trkpt><trkpt lat="45.9096912" lon="13.0425985"><ele>18.0</ele><time>2026-03-22T08:55:38.302Z</time></trkpt><trkpt lat="45.9098319" lon="13.0427774"><ele>18.0</ele><time>2026-03-22T08:55:39.27Z</time></trkpt><trkpt lat="45.9099815" lon="13.042945"><ele>18.0</ele><time>2026-03-22T08:55:40.26Z</time></trkpt><trkpt lat="45.9101276" lon="13.0431199"><ele>17.333333333333332</ele><time>2026-03-22T08:55:41.297Z</time></trkpt><trkpt lat="45.9102701" lon="13.043302"><ele>16.666666666666664</ele><time>2026-03-22T08:55:42.289Z</time></trkpt><trkpt lat="45.9104242" lon="13.0434694"><ele>16.0</ele><time>2026-03-22T08:55:43.288Z</time></trkpt><trkpt lat="45.9105707" lon="13.0436535"><ele>16.0</ele><time>2026-03-22T08:55:44.301Z</time></trkpt><trkpt lat="45.9107235" lon="13.0438317"><ele>16.0</ele><time>2026-03-22T08:55:45.297Z</time></trkpt><trkpt lat="45.9108762" lon="13.0440134"><ele>16.0</ele><time>2026-03-22T08:55:46.294Z</time></trkpt><trkpt lat="45.9110295" lon="13.0441968"><ele>16.666666666666664</ele><time>2026-03-22T08:55:47.31Z</time></trkpt><trkpt lat="45.9111913" lon="13.0443703"><ele>17.333333333333332</ele><time>2026-03-22T08:55:48.289Z</time></trkpt><trkpt lat="45.9113483" lon="13.0445542"><ele>18.0</ele><time>2026-03-22T08:55:49.282Z</time></trkpt><trkpt lat="45.9115055" lon="13.0447387"><ele>18.0</ele><time>2026-03-22T08:55:50.293Z</time></trkpt><trkpt lat="45.9116626" lon="13.0449239"><ele>18.0</ele><time>2026-03-22T08:55:51.283Z</time></trkpt><trkpt lat="45.911815" lon="13.0451176"><ele>18.0</ele><time>2026-03-22T08:55:52.297Z</time></trkpt><trkpt lat="45.9119725" lon="13.0452995"><ele>18.0</ele><time>2026-03-22T08:55:53.27Z</time></trkpt><trkpt lat="45.9121276" lon="13.0454857"><ele>18.0</ele><time>2026-03-22T08:55:54.278Z</time></trkpt><trkpt lat="45.9122793" lon="13.0456727"><ele>18.0</ele><time>2026-03-22T08:55:55.276Z</time></trkpt><trkpt lat="45.9124334" lon="13.0458543"><ele>17.333333333333332</ele><time>2026-03-22T08:55:56.276Z</time></trkpt><trkpt lat="45.9125863" lon="13.0460332"><ele>16.666666666666664</ele><time>2026-03-22T08:55:57.283Z</time></trkpt><trkpt lat="45.9127313" lon="13.0462212"><ele>16.0</ele><time>2026-03-22T08:55:58.289Z</time></trkpt><trkpt lat="45.9128805" lon="13.0463997"><ele>16.0</ele><time>2026-03-22T08:55:59.287Z</time></trkpt><trkpt lat="45.9130345" lon="13.0465657"><ele>16.0</ele><time>2026-03-22T08:56:00.28Z</time></trkpt><trkpt lat="45.9131818" lon="13.0467439"><ele>16.0</ele><time>2026-03-22T08:56:01.286Z</time></trkpt><trkpt lat="45.913332" lon="13.0469196"><ele>16.666666666666664</ele><time>2026-03-22T08:56:02.29Z</time></trkpt><trkpt lat="45.9134796" lon="13.0471004"><ele>17.333333333333332</ele><time>2026-03-22T08:56:03.281Z</time></trkpt><trkpt lat="45.9136316" lon="13.0472755"><ele>18.0</ele><time>2026-03-22T08:56:04.292Z</time></trkpt><trkpt lat="45.9137845" lon="13.0474487"><ele>18.666666666666668</ele><time>2026-03-22T08:56:05.309Z</time></trkpt><trkpt lat="45.9139353" lon="13.0476268"><ele>19.333333333333336</ele><time>2026-03-22T08:56:06.293Z</time></trkpt><trkpt lat="45.9140854" lon="13.0478069"><ele>20.0</ele><time>2026-03-22T08:56:07.293Z</time></trkpt><trkpt lat="45.9142364" lon="13.0479892"><ele>20.0</ele><time>2026-03-22T08:56:08.278Z</time></trkpt><trkpt lat="45.914386" lon="13.048176"><ele>20.0</ele><time>2026-03-22T08:56:09.278Z</time></trkpt><trkpt lat="45.914541" lon="13.0483548"><ele>20.0</ele><time>2026-03-22T08:56:10.268Z</time></trkpt><trkpt lat="45.9146962" lon="13.048536"><ele>20.0</ele><time>2026-03-22T08:56:11.277Z</time></trkpt><trkpt lat="45.914854" lon="13.0487186"><ele>20.0</ele><time>2026-03-22T08:56:12.287Z</time></trkpt><trkpt lat="45.9150149" lon="13.0489036"><ele>20.0</ele><time>2026-03-22T08:56:13.283Z</time></trkpt><trkpt lat="45.9151779" lon="13.0490913"><ele>20.666666666666668</ele><time>2026-03-22T08:56:14.285Z</time></trkpt><trkpt lat="45.9153405" lon="13.0492855"><ele>21.333333333333332</ele><time>2026-03-22T08:56:15.295Z</time></trkpt><trkpt lat="45.9155021" lon="13.0494878"><ele>22.0</ele><time>2026-03-22T08:56:16.3Z</time></trkpt><trkpt lat="45.9156691" lon="13.0496892"><ele>22.0</ele><time>2026-03-22T08:56:17.302Z</time></trkpt><trkpt lat="45.9158378" lon="13.049895"><ele>22.0</ele><time>2026-03-22T08:56:18.294Z</time></trkpt><trkpt lat="45.9160099" lon="13.0500986"><ele>22.0</ele><time>2026-03-22T08:56:19.286Z</time></trkpt><trkpt lat="45.9161848" lon="13.050301"><ele>21.5</ele><time>2026-03-22T08:56:20.3Z</time></trkpt><trkpt lat="45.9163632" lon="13.0505058"><ele>21.0</ele><time>2026-03-22T08:56:21.283Z</time></trkpt><trkpt lat="45.9165474" lon="13.0507209"><ele>20.5</ele><time>2026-03-22T08:56:22.272Z</time></trkpt><trkpt lat="45.9167406" lon="13.050951"><ele>20.0</ele><time>2026-03-22T08:56:23.284Z</time></trkpt><trkpt lat="45.9169368" lon="13.0511847"><ele>20.0</ele><time>2026-03-22T08:56:24.285Z</time></trkpt><trkpt lat="45.9171228" lon="13.0514057"><ele>20.0</ele><time>2026-03-22T08:56:25.313Z</time></trkpt><trkpt lat="45.9172968" lon="13.0516044"><ele>20.0</ele><time>2026-03-22T08:56:26.294Z</time></trkpt><trkpt lat="45.9174618" lon="13.0517987"><ele>20.0</ele><time>2026-03-22T08:56:27.282Z</time></trkpt><trkpt lat="45.9176273" lon="13.0519851"><ele>20.0</ele><time>2026-03-22T08:56:28.286Z</time></trkpt><trkpt lat="45.9177843" lon="13.0521757"><ele>21.0</ele><time>2026-03-22T08:56:29.284Z</time></trkpt><trkpt lat="45.9179355" lon="13.0523629"><ele>22.0</ele><time>2026-03-22T08:56:30.29Z</time></trkpt><trkpt lat="45.9180835" lon="13.0525501"><ele>23.0</ele><time>2026-03-22T08:56:31.29Z</time></trkpt><trkpt lat="45.9182363" lon="13.0527278"><ele>23.333333333333336</ele><time>2026-03-22T08:56:32.275Z</time></trkpt><trkpt lat="45.9183918" lon="13.0529023"><ele>23.666666666666668</ele><time>2026-03-22T08:56:33.302Z</time></trkpt><trkpt lat="45.9185524" lon="13.053075"><ele>24.0</ele><time>2026-03-22T08:56:34.286Z</time></trkpt><trkpt lat="45.91871" lon="13.0532584"><ele>25.0</ele><time>2026-03-22T08:56:35.288Z</time></trkpt><trkpt lat="45.9188702" lon="13.0534463"><ele>26.0</ele><time>2026-03-22T08:56:36.271Z</time></trkpt><trkpt lat="45.9190298" lon="13.0536483"><ele>27.0</ele><time>2026-03-22T08:56:37.286Z</time></trkpt><trkpt lat="45.9191978" lon="13.0538444"><ele>27.333333333333336</ele><time>2026-03-22T08:56:38.299Z</time></trkpt><trkpt lat="45.9193632" lon="13.0540501"><ele>27.666666666666668</ele><time>2026-03-22T08:56:39.302Z</time></trkpt><trkpt lat="45.9195349" lon="13.0542513"><ele>28.0</ele><time>2026-03-22T08:56:40.299Z</time></trkpt><trkpt lat="45.9197057" lon="13.0544534"><ele>28.0</ele><time>2026-03-22T08:56:41.285Z</time></trkpt><trkpt lat="45.9198777" lon="13.0546535"><ele>28.0</ele><time>2026-03-22T08:56:42.28Z</time></trkpt><trkpt lat="45.9200437" lon="13.0548618"><ele>28.0</ele><time>2026-03-22T08:56:43.281Z</time></trkpt><trkpt lat="45.9202118" lon="13.0550662"><ele>28.0</ele><time>2026-03-22T08:56:44.292Z</time></trkpt><trkpt lat="45.9203824" lon="13.0552671"><ele>28.0</ele><time>2026-03-22T08:56:45.282Z</time></trkpt><trkpt lat="45.9205593" lon="13.0554604"><ele>28.0</ele><time>2026-03-22T08:56:46.278Z</time></trkpt><trkpt lat="45.9207284" lon="13.0556689"><ele>26.666666666666668</ele><time>2026-03-22T08:56:47.284Z</time></trkpt><trkpt lat="45.9209039" lon="13.0558687"><ele>25.333333333333336</ele><time>2026-03-22T08:56:48.281Z</time></trkpt><trkpt lat="45.9210778" lon="13.0560684"><ele>24.0</ele><time>2026-03-22T08:56:49.282Z</time></trkpt><trkpt lat="45.9212494" lon="13.0562682"><ele>24.0</ele><time>2026-03-22T08:56:50.271Z</time></trkpt><trkpt lat="45.9214181" lon="13.0564697"><ele>24.0</ele><time>2026-03-22T08:56:51.279Z</time></trkpt><trkpt lat="45.9215857" lon="13.0566694"><ele>24.0</ele><time>2026-03-22T08:56:52.286Z</time></trkpt><trkpt lat="45.9217551" lon="13.0568665"><ele>25.666666666666664</ele><time>2026-03-22T08:56:53.29Z</time></trkpt><trkpt lat="45.9219231" lon="13.0570657"><ele>27.333333333333332</ele><time>2026-03-22T08:56:54.281Z</time></trkpt><trkpt lat="45.9220909" lon="13.057265"><ele>29.0</ele><time>2026-03-22T08:56:55.292Z</time></trkpt><trkpt lat="45.9222612" lon="13.0574635"><ele>29.333333333333332</ele><time>2026-03-22T08:56:56.278Z</time></trkpt><trkpt lat="45.9224318" lon="13.0576648"><ele>29.666666666666664</ele><time>2026-03-22T08:56:57.281Z</time></trkpt><trkpt lat="45.9226011" lon="13.0578718"><ele>30.0</ele><time>2026-03-22T08:56:58.277Z</time></trkpt><trkpt lat="45.9227711" lon="13.0580802"><ele>30.666666666666664</ele><time>2026-03-22T08:56:59.281Z</time></trkpt><trkpt lat="45.9229406" lon="13.0582898"><ele>31.333333333333332</ele><time>2026-03-22T08:57:00.282Z</time></trkpt><trkpt lat="45.9231139" lon="13.0584902"><ele>32.0</ele><time>2026-03-22T08:57:01.294Z</time></trkpt><trkpt lat="45.9232819" lon="13.0586958"><ele>32.0</ele><time>2026-03-22T08:57:02.283Z</time></trkpt><trkpt lat="45.9234466" lon="13.0589013"><ele>32.0</ele><time>2026-03-22T08:57:03.291Z</time></trkpt><trkpt lat="45.9236135" lon="13.0590952"><ele>32.0</ele><time>2026-03-22T08:57:04.279Z</time></trkpt><trkpt lat="45.9237782" lon="13.0592857"><ele>30.666666666666664</ele><time>2026-03-22T08:57:05.284Z</time></trkpt><trkpt lat="45.9239401" lon="13.0594764"><ele>29.333333333333336</ele><time>2026-03-22T08:57:06.282Z</time></trkpt><trkpt lat="45.9241012" lon="13.0596649"><ele>28.0</ele><time>2026-03-22T08:57:07.286Z</time></trkpt><trkpt lat="45.9242637" lon="13.059852"><ele>27.333333333333336</ele><time>2026-03-22T08:57:08.278Z</time></trkpt><trkpt lat="45.9244282" lon="13.0600417"><ele>26.666666666666664</ele><time>2026-03-22T08:57:09.292Z</time></trkpt><trkpt lat="45.9245924" lon="13.0602407"><ele>26.0</ele><time>2026-03-22T08:57:10.281Z</time></trkpt><trkpt lat="45.9247607" lon="13.0604429"><ele>26.0</ele><time>2026-03-22T08:57:11.294Z</time></trkpt><trkpt lat="45.9249337" lon="13.0606508"><ele>26.0</ele><time>2026-03-22T08:57:12.283Z</time></trkpt><trkpt lat="45.9251116" lon="13.0608608"><ele>25.5</ele><time>2026-03-22T08:57:13.301Z</time></trkpt><trkpt lat="45.9252964" lon="13.061066"><ele>25.0</ele><time>2026-03-22T08:57:14.297Z</time></trkpt><trkpt lat="45.9254806" lon="13.0612795"><ele>25.0</ele><time>2026-03-22T08:57:15.298Z</time></trkpt><trkpt lat="45.9256634" lon="13.0614953"><ele>25.0</ele><time>2026-03-22T08:57:16.297Z</time></trkpt><trkpt lat="45.9258462" lon="13.0617044"><ele>25.0</ele><time>2026-03-22T08:57:17.278Z</time></trkpt><trkpt lat="45.9260235" lon="13.061914"><ele>25.0</ele><time>2026-03-22T08:57:18.276Z</time></trkpt><trkpt lat="45.9261998" lon="13.0621199"><ele>25.0</ele><time>2026-03-22T08:57:19.284Z</time></trkpt><trkpt lat="45.926373" lon="13.0623201"><ele>25.0</ele><time>2026-03-22T08:57:20.287Z</time></trkpt><trkpt lat="45.9265443" lon="13.0625139"><ele>25.0</ele><time>2026-03-22T08:57:21.268Z</time></trkpt><trkpt lat="45.9267031" lon="13.0627231"><ele>25.0</ele><time>2026-03-22T08:57:22.278Z</time></trkpt><trkpt lat="45.9268668" lon="13.0629182"><ele>25.0</ele><time>2026-03-22T08:57:23.279Z</time></trkpt><trkpt lat="45.9270279" lon="13.0631136"><ele>25.0</ele><time>2026-03-22T08:57:24.285Z</time></trkpt><trkpt lat="45.9271899" lon="13.0633049"><ele>24.333333333333336</ele><time>2026-03-22T08:57:25.28Z</time></trkpt><trkpt lat="45.9273507" lon="13.0634963"><ele>23.666666666666668</ele><time>2026-03-22T08:57:26.287Z</time></trkpt><trkpt lat="45.927513" lon="13.0636832"><ele>23.0</ele><time>2026-03-22T08:57:27.287Z</time></trkpt><trkpt lat="45.9276728" lon="13.0638705"><ele>23.0</ele><time>2026-03-22T08:57:28.277Z</time></trkpt><trkpt lat="45.9278348" lon="13.0640533"><ele>23.0</ele><time>2026-03-22T08:57:29.287Z</time></trkpt><trkpt lat="45.927992" lon="13.0642471"><ele>23.0</ele><time>2026-03-22T08:57:30.281Z</time></trkpt><trkpt lat="45.9281519" lon="13.0644401"><ele>23.333333333333336</ele><time>2026-03-22T08:57:31.277Z</time></trkpt><trkpt lat="45.9283126" lon="13.0646357"><ele>23.666666666666668</ele><time>2026-03-22T08:57:32.28Z</time></trkpt><trkpt lat="45.9284767" lon="13.0648311"><ele>24.0</ele><time>2026-03-22T08:57:33.279Z</time></trkpt><trkpt lat="45.9286398" lon="13.0650308"><ele>24.333333333333336</ele><time>2026-03-22T08:57:34.28Z</time></trkpt><trkpt lat="45.928807" lon="13.065225"><ele>24.666666666666668</ele><time>2026-03-22T08:57:35.3Z</time></trkpt><trkpt lat="45.9289736" lon="13.0654202"><ele>25.0</ele><time>2026-03-22T08:57:36.282Z</time></trkpt><trkpt lat="45.929141" lon="13.0656129"><ele>25.0</ele><time>2026-03-22T08:57:37.283Z</time></trkpt><trkpt lat="45.9293066" lon="13.0658087"><ele>25.0</ele><time>2026-03-22T08:57:38.299Z</time></trkpt><trkpt lat="45.9294711" lon="13.0660071"><ele>25.0</ele><time>2026-03-22T08:57:39.269Z</time></trkpt><trkpt lat="45.92964" lon="13.066198"><ele>25.0</ele><time>2026-03-22T08:57:40.29Z</time></trkpt><trkpt lat="45.9298034" lon="13.0663972"><ele>25.0</ele><time>2026-03-22T08:57:41.288Z</time></trkpt><trkpt lat="45.9299708" lon="13.0665908"><ele>25.0</ele><time>2026-03-22T08:57:42.284Z</time></trkpt><trkpt lat="45.9301327" lon="13.0667938"><ele>25.0</ele><time>2026-03-22T08:57:43.293Z</time></trkpt><trkpt lat="45.9302993" lon="13.066989"><ele>25.0</ele><time>2026-03-22T08:57:44.275Z</time></trkpt><trkpt lat="45.9304644" lon="13.0671871"><ele>25.0</ele><time>2026-03-22T08:57:45.288Z</time></trkpt><trkpt lat="45.9306292" lon="13.067385"><ele>24.666666666666668</ele><time>2026-03-22T08:57:46.29Z</time></trkpt><trkpt lat="45.9307957" lon="13.0675774"><ele>24.333333333333336</ele><time>2026-03-22T08:57:47.294Z</time></trkpt><trkpt lat="45.9309596" lon="13.0677699"><ele>24.0</ele><time>2026-03-22T08:57:48.298Z</time></trkpt><trkpt lat="45.931122" lon="13.0679634"><ele>24.0</ele><time>2026-03-22T08:57:49.286Z</time></trkpt><trkpt lat="45.9312841" lon="13.0681548"><ele>24.0</ele><time>2026-03-22T08:57:50.306Z</time></trkpt><trkpt lat="45.9314498" lon="13.068337"><ele>24.0</ele><time>2026-03-22T08:57:51.279Z</time></trkpt><trkpt lat="45.9316083" lon="13.068527"><ele>23.666666666666668</ele><time>2026-03-22T08:57:52.298Z</time></trkpt><trkpt lat="45.9317662" lon="13.0687146"><ele>23.333333333333336</ele><time>2026-03-22T08:57:53.278Z</time></trkpt><trkpt lat="45.9319193" lon="13.0689065"><ele>23.0</ele><time>2026-03-22T08:57:54.281Z</time></trkpt><trkpt lat="45.9320736" lon="13.0690939"><ele>23.0</ele><time>2026-03-22T08:57:55.291Z</time></trkpt><trkpt lat="45.9322291" lon="13.0692776"><ele>23.0</ele><time>2026-03-22T08:57:56.286Z</time></trkpt><trkpt lat="45.9323795" lon="13.0694568"><ele>23.0</ele><time>2026-03-22T08:57:57.287Z</time></trkpt><trkpt lat="45.9325251" lon="13.0696196"><ele>23.333333333333336</ele><time>2026-03-22T08:57:58.289Z</time></trkpt><trkpt lat="45.9326562" lon="13.0697792"><ele>23.666666666666668</ele><time>2026-03-22T08:57:59.299Z</time></trkpt><trkpt lat="45.9327795" lon="13.069922"><ele>24.0</ele><time>2026-03-22T08:58:00.277Z</time></trkpt><trkpt lat="45.9328874" lon="13.0700615"><ele>24.0</ele><time>2026-03-22T08:58:01.288Z</time></trkpt><trkpt lat="45.932993" lon="13.0701928"><ele>24.0</ele><time>2026-03-22T08:58:02.299Z</time></trkpt><trkpt lat="45.9331078" lon="13.0703114"><ele>24.0</ele><time>2026-03-22T08:58:03.279Z</time></trkpt><trkpt lat="45.9332132" lon="13.0704552"><ele>24.0</ele><time>2026-03-22T08:58:04.3Z</time></trkpt><trkpt lat="45.9333286" lon="13.070593"><ele>24.666666666666664</ele><time>2026-03-22T08:58:05.282Z</time></trkpt><trkpt lat="45.933447" lon="13.0707278"><ele>25.333333333333332</ele><time>2026-03-22T08:58:06.305Z</time></trkpt><trkpt lat="45.9335621" lon="13.0708718"><ele>26.0</ele><time>2026-03-22T08:58:07.286Z</time></trkpt><trkpt lat="45.9336838" lon="13.0710071"><ele>26.333333333333332</ele><time>2026-03-22T08:58:08.282Z</time></trkpt><trkpt lat="45.9338028" lon="13.071147"><ele>26.666666666666664</ele><time>2026-03-22T08:58:09.297Z</time></trkpt><trkpt lat="45.9339218" lon="13.0712894"><ele>27.0</ele><time>2026-03-22T08:58:10.282Z</time></trkpt><trkpt lat="45.9340478" lon="13.0714276"><ele>27.0</ele><time>2026-03-22T08:58:11.291Z</time></trkpt><trkpt lat="45.934172" lon="13.0715801"><ele>27.0</ele><time>2026-03-22T08:58:12.293Z</time></trkpt><trkpt lat="45.9343" lon="13.0717336"><ele>27.0</ele><time>2026-03-22T08:58:13.286Z</time></trkpt><trkpt lat="45.9344292" lon="13.0718844"><ele>27.0</ele><time>2026-03-22T08:58:14.301Z</time></trkpt><trkpt lat="45.9345574" lon="13.0720336"><ele>27.0</ele><time>2026-03-22T08:58:15.289Z</time></trkpt><trkpt lat="45.9346811" lon="13.072179"><ele>27.0</ele><time>2026-03-22T08:58:16.306Z</time></trkpt><trkpt lat="45.9348031" lon="13.0723133"><ele>27.0</ele><time>2026-03-22T08:58:17.312Z</time></trkpt><trkpt lat="45.9349169" lon="13.0724466"><ele>27.0</ele><time>2026-03-22T08:58:18.3Z</time></trkpt><trkpt lat="45.9350231" lon="13.0725823"><ele>27.0</ele><time>2026-03-22T08:58:19.294Z</time></trkpt><trkpt lat="45.9351278" lon="13.0727157"><ele>27.0</ele><time>2026-03-22T08:58:20.281Z</time></trkpt><trkpt lat="45.935236" lon="13.0728447"><ele>27.0</ele><time>2026-03-22T08:58:21.302Z</time></trkpt><trkpt lat="45.935345" lon="13.0729755"><ele>27.0</ele><time>2026-03-22T08:58:22.284Z</time></trkpt><trkpt lat="45.9354531" lon="13.0731113"><ele>27.0</ele><time>2026-03-22T08:58:23.283Z</time></trkpt><trkpt lat="45.9355645" lon="13.0732375"><ele>27.0</ele><time>2026-03-22T08:58:24.285Z</time></trkpt><trkpt lat="45.9356668" lon="13.073368"><ele>27.25</ele><time>2026-03-22T08:58:25.298Z</time></trkpt><trkpt lat="45.9357646" lon="13.0734967"><ele>27.5</ele><time>2026-03-22T08:58:26.28Z</time></trkpt><trkpt lat="45.9358672" lon="13.0736074"><ele>27.75</ele><time>2026-03-22T08:58:27.276Z</time></trkpt><trkpt lat="45.9359621" lon="13.0737155"><ele>28.0</ele><time>2026-03-22T08:58:28.29Z</time></trkpt><trkpt lat="45.9360517" lon="13.0738145"><ele>28.2</ele><time>2026-03-22T08:58:29.298Z</time></trkpt><trkpt lat="45.9361296" lon="13.0739103"><ele>28.4</ele><time>2026-03-22T08:58:30.286Z</time></trkpt><trkpt lat="45.9362025" lon="13.073998"><ele>28.599999999999998</ele><time>2026-03-22T08:58:31.291Z</time></trkpt><trkpt lat="45.9362757" lon="13.0740843"><ele>28.799999999999997</ele><time>2026-03-22T08:58:32.286Z</time></trkpt><trkpt lat="45.9363433" lon="13.0741721"><ele>29.0</ele><time>2026-03-22T08:58:33.282Z</time></trkpt><trkpt lat="45.9363983" lon="13.0742659"><ele>29.0</ele><time>2026-03-22T08:58:34.283Z</time></trkpt><trkpt lat="45.9364409" lon="13.0743717"><ele>29.0</ele><time>2026-03-22T08:58:35.29Z</time></trkpt><trkpt lat="45.9364748" lon="13.0744874"><ele>29.0</ele><time>2026-03-22T08:58:36.285Z</time></trkpt><trkpt lat="45.9365185" lon="13.0746009"><ele>29.0</ele><time>2026-03-22T08:58:37.291Z</time></trkpt><trkpt lat="45.9365818" lon="13.0746965"><ele>29.0</ele><time>2026-03-22T08:58:38.291Z</time></trkpt><trkpt lat="45.9366759" lon="13.0747563"><ele>29.0</ele><time>2026-03-22T08:58:39.275Z</time></trkpt><trkpt lat="45.9367829" lon="13.0747701"><ele>29.0</ele><time>2026-03-22T08:58:40.283Z</time></trkpt><trkpt lat="45.9368915" lon="13.0747992"><ele>29.0</ele><time>2026-03-22T08:58:41.285Z</time></trkpt><trkpt lat="45.9369955" lon="13.0748793"><ele>29.0</ele><time>2026-03-22T08:58:42.301Z</time></trkpt><trkpt lat="45.9370998" lon="13.0749878"><ele>29.0</ele><time>2026-03-22T08:58:43.291Z</time></trkpt><trkpt lat="45.9372086" lon="13.0751017"><ele>29.0</ele><time>2026-03-22T08:58:44.282Z</time></trkpt><trkpt lat="45.9373142" lon="13.0752371"><ele>29.0</ele><time>2026-03-22T08:58:45.277Z</time></trkpt><trkpt lat="45.9374255" lon="13.0753752"><ele>29.0</ele><time>2026-03-22T08:58:46.281Z</time></trkpt><trkpt lat="45.9375372" lon="13.0755232"><ele>29.0</ele><time>2026-03-22T08:58:47.302Z</time></trkpt><trkpt lat="45.9376548" lon="13.0756731"><ele>29.0</ele><time>2026-03-22T08:58:48.289Z</time></trkpt><trkpt lat="45.9377803" lon="13.0758263"><ele>29.0</ele><time>2026-03-22T08:58:49.302Z</time></trkpt><trkpt lat="45.9379102" lon="13.0759823"><ele>29.0</ele><time>2026-03-22T08:58:50.278Z</time></trkpt><trkpt lat="45.9380439" lon="13.0761419"><ele>29.0</ele><time>2026-03-22T08:58:51.283Z</time></trkpt><trkpt lat="45.9381792" lon="13.0763062"><ele>29.0</ele><time>2026-03-22T08:58:52.287Z</time></trkpt><trkpt lat="45.9383167" lon="13.0764698"><ele>28.333333333333332</ele><time>2026-03-22T08:58:53.294Z</time></trkpt><trkpt lat="45.9384504" lon="13.0766373"><ele>27.666666666666664</ele><time>2026-03-22T08:58:54.279Z</time></trkpt><trkpt lat="45.938585" lon="13.0767998"><ele>27.0</ele><time>2026-03-22T08:58:55.292Z</time></trkpt><trkpt lat="45.9387193" lon="13.0769588"><ele>27.0</ele><time>2026-03-22T08:58:56.281Z</time></trkpt><trkpt lat="45.9388554" lon="13.0771116"><ele>27.0</ele><time>2026-03-22T08:58:57.303Z</time></trkpt><trkpt lat="45.9389894" lon="13.0772662"><ele>27.0</ele><time>2026-03-22T08:58:58.285Z</time></trkpt><trkpt lat="45.9391216" lon="13.0774228"><ele>27.333333333333336</ele><time>2026-03-22T08:58:59.302Z</time></trkpt><trkpt lat="45.9392545" lon="13.0775763"><ele>27.666666666666668</ele><time>2026-03-22T08:59:00.309Z</time></trkpt><trkpt lat="45.9393797" lon="13.0777448"><ele>28.0</ele><time>2026-03-22T08:59:01.299Z</time></trkpt><trkpt lat="45.9395138" lon="13.0778964"><ele>28.0</ele><time>2026-03-22T08:59:02.285Z</time></trkpt><trkpt lat="45.93964" lon="13.078062"><ele>28.0</ele><time>2026-03-22T08:59:03.296Z</time></trkpt><trkpt lat="45.9397775" lon="13.0782098"><ele>28.0</ele><time>2026-03-22T08:59:04.292Z</time></trkpt><trkpt lat="45.939909" lon="13.0783709"><ele>28.333333333333336</ele><time>2026-03-22T08:59:05.295Z</time></trkpt><trkpt lat="45.9400435" lon="13.0785307"><ele>28.666666666666664</ele><time>2026-03-22T08:59:06.278Z</time></trkpt><trkpt lat="45.9401779" lon="13.078694"><ele>29.0</ele><time>2026-03-22T08:59:07.296Z</time></trkpt><trkpt lat="45.9403153" lon="13.0788559"><ele>29.333333333333332</ele><time>2026-03-22T08:59:08.294Z</time></trkpt><trkpt lat="45.9404532" lon="13.0790196"><ele>29.666666666666664</ele><time>2026-03-22T08:59:09.277Z</time></trkpt><trkpt lat="45.9405924" lon="13.079184"><ele>30.0</ele><time>2026-03-22T08:59:10.278Z</time></trkpt><trkpt lat="45.9407364" lon="13.0793457"><ele>29.333333333333336</ele><time>2026-03-22T08:59:11.288Z</time></trkpt><trkpt lat="45.9408764" lon="13.0795177"><ele>28.666666666666668</ele><time>2026-03-22T08:59:12.277Z</time></trkpt><trkpt lat="45.9410171" lon="13.0796911"><ele>28.0</ele><time>2026-03-22T08:59:13.293Z</time></trkpt><trkpt lat="45.94116" lon="13.0798658"><ele>28.333333333333336</ele><time>2026-03-22T08:59:14.302Z</time></trkpt><trkpt lat="45.9412994" lon="13.080046"><ele>28.666666666666664</ele><time>2026-03-22T08:59:15.31Z</time></trkpt><trkpt lat="45.9414362" lon="13.0802205"><ele>29.0</ele><time>2026-03-22T08:59:16.288Z</time></trkpt><trkpt lat="45.9415619" lon="13.0804"><ele>29.0</ele><time>2026-03-22T08:59:17.286Z</time></trkpt><trkpt lat="45.9416867" lon="13.0805744"><ele>29.0</ele><time>2026-03-22T08:59:18.294Z</time></trkpt><trkpt lat="45.9418089" lon="13.0807466"><ele>29.0</ele><time>2026-03-22T08:59:19.283Z</time></trkpt><trkpt lat="45.9419258" lon="13.0809251"><ele>28.333333333333332</ele><time>2026-03-22T08:59:20.289Z</time></trkpt><trkpt lat="45.942032" lon="13.08112"><ele>27.666666666666664</ele><time>2026-03-22T08:59:21.302Z</time></trkpt><trkpt lat="45.9421435" lon="13.0813102"><ele>27.0</ele><time>2026-03-22T08:59:22.288Z</time></trkpt><trkpt lat="45.9422496" lon="13.081511"><ele>27.333333333333336</ele><time>2026-03-22T08:59:23.303Z</time></trkpt><trkpt lat="45.9423569" lon="13.0817164"><ele>27.666666666666668</ele><time>2026-03-22T08:59:24.291Z</time></trkpt><trkpt lat="45.9424676" lon="13.0819234"><ele>28.0</ele><time>2026-03-22T08:59:25.302Z</time></trkpt><trkpt lat="45.9425778" lon="13.0821381"><ele>28.333333333333336</ele><time>2026-03-22T08:59:26.286Z</time></trkpt><trkpt lat="45.9426902" lon="13.0823572"><ele>28.666666666666664</ele><time>2026-03-22T08:59:27.309Z</time></trkpt><trkpt lat="45.9427954" lon="13.0825913"><ele>29.0</ele><time>2026-03-22T08:59:28.295Z</time></trkpt><trkpt lat="45.9428983" lon="13.0828331"><ele>29.333333333333332</ele><time>2026-03-22T08:59:29.296Z</time></trkpt><trkpt lat="45.9429982" lon="13.0830794"><ele>29.666666666666664</ele><time>2026-03-22T08:59:30.32Z</time></trkpt><trkpt lat="45.943096" lon="13.0833291"><ele>30.0</ele><time>2026-03-22T08:59:31.313Z</time></trkpt><trkpt lat="45.9431973" lon="13.0835752"><ele>30.333333333333336</ele><time>2026-03-22T08:59:32.287Z</time></trkpt><trkpt lat="45.9432932" lon="13.0838243"><ele>30.666666666666668</ele><time>2026-03-22T08:59:33.3Z</time></trkpt><trkpt lat="45.9433795" lon="13.0840763"><ele>31.0</ele><time>2026-03-22T08:59:34.3Z</time></trkpt><trkpt lat="45.9434627" lon="13.084325"><ele>31.0</ele><time>2026-03-22T08:59:35.281Z</time></trkpt><trkpt lat="45.9435401" lon="13.0845718"><ele>31.0</ele><time>2026-03-22T08:59:36.291Z</time></trkpt><trkpt lat="45.9436235" lon="13.0848125"><ele>31.0</ele><time>2026-03-22T08:59:37.302Z</time></trkpt><trkpt lat="45.9436939" lon="13.085062"><ele>30.333333333333336</ele><time>2026-03-22T08:59:38.302Z</time></trkpt><trkpt lat="45.9437527" lon="13.0853158"><ele>29.666666666666664</ele><time>2026-03-22T08:59:39.301Z</time></trkpt><trkpt lat="45.9438158" lon="13.0855581"><ele>29.0</ele><time>2026-03-22T08:59:40.282Z</time></trkpt><trkpt lat="45.9438681" lon="13.0857985"><ele>28.666666666666664</ele><time>2026-03-22T08:59:41.285Z</time></trkpt><trkpt lat="45.9439153" lon="13.0860371"><ele>28.333333333333336</ele><time>2026-03-22T08:59:42.307Z</time></trkpt><trkpt lat="45.9439604" lon="13.0862697"><ele>28.0</ele><time>2026-03-22T08:59:43.307Z</time></trkpt><trkpt lat="45.9440026" lon="13.0864942"><ele>28.25</ele><time>2026-03-22T08:59:44.308Z</time></trkpt><trkpt lat="45.9440482" lon="13.0867024"><ele>28.5</ele><time>2026-03-22T08:59:45.319Z</time></trkpt><trkpt lat="45.9440965" lon="13.08689"><ele>28.75</ele><time>2026-03-22T08:59:46.284Z</time></trkpt><trkpt lat="45.9441636" lon="13.0870442"><ele>29.0</ele><time>2026-03-22T08:59:47.282Z</time></trkpt><trkpt lat="45.9442537" lon="13.0871619"><ele>29.25</ele><time>2026-03-22T08:59:48.289Z</time></trkpt><trkpt lat="45.9443612" lon="13.0872513"><ele>29.5</ele><time>2026-03-22T08:59:49.298Z</time></trkpt><trkpt lat="45.94448" lon="13.0873076"><ele>29.75</ele><time>2026-03-22T08:59:50.284Z</time></trkpt><trkpt lat="45.9445872" lon="13.0873816"><ele>30.0</ele><time>2026-03-22T08:59:51.298Z</time></trkpt><trkpt lat="45.9446704" lon="13.0874869"><ele>30.0</ele><time>2026-03-22T08:59:52.282Z</time></trkpt><trkpt lat="45.944736" lon="13.0876039"><ele>30.0</ele><time>2026-03-22T08:59:53.295Z</time></trkpt><trkpt lat="45.9447692" lon="13.0877534"><ele>30.0</ele><time>2026-03-22T08:59:54.299Z</time></trkpt><trkpt lat="45.9447856" lon="13.0879154"><ele>30.0</ele><time>2026-03-22T08:59:55.299Z</time></trkpt><trkpt lat="45.9447694" lon="13.0881093"><ele>30.333333333333336</ele><time>2026-03-22T08:59:56.28Z</time></trkpt><trkpt lat="45.944741" lon="13.0883164"><ele>30.666666666666668</ele><time>2026-03-22T08:59:57.29Z</time></trkpt><trkpt lat="45.9447099" lon="13.0885317"><ele>31.0</ele><time>2026-03-22T08:59:58.28Z</time></trkpt><trkpt lat="45.9446801" lon="13.0887595"><ele>31.0</ele><time>2026-03-22T08:59:59.297Z</time></trkpt><trkpt lat="45.9446494" lon="13.0890003"><ele>31.0</ele><time>2026-03-22T09:00:00.296Z</time></trkpt><trkpt lat="45.9446163" lon="13.089247"><ele>31.0</ele><time>2026-03-22T09:00:01.278Z</time></trkpt><trkpt lat="45.9445749" lon="13.0894978"><ele>30.333333333333336</ele><time>2026-03-22T09:00:02.276Z</time></trkpt><trkpt lat="45.944541" lon="13.0897594"><ele>29.666666666666664</ele><time>2026-03-22T09:00:03.276Z</time></trkpt><trkpt lat="45.9444947" lon="13.0900254"><ele>29.0</ele><time>2026-03-22T09:00:04.302Z</time></trkpt><trkpt lat="45.9444599" lon="13.090299"><ele>29.0</ele><time>2026-03-22T09:00:05.288Z</time></trkpt><trkpt lat="45.9444162" lon="13.0905724"><ele>29.0</ele><time>2026-03-22T09:00:06.283Z</time></trkpt><trkpt lat="45.944374" lon="13.0908462"><ele>29.0</ele><time>2026-03-22T09:00:07.29Z</time></trkpt><trkpt lat="45.9443301" lon="13.0911196"><ele>29.666666666666664</ele><time>2026-03-22T09:00:08.283Z</time></trkpt><trkpt lat="45.9442911" lon="13.0913926"><ele>30.333333333333336</ele><time>2026-03-22T09:00:09.286Z</time></trkpt><trkpt lat="45.9442536" lon="13.0916588"><ele>31.0</ele><time>2026-03-22T09:00:10.296Z</time></trkpt><trkpt lat="45.9442181" lon="13.091918"><ele>31.0</ele><time>2026-03-22T09:00:11.29Z</time></trkpt><trkpt lat="45.9441793" lon="13.0921735"><ele>31.0</ele><time>2026-03-22T09:00:12.296Z</time></trkpt><trkpt lat="45.9441419" lon="13.0924285"><ele>31.0</ele><time>2026-03-22T09:00:13.277Z</time></trkpt><trkpt lat="45.9441038" lon="13.0926832"><ele>30.666666666666668</ele><time>2026-03-22T09:00:14.3Z</time></trkpt><trkpt lat="45.9440667" lon="13.0929413"><ele>30.333333333333336</ele><time>2026-03-22T09:00:15.285Z</time></trkpt><trkpt lat="45.9440271" lon="13.0931995"><ele>30.0</ele><time>2026-03-22T09:00:16.287Z</time></trkpt><trkpt lat="45.9439882" lon="13.0934542"><ele>30.0</ele><time>2026-03-22T09:00:17.282Z</time></trkpt><trkpt lat="45.9439507" lon="13.0937035"><ele>30.0</ele><time>2026-03-22T09:00:18.282Z</time></trkpt><trkpt lat="45.9439162" lon="13.0939488"><ele>30.0</ele><time>2026-03-22T09:00:19.298Z</time></trkpt><trkpt lat="45.9438811" lon="13.0941896"><ele>30.0</ele><time>2026-03-22T09:00:20.287Z</time></trkpt><trkpt lat="45.9438377" lon="13.0944223"><ele>30.0</ele><time>2026-03-22T09:00:21.307Z</time></trkpt><trkpt lat="45.9438036" lon="13.0946539"><ele>30.0</ele><time>2026-03-22T09:00:22.299Z</time></trkpt><trkpt lat="45.9437709" lon="13.0948808"><ele>30.0</ele><time>2026-03-22T09:00:23.309Z</time></trkpt><trkpt lat="45.9437409" lon="13.0951064"><ele>30.0</ele><time>2026-03-22T09:00:24.276Z</time></trkpt><trkpt lat="45.943709" lon="13.0953327"><ele>30.0</ele><time>2026-03-22T09:00:25.29Z</time></trkpt><trkpt lat="45.9436756" lon="13.0955624"><ele>29.666666666666664</ele><time>2026-03-22T09:00:26.274Z</time></trkpt><trkpt lat="45.9436404" lon="13.0957935"><ele>29.333333333333332</ele><time>2026-03-22T09:00:27.284Z</time></trkpt><trkpt lat="45.9436085" lon="13.0960265"><ele>29.0</ele><time>2026-03-22T09:00:28.299Z</time></trkpt><trkpt lat="45.9435747" lon="13.0962624"><ele>29.0</ele><time>2026-03-22T09:00:29.296Z</time></trkpt><trkpt lat="45.9435371" lon="13.0964988"><ele>29.0</ele><time>2026-03-22T09:00:30.292Z</time></trkpt><trkpt lat="45.9435008" lon="13.0967396"><ele>29.0</ele><time>2026-03-22T09:00:31.291Z</time></trkpt><trkpt lat="45.9434644" lon="13.0969844"><ele>29.0</ele><time>2026-03-22T09:00:32.279Z</time></trkpt><trkpt lat="45.9434305" lon="13.0972336"><ele>29.0</ele><time>2026-03-22T09:00:33.286Z</time></trkpt><trkpt lat="45.9433961" lon="13.0974843"><ele>29.0</ele><time>2026-03-22T09:00:34.273Z</time></trkpt><trkpt lat="45.9433644" lon="13.0977341"><ele>29.0</ele><time>2026-03-22T09:00:35.281Z</time></trkpt><trkpt lat="45.9433322" lon="13.0979801"><ele>29.0</ele><time>2026-03-22T09:00:36.287Z</time></trkpt><trkpt lat="45.9432972" lon="13.0982199"><ele>29.0</ele><time>2026-03-22T09:00:37.286Z</time></trkpt><trkpt lat="45.9432623" lon="13.0984524"><ele>29.0</ele><time>2026-03-22T09:00:38.287Z</time></trkpt><trkpt lat="45.9432282" lon="13.0986784"><ele>29.0</ele><time>2026-03-22T09:00:39.282Z</time></trkpt><trkpt lat="45.9431982" lon="13.0989016"><ele>29.0</ele><time>2026-03-22T09:00:40.292Z</time></trkpt><trkpt lat="45.9431633" lon="13.099124"><ele>28.333333333333332</ele><time>2026-03-22T09:00:41.297Z</time></trkpt><trkpt lat="45.9431266" lon="13.0993464"><ele>27.666666666666664</ele><time>2026-03-22T09:00:42.282Z</time></trkpt><trkpt lat="45.9430915" lon="13.0995703"><ele>27.0</ele><time>2026-03-22T09:00:43.282Z</time></trkpt><trkpt lat="45.9430556" lon="13.0997935"><ele>27.666666666666664</ele><time>2026-03-22T09:00:44.3Z</time></trkpt><trkpt lat="45.943023" lon="13.1000145"><ele>28.333333333333332</ele><time>2026-03-22T09:00:45.302Z</time></trkpt><trkpt lat="45.9429871" lon="13.1002309"><ele>29.0</ele><time>2026-03-22T09:00:46.293Z</time></trkpt><trkpt lat="45.9429533" lon="13.1004459"><ele>29.0</ele><time>2026-03-22T09:00:47.293Z</time></trkpt><trkpt lat="45.9429211" lon="13.1006622"><ele>29.0</ele><time>2026-03-22T09:00:48.29Z</time></trkpt><trkpt lat="45.9428909" lon="13.1008796"><ele>29.0</ele><time>2026-03-22T09:00:49.293Z</time></trkpt><trkpt lat="45.9428533" lon="13.1010957"><ele>29.333333333333332</ele><time>2026-03-22T09:00:50.289Z</time></trkpt><trkpt lat="45.9428201" lon="13.1013108"><ele>29.666666666666664</ele><time>2026-03-22T09:00:51.281Z</time></trkpt><trkpt lat="45.9427864" lon="13.1015242"><ele>30.0</ele><time>2026-03-22T09:00:52.285Z</time></trkpt><trkpt lat="45.942751" lon="13.1017393"><ele>30.333333333333336</ele><time>2026-03-22T09:00:53.282Z</time></trkpt><trkpt lat="45.9427194" lon="13.1019569"><ele>30.666666666666668</ele><time>2026-03-22T09:00:54.289Z</time></trkpt><trkpt lat="45.9426896" lon="13.1021766"><ele>31.0</ele><time>2026-03-22T09:00:55.292Z</time></trkpt><trkpt lat="45.9426562" lon="13.1023986"><ele>30.333333333333336</ele><time>2026-03-22T09:00:56.304Z</time></trkpt><trkpt lat="45.9426207" lon="13.102623"><ele>29.666666666666664</ele><time>2026-03-22T09:00:57.286Z</time></trkpt><trkpt lat="45.9425825" lon="13.1028489"><ele>29.0</ele><time>2026-03-22T09:00:58.285Z</time></trkpt><trkpt lat="45.9425468" lon="13.1030794"><ele>29.666666666666664</ele><time>2026-03-22T09:00:59.283Z</time></trkpt><trkpt lat="45.9425164" lon="13.1033164"><ele>30.333333333333336</ele><time>2026-03-22T09:01:00.301Z</time></trkpt><trkpt lat="45.942481" lon="13.103556"><ele>31.0</ele><time>2026-03-22T09:01:01.284Z</time></trkpt><trkpt lat="45.9424449" lon="13.1037982"><ele>31.0</ele><time>2026-03-22T09:01:02.287Z</time></trkpt><trkpt lat="45.9424066" lon="13.1040394"><ele>31.0</ele><time>2026-03-22T09:01:03.299Z</time></trkpt><trkpt lat="45.9423696" lon="13.1042807"><ele>31.0</ele><time>2026-03-22T09:01:04.292Z</time></trkpt><trkpt lat="45.942337" lon="13.1045211"><ele>31.333333333333336</ele><time>2026-03-22T09:01:05.294Z</time></trkpt><trkpt lat="45.9422949" lon="13.1047531"><ele>31.666666666666664</ele><time>2026-03-22T09:01:06.27Z</time></trkpt><trkpt lat="45.9422612" lon="13.1049835"><ele>32.0</ele><time>2026-03-22T09:01:07.287Z</time></trkpt><trkpt lat="45.9422261" lon="13.1052187"><ele>32.0</ele><time>2026-03-22T09:01:08.305Z</time></trkpt><trkpt lat="45.9421947" lon="13.1054728"><ele>32.0</ele><time>2026-03-22T09:01:09.294Z</time></trkpt><trkpt lat="45.9421608" lon="13.1057541"><ele>32.0</ele><time>2026-03-22T09:01:10.293Z</time></trkpt><trkpt lat="45.9421197" lon="13.106067"><ele>31.5</ele><time>2026-03-22T09:01:11.279Z</time></trkpt><trkpt lat="45.9420748" lon="13.1064083"><ele>31.0</ele><time>2026-03-22T09:01:12.285Z</time></trkpt><trkpt lat="45.9420239" lon="13.1067452"><ele>31.0</ele><time>2026-03-22T09:01:13.289Z</time></trkpt><trkpt lat="45.941976" lon="13.1070656"><ele>31.0</ele><time>2026-03-22T09:01:14.27Z</time></trkpt><trkpt lat="45.9419301" lon="13.1073727"><ele>31.0</ele><time>2026-03-22T09:01:15.291Z</time></trkpt><trkpt lat="45.9418748" lon="13.107671"><ele>31.333333333333336</ele><time>2026-03-22T09:01:16.277Z</time></trkpt><trkpt lat="45.9418296" lon="13.1079675"><ele>31.666666666666664</ele><time>2026-03-22T09:01:17.284Z</time></trkpt><trkpt lat="45.9417802" lon="13.1082589"><ele>32.0</ele><time>2026-03-22T09:01:18.288Z</time></trkpt><trkpt lat="45.9417319" lon="13.1085445"><ele>32.0</ele><time>2026-03-22T09:01:19.292Z</time></trkpt><trkpt lat="45.9416858" lon="13.1088273"><ele>32.0</ele><time>2026-03-22T09:01:20.287Z</time></trkpt><trkpt lat="45.9416418" lon="13.1091097"><ele>32.0</ele><time>2026-03-22T09:01:21.285Z</time></trkpt><trkpt lat="45.9415992" lon="13.1093928"><ele>32.0</ele><time>2026-03-22T09:01:22.301Z</time></trkpt><trkpt lat="45.9415571" lon="13.1096807"><ele>32.0</ele><time>2026-03-22T09:01:23.303Z</time></trkpt><trkpt lat="45.9415111" lon="13.1099711"><ele>32.0</ele><time>2026-03-22T09:01:24.303Z</time></trkpt><trkpt lat="45.9414634" lon="13.1102619"><ele>31.333333333333332</ele><time>2026-03-22T09:01:25.291Z</time></trkpt><trkpt lat="45.9414151" lon="13.1105524"><ele>30.666666666666664</ele><time>2026-03-22T09:01:26.303Z</time></trkpt><trkpt lat="45.9413678" lon="13.1108435"><ele>30.0</ele><time>2026-03-22T09:01:27.29Z</time></trkpt><trkpt lat="45.941315" lon="13.1111336"><ele>30.0</ele><time>2026-03-22T09:01:28.288Z</time></trkpt><trkpt lat="45.9412607" lon="13.1114247"><ele>30.0</ele><time>2026-03-22T09:01:29.304Z</time></trkpt><trkpt lat="45.941202" lon="13.1117139"><ele>30.0</ele><time>2026-03-22T09:01:30.286Z</time></trkpt><trkpt lat="45.9411408" lon="13.1120023"><ele>29.666666666666664</ele><time>2026-03-22T09:01:31.278Z</time></trkpt><trkpt lat="45.9410777" lon="13.1122901"><ele>29.333333333333332</ele><time>2026-03-22T09:01:32.283Z</time></trkpt><trkpt lat="45.9410136" lon="13.1125762"><ele>29.0</ele><time>2026-03-22T09:01:33.28Z</time></trkpt><trkpt lat="45.9409445" lon="13.1128625"><ele>29.666666666666664</ele><time>2026-03-22T09:01:34.283Z</time></trkpt><trkpt lat="45.9408777" lon="13.1131547"><ele>30.333333333333336</ele><time>2026-03-22T09:01:35.277Z</time></trkpt><trkpt lat="45.9408069" lon="13.1134473"><ele>31.0</ele><time>2026-03-22T09:01:36.289Z</time></trkpt><trkpt lat="45.940734" lon="13.1137425"><ele>31.0</ele><time>2026-03-22T09:01:37.29Z</time></trkpt><trkpt lat="45.9406586" lon="13.1140385"><ele>31.0</ele><time>2026-03-22T09:01:38.289Z</time></trkpt><trkpt lat="45.9405795" lon="13.1143358"><ele>31.0</ele><time>2026-03-22T09:01:39.298Z</time></trkpt><trkpt lat="45.9404957" lon="13.1146326"><ele>30.666666666666668</ele><time>2026-03-22T09:01:40.288Z</time></trkpt><trkpt lat="45.9404137" lon="13.1149326"><ele>30.333333333333336</ele><time>2026-03-22T09:01:41.307Z</time></trkpt><trkpt lat="45.9403295" lon="13.1152324"><ele>30.0</ele><time>2026-03-22T09:01:42.289Z</time></trkpt><trkpt lat="45.9402476" lon="13.1155349"><ele>30.0</ele><time>2026-03-22T09:01:43.287Z</time></trkpt><trkpt lat="45.9401665" lon="13.115837"><ele>30.0</ele><time>2026-03-22T09:01:44.298Z</time></trkpt><trkpt lat="45.9400877" lon="13.1161331"><ele>30.0</ele><time>2026-03-22T09:01:45.301Z</time></trkpt><trkpt lat="45.9400089" lon="13.1164255"><ele>30.0</ele><time>2026-03-22T09:01:46.291Z</time></trkpt><trkpt lat="45.9399297" lon="13.1167112"><ele>30.0</ele><time>2026-03-22T09:01:47.276Z</time></trkpt><trkpt lat="45.9398524" lon="13.116995"><ele>30.0</ele><time>2026-03-22T09:01:48.286Z</time></trkpt><trkpt lat="45.939773" lon="13.1172744"><ele>29.666666666666664</ele><time>2026-03-22T09:01:49.295Z</time></trkpt><trkpt lat="45.9397041" lon="13.1175584"><ele>29.333333333333332</ele><time>2026-03-22T09:01:50.278Z</time></trkpt><trkpt lat="45.9396266" lon="13.1178366"><ele>29.0</ele><time>2026-03-22T09:01:51.283Z</time></trkpt><trkpt lat="45.9395497" lon="13.1181157"><ele>29.333333333333332</ele><time>2026-03-22T09:01:52.291Z</time></trkpt><trkpt lat="45.939475" lon="13.1183971"><ele>29.666666666666664</ele><time>2026-03-22T09:01:53.286Z</time></trkpt><trkpt lat="45.9394005" lon="13.1186788"><ele>30.0</ele><time>2026-03-22T09:01:54.289Z</time></trkpt><trkpt lat="45.9393235" lon="13.1189602"><ele>30.0</ele><time>2026-03-22T09:01:55.287Z</time></trkpt><trkpt lat="45.9392484" lon="13.1192448"><ele>30.0</ele><time>2026-03-22T09:01:56.281Z</time></trkpt><trkpt lat="45.9391722" lon="13.1195294"><ele>30.0</ele><time>2026-03-22T09:01:57.291Z</time></trkpt><trkpt lat="45.9390954" lon="13.1198134"><ele>30.0</ele><time>2026-03-22T09:01:58.277Z</time></trkpt><trkpt lat="45.9390195" lon="13.1200973"><ele>30.0</ele><time>2026-03-22T09:01:59.283Z</time></trkpt><trkpt lat="45.9389433" lon="13.1203795"><ele>30.0</ele><time>2026-03-22T09:02:00.299Z</time></trkpt><trkpt lat="45.9388623" lon="13.1206582"><ele>30.333333333333336</ele><time>2026-03-22T09:02:01.292Z</time></trkpt><trkpt lat="45.9387853" lon="13.1209443"><ele>30.666666666666668</ele><time>2026-03-22T09:02:02.281Z</time></trkpt><trkpt lat="45.9387117" lon="13.1212357"><ele>31.0</ele><time>2026-03-22T09:02:03.294Z</time></trkpt><trkpt lat="45.9386345" lon="13.121527"><ele>31.0</ele><time>2026-03-22T09:02:04.282Z</time></trkpt><trkpt lat="45.9385545" lon="13.1218173"><ele>31.0</ele><time>2026-03-22T09:02:05.284Z</time></trkpt><trkpt lat="45.9384736" lon="13.1221087"><ele>31.0</ele><time>2026-03-22T09:02:06.281Z</time></trkpt><trkpt lat="45.9383909" lon="13.1224008"><ele>30.666666666666668</ele><time>2026-03-22T09:02:07.288Z</time></trkpt><trkpt lat="45.9383136" lon="13.1227002"><ele>30.333333333333336</ele><time>2026-03-22T09:02:08.299Z</time></trkpt><trkpt lat="45.9382346" lon="13.1230015"><ele>30.0</ele><time>2026-03-22T09:02:09.286Z</time></trkpt><trkpt lat="45.9381529" lon="13.123302"><ele>29.0</ele><time>2026-03-22T09:02:10.281Z</time></trkpt><trkpt lat="45.9380705" lon="13.123603"><ele>28.0</ele><time>2026-03-22T09:02:11.299Z</time></trkpt><trkpt lat="45.9379913" lon="13.1239061"><ele>29.0</ele><time>2026-03-22T09:02:12.3Z</time></trkpt><trkpt lat="45.9379106" lon="13.1242089"><ele>30.0</ele><time>2026-03-22T09:02:13.282Z</time></trkpt><trkpt lat="45.9378305" lon="13.1245125"><ele>30.0</ele><time>2026-03-22T09:02:14.293Z</time></trkpt><trkpt lat="45.9377473" lon="13.1248143"><ele>30.0</ele><time>2026-03-22T09:02:15.299Z</time></trkpt><trkpt lat="45.9376679" lon="13.125115"><ele>30.0</ele><time>2026-03-22T09:02:16.291Z</time></trkpt><trkpt lat="45.9375861" lon="13.12541"><ele>30.0</ele><time>2026-03-22T09:02:17.309Z</time></trkpt><trkpt lat="45.9375128" lon="13.1257065"><ele>30.0</ele><time>2026-03-22T09:02:18.292Z</time></trkpt><trkpt lat="45.9374334" lon="13.1259917"><ele>30.0</ele><time>2026-03-22T09:02:19.291Z</time></trkpt><trkpt lat="45.9373619" lon="13.1262626"><ele>30.0</ele><time>2026-03-22T09:02:20.288Z</time></trkpt><trkpt lat="45.9372927" lon="13.126515"><ele>30.0</ele><time>2026-03-22T09:02:21.301Z</time></trkpt><trkpt lat="45.9372257" lon="13.1267504"><ele>30.0</ele><time>2026-03-22T09:02:22.295Z</time></trkpt><trkpt lat="45.9371663" lon="13.1269708"><ele>30.0</ele><time>2026-03-22T09:02:23.317Z</time></trkpt><trkpt lat="45.9371145" lon="13.1271763"><ele>30.0</ele><time>2026-03-22T09:02:24.278Z</time></trkpt><trkpt lat="45.9370669" lon="13.1273675"><ele>30.0</ele><time>2026-03-22T09:02:25.3Z</time></trkpt><trkpt lat="45.9370226" lon="13.1275428"><ele>30.0</ele><time>2026-03-22T09:02:26.291Z</time></trkpt><trkpt lat="45.9369753" lon="13.1277103"><ele>30.25</ele><time>2026-03-22T09:02:27.31Z</time></trkpt><trkpt lat="45.9369142" lon="13.1278752"><ele>30.5</ele><time>2026-03-22T09:02:28.292Z</time></trkpt><trkpt lat="45.9368529" lon="13.1280507"><ele>30.75</ele><time>2026-03-22T09:02:29.296Z</time></trkpt><trkpt lat="45.9368084" lon="13.1282615"><ele>31.0</ele><time>2026-03-22T09:02:30.285Z</time></trkpt><trkpt lat="45.9367616" lon="13.1284889"><ele>30.666666666666668</ele><time>2026-03-22T09:02:31.293Z</time></trkpt><trkpt lat="45.9367025" lon="13.1287417"><ele>30.333333333333336</ele><time>2026-03-22T09:02:32.28Z</time></trkpt><trkpt lat="45.9366192" lon="13.1290073"><ele>30.0</ele><time>2026-03-22T09:02:33.279Z</time></trkpt><trkpt lat="45.9365325" lon="13.129292"><ele>30.0</ele><time>2026-03-22T09:02:34.294Z</time></trkpt><trkpt lat="45.936447" lon="13.1295874"><ele>30.0</ele><time>2026-03-22T09:02:35.292Z</time></trkpt><trkpt lat="45.9363686" lon="13.1298778"><ele>30.0</ele><time>2026-03-22T09:02:36.289Z</time></trkpt><trkpt lat="45.936297" lon="13.1301645"><ele>30.0</ele><time>2026-03-22T09:02:37.291Z</time></trkpt><trkpt lat="45.936218" lon="13.1304446"><ele>30.0</ele><time>2026-03-22T09:02:38.29Z</time></trkpt><trkpt lat="45.9361391" lon="13.1307224"><ele>30.0</ele><time>2026-03-22T09:02:39.284Z</time></trkpt><trkpt lat="45.9360641" lon="13.1309941"><ele>30.0</ele><time>2026-03-22T09:02:40.278Z</time></trkpt><trkpt lat="45.9359926" lon="13.1312555"><ele>30.0</ele><time>2026-03-22T09:02:41.3Z</time></trkpt><trkpt lat="45.935923" lon="13.1315074"><ele>30.0</ele><time>2026-03-22T09:02:42.279Z</time></trkpt><trkpt lat="45.9358545" lon="13.1317482"><ele>29.666666666666664</ele><time>2026-03-22T09:02:43.296Z</time></trkpt><trkpt lat="45.935791" lon="13.1319814"><ele>29.333333333333332</ele><time>2026-03-22T09:02:44.291Z</time></trkpt><trkpt lat="45.9357351" lon="13.1322158"><ele>29.0</ele><time>2026-03-22T09:02:45.294Z</time></trkpt><trkpt lat="45.9356737" lon="13.1324429"><ele>29.0</ele><time>2026-03-22T09:02:46.274Z</time></trkpt><trkpt lat="45.9356109" lon="13.1326672"><ele>29.0</ele><time>2026-03-22T09:02:47.288Z</time></trkpt><trkpt lat="45.9355525" lon="13.1328919"><ele>29.0</ele><time>2026-03-22T09:02:48.281Z</time></trkpt><trkpt lat="45.935494" lon="13.1331146"><ele>28.0</ele><time>2026-03-22T09:02:49.287Z</time></trkpt><trkpt lat="45.9354359" lon="13.133337"><ele>27.0</ele><time>2026-03-22T09:02:50.3Z</time></trkpt><trkpt lat="45.9353755" lon="13.1335544"><ele>26.0</ele><time>2026-03-22T09:02:51.301Z</time></trkpt><trkpt lat="45.9353162" lon="13.133767"><ele>26.0</ele><time>2026-03-22T09:02:52.294Z</time></trkpt><trkpt lat="45.9352558" lon="13.1339719"><ele>26.0</ele><time>2026-03-22T09:02:53.298Z</time></trkpt><trkpt lat="45.9352016" lon="13.1341683"><ele>26.0</ele><time>2026-03-22T09:02:54.295Z</time></trkpt><trkpt lat="45.9351534" lon="13.1343419"><ele>26.0</ele><time>2026-03-22T09:02:55.301Z</time></trkpt><trkpt lat="45.9351025" lon="13.1344841"><ele>26.0</ele><time>2026-03-22T09:02:56.296Z</time></trkpt><trkpt lat="45.9350585" lon="13.1346078"><ele>26.0</ele><time>2026-03-22T09:02:57.293Z</time></trkpt><trkpt lat="45.9350073" lon="13.1347117"><ele>26.0</ele><time>2026-03-22T09:02:58.291Z</time></trkpt><trkpt lat="45.9349365" lon="13.1348026"><ele>26.0</ele><time>2026-03-22T09:02:59.3Z</time></trkpt><trkpt lat="45.934845" lon="13.1348647"><ele>26.0</ele><time>2026-03-22T09:03:00.298Z</time></trkpt><trkpt lat="45.9347494" lon="13.134935"><ele>26.5</ele><time>2026-03-22T09:03:01.284Z</time></trkpt><trkpt lat="45.9346666" lon="13.1350445"><ele>27.0</ele><time>2026-03-22T09:03:02.284Z</time></trkpt><trkpt lat="45.9346158" lon="13.1351931"><ele>27.5</ele><time>2026-03-22T09:03:03.288Z</time></trkpt><trkpt lat="45.9346052" lon="13.1353516"><ele>28.0</ele><time>2026-03-22T09:03:04.293Z</time></trkpt><trkpt lat="45.9346424" lon="13.1355034"><ele>28.0</ele><time>2026-03-22T09:03:05.283Z</time></trkpt><trkpt lat="45.9347062" lon="13.1356305"><ele>28.0</ele><time>2026-03-22T09:03:06.287Z</time></trkpt><trkpt lat="45.9348136" lon="13.1356895"><ele>28.0</ele><time>2026-03-22T09:03:07.303Z</time></trkpt><trkpt lat="45.9349325" lon="13.1357081"><ele>28.0</ele><time>2026-03-22T09:03:08.29Z</time></trkpt><trkpt lat="45.9350487" lon="13.1357222"><ele>28.25</ele><time>2026-03-22T09:03:09.29Z</time></trkpt><trkpt lat="45.9351645" lon="13.1357448"><ele>28.5</ele><time>2026-03-22T09:03:10.296Z</time></trkpt><trkpt lat="45.9352635" lon="13.1358341"><ele>28.75</ele><time>2026-03-22T09:03:11.3Z</time></trkpt><trkpt lat="45.9353261" lon="13.1359766"><ele>29.0</ele><time>2026-03-22T09:03:12.286Z</time></trkpt><trkpt lat="45.9353456" lon="13.1361538"><ele>29.0</ele><time>2026-03-22T09:03:13.3Z</time></trkpt><trkpt lat="45.9353512" lon="13.1363433"><ele>29.0</ele><time>2026-03-22T09:03:14.284Z</time></trkpt><trkpt lat="45.9353286" lon="13.1365497"><ele>29.0</ele><time>2026-03-22T09:03:15.302Z</time></trkpt><trkpt lat="45.9352912" lon="13.1367766"><ele>29.0</ele><time>2026-03-22T09:03:16.308Z</time></trkpt><trkpt lat="45.9352421" lon="13.1370215"><ele>28.666666666666664</ele><time>2026-03-22T09:03:17.287Z</time></trkpt><trkpt lat="45.9351972" lon="13.1372769"><ele>28.333333333333336</ele><time>2026-03-22T09:03:18.3Z</time></trkpt><trkpt lat="45.9351621" lon="13.1375415"><ele>28.0</ele><time>2026-03-22T09:03:19.287Z</time></trkpt><trkpt lat="45.9351425" lon="13.1378136"><ele>28.0</ele><time>2026-03-22T09:03:20.304Z</time></trkpt><trkpt lat="45.9351426" lon="13.1380869"><ele>28.0</ele><time>2026-03-22T09:03:21.301Z</time></trkpt><trkpt lat="45.935162" lon="13.1383589"><ele>28.0</ele><time>2026-03-22T09:03:22.289Z</time></trkpt><trkpt lat="45.9351949" lon="13.1386277"><ele>28.666666666666668</ele><time>2026-03-22T09:03:23.295Z</time></trkpt><trkpt lat="45.935233" lon="13.1388957"><ele>29.333333333333336</ele><time>2026-03-22T09:03:24.286Z</time></trkpt><trkpt lat="45.93527" lon="13.1391636"><ele>30.0</ele><time>2026-03-22T09:03:25.291Z</time></trkpt><trkpt lat="45.9353022" lon="13.1394328"><ele>30.666666666666664</ele><time>2026-03-22T09:03:26.288Z</time></trkpt><trkpt lat="45.9353351" lon="13.1397031"><ele>31.333333333333332</ele><time>2026-03-22T09:03:27.295Z</time></trkpt><trkpt lat="45.9353777" lon="13.1399715"><ele>32.0</ele><time>2026-03-22T09:03:28.279Z</time></trkpt><trkpt lat="45.9354292" lon="13.1402396"><ele>32.0</ele><time>2026-03-22T09:03:29.286Z</time></trkpt><trkpt lat="45.9354879" lon="13.1405069"><ele>32.0</ele><time>2026-03-22T09:03:30.287Z</time></trkpt><trkpt lat="45.9355504" lon="13.1407718"><ele>32.0</ele><time>2026-03-22T09:03:31.285Z</time></trkpt><trkpt lat="45.9356115" lon="13.1410373"><ele>31.666666666666664</ele><time>2026-03-22T09:03:32.285Z</time></trkpt><trkpt lat="45.9356761" lon="13.1412994"><ele>31.333333333333336</ele><time>2026-03-22T09:03:33.308Z</time></trkpt><trkpt lat="45.9357408" lon="13.1415597"><ele>31.0</ele><time>2026-03-22T09:03:34.286Z</time></trkpt><trkpt lat="45.9358035" lon="13.1418197"><ele>31.0</ele><time>2026-03-22T09:03:35.291Z</time></trkpt><trkpt lat="45.9358648" lon="13.1420781"><ele>31.0</ele><time>2026-03-22T09:03:36.292Z</time></trkpt><trkpt lat="45.9359269" lon="13.1423365"><ele>31.0</ele><time>2026-03-22T09:03:37.298Z</time></trkpt><trkpt lat="45.9359906" lon="13.1425997"><ele>31.0</ele><time>2026-03-22T09:03:38.292Z</time></trkpt><trkpt lat="45.9360587" lon="13.1428698"><ele>31.0</ele><time>2026-03-22T09:03:39.295Z</time></trkpt><trkpt lat="45.9361319" lon="13.1431459"><ele>31.0</ele><time>2026-03-22T09:03:40.295Z</time></trkpt><trkpt lat="45.9362092" lon="13.1434282"><ele>30.5</ele><time>2026-03-22T09:03:41.29Z</time></trkpt><trkpt lat="45.9363091" lon="13.143709"><ele>30.0</ele><time>2026-03-22T09:03:42.291Z</time></trkpt><trkpt lat="45.9364261" lon="13.1439965"><ele>30.0</ele><time>2026-03-22T09:03:43.297Z</time></trkpt><trkpt lat="45.9365521" lon="13.1442847"><ele>30.0</ele><time>2026-03-22T09:03:44.288Z</time></trkpt><trkpt lat="45.9366702" lon="13.1445667"><ele>30.0</ele><time>2026-03-22T09:03:45.288Z</time></trkpt><trkpt lat="45.936781" lon="13.1448434"><ele>30.0</ele><time>2026-03-22T09:03:46.293Z</time></trkpt><trkpt lat="45.9368906" lon="13.1451183"><ele>30.0</ele><time>2026-03-22T09:03:47.294Z</time></trkpt><trkpt lat="45.9369905" lon="13.145403"><ele>30.0</ele><time>2026-03-22T09:03:48.289Z</time></trkpt><trkpt lat="45.9370868" lon="13.1456952"><ele>30.0</ele><time>2026-03-22T09:03:49.295Z</time></trkpt><trkpt lat="45.9371797" lon="13.1459937"><ele>30.5</ele><time>2026-03-22T09:03:50.297Z</time></trkpt><trkpt lat="45.93727" lon="13.1462939"><ele>31.0</ele><time>2026-03-22T09:03:51.313Z</time></trkpt><trkpt lat="45.9373597" lon="13.1465904"><ele>31.0</ele><time>2026-03-22T09:03:52.298Z</time></trkpt><trkpt lat="45.9374463" lon="13.1468825"><ele>31.0</ele><time>2026-03-22T09:03:53.301Z</time></trkpt><trkpt lat="45.9375326" lon="13.1471656"><ele>31.0</ele><time>2026-03-22T09:03:54.296Z</time></trkpt><trkpt lat="45.9376176" lon="13.1474436"><ele>31.0</ele><time>2026-03-22T09:03:55.312Z</time></trkpt><trkpt lat="45.9377108" lon="13.147715"><ele>31.0</ele><time>2026-03-22T09:03:56.287Z</time></trkpt><trkpt lat="45.9378084" lon="13.1479777"><ele>31.0</ele><time>2026-03-22T09:03:57.289Z</time></trkpt><trkpt lat="45.9379199" lon="13.1482279"><ele>31.0</ele><time>2026-03-22T09:03:58.286Z</time></trkpt><trkpt lat="45.9380445" lon="13.1484651"><ele>31.0</ele><time>2026-03-22T09:03:59.287Z</time></trkpt><trkpt lat="45.9381734" lon="13.1486965"><ele>31.0</ele><time>2026-03-22T09:04:00.285Z</time></trkpt><trkpt lat="45.9383089" lon="13.1489199"><ele>31.333333333333336</ele><time>2026-03-22T09:04:01.288Z</time></trkpt><trkpt lat="45.9384425" lon="13.1491468"><ele>31.666666666666664</ele><time>2026-03-22T09:04:02.288Z</time></trkpt><trkpt lat="45.9385721" lon="13.1493768"><ele>32.0</ele><time>2026-03-22T09:04:03.304Z</time></trkpt><trkpt lat="45.9387022" lon="13.1496065"><ele>32.0</ele><time>2026-03-22T09:04:04.297Z</time></trkpt><trkpt lat="45.9388334" lon="13.149836"><ele>32.0</ele><time>2026-03-22T09:04:05.301Z</time></trkpt><trkpt lat="45.9389634" lon="13.1500659"><ele>32.0</ele><time>2026-03-22T09:04:06.288Z</time></trkpt><trkpt lat="45.9390968" lon="13.1502927"><ele>32.0</ele><time>2026-03-22T09:04:07.28Z</time></trkpt><trkpt lat="45.9392281" lon="13.1505256"><ele>32.0</ele><time>2026-03-22T09:04:08.283Z</time></trkpt><trkpt lat="45.9393707" lon="13.1507474"><ele>32.0</ele><time>2026-03-22T09:04:09.298Z</time></trkpt><trkpt lat="45.9395047" lon="13.1509796"><ele>32.33333333333333</ele><time>2026-03-22T09:04:10.278Z</time></trkpt><trkpt lat="45.9396147" lon="13.1512368"><ele>32.666666666666664</ele><time>2026-03-22T09:04:11.282Z</time></trkpt><trkpt lat="45.9397209" lon="13.1514996"><ele>33.0</ele><time>2026-03-22T09:04:12.294Z</time></trkpt><trkpt lat="45.9398138" lon="13.1517795"><ele>33.0</ele><time>2026-03-22T09:04:13.292Z</time></trkpt><trkpt lat="45.9399086" lon="13.1520588"><ele>33.0</ele><time>2026-03-22T09:04:14.292Z</time></trkpt><trkpt lat="45.940001" lon="13.1523378"><ele>33.0</ele><time>2026-03-22T09:04:15.287Z</time></trkpt><trkpt lat="45.9400898" lon="13.1526173"><ele>33.0</ele><time>2026-03-22T09:04:16.295Z</time></trkpt><trkpt lat="45.9401776" lon="13.1528982"><ele>33.0</ele><time>2026-03-22T09:04:17.29Z</time></trkpt><trkpt lat="45.9402575" lon="13.1531839"><ele>33.0</ele><time>2026-03-22T09:04:18.285Z</time></trkpt><trkpt lat="45.9403367" lon="13.1534683"><ele>33.0</ele><time>2026-03-22T09:04:19.299Z</time></trkpt><trkpt lat="45.9404151" lon="13.1537487"><ele>33.0</ele><time>2026-03-22T09:04:20.299Z</time></trkpt><trkpt lat="45.9404895" lon="13.1540238"><ele>33.0</ele><time>2026-03-22T09:04:21.286Z</time></trkpt><trkpt lat="45.9405576" lon="13.1542966"><ele>33.0</ele><time>2026-03-22T09:04:22.292Z</time></trkpt><trkpt lat="45.9406191" lon="13.1545721"><ele>33.0</ele><time>2026-03-22T09:04:23.295Z</time></trkpt><trkpt lat="45.9406662" lon="13.154856"><ele>33.0</ele><time>2026-03-22T09:04:24.314Z</time></trkpt><trkpt lat="45.9407078" lon="13.1551445"><ele>33.333333333333336</ele><time>2026-03-22T09:04:25.301Z</time></trkpt><trkpt lat="45.9407405" lon="13.1554387"><ele>33.66666666666667</ele><time>2026-03-22T09:04:26.298Z</time></trkpt><trkpt lat="45.9407765" lon="13.1557338"><ele>34.0</ele><time>2026-03-22T09:04:27.287Z</time></trkpt><trkpt lat="45.9408192" lon="13.1560273"><ele>34.0</ele><time>2026-03-22T09:04:28.283Z</time></trkpt><trkpt lat="45.9408612" lon="13.15632"><ele>34.0</ele><time>2026-03-22T09:04:29.287Z</time></trkpt><trkpt lat="45.9408983" lon="13.1566098"><ele>34.0</ele><time>2026-03-22T09:04:30.279Z</time></trkpt><trkpt lat="45.9409301" lon="13.1568982"><ele>34.0</ele><time>2026-03-22T09:04:31.292Z</time></trkpt><trkpt lat="45.9409548" lon="13.1571863"><ele>34.0</ele><time>2026-03-22T09:04:32.282Z</time></trkpt><trkpt lat="45.9409695" lon="13.1574731"><ele>34.0</ele><time>2026-03-22T09:04:33.287Z</time></trkpt><trkpt lat="45.9409729" lon="13.1577588"><ele>34.0</ele><time>2026-03-22T09:04:34.285Z</time></trkpt><trkpt lat="45.9409705" lon="13.1580441"><ele>34.0</ele><time>2026-03-22T09:04:35.279Z</time></trkpt><trkpt lat="45.9409612" lon="13.1583306"><ele>34.0</ele><time>2026-03-22T09:04:36.283Z</time></trkpt><trkpt lat="45.9409495" lon="13.1586194"><ele>34.0</ele><time>2026-03-22T09:04:37.291Z</time></trkpt><trkpt lat="45.9409401" lon="13.1589123"><ele>34.0</ele><time>2026-03-22T09:04:38.281Z</time></trkpt><trkpt lat="45.9409237" lon="13.1592068"><ele>34.0</ele><time>2026-03-22T09:04:39.277Z</time></trkpt><trkpt lat="45.94091" lon="13.1595018"><ele>34.333333333333336</ele><time>2026-03-22T09:04:40.285Z</time></trkpt><trkpt lat="45.9409" lon="13.159789"><ele>34.666666666666664</ele><time>2026-03-22T09:04:41.298Z</time></trkpt><trkpt lat="45.9408867" lon="13.1600594"><ele>35.0</ele><time>2026-03-22T09:04:42.273Z</time></trkpt><trkpt lat="45.9408705" lon="13.1603162"><ele>34.33333333333333</ele><time>2026-03-22T09:04:43.311Z</time></trkpt><trkpt lat="45.9408539" lon="13.1605638"><ele>33.666666666666664</ele><time>2026-03-22T09:04:44.281Z</time></trkpt><trkpt lat="45.9408362" lon="13.1608044"><ele>33.0</ele><time>2026-03-22T09:04:45.283Z</time></trkpt><trkpt lat="45.9408227" lon="13.1610367"><ele>33.0</ele><time>2026-03-22T09:04:46.284Z</time></trkpt><trkpt lat="45.9408119" lon="13.1612593"><ele>33.0</ele><time>2026-03-22T09:04:47.289Z</time></trkpt><trkpt lat="45.9407992" lon="13.1614761"><ele>33.0</ele><time>2026-03-22T09:04:48.304Z</time></trkpt><trkpt lat="45.940786" lon="13.1616856"><ele>33.5</ele><time>2026-03-22T09:04:49.282Z</time></trkpt><trkpt lat="45.9407763" lon="13.1618921"><ele>34.0</ele><time>2026-03-22T09:04:50.291Z</time></trkpt><trkpt lat="45.9407599" lon="13.1620991"><ele>34.5</ele><time>2026-03-22T09:04:51.301Z</time></trkpt><trkpt lat="45.9407452" lon="13.1623084"><ele>35.0</ele><time>2026-03-22T09:04:52.279Z</time></trkpt><trkpt lat="45.9407353" lon="13.1625186"><ele>35.0</ele><time>2026-03-22T09:04:53.289Z</time></trkpt><trkpt lat="45.9407243" lon="13.1627267"><ele>35.0</ele><time>2026-03-22T09:04:54.277Z</time></trkpt><trkpt lat="45.9407197" lon="13.1629343"><ele>35.0</ele><time>2026-03-22T09:04:55.281Z</time></trkpt><trkpt lat="45.9407152" lon="13.1631403"><ele>35.0</ele><time>2026-03-22T09:04:56.279Z</time></trkpt><trkpt lat="45.9407175" lon="13.163347"><ele>35.25</ele><time>2026-03-22T09:04:57.282Z</time></trkpt><trkpt lat="45.940749" lon="13.1635485"><ele>35.5</ele><time>2026-03-22T09:04:58.287Z</time></trkpt><trkpt lat="45.9407783" lon="13.1637429"><ele>35.75</ele><time>2026-03-22T09:04:59.279Z</time></trkpt><trkpt lat="45.9408061" lon="13.1639307"><ele>36.0</ele><time>2026-03-22T09:05:00.301Z</time></trkpt><trkpt lat="45.9408341" lon="13.1641127"><ele>36.0</ele><time>2026-03-22T09:05:01.287Z</time></trkpt><trkpt lat="45.9408628" lon="13.1642877"><ele>36.0</ele><time>2026-03-22T09:05:02.286Z</time></trkpt><trkpt lat="45.9408931" lon="13.1644586"><ele>36.0</ele><time>2026-03-22T09:05:03.286Z</time></trkpt><trkpt lat="45.9409275" lon="13.1646254"><ele>36.0</ele><time>2026-03-22T09:05:04.29Z</time></trkpt><trkpt lat="45.9409475" lon="13.1647992"><ele>36.25</ele><time>2026-03-22T09:05:05.303Z</time></trkpt><trkpt lat="45.9409906" lon="13.1649682"><ele>36.5</ele><time>2026-03-22T09:05:06.308Z</time></trkpt><trkpt lat="45.9410468" lon="13.1651317"><ele>36.75</ele><time>2026-03-22T09:05:07.293Z</time></trkpt><trkpt lat="45.9411078" lon="13.1652912"><ele>37.0</ele><time>2026-03-22T09:05:08.286Z</time></trkpt><trkpt lat="45.9411719" lon="13.165447"><ele>37.0</ele><time>2026-03-22T09:05:09.281Z</time></trkpt><trkpt lat="45.9412293" lon="13.1656084"><ele>37.0</ele><time>2026-03-22T09:05:10.31Z</time></trkpt><trkpt lat="45.941293" lon="13.1657678"><ele>37.0</ele><time>2026-03-22T09:05:11.285Z</time></trkpt><trkpt lat="45.9413539" lon="13.16593"><ele>37.0</ele><time>2026-03-22T09:05:12.303Z</time></trkpt><trkpt lat="45.9414174" lon="13.1660923"><ele>37.0</ele><time>2026-03-22T09:05:13.282Z</time></trkpt><trkpt lat="45.9414827" lon="13.1662575"><ele>37.0</ele><time>2026-03-22T09:05:14.275Z</time></trkpt><trkpt lat="45.9415454" lon="13.1664265"><ele>37.0</ele><time>2026-03-22T09:05:15.283Z</time></trkpt><trkpt lat="45.9416124" lon="13.1665932"><ele>37.0</ele><time>2026-03-22T09:05:16.298Z</time></trkpt><trkpt lat="45.9416736" lon="13.1667612"><ele>37.0</ele><time>2026-03-22T09:05:17.302Z</time></trkpt><trkpt lat="45.9417419" lon="13.1669183"><ele>37.0</ele><time>2026-03-22T09:05:18.289Z</time></trkpt><trkpt lat="45.9418055" lon="13.1670813"><ele>37.0</ele><time>2026-03-22T09:05:19.281Z</time></trkpt><trkpt lat="45.9418694" lon="13.1672481"><ele>37.0</ele><time>2026-03-22T09:05:20.279Z</time></trkpt><trkpt lat="45.9419355" lon="13.1674174"><ele>37.0</ele><time>2026-03-22T09:05:21.309Z</time></trkpt><trkpt lat="45.9420054" lon="13.1675909"><ele>37.0</ele><time>2026-03-22T09:05:22.29Z</time></trkpt><trkpt lat="45.9420717" lon="13.1677742"><ele>37.0</ele><time>2026-03-22T09:05:23.301Z</time></trkpt><trkpt lat="45.9421415" lon="13.1679536"><ele>37.0</ele><time>2026-03-22T09:05:24.289Z</time></trkpt><trkpt lat="45.9422067" lon="13.1681291"><ele>37.0</ele><time>2026-03-22T09:05:25.284Z</time></trkpt><trkpt lat="45.9422668" lon="13.168299"><ele>37.0</ele><time>2026-03-22T09:05:26.284Z</time></trkpt><trkpt lat="45.9423343" lon="13.1684551"><ele>37.0</ele><time>2026-03-22T09:05:27.291Z</time></trkpt><trkpt lat="45.9423934" lon="13.1686068"><ele>37.0</ele><time>2026-03-22T09:05:28.291Z</time></trkpt><trkpt lat="45.9424456" lon="13.1687529"><ele>37.0</ele><time>2026-03-22T09:05:29.28Z</time></trkpt><trkpt lat="45.9425121" lon="13.1688811"><ele>37.0</ele><time>2026-03-22T09:05:30.285Z</time></trkpt><trkpt lat="45.942571" lon="13.1690113"><ele>37.0</ele><time>2026-03-22T09:05:31.281Z</time></trkpt><trkpt lat="45.9426247" lon="13.1691484"><ele>37.0</ele><time>2026-03-22T09:05:32.283Z</time></trkpt><trkpt lat="45.9426813" lon="13.16929"><ele>37.0</ele><time>2026-03-22T09:05:33.293Z</time></trkpt><trkpt lat="45.9427383" lon="13.1694388"><ele>37.2</ele><time>2026-03-22T09:05:34.278Z</time></trkpt><trkpt lat="45.9427889" lon="13.1695946"><ele>37.400000000000006</ele><time>2026-03-22T09:05:35.28Z</time></trkpt><trkpt lat="45.9428487" lon="13.1697417"><ele>37.599999999999994</ele><time>2026-03-22T09:05:36.292Z</time></trkpt><trkpt lat="45.9429001" lon="13.1698818"><ele>37.8</ele><time>2026-03-22T09:05:37.282Z</time></trkpt><trkpt lat="45.9429471" lon="13.1700082"><ele>38.0</ele><time>2026-03-22T09:05:38.29Z</time></trkpt><trkpt lat="45.9429824" lon="13.170118"><ele>38.199999999999996</ele><time>2026-03-22T09:05:39.291Z</time></trkpt><trkpt lat="45.9430158" lon="13.1702024"><ele>38.4</ele><time>2026-03-22T09:05:40.295Z</time></trkpt><trkpt lat="45.9430705" lon="13.1703319"><ele>38.599999999999994</ele><time>2026-03-22T09:05:42.279Z</time></trkpt><trkpt lat="45.9431292" lon="13.1704769"><ele>38.8</ele><time>2026-03-22T09:05:44.274Z</time></trkpt><trkpt lat="45.9432037" lon="13.1706221"><ele>39.0</ele><time>2026-03-22T09:05:46.279Z</time></trkpt><trkpt lat="45.9432707" lon="13.1707718"><ele>39.0</ele><time>2026-03-22T09:05:48.282Z</time></trkpt><trkpt lat="45.9432991" lon="13.1708527"><ele>39.0</ele><time>2026-03-22T09:05:49.304Z</time></trkpt><trkpt lat="45.9433215" lon="13.171018"><ele>39.0</ele><time>2026-03-22T09:05:51.302Z</time></trkpt><trkpt lat="45.9433454" lon="13.171144"><ele>39.0</ele><time>2026-03-22T09:05:53.303Z</time></trkpt><trkpt lat="45.9433844" lon="13.1712465"><ele>39.0</ele><time>2026-03-22T09:05:55.296Z</time></trkpt><trkpt lat="45.9433949" lon="13.1713483"><ele>39.0</ele><time>2026-03-22T09:05:57.286Z</time></trkpt><trkpt lat="45.943419" lon="13.17147"><ele>39.0</ele><time>2026-03-22T09:05:59.297Z</time></trkpt><trkpt lat="45.943487" lon="13.17158"><ele>39.0</ele><time>2026-03-22T09:06:01.296Z</time></trkpt><trkpt lat="45.943579" lon="13.1716327"><ele>39.0</ele><time>2026-03-22T09:06:05.314Z</time></trkpt><trkpt lat="45.9435825" lon="13.1717601"><ele>39.0</ele><time>2026-03-22T09:07:45.271Z</time></trkpt><trkpt lat="45.9435084" lon="13.1717808"><ele>39.0</ele><time>2026-03-22T09:07:53.266Z</time></trkpt><trkpt lat="45.9434475" lon="13.1717431"><ele>39.0</ele><time>2026-03-22T09:10:08.026Z</time></trkpt><trkpt lat="45.9436543" lon="13.1713576"><ele>39.0</ele><time>2026-03-22T09:14:44.24Z</time></trkpt><trkpt lat="45.9437137" lon="13.1714169"><ele>39.0</ele><time>2026-03-22T09:14:49.325Z</time></trkpt><trkpt lat="45.9437097" lon="13.1715201"><ele>39.0</ele><time>2026-03-22T09:15:02.299Z</time></trkpt><trkpt lat="45.9436728" lon="13.1716152"><ele>39.0</ele><time>2026-03-22T09:15:03.289Z</time></trkpt><trkpt lat="45.9435637" lon="13.1716796"><ele>39.0</ele><time>2026-03-22T09:15:17.28Z</time></trkpt><trkpt lat="45.9436362" lon="13.1716603"><ele>39.0</ele><time>2026-03-22T09:15:20.297Z</time></trkpt><trkpt lat="45.9435891" lon="13.1717211"><ele>39.0</ele><time>2026-03-22T09:19:08.275Z</time></trkpt><trkpt lat="45.9437427" lon="13.1718023"><ele>39.0</ele><time>2026-03-22T09:23:49.286Z</time></trkpt><trkpt lat="45.943829" lon="13.1717935"><ele>39.0</ele><time>2026-03-22T09:23:50.298Z</time></trkpt><trkpt lat="45.9439495" lon="13.1717963"><ele>39.0</ele><time>2026-03-22T09:23:52.285Z</time></trkpt><trkpt lat="45.9440678" lon="13.1718498"><ele>39.0</ele><time>2026-03-22T09:23:53.294Z</time></trkpt><trkpt lat="45.9441432" lon="13.1718859"><ele>39.0</ele><time>2026-03-22T09:23:54.288Z</time></trkpt><trkpt lat="45.9442331" lon="13.1719185"><ele>39.0</ele><time>2026-03-22T09:23:55.292Z</time></trkpt><trkpt lat="45.9443145" lon="13.1719309"><ele>39.0</ele><time>2026-03-22T09:23:56.297Z</time></trkpt><trkpt lat="45.9443798" lon="13.1719423"><ele>39.0</ele><time>2026-03-22T09:23:57.304Z</time></trkpt><trkpt lat="45.9444417" lon="13.1719637"><ele>39.0</ele><time>2026-03-22T09:23:58.292Z</time></trkpt><trkpt lat="45.9445065" lon="13.1719985"><ele>39.0</ele><time>2026-03-22T09:23:59.289Z</time></trkpt><trkpt lat="45.9445742" lon="13.172042"><ele>39.0</ele><time>2026-03-22T09:24:00.286Z</time></trkpt><trkpt lat="45.9446447" lon="13.1720902"><ele>39.0</ele><time>2026-03-22T09:24:01.314Z</time></trkpt><trkpt lat="45.9447075" lon="13.172145"><ele>39.0</ele><time>2026-03-22T09:24:02.283Z</time></trkpt><trkpt lat="45.9447605" lon="13.1722111"><ele>39.0</ele><time>2026-03-22T09:24:03.287Z</time></trkpt><trkpt lat="45.9448171" lon="13.1722725"><ele>39.0</ele><time>2026-03-22T09:24:04.293Z</time></trkpt><trkpt lat="45.9449051" lon="13.1724033"><ele>39.0</ele><time>2026-03-22T09:24:06.287Z</time></trkpt><trkpt lat="45.9449501" lon="13.1724942"><ele>39.0</ele><time>2026-03-22T09:24:07.282Z</time></trkpt><trkpt lat="45.9449829" lon="13.172587"><ele>39.0</ele><time>2026-03-22T09:24:08.297Z</time></trkpt><trkpt lat="45.9450168" lon="13.1726737"><ele>39.0</ele><time>2026-03-22T09:24:09.301Z</time></trkpt><trkpt lat="45.9450581" lon="13.1727623"><ele>39.0</ele><time>2026-03-22T09:24:10.292Z</time></trkpt><trkpt lat="45.9450992" lon="13.1728677"><ele>39.0</ele><time>2026-03-22T09:24:11.294Z</time></trkpt><trkpt lat="45.9451397" lon="13.1729849"><ele>39.2</ele><time>2026-03-22T09:24:12.282Z</time></trkpt><trkpt lat="45.9451798" lon="13.1731079"><ele>39.4</ele><time>2026-03-22T09:24:13.304Z</time></trkpt><trkpt lat="45.9452271" lon="13.1732221"><ele>39.6</ele><time>2026-03-22T09:24:14.307Z</time></trkpt><trkpt lat="45.9452673" lon="13.1733412"><ele>39.8</ele><time>2026-03-22T09:24:15.287Z</time></trkpt><trkpt lat="45.9453044" lon="13.1734578"><ele>40.0</ele><time>2026-03-22T09:24:16.292Z</time></trkpt><trkpt lat="45.9453387" lon="13.1735735"><ele>40.0</ele><time>2026-03-22T09:24:17.295Z</time></trkpt><trkpt lat="45.9453726" lon="13.1736853"><ele>40.0</ele><time>2026-03-22T09:24:18.296Z</time></trkpt><trkpt lat="45.9454067" lon="13.173797"><ele>40.0</ele><time>2026-03-22T09:24:19.288Z</time></trkpt><trkpt lat="45.9454518" lon="13.1738943"><ele>40.0</ele><time>2026-03-22T09:24:20.3Z</time></trkpt><trkpt lat="45.9454952" lon="13.1740016"><ele>40.0</ele><time>2026-03-22T09:24:21.313Z</time></trkpt><trkpt lat="45.9455344" lon="13.1741206"><ele>40.0</ele><time>2026-03-22T09:24:22.284Z</time></trkpt><trkpt lat="45.9455783" lon="13.1742408"><ele>40.0</ele><time>2026-03-22T09:24:23.289Z</time></trkpt><trkpt lat="45.9456185" lon="13.1743705"><ele>40.0</ele><time>2026-03-22T09:24:24.317Z</time></trkpt><trkpt lat="45.9456607" lon="13.1744995"><ele>40.0</ele><time>2026-03-22T09:24:25.303Z</time></trkpt><trkpt lat="45.945708" lon="13.1746225"><ele>40.0</ele><time>2026-03-22T09:24:26.308Z</time></trkpt><trkpt lat="45.9457651" lon="13.1747291"><ele>40.0</ele><time>2026-03-22T09:24:27.284Z</time></trkpt><trkpt lat="45.9458173" lon="13.174842"><ele>40.0</ele><time>2026-03-22T09:24:28.286Z</time></trkpt><trkpt lat="45.9458797" lon="13.1749449"><ele>40.0</ele><time>2026-03-22T09:24:29.29Z</time></trkpt><trkpt lat="45.9459453" lon="13.1750385"><ele>40.0</ele><time>2026-03-22T09:24:30.298Z</time></trkpt><trkpt lat="45.9460027" lon="13.1751327"><ele>40.0</ele><time>2026-03-22T09:24:31.285Z</time></trkpt><trkpt lat="45.9460573" lon="13.1752249"><ele>40.0</ele><time>2026-03-22T09:24:32.303Z</time></trkpt><trkpt lat="45.9461134" lon="13.1753124"><ele>40.0</ele><time>2026-03-22T09:24:33.294Z</time></trkpt><trkpt lat="45.9461794" lon="13.1753882"><ele>40.0</ele><time>2026-03-22T09:24:34.301Z</time></trkpt><trkpt lat="45.9462475" lon="13.1754763"><ele>40.0</ele><time>2026-03-22T09:24:35.291Z</time></trkpt><trkpt lat="45.946312" lon="13.175575"><ele>40.0</ele><time>2026-03-22T09:24:36.285Z</time></trkpt><trkpt lat="45.9463719" lon="13.1756822"><ele>40.0</ele><time>2026-03-22T09:24:37.289Z</time></trkpt><trkpt lat="45.9464132" lon="13.1758142"><ele>40.0</ele><time>2026-03-22T09:24:38.28Z</time></trkpt><trkpt lat="45.9464537" lon="13.1759517"><ele>40.2</ele><time>2026-03-22T09:24:39.287Z</time></trkpt><trkpt lat="45.9464993" lon="13.1760836"><ele>40.4</ele><time>2026-03-22T09:24:40.286Z</time></trkpt><trkpt lat="45.9465325" lon="13.1762165"><ele>40.599999999999994</ele><time>2026-03-22T09:24:41.288Z</time></trkpt><trkpt lat="45.9465554" lon="13.176356"><ele>40.8</ele><time>2026-03-22T09:24:42.28Z</time></trkpt><trkpt lat="45.9465675" lon="13.1764995"><ele>41.0</ele><time>2026-03-22T09:24:43.297Z</time></trkpt><trkpt lat="45.9465735" lon="13.1766429"><ele>41.0</ele><time>2026-03-22T09:24:44.276Z</time></trkpt><trkpt lat="45.9465831" lon="13.1767937"><ele>41.0</ele><time>2026-03-22T09:24:45.304Z</time></trkpt><trkpt lat="45.9466039" lon="13.1769412"><ele>41.0</ele><time>2026-03-22T09:24:46.306Z</time></trkpt><trkpt lat="45.9466324" lon="13.1770818"><ele>41.0</ele><time>2026-03-22T09:24:47.293Z</time></trkpt><trkpt lat="45.946665" lon="13.1772161"><ele>41.0</ele><time>2026-03-22T09:24:48.283Z</time></trkpt><trkpt lat="45.9466986" lon="13.1773445"><ele>41.0</ele><time>2026-03-22T09:24:49.301Z</time></trkpt><trkpt lat="45.9467294" lon="13.1774679"><ele>41.0</ele><time>2026-03-22T09:24:50.281Z</time></trkpt><trkpt lat="45.9467536" lon="13.1775869"><ele>41.0</ele><time>2026-03-22T09:24:51.291Z</time></trkpt><trkpt lat="45.9467713" lon="13.1776995"><ele>41.0</ele><time>2026-03-22T09:24:52.305Z</time></trkpt><trkpt lat="45.9467816" lon="13.1778009"><ele>41.0</ele><time>2026-03-22T09:24:53.306Z</time></trkpt><trkpt lat="45.9468044" lon="13.1779529"><ele>41.0</ele><time>2026-03-22T09:24:55.279Z</time></trkpt><trkpt lat="45.9468135" lon="13.1780545"><ele>41.0</ele><time>2026-03-22T09:24:57.301Z</time></trkpt><trkpt lat="45.946819" lon="13.1781664"><ele>41.0</ele><time>2026-03-22T09:25:00.287Z</time></trkpt><trkpt lat="45.9468233" lon="13.1782827"><ele>41.0</ele><time>2026-03-22T09:25:06.302Z</time></trkpt><trkpt lat="45.9468623" lon="13.1783817"><ele>41.0</ele><time>2026-03-22T09:25:08.299Z</time></trkpt><trkpt lat="45.9469205" lon="13.1784757"><ele>41.0</ele><time>2026-03-22T09:25:10.28Z</time></trkpt><trkpt lat="45.9469426" lon="13.1786221"><ele>41.0</ele><time>2026-03-22T09:25:12.287Z</time></trkpt><trkpt lat="45.9469229" lon="13.1787124"><ele>41.166666666666664</ele><time>2026-03-22T09:25:13.297Z</time></trkpt><trkpt lat="45.946902" lon="13.1788039"><ele>41.33333333333333</ele><time>2026-03-22T09:25:14.29Z</time></trkpt><trkpt lat="45.9468976" lon="13.1789077"><ele>41.5</ele><time>2026-03-22T09:25:15.29Z</time></trkpt><trkpt lat="45.9469243" lon="13.1790253"><ele>41.666666666666664</ele><time>2026-03-22T09:25:16.29Z</time></trkpt><trkpt lat="45.9469623" lon="13.1791546"><ele>41.833333333333336</ele><time>2026-03-22T09:25:17.296Z</time></trkpt><trkpt lat="45.9470196" lon="13.1792826"><ele>42.0</ele><time>2026-03-22T09:25:18.282Z</time></trkpt><trkpt lat="45.9470715" lon="13.1794206"><ele>42.0</ele><time>2026-03-22T09:25:19.288Z</time></trkpt><trkpt lat="45.9471218" lon="13.1795695"><ele>42.0</ele><time>2026-03-22T09:25:20.3Z</time></trkpt><trkpt lat="45.9471674" lon="13.1797282"><ele>42.0</ele><time>2026-03-22T09:25:21.302Z</time></trkpt><trkpt lat="45.9472127" lon="13.1798928"><ele>42.0</ele><time>2026-03-22T09:25:22.29Z</time></trkpt><trkpt lat="45.9472631" lon="13.1800563"><ele>41.75</ele><time>2026-03-22T09:25:23.294Z</time></trkpt><trkpt lat="45.9473189" lon="13.1802158"><ele>41.5</ele><time>2026-03-22T09:25:24.301Z</time></trkpt><trkpt lat="45.9473775" lon="13.1803748"><ele>41.25</ele><time>2026-03-22T09:25:25.292Z</time></trkpt><trkpt lat="45.9474352" lon="13.1805364"><ele>41.0</ele><time>2026-03-22T09:25:26.3Z</time></trkpt><trkpt lat="45.947493" lon="13.1807008"><ele>41.25</ele><time>2026-03-22T09:25:27.303Z</time></trkpt><trkpt lat="45.9475534" lon="13.1808677"><ele>41.5</ele><time>2026-03-22T09:25:28.277Z</time></trkpt><trkpt lat="45.9476066" lon="13.1810459"><ele>41.75</ele><time>2026-03-22T09:25:29.298Z</time></trkpt><trkpt lat="45.9476635" lon="13.181226"><ele>42.0</ele><time>2026-03-22T09:25:30.283Z</time></trkpt><trkpt lat="45.9477214" lon="13.1814095"><ele>42.0</ele><time>2026-03-22T09:25:31.282Z</time></trkpt><trkpt lat="45.947785" lon="13.1815952"><ele>42.0</ele><time>2026-03-22T09:25:32.3Z</time></trkpt><trkpt lat="45.9478468" lon="13.1817874"><ele>42.0</ele><time>2026-03-22T09:25:33.306Z</time></trkpt><trkpt lat="45.94792" lon="13.1819752"><ele>42.0</ele><time>2026-03-22T09:25:34.29Z</time></trkpt><trkpt lat="45.9479928" lon="13.1821664"><ele>41.666666666666664</ele><time>2026-03-22T09:25:35.283Z</time></trkpt><trkpt lat="45.9480659" lon="13.1823597"><ele>41.33333333333333</ele><time>2026-03-22T09:25:36.29Z</time></trkpt><trkpt lat="45.9481394" lon="13.182559"><ele>41.0</ele><time>2026-03-22T09:25:37.302Z</time></trkpt><trkpt lat="45.9482117" lon="13.1827637"><ele>41.0</ele><time>2026-03-22T09:25:38.286Z</time></trkpt><trkpt lat="45.948286" lon="13.1829657"><ele>41.0</ele><time>2026-03-22T09:25:39.302Z</time></trkpt><trkpt lat="45.9483422" lon="13.1831753"><ele>41.0</ele><time>2026-03-22T09:25:40.288Z</time></trkpt><trkpt lat="45.9483952" lon="13.1833857"><ele>41.33333333333333</ele><time>2026-03-22T09:25:41.299Z</time></trkpt><trkpt lat="45.9484404" lon="13.1835961"><ele>41.666666666666664</ele><time>2026-03-22T09:25:42.274Z</time></trkpt><trkpt lat="45.9484701" lon="13.1838102"><ele>42.0</ele><time>2026-03-22T09:25:43.307Z</time></trkpt><trkpt lat="45.9484922" lon="13.1840258"><ele>42.0</ele><time>2026-03-22T09:25:44.279Z</time></trkpt><trkpt lat="45.948508" lon="13.184246"><ele>42.0</ele><time>2026-03-22T09:25:45.297Z</time></trkpt><trkpt lat="45.9485213" lon="13.1844709"><ele>42.0</ele><time>2026-03-22T09:25:46.285Z</time></trkpt><trkpt lat="45.9485384" lon="13.1846975"><ele>41.666666666666664</ele><time>2026-03-22T09:25:47.286Z</time></trkpt><trkpt lat="45.9485553" lon="13.184925"><ele>41.33333333333333</ele><time>2026-03-22T09:25:48.291Z</time></trkpt><trkpt lat="45.9485728" lon="13.185151"><ele>41.0</ele><time>2026-03-22T09:25:49.282Z</time></trkpt><trkpt lat="45.9485906" lon="13.1853751"><ele>41.0</ele><time>2026-03-22T09:25:50.289Z</time></trkpt><trkpt lat="45.9486086" lon="13.1855981"><ele>41.0</ele><time>2026-03-22T09:25:51.303Z</time></trkpt><trkpt lat="45.9486258" lon="13.1858205"><ele>41.0</ele><time>2026-03-22T09:25:52.293Z</time></trkpt><trkpt lat="45.9486439" lon="13.1860424"><ele>40.666666666666664</ele><time>2026-03-22T09:25:53.293Z</time></trkpt><trkpt lat="45.9486616" lon="13.1862638"><ele>40.333333333333336</ele><time>2026-03-22T09:25:54.301Z</time></trkpt><trkpt lat="45.9486803" lon="13.1864849"><ele>40.0</ele><time>2026-03-22T09:25:55.311Z</time></trkpt><trkpt lat="45.9486991" lon="13.186707"><ele>40.0</ele><time>2026-03-22T09:25:56.293Z</time></trkpt><trkpt lat="45.9487053" lon="13.1869334"><ele>40.0</ele><time>2026-03-22T09:25:57.299Z</time></trkpt><trkpt lat="45.9487171" lon="13.1871601"><ele>40.0</ele><time>2026-03-22T09:25:58.284Z</time></trkpt><trkpt lat="45.9487326" lon="13.1873865"><ele>39.66666666666667</ele><time>2026-03-22T09:25:59.293Z</time></trkpt><trkpt lat="45.9487509" lon="13.1876137"><ele>39.333333333333336</ele><time>2026-03-22T09:26:00.278Z</time></trkpt><trkpt lat="45.948784" lon="13.1878408"><ele>39.0</ele><time>2026-03-22T09:26:01.3Z</time></trkpt><trkpt lat="45.9488052" lon="13.1880748"><ele>39.666666666666664</ele><time>2026-03-22T09:26:02.283Z</time></trkpt><trkpt lat="45.9488243" lon="13.1883121"><ele>40.33333333333333</ele><time>2026-03-22T09:26:03.287Z</time></trkpt><trkpt lat="45.9488426" lon="13.1885504"><ele>41.0</ele><time>2026-03-22T09:26:04.287Z</time></trkpt><trkpt lat="45.9488605" lon="13.1887908"><ele>41.0</ele><time>2026-03-22T09:26:05.299Z</time></trkpt><trkpt lat="45.9488775" lon="13.1890333"><ele>41.0</ele><time>2026-03-22T09:26:06.289Z</time></trkpt><trkpt lat="45.948895" lon="13.1892778"><ele>41.0</ele><time>2026-03-22T09:26:07.283Z</time></trkpt><trkpt lat="45.9489112" lon="13.1895246"><ele>41.0</ele><time>2026-03-22T09:26:08.302Z</time></trkpt><trkpt lat="45.9489245" lon="13.1897722"><ele>41.0</ele><time>2026-03-22T09:26:09.287Z</time></trkpt><trkpt lat="45.9489359" lon="13.190019"><ele>41.0</ele><time>2026-03-22T09:26:10.283Z</time></trkpt><trkpt lat="45.9489319" lon="13.1902681"><ele>41.33333333333333</ele><time>2026-03-22T09:26:11.283Z</time></trkpt><trkpt lat="45.9489329" lon="13.1905179"><ele>41.666666666666664</ele><time>2026-03-22T09:26:12.29Z</time></trkpt><trkpt lat="45.9489352" lon="13.1907683"><ele>42.0</ele><time>2026-03-22T09:26:13.315Z</time></trkpt><trkpt lat="45.9489326" lon="13.1910205"><ele>42.0</ele><time>2026-03-22T09:26:14.298Z</time></trkpt><trkpt lat="45.9489262" lon="13.191274"><ele>42.0</ele><time>2026-03-22T09:26:15.29Z</time></trkpt><trkpt lat="45.9489326" lon="13.1915289"><ele>42.0</ele><time>2026-03-22T09:26:16.289Z</time></trkpt><trkpt lat="45.9489299" lon="13.1917845"><ele>42.0</ele><time>2026-03-22T09:26:17.298Z</time></trkpt><trkpt lat="45.9489248" lon="13.1920408"><ele>42.0</ele><time>2026-03-22T09:26:18.283Z</time></trkpt><trkpt lat="45.948922" lon="13.1922988"><ele>42.0</ele><time>2026-03-22T09:26:19.319Z</time></trkpt><trkpt lat="45.9489237" lon="13.1925571"><ele>42.0</ele><time>2026-03-22T09:26:20.3Z</time></trkpt><trkpt lat="45.9489188" lon="13.1928165"><ele>42.0</ele><time>2026-03-22T09:26:21.306Z</time></trkpt><trkpt lat="45.9489147" lon="13.1930778"><ele>42.0</ele><time>2026-03-22T09:26:22.306Z</time></trkpt><trkpt lat="45.9489037" lon="13.1933403"><ele>42.0</ele><time>2026-03-22T09:26:23.289Z</time></trkpt><trkpt lat="45.9488991" lon="13.1936027"><ele>42.0</ele><time>2026-03-22T09:26:24.29Z</time></trkpt><trkpt lat="45.9488957" lon="13.1938648"><ele>42.0</ele><time>2026-03-22T09:26:25.291Z</time></trkpt><trkpt lat="45.9488933" lon="13.1941289"><ele>42.0</ele><time>2026-03-22T09:26:26.284Z</time></trkpt><trkpt lat="45.9488967" lon="13.1943946"><ele>42.0</ele><time>2026-03-22T09:26:27.3Z</time></trkpt><trkpt lat="45.9488863" lon="13.1946633"><ele>42.0</ele><time>2026-03-22T09:26:28.291Z</time></trkpt><trkpt lat="45.9488789" lon="13.1949328"><ele>42.0</ele><time>2026-03-22T09:26:29.301Z</time></trkpt><trkpt lat="45.9488736" lon="13.1952033"><ele>42.0</ele><time>2026-03-22T09:26:30.292Z</time></trkpt><trkpt lat="45.9488706" lon="13.1954754"><ele>42.0</ele><time>2026-03-22T09:26:31.3Z</time></trkpt><trkpt lat="45.948867" lon="13.195749"><ele>42.0</ele><time>2026-03-22T09:26:32.304Z</time></trkpt><trkpt lat="45.9488639" lon="13.1960233"><ele>42.0</ele><time>2026-03-22T09:26:33.299Z</time></trkpt><trkpt lat="45.9488616" lon="13.1962973"><ele>42.0</ele><time>2026-03-22T09:26:34.281Z</time></trkpt><trkpt lat="45.9488467" lon="13.1965744"><ele>41.666666666666664</ele><time>2026-03-22T09:26:35.298Z</time></trkpt><trkpt lat="45.9488512" lon="13.1968553"><ele>41.33333333333333</ele><time>2026-03-22T09:26:36.308Z</time></trkpt><trkpt lat="45.9488479" lon="13.1971389"><ele>41.0</ele><time>2026-03-22T09:26:37.29Z</time></trkpt><trkpt lat="45.948842" lon="13.1974225"><ele>41.0</ele><time>2026-03-22T09:26:38.304Z</time></trkpt><trkpt lat="45.9488367" lon="13.1977078"><ele>41.0</ele><time>2026-03-22T09:26:39.298Z</time></trkpt><trkpt lat="45.9488338" lon="13.197995"><ele>41.0</ele><time>2026-03-22T09:26:40.289Z</time></trkpt><trkpt lat="45.9488312" lon="13.1982838"><ele>41.0</ele><time>2026-03-22T09:26:41.292Z</time></trkpt><trkpt lat="45.9488287" lon="13.1985733"><ele>41.0</ele><time>2026-03-22T09:26:42.291Z</time></trkpt><trkpt lat="45.9488313" lon="13.1988608"><ele>41.0</ele><time>2026-03-22T09:26:43.311Z</time></trkpt><trkpt lat="45.9488286" lon="13.1991479"><ele>41.0</ele><time>2026-03-22T09:26:44.289Z</time></trkpt><trkpt lat="45.9488425" lon="13.1994358"><ele>41.0</ele><time>2026-03-22T09:26:45.292Z</time></trkpt><trkpt lat="45.9488549" lon="13.1997212"><ele>41.0</ele><time>2026-03-22T09:26:46.298Z</time></trkpt><trkpt lat="45.9488712" lon="13.2000068"><ele>41.0</ele><time>2026-03-22T09:26:47.306Z</time></trkpt><trkpt lat="45.9489002" lon="13.2002878"><ele>41.0</ele><time>2026-03-22T09:26:48.314Z</time></trkpt><trkpt lat="45.9489352" lon="13.2005649"><ele>41.0</ele><time>2026-03-22T09:26:49.307Z</time></trkpt><trkpt lat="45.9489781" lon="13.2008395"><ele>40.666666666666664</ele><time>2026-03-22T09:26:50.286Z</time></trkpt><trkpt lat="45.9490317" lon="13.2011118"><ele>40.333333333333336</ele><time>2026-03-22T09:26:51.299Z</time></trkpt><trkpt lat="45.9490906" lon="13.2013824"><ele>40.0</ele><time>2026-03-22T09:26:52.29Z</time></trkpt><trkpt lat="45.9491527" lon="13.2016509"><ele>39.66666666666667</ele><time>2026-03-22T09:26:53.304Z</time></trkpt><trkpt lat="45.9492255" lon="13.2019116"><ele>39.333333333333336</ele><time>2026-03-22T09:26:54.292Z</time></trkpt><trkpt lat="45.9492947" lon="13.2021723"><ele>39.0</ele><time>2026-03-22T09:26:55.298Z</time></trkpt><trkpt lat="45.9493621" lon="13.2024294"><ele>39.0</ele><time>2026-03-22T09:26:56.292Z</time></trkpt><trkpt lat="45.949428" lon="13.2026816"><ele>39.0</ele><time>2026-03-22T09:26:57.327Z</time></trkpt><trkpt lat="45.949496" lon="13.2029287"><ele>39.0</ele><time>2026-03-22T09:26:58.298Z</time></trkpt><trkpt lat="45.9495512" lon="13.2031811"><ele>39.666666666666664</ele><time>2026-03-22T09:26:59.294Z</time></trkpt><trkpt lat="45.9496216" lon="13.2034231"><ele>40.33333333333333</ele><time>2026-03-22T09:27:00.288Z</time></trkpt><trkpt lat="45.9496873" lon="13.2036674"><ele>41.0</ele><time>2026-03-22T09:27:01.289Z</time></trkpt><trkpt lat="45.9497486" lon="13.2039131"><ele>41.0</ele><time>2026-03-22T09:27:02.283Z</time></trkpt><trkpt lat="45.9498106" lon="13.2041578"><ele>41.0</ele><time>2026-03-22T09:27:03.311Z</time></trkpt><trkpt lat="45.9498747" lon="13.2044001"><ele>41.0</ele><time>2026-03-22T09:27:04.295Z</time></trkpt><trkpt lat="45.9499333" lon="13.2046438"><ele>40.666666666666664</ele><time>2026-03-22T09:27:05.283Z</time></trkpt><trkpt lat="45.9499941" lon="13.2048852"><ele>40.333333333333336</ele><time>2026-03-22T09:27:06.291Z</time></trkpt><trkpt lat="45.9500448" lon="13.2051326"><ele>40.0</ele><time>2026-03-22T09:27:07.302Z</time></trkpt><trkpt lat="45.9501137" lon="13.2053686"><ele>40.0</ele><time>2026-03-22T09:27:08.315Z</time></trkpt><trkpt lat="45.9501776" lon="13.2056068"><ele>40.0</ele><time>2026-03-22T09:27:09.303Z</time></trkpt><trkpt lat="45.9502289" lon="13.2058542"><ele>40.0</ele><time>2026-03-22T09:27:10.323Z</time></trkpt><trkpt lat="45.9502872" lon="13.2060989"><ele>40.333333333333336</ele><time>2026-03-22T09:27:11.31Z</time></trkpt><trkpt lat="45.9503483" lon="13.2063425"><ele>40.666666666666664</ele><time>2026-03-22T09:27:12.304Z</time></trkpt><trkpt lat="45.9504112" lon="13.2065856"><ele>41.0</ele><time>2026-03-22T09:27:13.314Z</time></trkpt><trkpt lat="45.9504739" lon="13.2068291"><ele>41.0</ele><time>2026-03-22T09:27:14.294Z</time></trkpt><trkpt lat="45.9505372" lon="13.2070737"><ele>41.0</ele><time>2026-03-22T09:27:15.301Z</time></trkpt><trkpt lat="45.95061" lon="13.2073147"><ele>41.0</ele><time>2026-03-22T09:27:16.29Z</time></trkpt><trkpt lat="45.9506756" lon="13.2075617"><ele>40.666666666666664</ele><time>2026-03-22T09:27:17.289Z</time></trkpt><trkpt lat="45.9507401" lon="13.2078106"><ele>40.333333333333336</ele><time>2026-03-22T09:27:18.28Z</time></trkpt><trkpt lat="45.9508021" lon="13.20806"><ele>40.0</ele><time>2026-03-22T09:27:19.306Z</time></trkpt><trkpt lat="45.9508649" lon="13.2083085"><ele>40.333333333333336</ele><time>2026-03-22T09:27:20.3Z</time></trkpt><trkpt lat="45.9509281" lon="13.2085565"><ele>40.666666666666664</ele><time>2026-03-22T09:27:21.311Z</time></trkpt><trkpt lat="45.9509917" lon="13.2088035"><ele>41.0</ele><time>2026-03-22T09:27:22.312Z</time></trkpt><trkpt lat="45.951055" lon="13.2090501"><ele>41.33333333333333</ele><time>2026-03-22T09:27:23.33Z</time></trkpt><trkpt lat="45.9511174" lon="13.2092972"><ele>41.666666666666664</ele><time>2026-03-22T09:27:24.286Z</time></trkpt><trkpt lat="45.9511808" lon="13.2095436"><ele>42.0</ele><time>2026-03-22T09:27:25.304Z</time></trkpt><trkpt lat="45.9512378" lon="13.2097959"><ele>41.0</ele><time>2026-03-22T09:27:26.304Z</time></trkpt><trkpt lat="45.9513005" lon="13.2100475"><ele>40.0</ele><time>2026-03-22T09:27:27.297Z</time></trkpt><trkpt lat="45.9513727" lon="13.2102947"><ele>39.0</ele><time>2026-03-22T09:27:28.299Z</time></trkpt><trkpt lat="45.9514307" lon="13.210552"><ele>39.0</ele><time>2026-03-22T09:27:29.3Z</time></trkpt><trkpt lat="45.9514956" lon="13.2108069"><ele>39.0</ele><time>2026-03-22T09:27:30.298Z</time></trkpt><trkpt lat="45.9515627" lon="13.2110617"><ele>39.0</ele><time>2026-03-22T09:27:31.284Z</time></trkpt><trkpt lat="45.9516368" lon="13.2113129"><ele>39.0</ele><time>2026-03-22T09:27:32.281Z</time></trkpt><trkpt lat="45.9517049" lon="13.2115676"><ele>39.0</ele><time>2026-03-22T09:27:33.281Z</time></trkpt><trkpt lat="45.9517699" lon="13.2118239"><ele>39.0</ele><time>2026-03-22T09:27:34.285Z</time></trkpt><trkpt lat="45.9518431" lon="13.2120743"><ele>39.333333333333336</ele><time>2026-03-22T09:27:35.3Z</time></trkpt><trkpt lat="45.9519222" lon="13.2123182"><ele>39.66666666666667</ele><time>2026-03-22T09:27:36.288Z</time></trkpt><trkpt lat="45.9520071" lon="13.2125556"><ele>40.0</ele><time>2026-03-22T09:27:37.283Z</time></trkpt><trkpt lat="45.9520954" lon="13.2127898"><ele>40.0</ele><time>2026-03-22T09:27:38.283Z</time></trkpt><trkpt lat="45.9521855" lon="13.2130232"><ele>40.0</ele><time>2026-03-22T09:27:39.282Z</time></trkpt><trkpt lat="45.9522757" lon="13.2132573"><ele>40.0</ele><time>2026-03-22T09:27:40.282Z</time></trkpt><trkpt lat="45.9523656" lon="13.2134912"><ele>40.333333333333336</ele><time>2026-03-22T09:27:41.284Z</time></trkpt><trkpt lat="45.9524578" lon="13.2137228"><ele>40.666666666666664</ele><time>2026-03-22T09:27:42.295Z</time></trkpt><trkpt lat="45.9525416" lon="13.2139621"><ele>41.0</ele><time>2026-03-22T09:27:43.301Z</time></trkpt><trkpt lat="45.9526325" lon="13.214198"><ele>41.33333333333333</ele><time>2026-03-22T09:27:44.306Z</time></trkpt><trkpt lat="45.9527326" lon="13.2144277"><ele>41.666666666666664</ele><time>2026-03-22T09:27:45.3Z</time></trkpt><trkpt lat="45.952828" lon="13.2146629"><ele>42.0</ele><time>2026-03-22T09:27:46.289Z</time></trkpt><trkpt lat="45.9529168" lon="13.2149059"><ele>42.0</ele><time>2026-03-22T09:27:47.313Z</time></trkpt><trkpt lat="45.9530111" lon="13.2151449"><ele>42.0</ele><time>2026-03-22T09:27:48.29Z</time></trkpt><trkpt lat="45.9531063" lon="13.2153834"><ele>42.0</ele><time>2026-03-22T09:27:49.294Z</time></trkpt><trkpt lat="45.9532017" lon="13.215622"><ele>42.333333333333336</ele><time>2026-03-22T09:27:50.286Z</time></trkpt><trkpt lat="45.9532958" lon="13.2158616"><ele>42.66666666666667</ele><time>2026-03-22T09:27:51.304Z</time></trkpt><trkpt lat="45.9533935" lon="13.2160978"><ele>43.0</ele><time>2026-03-22T09:27:52.304Z</time></trkpt><trkpt lat="45.9534888" lon="13.2163359"><ele>43.333333333333336</ele><time>2026-03-22T09:27:53.304Z</time></trkpt><trkpt lat="45.9535825" lon="13.2165757"><ele>43.666666666666664</ele><time>2026-03-22T09:27:54.286Z</time></trkpt><trkpt lat="45.9536757" lon="13.2168146"><ele>44.0</ele><time>2026-03-22T09:27:55.306Z</time></trkpt><trkpt lat="45.9537663" lon="13.2170506"><ele>44.0</ele><time>2026-03-22T09:27:56.289Z</time></trkpt><trkpt lat="45.953855" lon="13.2172805"><ele>44.0</ele><time>2026-03-22T09:27:57.299Z</time></trkpt><trkpt lat="45.9539338" lon="13.2175063"><ele>44.0</ele><time>2026-03-22T09:27:58.297Z</time></trkpt><trkpt lat="45.9540004" lon="13.2177269"><ele>43.666666666666664</ele><time>2026-03-22T09:27:59.294Z</time></trkpt><trkpt lat="45.9540518" lon="13.2179476"><ele>43.333333333333336</ele><time>2026-03-22T09:28:00.281Z</time></trkpt><trkpt lat="45.9541116" lon="13.2181576"><ele>43.0</ele><time>2026-03-22T09:28:01.298Z</time></trkpt><trkpt lat="45.9541651" lon="13.2183639"><ele>43.0</ele><time>2026-03-22T09:28:02.292Z</time></trkpt><trkpt lat="45.9542034" lon="13.2185747"><ele>43.0</ele><time>2026-03-22T09:28:03.319Z</time></trkpt><trkpt lat="45.954236" lon="13.2187867"><ele>43.0</ele><time>2026-03-22T09:28:04.296Z</time></trkpt><trkpt lat="45.9542593" lon="13.2190044"><ele>42.66666666666667</ele><time>2026-03-22T09:28:05.305Z</time></trkpt><trkpt lat="45.9542797" lon="13.2192277"><ele>42.333333333333336</ele><time>2026-03-22T09:28:06.279Z</time></trkpt><trkpt lat="45.9543073" lon="13.2194495"><ele>42.0</ele><time>2026-03-22T09:28:07.31Z</time></trkpt><trkpt lat="45.9543355" lon="13.2196711"><ele>42.333333333333336</ele><time>2026-03-22T09:28:08.284Z</time></trkpt><trkpt lat="45.9543658" lon="13.2198921"><ele>42.66666666666667</ele><time>2026-03-22T09:28:09.308Z</time></trkpt><trkpt lat="45.9543846" lon="13.220116"><ele>43.0</ele><time>2026-03-22T09:28:10.305Z</time></trkpt><trkpt lat="45.9544077" lon="13.2203355"><ele>43.0</ele><time>2026-03-22T09:28:11.32Z</time></trkpt><trkpt lat="45.954429" lon="13.2205523"><ele>43.0</ele><time>2026-03-22T09:28:12.316Z</time></trkpt><trkpt lat="45.9544522" lon="13.2207666"><ele>43.0</ele><time>2026-03-22T09:28:13.304Z</time></trkpt><trkpt lat="45.9544764" lon="13.2209777"><ele>43.25</ele><time>2026-03-22T09:28:14.294Z</time></trkpt><trkpt lat="45.9545019" lon="13.2211824"><ele>43.5</ele><time>2026-03-22T09:28:15.285Z</time></trkpt><trkpt lat="45.9545269" lon="13.2213811"><ele>43.75</ele><time>2026-03-22T09:28:16.288Z</time></trkpt><trkpt lat="45.9545527" lon="13.2215766"><ele>44.0</ele><time>2026-03-22T09:28:17.292Z</time></trkpt><trkpt lat="45.9545776" lon="13.2217707"><ele>44.5</ele><time>2026-03-22T09:28:18.294Z</time></trkpt><trkpt lat="45.954604" lon="13.2219643"><ele>45.0</ele><time>2026-03-22T09:28:19.291Z</time></trkpt><trkpt lat="45.9546306" lon="13.2221582"><ele>45.5</ele><time>2026-03-22T09:28:20.311Z</time></trkpt><trkpt lat="45.9546561" lon="13.2223526"><ele>46.0</ele><time>2026-03-22T09:28:21.303Z</time></trkpt><trkpt lat="45.9546857" lon="13.2225454"><ele>46.25</ele><time>2026-03-22T09:28:22.29Z</time></trkpt><trkpt lat="45.9547044" lon="13.2227359"><ele>46.5</ele><time>2026-03-22T09:28:23.299Z</time></trkpt><trkpt lat="45.954751" lon="13.2229176"><ele>46.75</ele><time>2026-03-22T09:28:24.301Z</time></trkpt><trkpt lat="45.9548016" lon="13.2230995"><ele>47.0</ele><time>2026-03-22T09:28:25.287Z</time></trkpt><trkpt lat="45.9548762" lon="13.2232621"><ele>47.0</ele><time>2026-03-22T09:28:26.306Z</time></trkpt><trkpt lat="45.9549554" lon="13.2234154"><ele>47.0</ele><time>2026-03-22T09:28:27.293Z</time></trkpt><trkpt lat="45.955031" lon="13.2235678"><ele>47.0</ele><time>2026-03-22T09:28:28.288Z</time></trkpt><trkpt lat="45.9551042" lon="13.2237126"><ele>47.0</ele><time>2026-03-22T09:28:29.302Z</time></trkpt><trkpt lat="45.9551772" lon="13.2238492"><ele>46.6</ele><time>2026-03-22T09:28:30.279Z</time></trkpt><trkpt lat="45.9552458" lon="13.2239833"><ele>46.2</ele><time>2026-03-22T09:28:31.294Z</time></trkpt><trkpt lat="45.9553145" lon="13.2241096"><ele>45.8</ele><time>2026-03-22T09:28:32.298Z</time></trkpt><trkpt lat="45.9553795" lon="13.2242241"><ele>45.4</ele><time>2026-03-22T09:28:33.297Z</time></trkpt><trkpt lat="45.9554355" lon="13.2243281"><ele>45.0</ele><time>2026-03-22T09:28:34.299Z</time></trkpt><trkpt lat="45.9554931" lon="13.2244168"><ele>45.0</ele><time>2026-03-22T09:28:35.292Z</time></trkpt><trkpt lat="45.9555469" lon="13.2244922"><ele>45.0</ele><time>2026-03-22T09:28:36.29Z</time></trkpt><trkpt lat="45.9555954" lon="13.2245609"><ele>45.0</ele><time>2026-03-22T09:28:37.312Z</time></trkpt><trkpt lat="45.9556452" lon="13.224618"><ele>45.0</ele><time>2026-03-22T09:28:38.306Z</time></trkpt><trkpt lat="45.9557486" lon="13.224704"><ele>45.0</ele><time>2026-03-22T09:28:40.307Z</time></trkpt><trkpt lat="45.9558581" lon="13.2247979"><ele>45.2</ele><time>2026-03-22T09:28:42.301Z</time></trkpt><trkpt lat="45.9559093" lon="13.2248531"><ele>45.4</ele><time>2026-03-22T09:28:43.301Z</time></trkpt><trkpt lat="45.9559718" lon="13.2249929"><ele>45.599999999999994</ele><time>2026-03-22T09:28:45.292Z</time></trkpt><trkpt lat="45.9559955" lon="13.2251654"><ele>45.8</ele><time>2026-03-22T09:28:47.3Z</time></trkpt><trkpt lat="45.9559794" lon="13.2252671"><ele>46.0</ele><time>2026-03-22T09:28:48.29Z</time></trkpt><trkpt lat="45.9559753" lon="13.2253796"><ele>46.0</ele><time>2026-03-22T09:28:49.295Z</time></trkpt><trkpt lat="45.9559379" lon="13.2254999"><ele>46.0</ele><time>2026-03-22T09:28:50.31Z</time></trkpt><trkpt lat="45.9559291" lon="13.2256261"><ele>46.0</ele><time>2026-03-22T09:28:51.289Z</time></trkpt><trkpt lat="45.9559557" lon="13.2257356"><ele>46.0</ele><time>2026-03-22T09:28:52.285Z</time></trkpt><trkpt lat="45.9560327" lon="13.2258332"><ele>46.0</ele><time>2026-03-22T09:28:53.309Z</time></trkpt><trkpt lat="45.9560928" lon="13.2259444"><ele>46.0</ele><time>2026-03-22T09:28:54.299Z</time></trkpt><trkpt lat="45.9561429" lon="13.2260679"><ele>46.0</ele><time>2026-03-22T09:28:55.293Z</time></trkpt><trkpt lat="45.9561436" lon="13.2262073"><ele>46.0</ele><time>2026-03-22T09:28:56.286Z</time></trkpt><trkpt lat="45.9561662" lon="13.226338"><ele>46.0</ele><time>2026-03-22T09:28:57.292Z</time></trkpt><trkpt lat="45.9561771" lon="13.2264692"><ele>46.0</ele><time>2026-03-22T09:28:58.318Z</time></trkpt><trkpt lat="45.9561988" lon="13.2265927"><ele>46.16666666666667</ele><time>2026-03-22T09:28:59.292Z</time></trkpt><trkpt lat="45.9562224" lon="13.2267128"><ele>46.333333333333336</ele><time>2026-03-22T09:29:00.279Z</time></trkpt><trkpt lat="45.9562151" lon="13.2268426"><ele>46.5</ele><time>2026-03-22T09:29:01.309Z</time></trkpt><trkpt lat="45.9562507" lon="13.2269477"><ele>46.666666666666664</ele><time>2026-03-22T09:29:02.29Z</time></trkpt><trkpt lat="45.956292" lon="13.2270371"><ele>46.83333333333333</ele><time>2026-03-22T09:29:03.298Z</time></trkpt><trkpt lat="45.9563333" lon="13.2271219"><ele>47.0</ele><time>2026-03-22T09:29:04.293Z</time></trkpt><trkpt lat="45.9563798" lon="13.2272005"><ele>47.0</ele><time>2026-03-22T09:29:05.301Z</time></trkpt><trkpt lat="45.9564277" lon="13.2272825"><ele>47.0</ele><time>2026-03-22T09:29:06.302Z</time></trkpt><trkpt lat="45.956478" lon="13.2273686"><ele>47.0</ele><time>2026-03-22T09:29:07.296Z</time></trkpt><trkpt lat="45.9565306" lon="13.2274591"><ele>47.0</ele><time>2026-03-22T09:29:08.285Z</time></trkpt><trkpt lat="45.9565801" lon="13.227561"><ele>47.0</ele><time>2026-03-22T09:29:09.304Z</time></trkpt><trkpt lat="45.9566233" lon="13.2276723"><ele>47.0</ele><time>2026-03-22T09:29:10.289Z</time></trkpt><trkpt lat="45.956651" lon="13.2277943"><ele>47.0</ele><time>2026-03-22T09:29:11.297Z</time></trkpt><trkpt lat="45.9566775" lon="13.2279197"><ele>47.0</ele><time>2026-03-22T09:29:12.298Z</time></trkpt><trkpt lat="45.9567034" lon="13.2280515"><ele>47.0</ele><time>2026-03-22T09:29:13.321Z</time></trkpt><trkpt lat="45.956734" lon="13.2281795"><ele>47.0</ele><time>2026-03-22T09:29:14.295Z</time></trkpt><trkpt lat="45.9567719" lon="13.2283051"><ele>47.0</ele><time>2026-03-22T09:29:15.295Z</time></trkpt><trkpt lat="45.9568149" lon="13.2284303"><ele>47.0</ele><time>2026-03-22T09:29:16.288Z</time></trkpt><trkpt lat="45.9568893" lon="13.2285223"><ele>47.0</ele><time>2026-03-22T09:29:17.308Z</time></trkpt><trkpt lat="45.9569711" lon="13.2285958"><ele>47.0</ele><time>2026-03-22T09:29:18.292Z</time></trkpt><trkpt lat="45.9570711" lon="13.2286366"><ele>47.0</ele><time>2026-03-22T09:29:19.297Z</time></trkpt><trkpt lat="45.9571676" lon="13.2286861"><ele>47.0</ele><time>2026-03-22T09:29:20.286Z</time></trkpt><trkpt lat="45.9572539" lon="13.2287558"><ele>47.0</ele><time>2026-03-22T09:29:21.289Z</time></trkpt><trkpt lat="45.9573198" lon="13.2288726"><ele>47.0</ele><time>2026-03-22T09:29:22.287Z</time></trkpt><trkpt lat="45.9573904" lon="13.2289848"><ele>47.0</ele><time>2026-03-22T09:29:23.303Z</time></trkpt><trkpt lat="45.9574559" lon="13.2290962"><ele>47.0</ele><time>2026-03-22T09:29:24.281Z</time></trkpt><trkpt lat="45.9575108" lon="13.2292155"><ele>47.0</ele><time>2026-03-22T09:29:25.284Z</time></trkpt><trkpt lat="45.95757" lon="13.2293239"><ele>47.2</ele><time>2026-03-22T09:29:26.285Z</time></trkpt><trkpt lat="45.9576269" lon="13.229436"><ele>47.400000000000006</ele><time>2026-03-22T09:29:27.295Z</time></trkpt><trkpt lat="45.9576742" lon="13.2295729"><ele>47.599999999999994</ele><time>2026-03-22T09:29:28.276Z</time></trkpt><trkpt lat="45.9577134" lon="13.2297177"><ele>47.8</ele><time>2026-03-22T09:29:29.306Z</time></trkpt><trkpt lat="45.9577562" lon="13.2298609"><ele>48.0</ele><time>2026-03-22T09:29:30.288Z</time></trkpt><trkpt lat="45.9577912" lon="13.2300046"><ele>48.2</ele><time>2026-03-22T09:29:31.278Z</time></trkpt><trkpt lat="45.9578135" lon="13.2301471"><ele>48.4</ele><time>2026-03-22T09:29:32.279Z</time></trkpt><trkpt lat="45.9578307" lon="13.2302892"><ele>48.6</ele><time>2026-03-22T09:29:33.288Z</time></trkpt><trkpt lat="45.9578491" lon="13.2304348"><ele>48.800000000000004</ele><time>2026-03-22T09:29:34.289Z</time></trkpt><trkpt lat="45.9578611" lon="13.2305876"><ele>49.0</ele><time>2026-03-22T09:29:35.275Z</time></trkpt><trkpt lat="45.957882" lon="13.2307453"><ele>49.25</ele><time>2026-03-22T09:29:36.266Z</time></trkpt><trkpt lat="45.9579206" lon="13.2309023"><ele>49.5</ele><time>2026-03-22T09:29:37.273Z</time></trkpt><trkpt lat="45.9579796" lon="13.231052"><ele>49.75</ele><time>2026-03-22T09:29:38.271Z</time></trkpt><trkpt lat="45.9580496" lon="13.2311955"><ele>50.0</ele><time>2026-03-22T09:29:39.276Z</time></trkpt><trkpt lat="45.9581269" lon="13.2313336"><ele>50.0</ele><time>2026-03-22T09:29:40.268Z</time></trkpt><trkpt lat="45.9582132" lon="13.2314657"><ele>50.0</ele><time>2026-03-22T09:29:41.291Z</time></trkpt><trkpt lat="45.9583146" lon="13.2315773"><ele>50.0</ele><time>2026-03-22T09:29:42.276Z</time></trkpt><trkpt lat="45.9584254" lon="13.2316737"><ele>50.0</ele><time>2026-03-22T09:29:43.289Z</time></trkpt><trkpt lat="45.958541" lon="13.231764"><ele>49.75</ele><time>2026-03-22T09:29:44.298Z</time></trkpt><trkpt lat="45.9586621" lon="13.2318462"><ele>49.5</ele><time>2026-03-22T09:29:45.3Z</time></trkpt><trkpt lat="45.9587982" lon="13.2319002"><ele>49.25</ele><time>2026-03-22T09:29:46.29Z</time></trkpt><trkpt lat="45.9589406" lon="13.2319454"><ele>49.0</ele><time>2026-03-22T09:29:47.306Z</time></trkpt><trkpt lat="45.9590855" lon="13.2319938"><ele>49.5</ele><time>2026-03-22T09:29:48.31Z</time></trkpt><trkpt lat="45.9592315" lon="13.2320444"><ele>50.0</ele><time>2026-03-22T09:29:49.305Z</time></trkpt><trkpt lat="45.9593759" lon="13.2320964"><ele>50.5</ele><time>2026-03-22T09:29:50.292Z</time></trkpt><trkpt lat="45.9595188" lon="13.2321463"><ele>51.0</ele><time>2026-03-22T09:29:51.296Z</time></trkpt><trkpt lat="45.9596598" lon="13.2321952"><ele>51.0</ele><time>2026-03-22T09:29:52.284Z</time></trkpt><trkpt lat="45.9597973" lon="13.2322525"><ele>51.0</ele><time>2026-03-22T09:29:53.306Z</time></trkpt><trkpt lat="45.9599365" lon="13.232301"><ele>51.0</ele><time>2026-03-22T09:29:54.304Z</time></trkpt><trkpt lat="45.9600756" lon="13.2323554"><ele>51.0</ele><time>2026-03-22T09:29:55.281Z</time></trkpt><trkpt lat="45.9602175" lon="13.2324112"><ele>49.666666666666664</ele><time>2026-03-22T09:29:56.277Z</time></trkpt><trkpt lat="45.9603641" lon="13.2324583"><ele>48.33333333333333</ele><time>2026-03-22T09:29:57.287Z</time></trkpt><trkpt lat="45.9605119" lon="13.2325117"><ele>47.0</ele><time>2026-03-22T09:29:58.279Z</time></trkpt><trkpt lat="45.9606617" lon="13.2325708"><ele>47.0</ele><time>2026-03-22T09:29:59.288Z</time></trkpt><trkpt lat="45.960814" lon="13.2326338"><ele>47.0</ele><time>2026-03-22T09:30:00.265Z</time></trkpt><trkpt lat="45.9609667" lon="13.2327079"><ele>47.0</ele><time>2026-03-22T09:30:01.287Z</time></trkpt><trkpt lat="45.961118" lon="13.2327934"><ele>48.0</ele><time>2026-03-22T09:30:02.295Z</time></trkpt><trkpt lat="45.9612665" lon="13.2328902"><ele>49.0</ele><time>2026-03-22T09:30:03.284Z</time></trkpt><trkpt lat="45.9614064" lon="13.233008"><ele>50.0</ele><time>2026-03-22T09:30:04.279Z</time></trkpt><trkpt lat="45.9615451" lon="13.2331374"><ele>50.0</ele><time>2026-03-22T09:30:05.279Z</time></trkpt><trkpt lat="45.9616832" lon="13.2332716"><ele>50.0</ele><time>2026-03-22T09:30:06.3Z</time></trkpt><trkpt lat="45.9618216" lon="13.2334102"><ele>50.0</ele><time>2026-03-22T09:30:07.291Z</time></trkpt><trkpt lat="45.9619585" lon="13.233551"><ele>50.0</ele><time>2026-03-22T09:30:08.29Z</time></trkpt><trkpt lat="45.9620952" lon="13.2336965"><ele>50.0</ele><time>2026-03-22T09:30:09.31Z</time></trkpt><trkpt lat="45.9622361" lon="13.2338374"><ele>50.0</ele><time>2026-03-22T09:30:10.299Z</time></trkpt><trkpt lat="45.9623778" lon="13.2339791"><ele>50.333333333333336</ele><time>2026-03-22T09:30:11.289Z</time></trkpt><trkpt lat="45.9625203" lon="13.2341203"><ele>50.66666666666667</ele><time>2026-03-22T09:30:12.291Z</time></trkpt><trkpt lat="45.9626617" lon="13.2342654"><ele>51.0</ele><time>2026-03-22T09:30:13.287Z</time></trkpt><trkpt lat="45.9627988" lon="13.2344208"><ele>51.0</ele><time>2026-03-22T09:30:14.291Z</time></trkpt><trkpt lat="45.9629365" lon="13.2345826"><ele>51.0</ele><time>2026-03-22T09:30:15.295Z</time></trkpt><trkpt lat="45.9630687" lon="13.2347553"><ele>51.0</ele><time>2026-03-22T09:30:16.291Z</time></trkpt><trkpt lat="45.9631968" lon="13.2349357"><ele>50.66666666666667</ele><time>2026-03-22T09:30:17.321Z</time></trkpt><trkpt lat="45.96332" lon="13.2351229"><ele>50.333333333333336</ele><time>2026-03-22T09:30:18.283Z</time></trkpt><trkpt lat="45.9634471" lon="13.2353111"><ele>50.0</ele><time>2026-03-22T09:30:19.301Z</time></trkpt><trkpt lat="45.9635759" lon="13.2354981"><ele>49.66666666666667</ele><time>2026-03-22T09:30:20.288Z</time></trkpt><trkpt lat="45.9637044" lon="13.2356878"><ele>49.33333333333333</ele><time>2026-03-22T09:30:21.294Z</time></trkpt><trkpt lat="45.9638345" lon="13.2358775"><ele>49.0</ele><time>2026-03-22T09:30:22.299Z</time></trkpt><trkpt lat="45.9639738" lon="13.2360559"><ele>49.0</ele><time>2026-03-22T09:30:23.311Z</time></trkpt><trkpt lat="45.9641069" lon="13.2362374"><ele>49.0</ele><time>2026-03-22T09:30:24.283Z</time></trkpt><trkpt lat="45.9642567" lon="13.2363959"><ele>49.0</ele><time>2026-03-22T09:30:25.293Z</time></trkpt><trkpt lat="45.9644186" lon="13.2365206"><ele>50.0</ele><time>2026-03-22T09:30:26.291Z</time></trkpt><trkpt lat="45.9645804" lon="13.2366336"><ele>51.0</ele><time>2026-03-22T09:30:27.286Z</time></trkpt><trkpt lat="45.9647409" lon="13.2367396"><ele>52.0</ele><time>2026-03-22T09:30:28.287Z</time></trkpt><trkpt lat="45.9648981" lon="13.2368439"><ele>52.0</ele><time>2026-03-22T09:30:29.284Z</time></trkpt><trkpt lat="45.9650536" lon="13.2369416"><ele>52.0</ele><time>2026-03-22T09:30:30.293Z</time></trkpt><trkpt lat="45.9651937" lon="13.2370481"><ele>52.0</ele><time>2026-03-22T09:30:31.292Z</time></trkpt><trkpt lat="45.9653146" lon="13.2371772"><ele>51.666666666666664</ele><time>2026-03-22T09:30:32.359Z</time></trkpt><trkpt lat="45.965405" lon="13.2373463"><ele>51.33333333333333</ele><time>2026-03-22T09:30:33.263Z</time></trkpt><trkpt lat="45.9654694" lon="13.237547"><ele>51.0</ele><time>2026-03-22T09:30:34.275Z</time></trkpt><trkpt lat="45.9655142" lon="13.2377668"><ele>51.0</ele><time>2026-03-22T09:30:35.302Z</time></trkpt><trkpt lat="45.9655646" lon="13.2379885"><ele>51.0</ele><time>2026-03-22T09:30:36.287Z</time></trkpt><trkpt lat="45.965614" lon="13.2382169"><ele>51.0</ele><time>2026-03-22T09:30:37.288Z</time></trkpt><trkpt lat="45.9656719" lon="13.2384469"><ele>50.66666666666667</ele><time>2026-03-22T09:30:38.289Z</time></trkpt><trkpt lat="45.9657356" lon="13.2386798"><ele>50.333333333333336</ele><time>2026-03-22T09:30:39.286Z</time></trkpt><trkpt lat="45.9658019" lon="13.2389169"><ele>50.0</ele><time>2026-03-22T09:30:40.281Z</time></trkpt><trkpt lat="45.9658703" lon="13.239157"><ele>50.0</ele><time>2026-03-22T09:30:41.296Z</time></trkpt><trkpt lat="45.9659427" lon="13.2393983"><ele>50.0</ele><time>2026-03-22T09:30:42.277Z</time></trkpt><trkpt lat="45.9660154" lon="13.2396408"><ele>50.0</ele><time>2026-03-22T09:30:43.284Z</time></trkpt><trkpt lat="45.9660915" lon="13.2398796"><ele>49.66666666666667</ele><time>2026-03-22T09:30:44.271Z</time></trkpt><trkpt lat="45.966174" lon="13.2401138"><ele>49.33333333333333</ele><time>2026-03-22T09:30:45.287Z</time></trkpt><trkpt lat="45.9662656" lon="13.2403413"><ele>49.0</ele><time>2026-03-22T09:30:46.295Z</time></trkpt><trkpt lat="45.9663636" lon="13.2405645"><ele>48.666666666666664</ele><time>2026-03-22T09:30:47.288Z</time></trkpt><trkpt lat="45.9664672" lon="13.2407846"><ele>48.33333333333333</ele><time>2026-03-22T09:30:48.294Z</time></trkpt><trkpt lat="45.9665683" lon="13.2410128"><ele>48.0</ele><time>2026-03-22T09:30:49.298Z</time></trkpt><trkpt lat="45.9666758" lon="13.2412378"><ele>49.33333333333333</ele><time>2026-03-22T09:30:50.293Z</time></trkpt><trkpt lat="45.9667782" lon="13.2414682"><ele>50.666666666666664</ele><time>2026-03-22T09:30:51.3Z</time></trkpt><trkpt lat="45.9668833" lon="13.2416955"><ele>52.0</ele><time>2026-03-22T09:30:52.286Z</time></trkpt><trkpt lat="45.9669883" lon="13.2419214"><ele>52.0</ele><time>2026-03-22T09:30:53.293Z</time></trkpt><trkpt lat="45.9670897" lon="13.2421492"><ele>52.0</ele><time>2026-03-22T09:30:54.298Z</time></trkpt><trkpt lat="45.9671902" lon="13.2423769"><ele>52.0</ele><time>2026-03-22T09:30:55.303Z</time></trkpt><trkpt lat="45.9672886" lon="13.2426061"><ele>52.0</ele><time>2026-03-22T09:30:56.292Z</time></trkpt><trkpt lat="45.9673854" lon="13.2428356"><ele>52.0</ele><time>2026-03-22T09:30:57.294Z</time></trkpt><trkpt lat="45.9674815" lon="13.2430656"><ele>52.0</ele><time>2026-03-22T09:30:58.328Z</time></trkpt><trkpt lat="45.9675801" lon="13.2432911"><ele>52.0</ele><time>2026-03-22T09:30:59.312Z</time></trkpt><trkpt lat="45.967686" lon="13.2435027"><ele>52.0</ele><time>2026-03-22T09:31:00.289Z</time></trkpt><trkpt lat="45.9677916" lon="13.2437113"><ele>52.0</ele><time>2026-03-22T09:31:01.282Z</time></trkpt><trkpt lat="45.967913" lon="13.2439032"><ele>52.0</ele><time>2026-03-22T09:31:02.287Z</time></trkpt><trkpt lat="45.9680401" lon="13.2440844"><ele>52.0</ele><time>2026-03-22T09:31:03.322Z</time></trkpt><trkpt lat="45.9681801" lon="13.2442448"><ele>52.0</ele><time>2026-03-22T09:31:04.286Z</time></trkpt><trkpt lat="45.9683262" lon="13.2443907"><ele>52.33333333333333</ele><time>2026-03-22T09:31:05.305Z</time></trkpt><trkpt lat="45.9684601" lon="13.2445553"><ele>52.66666666666667</ele><time>2026-03-22T09:31:06.295Z</time></trkpt><trkpt lat="45.9685996" lon="13.2447114"><ele>53.0</ele><time>2026-03-22T09:31:07.31Z</time></trkpt><trkpt lat="45.968736" lon="13.2448755"><ele>53.0</ele><time>2026-03-22T09:31:08.293Z</time></trkpt><trkpt lat="45.9688722" lon="13.2450438"><ele>53.0</ele><time>2026-03-22T09:31:09.323Z</time></trkpt><trkpt lat="45.9690126" lon="13.2452057"><ele>53.0</ele><time>2026-03-22T09:31:10.286Z</time></trkpt><trkpt lat="45.9691569" lon="13.2453617"><ele>53.333333333333336</ele><time>2026-03-22T09:31:11.278Z</time></trkpt><trkpt lat="45.9693002" lon="13.2455193"><ele>53.66666666666667</ele><time>2026-03-22T09:31:12.29Z</time></trkpt><trkpt lat="45.9694401" lon="13.2456822"><ele>54.0</ele><time>2026-03-22T09:31:13.291Z</time></trkpt><trkpt lat="45.9695815" lon="13.245844"><ele>54.33333333333333</ele><time>2026-03-22T09:31:14.299Z</time></trkpt><trkpt lat="45.9697215" lon="13.2460095"><ele>54.666666666666664</ele><time>2026-03-22T09:31:15.298Z</time></trkpt><trkpt lat="45.9698575" lon="13.2461801"><ele>55.0</ele><time>2026-03-22T09:31:16.299Z</time></trkpt><trkpt lat="45.969984" lon="13.2463586"><ele>54.666666666666664</ele><time>2026-03-22T09:31:17.316Z</time></trkpt><trkpt lat="45.9700963" lon="13.2465467"><ele>54.33333333333333</ele><time>2026-03-22T09:31:18.301Z</time></trkpt><trkpt lat="45.9701996" lon="13.2467384"><ele>54.0</ele><time>2026-03-22T09:31:19.299Z</time></trkpt><trkpt lat="45.9702933" lon="13.246937"><ele>54.0</ele><time>2026-03-22T09:31:20.297Z</time></trkpt><trkpt lat="45.9703764" lon="13.2471434"><ele>54.0</ele><time>2026-03-22T09:31:21.299Z</time></trkpt><trkpt lat="45.9704528" lon="13.2473557"><ele>54.0</ele><time>2026-03-22T09:31:22.287Z</time></trkpt><trkpt lat="45.9705308" lon="13.2475672"><ele>54.66666666666667</ele><time>2026-03-22T09:31:23.266Z</time></trkpt><trkpt lat="45.9706089" lon="13.247777"><ele>55.333333333333336</ele><time>2026-03-22T09:31:24.273Z</time></trkpt><trkpt lat="45.9706849" lon="13.2479859"><ele>56.0</ele><time>2026-03-22T09:31:25.3Z</time></trkpt><trkpt lat="45.9707591" lon="13.2481908"><ele>56.66666666666667</ele><time>2026-03-22T09:31:26.284Z</time></trkpt><trkpt lat="45.9708342" lon="13.2483878"><ele>57.33333333333333</ele><time>2026-03-22T09:31:27.293Z</time></trkpt><trkpt lat="45.9709064" lon="13.2485778"><ele>58.0</ele><time>2026-03-22T09:31:28.28Z</time></trkpt><trkpt lat="45.9709775" lon="13.2487566"><ele>56.75</ele><time>2026-03-22T09:31:29.301Z</time></trkpt><trkpt lat="45.9710493" lon="13.2489261"><ele>55.5</ele><time>2026-03-22T09:31:30.302Z</time></trkpt><trkpt lat="45.9711234" lon="13.2490884"><ele>54.25</ele><time>2026-03-22T09:31:31.31Z</time></trkpt><trkpt lat="45.9712006" lon="13.2492451"><ele>53.0</ele><time>2026-03-22T09:31:32.309Z</time></trkpt><trkpt lat="45.9712776" lon="13.2493949"><ele>53.0</ele><time>2026-03-22T09:31:33.314Z</time></trkpt><trkpt lat="45.9713487" lon="13.2495377"><ele>53.0</ele><time>2026-03-22T09:31:34.291Z</time></trkpt><trkpt lat="45.9714162" lon="13.2496749"><ele>53.0</ele><time>2026-03-22T09:31:35.322Z</time></trkpt><trkpt lat="45.9714823" lon="13.2497999"><ele>53.0</ele><time>2026-03-22T09:31:36.312Z</time></trkpt><trkpt lat="45.9715529" lon="13.2499069"><ele>53.333333333333336</ele><time>2026-03-22T09:31:37.302Z</time></trkpt><trkpt lat="45.9716125" lon="13.2500107"><ele>53.66666666666667</ele><time>2026-03-22T09:31:38.307Z</time></trkpt><trkpt lat="45.9716579" lon="13.2501224"><ele>54.0</ele><time>2026-03-22T09:31:39.296Z</time></trkpt><trkpt lat="45.9716851" lon="13.2502412"><ele>54.33333333333333</ele><time>2026-03-22T09:31:40.307Z</time></trkpt><trkpt lat="45.9717189" lon="13.2503466"><ele>54.666666666666664</ele><time>2026-03-22T09:31:41.303Z</time></trkpt><trkpt lat="45.9717535" lon="13.2504513"><ele>55.0</ele><time>2026-03-22T09:31:42.297Z</time></trkpt><trkpt lat="45.971823" lon="13.2505125"><ele>55.166666666666664</ele><time>2026-03-22T09:31:43.309Z</time></trkpt><trkpt lat="45.9719021" lon="13.2505446"><ele>55.33333333333333</ele><time>2026-03-22T09:31:44.299Z</time></trkpt><trkpt lat="45.9719869" lon="13.250563"><ele>55.5</ele><time>2026-03-22T09:31:45.295Z</time></trkpt><trkpt lat="45.9720713" lon="13.2505801"><ele>55.66666666666667</ele><time>2026-03-22T09:31:46.286Z</time></trkpt><trkpt lat="45.9721456" lon="13.2506459"><ele>55.833333333333336</ele><time>2026-03-22T09:31:47.305Z</time></trkpt><trkpt lat="45.9722109" lon="13.2507444"><ele>56.0</ele><time>2026-03-22T09:31:48.291Z</time></trkpt><trkpt lat="45.9722704" lon="13.2508667"><ele>56.25</ele><time>2026-03-22T09:31:49.311Z</time></trkpt><trkpt lat="45.972331" lon="13.2509957"><ele>56.5</ele><time>2026-03-22T09:31:50.278Z</time></trkpt><trkpt lat="45.9723843" lon="13.251145"><ele>56.75</ele><time>2026-03-22T09:31:51.284Z</time></trkpt><trkpt lat="45.9724181" lon="13.2513191"><ele>57.0</ele><time>2026-03-22T09:31:52.296Z</time></trkpt><trkpt lat="45.9724504" lon="13.251498"><ele>57.0</ele><time>2026-03-22T09:31:53.298Z</time></trkpt><trkpt lat="45.9724697" lon="13.2516837"><ele>57.0</ele><time>2026-03-22T09:31:54.285Z</time></trkpt><trkpt lat="45.9724945" lon="13.2518623"><ele>57.0</ele><time>2026-03-22T09:31:55.307Z</time></trkpt><trkpt lat="45.9725244" lon="13.2520405"><ele>57.0</ele><time>2026-03-22T09:31:56.304Z</time></trkpt><trkpt lat="45.9725702" lon="13.2522105"><ele>57.0</ele><time>2026-03-22T09:31:57.309Z</time></trkpt><trkpt lat="45.9726309" lon="13.2523622"><ele>57.0</ele><time>2026-03-22T09:31:58.31Z</time></trkpt><trkpt lat="45.972686" lon="13.2525104"><ele>57.0</ele><time>2026-03-22T09:31:59.299Z</time></trkpt><trkpt lat="45.9727266" lon="13.2526566"><ele>57.0</ele><time>2026-03-22T09:32:00.287Z</time></trkpt><trkpt lat="45.9727617" lon="13.2527987"><ele>57.0</ele><time>2026-03-22T09:32:01.291Z</time></trkpt><trkpt lat="45.9727754" lon="13.2529451"><ele>57.0</ele><time>2026-03-22T09:32:02.28Z</time></trkpt><trkpt lat="45.9727894" lon="13.2530877"><ele>57.0</ele><time>2026-03-22T09:32:03.301Z</time></trkpt><trkpt lat="45.972795" lon="13.25323"><ele>57.0</ele><time>2026-03-22T09:32:04.297Z</time></trkpt><trkpt lat="45.972789" lon="13.2533739"><ele>57.0</ele><time>2026-03-22T09:32:05.301Z</time></trkpt><trkpt lat="45.9727967" lon="13.2535092"><ele>57.166666666666664</ele><time>2026-03-22T09:32:06.295Z</time></trkpt><trkpt lat="45.9728127" lon="13.2536418"><ele>57.33333333333333</ele><time>2026-03-22T09:32:07.302Z</time></trkpt><trkpt lat="45.9728044" lon="13.2537699"><ele>57.5</ele><time>2026-03-22T09:32:08.288Z</time></trkpt><trkpt lat="45.9728255" lon="13.2538931"><ele>57.666666666666664</ele><time>2026-03-22T09:32:09.32Z</time></trkpt><trkpt lat="45.9728239" lon="13.2540117"><ele>57.83333333333333</ele><time>2026-03-22T09:32:10.3Z</time></trkpt><trkpt lat="45.9728557" lon="13.2541228"><ele>58.0</ele><time>2026-03-22T09:32:11.322Z</time></trkpt><trkpt lat="45.9729001" lon="13.2542325"><ele>58.0</ele><time>2026-03-22T09:32:12.287Z</time></trkpt><trkpt lat="45.9729306" lon="13.2543531"><ele>58.0</ele><time>2026-03-22T09:32:13.302Z</time></trkpt><trkpt lat="45.9729657" lon="13.2544806"><ele>58.0</ele><time>2026-03-22T09:32:14.303Z</time></trkpt><trkpt lat="45.9730106" lon="13.2546119"><ele>58.0</ele><time>2026-03-22T09:32:15.292Z</time></trkpt><trkpt lat="45.9730428" lon="13.2547526"><ele>58.0</ele><time>2026-03-22T09:32:16.29Z</time></trkpt><trkpt lat="45.9730804" lon="13.2548899"><ele>58.0</ele><time>2026-03-22T09:32:17.321Z</time></trkpt><trkpt lat="45.9731167" lon="13.2550196"><ele>58.0</ele><time>2026-03-22T09:32:18.306Z</time></trkpt><trkpt lat="45.9731286" lon="13.2551528"><ele>58.0</ele><time>2026-03-22T09:32:19.305Z</time></trkpt><trkpt lat="45.97314" lon="13.2552833"><ele>58.0</ele><time>2026-03-22T09:32:20.291Z</time></trkpt><trkpt lat="45.9731443" lon="13.2554162"><ele>58.0</ele><time>2026-03-22T09:32:21.311Z</time></trkpt><trkpt lat="45.973155" lon="13.255546"><ele>57.8</ele><time>2026-03-22T09:32:22.289Z</time></trkpt><trkpt lat="45.973169" lon="13.2556736"><ele>57.599999999999994</ele><time>2026-03-22T09:32:23.288Z</time></trkpt><trkpt lat="45.9731905" lon="13.2557963"><ele>57.400000000000006</ele><time>2026-03-22T09:32:24.276Z</time></trkpt><trkpt lat="45.9732395" lon="13.2559057"><ele>57.2</ele><time>2026-03-22T09:32:25.275Z</time></trkpt><trkpt lat="45.9732716" lon="13.2560413"><ele>57.0</ele><time>2026-03-22T09:32:26.282Z</time></trkpt><trkpt lat="45.9733497" lon="13.2561324"><ele>57.25</ele><time>2026-03-22T09:32:27.278Z</time></trkpt><trkpt lat="45.9734478" lon="13.2562142"><ele>57.5</ele><time>2026-03-22T09:32:28.288Z</time></trkpt><trkpt lat="45.9735328" lon="13.2563313"><ele>57.75</ele><time>2026-03-22T09:32:29.303Z</time></trkpt><trkpt lat="45.973612" lon="13.2564706"><ele>58.0</ele><time>2026-03-22T09:32:30.305Z</time></trkpt><trkpt lat="45.9736976" lon="13.2566038"><ele>58.25</ele><time>2026-03-22T09:32:31.302Z</time></trkpt><trkpt lat="45.9737749" lon="13.2567385"><ele>58.5</ele><time>2026-03-22T09:32:32.292Z</time></trkpt><trkpt lat="45.9738641" lon="13.2568596"><ele>58.75</ele><time>2026-03-22T09:32:33.303Z</time></trkpt><trkpt lat="45.9739429" lon="13.2570012"><ele>59.0</ele><time>2026-03-22T09:32:34.278Z</time></trkpt><trkpt lat="45.9740306" lon="13.2571274"><ele>59.0</ele><time>2026-03-22T09:32:35.298Z</time></trkpt><trkpt lat="45.9741215" lon="13.2572523"><ele>59.0</ele><time>2026-03-22T09:32:36.305Z</time></trkpt><trkpt lat="45.9741981" lon="13.2573939"><ele>59.0</ele><time>2026-03-22T09:32:37.286Z</time></trkpt><trkpt lat="45.9742655" lon="13.2575392"><ele>59.0</ele><time>2026-03-22T09:32:38.296Z</time></trkpt><trkpt lat="45.9743309" lon="13.257686"><ele>58.5</ele><time>2026-03-22T09:32:39.3Z</time></trkpt><trkpt lat="45.9744154" lon="13.2578179"><ele>58.0</ele><time>2026-03-22T09:32:40.291Z</time></trkpt><trkpt lat="45.9744954" lon="13.25796"><ele>57.5</ele><time>2026-03-22T09:32:41.31Z</time></trkpt><trkpt lat="45.9745678" lon="13.258111"><ele>57.0</ele><time>2026-03-22T09:32:42.301Z</time></trkpt><trkpt lat="45.974645" lon="13.2582551"><ele>57.0</ele><time>2026-03-22T09:32:43.317Z</time></trkpt><trkpt lat="45.9747114" lon="13.2584173"><ele>57.0</ele><time>2026-03-22T09:32:44.287Z</time></trkpt><trkpt lat="45.9747845" lon="13.2585724"><ele>57.0</ele><time>2026-03-22T09:32:45.293Z</time></trkpt><trkpt lat="45.9748612" lon="13.2587233"><ele>57.0</ele><time>2026-03-22T09:32:46.285Z</time></trkpt><trkpt lat="45.9749446" lon="13.2588688"><ele>57.5</ele><time>2026-03-22T09:32:47.311Z</time></trkpt><trkpt lat="45.9750277" lon="13.259018"><ele>58.0</ele><time>2026-03-22T09:32:48.297Z</time></trkpt><trkpt lat="45.9751059" lon="13.2591725"><ele>58.5</ele><time>2026-03-22T09:32:49.3Z</time></trkpt><trkpt lat="45.9751849" lon="13.2593248"><ele>59.0</ele><time>2026-03-22T09:32:50.265Z</time></trkpt><trkpt lat="45.9752649" lon="13.2594767"><ele>59.0</ele><time>2026-03-22T09:32:51.291Z</time></trkpt><trkpt lat="45.975346" lon="13.2596259"><ele>59.0</ele><time>2026-03-22T09:32:52.283Z</time></trkpt><trkpt lat="45.9754251" lon="13.2597737"><ele>59.0</ele><time>2026-03-22T09:32:53.304Z</time></trkpt><trkpt lat="45.9755011" lon="13.2599195"><ele>59.0</ele><time>2026-03-22T09:32:54.309Z</time></trkpt><trkpt lat="45.9755749" lon="13.2600658"><ele>59.0</ele><time>2026-03-22T09:32:55.3Z</time></trkpt><trkpt lat="45.9756515" lon="13.2602078"><ele>59.0</ele><time>2026-03-22T09:32:56.293Z</time></trkpt><trkpt lat="45.9757219" lon="13.2603563"><ele>59.0</ele><time>2026-03-22T09:32:57.303Z</time></trkpt><trkpt lat="45.9757949" lon="13.260507"><ele>59.0</ele><time>2026-03-22T09:32:58.289Z</time></trkpt><trkpt lat="45.9758662" lon="13.2606662"><ele>58.5</ele><time>2026-03-22T09:32:59.297Z</time></trkpt><trkpt lat="45.9759427" lon="13.260828"><ele>58.0</ele><time>2026-03-22T09:33:00.282Z</time></trkpt><trkpt lat="45.9760377" lon="13.2609723"><ele>57.5</ele><time>2026-03-22T09:33:01.298Z</time></trkpt><trkpt lat="45.9761091" lon="13.2611373"><ele>57.0</ele><time>2026-03-22T09:33:02.283Z</time></trkpt><trkpt lat="45.9761977" lon="13.2612723"><ele>57.25</ele><time>2026-03-22T09:33:03.296Z</time></trkpt><trkpt lat="45.9762536" lon="13.2614537"><ele>57.5</ele><time>2026-03-22T09:33:04.285Z</time></trkpt><trkpt lat="45.9763019" lon="13.2616373"><ele>57.75</ele><time>2026-03-22T09:33:05.295Z</time></trkpt><trkpt lat="45.9763381" lon="13.2618193"><ele>58.0</ele><time>2026-03-22T09:33:06.29Z</time></trkpt><trkpt lat="45.9763738" lon="13.2619853"><ele>58.0</ele><time>2026-03-22T09:33:07.288Z</time></trkpt><trkpt lat="45.9764281" lon="13.262137"><ele>58.0</ele><time>2026-03-22T09:33:08.276Z</time></trkpt><trkpt lat="45.976485" lon="13.2622873"><ele>58.0</ele><time>2026-03-22T09:33:09.282Z</time></trkpt><trkpt lat="45.9765441" lon="13.2624368"><ele>58.0</ele><time>2026-03-22T09:33:10.314Z</time></trkpt><trkpt lat="45.976616" lon="13.262597"><ele>57.75</ele><time>2026-03-22T09:33:11.297Z</time></trkpt><trkpt lat="45.9766868" lon="13.2627639"><ele>57.5</ele><time>2026-03-22T09:33:12.315Z</time></trkpt><trkpt lat="45.9767571" lon="13.262946"><ele>57.25</ele><time>2026-03-22T09:33:13.318Z</time></trkpt><trkpt lat="45.976819" lon="13.2631398"><ele>57.0</ele><time>2026-03-22T09:33:14.302Z</time></trkpt><trkpt lat="45.976878" lon="13.2633382"><ele>56.66666666666667</ele><time>2026-03-22T09:33:15.306Z</time></trkpt><trkpt lat="45.9769409" lon="13.2635377"><ele>56.333333333333336</ele><time>2026-03-22T09:33:16.288Z</time></trkpt><trkpt lat="45.9770089" lon="13.2637374"><ele>56.0</ele><time>2026-03-22T09:33:17.29Z</time></trkpt><trkpt lat="45.9770785" lon="13.2639388"><ele>56.0</ele><time>2026-03-22T09:33:18.287Z</time></trkpt><trkpt lat="45.9771492" lon="13.2641424"><ele>56.0</ele><time>2026-03-22T09:33:19.299Z</time></trkpt><trkpt lat="45.9772209" lon="13.2643465"><ele>56.0</ele><time>2026-03-22T09:33:20.282Z</time></trkpt><trkpt lat="45.9772937" lon="13.2645522"><ele>56.0</ele><time>2026-03-22T09:33:21.304Z</time></trkpt><trkpt lat="45.9773678" lon="13.2647605"><ele>56.0</ele><time>2026-03-22T09:33:22.305Z</time></trkpt><trkpt lat="45.9774448" lon="13.2649724"><ele>56.0</ele><time>2026-03-22T09:33:23.311Z</time></trkpt><trkpt lat="45.9775232" lon="13.2651889"><ele>56.333333333333336</ele><time>2026-03-22T09:33:24.291Z</time></trkpt><trkpt lat="45.9776029" lon="13.2654096"><ele>56.66666666666667</ele><time>2026-03-22T09:33:25.313Z</time></trkpt><trkpt lat="45.9776849" lon="13.2656341"><ele>57.0</ele><time>2026-03-22T09:33:26.283Z</time></trkpt><trkpt lat="45.9777679" lon="13.2658621"><ele>57.0</ele><time>2026-03-22T09:33:27.296Z</time></trkpt><trkpt lat="45.977851" lon="13.2660918"><ele>57.0</ele><time>2026-03-22T09:33:28.29Z</time></trkpt><trkpt lat="45.9779343" lon="13.2663211"><ele>57.0</ele><time>2026-03-22T09:33:29.303Z</time></trkpt><trkpt lat="45.9780175" lon="13.2665492"><ele>57.0</ele><time>2026-03-22T09:33:30.285Z</time></trkpt><trkpt lat="45.9781005" lon="13.2667758"><ele>57.0</ele><time>2026-03-22T09:33:31.288Z</time></trkpt><trkpt lat="45.9781829" lon="13.2670016"><ele>57.0</ele><time>2026-03-22T09:33:32.288Z</time></trkpt><trkpt lat="45.9782649" lon="13.2672263"><ele>57.33333333333333</ele><time>2026-03-22T09:33:33.282Z</time></trkpt><trkpt lat="45.9783464" lon="13.2674486"><ele>57.666666666666664</ele><time>2026-03-22T09:33:34.292Z</time></trkpt><trkpt lat="45.9784268" lon="13.2676694"><ele>58.0</ele><time>2026-03-22T09:33:35.3Z</time></trkpt><trkpt lat="45.9785025" lon="13.2678903"><ele>58.33333333333333</ele><time>2026-03-22T09:33:36.317Z</time></trkpt><trkpt lat="45.9785721" lon="13.26811"><ele>58.66666666666667</ele><time>2026-03-22T09:33:37.297Z</time></trkpt><trkpt lat="45.9786377" lon="13.2683269"><ele>59.0</ele><time>2026-03-22T09:33:38.304Z</time></trkpt><trkpt lat="45.9786989" lon="13.2685408"><ele>59.0</ele><time>2026-03-22T09:33:39.292Z</time></trkpt><trkpt lat="45.9787535" lon="13.2687556"><ele>59.0</ele><time>2026-03-22T09:33:40.303Z</time></trkpt><trkpt lat="45.9788032" lon="13.2689706"><ele>59.0</ele><time>2026-03-22T09:33:41.271Z</time></trkpt><trkpt lat="45.9788468" lon="13.2691856"><ele>59.0</ele><time>2026-03-22T09:33:42.302Z</time></trkpt><trkpt lat="45.978888" lon="13.2693988"><ele>59.0</ele><time>2026-03-22T09:33:43.288Z</time></trkpt><trkpt lat="45.9789283" lon="13.2696094"><ele>59.0</ele><time>2026-03-22T09:33:44.304Z</time></trkpt><trkpt lat="45.9789681" lon="13.2698183"><ele>58.75</ele><time>2026-03-22T09:33:45.323Z</time></trkpt><trkpt lat="45.9790077" lon="13.2700259"><ele>58.5</ele><time>2026-03-22T09:33:46.289Z</time></trkpt><trkpt lat="45.9790476" lon="13.2702325"><ele>58.25</ele><time>2026-03-22T09:33:47.287Z</time></trkpt><trkpt lat="45.9790873" lon="13.2704367"><ele>58.0</ele><time>2026-03-22T09:33:48.278Z</time></trkpt><trkpt lat="45.9791253" lon="13.2706389"><ele>58.0</ele><time>2026-03-22T09:33:49.283Z</time></trkpt><trkpt lat="45.9791631" lon="13.2708394"><ele>58.0</ele><time>2026-03-22T09:33:50.295Z</time></trkpt><trkpt lat="45.979203" lon="13.2710376"><ele>58.0</ele><time>2026-03-22T09:33:51.279Z</time></trkpt><trkpt lat="45.9792453" lon="13.2712333"><ele>58.0</ele><time>2026-03-22T09:33:52.282Z</time></trkpt><trkpt lat="45.9792869" lon="13.2714294"><ele>58.25</ele><time>2026-03-22T09:33:53.29Z</time></trkpt><trkpt lat="45.9793334" lon="13.2716225"><ele>58.5</ele><time>2026-03-22T09:33:54.302Z</time></trkpt><trkpt lat="45.9793611" lon="13.2718209"><ele>58.75</ele><time>2026-03-22T09:33:55.305Z</time></trkpt><trkpt lat="45.979388" lon="13.2720212"><ele>59.0</ele><time>2026-03-22T09:33:56.298Z</time></trkpt><trkpt lat="45.9793882" lon="13.2722263"><ele>59.0</ele><time>2026-03-22T09:33:57.311Z</time></trkpt><trkpt lat="45.9793678" lon="13.2724318"><ele>59.0</ele><time>2026-03-22T09:33:58.299Z</time></trkpt><trkpt lat="45.9793353" lon="13.2726385"><ele>59.0</ele><time>2026-03-22T09:33:59.293Z</time></trkpt><trkpt lat="45.9793157" lon="13.2728487"><ele>59.0</ele><time>2026-03-22T09:34:00.292Z</time></trkpt><trkpt lat="45.979278" lon="13.2730546"><ele>59.0</ele><time>2026-03-22T09:34:01.302Z</time></trkpt><trkpt lat="45.9792341" lon="13.2732597"><ele>59.0</ele><time>2026-03-22T09:34:02.29Z</time></trkpt><trkpt lat="45.979185" lon="13.2734641"><ele>59.0</ele><time>2026-03-22T09:34:03.285Z</time></trkpt><trkpt lat="45.9791336" lon="13.2736687"><ele>59.0</ele><time>2026-03-22T09:34:04.309Z</time></trkpt><trkpt lat="45.9790837" lon="13.2738741"><ele>59.0</ele><time>2026-03-22T09:34:05.287Z</time></trkpt><trkpt lat="45.9790389" lon="13.2740779"><ele>59.0</ele><time>2026-03-22T09:34:06.296Z</time></trkpt><trkpt lat="45.9789972" lon="13.2742778"><ele>59.0</ele><time>2026-03-22T09:34:07.282Z</time></trkpt><trkpt lat="45.9789579" lon="13.2744753"><ele>59.0</ele><time>2026-03-22T09:34:08.291Z</time></trkpt><trkpt lat="45.9789197" lon="13.2746665"><ele>59.0</ele><time>2026-03-22T09:34:09.318Z</time></trkpt><trkpt lat="45.978883" lon="13.2748507"><ele>59.0</ele><time>2026-03-22T09:34:10.282Z</time></trkpt><trkpt lat="45.9788456" lon="13.2750245"><ele>59.0</ele><time>2026-03-22T09:34:11.293Z</time></trkpt><trkpt lat="45.9788098" lon="13.2751857"><ele>59.00000000000001</ele><time>2026-03-22T09:34:12.289Z</time></trkpt><trkpt lat="45.9787777" lon="13.2753334"><ele>59.0</ele><time>2026-03-22T09:34:13.298Z</time></trkpt><trkpt lat="45.9787628" lon="13.2754712"><ele>59.0</ele><time>2026-03-22T09:34:14.281Z</time></trkpt><trkpt lat="45.9787464" lon="13.2755937"><ele>59.0</ele><time>2026-03-22T09:34:15.282Z</time></trkpt><trkpt lat="45.9787304" lon="13.2757055"><ele>59.00000000000001</ele><time>2026-03-22T09:34:16.287Z</time></trkpt><trkpt lat="45.9787161" lon="13.2758086"><ele>59.0</ele><time>2026-03-22T09:34:17.307Z</time></trkpt><trkpt lat="45.978703" lon="13.2759041"><ele>59.0</ele><time>2026-03-22T09:34:18.292Z</time></trkpt><trkpt lat="45.9786725" lon="13.276074"><ele>59.00000000000001</ele><time>2026-03-22T09:34:20.288Z</time></trkpt><trkpt lat="45.9786185" lon="13.2762351"><ele>59.00000000000001</ele><time>2026-03-22T09:34:22.292Z</time></trkpt><trkpt lat="45.9785756" lon="13.2763194"><ele>59.0</ele><time>2026-03-22T09:34:23.292Z</time></trkpt><trkpt lat="45.9785368" lon="13.2764117"><ele>59.0</ele><time>2026-03-22T09:34:24.293Z</time></trkpt><trkpt lat="45.9785193" lon="13.2765218"><ele>59.16666666666667</ele><time>2026-03-22T09:34:25.314Z</time></trkpt><trkpt lat="45.9785164" lon="13.2766374"><ele>59.333333333333336</ele><time>2026-03-22T09:34:26.314Z</time></trkpt><trkpt lat="45.9785268" lon="13.2767436"><ele>59.5</ele><time>2026-03-22T09:34:27.314Z</time></trkpt><trkpt lat="45.9785738" lon="13.2768169"><ele>59.66666666666667</ele><time>2026-03-22T09:34:28.297Z</time></trkpt><trkpt lat="45.9786373" lon="13.2768597"><ele>59.833333333333336</ele><time>2026-03-22T09:34:29.282Z</time></trkpt><trkpt lat="45.9787147" lon="13.2768443"><ele>60.0</ele><time>2026-03-22T09:34:30.295Z</time></trkpt><trkpt lat="45.9787942" lon="13.2767957"><ele>60.0</ele><time>2026-03-22T09:34:31.301Z</time></trkpt><trkpt lat="45.9788814" lon="13.2767223"><ele>60.0</ele><time>2026-03-22T09:34:32.29Z</time></trkpt><trkpt lat="45.9789795" lon="13.2766689"><ele>60.0</ele><time>2026-03-22T09:34:33.292Z</time></trkpt><trkpt lat="45.9790901" lon="13.2766257"><ele>60.0</ele><time>2026-03-22T09:34:34.294Z</time></trkpt><trkpt lat="45.9792093" lon="13.2765995"><ele>60.0</ele><time>2026-03-22T09:34:35.307Z</time></trkpt><trkpt lat="45.9793364" lon="13.2765983"><ele>60.75</ele><time>2026-03-22T09:34:36.315Z</time></trkpt><trkpt lat="45.9794669" lon="13.2766091"><ele>61.5</ele><time>2026-03-22T09:34:37.297Z</time></trkpt><trkpt lat="45.9796054" lon="13.276612"><ele>62.25</ele><time>2026-03-22T09:34:38.287Z</time></trkpt><trkpt lat="45.9797443" lon="13.2766259"><ele>63.0</ele><time>2026-03-22T09:34:39.299Z</time></trkpt><trkpt lat="45.9798911" lon="13.2766192"><ele>62.33333333333333</ele><time>2026-03-22T09:34:40.297Z</time></trkpt><trkpt lat="45.9800427" lon="13.2766257"><ele>61.666666666666664</ele><time>2026-03-22T09:34:41.298Z</time></trkpt><trkpt lat="45.9801975" lon="13.2766302"><ele>61.0</ele><time>2026-03-22T09:34:42.287Z</time></trkpt><trkpt lat="45.9803562" lon="13.2766327"><ele>61.0</ele><time>2026-03-22T09:34:43.288Z</time></trkpt><trkpt lat="45.9805183" lon="13.2766359"><ele>61.0</ele><time>2026-03-22T09:34:44.283Z</time></trkpt><trkpt lat="45.9806827" lon="13.2766408"><ele>61.0</ele><time>2026-03-22T09:34:45.298Z</time></trkpt><trkpt lat="45.9808488" lon="13.2766453"><ele>61.33333333333333</ele><time>2026-03-22T09:34:46.284Z</time></trkpt><trkpt lat="45.9810168" lon="13.276648"><ele>61.66666666666667</ele><time>2026-03-22T09:34:47.295Z</time></trkpt><trkpt lat="45.9811873" lon="13.2766533"><ele>62.0</ele><time>2026-03-22T09:34:48.282Z</time></trkpt><trkpt lat="45.9813594" lon="13.2766655"><ele>62.0</ele><time>2026-03-22T09:34:49.298Z</time></trkpt><trkpt lat="45.9815331" lon="13.2766631"><ele>62.0</ele><time>2026-03-22T09:34:50.286Z</time></trkpt><trkpt lat="45.9817064" lon="13.2766631"><ele>62.0</ele><time>2026-03-22T09:34:51.29Z</time></trkpt><trkpt lat="45.9818795" lon="13.276669"><ele>62.0</ele><time>2026-03-22T09:34:52.291Z</time></trkpt><trkpt lat="45.9820526" lon="13.2766762"><ele>62.0</ele><time>2026-03-22T09:34:53.28Z</time></trkpt><trkpt lat="45.982226" lon="13.276682"><ele>62.0</ele><time>2026-03-22T09:34:54.283Z</time></trkpt><trkpt lat="45.9824" lon="13.2766871"><ele>61.66666666666667</ele><time>2026-03-22T09:34:55.301Z</time></trkpt><trkpt lat="45.9825741" lon="13.2766904"><ele>61.33333333333333</ele><time>2026-03-22T09:34:56.292Z</time></trkpt><trkpt lat="45.9827467" lon="13.2767038"><ele>61.0</ele><time>2026-03-22T09:34:57.303Z</time></trkpt><trkpt lat="45.9829182" lon="13.2766992"><ele>61.0</ele><time>2026-03-22T09:34:58.289Z</time></trkpt><trkpt lat="45.9830866" lon="13.2767026"><ele>61.0</ele><time>2026-03-22T09:34:59.295Z</time></trkpt><trkpt lat="45.9832531" lon="13.2767094"><ele>61.0</ele><time>2026-03-22T09:35:00.296Z</time></trkpt><trkpt lat="45.9834198" lon="13.2767183"><ele>61.0</ele><time>2026-03-22T09:35:01.318Z</time></trkpt><trkpt lat="45.9835864" lon="13.276723"><ele>61.0</ele><time>2026-03-22T09:35:02.286Z</time></trkpt><trkpt lat="45.9837533" lon="13.2767269"><ele>61.0</ele><time>2026-03-22T09:35:03.292Z</time></trkpt><trkpt lat="45.9839202" lon="13.2767293"><ele>61.0</ele><time>2026-03-22T09:35:04.29Z</time></trkpt><trkpt lat="45.9840877" lon="13.2767314"><ele>61.0</ele><time>2026-03-22T09:35:05.294Z</time></trkpt><trkpt lat="45.9842565" lon="13.2767352"><ele>61.0</ele><time>2026-03-22T09:35:06.304Z</time></trkpt><trkpt lat="45.9844275" lon="13.2767394"><ele>61.33333333333333</ele><time>2026-03-22T09:35:07.307Z</time></trkpt><trkpt lat="45.9845998" lon="13.2767507"><ele>61.66666666666667</ele><time>2026-03-22T09:35:08.293Z</time></trkpt><trkpt lat="45.9847744" lon="13.2767514"><ele>62.0</ele><time>2026-03-22T09:35:09.301Z</time></trkpt><trkpt lat="45.9849499" lon="13.2767486"><ele>62.0</ele><time>2026-03-22T09:35:10.304Z</time></trkpt><trkpt lat="45.9851271" lon="13.2767521"><ele>62.0</ele><time>2026-03-22T09:35:11.292Z</time></trkpt><trkpt lat="45.9853041" lon="13.2767477"><ele>62.0</ele><time>2026-03-22T09:35:12.286Z</time></trkpt><trkpt lat="45.9854828" lon="13.2767369"><ele>62.0</ele><time>2026-03-22T09:35:13.305Z</time></trkpt><trkpt lat="45.9856641" lon="13.27672"><ele>62.0</ele><time>2026-03-22T09:35:14.299Z</time></trkpt><trkpt lat="45.9858458" lon="13.2767077"><ele>62.0</ele><time>2026-03-22T09:35:15.313Z</time></trkpt><trkpt lat="45.9860279" lon="13.2766903"><ele>62.333333333333336</ele><time>2026-03-22T09:35:16.307Z</time></trkpt><trkpt lat="45.9862104" lon="13.2766689"><ele>62.66666666666667</ele><time>2026-03-22T09:35:17.306Z</time></trkpt><trkpt lat="45.9863918" lon="13.276639"><ele>63.0</ele><time>2026-03-22T09:35:18.294Z</time></trkpt><trkpt lat="45.9865721" lon="13.2766129"><ele>62.66666666666667</ele><time>2026-03-22T09:35:19.297Z</time></trkpt><trkpt lat="45.9867476" lon="13.2765864"><ele>62.333333333333336</ele><time>2026-03-22T09:35:20.286Z</time></trkpt><trkpt lat="45.9869138" lon="13.2765568"><ele>62.0</ele><time>2026-03-22T09:35:21.288Z</time></trkpt><trkpt lat="45.9870713" lon="13.2765355"><ele>62.0</ele><time>2026-03-22T09:35:22.305Z</time></trkpt><trkpt lat="45.9872184" lon="13.2765114"><ele>62.0</ele><time>2026-03-22T09:35:23.31Z</time></trkpt><trkpt lat="45.9873503" lon="13.276493"><ele>62.0</ele><time>2026-03-22T09:35:24.29Z</time></trkpt><trkpt lat="45.9874677" lon="13.2764857"><ele>62.0</ele><time>2026-03-22T09:35:25.316Z</time></trkpt><trkpt lat="45.9875784" lon="13.2764939"><ele>61.8</ele><time>2026-03-22T09:35:26.302Z</time></trkpt><trkpt lat="45.987685" lon="13.2765103"><ele>61.6</ele><time>2026-03-22T09:35:27.322Z</time></trkpt><trkpt lat="45.9877828" lon="13.2765594"><ele>61.39999999999999</ele><time>2026-03-22T09:35:28.301Z</time></trkpt><trkpt lat="45.9878775" lon="13.2766116"><ele>61.199999999999996</ele><time>2026-03-22T09:35:29.308Z</time></trkpt><trkpt lat="45.9879727" lon="13.2766609"><ele>61.0</ele><time>2026-03-22T09:35:30.282Z</time></trkpt><trkpt lat="45.9880768" lon="13.2766581"><ele>61.0</ele><time>2026-03-22T09:35:31.29Z</time></trkpt><trkpt lat="45.9881749" lon="13.2766109"><ele>60.99999999999999</ele><time>2026-03-22T09:35:32.29Z</time></trkpt><trkpt lat="45.9882582" lon="13.276509"><ele>60.99999999999999</ele><time>2026-03-22T09:35:33.288Z</time></trkpt><trkpt lat="45.9883289" lon="13.2763778"><ele>61.0</ele><time>2026-03-22T09:35:34.314Z</time></trkpt><trkpt lat="45.9884252" lon="13.2762742"><ele>61.0</ele><time>2026-03-22T09:35:35.314Z</time></trkpt><trkpt lat="45.9885362" lon="13.2761843"><ele>61.5</ele><time>2026-03-22T09:35:36.309Z</time></trkpt><trkpt lat="45.9886618" lon="13.276114"><ele>62.0</ele><time>2026-03-22T09:35:37.3Z</time></trkpt><trkpt lat="45.9887992" lon="13.2760589"><ele>62.5</ele><time>2026-03-22T09:35:38.288Z</time></trkpt><trkpt lat="45.988943" lon="13.2760039"><ele>63.0</ele><time>2026-03-22T09:35:39.311Z</time></trkpt><trkpt lat="45.9890943" lon="13.2759556"><ele>62.66666666666667</ele><time>2026-03-22T09:35:40.292Z</time></trkpt><trkpt lat="45.9892462" lon="13.2758977"><ele>62.333333333333336</ele><time>2026-03-22T09:35:41.294Z</time></trkpt><trkpt lat="45.9893987" lon="13.2758394"><ele>62.0</ele><time>2026-03-22T09:35:42.296Z</time></trkpt><trkpt lat="45.9895502" lon="13.2757826"><ele>62.0</ele><time>2026-03-22T09:35:43.301Z</time></trkpt><trkpt lat="45.9896993" lon="13.2757232"><ele>62.0</ele><time>2026-03-22T09:35:44.297Z</time></trkpt><trkpt lat="45.9898508" lon="13.2756731"><ele>62.0</ele><time>2026-03-22T09:35:45.294Z</time></trkpt><trkpt lat="45.9900015" lon="13.2756177"><ele>62.66666666666667</ele><time>2026-03-22T09:35:46.306Z</time></trkpt><trkpt lat="45.9901521" lon="13.2755621"><ele>63.33333333333333</ele><time>2026-03-22T09:35:47.319Z</time></trkpt><trkpt lat="45.9903024" lon="13.2755101"><ele>64.0</ele><time>2026-03-22T09:35:48.308Z</time></trkpt><trkpt lat="45.9904516" lon="13.2754585"><ele>64.0</ele><time>2026-03-22T09:35:49.289Z</time></trkpt><trkpt lat="45.990601" lon="13.2754075"><ele>64.0</ele><time>2026-03-22T09:35:50.292Z</time></trkpt><trkpt lat="45.9907521" lon="13.2753608"><ele>64.0</ele><time>2026-03-22T09:35:51.298Z</time></trkpt><trkpt lat="45.9909046" lon="13.2753157"><ele>64.66666666666666</ele><time>2026-03-22T09:35:52.302Z</time></trkpt><trkpt lat="45.9910596" lon="13.2752749"><ele>65.33333333333333</ele><time>2026-03-22T09:35:53.306Z</time></trkpt><trkpt lat="45.991218" lon="13.2752317"><ele>66.0</ele><time>2026-03-22T09:35:54.305Z</time></trkpt><trkpt lat="45.99138" lon="13.2751887"><ele>66.0</ele><time>2026-03-22T09:35:55.31Z</time></trkpt><trkpt lat="45.9915452" lon="13.2751473"><ele>66.0</ele><time>2026-03-22T09:35:56.302Z</time></trkpt><trkpt lat="45.991715" lon="13.2751092"><ele>66.0</ele><time>2026-03-22T09:35:57.306Z</time></trkpt><trkpt lat="45.9918887" lon="13.2750768"><ele>65.66666666666667</ele><time>2026-03-22T09:35:58.283Z</time></trkpt><trkpt lat="45.9920651" lon="13.2750442"><ele>65.33333333333334</ele><time>2026-03-22T09:35:59.293Z</time></trkpt><trkpt lat="45.9922446" lon="13.275014"><ele>65.0</ele><time>2026-03-22T09:36:00.295Z</time></trkpt><trkpt lat="45.9924256" lon="13.2749818"><ele>65.0</ele><time>2026-03-22T09:36:01.286Z</time></trkpt><trkpt lat="45.9926074" lon="13.2749495"><ele>65.0</ele><time>2026-03-22T09:36:02.298Z</time></trkpt><trkpt lat="45.9927909" lon="13.2749171"><ele>65.0</ele><time>2026-03-22T09:36:03.295Z</time></trkpt><trkpt lat="45.9929768" lon="13.2748874"><ele>65.0</ele><time>2026-03-22T09:36:04.292Z</time></trkpt><trkpt lat="45.9931644" lon="13.2748557"><ele>65.0</ele><time>2026-03-22T09:36:05.31Z</time></trkpt><trkpt lat="45.9933539" lon="13.2748259"><ele>65.0</ele><time>2026-03-22T09:36:06.303Z</time></trkpt><trkpt lat="45.9935443" lon="13.2747953"><ele>65.66666666666667</ele><time>2026-03-22T09:36:07.289Z</time></trkpt><trkpt lat="45.9937351" lon="13.2747658"><ele>66.33333333333333</ele><time>2026-03-22T09:36:08.301Z</time></trkpt><trkpt lat="45.9939254" lon="13.274733"><ele>67.0</ele><time>2026-03-22T09:36:09.301Z</time></trkpt><trkpt lat="45.9941158" lon="13.2747016"><ele>67.0</ele><time>2026-03-22T09:36:10.3Z</time></trkpt><trkpt lat="45.9943063" lon="13.2746705"><ele>67.0</ele><time>2026-03-22T09:36:11.294Z</time></trkpt><trkpt lat="45.9944962" lon="13.2746422"><ele>67.0</ele><time>2026-03-22T09:36:12.296Z</time></trkpt><trkpt lat="45.994686" lon="13.274612"><ele>67.0</ele><time>2026-03-22T09:36:13.299Z</time></trkpt><trkpt lat="45.9948791" lon="13.2745799"><ele>67.0</ele><time>2026-03-22T09:36:14.283Z</time></trkpt><trkpt lat="45.9950807" lon="13.2745402"><ele>67.0</ele><time>2026-03-22T09:36:15.285Z</time></trkpt><trkpt lat="45.9952911" lon="13.2744976"><ele>67.0</ele><time>2026-03-22T09:36:16.298Z</time></trkpt><trkpt lat="45.9955067" lon="13.2744555"><ele>67.0</ele><time>2026-03-22T09:36:17.294Z</time></trkpt><trkpt lat="45.995724" lon="13.2744183"><ele>67.0</ele><time>2026-03-22T09:36:18.279Z</time></trkpt><trkpt lat="45.995934" lon="13.2743866"><ele>68.0</ele><time>2026-03-22T09:36:19.3Z</time></trkpt><trkpt lat="45.9961299" lon="13.2743578"><ele>69.0</ele><time>2026-03-22T09:36:20.291Z</time></trkpt><trkpt lat="45.9963119" lon="13.2743259"><ele>70.0</ele><time>2026-03-22T09:36:21.291Z</time></trkpt><trkpt lat="45.9964824" lon="13.2743014"><ele>70.0</ele><time>2026-03-22T09:36:22.29Z</time></trkpt><trkpt lat="45.9966409" lon="13.274277"><ele>70.0</ele><time>2026-03-22T09:36:23.306Z</time></trkpt><trkpt lat="45.9967963" lon="13.2742569"><ele>70.0</ele><time>2026-03-22T09:36:24.305Z</time></trkpt><trkpt lat="45.9969545" lon="13.2742362"><ele>69.66666666666666</ele><time>2026-03-22T09:36:25.311Z</time></trkpt><trkpt lat="45.997121" lon="13.2742105"><ele>69.33333333333333</ele><time>2026-03-22T09:36:26.29Z</time></trkpt><trkpt lat="45.9973017" lon="13.2741747"><ele>69.0</ele><time>2026-03-22T09:36:27.301Z</time></trkpt><trkpt lat="45.997504" lon="13.2741318"><ele>70.0</ele><time>2026-03-22T09:36:28.302Z</time></trkpt><trkpt lat="45.9977379" lon="13.2740822"><ele>71.0</ele><time>2026-03-22T09:36:29.305Z</time></trkpt><trkpt lat="45.9979902" lon="13.2740362"><ele>71.0</ele><time>2026-03-22T09:36:30.289Z</time></trkpt><trkpt lat="45.9982525" lon="13.2740041"><ele>71.0</ele><time>2026-03-22T09:36:31.291Z</time></trkpt><trkpt lat="45.9985101" lon="13.2739759"><ele>72.0</ele><time>2026-03-22T09:36:32.29Z</time></trkpt><trkpt lat="45.9987625" lon="13.2739426"><ele>73.0</ele><time>2026-03-22T09:36:33.32Z</time></trkpt><trkpt lat="45.9990097" lon="13.2739177"><ele>72.0</ele><time>2026-03-22T09:36:34.307Z</time></trkpt><trkpt lat="45.9992468" lon="13.2738818"><ele>71.0</ele><time>2026-03-22T09:36:35.295Z</time></trkpt><trkpt lat="45.9994782" lon="13.273846"><ele>71.0</ele><time>2026-03-22T09:36:36.282Z</time></trkpt><trkpt lat="45.9997053" lon="13.2738125"><ele>71.0</ele><time>2026-03-22T09:36:37.303Z</time></trkpt><trkpt lat="45.9999285" lon="13.273779"><ele>71.0</ele><time>2026-03-22T09:36:38.292Z</time></trkpt><trkpt lat="46.0001477" lon="13.2737421"><ele>71.0</ele><time>2026-03-22T09:36:39.293Z</time></trkpt><trkpt lat="46.0003643" lon="13.273709"><ele>71.0</ele><time>2026-03-22T09:36:40.295Z</time></trkpt><trkpt lat="46.0005788" lon="13.2736761"><ele>71.0</ele><time>2026-03-22T09:36:41.302Z</time></trkpt><trkpt lat="46.0007924" lon="13.2736456"><ele>71.0</ele><time>2026-03-22T09:36:42.297Z</time></trkpt><trkpt lat="46.0010047" lon="13.2736089"><ele>71.0</ele><time>2026-03-22T09:36:43.293Z</time></trkpt><trkpt lat="46.0012163" lon="13.2735706"><ele>71.0</ele><time>2026-03-22T09:36:44.291Z</time></trkpt><trkpt lat="46.0014288" lon="13.2735443"><ele>71.0</ele><time>2026-03-22T09:36:45.3Z</time></trkpt><trkpt lat="46.0016414" lon="13.2735199"><ele>71.0</ele><time>2026-03-22T09:36:46.303Z</time></trkpt><trkpt lat="46.0018546" lon="13.2734868"><ele>71.0</ele><time>2026-03-22T09:36:47.288Z</time></trkpt><trkpt lat="46.0020688" lon="13.2734508"><ele>71.0</ele><time>2026-03-22T09:36:48.294Z</time></trkpt><trkpt lat="46.0022839" lon="13.2734032"><ele>71.0</ele><time>2026-03-22T09:36:49.298Z</time></trkpt><trkpt lat="46.0025" lon="13.2733595"><ele>71.33333333333334</ele><time>2026-03-22T09:36:50.298Z</time></trkpt><trkpt lat="46.0027171" lon="13.2733153"><ele>71.66666666666667</ele><time>2026-03-22T09:36:51.29Z</time></trkpt><trkpt lat="46.0029353" lon="13.2732712"><ele>72.0</ele><time>2026-03-22T09:36:52.308Z</time></trkpt><trkpt lat="46.0031536" lon="13.2732212"><ele>71.66666666666667</ele><time>2026-03-22T09:36:53.295Z</time></trkpt><trkpt lat="46.0033728" lon="13.2731713"><ele>71.33333333333334</ele><time>2026-03-22T09:36:54.301Z</time></trkpt><trkpt lat="46.0035933" lon="13.2731244"><ele>71.0</ele><time>2026-03-22T09:36:55.322Z</time></trkpt><trkpt lat="46.003815" lon="13.2730825"><ele>71.0</ele><time>2026-03-22T09:36:56.288Z</time></trkpt><trkpt lat="46.0040359" lon="13.2730321"><ele>71.0</ele><time>2026-03-22T09:36:57.29Z</time></trkpt><trkpt lat="46.0042561" lon="13.2729737"><ele>71.0</ele><time>2026-03-22T09:36:58.294Z</time></trkpt><trkpt lat="46.0044758" lon="13.2729098"><ele>71.5</ele><time>2026-03-22T09:36:59.302Z</time></trkpt><trkpt lat="46.0046962" lon="13.2728476"><ele>72.0</ele><time>2026-03-22T09:37:00.301Z</time></trkpt><trkpt lat="46.0049182" lon="13.2727873"><ele>72.0</ele><time>2026-03-22T09:37:01.31Z</time></trkpt><trkpt lat="46.005142" lon="13.272728"><ele>72.0</ele><time>2026-03-22T09:37:02.295Z</time></trkpt><trkpt lat="46.0053669" lon="13.2726699"><ele>72.0</ele><time>2026-03-22T09:37:03.294Z</time></trkpt><trkpt lat="46.005593" lon="13.2726124"><ele>72.0</ele><time>2026-03-22T09:37:04.298Z</time></trkpt><trkpt lat="46.0058193" lon="13.2725479"><ele>72.5</ele><time>2026-03-22T09:37:05.322Z</time></trkpt><trkpt lat="46.0060455" lon="13.2724871"><ele>73.0</ele><time>2026-03-22T09:37:06.28Z</time></trkpt><trkpt lat="46.0062691" lon="13.2724264"><ele>73.0</ele><time>2026-03-22T09:37:07.285Z</time></trkpt><trkpt lat="46.0064895" lon="13.2723661"><ele>73.0</ele><time>2026-03-22T09:37:08.293Z</time></trkpt><trkpt lat="46.0067092" lon="13.2723103"><ele>73.0</ele><time>2026-03-22T09:37:09.287Z</time></trkpt><trkpt lat="46.0069283" lon="13.2722517"><ele>73.33333333333333</ele><time>2026-03-22T09:37:10.283Z</time></trkpt><trkpt lat="46.0071471" lon="13.2721936"><ele>73.66666666666667</ele><time>2026-03-22T09:37:11.3Z</time></trkpt><trkpt lat="46.0073639" lon="13.2721363"><ele>74.0</ele><time>2026-03-22T09:37:12.298Z</time></trkpt><trkpt lat="46.0075769" lon="13.272075"><ele>74.0</ele><time>2026-03-22T09:37:13.277Z</time></trkpt><trkpt lat="46.0077879" lon="13.2720139"><ele>74.0</ele><time>2026-03-22T09:37:14.283Z</time></trkpt><trkpt lat="46.0079956" lon="13.2719561"><ele>74.0</ele><time>2026-03-22T09:37:15.31Z</time></trkpt><trkpt lat="46.0082009" lon="13.2719046"><ele>74.0</ele><time>2026-03-22T09:37:16.289Z</time></trkpt><trkpt lat="46.008406" lon="13.271852"><ele>74.0</ele><time>2026-03-22T09:37:17.286Z</time></trkpt><trkpt lat="46.0086096" lon="13.2717964"><ele>74.0</ele><time>2026-03-22T09:37:18.289Z</time></trkpt><trkpt lat="46.0088118" lon="13.2717377"><ele>74.0</ele><time>2026-03-22T09:37:19.281Z</time></trkpt><trkpt lat="46.0090142" lon="13.2716803"><ele>74.0</ele><time>2026-03-22T09:37:20.292Z</time></trkpt><trkpt lat="46.0092166" lon="13.271622"><ele>74.0</ele><time>2026-03-22T09:37:21.286Z</time></trkpt><trkpt lat="46.0094197" lon="13.2715626"><ele>74.0</ele><time>2026-03-22T09:37:22.313Z</time></trkpt><trkpt lat="46.0096247" lon="13.2715052"><ele>74.0</ele><time>2026-03-22T09:37:23.292Z</time></trkpt><trkpt lat="46.0098304" lon="13.2714437"><ele>74.0</ele><time>2026-03-22T09:37:24.296Z</time></trkpt><trkpt lat="46.0100423" lon="13.2713942"><ele>74.0</ele><time>2026-03-22T09:37:25.299Z</time></trkpt><trkpt lat="46.0102559" lon="13.2713458"><ele>74.0</ele><time>2026-03-22T09:37:26.278Z</time></trkpt><trkpt lat="46.0104693" lon="13.2712852"><ele>74.0</ele><time>2026-03-22T09:37:27.293Z</time></trkpt><trkpt lat="46.0106836" lon="13.2712265"><ele>74.0</ele><time>2026-03-22T09:37:28.305Z</time></trkpt><trkpt lat="46.0108979" lon="13.2711713"><ele>74.0</ele><time>2026-03-22T09:37:29.306Z</time></trkpt><trkpt lat="46.0111109" lon="13.2711151"><ele>74.0</ele><time>2026-03-22T09:37:30.28Z</time></trkpt><trkpt lat="46.0113195" lon="13.2710579"><ele>74.0</ele><time>2026-03-22T09:37:31.278Z</time></trkpt><trkpt lat="46.0115179" lon="13.2710008"><ele>74.0</ele><time>2026-03-22T09:37:32.286Z</time></trkpt><trkpt lat="46.0117027" lon="13.2709463"><ele>74.0</ele><time>2026-03-22T09:37:33.308Z</time></trkpt><trkpt lat="46.0118736" lon="13.2708973"><ele>74.4</ele><time>2026-03-22T09:37:34.306Z</time></trkpt><trkpt lat="46.0120219" lon="13.2708624"><ele>74.80000000000001</ele><time>2026-03-22T09:37:35.307Z</time></trkpt><trkpt lat="46.012142" lon="13.2708533"><ele>75.19999999999999</ele><time>2026-03-22T09:37:36.281Z</time></trkpt><trkpt lat="46.0122326" lon="13.2708822"><ele>75.6</ele><time>2026-03-22T09:37:37.282Z</time></trkpt><trkpt lat="46.0123006" lon="13.2709292"><ele>76.0</ele><time>2026-03-22T09:37:38.292Z</time></trkpt><trkpt lat="46.0123608" lon="13.2709721"><ele>76.0</ele><time>2026-03-22T09:37:39.292Z</time></trkpt><trkpt lat="46.0124221" lon="13.2710235"><ele>76.0</ele><time>2026-03-22T09:37:40.307Z</time></trkpt><trkpt lat="46.0124842" lon="13.2710916"><ele>76.0</ele><time>2026-03-22T09:37:41.307Z</time></trkpt><trkpt lat="46.0125562" lon="13.2711657"><ele>76.0</ele><time>2026-03-22T09:37:42.281Z</time></trkpt><trkpt lat="46.0126468" lon="13.2712195"><ele>76.0</ele><time>2026-03-22T09:37:43.303Z</time></trkpt><trkpt lat="46.012749" lon="13.2712489"><ele>76.0</ele><time>2026-03-22T09:37:44.314Z</time></trkpt><trkpt lat="46.012861" lon="13.2712584"><ele>75.75</ele><time>2026-03-22T09:37:45.307Z</time></trkpt><trkpt lat="46.0129776" lon="13.2712322"><ele>75.5</ele><time>2026-03-22T09:37:46.294Z</time></trkpt><trkpt lat="46.0130935" lon="13.2711777"><ele>75.25</ele><time>2026-03-22T09:37:47.3Z</time></trkpt><trkpt lat="46.0131992" lon="13.2710766"><ele>75.0</ele><time>2026-03-22T09:37:48.286Z</time></trkpt><trkpt lat="46.0132879" lon="13.2709361"><ele>75.25</ele><time>2026-03-22T09:37:49.293Z</time></trkpt><trkpt lat="46.0133635" lon="13.270774"><ele>75.5</ele><time>2026-03-22T09:37:50.293Z</time></trkpt><trkpt lat="46.0134523" lon="13.2706253"><ele>75.75</ele><time>2026-03-22T09:37:51.281Z</time></trkpt><trkpt lat="46.0135651" lon="13.2705021"><ele>76.0</ele><time>2026-03-22T09:37:52.294Z</time></trkpt><trkpt lat="46.0137037" lon="13.2704097"><ele>76.33333333333333</ele><time>2026-03-22T09:37:53.309Z</time></trkpt><trkpt lat="46.0138623" lon="13.2703478"><ele>76.66666666666667</ele><time>2026-03-22T09:37:54.283Z</time></trkpt><trkpt lat="46.0140352" lon="13.2702959"><ele>77.0</ele><time>2026-03-22T09:37:55.301Z</time></trkpt><trkpt lat="46.0142241" lon="13.2702429"><ele>77.33333333333334</ele><time>2026-03-22T09:37:56.284Z</time></trkpt><trkpt lat="46.0144288" lon="13.2701857"><ele>77.66666666666667</ele><time>2026-03-22T09:37:57.281Z</time></trkpt><trkpt lat="46.0146456" lon="13.2701275"><ele>78.0</ele><time>2026-03-22T09:37:58.295Z</time></trkpt><trkpt lat="46.0148676" lon="13.2700794"><ele>78.33333333333333</ele><time>2026-03-22T09:37:59.289Z</time></trkpt><trkpt lat="46.015086" lon="13.270018"><ele>78.66666666666666</ele><time>2026-03-22T09:38:00.277Z</time></trkpt><trkpt lat="46.0152991" lon="13.2699576"><ele>79.0</ele><time>2026-03-22T09:38:01.288Z</time></trkpt><trkpt lat="46.0155071" lon="13.2698975"><ele>79.0</ele><time>2026-03-22T09:38:02.28Z</time></trkpt><trkpt lat="46.0157101" lon="13.2698392"><ele>79.0</ele><time>2026-03-22T09:38:03.294Z</time></trkpt><trkpt lat="46.0159078" lon="13.2697827"><ele>79.0</ele><time>2026-03-22T09:38:04.287Z</time></trkpt><trkpt lat="46.0161021" lon="13.2697314"><ele>79.0</ele><time>2026-03-22T09:38:05.306Z</time></trkpt><trkpt lat="46.0162937" lon="13.2696802"><ele>79.0</ele><time>2026-03-22T09:38:06.304Z</time></trkpt><trkpt lat="46.0164831" lon="13.2696265"><ele>79.0</ele><time>2026-03-22T09:38:07.306Z</time></trkpt><trkpt lat="46.0166714" lon="13.2695729"><ele>79.33333333333333</ele><time>2026-03-22T09:38:08.299Z</time></trkpt><trkpt lat="46.0168595" lon="13.2695202"><ele>79.66666666666667</ele><time>2026-03-22T09:38:09.296Z</time></trkpt><trkpt lat="46.0170474" lon="13.2694699"><ele>80.0</ele><time>2026-03-22T09:38:10.287Z</time></trkpt><trkpt lat="46.0172346" lon="13.2694201"><ele>80.0</ele><time>2026-03-22T09:38:11.3Z</time></trkpt><trkpt lat="46.017421" lon="13.269372"><ele>80.0</ele><time>2026-03-22T09:38:12.296Z</time></trkpt><trkpt lat="46.0176069" lon="13.2693205"><ele>80.0</ele><time>2026-03-22T09:38:13.289Z</time></trkpt><trkpt lat="46.0177927" lon="13.2692683"><ele>79.66666666666667</ele><time>2026-03-22T09:38:14.293Z</time></trkpt><trkpt lat="46.0179767" lon="13.2692123"><ele>79.33333333333333</ele><time>2026-03-22T09:38:15.293Z</time></trkpt><trkpt lat="46.018158" lon="13.2691569"><ele>79.0</ele><time>2026-03-22T09:38:16.286Z</time></trkpt><trkpt lat="46.0183339" lon="13.2691115"><ele>79.66666666666666</ele><time>2026-03-22T09:38:17.296Z</time></trkpt><trkpt lat="46.0185004" lon="13.2690656"><ele>80.33333333333333</ele><time>2026-03-22T09:38:18.279Z</time></trkpt><trkpt lat="46.0186586" lon="13.2690283"><ele>81.0</ele><time>2026-03-22T09:38:19.302Z</time></trkpt><trkpt lat="46.0188014" lon="13.2690003"><ele>81.0</ele><time>2026-03-22T09:38:20.283Z</time></trkpt><trkpt lat="46.0189255" lon="13.2689919"><ele>81.0</ele><time>2026-03-22T09:38:21.286Z</time></trkpt><trkpt lat="46.0190301" lon="13.269001"><ele>81.0</ele><time>2026-03-22T09:38:22.29Z</time></trkpt><trkpt lat="46.0191254" lon="13.2690279"><ele>81.0</ele><time>2026-03-22T09:38:23.312Z</time></trkpt><trkpt lat="46.0192314" lon="13.2690408"><ele>81.0</ele><time>2026-03-22T09:38:24.289Z</time></trkpt><trkpt lat="46.0193512" lon="13.2690998"><ele>81.25</ele><time>2026-03-22T09:38:25.323Z</time></trkpt><trkpt lat="46.0194664" lon="13.2692068"><ele>81.5</ele><time>2026-03-22T09:38:26.285Z</time></trkpt><trkpt lat="46.0195888" lon="13.269288"><ele>81.75</ele><time>2026-03-22T09:38:27.286Z</time></trkpt><trkpt lat="46.0197117" lon="13.2693366"><ele>82.0</ele><time>2026-03-22T09:38:28.314Z</time></trkpt><trkpt lat="46.0198361" lon="13.2693732"><ele>82.0</ele><time>2026-03-22T09:38:29.306Z</time></trkpt><trkpt lat="46.0199657" lon="13.269385"><ele>82.0</ele><time>2026-03-22T09:38:30.288Z</time></trkpt><trkpt lat="46.0200993" lon="13.2693804"><ele>82.0</ele><time>2026-03-22T09:38:31.312Z</time></trkpt><trkpt lat="46.0202362" lon="13.2693652"><ele>82.0</ele><time>2026-03-22T09:38:32.301Z</time></trkpt><trkpt lat="46.0203771" lon="13.2693385"><ele>81.66666666666666</ele><time>2026-03-22T09:38:33.302Z</time></trkpt><trkpt lat="46.0205223" lon="13.2693006"><ele>81.33333333333333</ele><time>2026-03-22T09:38:34.29Z</time></trkpt><trkpt lat="46.02067" lon="13.2692491"><ele>81.0</ele><time>2026-03-22T09:38:35.302Z</time></trkpt><trkpt lat="46.0208179" lon="13.2691823"><ele>81.0</ele><time>2026-03-22T09:38:36.306Z</time></trkpt><trkpt lat="46.0209651" lon="13.2690938"><ele>81.0</ele><time>2026-03-22T09:38:37.297Z</time></trkpt><trkpt lat="46.0211088" lon="13.2689841"><ele>81.0</ele><time>2026-03-22T09:38:38.301Z</time></trkpt><trkpt lat="46.0212483" lon="13.2688595"><ele>81.0</ele><time>2026-03-22T09:38:39.291Z</time></trkpt><trkpt lat="46.0213764" lon="13.2687048"><ele>81.0</ele><time>2026-03-22T09:38:40.295Z</time></trkpt><trkpt lat="46.0215057" lon="13.2685707"><ele>81.0</ele><time>2026-03-22T09:38:41.298Z</time></trkpt><trkpt lat="46.0216299" lon="13.2684705"><ele>81.5</ele><time>2026-03-22T09:38:42.313Z</time></trkpt><trkpt lat="46.0217569" lon="13.2684264"><ele>82.0</ele><time>2026-03-22T09:38:43.282Z</time></trkpt><trkpt lat="46.0218838" lon="13.2684344"><ele>82.5</ele><time>2026-03-22T09:38:44.298Z</time></trkpt><trkpt lat="46.0220046" lon="13.268482"><ele>83.0</ele><time>2026-03-22T09:38:45.31Z</time></trkpt><trkpt lat="46.0221131" lon="13.2685714"><ele>83.0</ele><time>2026-03-22T09:38:46.292Z</time></trkpt><trkpt lat="46.0221994" lon="13.2687119"><ele>83.0</ele><time>2026-03-22T09:38:47.31Z</time></trkpt><trkpt lat="46.022276" lon="13.2688764"><ele>83.0</ele><time>2026-03-22T09:38:48.323Z</time></trkpt><trkpt lat="46.0223497" lon="13.2690528"><ele>83.0</ele><time>2026-03-22T09:38:49.315Z</time></trkpt><trkpt lat="46.0224184" lon="13.2692285"><ele>83.5</ele><time>2026-03-22T09:38:50.306Z</time></trkpt><trkpt lat="46.0224897" lon="13.2693903"><ele>84.0</ele><time>2026-03-22T09:38:51.299Z</time></trkpt><trkpt lat="46.0225585" lon="13.2695413"><ele>84.5</ele><time>2026-03-22T09:38:52.282Z</time></trkpt><trkpt lat="46.0226135" lon="13.2696818"><ele>85.0</ele><time>2026-03-22T09:38:53.311Z</time></trkpt><trkpt lat="46.0226596" lon="13.2697938"><ele>85.0</ele><time>2026-03-22T09:38:54.3Z</time></trkpt><trkpt lat="46.0227089" lon="13.2698806"><ele>85.0</ele><time>2026-03-22T09:38:55.304Z</time></trkpt><trkpt lat="46.0227484" lon="13.2699726"><ele>85.0</ele><time>2026-03-22T09:38:56.305Z</time></trkpt><trkpt lat="46.0227821" lon="13.2700867"><ele>85.0</ele><time>2026-03-22T09:38:57.293Z</time></trkpt><trkpt lat="46.0228194" lon="13.2702268"><ele>85.0</ele><time>2026-03-22T09:38:58.291Z</time></trkpt><trkpt lat="46.0228596" lon="13.2703932"><ele>85.0</ele><time>2026-03-22T09:38:59.285Z</time></trkpt><trkpt lat="46.0228913" lon="13.270588"><ele>85.0</ele><time>2026-03-22T09:39:00.306Z</time></trkpt><trkpt lat="46.0229332" lon="13.2707991"><ele>85.0</ele><time>2026-03-22T09:39:01.291Z</time></trkpt><trkpt lat="46.0229944" lon="13.2710123"><ele>85.0</ele><time>2026-03-22T09:39:02.288Z</time></trkpt><trkpt lat="46.0230421" lon="13.2712381"><ele>85.0</ele><time>2026-03-22T09:39:03.298Z</time></trkpt><trkpt lat="46.0231048" lon="13.2714569"><ele>85.0</ele><time>2026-03-22T09:39:04.312Z</time></trkpt><trkpt lat="46.0231718" lon="13.2716689"><ele>85.0</ele><time>2026-03-22T09:39:05.292Z</time></trkpt><trkpt lat="46.0232427" lon="13.2718759"><ele>85.0</ele><time>2026-03-22T09:39:06.29Z</time></trkpt><trkpt lat="46.0233207" lon="13.2720794"><ele>85.0</ele><time>2026-03-22T09:39:07.297Z</time></trkpt><trkpt lat="46.0234049" lon="13.2722784"><ele>85.0</ele><time>2026-03-22T09:39:08.294Z</time></trkpt><trkpt lat="46.0235001" lon="13.2724629"><ele>85.0</ele><time>2026-03-22T09:39:09.287Z</time></trkpt><trkpt lat="46.0235859" lon="13.2726513"><ele>85.0</ele><time>2026-03-22T09:39:10.284Z</time></trkpt><trkpt lat="46.023663" lon="13.2728436"><ele>85.0</ele><time>2026-03-22T09:39:11.282Z</time></trkpt><trkpt lat="46.0237316" lon="13.2730427"><ele>85.0</ele><time>2026-03-22T09:39:12.278Z</time></trkpt><trkpt lat="46.0237925" lon="13.2732533"><ele>85.0</ele><time>2026-03-22T09:39:13.304Z</time></trkpt><trkpt lat="46.0238508" lon="13.2734737"><ele>84.66666666666666</ele><time>2026-03-22T09:39:14.291Z</time></trkpt><trkpt lat="46.0239088" lon="13.2737035"><ele>84.33333333333333</ele><time>2026-03-22T09:39:15.294Z</time></trkpt><trkpt lat="46.0239675" lon="13.2739394"><ele>84.0</ele><time>2026-03-22T09:39:16.299Z</time></trkpt><trkpt lat="46.0240279" lon="13.2741791"><ele>84.0</ele><time>2026-03-22T09:39:17.29Z</time></trkpt><trkpt lat="46.024092" lon="13.2744192"><ele>84.0</ele><time>2026-03-22T09:39:18.308Z</time></trkpt><trkpt lat="46.0241519" lon="13.2746612"><ele>84.0</ele><time>2026-03-22T09:39:19.302Z</time></trkpt><trkpt lat="46.0242167" lon="13.2748935"><ele>84.33333333333333</ele><time>2026-03-22T09:39:20.291Z</time></trkpt><trkpt lat="46.0242685" lon="13.2751306"><ele>84.66666666666666</ele><time>2026-03-22T09:39:21.308Z</time></trkpt><trkpt lat="46.024325" lon="13.2753598"><ele>85.0</ele><time>2026-03-22T09:39:22.288Z</time></trkpt><trkpt lat="46.02438" lon="13.2755876"><ele>85.0</ele><time>2026-03-22T09:39:23.305Z</time></trkpt><trkpt lat="46.0244354" lon="13.2758158"><ele>85.0</ele><time>2026-03-22T09:39:24.304Z</time></trkpt><trkpt lat="46.0244958" lon="13.2760409"><ele>85.0</ele><time>2026-03-22T09:39:25.304Z</time></trkpt><trkpt lat="46.0245554" lon="13.2762639"><ele>85.0</ele><time>2026-03-22T09:39:26.29Z</time></trkpt><trkpt lat="46.0246162" lon="13.2764827"><ele>85.0</ele><time>2026-03-22T09:39:27.312Z</time></trkpt><trkpt lat="46.0246763" lon="13.2766999"><ele>85.0</ele><time>2026-03-22T09:39:28.302Z</time></trkpt><trkpt lat="46.0247392" lon="13.2769157"><ele>85.0</ele><time>2026-03-22T09:39:29.287Z</time></trkpt><trkpt lat="46.0248046" lon="13.2771324"><ele>85.0</ele><time>2026-03-22T09:39:30.285Z</time></trkpt><trkpt lat="46.0248696" lon="13.2773519"><ele>85.0</ele><time>2026-03-22T09:39:31.312Z</time></trkpt><trkpt lat="46.0249357" lon="13.2775723"><ele>85.33333333333333</ele><time>2026-03-22T09:39:32.291Z</time></trkpt><trkpt lat="46.0250039" lon="13.277794"><ele>85.66666666666667</ele><time>2026-03-22T09:39:33.302Z</time></trkpt><trkpt lat="46.0250759" lon="13.2780127"><ele>86.0</ele><time>2026-03-22T09:39:34.28Z</time></trkpt><trkpt lat="46.0251497" lon="13.2782285"><ele>86.0</ele><time>2026-03-22T09:39:35.293Z</time></trkpt><trkpt lat="46.0252215" lon="13.2784443"><ele>86.0</ele><time>2026-03-22T09:39:36.283Z</time></trkpt><trkpt lat="46.0253165" lon="13.2786421"><ele>86.0</ele><time>2026-03-22T09:39:37.308Z</time></trkpt><trkpt lat="46.0254118" lon="13.2788444"><ele>86.66666666666667</ele><time>2026-03-22T09:39:38.284Z</time></trkpt><trkpt lat="46.0255232" lon="13.2790319"><ele>87.33333333333333</ele><time>2026-03-22T09:39:39.304Z</time></trkpt><trkpt lat="46.0256384" lon="13.2792211"><ele>88.0</ele><time>2026-03-22T09:39:40.3Z</time></trkpt><trkpt lat="46.0257569" lon="13.2794076"><ele>86.33333333333333</ele><time>2026-03-22T09:39:41.309Z</time></trkpt><trkpt lat="46.0258785" lon="13.2795919"><ele>84.66666666666667</ele><time>2026-03-22T09:39:42.296Z</time></trkpt><trkpt lat="46.0260001" lon="13.2797822"><ele>83.0</ele><time>2026-03-22T09:39:43.301Z</time></trkpt><trkpt lat="46.0261199" lon="13.2799779"><ele>83.0</ele><time>2026-03-22T09:39:44.303Z</time></trkpt><trkpt lat="46.026238" lon="13.2801751"><ele>83.0</ele><time>2026-03-22T09:39:45.308Z</time></trkpt><trkpt lat="46.0263542" lon="13.2803734"><ele>83.0</ele><time>2026-03-22T09:39:46.312Z</time></trkpt><trkpt lat="46.0264665" lon="13.2805737"><ele>83.66666666666667</ele><time>2026-03-22T09:39:47.291Z</time></trkpt><trkpt lat="46.0265773" lon="13.2807755"><ele>84.33333333333333</ele><time>2026-03-22T09:39:48.29Z</time></trkpt><trkpt lat="46.0266993" lon="13.280967"><ele>85.0</ele><time>2026-03-22T09:39:49.285Z</time></trkpt><trkpt lat="46.0268156" lon="13.2811628"><ele>85.33333333333333</ele><time>2026-03-22T09:39:50.31Z</time></trkpt><trkpt lat="46.0269362" lon="13.2813497"><ele>85.66666666666667</ele><time>2026-03-22T09:39:51.31Z</time></trkpt><trkpt lat="46.0270634" lon="13.2815238"><ele>86.0</ele><time>2026-03-22T09:39:52.296Z</time></trkpt><trkpt lat="46.027204" lon="13.2816802"><ele>86.0</ele><time>2026-03-22T09:39:53.302Z</time></trkpt><trkpt lat="46.0273533" lon="13.281823"><ele>86.0</ele><time>2026-03-22T09:39:54.29Z</time></trkpt><trkpt lat="46.0275128" lon="13.2819441"><ele>86.0</ele><time>2026-03-22T09:39:55.312Z</time></trkpt><trkpt lat="46.0276799" lon="13.2820544"><ele>86.0</ele><time>2026-03-22T09:39:56.299Z</time></trkpt><trkpt lat="46.0278397" lon="13.2821926"><ele>86.0</ele><time>2026-03-22T09:39:57.296Z</time></trkpt><trkpt lat="46.0279999" lon="13.282341"><ele>86.0</ele><time>2026-03-22T09:39:58.298Z</time></trkpt><trkpt lat="46.0281631" lon="13.282494"><ele>86.66666666666667</ele><time>2026-03-22T09:39:59.303Z</time></trkpt><trkpt lat="46.0283282" lon="13.2826498"><ele>87.33333333333333</ele><time>2026-03-22T09:40:00.288Z</time></trkpt><trkpt lat="46.0284956" lon="13.2828022"><ele>88.0</ele><time>2026-03-22T09:40:01.31Z</time></trkpt><trkpt lat="46.0286627" lon="13.282955"><ele>87.66666666666666</ele><time>2026-03-22T09:40:02.283Z</time></trkpt><trkpt lat="46.0288298" lon="13.2831086"><ele>87.33333333333333</ele><time>2026-03-22T09:40:03.304Z</time></trkpt><trkpt lat="46.0289979" lon="13.2832624"><ele>87.0</ele><time>2026-03-22T09:40:04.283Z</time></trkpt><trkpt lat="46.0291665" lon="13.2834172"><ele>86.66666666666667</ele><time>2026-03-22T09:40:05.309Z</time></trkpt><trkpt lat="46.0293353" lon="13.2835694"><ele>86.33333333333334</ele><time>2026-03-22T09:40:06.298Z</time></trkpt><trkpt lat="46.0295035" lon="13.283722"><ele>86.0</ele><time>2026-03-22T09:40:07.296Z</time></trkpt><trkpt lat="46.0296755" lon="13.2838671"><ele>85.66666666666667</ele><time>2026-03-22T09:40:08.297Z</time></trkpt><trkpt lat="46.0298447" lon="13.28403"><ele>85.33333333333333</ele><time>2026-03-22T09:40:09.289Z</time></trkpt><trkpt lat="46.0300193" lon="13.2841906"><ele>85.0</ele><time>2026-03-22T09:40:10.297Z</time></trkpt><trkpt lat="46.0301965" lon="13.2843531"><ele>85.33333333333333</ele><time>2026-03-22T09:40:11.286Z</time></trkpt><trkpt lat="46.030373" lon="13.2845204"><ele>85.66666666666667</ele><time>2026-03-22T09:40:12.3Z</time></trkpt><trkpt lat="46.0305538" lon="13.2846763"><ele>86.0</ele><time>2026-03-22T09:40:13.307Z</time></trkpt><trkpt lat="46.0307281" lon="13.2848425"><ele>86.66666666666667</ele><time>2026-03-22T09:40:14.291Z</time></trkpt><trkpt lat="46.0309044" lon="13.284998"><ele>87.33333333333333</ele><time>2026-03-22T09:40:15.288Z</time></trkpt><trkpt lat="46.0310772" lon="13.285153"><ele>88.0</ele><time>2026-03-22T09:40:16.302Z</time></trkpt><trkpt lat="46.0312448" lon="13.2853139"><ele>88.0</ele><time>2026-03-22T09:40:17.305Z</time></trkpt><trkpt lat="46.0314139" lon="13.2854695"><ele>88.0</ele><time>2026-03-22T09:40:18.296Z</time></trkpt><trkpt lat="46.0315843" lon="13.285622"><ele>88.0</ele><time>2026-03-22T09:40:19.299Z</time></trkpt><trkpt lat="46.0317557" lon="13.2857727"><ele>88.0</ele><time>2026-03-22T09:40:20.291Z</time></trkpt><trkpt lat="46.0319271" lon="13.2859225"><ele>88.0</ele><time>2026-03-22T09:40:21.32Z</time></trkpt><trkpt lat="46.0320884" lon="13.2860932"><ele>88.0</ele><time>2026-03-22T09:40:22.294Z</time></trkpt><trkpt lat="46.0322396" lon="13.2862826"><ele>88.0</ele><time>2026-03-22T09:40:23.326Z</time></trkpt><trkpt lat="46.0323857" lon="13.2864852"><ele>88.0</ele><time>2026-03-22T09:40:24.297Z</time></trkpt><trkpt lat="46.0325314" lon="13.2866937"><ele>88.0</ele><time>2026-03-22T09:40:25.29Z</time></trkpt><trkpt lat="46.0326793" lon="13.2869078"><ele>87.66666666666666</ele><time>2026-03-22T09:40:26.287Z</time></trkpt><trkpt lat="46.0328266" lon="13.2871317"><ele>87.33333333333333</ele><time>2026-03-22T09:40:27.307Z</time></trkpt><trkpt lat="46.0329825" lon="13.2873463"><ele>87.0</ele><time>2026-03-22T09:40:28.32Z</time></trkpt><trkpt lat="46.0331363" lon="13.2875615"><ele>86.66666666666667</ele><time>2026-03-22T09:40:29.302Z</time></trkpt><trkpt lat="46.0332817" lon="13.2877812"><ele>86.33333333333334</ele><time>2026-03-22T09:40:30.316Z</time></trkpt><trkpt lat="46.0334247" lon="13.2879972"><ele>86.0</ele><time>2026-03-22T09:40:31.311Z</time></trkpt><trkpt lat="46.033556" lon="13.2882193"><ele>86.66666666666667</ele><time>2026-03-22T09:40:32.286Z</time></trkpt><trkpt lat="46.0336889" lon="13.2884228"><ele>87.33333333333333</ele><time>2026-03-22T09:40:33.311Z</time></trkpt><trkpt lat="46.0338199" lon="13.28862"><ele>88.0</ele><time>2026-03-22T09:40:34.3Z</time></trkpt><trkpt lat="46.033948" lon="13.2888202"><ele>88.0</ele><time>2026-03-22T09:40:35.331Z</time></trkpt><trkpt lat="46.0340772" lon="13.2890164"><ele>88.0</ele><time>2026-03-22T09:40:36.312Z</time></trkpt><trkpt lat="46.0342076" lon="13.2892097"><ele>88.0</ele><time>2026-03-22T09:40:37.31Z</time></trkpt><trkpt lat="46.0343389" lon="13.2894011"><ele>88.0</ele><time>2026-03-22T09:40:38.285Z</time></trkpt><trkpt lat="46.0344714" lon="13.2895915"><ele>88.0</ele><time>2026-03-22T09:40:39.299Z</time></trkpt><trkpt lat="46.0346046" lon="13.2897821"><ele>88.0</ele><time>2026-03-22T09:40:40.3Z</time></trkpt><trkpt lat="46.034738" lon="13.2899753"><ele>88.0</ele><time>2026-03-22T09:40:41.292Z</time></trkpt><trkpt lat="46.0348668" lon="13.2901782"><ele>88.0</ele><time>2026-03-22T09:40:42.284Z</time></trkpt><trkpt lat="46.0349988" lon="13.2903788"><ele>88.0</ele><time>2026-03-22T09:40:43.302Z</time></trkpt><trkpt lat="46.0351321" lon="13.2905808"><ele>88.0</ele><time>2026-03-22T09:40:44.284Z</time></trkpt><trkpt lat="46.0352674" lon="13.2907803"><ele>88.0</ele><time>2026-03-22T09:40:45.296Z</time></trkpt><trkpt lat="46.0354031" lon="13.2909797"><ele>88.0</ele><time>2026-03-22T09:40:46.28Z</time></trkpt><trkpt lat="46.0355396" lon="13.2911755"><ele>88.0</ele><time>2026-03-22T09:40:47.298Z</time></trkpt><trkpt lat="46.0356761" lon="13.2913675"><ele>88.0</ele><time>2026-03-22T09:40:48.294Z</time></trkpt><trkpt lat="46.0358173" lon="13.2915503"><ele>88.0</ele><time>2026-03-22T09:40:49.297Z</time></trkpt><trkpt lat="46.0359519" lon="13.2917382"><ele>88.0</ele><time>2026-03-22T09:40:50.297Z</time></trkpt><trkpt lat="46.0360796" lon="13.2919245"><ele>88.0</ele><time>2026-03-22T09:40:51.286Z</time></trkpt><trkpt lat="46.0362022" lon="13.292098"><ele>88.0</ele><time>2026-03-22T09:40:52.288Z</time></trkpt><trkpt lat="46.0363167" lon="13.2922598"><ele>88.0</ele><time>2026-03-22T09:40:53.31Z</time></trkpt><trkpt lat="46.0364197" lon="13.2924094"><ele>88.0</ele><time>2026-03-22T09:40:54.293Z</time></trkpt><trkpt lat="46.0365035" lon="13.2925353"><ele>88.0</ele><time>2026-03-22T09:40:55.298Z</time></trkpt><trkpt lat="46.0365684" lon="13.2926231"><ele>88.0</ele><time>2026-03-22T09:40:56.292Z</time></trkpt><trkpt lat="46.0366113" lon="13.2927158"><ele>88.0</ele><time>2026-03-22T09:40:57.291Z</time></trkpt><trkpt lat="46.0366541" lon="13.2928073"><ele>88.2</ele><time>2026-03-22T09:40:58.31Z</time></trkpt><trkpt lat="46.036675" lon="13.2929284"><ele>88.4</ele><time>2026-03-22T09:40:59.311Z</time></trkpt><trkpt lat="46.0366797" lon="13.2930733"><ele>88.60000000000001</ele><time>2026-03-22T09:41:00.292Z</time></trkpt><trkpt lat="46.0366802" lon="13.2932274"><ele>88.80000000000001</ele><time>2026-03-22T09:41:01.287Z</time></trkpt><trkpt lat="46.0367038" lon="13.2933795"><ele>89.0</ele><time>2026-03-22T09:41:02.281Z</time></trkpt><trkpt lat="46.03676" lon="13.2935205"><ele>89.0</ele><time>2026-03-22T09:41:03.301Z</time></trkpt><trkpt lat="46.0368475" lon="13.2936378"><ele>89.0</ele><time>2026-03-22T09:41:04.292Z</time></trkpt><trkpt lat="46.0369584" lon="13.2937031"><ele>89.0</ele><time>2026-03-22T09:41:05.307Z</time></trkpt><trkpt lat="46.0370715" lon="13.2937243"><ele>89.0</ele><time>2026-03-22T09:41:06.307Z</time></trkpt><trkpt lat="46.0371844" lon="13.2937459"><ele>89.0</ele><time>2026-03-22T09:41:07.3Z</time></trkpt><trkpt lat="46.0372958" lon="13.293806"><ele>89.0</ele><time>2026-03-22T09:41:08.281Z</time></trkpt><trkpt lat="46.0374108" lon="13.2939071"><ele>89.0</ele><time>2026-03-22T09:41:09.307Z</time></trkpt><trkpt lat="46.0374989" lon="13.2940909"><ele>89.0</ele><time>2026-03-22T09:41:10.295Z</time></trkpt><trkpt lat="46.037583" lon="13.2942741"><ele>88.66666666666667</ele><time>2026-03-22T09:41:11.308Z</time></trkpt><trkpt lat="46.0376721" lon="13.294454"><ele>88.33333333333333</ele><time>2026-03-22T09:41:12.284Z</time></trkpt><trkpt lat="46.0377656" lon="13.2946398"><ele>88.0</ele><time>2026-03-22T09:41:13.298Z</time></trkpt><trkpt lat="46.0378596" lon="13.2948384"><ele>87.66666666666666</ele><time>2026-03-22T09:41:14.302Z</time></trkpt><trkpt lat="46.0379596" lon="13.2950517"><ele>87.33333333333333</ele><time>2026-03-22T09:41:15.29Z</time></trkpt><trkpt lat="46.0380684" lon="13.2952845"><ele>87.0</ele><time>2026-03-22T09:41:16.303Z</time></trkpt><trkpt lat="46.0381755" lon="13.2955355"><ele>87.33333333333333</ele><time>2026-03-22T09:41:17.304Z</time></trkpt><trkpt lat="46.0382867" lon="13.2957847"><ele>87.66666666666666</ele><time>2026-03-22T09:41:18.295Z</time></trkpt><trkpt lat="46.0383943" lon="13.2960356"><ele>88.0</ele><time>2026-03-22T09:41:19.293Z</time></trkpt><trkpt lat="46.0384952" lon="13.2962857"><ele>89.33333333333333</ele><time>2026-03-22T09:41:20.287Z</time></trkpt><trkpt lat="46.0386032" lon="13.2965139"><ele>90.66666666666667</ele><time>2026-03-22T09:41:21.303Z</time></trkpt><trkpt lat="46.0387002" lon="13.296737"><ele>92.0</ele><time>2026-03-22T09:41:22.288Z</time></trkpt><trkpt lat="46.0387932" lon="13.2969536"><ele>92.0</ele><time>2026-03-22T09:41:23.293Z</time></trkpt><trkpt lat="46.0388832" lon="13.2971624"><ele>92.0</ele><time>2026-03-22T09:41:24.295Z</time></trkpt><trkpt lat="46.0389701" lon="13.2973658"><ele>92.0</ele><time>2026-03-22T09:41:25.3Z</time></trkpt><trkpt lat="46.0390547" lon="13.2975636"><ele>91.33333333333334</ele><time>2026-03-22T09:41:26.283Z</time></trkpt><trkpt lat="46.0391366" lon="13.2977587"><ele>90.66666666666667</ele><time>2026-03-22T09:41:27.292Z</time></trkpt><trkpt lat="46.0391999" lon="13.297966"><ele>90.0</ele><time>2026-03-22T09:41:28.282Z</time></trkpt><trkpt lat="46.0392645" lon="13.298171"><ele>89.66666666666667</ele><time>2026-03-22T09:41:29.303Z</time></trkpt><trkpt lat="46.0393298" lon="13.2983734"><ele>89.33333333333334</ele><time>2026-03-22T09:41:30.289Z</time></trkpt><trkpt lat="46.0393984" lon="13.2985708"><ele>89.0</ele><time>2026-03-22T09:41:31.292Z</time></trkpt><trkpt lat="46.0394649" lon="13.2987705"><ele>88.33333333333334</ele><time>2026-03-22T09:41:32.3Z</time></trkpt><trkpt lat="46.0395278" lon="13.298977"><ele>87.66666666666667</ele><time>2026-03-22T09:41:33.274Z</time></trkpt><trkpt lat="46.0395957" lon="13.2991839"><ele>87.0</ele><time>2026-03-22T09:41:34.285Z</time></trkpt><trkpt lat="46.0396539" lon="13.2994042"><ele>87.0</ele><time>2026-03-22T09:41:35.299Z</time></trkpt><trkpt lat="46.039699" lon="13.2996399"><ele>87.0</ele><time>2026-03-22T09:41:36.287Z</time></trkpt><trkpt lat="46.0397347" lon="13.2998818"><ele>87.0</ele><time>2026-03-22T09:41:37.281Z</time></trkpt><trkpt lat="46.0397639" lon="13.3001258"><ele>87.0</ele><time>2026-03-22T09:41:38.303Z</time></trkpt><trkpt lat="46.0397943" lon="13.3003736"><ele>87.0</ele><time>2026-03-22T09:41:39.297Z</time></trkpt><trkpt lat="46.0398268" lon="13.3006241"><ele>87.0</ele><time>2026-03-22T09:41:40.282Z</time></trkpt><trkpt lat="46.0398642" lon="13.3008749"><ele>87.0</ele><time>2026-03-22T09:41:41.289Z</time></trkpt><trkpt lat="46.0399045" lon="13.3011263"><ele>87.0</ele><time>2026-03-22T09:41:42.282Z</time></trkpt><trkpt lat="46.0399394" lon="13.3013806"><ele>87.0</ele><time>2026-03-22T09:41:43.287Z</time></trkpt><trkpt lat="46.0399746" lon="13.3016353"><ele>87.0</ele><time>2026-03-22T09:41:44.291Z</time></trkpt><trkpt lat="46.0400101" lon="13.3018891"><ele>87.0</ele><time>2026-03-22T09:41:45.28Z</time></trkpt><trkpt lat="46.0400469" lon="13.302141"><ele>87.0</ele><time>2026-03-22T09:41:46.284Z</time></trkpt><trkpt lat="46.0400856" lon="13.3023915"><ele>87.0</ele><time>2026-03-22T09:41:47.295Z</time></trkpt><trkpt lat="46.0401285" lon="13.3026388"><ele>87.0</ele><time>2026-03-22T09:41:48.287Z</time></trkpt><trkpt lat="46.0401705" lon="13.3028831"><ele>87.0</ele><time>2026-03-22T09:41:49.291Z</time></trkpt><trkpt lat="46.0402049" lon="13.3031263"><ele>87.0</ele><time>2026-03-22T09:41:50.279Z</time></trkpt><trkpt lat="46.040236" lon="13.3033683"><ele>87.0</ele><time>2026-03-22T09:41:51.288Z</time></trkpt><trkpt lat="46.0402693" lon="13.3036093"><ele>87.0</ele><time>2026-03-22T09:41:52.286Z</time></trkpt><trkpt lat="46.0402972" lon="13.3038498"><ele>87.0</ele><time>2026-03-22T09:41:53.286Z</time></trkpt><trkpt lat="46.040321" lon="13.3040869"><ele>87.0</ele><time>2026-03-22T09:41:54.285Z</time></trkpt><trkpt lat="46.0403444" lon="13.3043162"><ele>87.0</ele><time>2026-03-22T09:41:55.285Z</time></trkpt><trkpt lat="46.0403617" lon="13.3045376"><ele>87.0</ele><time>2026-03-22T09:41:56.288Z</time></trkpt><trkpt lat="46.0403769" lon="13.3047517"><ele>87.0</ele><time>2026-03-22T09:41:57.305Z</time></trkpt><trkpt lat="46.0403946" lon="13.3049579"><ele>87.0</ele><time>2026-03-22T09:41:58.292Z</time></trkpt><trkpt lat="46.0404137" lon="13.3051574"><ele>87.0</ele><time>2026-03-22T09:41:59.289Z</time></trkpt><trkpt lat="46.0404331" lon="13.3053493"><ele>87.0</ele><time>2026-03-22T09:42:00.293Z</time></trkpt><trkpt lat="46.0404525" lon="13.3055329"><ele>87.0</ele><time>2026-03-22T09:42:01.298Z</time></trkpt><trkpt lat="46.0404472" lon="13.3057091"><ele>87.0</ele><time>2026-03-22T09:42:02.298Z</time></trkpt><trkpt lat="46.0404738" lon="13.3058497"><ele>87.0</ele><time>2026-03-22T09:42:03.28Z</time></trkpt><trkpt lat="46.0404826" lon="13.3059524"><ele>87.0</ele><time>2026-03-22T09:42:04.282Z</time></trkpt><trkpt lat="46.0404964" lon="13.3061127"><ele>87.0</ele><time>2026-03-22T09:42:06.276Z</time></trkpt><trkpt lat="46.040499" lon="13.3062123"><ele>87.0</ele><time>2026-03-22T09:42:07.3Z</time></trkpt><trkpt lat="46.0405012" lon="13.3063322"><ele>87.0</ele><time>2026-03-22T09:42:08.281Z</time></trkpt><trkpt lat="46.0405216" lon="13.3064885"><ele>87.0</ele><time>2026-03-22T09:42:09.31Z</time></trkpt><trkpt lat="46.0405906" lon="13.3066788"><ele>87.0</ele><time>2026-03-22T09:42:10.283Z</time></trkpt><trkpt lat="46.0406603" lon="13.3069011"><ele>87.0</ele><time>2026-03-22T09:42:11.285Z</time></trkpt><trkpt lat="46.0407275" lon="13.3071578"><ele>87.0</ele><time>2026-03-22T09:42:12.296Z</time></trkpt><trkpt lat="46.0407889" lon="13.3074333"><ele>87.0</ele><time>2026-03-22T09:42:13.28Z</time></trkpt><trkpt lat="46.0408543" lon="13.3076976"><ele>87.0</ele><time>2026-03-22T09:42:14.285Z</time></trkpt><trkpt lat="46.0409096" lon="13.3079505"><ele>87.0</ele><time>2026-03-22T09:42:15.295Z</time></trkpt><trkpt lat="46.0409616" lon="13.3081973"><ele>87.0</ele><time>2026-03-22T09:42:16.295Z</time></trkpt><trkpt lat="46.0410283" lon="13.3084368"><ele>87.33333333333333</ele><time>2026-03-22T09:42:17.292Z</time></trkpt><trkpt lat="46.0411081" lon="13.3086694"><ele>87.66666666666666</ele><time>2026-03-22T09:42:18.278Z</time></trkpt><trkpt lat="46.0411819" lon="13.3089026"><ele>88.0</ele><time>2026-03-22T09:42:19.297Z</time></trkpt><trkpt lat="46.0412685" lon="13.3091242"><ele>88.0</ele><time>2026-03-22T09:42:20.292Z</time></trkpt><trkpt lat="46.041362" lon="13.3093323"><ele>88.0</ele><time>2026-03-22T09:42:21.294Z</time></trkpt><trkpt lat="46.0414634" lon="13.3095321"><ele>88.0</ele><time>2026-03-22T09:42:22.281Z</time></trkpt><trkpt lat="46.0415804" lon="13.3097097"><ele>87.66666666666666</ele><time>2026-03-22T09:42:23.307Z</time></trkpt><trkpt lat="46.0417226" lon="13.3098508"><ele>87.33333333333333</ele><time>2026-03-22T09:42:24.279Z</time></trkpt><trkpt lat="46.0418668" lon="13.3099742"><ele>87.0</ele><time>2026-03-22T09:42:25.293Z</time></trkpt><trkpt lat="46.0420148" lon="13.3100849"><ele>87.0</ele><time>2026-03-22T09:42:26.289Z</time></trkpt><trkpt lat="46.0421657" lon="13.3101777"><ele>87.0</ele><time>2026-03-22T09:42:27.289Z</time></trkpt><trkpt lat="46.0423182" lon="13.3102611"><ele>87.0</ele><time>2026-03-22T09:42:28.309Z</time></trkpt><trkpt lat="46.0424672" lon="13.3103565"><ele>86.0</ele><time>2026-03-22T09:42:29.314Z</time></trkpt><trkpt lat="46.0426188" lon="13.3104439"><ele>85.0</ele><time>2026-03-22T09:42:30.29Z</time></trkpt><trkpt lat="46.0427705" lon="13.3105317"><ele>84.0</ele><time>2026-03-22T09:42:31.312Z</time></trkpt><trkpt lat="46.0429213" lon="13.3106185"><ele>84.0</ele><time>2026-03-22T09:42:32.29Z</time></trkpt><trkpt lat="46.0430689" lon="13.3107044"><ele>84.0</ele><time>2026-03-22T09:42:33.31Z</time></trkpt><trkpt lat="46.0432103" lon="13.3107851"><ele>84.0</ele><time>2026-03-22T09:42:34.3Z</time></trkpt><trkpt lat="46.0433489" lon="13.3108541"><ele>84.5</ele><time>2026-03-22T09:42:35.3Z</time></trkpt><trkpt lat="46.0434798" lon="13.3109252"><ele>85.0</ele><time>2026-03-22T09:42:36.288Z</time></trkpt><trkpt lat="46.0436072" lon="13.3109811"><ele>85.5</ele><time>2026-03-22T09:42:37.324Z</time></trkpt><trkpt lat="46.043731" lon="13.3110415"><ele>86.0</ele><time>2026-03-22T09:42:38.313Z</time></trkpt><trkpt lat="46.0438482" lon="13.3111013"><ele>86.0</ele><time>2026-03-22T09:42:39.287Z</time></trkpt><trkpt lat="46.0439551" lon="13.3111616"><ele>86.0</ele><time>2026-03-22T09:42:40.306Z</time></trkpt><trkpt lat="46.0440512" lon="13.3112301"><ele>86.0</ele><time>2026-03-22T09:42:41.288Z</time></trkpt><trkpt lat="46.0441518" lon="13.3112917"><ele>86.0</ele><time>2026-03-22T09:42:42.305Z</time></trkpt><trkpt lat="46.044253" lon="13.3113756"><ele>86.0</ele><time>2026-03-22T09:42:43.291Z</time></trkpt><trkpt lat="46.0443445" lon="13.3115054"><ele>86.5</ele><time>2026-03-22T09:42:44.29Z</time></trkpt><trkpt lat="46.0444153" lon="13.3116735"><ele>87.0</ele><time>2026-03-22T09:42:45.3Z</time></trkpt><trkpt lat="46.0444759" lon="13.3118582"><ele>87.5</ele><time>2026-03-22T09:42:46.29Z</time></trkpt><trkpt lat="46.0445387" lon="13.312045"><ele>88.0</ele><time>2026-03-22T09:42:47.292Z</time></trkpt><trkpt lat="46.0446026" lon="13.3122279"><ele>87.5</ele><time>2026-03-22T09:42:48.299Z</time></trkpt><trkpt lat="46.0446645" lon="13.3124003"><ele>87.0</ele><time>2026-03-22T09:42:49.306Z</time></trkpt><trkpt lat="46.0447289" lon="13.312557"><ele>86.5</ele><time>2026-03-22T09:42:50.296Z</time></trkpt><trkpt lat="46.0447819" lon="13.3127151"><ele>86.0</ele><time>2026-03-22T09:42:51.319Z</time></trkpt><trkpt lat="46.0448229" lon="13.3128796"><ele>86.0</ele><time>2026-03-22T09:42:52.289Z</time></trkpt><trkpt lat="46.0448095" lon="13.31307"><ele>86.0</ele><time>2026-03-22T09:42:53.304Z</time></trkpt><trkpt lat="46.0448154" lon="13.3132835"><ele>86.0</ele><time>2026-03-22T09:42:54.297Z</time></trkpt><trkpt lat="46.0447579" lon="13.3135016"><ele>86.0</ele><time>2026-03-22T09:42:55.299Z</time></trkpt><trkpt lat="46.0447333" lon="13.3137402"><ele>86.33333333333334</ele><time>2026-03-22T09:42:56.302Z</time></trkpt><trkpt lat="46.0446996" lon="13.3139716"><ele>86.66666666666667</ele><time>2026-03-22T09:42:57.303Z</time></trkpt><trkpt lat="46.0446496" lon="13.3141931"><ele>87.0</ele><time>2026-03-22T09:42:58.28Z</time></trkpt><trkpt lat="46.0445805" lon="13.314404"><ele>87.0</ele><time>2026-03-22T09:42:59.31Z</time></trkpt><trkpt lat="46.0444851" lon="13.3145932"><ele>87.0</ele><time>2026-03-22T09:43:00.281Z</time></trkpt><trkpt lat="46.0443979" lon="13.3147871"><ele>87.0</ele><time>2026-03-22T09:43:01.29Z</time></trkpt><trkpt lat="46.044319" lon="13.3149923"><ele>87.0</ele><time>2026-03-22T09:43:02.302Z</time></trkpt><trkpt lat="46.044244" lon="13.3152099"><ele>87.0</ele><time>2026-03-22T09:43:03.291Z</time></trkpt><trkpt lat="46.0441764" lon="13.3154507"><ele>87.0</ele><time>2026-03-22T09:43:04.299Z</time></trkpt><trkpt lat="46.0441081" lon="13.315711"><ele>87.0</ele><time>2026-03-22T09:43:05.282Z</time></trkpt><trkpt lat="46.0440485" lon="13.3159771"><ele>87.0</ele><time>2026-03-22T09:43:06.289Z</time></trkpt><trkpt lat="46.0439805" lon="13.3162234"><ele>87.0</ele><time>2026-03-22T09:43:07.299Z</time></trkpt><trkpt lat="46.043921" lon="13.3164505"><ele>87.0</ele><time>2026-03-22T09:43:08.283Z</time></trkpt><trkpt lat="46.0438699" lon="13.3166649"><ele>87.0</ele><time>2026-03-22T09:43:09.292Z</time></trkpt><trkpt lat="46.0438259" lon="13.3168599"><ele>87.0</ele><time>2026-03-22T09:43:10.302Z</time></trkpt><trkpt lat="46.0438125" lon="13.3170479"><ele>87.0</ele><time>2026-03-22T09:43:11.285Z</time></trkpt><trkpt lat="46.0437855" lon="13.3172282"><ele>86.6</ele><time>2026-03-22T09:43:12.299Z</time></trkpt><trkpt lat="46.0437738" lon="13.3174041"><ele>86.19999999999999</ele><time>2026-03-22T09:43:13.289Z</time></trkpt><trkpt lat="46.0437387" lon="13.3175603"><ele>85.8</ele><time>2026-03-22T09:43:14.292Z</time></trkpt><trkpt lat="46.0437085" lon="13.3177125"><ele>85.4</ele><time>2026-03-22T09:43:15.301Z</time></trkpt><trkpt lat="46.0436724" lon="13.3178496"><ele>85.0</ele><time>2026-03-22T09:43:16.285Z</time></trkpt><trkpt lat="46.0436275" lon="13.3179701"><ele>85.4</ele><time>2026-03-22T09:43:17.302Z</time></trkpt><trkpt lat="46.0435648" lon="13.3180736"><ele>85.8</ele><time>2026-03-22T09:43:18.288Z</time></trkpt><trkpt lat="46.0434851" lon="13.3181487"><ele>86.19999999999999</ele><time>2026-03-22T09:43:19.311Z</time></trkpt><trkpt lat="46.0433995" lon="13.3182409"><ele>86.6</ele><time>2026-03-22T09:43:20.294Z</time></trkpt><trkpt lat="46.0433033" lon="13.3183258"><ele>87.0</ele><time>2026-03-22T09:43:21.312Z</time></trkpt><trkpt lat="46.0432015" lon="13.3184199"><ele>87.0</ele><time>2026-03-22T09:43:22.305Z</time></trkpt><trkpt lat="46.0431019" lon="13.318546"><ele>87.0</ele><time>2026-03-22T09:43:23.291Z</time></trkpt><trkpt lat="46.0429938" lon="13.3186845"><ele>87.0</ele><time>2026-03-22T09:43:24.286Z</time></trkpt><trkpt lat="46.0428823" lon="13.3188606"><ele>87.0</ele><time>2026-03-22T09:43:25.29Z</time></trkpt><trkpt lat="46.0427769" lon="13.3190099"><ele>86.25</ele><time>2026-03-22T09:43:26.303Z</time></trkpt><trkpt lat="46.0426903" lon="13.3191682"><ele>85.5</ele><time>2026-03-22T09:43:27.302Z</time></trkpt><trkpt lat="46.0426054" lon="13.3193113"><ele>84.75</ele><time>2026-03-22T09:43:28.293Z</time></trkpt><trkpt lat="46.0425417" lon="13.3194629"><ele>84.0</ele><time>2026-03-22T09:43:29.303Z</time></trkpt><trkpt lat="46.0425117" lon="13.3196472"><ele>83.75</ele><time>2026-03-22T09:43:30.29Z</time></trkpt><trkpt lat="46.0424944" lon="13.3198491"><ele>83.5</ele><time>2026-03-22T09:43:31.301Z</time></trkpt><trkpt lat="46.0424991" lon="13.320068"><ele>83.25</ele><time>2026-03-22T09:43:32.312Z</time></trkpt><trkpt lat="46.0425145" lon="13.3202906"><ele>83.0</ele><time>2026-03-22T09:43:33.306Z</time></trkpt><trkpt lat="46.0425346" lon="13.3205062"><ele>83.25</ele><time>2026-03-22T09:43:34.304Z</time></trkpt><trkpt lat="46.0425567" lon="13.3207103"><ele>83.5</ele><time>2026-03-22T09:43:35.296Z</time></trkpt><trkpt lat="46.042572" lon="13.3209017"><ele>83.75</ele><time>2026-03-22T09:43:36.287Z</time></trkpt><trkpt lat="46.0426059" lon="13.3210797"><ele>84.0</ele><time>2026-03-22T09:43:37.311Z</time></trkpt><trkpt lat="46.0426442" lon="13.3212523"><ele>83.25</ele><time>2026-03-22T09:43:38.29Z</time></trkpt><trkpt lat="46.0426905" lon="13.321426"><ele>82.5</ele><time>2026-03-22T09:43:39.306Z</time></trkpt><trkpt lat="46.0427564" lon="13.3215993"><ele>81.75</ele><time>2026-03-22T09:43:40.301Z</time></trkpt><trkpt lat="46.0428297" lon="13.3217768"><ele>81.0</ele><time>2026-03-22T09:43:41.307Z</time></trkpt><trkpt lat="46.0429116" lon="13.3219583"><ele>81.0</ele><time>2026-03-22T09:43:42.28Z</time></trkpt><trkpt lat="46.0429966" lon="13.3221438"><ele>81.0</ele><time>2026-03-22T09:43:43.299Z</time></trkpt><trkpt lat="46.0430852" lon="13.322334"><ele>81.0</ele><time>2026-03-22T09:43:44.303Z</time></trkpt><trkpt lat="46.0431663" lon="13.3225286"><ele>81.25</ele><time>2026-03-22T09:43:45.317Z</time></trkpt><trkpt lat="46.0432471" lon="13.3227092"><ele>81.5</ele><time>2026-03-22T09:43:46.295Z</time></trkpt><trkpt lat="46.0433227" lon="13.3228774"><ele>81.75</ele><time>2026-03-22T09:43:47.299Z</time></trkpt><trkpt lat="46.0433929" lon="13.323033"><ele>82.0</ele><time>2026-03-22T09:43:48.293Z</time></trkpt><trkpt lat="46.0434559" lon="13.3231766"><ele>82.16666666666666</ele><time>2026-03-22T09:43:49.293Z</time></trkpt><trkpt lat="46.0435081" lon="13.3233112"><ele>82.33333333333333</ele><time>2026-03-22T09:43:50.279Z</time></trkpt><trkpt lat="46.0435459" lon="13.323438"><ele>82.5</ele><time>2026-03-22T09:43:51.28Z</time></trkpt><trkpt lat="46.0435676" lon="13.323559"><ele>82.66666666666667</ele><time>2026-03-22T09:43:52.29Z</time></trkpt><trkpt lat="46.0435927" lon="13.3236713"><ele>82.83333333333334</ele><time>2026-03-22T09:43:53.289Z</time></trkpt><trkpt lat="46.0436208" lon="13.3237752"><ele>83.0</ele><time>2026-03-22T09:43:54.297Z</time></trkpt><trkpt lat="46.0436497" lon="13.3238724"><ele>83.16666666666667</ele><time>2026-03-22T09:43:55.298Z</time></trkpt><trkpt lat="46.0436644" lon="13.3239864"><ele>83.33333333333334</ele><time>2026-03-22T09:43:56.282Z</time></trkpt><trkpt lat="46.0436625" lon="13.3241067"><ele>83.5</ele><time>2026-03-22T09:43:57.294Z</time></trkpt><trkpt lat="46.0436684" lon="13.3242319"><ele>83.66666666666667</ele><time>2026-03-22T09:43:58.279Z</time></trkpt><trkpt lat="46.043694" lon="13.3243522"><ele>83.83333333333333</ele><time>2026-03-22T09:43:59.291Z</time></trkpt><trkpt lat="46.0437369" lon="13.324464"><ele>84.0</ele><time>2026-03-22T09:44:00.28Z</time></trkpt><trkpt lat="46.0437815" lon="13.3245738"><ele>84.0</ele><time>2026-03-22T09:44:01.289Z</time></trkpt><trkpt lat="46.0438306" lon="13.3246801"><ele>84.0</ele><time>2026-03-22T09:44:02.296Z</time></trkpt><trkpt lat="46.0438825" lon="13.3247949"><ele>84.0</ele><time>2026-03-22T09:44:03.307Z</time></trkpt><trkpt lat="46.0439356" lon="13.3249164"><ele>84.0</ele><time>2026-03-22T09:44:04.285Z</time></trkpt><trkpt lat="46.0439882" lon="13.3250409"><ele>84.0</ele><time>2026-03-22T09:44:05.296Z</time></trkpt><trkpt lat="46.0440419" lon="13.3251608"><ele>84.0</ele><time>2026-03-22T09:44:06.283Z</time></trkpt><trkpt lat="46.0440829" lon="13.325291"><ele>84.0</ele><time>2026-03-22T09:44:07.318Z</time></trkpt><trkpt lat="46.0441203" lon="13.3254391"><ele>84.0</ele><time>2026-03-22T09:44:08.292Z</time></trkpt><trkpt lat="46.0441294" lon="13.3256144"><ele>84.0</ele><time>2026-03-22T09:44:09.299Z</time></trkpt><trkpt lat="46.0441289" lon="13.3257952"><ele>84.5</ele><time>2026-03-22T09:44:10.309Z</time></trkpt><trkpt lat="46.0441473" lon="13.3259673"><ele>85.0</ele><time>2026-03-22T09:44:11.296Z</time></trkpt><trkpt lat="46.0441528" lon="13.326132"><ele>85.5</ele><time>2026-03-22T09:44:12.288Z</time></trkpt><trkpt lat="46.0441541" lon="13.3262934"><ele>86.0</ele><time>2026-03-22T09:44:13.325Z</time></trkpt><trkpt lat="46.0441552" lon="13.3264572"><ele>86.0</ele><time>2026-03-22T09:44:14.295Z</time></trkpt><trkpt lat="46.0441512" lon="13.3266249"><ele>86.0</ele><time>2026-03-22T09:44:15.312Z</time></trkpt><trkpt lat="46.0441442" lon="13.3267949"><ele>86.0</ele><time>2026-03-22T09:44:16.305Z</time></trkpt><trkpt lat="46.0441476" lon="13.3269689"><ele>86.0</ele><time>2026-03-22T09:44:17.291Z</time></trkpt><trkpt lat="46.0441579" lon="13.3271497"><ele>86.0</ele><time>2026-03-22T09:44:18.281Z</time></trkpt><trkpt lat="46.0441623" lon="13.3273405"><ele>86.0</ele><time>2026-03-22T09:44:19.31Z</time></trkpt><trkpt lat="46.0441609" lon="13.3275431"><ele>86.0</ele><time>2026-03-22T09:44:20.31Z</time></trkpt><trkpt lat="46.0441532" lon="13.3277565"><ele>86.0</ele><time>2026-03-22T09:44:21.303Z</time></trkpt><trkpt lat="46.0441425" lon="13.3279738"><ele>86.0</ele><time>2026-03-22T09:44:22.313Z</time></trkpt><trkpt lat="46.0441329" lon="13.3281904"><ele>86.0</ele><time>2026-03-22T09:44:23.298Z</time></trkpt><trkpt lat="46.0441185" lon="13.3284054"><ele>86.0</ele><time>2026-03-22T09:44:24.307Z</time></trkpt><trkpt lat="46.0441062" lon="13.3286204"><ele>86.0</ele><time>2026-03-22T09:44:25.306Z</time></trkpt><trkpt lat="46.0440934" lon="13.3288376"><ele>86.0</ele><time>2026-03-22T09:44:26.289Z</time></trkpt><trkpt lat="46.0440833" lon="13.3290597"><ele>86.0</ele><time>2026-03-22T09:44:27.302Z</time></trkpt><trkpt lat="46.0440739" lon="13.3292873"><ele>87.0</ele><time>2026-03-22T09:44:28.312Z</time></trkpt><trkpt lat="46.0440705" lon="13.3295207"><ele>88.0</ele><time>2026-03-22T09:44:29.294Z</time></trkpt><trkpt lat="46.0440615" lon="13.3297568"><ele>89.0</ele><time>2026-03-22T09:44:30.289Z</time></trkpt><trkpt lat="46.0440515" lon="13.3299955"><ele>89.0</ele><time>2026-03-22T09:44:31.288Z</time></trkpt><trkpt lat="46.0440437" lon="13.330233"><ele>89.0</ele><time>2026-03-22T09:44:32.303Z</time></trkpt><trkpt lat="46.0440388" lon="13.3304679"><ele>89.0</ele><time>2026-03-22T09:44:33.307Z</time></trkpt><trkpt lat="46.0440338" lon="13.330704"><ele>89.0</ele><time>2026-03-22T09:44:34.29Z</time></trkpt><trkpt lat="46.0440111" lon="13.3309415"><ele>89.0</ele><time>2026-03-22T09:44:35.312Z</time></trkpt><trkpt lat="46.0439955" lon="13.3311824"><ele>89.0</ele><time>2026-03-22T09:44:36.291Z</time></trkpt><trkpt lat="46.0439868" lon="13.3314234"><ele>89.0</ele><time>2026-03-22T09:44:37.322Z</time></trkpt><trkpt lat="46.0439763" lon="13.3316562"><ele>89.0</ele><time>2026-03-22T09:44:38.297Z</time></trkpt><trkpt lat="46.043972" lon="13.3318753"><ele>89.0</ele><time>2026-03-22T09:44:39.305Z</time></trkpt><trkpt lat="46.043965" lon="13.3320782"><ele>89.0</ele><time>2026-03-22T09:44:40.298Z</time></trkpt><trkpt lat="46.0439543" lon="13.3322705"><ele>89.0</ele><time>2026-03-22T09:44:41.294Z</time></trkpt><trkpt lat="46.0439612" lon="13.3324571"><ele>89.0</ele><time>2026-03-22T09:44:42.281Z</time></trkpt><trkpt lat="46.0439692" lon="13.3326235"><ele>89.0</ele><time>2026-03-22T09:44:43.299Z</time></trkpt><trkpt lat="46.0439752" lon="13.3327378"><ele>89.0</ele><time>2026-03-22T09:44:44.288Z</time></trkpt><trkpt lat="46.0439698" lon="13.3328302"><ele>89.0</ele><time>2026-03-22T09:44:46.309Z</time></trkpt><trkpt lat="46.0439491" lon="13.3329876"><ele>89.0</ele><time>2026-03-22T09:44:51.297Z</time></trkpt><trkpt lat="46.0439952" lon="13.3330808"><ele>89.0</ele><time>2026-03-22T09:44:53.29Z</time></trkpt><trkpt lat="46.044068" lon="13.3331125"><ele>89.0</ele><time>2026-03-22T09:44:54.293Z</time></trkpt><trkpt lat="46.0441721" lon="13.3331345"><ele>89.0</ele><time>2026-03-22T09:44:55.29Z</time></trkpt><trkpt lat="46.0443103" lon="13.3331782"><ele>89.0</ele><time>2026-03-22T09:44:56.297Z</time></trkpt><trkpt lat="46.0444933" lon="13.333208"><ele>89.0</ele><time>2026-03-22T09:44:57.287Z</time></trkpt><trkpt lat="46.0447093" lon="13.3332551"><ele>89.0</ele><time>2026-03-22T09:44:58.304Z</time></trkpt><trkpt lat="46.0449436" lon="13.3333274"><ele>91.0</ele><time>2026-03-22T09:44:59.288Z</time></trkpt><trkpt lat="46.0451802" lon="13.3333394"><ele>93.0</ele><time>2026-03-22T09:45:00.289Z</time></trkpt><trkpt lat="46.0453951" lon="13.3333747"><ele>93.0</ele><time>2026-03-22T09:45:01.3Z</time></trkpt><trkpt lat="46.045591" lon="13.3334224"><ele>93.0</ele><time>2026-03-22T09:45:02.288Z</time></trkpt><trkpt lat="46.0457763" lon="13.3334723"><ele>93.0</ele><time>2026-03-22T09:45:03.309Z</time></trkpt><trkpt lat="46.0459578" lon="13.3335169"><ele>91.66666666666667</ele><time>2026-03-22T09:45:04.286Z</time></trkpt><trkpt lat="46.0461388" lon="13.333554"><ele>90.33333333333334</ele><time>2026-03-22T09:45:05.303Z</time></trkpt><trkpt lat="46.0463176" lon="13.333589"><ele>89.0</ele><time>2026-03-22T09:45:06.286Z</time></trkpt><trkpt lat="46.0464965" lon="13.3336195"><ele>88.66666666666667</ele><time>2026-03-22T09:45:07.305Z</time></trkpt><trkpt lat="46.0466758" lon="13.3336457"><ele>88.33333333333333</ele><time>2026-03-22T09:45:08.293Z</time></trkpt><trkpt lat="46.0468547" lon="13.3336724"><ele>88.0</ele><time>2026-03-22T09:45:09.294Z</time></trkpt><trkpt lat="46.0470328" lon="13.3336974"><ele>88.0</ele><time>2026-03-22T09:45:10.281Z</time></trkpt><trkpt lat="46.0472089" lon="13.3337086"><ele>88.0</ele><time>2026-03-22T09:45:11.279Z</time></trkpt><trkpt lat="46.0473837" lon="13.3337326"><ele>88.0</ele><time>2026-03-22T09:45:12.298Z</time></trkpt><trkpt lat="46.0475583" lon="13.3337584"><ele>88.66666666666666</ele><time>2026-03-22T09:45:13.314Z</time></trkpt><trkpt lat="46.0477367" lon="13.3337672"><ele>89.33333333333333</ele><time>2026-03-22T09:45:14.302Z</time></trkpt><trkpt lat="46.0479205" lon="13.3337744"><ele>90.0</ele><time>2026-03-22T09:45:15.298Z</time></trkpt><trkpt lat="46.0481114" lon="13.3337874"><ele>90.66666666666667</ele><time>2026-03-22T09:45:16.288Z</time></trkpt><trkpt lat="46.0483087" lon="13.3337661"><ele>91.33333333333334</ele><time>2026-03-22T09:45:17.294Z</time></trkpt><trkpt lat="46.0485004" lon="13.3337503"><ele>92.0</ele><time>2026-03-22T09:45:18.298Z</time></trkpt><trkpt lat="46.0486884" lon="13.3337343"><ele>92.0</ele><time>2026-03-22T09:45:19.285Z</time></trkpt><trkpt lat="46.0488714" lon="13.3336963"><ele>92.0</ele><time>2026-03-22T09:45:20.303Z</time></trkpt><trkpt lat="46.0490543" lon="13.3336417"><ele>92.0</ele><time>2026-03-22T09:45:21.282Z</time></trkpt><trkpt lat="46.0492395" lon="13.3335764"><ele>91.66666666666667</ele><time>2026-03-22T09:45:22.276Z</time></trkpt><trkpt lat="46.0494264" lon="13.3335102"><ele>91.33333333333333</ele><time>2026-03-22T09:45:23.294Z</time></trkpt><trkpt lat="46.0496111" lon="13.333442"><ele>91.0</ele><time>2026-03-22T09:45:24.289Z</time></trkpt><trkpt lat="46.0497913" lon="13.3333779"><ele>90.66666666666666</ele><time>2026-03-22T09:45:25.295Z</time></trkpt><trkpt lat="46.0499665" lon="13.3333216"><ele>90.33333333333333</ele><time>2026-03-22T09:45:26.299Z</time></trkpt><trkpt lat="46.0501394" lon="13.3332783"><ele>90.0</ele><time>2026-03-22T09:45:27.283Z</time></trkpt><trkpt lat="46.0503133" lon="13.3332376"><ele>90.0</ele><time>2026-03-22T09:45:28.312Z</time></trkpt><trkpt lat="46.0504932" lon="13.3332333"><ele>90.0</ele><time>2026-03-22T09:45:29.3Z</time></trkpt><trkpt lat="46.050679" lon="13.3332576"><ele>90.0</ele><time>2026-03-22T09:45:30.296Z</time></trkpt><trkpt lat="46.0508728" lon="13.3333093"><ele>90.0</ele><time>2026-03-22T09:45:31.305Z</time></trkpt><trkpt lat="46.0510789" lon="13.3333817"><ele>90.0</ele><time>2026-03-22T09:45:32.312Z</time></trkpt><trkpt lat="46.0512964" lon="13.3334665"><ele>90.0</ele><time>2026-03-22T09:45:33.297Z</time></trkpt><trkpt lat="46.0515188" lon="13.3335505"><ele>90.33333333333333</ele><time>2026-03-22T09:45:34.288Z</time></trkpt><trkpt lat="46.0517371" lon="13.3336416"><ele>90.66666666666666</ele><time>2026-03-22T09:45:35.315Z</time></trkpt><trkpt lat="46.0519518" lon="13.333718"><ele>91.0</ele><time>2026-03-22T09:45:36.286Z</time></trkpt><trkpt lat="46.0521568" lon="13.333788"><ele>91.0</ele><time>2026-03-22T09:45:37.309Z</time></trkpt><trkpt lat="46.0523504" lon="13.3338516"><ele>91.0</ele><time>2026-03-22T09:45:38.317Z</time></trkpt><trkpt lat="46.0525374" lon="13.3339108"><ele>91.0</ele><time>2026-03-22T09:45:39.317Z</time></trkpt><trkpt lat="46.0527214" lon="13.3339786"><ele>91.33333333333333</ele><time>2026-03-22T09:45:40.294Z</time></trkpt><trkpt lat="46.0529049" lon="13.3340435"><ele>91.66666666666667</ele><time>2026-03-22T09:45:41.296Z</time></trkpt><trkpt lat="46.053085" lon="13.334119"><ele>92.0</ele><time>2026-03-22T09:45:42.299Z</time></trkpt><trkpt lat="46.0532616" lon="13.3342044"><ele>92.66666666666667</ele><time>2026-03-22T09:45:43.298Z</time></trkpt><trkpt lat="46.0534366" lon="13.3343088"><ele>93.33333333333333</ele><time>2026-03-22T09:45:44.306Z</time></trkpt><trkpt lat="46.0536123" lon="13.3344421"><ele>94.0</ele><time>2026-03-22T09:45:45.31Z</time></trkpt><trkpt lat="46.053791" lon="13.3345926"><ele>94.0</ele><time>2026-03-22T09:45:46.297Z</time></trkpt><trkpt lat="46.0539773" lon="13.3347462"><ele>94.0</ele><time>2026-03-22T09:45:47.292Z</time></trkpt><trkpt lat="46.0541709" lon="13.334905"><ele>94.0</ele><time>2026-03-22T09:45:48.317Z</time></trkpt><trkpt lat="46.0543682" lon="13.3350684"><ele>94.0</ele><time>2026-03-22T09:45:49.289Z</time></trkpt><trkpt lat="46.0545663" lon="13.3352237"><ele>94.0</ele><time>2026-03-22T09:45:50.292Z</time></trkpt><trkpt lat="46.0547588" lon="13.3353842"><ele>94.0</ele><time>2026-03-22T09:45:51.3Z</time></trkpt><trkpt lat="46.054948" lon="13.3355446"><ele>94.0</ele><time>2026-03-22T09:45:52.297Z</time></trkpt><trkpt lat="46.055136" lon="13.3357036"><ele>94.0</ele><time>2026-03-22T09:45:53.337Z</time></trkpt><trkpt lat="46.0553252" lon="13.335854"><ele>94.0</ele><time>2026-03-22T09:45:54.282Z</time></trkpt><trkpt lat="46.0555119" lon="13.3360021"><ele>94.0</ele><time>2026-03-22T09:45:55.29Z</time></trkpt><trkpt lat="46.0557031" lon="13.3361301"><ele>94.0</ele><time>2026-03-22T09:45:56.284Z</time></trkpt><trkpt lat="46.055884" lon="13.3362747"><ele>94.0</ele><time>2026-03-22T09:45:57.303Z</time></trkpt><trkpt lat="46.0560622" lon="13.3364189"><ele>93.66666666666666</ele><time>2026-03-22T09:45:58.294Z</time></trkpt><trkpt lat="46.0562384" lon="13.3365632"><ele>93.33333333333333</ele><time>2026-03-22T09:45:59.296Z</time></trkpt><trkpt lat="46.0564126" lon="13.3367091"><ele>93.0</ele><time>2026-03-22T09:46:00.296Z</time></trkpt><trkpt lat="46.0565862" lon="13.3368553"><ele>93.0</ele><time>2026-03-22T09:46:01.296Z</time></trkpt><trkpt lat="46.0567594" lon="13.3370044"><ele>93.0</ele><time>2026-03-22T09:46:02.287Z</time></trkpt><trkpt lat="46.0569338" lon="13.3371539"><ele>93.0</ele><time>2026-03-22T09:46:03.319Z</time></trkpt><trkpt lat="46.0571105" lon="13.3373002"><ele>93.66666666666667</ele><time>2026-03-22T09:46:04.29Z</time></trkpt><trkpt lat="46.0572892" lon="13.3374457"><ele>94.33333333333334</ele><time>2026-03-22T09:46:05.293Z</time></trkpt><trkpt lat="46.0574717" lon="13.3375787"><ele>95.0</ele><time>2026-03-22T09:46:06.306Z</time></trkpt><trkpt lat="46.0576492" lon="13.3377219"><ele>95.0</ele><time>2026-03-22T09:46:07.315Z</time></trkpt><trkpt lat="46.0578254" lon="13.3378666"><ele>95.0</ele><time>2026-03-22T09:46:08.286Z</time></trkpt><trkpt lat="46.0580008" lon="13.3380121"><ele>95.0</ele><time>2026-03-22T09:46:09.304Z</time></trkpt><trkpt lat="46.0581797" lon="13.3381404"><ele>94.66666666666667</ele><time>2026-03-22T09:46:10.296Z</time></trkpt><trkpt lat="46.0583517" lon="13.3382816"><ele>94.33333333333333</ele><time>2026-03-22T09:46:11.3Z</time></trkpt><trkpt lat="46.0585199" lon="13.3384324"><ele>94.0</ele><time>2026-03-22T09:46:12.299Z</time></trkpt><trkpt lat="46.0586902" lon="13.3385738"><ele>94.0</ele><time>2026-03-22T09:46:13.303Z</time></trkpt><trkpt lat="46.0588534" lon="13.3387333"><ele>94.0</ele><time>2026-03-22T09:46:14.311Z</time></trkpt><trkpt lat="46.0590224" lon="13.3388789"><ele>94.0</ele><time>2026-03-22T09:46:15.302Z</time></trkpt><trkpt lat="46.0591969" lon="13.3390144"><ele>94.33333333333333</ele><time>2026-03-22T09:46:16.32Z</time></trkpt><trkpt lat="46.0593776" lon="13.3391453"><ele>94.66666666666667</ele><time>2026-03-22T09:46:17.302Z</time></trkpt><trkpt lat="46.0595685" lon="13.339274"><ele>95.0</ele><time>2026-03-22T09:46:18.296Z</time></trkpt><trkpt lat="46.0597772" lon="13.339394"><ele>94.5</ele><time>2026-03-22T09:46:19.31Z</time></trkpt><trkpt lat="46.0600056" lon="13.3395078"><ele>94.0</ele><time>2026-03-22T09:46:20.297Z</time></trkpt><trkpt lat="46.0602384" lon="13.3396219"><ele>95.0</ele><time>2026-03-22T09:46:21.308Z</time></trkpt><trkpt lat="46.060459" lon="13.3397322"><ele>96.0</ele><time>2026-03-22T09:46:22.286Z</time></trkpt><trkpt lat="46.060663" lon="13.3398428"><ele>95.33333333333333</ele><time>2026-03-22T09:46:23.3Z</time></trkpt><trkpt lat="46.0608528" lon="13.3399427"><ele>94.66666666666666</ele><time>2026-03-22T09:46:24.291Z</time></trkpt><trkpt lat="46.0610292" lon="13.3400381"><ele>94.0</ele><time>2026-03-22T09:46:25.298Z</time></trkpt><trkpt lat="46.0611933" lon="13.3401246"><ele>94.0</ele><time>2026-03-22T09:46:26.292Z</time></trkpt><trkpt lat="46.0613452" lon="13.3402043"><ele>94.0</ele><time>2026-03-22T09:46:27.299Z</time></trkpt><trkpt lat="46.0614829" lon="13.3402868"><ele>94.0</ele><time>2026-03-22T09:46:28.307Z</time></trkpt><trkpt lat="46.0616086" lon="13.3403761"><ele>94.75</ele><time>2026-03-22T09:46:29.301Z</time></trkpt><trkpt lat="46.0617209" lon="13.3404914"><ele>95.5</ele><time>2026-03-22T09:46:30.299Z</time></trkpt><trkpt lat="46.0618261" lon="13.3406275"><ele>96.25</ele><time>2026-03-22T09:46:31.297Z</time></trkpt><trkpt lat="46.061914" lon="13.340809"><ele>97.0</ele><time>2026-03-22T09:46:32.291Z</time></trkpt><trkpt lat="46.061992" lon="13.3410252"><ele>97.0</ele><time>2026-03-22T09:46:33.297Z</time></trkpt><trkpt lat="46.0620679" lon="13.3412452"><ele>97.0</ele><time>2026-03-22T09:46:34.303Z</time></trkpt><trkpt lat="46.062145" lon="13.341444"><ele>97.0</ele><time>2026-03-22T09:46:35.317Z</time></trkpt><trkpt lat="46.0622187" lon="13.3416271"><ele>97.0</ele><time>2026-03-22T09:46:36.306Z</time></trkpt><trkpt lat="46.0622945" lon="13.3417912"><ele>97.0</ele><time>2026-03-22T09:46:37.304Z</time></trkpt><trkpt lat="46.0623619" lon="13.3419437"><ele>97.0</ele><time>2026-03-22T09:46:38.295Z</time></trkpt><trkpt lat="46.0624238" lon="13.3420861"><ele>97.0</ele><time>2026-03-22T09:46:39.295Z</time></trkpt><trkpt lat="46.0624853" lon="13.3422186"><ele>96.6</ele><time>2026-03-22T09:46:40.314Z</time></trkpt><trkpt lat="46.0625483" lon="13.3423421"><ele>96.19999999999999</ele><time>2026-03-22T09:46:41.3Z</time></trkpt><trkpt lat="46.0626101" lon="13.3424643"><ele>95.8</ele><time>2026-03-22T09:46:42.293Z</time></trkpt><trkpt lat="46.0626922" lon="13.3425636"><ele>95.4</ele><time>2026-03-22T09:46:43.315Z</time></trkpt><trkpt lat="46.0628005" lon="13.3426218"><ele>95.0</ele><time>2026-03-22T09:46:44.288Z</time></trkpt><trkpt lat="46.0629164" lon="13.3426708"><ele>95.0</ele><time>2026-03-22T09:46:45.298Z</time></trkpt><trkpt lat="46.0630424" lon="13.3427185"><ele>95.0</ele><time>2026-03-22T09:46:46.286Z</time></trkpt><trkpt lat="46.0631766" lon="13.3427703"><ele>95.0</ele><time>2026-03-22T09:46:47.298Z</time></trkpt><trkpt lat="46.0633126" lon="13.3428228"><ele>95.0</ele><time>2026-03-22T09:46:48.298Z</time></trkpt><trkpt lat="46.0634448" lon="13.3428693"><ele>95.5</ele><time>2026-03-22T09:46:49.296Z</time></trkpt><trkpt lat="46.0635681" lon="13.3429232"><ele>96.0</ele><time>2026-03-22T09:46:50.306Z</time></trkpt><trkpt lat="46.0636894" lon="13.3429623"><ele>96.5</ele><time>2026-03-22T09:46:51.313Z</time></trkpt><trkpt lat="46.0638014" lon="13.3430009"><ele>97.0</ele><time>2026-03-22T09:46:52.293Z</time></trkpt><trkpt lat="46.0639129" lon="13.3430084"><ele>97.0</ele><time>2026-03-22T09:46:53.302Z</time></trkpt><trkpt lat="46.0640235" lon="13.3430184"><ele>97.0</ele><time>2026-03-22T09:46:54.304Z</time></trkpt><trkpt lat="46.0641318" lon="13.3430265"><ele>97.0</ele><time>2026-03-22T09:46:55.289Z</time></trkpt><trkpt lat="46.0642407" lon="13.3430286"><ele>97.0</ele><time>2026-03-22T09:46:56.296Z</time></trkpt><trkpt lat="46.0643497" lon="13.3430542"><ele>97.0</ele><time>2026-03-22T09:46:57.298Z</time></trkpt><trkpt lat="46.0644526" lon="13.3430978"><ele>97.39999999999999</ele><time>2026-03-22T09:46:58.3Z</time></trkpt><trkpt lat="46.0645524" lon="13.3431442"><ele>97.8</ele><time>2026-03-22T09:46:59.306Z</time></trkpt><trkpt lat="46.0646423" lon="13.3431979"><ele>98.2</ele><time>2026-03-22T09:47:00.311Z</time></trkpt><trkpt lat="46.064737" lon="13.3432528"><ele>98.6</ele><time>2026-03-22T09:47:01.293Z</time></trkpt><trkpt lat="46.0648292" lon="13.3433034"><ele>99.0</ele><time>2026-03-22T09:47:02.301Z</time></trkpt><trkpt lat="46.0649251" lon="13.3433405"><ele>99.16666666666667</ele><time>2026-03-22T09:47:03.285Z</time></trkpt><trkpt lat="46.0650263" lon="13.3433227"><ele>99.33333333333334</ele><time>2026-03-22T09:47:04.291Z</time></trkpt><trkpt lat="46.0651116" lon="13.3433331"><ele>99.5</ele><time>2026-03-22T09:47:05.299Z</time></trkpt><trkpt lat="46.06519" lon="13.3433278"><ele>99.66666666666667</ele><time>2026-03-22T09:47:06.295Z</time></trkpt><trkpt lat="46.0652631" lon="13.3433288"><ele>99.83333333333334</ele><time>2026-03-22T09:47:07.298Z</time></trkpt><trkpt lat="46.0653319" lon="13.3433387"><ele>100.0</ele><time>2026-03-22T09:47:08.31Z</time></trkpt><trkpt lat="46.0653949" lon="13.3433763"><ele>100.0</ele><time>2026-03-22T09:47:09.299Z</time></trkpt><trkpt lat="46.0654578" lon="13.3433825"><ele>100.0</ele><time>2026-03-22T09:47:10.299Z</time></trkpt><trkpt lat="46.0655736" lon="13.3434206"><ele>100.0</ele><time>2026-03-22T09:47:12.289Z</time></trkpt><trkpt lat="46.0656628" lon="13.3434582"><ele>100.0</ele><time>2026-03-22T09:47:14.298Z</time></trkpt><trkpt lat="46.0657409" lon="13.3435056"><ele>100.0</ele><time>2026-03-22T09:47:16.287Z</time></trkpt><trkpt lat="46.0658208" lon="13.3435896"><ele>100.25</ele><time>2026-03-22T09:47:18.3Z</time></trkpt><trkpt lat="46.0658822" lon="13.3437656"><ele>100.5</ele><time>2026-03-22T09:47:20.316Z</time></trkpt><trkpt lat="46.0659105" lon="13.3438923"><ele>100.75</ele><time>2026-03-22T09:47:21.296Z</time></trkpt><trkpt lat="46.0659277" lon="13.3440478"><ele>101.0</ele><time>2026-03-22T09:47:22.284Z</time></trkpt><trkpt lat="46.065937" lon="13.3442238"><ele>101.25</ele><time>2026-03-22T09:47:23.313Z</time></trkpt><trkpt lat="46.0659339" lon="13.344405"><ele>101.5</ele><time>2026-03-22T09:47:24.287Z</time></trkpt><trkpt lat="46.0659192" lon="13.3445882"><ele>101.75</ele><time>2026-03-22T09:47:25.311Z</time></trkpt><trkpt lat="46.0658928" lon="13.3447705"><ele>102.0</ele><time>2026-03-22T09:47:26.287Z</time></trkpt><trkpt lat="46.0658607" lon="13.3449505"><ele>102.0</ele><time>2026-03-22T09:47:27.308Z</time></trkpt><trkpt lat="46.0658301" lon="13.3451309"><ele>102.0</ele><time>2026-03-22T09:47:28.293Z</time></trkpt><trkpt lat="46.0657982" lon="13.3453121"><ele>102.0</ele><time>2026-03-22T09:47:29.293Z</time></trkpt><trkpt lat="46.0657665" lon="13.3454944"><ele>102.0</ele><time>2026-03-22T09:47:30.294Z</time></trkpt><trkpt lat="46.0657341" lon="13.3456787"><ele>102.0</ele><time>2026-03-22T09:47:31.306Z</time></trkpt><trkpt lat="46.0656996" lon="13.3458671"><ele>102.0</ele><time>2026-03-22T09:47:32.29Z</time></trkpt><trkpt lat="46.0656629" lon="13.3460627"><ele>102.0</ele><time>2026-03-22T09:47:33.306Z</time></trkpt><trkpt lat="46.0656262" lon="13.3462678"><ele>102.0</ele><time>2026-03-22T09:47:34.291Z</time></trkpt><trkpt lat="46.0655909" lon="13.3464802"><ele>101.66666666666666</ele><time>2026-03-22T09:47:35.293Z</time></trkpt><trkpt lat="46.065552" lon="13.3466982"><ele>101.33333333333333</ele><time>2026-03-22T09:47:36.293Z</time></trkpt><trkpt lat="46.0655084" lon="13.346919"><ele>101.0</ele><time>2026-03-22T09:47:37.313Z</time></trkpt><trkpt lat="46.0654682" lon="13.3471387"><ele>101.66666666666666</ele><time>2026-03-22T09:47:38.292Z</time></trkpt><trkpt lat="46.0654374" lon="13.3473614"><ele>102.33333333333334</ele><time>2026-03-22T09:47:39.299Z</time></trkpt><trkpt lat="46.0654034" lon="13.3475864"><ele>103.0</ele><time>2026-03-22T09:47:40.297Z</time></trkpt><trkpt lat="46.065368" lon="13.3478134"><ele>103.0</ele><time>2026-03-22T09:47:41.302Z</time></trkpt><trkpt lat="46.065332" lon="13.3480396"><ele>103.0</ele><time>2026-03-22T09:47:42.287Z</time></trkpt><trkpt lat="46.0652909" lon="13.3482621"><ele>103.0</ele><time>2026-03-22T09:47:43.314Z</time></trkpt><trkpt lat="46.0652444" lon="13.3484804"><ele>103.0</ele><time>2026-03-22T09:47:44.288Z</time></trkpt><trkpt lat="46.0652108" lon="13.3486979"><ele>103.0</ele><time>2026-03-22T09:47:45.32Z</time></trkpt><trkpt lat="46.0651757" lon="13.3489128"><ele>103.0</ele><time>2026-03-22T09:47:46.302Z</time></trkpt><trkpt lat="46.0651424" lon="13.3491301"><ele>103.0</ele><time>2026-03-22T09:47:47.294Z</time></trkpt><trkpt lat="46.065108" lon="13.349346"><ele>103.0</ele><time>2026-03-22T09:47:48.307Z</time></trkpt><trkpt lat="46.0650726" lon="13.3495632"><ele>103.0</ele><time>2026-03-22T09:47:49.291Z</time></trkpt><trkpt lat="46.0650351" lon="13.3497802"><ele>102.66666666666667</ele><time>2026-03-22T09:47:50.307Z</time></trkpt><trkpt lat="46.0650049" lon="13.3500011"><ele>102.33333333333334</ele><time>2026-03-22T09:47:51.297Z</time></trkpt><trkpt lat="46.0649729" lon="13.3502247"><ele>102.0</ele><time>2026-03-22T09:47:52.294Z</time></trkpt><trkpt lat="46.0649355" lon="13.3504497"><ele>101.33333333333334</ele><time>2026-03-22T09:47:53.318Z</time></trkpt><trkpt lat="46.064897" lon="13.3506767"><ele>100.66666666666667</ele><time>2026-03-22T09:47:54.292Z</time></trkpt><trkpt lat="46.0648542" lon="13.3509057"><ele>100.0</ele><time>2026-03-22T09:47:55.303Z</time></trkpt><trkpt lat="46.0648141" lon="13.3511388"><ele>100.0</ele><time>2026-03-22T09:47:56.299Z</time></trkpt><trkpt lat="46.0647735" lon="13.3513717"><ele>100.0</ele><time>2026-03-22T09:47:57.316Z</time></trkpt><trkpt lat="46.0647343" lon="13.3516052"><ele>100.0</ele><time>2026-03-22T09:47:58.293Z</time></trkpt><trkpt lat="46.0646942" lon="13.3518452"><ele>100.0</ele><time>2026-03-22T09:47:59.286Z</time></trkpt><trkpt lat="46.0646512" lon="13.3520929"><ele>100.0</ele><time>2026-03-22T09:48:00.31Z</time></trkpt><trkpt lat="46.0646064" lon="13.3523443"><ele>100.0</ele><time>2026-03-22T09:48:01.31Z</time></trkpt><trkpt lat="46.0645638" lon="13.3526001"><ele>100.0</ele><time>2026-03-22T09:48:02.302Z</time></trkpt><trkpt lat="46.0645206" lon="13.3528558"><ele>100.0</ele><time>2026-03-22T09:48:03.306Z</time></trkpt><trkpt lat="46.0644768" lon="13.3531085"><ele>100.0</ele><time>2026-03-22T09:48:04.3Z</time></trkpt><trkpt lat="46.0644335" lon="13.353358"><ele>99.66666666666667</ele><time>2026-03-22T09:48:05.304Z</time></trkpt><trkpt lat="46.0643913" lon="13.3536034"><ele>99.33333333333334</ele><time>2026-03-22T09:48:06.293Z</time></trkpt><trkpt lat="46.0643513" lon="13.3538354"><ele>99.0</ele><time>2026-03-22T09:48:07.303Z</time></trkpt><trkpt lat="46.064314" lon="13.3540557"><ele>99.0</ele><time>2026-03-22T09:48:08.287Z</time></trkpt><trkpt lat="46.0642783" lon="13.3542737"><ele>99.0</ele><time>2026-03-22T09:48:09.293Z</time></trkpt><trkpt lat="46.0642436" lon="13.3544918"><ele>99.0</ele><time>2026-03-22T09:48:10.289Z</time></trkpt><trkpt lat="46.0642078" lon="13.3547093"><ele>99.33333333333334</ele><time>2026-03-22T09:48:11.307Z</time></trkpt><trkpt lat="46.0641694" lon="13.3549262"><ele>99.66666666666667</ele><time>2026-03-22T09:48:12.305Z</time></trkpt><trkpt lat="46.0641281" lon="13.3551445"><ele>100.0</ele><time>2026-03-22T09:48:13.311Z</time></trkpt><trkpt lat="46.064082" lon="13.3553628"><ele>100.0</ele><time>2026-03-22T09:48:14.307Z</time></trkpt><trkpt lat="46.0640299" lon="13.3555802"><ele>100.0</ele><time>2026-03-22T09:48:15.321Z</time></trkpt><trkpt lat="46.0639723" lon="13.3557966"><ele>100.0</ele><time>2026-03-22T09:48:16.296Z</time></trkpt><trkpt lat="46.0639158" lon="13.3560166"><ele>100.0</ele><time>2026-03-22T09:48:17.307Z</time></trkpt><trkpt lat="46.0638658" lon="13.3562426"><ele>100.0</ele><time>2026-03-22T09:48:18.288Z</time></trkpt><trkpt lat="46.063811" lon="13.3564712"><ele>100.0</ele><time>2026-03-22T09:48:19.314Z</time></trkpt><trkpt lat="46.0637562" lon="13.3567051"><ele>100.0</ele><time>2026-03-22T09:48:20.287Z</time></trkpt><trkpt lat="46.0636978" lon="13.3569456"><ele>100.0</ele><time>2026-03-22T09:48:21.307Z</time></trkpt><trkpt lat="46.0636351" lon="13.3571939"><ele>100.0</ele><time>2026-03-22T09:48:22.309Z</time></trkpt><trkpt lat="46.0635734" lon="13.357447"><ele>100.33333333333334</ele><time>2026-03-22T09:48:23.296Z</time></trkpt><trkpt lat="46.0635105" lon="13.357701"><ele>100.66666666666666</ele><time>2026-03-22T09:48:24.295Z</time></trkpt><trkpt lat="46.0634495" lon="13.3579556"><ele>101.0</ele><time>2026-03-22T09:48:25.32Z</time></trkpt><trkpt lat="46.0633896" lon="13.3582094"><ele>101.33333333333333</ele><time>2026-03-22T09:48:26.299Z</time></trkpt><trkpt lat="46.0633288" lon="13.3584605"><ele>101.66666666666666</ele><time>2026-03-22T09:48:27.305Z</time></trkpt><trkpt lat="46.0632675" lon="13.3587068"><ele>102.0</ele><time>2026-03-22T09:48:28.296Z</time></trkpt><trkpt lat="46.0632084" lon="13.3589513"><ele>101.33333333333334</ele><time>2026-03-22T09:48:29.297Z</time></trkpt><trkpt lat="46.0631493" lon="13.3591949"><ele>100.66666666666667</ele><time>2026-03-22T09:48:30.302Z</time></trkpt><trkpt lat="46.0630908" lon="13.3594388"><ele>100.0</ele><time>2026-03-22T09:48:31.308Z</time></trkpt><trkpt lat="46.063033" lon="13.3596825"><ele>100.33333333333334</ele><time>2026-03-22T09:48:32.296Z</time></trkpt><trkpt lat="46.0629747" lon="13.3599256"><ele>100.66666666666666</ele><time>2026-03-22T09:48:33.311Z</time></trkpt><trkpt lat="46.0629165" lon="13.3601685"><ele>101.0</ele><time>2026-03-22T09:48:34.301Z</time></trkpt><trkpt lat="46.0628577" lon="13.3604105"><ele>101.0</ele><time>2026-03-22T09:48:35.331Z</time></trkpt><trkpt lat="46.0628009" lon="13.360651"><ele>101.0</ele><time>2026-03-22T09:48:36.29Z</time></trkpt><trkpt lat="46.0627437" lon="13.3608887"><ele>101.0</ele><time>2026-03-22T09:48:37.308Z</time></trkpt><trkpt lat="46.0626863" lon="13.3611257"><ele>101.0</ele><time>2026-03-22T09:48:38.3Z</time></trkpt><trkpt lat="46.0626272" lon="13.3613621"><ele>101.0</ele><time>2026-03-22T09:48:39.286Z</time></trkpt><trkpt lat="46.0625682" lon="13.3616006"><ele>101.0</ele><time>2026-03-22T09:48:40.3Z</time></trkpt><trkpt lat="46.0625098" lon="13.3618436"><ele>101.66666666666666</ele><time>2026-03-22T09:48:41.292Z</time></trkpt><trkpt lat="46.0624496" lon="13.36209"><ele>102.33333333333334</ele><time>2026-03-22T09:48:42.294Z</time></trkpt><trkpt lat="46.0623883" lon="13.3623392"><ele>103.0</ele><time>2026-03-22T09:48:43.299Z</time></trkpt><trkpt lat="46.0623279" lon="13.3625922"><ele>103.0</ele><time>2026-03-22T09:48:44.291Z</time></trkpt><trkpt lat="46.0622663" lon="13.3628465"><ele>103.0</ele><time>2026-03-22T09:48:45.313Z</time></trkpt><trkpt lat="46.0622052" lon="13.3631032"><ele>103.0</ele><time>2026-03-22T09:48:46.292Z</time></trkpt><trkpt lat="46.0621464" lon="13.363363"><ele>103.0</ele><time>2026-03-22T09:48:47.304Z</time></trkpt><trkpt lat="46.0620892" lon="13.3636245"><ele>103.0</ele><time>2026-03-22T09:48:48.3Z</time></trkpt><trkpt lat="46.0620333" lon="13.3638842"><ele>103.0</ele><time>2026-03-22T09:48:49.333Z</time></trkpt><trkpt lat="46.0619801" lon="13.3641408"><ele>103.0</ele><time>2026-03-22T09:48:50.299Z</time></trkpt><trkpt lat="46.0619284" lon="13.3643925"><ele>103.0</ele><time>2026-03-22T09:48:51.299Z</time></trkpt><trkpt lat="46.0618836" lon="13.3646414"><ele>103.0</ele><time>2026-03-22T09:48:52.284Z</time></trkpt><trkpt lat="46.0618418" lon="13.364889"><ele>103.33333333333334</ele><time>2026-03-22T09:48:53.321Z</time></trkpt><trkpt lat="46.0617996" lon="13.3651358"><ele>103.66666666666666</ele><time>2026-03-22T09:48:54.311Z</time></trkpt><trkpt lat="46.0617534" lon="13.36538"><ele>104.0</ele><time>2026-03-22T09:48:55.297Z</time></trkpt><trkpt lat="46.0617107" lon="13.3656254"><ele>103.33333333333333</ele><time>2026-03-22T09:48:56.294Z</time></trkpt><trkpt lat="46.061665" lon="13.3658699"><ele>102.66666666666666</ele><time>2026-03-22T09:48:57.298Z</time></trkpt><trkpt lat="46.0616174" lon="13.3661138"><ele>102.0</ele><time>2026-03-22T09:48:58.289Z</time></trkpt><trkpt lat="46.061571" lon="13.3663593"><ele>102.66666666666666</ele><time>2026-03-22T09:48:59.332Z</time></trkpt><trkpt lat="46.0615271" lon="13.366607"><ele>103.33333333333333</ele><time>2026-03-22T09:49:00.312Z</time></trkpt><trkpt lat="46.0614836" lon="13.3668558"><ele>104.0</ele><time>2026-03-22T09:49:01.298Z</time></trkpt><trkpt lat="46.0614373" lon="13.3671039"><ele>104.66666666666666</ele><time>2026-03-22T09:49:02.321Z</time></trkpt><trkpt lat="46.0613875" lon="13.3673504"><ele>105.33333333333334</ele><time>2026-03-22T09:49:03.314Z</time></trkpt><trkpt lat="46.0613377" lon="13.3675964"><ele>106.0</ele><time>2026-03-22T09:49:04.306Z</time></trkpt><trkpt lat="46.0612906" lon="13.3678424"><ele>106.0</ele><time>2026-03-22T09:49:05.306Z</time></trkpt><trkpt lat="46.0612458" lon="13.3680884"><ele>106.0</ele><time>2026-03-22T09:49:06.296Z</time></trkpt><trkpt lat="46.0611998" lon="13.3683332"><ele>106.0</ele><time>2026-03-22T09:49:07.302Z</time></trkpt><trkpt lat="46.0611536" lon="13.368577"><ele>106.0</ele><time>2026-03-22T09:49:08.29Z</time></trkpt><trkpt lat="46.0611096" lon="13.3688226"><ele>106.0</ele><time>2026-03-22T09:49:09.304Z</time></trkpt><trkpt lat="46.0610652" lon="13.3690684"><ele>106.0</ele><time>2026-03-22T09:49:10.308Z</time></trkpt><trkpt lat="46.0610193" lon="13.3693151"><ele>106.0</ele><time>2026-03-22T09:49:11.284Z</time></trkpt><trkpt lat="46.0609717" lon="13.3695619"><ele>106.0</ele><time>2026-03-22T09:49:12.287Z</time></trkpt><trkpt lat="46.0609214" lon="13.3698069"><ele>106.0</ele><time>2026-03-22T09:49:13.286Z</time></trkpt><trkpt lat="46.0608747" lon="13.3700532"><ele>106.0</ele><time>2026-03-22T09:49:14.29Z</time></trkpt><trkpt lat="46.0608301" lon="13.3703009"><ele>106.0</ele><time>2026-03-22T09:49:15.292Z</time></trkpt><trkpt lat="46.0607881" lon="13.3705493"><ele>106.0</ele><time>2026-03-22T09:49:16.286Z</time></trkpt><trkpt lat="46.0607497" lon="13.3708004"><ele>105.66666666666667</ele><time>2026-03-22T09:49:17.315Z</time></trkpt><trkpt lat="46.0607051" lon="13.3710587"><ele>105.33333333333334</ele><time>2026-03-22T09:49:18.296Z</time></trkpt><trkpt lat="46.0606591" lon="13.3713233"><ele>105.0</ele><time>2026-03-22T09:49:19.317Z</time></trkpt><trkpt lat="46.0606129" lon="13.3715907"><ele>104.66666666666666</ele><time>2026-03-22T09:49:20.304Z</time></trkpt><trkpt lat="46.0605645" lon="13.3718608"><ele>104.33333333333333</ele><time>2026-03-22T09:49:21.311Z</time></trkpt><trkpt lat="46.0605151" lon="13.3721342"><ele>104.0</ele><time>2026-03-22T09:49:22.286Z</time></trkpt><trkpt lat="46.0604629" lon="13.37241"><ele>104.0</ele><time>2026-03-22T09:49:23.316Z</time></trkpt><trkpt lat="46.0604099" lon="13.3726878"><ele>104.0</ele><time>2026-03-22T09:49:24.29Z</time></trkpt><trkpt lat="46.0603571" lon="13.3729679"><ele>104.0</ele><time>2026-03-22T09:49:25.309Z</time></trkpt><trkpt lat="46.0603066" lon="13.3732498"><ele>104.66666666666666</ele><time>2026-03-22T09:49:26.288Z</time></trkpt><trkpt lat="46.0602543" lon="13.3735309"><ele>105.33333333333334</ele><time>2026-03-22T09:49:27.308Z</time></trkpt><trkpt lat="46.0601968" lon="13.3738209"><ele>106.0</ele><time>2026-03-22T09:49:28.299Z</time></trkpt><trkpt lat="46.0601378" lon="13.3741347"><ele>106.0</ele><time>2026-03-22T09:49:29.314Z</time></trkpt><trkpt lat="46.0600754" lon="13.3744733"><ele>106.0</ele><time>2026-03-22T09:49:30.297Z</time></trkpt><trkpt lat="46.0600069" lon="13.3748331"><ele>105.5</ele><time>2026-03-22T09:49:31.306Z</time></trkpt><trkpt lat="46.0599361" lon="13.3752024"><ele>105.0</ele><time>2026-03-22T09:49:32.301Z</time></trkpt><trkpt lat="46.0598665" lon="13.3755647"><ele>105.0</ele><time>2026-03-22T09:49:33.292Z</time></trkpt><trkpt lat="46.0598021" lon="13.3759128"><ele>105.0</ele><time>2026-03-22T09:49:34.313Z</time></trkpt><trkpt lat="46.0597402" lon="13.3762419"><ele>105.33333333333334</ele><time>2026-03-22T09:49:35.304Z</time></trkpt><trkpt lat="46.0596889" lon="13.3765533"><ele>105.66666666666667</ele><time>2026-03-22T09:49:36.288Z</time></trkpt><trkpt lat="46.0596377" lon="13.3768467"><ele>106.0</ele><time>2026-03-22T09:49:37.297Z</time></trkpt><trkpt lat="46.0595891" lon="13.3771301"><ele>105.66666666666667</ele><time>2026-03-22T09:49:38.316Z</time></trkpt><trkpt lat="46.0595374" lon="13.3774063"><ele>105.33333333333334</ele><time>2026-03-22T09:49:39.297Z</time></trkpt><trkpt lat="46.0594849" lon="13.3776768"><ele>105.0</ele><time>2026-03-22T09:49:40.309Z</time></trkpt><trkpt lat="46.0594354" lon="13.3779423"><ele>105.33333333333334</ele><time>2026-03-22T09:49:41.32Z</time></trkpt><trkpt lat="46.0593878" lon="13.3782006"><ele>105.66666666666667</ele><time>2026-03-22T09:49:42.315Z</time></trkpt><trkpt lat="46.0593443" lon="13.3784456"><ele>106.0</ele><time>2026-03-22T09:49:43.299Z</time></trkpt><trkpt lat="46.0593031" lon="13.3786768"><ele>106.5</ele><time>2026-03-22T09:49:44.296Z</time></trkpt><trkpt lat="46.059261" lon="13.3788922"><ele>107.0</ele><time>2026-03-22T09:49:45.306Z</time></trkpt><trkpt lat="46.0592239" lon="13.3790954"><ele>107.5</ele><time>2026-03-22T09:49:46.292Z</time></trkpt><trkpt lat="46.0591891" lon="13.3792959"><ele>108.0</ele><time>2026-03-22T09:49:47.321Z</time></trkpt><trkpt lat="46.0591543" lon="13.3794925"><ele>108.0</ele><time>2026-03-22T09:49:48.294Z</time></trkpt><trkpt lat="46.0591213" lon="13.3796784"><ele>108.0</ele><time>2026-03-22T09:49:49.317Z</time></trkpt><trkpt lat="46.0590909" lon="13.3798486"><ele>108.0</ele><time>2026-03-22T09:49:50.307Z</time></trkpt><trkpt lat="46.0590605" lon="13.3800034"><ele>108.0</ele><time>2026-03-22T09:49:51.308Z</time></trkpt><trkpt lat="46.0590328" lon="13.3801457"><ele>108.0</ele><time>2026-03-22T09:49:52.287Z</time></trkpt><trkpt lat="46.0590036" lon="13.3802728"><ele>108.0</ele><time>2026-03-22T09:49:53.291Z</time></trkpt><trkpt lat="46.0589639" lon="13.3803814"><ele>108.0</ele><time>2026-03-22T09:49:54.281Z</time></trkpt><trkpt lat="46.0589148" lon="13.3804723"><ele>108.0</ele><time>2026-03-22T09:49:55.286Z</time></trkpt><trkpt lat="46.0588593" lon="13.3805505"><ele>108.0</ele><time>2026-03-22T09:49:56.302Z</time></trkpt><trkpt lat="46.0587985" lon="13.3806186"><ele>108.0</ele><time>2026-03-22T09:49:57.309Z</time></trkpt><trkpt lat="46.0587485" lon="13.3807045"><ele>108.0</ele><time>2026-03-22T09:49:58.291Z</time></trkpt><trkpt lat="46.0587211" lon="13.3808118"><ele>108.0</ele><time>2026-03-22T09:49:59.301Z</time></trkpt><trkpt lat="46.0587225" lon="13.3809164"><ele>108.0</ele><time>2026-03-22T09:50:00.31Z</time></trkpt><trkpt lat="46.0587569" lon="13.3810119"><ele>108.0</ele><time>2026-03-22T09:50:01.303Z</time></trkpt><trkpt lat="46.0588117" lon="13.38108"><ele>108.0</ele><time>2026-03-22T09:50:02.285Z</time></trkpt><trkpt lat="46.0588935" lon="13.3811026"><ele>108.0</ele><time>2026-03-22T09:50:03.3Z</time></trkpt><trkpt lat="46.0589834" lon="13.3810692"><ele>108.0</ele><time>2026-03-22T09:50:04.294Z</time></trkpt><trkpt lat="46.0590832" lon="13.3810639"><ele>108.00000000000001</ele><time>2026-03-22T09:50:05.287Z</time></trkpt><trkpt lat="46.0591889" lon="13.3810788"><ele>108.00000000000001</ele><time>2026-03-22T09:50:06.285Z</time></trkpt><trkpt lat="46.0592996" lon="13.3811145"><ele>108.0</ele><time>2026-03-22T09:50:07.315Z</time></trkpt><trkpt lat="46.0594172" lon="13.381149"><ele>108.0</ele><time>2026-03-22T09:50:08.289Z</time></trkpt><trkpt lat="46.0595406" lon="13.381199"><ele>108.25</ele><time>2026-03-22T09:50:09.301Z</time></trkpt><trkpt lat="46.0596632" lon="13.3812452"><ele>108.5</ele><time>2026-03-22T09:50:10.296Z</time></trkpt><trkpt lat="46.0597876" lon="13.3813009"><ele>108.75</ele><time>2026-03-22T09:50:11.313Z</time></trkpt><trkpt lat="46.0599235" lon="13.3813584"><ele>109.0</ele><time>2026-03-22T09:50:12.294Z</time></trkpt><trkpt lat="46.0600663" lon="13.3814235"><ele>109.0</ele><time>2026-03-22T09:50:13.288Z</time></trkpt><trkpt lat="46.0602094" lon="13.3814925"><ele>109.0</ele><time>2026-03-22T09:50:14.292Z</time></trkpt><trkpt lat="46.0603532" lon="13.3815588"><ele>109.0</ele><time>2026-03-22T09:50:15.307Z</time></trkpt><trkpt lat="46.060498" lon="13.3816248"><ele>109.0</ele><time>2026-03-22T09:50:16.293Z</time></trkpt><trkpt lat="46.0606437" lon="13.3816891"><ele>109.0</ele><time>2026-03-22T09:50:17.304Z</time></trkpt><trkpt lat="46.0607899" lon="13.3817557"><ele>109.0</ele><time>2026-03-22T09:50:18.312Z</time></trkpt><trkpt lat="46.060937" lon="13.3818224"><ele>108.66666666666667</ele><time>2026-03-22T09:50:19.295Z</time></trkpt><trkpt lat="46.0610844" lon="13.3818887"><ele>108.33333333333334</ele><time>2026-03-22T09:50:20.3Z</time></trkpt><trkpt lat="46.0612302" lon="13.3819572"><ele>108.0</ele><time>2026-03-22T09:50:21.306Z</time></trkpt><trkpt lat="46.0613754" lon="13.3820246"><ele>108.0</ele><time>2026-03-22T09:50:22.312Z</time></trkpt><trkpt lat="46.0615202" lon="13.3820931"><ele>108.0</ele><time>2026-03-22T09:50:23.307Z</time></trkpt><trkpt lat="46.0616666" lon="13.3821599"><ele>108.0</ele><time>2026-03-22T09:50:24.292Z</time></trkpt><trkpt lat="46.0618143" lon="13.382225"><ele>107.66666666666666</ele><time>2026-03-22T09:50:25.299Z</time></trkpt><trkpt lat="46.0619621" lon="13.3822915"><ele>107.33333333333333</ele><time>2026-03-22T09:50:26.294Z</time></trkpt><trkpt lat="46.0621071" lon="13.3823687"><ele>107.0</ele><time>2026-03-22T09:50:27.29Z</time></trkpt><trkpt lat="46.0622544" lon="13.3824394"><ele>107.0</ele><time>2026-03-22T09:50:28.289Z</time></trkpt><trkpt lat="46.062409" lon="13.3825105"><ele>107.0</ele><time>2026-03-22T09:50:29.295Z</time></trkpt><trkpt lat="46.0625753" lon="13.3825928"><ele>107.0</ele><time>2026-03-22T09:50:30.291Z</time></trkpt><trkpt lat="46.0627619" lon="13.3826735"><ele>108.0</ele><time>2026-03-22T09:50:31.311Z</time></trkpt><trkpt lat="46.062971" lon="13.3827532"><ele>109.0</ele><time>2026-03-22T09:50:32.29Z</time></trkpt><trkpt lat="46.063203" lon="13.382831"><ele>109.5</ele><time>2026-03-22T09:50:33.301Z</time></trkpt><trkpt lat="46.0634579" lon="13.3828971"><ele>110.0</ele><time>2026-03-22T09:50:34.296Z</time></trkpt><trkpt lat="46.063733" lon="13.3829542"><ele>110.0</ele><time>2026-03-22T09:50:35.304Z</time></trkpt><trkpt lat="46.0640275" lon="13.3829885"><ele>110.0</ele><time>2026-03-22T09:50:36.288Z</time></trkpt><trkpt lat="46.0643336" lon="13.3830005"><ele>110.5</ele><time>2026-03-22T09:50:37.306Z</time></trkpt><trkpt lat="46.0646409" lon="13.3829974"><ele>111.0</ele><time>2026-03-22T09:50:38.316Z</time></trkpt><trkpt lat="46.0649448" lon="13.3829819"><ele>111.0</ele><time>2026-03-22T09:50:39.308Z</time></trkpt><trkpt lat="46.0652354" lon="13.3829685"><ele>111.0</ele><time>2026-03-22T09:50:40.287Z</time></trkpt><trkpt lat="46.0655073" lon="13.3829653"><ele>111.0</ele><time>2026-03-22T09:50:41.307Z</time></trkpt><trkpt lat="46.0657683" lon="13.3829671"><ele>111.0</ele><time>2026-03-22T09:50:42.293Z</time></trkpt><trkpt lat="46.0660258" lon="13.3829721"><ele>111.0</ele><time>2026-03-22T09:50:43.328Z</time></trkpt><trkpt lat="46.0662773" lon="13.3830322"><ele>111.0</ele><time>2026-03-22T09:50:44.301Z</time></trkpt><trkpt lat="46.0665273" lon="13.3830984"><ele>110.5</ele><time>2026-03-22T09:50:45.3Z</time></trkpt><trkpt lat="46.0667762" lon="13.3831805"><ele>110.0</ele><time>2026-03-22T09:50:46.378Z</time></trkpt><trkpt lat="46.0670205" lon="13.3832614"><ele>110.0</ele><time>2026-03-22T09:50:47.294Z</time></trkpt><trkpt lat="46.067256" lon="13.383332"><ele>110.0</ele><time>2026-03-22T09:50:48.289Z</time></trkpt><trkpt lat="46.06748" lon="13.3834045"><ele>110.66666666666666</ele><time>2026-03-22T09:50:49.301Z</time></trkpt><trkpt lat="46.0676953" lon="13.3834758"><ele>111.33333333333334</ele><time>2026-03-22T09:50:50.306Z</time></trkpt><trkpt lat="46.0679055" lon="13.3835422"><ele>112.0</ele><time>2026-03-22T09:50:51.302Z</time></trkpt><trkpt lat="46.0681122" lon="13.383607"><ele>111.0</ele><time>2026-03-22T09:50:52.299Z</time></trkpt><trkpt lat="46.068317" lon="13.3836667"><ele>110.0</ele><time>2026-03-22T09:50:53.297Z</time></trkpt><trkpt lat="46.068519" lon="13.3837301"><ele>109.0</ele><time>2026-03-22T09:50:54.298Z</time></trkpt><trkpt lat="46.0687198" lon="13.3837907"><ele>109.66666666666667</ele><time>2026-03-22T09:50:55.308Z</time></trkpt><trkpt lat="46.06892" lon="13.3838531"><ele>110.33333333333334</ele><time>2026-03-22T09:50:56.294Z</time></trkpt><trkpt lat="46.0691206" lon="13.3839164"><ele>111.0</ele><time>2026-03-22T09:50:57.296Z</time></trkpt><trkpt lat="46.0693233" lon="13.3839774"><ele>111.0</ele><time>2026-03-22T09:50:58.304Z</time></trkpt><trkpt lat="46.069527" lon="13.384042"><ele>111.0</ele><time>2026-03-22T09:50:59.315Z</time></trkpt><trkpt lat="46.0697314" lon="13.3841034"><ele>111.0</ele><time>2026-03-22T09:51:00.282Z</time></trkpt><trkpt lat="46.069935" lon="13.384164"><ele>111.33333333333334</ele><time>2026-03-22T09:51:01.302Z</time></trkpt><trkpt lat="46.0701375" lon="13.3842219"><ele>111.66666666666667</ele><time>2026-03-22T09:51:02.288Z</time></trkpt><trkpt lat="46.0703394" lon="13.3842844"><ele>112.0</ele><time>2026-03-22T09:51:03.287Z</time></trkpt><trkpt lat="46.070541" lon="13.3843474"><ele>112.0</ele><time>2026-03-22T09:51:04.287Z</time></trkpt><trkpt lat="46.0707427" lon="13.3844092"><ele>112.0</ele><time>2026-03-22T09:51:05.31Z</time></trkpt><trkpt lat="46.0709446" lon="13.3844698"><ele>112.0</ele><time>2026-03-22T09:51:06.285Z</time></trkpt><trkpt lat="46.0711469" lon="13.3845406"><ele>111.66666666666667</ele><time>2026-03-22T09:51:07.303Z</time></trkpt><trkpt lat="46.071351" lon="13.3846016"><ele>111.33333333333334</ele><time>2026-03-22T09:51:08.314Z</time></trkpt><trkpt lat="46.0715545" lon="13.384662"><ele>111.0</ele><time>2026-03-22T09:51:09.301Z</time></trkpt><trkpt lat="46.0717576" lon="13.3847204"><ele>110.66666666666666</ele><time>2026-03-22T09:51:10.293Z</time></trkpt><trkpt lat="46.0719603" lon="13.3847726"><ele>110.33333333333333</ele><time>2026-03-22T09:51:11.314Z</time></trkpt><trkpt lat="46.0721629" lon="13.3848261"><ele>110.0</ele><time>2026-03-22T09:51:12.289Z</time></trkpt><trkpt lat="46.0723637" lon="13.3848808"><ele>110.0</ele><time>2026-03-22T09:51:13.305Z</time></trkpt><trkpt lat="46.0725627" lon="13.3849404"><ele>110.0</ele><time>2026-03-22T09:51:14.304Z</time></trkpt><trkpt lat="46.0727606" lon="13.3850056"><ele>110.0</ele><time>2026-03-22T09:51:15.298Z</time></trkpt><trkpt lat="46.072958" lon="13.3850695"><ele>110.0</ele><time>2026-03-22T09:51:16.294Z</time></trkpt><trkpt lat="46.0731554" lon="13.3851317"><ele>110.0</ele><time>2026-03-22T09:51:17.297Z</time></trkpt><trkpt lat="46.0733532" lon="13.3851916"><ele>110.0</ele><time>2026-03-22T09:51:18.31Z</time></trkpt><trkpt lat="46.0735527" lon="13.3852419"><ele>110.33333333333333</ele><time>2026-03-22T09:51:19.321Z</time></trkpt><trkpt lat="46.0737532" lon="13.3852799"><ele>110.66666666666666</ele><time>2026-03-22T09:51:20.299Z</time></trkpt><trkpt lat="46.0739528" lon="13.3853158"><ele>111.0</ele><time>2026-03-22T09:51:21.303Z</time></trkpt><trkpt lat="46.0741522" lon="13.3853453"><ele>111.33333333333334</ele><time>2026-03-22T09:51:22.299Z</time></trkpt><trkpt lat="46.0743528" lon="13.3853668"><ele>111.66666666666667</ele><time>2026-03-22T09:51:23.312Z</time></trkpt><trkpt lat="46.0745544" lon="13.3853852"><ele>112.0</ele><time>2026-03-22T09:51:24.281Z</time></trkpt><trkpt lat="46.0747566" lon="13.3853955"><ele>112.33333333333334</ele><time>2026-03-22T09:51:25.303Z</time></trkpt><trkpt lat="46.0749594" lon="13.385396"><ele>112.66666666666666</ele><time>2026-03-22T09:51:26.283Z</time></trkpt><trkpt lat="46.0751636" lon="13.3853923"><ele>113.0</ele><time>2026-03-22T09:51:27.291Z</time></trkpt><trkpt lat="46.0753672" lon="13.3853779"><ele>113.0</ele><time>2026-03-22T09:51:28.289Z</time></trkpt><trkpt lat="46.0755692" lon="13.3853559"><ele>113.0</ele><time>2026-03-22T09:51:29.298Z</time></trkpt><trkpt lat="46.0757656" lon="13.3853264"><ele>113.0</ele><time>2026-03-22T09:51:30.293Z</time></trkpt><trkpt lat="46.0759527" lon="13.3852805"><ele>112.66666666666666</ele><time>2026-03-22T09:51:31.31Z</time></trkpt><trkpt lat="46.0761367" lon="13.3852363"><ele>112.33333333333334</ele><time>2026-03-22T09:51:32.292Z</time></trkpt><trkpt lat="46.0763172" lon="13.3852039"><ele>112.0</ele><time>2026-03-22T09:51:33.293Z</time></trkpt><trkpt lat="46.0764912" lon="13.3851629"><ele>111.66666666666667</ele><time>2026-03-22T09:51:34.301Z</time></trkpt><trkpt lat="46.0766638" lon="13.3851003"><ele>111.33333333333334</ele><time>2026-03-22T09:51:35.305Z</time></trkpt><trkpt lat="46.0768377" lon="13.3850701"><ele>111.0</ele><time>2026-03-22T09:51:36.284Z</time></trkpt><trkpt lat="46.0770127" lon="13.3850295"><ele>111.0</ele><time>2026-03-22T09:51:37.303Z</time></trkpt><trkpt lat="46.0771914" lon="13.3849832"><ele>111.0</ele><time>2026-03-22T09:51:38.298Z</time></trkpt><trkpt lat="46.0773748" lon="13.3849511"><ele>111.0</ele><time>2026-03-22T09:51:39.307Z</time></trkpt><trkpt lat="46.0775624" lon="13.3849151"><ele>111.66666666666666</ele><time>2026-03-22T09:51:40.293Z</time></trkpt><trkpt lat="46.0777532" lon="13.3848919"><ele>112.33333333333333</ele><time>2026-03-22T09:51:41.297Z</time></trkpt><trkpt lat="46.0779508" lon="13.3848732"><ele>113.0</ele><time>2026-03-22T09:51:42.297Z</time></trkpt><trkpt lat="46.0781604" lon="13.3848739"><ele>112.5</ele><time>2026-03-22T09:51:43.307Z</time></trkpt><trkpt lat="46.0783868" lon="13.3848821"><ele>112.0</ele><time>2026-03-22T09:51:44.304Z</time></trkpt><trkpt lat="46.0786279" lon="13.3848997"><ele>112.0</ele><time>2026-03-22T09:51:45.31Z</time></trkpt><trkpt lat="46.078884" lon="13.3849248"><ele>112.0</ele><time>2026-03-22T09:51:46.293Z</time></trkpt><trkpt lat="46.0791527" lon="13.3849602"><ele>112.0</ele><time>2026-03-22T09:51:47.291Z</time></trkpt><trkpt lat="46.0794231" lon="13.3850029"><ele>112.0</ele><time>2026-03-22T09:51:48.307Z</time></trkpt><trkpt lat="46.079685" lon="13.3850518"><ele>114.0</ele><time>2026-03-22T09:51:49.301Z</time></trkpt><trkpt lat="46.0799369" lon="13.3850925"><ele>116.0</ele><time>2026-03-22T09:51:50.313Z</time></trkpt><trkpt lat="46.0801788" lon="13.3851323"><ele>116.0</ele><time>2026-03-22T09:51:51.319Z</time></trkpt><trkpt lat="46.0804136" lon="13.3851759"><ele>116.0</ele><time>2026-03-22T09:51:52.293Z</time></trkpt><trkpt lat="46.0806374" lon="13.3852171"><ele>115.33333333333333</ele><time>2026-03-22T09:51:53.303Z</time></trkpt><trkpt lat="46.0808461" lon="13.3852502"><ele>114.66666666666666</ele><time>2026-03-22T09:51:54.317Z</time></trkpt><trkpt lat="46.0810393" lon="13.3852711"><ele>114.0</ele><time>2026-03-22T09:51:55.33Z</time></trkpt><trkpt lat="46.0812164" lon="13.385294"><ele>114.0</ele><time>2026-03-22T09:51:56.292Z</time></trkpt><trkpt lat="46.0813758" lon="13.3853086"><ele>114.0</ele><time>2026-03-22T09:51:57.318Z</time></trkpt><trkpt lat="46.0815082" lon="13.3853352"><ele>114.0</ele><time>2026-03-22T09:51:58.286Z</time></trkpt><trkpt lat="46.0816123" lon="13.3853597"><ele>114.0</ele><time>2026-03-22T09:51:59.309Z</time></trkpt><trkpt lat="46.0816889" lon="13.385387"><ele>114.2</ele><time>2026-03-22T09:52:00.298Z</time></trkpt><trkpt lat="46.0817816" lon="13.385446"><ele>114.4</ele><time>2026-03-22T09:52:02.297Z</time></trkpt><trkpt lat="46.0818389" lon="13.3855057"><ele>114.6</ele><time>2026-03-22T09:52:04.314Z</time></trkpt><trkpt lat="46.0818882" lon="13.385576"><ele>114.8</ele><time>2026-03-22T09:52:06.294Z</time></trkpt><trkpt lat="46.0819455" lon="13.3857467"><ele>115.0</ele><time>2026-03-22T09:52:08.302Z</time></trkpt><trkpt lat="46.0819845" lon="13.3858754"><ele>115.5</ele><time>2026-03-22T09:52:09.334Z</time></trkpt><trkpt lat="46.0820385" lon="13.3860326"><ele>116.0</ele><time>2026-03-22T09:52:10.295Z</time></trkpt><trkpt lat="46.0821175" lon="13.3862035"><ele>116.5</ele><time>2026-03-22T09:52:11.297Z</time></trkpt><trkpt lat="46.0822047" lon="13.386369"><ele>117.0</ele><time>2026-03-22T09:52:12.303Z</time></trkpt><trkpt lat="46.0823036" lon="13.3864966"><ele>117.0</ele><time>2026-03-22T09:52:13.318Z</time></trkpt><trkpt lat="46.0824017" lon="13.3866016"><ele>117.0</ele><time>2026-03-22T09:52:14.312Z</time></trkpt><trkpt lat="46.0824906" lon="13.3867088"><ele>117.0</ele><time>2026-03-22T09:52:15.313Z</time></trkpt><trkpt lat="46.0825599" lon="13.3868427"><ele>117.0</ele><time>2026-03-22T09:52:16.292Z</time></trkpt><trkpt lat="46.0825986" lon="13.3870017"><ele>117.25</ele><time>2026-03-22T09:52:17.305Z</time></trkpt><trkpt lat="46.0826176" lon="13.3871817"><ele>117.5</ele><time>2026-03-22T09:52:18.292Z</time></trkpt><trkpt lat="46.0826162" lon="13.3873839"><ele>117.75</ele><time>2026-03-22T09:52:19.309Z</time></trkpt><trkpt lat="46.0826129" lon="13.3875945"><ele>118.0</ele><time>2026-03-22T09:52:20.303Z</time></trkpt><trkpt lat="46.0826034" lon="13.387808"><ele>117.33333333333334</ele><time>2026-03-22T09:52:21.296Z</time></trkpt><trkpt lat="46.0825819" lon="13.3880266"><ele>116.66666666666666</ele><time>2026-03-22T09:52:22.298Z</time></trkpt><trkpt lat="46.082559" lon="13.3882499"><ele>116.0</ele><time>2026-03-22T09:52:23.316Z</time></trkpt><trkpt lat="46.0825307" lon="13.3884776"><ele>116.0</ele><time>2026-03-22T09:52:24.288Z</time></trkpt><trkpt lat="46.0825011" lon="13.3887144"><ele>116.0</ele><time>2026-03-22T09:52:25.312Z</time></trkpt><trkpt lat="46.0824859" lon="13.3889625"><ele>116.0</ele><time>2026-03-22T09:52:26.289Z</time></trkpt><trkpt lat="46.0824729" lon="13.3892177"><ele>116.33333333333333</ele><time>2026-03-22T09:52:27.309Z</time></trkpt><trkpt lat="46.0824695" lon="13.389482"><ele>116.66666666666666</ele><time>2026-03-22T09:52:28.306Z</time></trkpt><trkpt lat="46.0824694" lon="13.3897501"><ele>117.0</ele><time>2026-03-22T09:52:29.304Z</time></trkpt><trkpt lat="46.0824762" lon="13.3900209"><ele>117.66666666666666</ele><time>2026-03-22T09:52:30.298Z</time></trkpt><trkpt lat="46.0824764" lon="13.3902927"><ele>118.33333333333333</ele><time>2026-03-22T09:52:31.319Z</time></trkpt><trkpt lat="46.0824846" lon="13.3905642"><ele>119.0</ele><time>2026-03-22T09:52:32.304Z</time></trkpt><trkpt lat="46.0825026" lon="13.3908361"><ele>119.0</ele><time>2026-03-22T09:52:33.306Z</time></trkpt><trkpt lat="46.0825288" lon="13.3911029"><ele>119.0</ele><time>2026-03-22T09:52:34.312Z</time></trkpt><trkpt lat="46.0825626" lon="13.3913622"><ele>119.0</ele><time>2026-03-22T09:52:35.311Z</time></trkpt><trkpt lat="46.0826011" lon="13.3916157"><ele>119.33333333333333</ele><time>2026-03-22T09:52:36.291Z</time></trkpt><trkpt lat="46.082643" lon="13.3918643"><ele>119.66666666666666</ele><time>2026-03-22T09:52:37.303Z</time></trkpt><trkpt lat="46.082689" lon="13.3921088"><ele>120.0</ele><time>2026-03-22T09:52:38.286Z</time></trkpt><trkpt lat="46.082724" lon="13.3923577"><ele>120.0</ele><time>2026-03-22T09:52:39.303Z</time></trkpt><trkpt lat="46.0827756" lon="13.3926015"><ele>120.0</ele><time>2026-03-22T09:52:40.299Z</time></trkpt><trkpt lat="46.0828387" lon="13.392845"><ele>120.0</ele><time>2026-03-22T09:52:41.317Z</time></trkpt><trkpt lat="46.0829047" lon="13.3930916"><ele>120.0</ele><time>2026-03-22T09:52:42.285Z</time></trkpt><trkpt lat="46.0829753" lon="13.3933379"><ele>120.0</ele><time>2026-03-22T09:52:43.31Z</time></trkpt><trkpt lat="46.0830433" lon="13.393578"><ele>120.0</ele><time>2026-03-22T09:52:44.299Z</time></trkpt><trkpt lat="46.0831064" lon="13.3938102"><ele>120.33333333333334</ele><time>2026-03-22T09:52:45.311Z</time></trkpt><trkpt lat="46.0831716" lon="13.3940364"><ele>120.66666666666667</ele><time>2026-03-22T09:52:46.289Z</time></trkpt><trkpt lat="46.0832339" lon="13.3942586"><ele>121.0</ele><time>2026-03-22T09:52:47.322Z</time></trkpt><trkpt lat="46.0832968" lon="13.3944791"><ele>120.66666666666667</ele><time>2026-03-22T09:52:48.291Z</time></trkpt><trkpt lat="46.08336" lon="13.3947007"><ele>120.33333333333334</ele><time>2026-03-22T09:52:49.308Z</time></trkpt><trkpt lat="46.0834233" lon="13.3949269"><ele>120.0</ele><time>2026-03-22T09:52:50.286Z</time></trkpt><trkpt lat="46.0834871" lon="13.3951596"><ele>120.0</ele><time>2026-03-22T09:52:51.303Z</time></trkpt><trkpt lat="46.0835512" lon="13.3954005"><ele>120.0</ele><time>2026-03-22T09:52:52.294Z</time></trkpt><trkpt lat="46.0836179" lon="13.3956457"><ele>120.0</ele><time>2026-03-22T09:52:53.29Z</time></trkpt><trkpt lat="46.0836787" lon="13.395899"><ele>120.0</ele><time>2026-03-22T09:52:54.296Z</time></trkpt><trkpt lat="46.0837381" lon="13.3961494"><ele>120.0</ele><time>2026-03-22T09:52:55.314Z</time></trkpt><trkpt lat="46.0837961" lon="13.3963966"><ele>120.0</ele><time>2026-03-22T09:52:56.292Z</time></trkpt><trkpt lat="46.0838532" lon="13.3966424"><ele>119.66666666666666</ele><time>2026-03-22T09:52:57.294Z</time></trkpt><trkpt lat="46.0839095" lon="13.3968879"><ele>119.33333333333333</ele><time>2026-03-22T09:52:58.292Z</time></trkpt><trkpt lat="46.0839632" lon="13.3971333"><ele>119.0</ele><time>2026-03-22T09:52:59.297Z</time></trkpt><trkpt lat="46.0840079" lon="13.3973775"><ele>118.66666666666666</ele><time>2026-03-22T09:53:00.32Z</time></trkpt><trkpt lat="46.084053" lon="13.3976108"><ele>118.33333333333334</ele><time>2026-03-22T09:53:01.324Z</time></trkpt><trkpt lat="46.0841042" lon="13.3978275"><ele>118.0</ele><time>2026-03-22T09:53:02.303Z</time></trkpt><trkpt lat="46.0841489" lon="13.3980315"><ele>118.0</ele><time>2026-03-22T09:53:03.313Z</time></trkpt><trkpt lat="46.0841924" lon="13.398224"><ele>118.0</ele><time>2026-03-22T09:53:04.3Z</time></trkpt><trkpt lat="46.0842322" lon="13.3984065"><ele>118.0</ele><time>2026-03-22T09:53:05.304Z</time></trkpt><trkpt lat="46.0842702" lon="13.3985866"><ele>118.0</ele><time>2026-03-22T09:53:06.3Z</time></trkpt><trkpt lat="46.08431" lon="13.3987739"><ele>118.75</ele><time>2026-03-22T09:53:07.3Z</time></trkpt><trkpt lat="46.084344" lon="13.3989667"><ele>119.5</ele><time>2026-03-22T09:53:08.296Z</time></trkpt><trkpt lat="46.08439" lon="13.3991513"><ele>120.25</ele><time>2026-03-22T09:53:09.296Z</time></trkpt><trkpt lat="46.0844346" lon="13.399332"><ele>121.0</ele><time>2026-03-22T09:53:10.305Z</time></trkpt><trkpt lat="46.0844806" lon="13.3995134"><ele>120.5</ele><time>2026-03-22T09:53:11.296Z</time></trkpt><trkpt lat="46.084531" lon="13.3996955"><ele>120.0</ele><time>2026-03-22T09:53:12.282Z</time></trkpt><trkpt lat="46.0845854" lon="13.3998787"><ele>119.5</ele><time>2026-03-22T09:53:13.281Z</time></trkpt><trkpt lat="46.0846383" lon="13.4000645"><ele>119.0</ele><time>2026-03-22T09:53:14.311Z</time></trkpt><trkpt lat="46.0846963" lon="13.4002493"><ele>119.0</ele><time>2026-03-22T09:53:15.283Z</time></trkpt><trkpt lat="46.0847614" lon="13.4004317"><ele>119.0</ele><time>2026-03-22T09:53:16.28Z</time></trkpt><trkpt lat="46.0848263" lon="13.4006139"><ele>119.0</ele><time>2026-03-22T09:53:17.291Z</time></trkpt><trkpt lat="46.0848891" lon="13.4007952"><ele>119.0</ele><time>2026-03-22T09:53:18.284Z</time></trkpt><trkpt lat="46.0849551" lon="13.4009733"><ele>119.25</ele><time>2026-03-22T09:53:19.282Z</time></trkpt><trkpt lat="46.0850193" lon="13.4011517"><ele>119.5</ele><time>2026-03-22T09:53:20.284Z</time></trkpt><trkpt lat="46.0850828" lon="13.401331"><ele>119.75</ele><time>2026-03-22T09:53:21.283Z</time></trkpt><trkpt lat="46.0851488" lon="13.4015092"><ele>120.0</ele><time>2026-03-22T09:53:22.29Z</time></trkpt><trkpt lat="46.0852159" lon="13.4016905"><ele>120.0</ele><time>2026-03-22T09:53:23.301Z</time></trkpt><trkpt lat="46.0852901" lon="13.4018912"><ele>120.0</ele><time>2026-03-22T09:53:24.292Z</time></trkpt><trkpt lat="46.085373" lon="13.402124"><ele>120.0</ele><time>2026-03-22T09:53:25.278Z</time></trkpt><trkpt lat="46.0854679" lon="13.4023795"><ele>120.0</ele><time>2026-03-22T09:53:26.288Z</time></trkpt><trkpt lat="46.0855697" lon="13.4026633"><ele>120.0</ele><time>2026-03-22T09:53:27.293Z</time></trkpt><trkpt lat="46.0856806" lon="13.40297"><ele>120.5</ele><time>2026-03-22T09:53:28.287Z</time></trkpt><trkpt lat="46.0857961" lon="13.4032869"><ele>121.0</ele><time>2026-03-22T09:53:29.286Z</time></trkpt><trkpt lat="46.0859355" lon="13.4035896"><ele>119.5</ele><time>2026-03-22T09:53:30.3Z</time></trkpt><trkpt lat="46.0860649" lon="13.4039002"><ele>118.0</ele><time>2026-03-22T09:53:31.297Z</time></trkpt><trkpt lat="46.0861847" lon="13.4042167"><ele>118.0</ele><time>2026-03-22T09:53:32.305Z</time></trkpt><trkpt lat="46.0863201" lon="13.4045115"><ele>118.0</ele><time>2026-03-22T09:53:33.309Z</time></trkpt><trkpt lat="46.0864674" lon="13.4047927"><ele>118.5</ele><time>2026-03-22T09:53:34.29Z</time></trkpt><trkpt lat="46.0866239" lon="13.4050645"><ele>119.0</ele><time>2026-03-22T09:53:35.295Z</time></trkpt><trkpt lat="46.086776" lon="13.4053394"><ele>119.5</ele><time>2026-03-22T09:53:36.285Z</time></trkpt><trkpt lat="46.0869461" lon="13.4055977"><ele>120.0</ele><time>2026-03-22T09:53:37.342Z</time></trkpt><trkpt lat="46.0871079" lon="13.4058555"><ele>120.0</ele><time>2026-03-22T09:53:38.303Z</time></trkpt><trkpt lat="46.0872664" lon="13.4061048"><ele>120.0</ele><time>2026-03-22T09:53:39.316Z</time></trkpt><trkpt lat="46.0874097" lon="13.4063585"><ele>120.33333333333334</ele><time>2026-03-22T09:53:40.302Z</time></trkpt><trkpt lat="46.0875602" lon="13.4065931"><ele>120.66666666666667</ele><time>2026-03-22T09:53:41.3Z</time></trkpt><trkpt lat="46.0877039" lon="13.4068229"><ele>121.0</ele><time>2026-03-22T09:53:42.295Z</time></trkpt><trkpt lat="46.0878437" lon="13.4070465"><ele>122.0</ele><time>2026-03-22T09:53:43.29Z</time></trkpt><trkpt lat="46.0879769" lon="13.4072674"><ele>123.0</ele><time>2026-03-22T09:53:44.315Z</time></trkpt><trkpt lat="46.0881061" lon="13.4074838"><ele>124.0</ele><time>2026-03-22T09:53:45.283Z</time></trkpt><trkpt lat="46.0882323" lon="13.4076978"><ele>123.66666666666667</ele><time>2026-03-22T09:53:46.289Z</time></trkpt><trkpt lat="46.0883567" lon="13.4079093"><ele>123.33333333333334</ele><time>2026-03-22T09:53:47.297Z</time></trkpt><trkpt lat="46.0884802" lon="13.4081181"><ele>123.0</ele><time>2026-03-22T09:53:48.29Z</time></trkpt><trkpt lat="46.0886038" lon="13.4083214"><ele>123.0</ele><time>2026-03-22T09:53:49.311Z</time></trkpt><trkpt lat="46.0887259" lon="13.4085177"><ele>123.0</ele><time>2026-03-22T09:53:50.296Z</time></trkpt><trkpt lat="46.0888434" lon="13.408708"><ele>123.0</ele><time>2026-03-22T09:53:51.307Z</time></trkpt><trkpt lat="46.0889543" lon="13.4088909"><ele>123.33333333333334</ele><time>2026-03-22T09:53:52.311Z</time></trkpt><trkpt lat="46.0890617" lon="13.4090671"><ele>123.66666666666667</ele><time>2026-03-22T09:53:53.295Z</time></trkpt><trkpt lat="46.0891665" lon="13.409239"><ele>124.0</ele><time>2026-03-22T09:53:54.303Z</time></trkpt><trkpt lat="46.0892686" lon="13.4094091"><ele>124.0</ele><time>2026-03-22T09:53:55.29Z</time></trkpt><trkpt lat="46.0893696" lon="13.4095804"><ele>124.0</ele><time>2026-03-22T09:53:56.289Z</time></trkpt><trkpt lat="46.0894686" lon="13.409758"><ele>124.0</ele><time>2026-03-22T09:53:57.297Z</time></trkpt><trkpt lat="46.0895592" lon="13.4099498"><ele>123.66666666666667</ele><time>2026-03-22T09:53:58.303Z</time></trkpt><trkpt lat="46.089636" lon="13.4101565"><ele>123.33333333333334</ele><time>2026-03-22T09:53:59.305Z</time></trkpt><trkpt lat="46.0897077" lon="13.4103716"><ele>123.0</ele><time>2026-03-22T09:54:00.304Z</time></trkpt><trkpt lat="46.089771" lon="13.4105968"><ele>123.0</ele><time>2026-03-22T09:54:01.299Z</time></trkpt><trkpt lat="46.0898275" lon="13.410827"><ele>123.0</ele><time>2026-03-22T09:54:02.308Z</time></trkpt><trkpt lat="46.0898617" lon="13.4110688"><ele>123.0</ele><time>2026-03-22T09:54:03.288Z</time></trkpt><trkpt lat="46.0898777" lon="13.41132"><ele>123.0</ele><time>2026-03-22T09:54:04.302Z</time></trkpt><trkpt lat="46.0898961" lon="13.411572"><ele>123.0</ele><time>2026-03-22T09:54:05.324Z</time></trkpt><trkpt lat="46.0899" lon="13.4118277"><ele>123.0</ele><time>2026-03-22T09:54:06.29Z</time></trkpt><trkpt lat="46.0898836" lon="13.4120814"><ele>123.0</ele><time>2026-03-22T09:54:07.305Z</time></trkpt><trkpt lat="46.0898573" lon="13.4123355"><ele>123.0</ele><time>2026-03-22T09:54:08.294Z</time></trkpt><trkpt lat="46.0898508" lon="13.4125829"><ele>123.0</ele><time>2026-03-22T09:54:09.301Z</time></trkpt><trkpt lat="46.0898552" lon="13.4128307"><ele>123.66666666666666</ele><time>2026-03-22T09:54:10.278Z</time></trkpt><trkpt lat="46.0898681" lon="13.4130761"><ele>124.33333333333333</ele><time>2026-03-22T09:54:11.31Z</time></trkpt><trkpt lat="46.0898919" lon="13.4133175"><ele>125.0</ele><time>2026-03-22T09:54:12.279Z</time></trkpt><trkpt lat="46.0899284" lon="13.4135535"><ele>126.33333333333333</ele><time>2026-03-22T09:54:13.293Z</time></trkpt><trkpt lat="46.0899639" lon="13.4137901"><ele>127.66666666666666</ele><time>2026-03-22T09:54:14.287Z</time></trkpt><trkpt lat="46.0900106" lon="13.4140225"><ele>129.0</ele><time>2026-03-22T09:54:15.277Z</time></trkpt><trkpt lat="46.0900769" lon="13.4142472"><ele>129.0</ele><time>2026-03-22T09:54:16.29Z</time></trkpt><trkpt lat="46.0901562" lon="13.4144644"><ele>129.0</ele><time>2026-03-22T09:54:17.28Z</time></trkpt><trkpt lat="46.0902429" lon="13.4146702"><ele>129.0</ele><time>2026-03-22T09:54:18.313Z</time></trkpt><trkpt lat="46.0903273" lon="13.4148737"><ele>128.66666666666666</ele><time>2026-03-22T09:54:19.316Z</time></trkpt><trkpt lat="46.0904071" lon="13.4150804"><ele>128.33333333333331</ele><time>2026-03-22T09:54:20.283Z</time></trkpt><trkpt lat="46.0904837" lon="13.4152845"><ele>128.0</ele><time>2026-03-22T09:54:21.305Z</time></trkpt><trkpt lat="46.0905411" lon="13.4154886"><ele>128.0</ele><time>2026-03-22T09:54:22.3Z</time></trkpt><trkpt lat="46.0906046" lon="13.4156761"><ele>128.0</ele><time>2026-03-22T09:54:23.296Z</time></trkpt><trkpt lat="46.0906654" lon="13.4158548"><ele>128.0</ele><time>2026-03-22T09:54:24.28Z</time></trkpt><trkpt lat="46.0907265" lon="13.4160253"><ele>128.0</ele><time>2026-03-22T09:54:25.283Z</time></trkpt><trkpt lat="46.0907864" lon="13.4161936"><ele>127.5</ele><time>2026-03-22T09:54:26.29Z</time></trkpt><trkpt lat="46.0908456" lon="13.4163642"><ele>127.0</ele><time>2026-03-22T09:54:27.282Z</time></trkpt><trkpt lat="46.0909033" lon="13.4165314"><ele>126.5</ele><time>2026-03-22T09:54:28.3Z</time></trkpt><trkpt lat="46.0909565" lon="13.4166875"><ele>126.0</ele><time>2026-03-22T09:54:29.307Z</time></trkpt><trkpt lat="46.0910056" lon="13.4168346"><ele>126.0</ele><time>2026-03-22T09:54:30.288Z</time></trkpt><trkpt lat="46.0910557" lon="13.416977"><ele>126.0</ele><time>2026-03-22T09:54:31.334Z</time></trkpt><trkpt lat="46.0911039" lon="13.4171222"><ele>126.0</ele><time>2026-03-22T09:54:32.282Z</time></trkpt><trkpt lat="46.0911504" lon="13.4172663"><ele>126.0</ele><time>2026-03-22T09:54:33.3Z</time></trkpt><trkpt lat="46.091192" lon="13.4174062"><ele>126.0</ele><time>2026-03-22T09:54:34.295Z</time></trkpt><trkpt lat="46.0912295" lon="13.4175411"><ele>126.4</ele><time>2026-03-22T09:54:35.295Z</time></trkpt><trkpt lat="46.0912646" lon="13.4176747"><ele>126.8</ele><time>2026-03-22T09:54:36.293Z</time></trkpt><trkpt lat="46.0913087" lon="13.4178056"><ele>127.20000000000002</ele><time>2026-03-22T09:54:37.302Z</time></trkpt><trkpt lat="46.0913423" lon="13.4179408"><ele>127.60000000000001</ele><time>2026-03-22T09:54:38.28Z</time></trkpt><trkpt lat="46.0913855" lon="13.4180629"><ele>128.0</ele><time>2026-03-22T09:54:39.303Z</time></trkpt><trkpt lat="46.0914308" lon="13.4181779"><ele>128.16666666666666</ele><time>2026-03-22T09:54:40.296Z</time></trkpt><trkpt lat="46.0914775" lon="13.4182862"><ele>128.33333333333331</ele><time>2026-03-22T09:54:41.29Z</time></trkpt><trkpt lat="46.0915118" lon="13.4184017"><ele>128.5</ele><time>2026-03-22T09:54:42.287Z</time></trkpt><trkpt lat="46.0915629" lon="13.4185017"><ele>128.66666666666666</ele><time>2026-03-22T09:54:43.297Z</time></trkpt><trkpt lat="46.0915871" lon="13.4186045"><ele>128.83333333333334</ele><time>2026-03-22T09:54:44.279Z</time></trkpt><trkpt lat="46.0915999" lon="13.4187038"><ele>129.0</ele><time>2026-03-22T09:54:45.289Z</time></trkpt><trkpt lat="46.0915968" lon="13.4187963"><ele>129.16666666666666</ele><time>2026-03-22T09:54:46.282Z</time></trkpt><trkpt lat="46.091608" lon="13.4189322"><ele>129.33333333333334</ele><time>2026-03-22T09:54:48.294Z</time></trkpt><trkpt lat="46.0916129" lon="13.4190422"><ele>129.5</ele><time>2026-03-22T09:54:50.286Z</time></trkpt><trkpt lat="46.0916115" lon="13.4191379"><ele>129.66666666666669</ele><time>2026-03-22T09:54:52.299Z</time></trkpt><trkpt lat="46.0915993" lon="13.4192619"><ele>129.83333333333334</ele><time>2026-03-22T09:54:55.301Z</time></trkpt><trkpt lat="46.0915785" lon="13.4194315"><ele>130.0</ele><time>2026-03-22T09:54:57.303Z</time></trkpt><trkpt lat="46.0915682" lon="13.4195329"><ele>129.83333333333334</ele><time>2026-03-22T09:54:58.297Z</time></trkpt><trkpt lat="46.0915869" lon="13.4196204"><ele>129.66666666666669</ele><time>2026-03-22T09:54:59.286Z</time></trkpt><trkpt lat="46.0916331" lon="13.4196883"><ele>129.5</ele><time>2026-03-22T09:55:00.291Z</time></trkpt><trkpt lat="46.0916979" lon="13.4197419"><ele>129.33333333333334</ele><time>2026-03-22T09:55:01.305Z</time></trkpt><trkpt lat="46.091771" lon="13.4197989"><ele>129.16666666666666</ele><time>2026-03-22T09:55:02.305Z</time></trkpt><trkpt lat="46.0918443" lon="13.4198653"><ele>129.0</ele><time>2026-03-22T09:55:03.299Z</time></trkpt><trkpt lat="46.0919182" lon="13.4199453"><ele>129.0</ele><time>2026-03-22T09:55:04.283Z</time></trkpt><trkpt lat="46.0919975" lon="13.420039"><ele>129.0</ele><time>2026-03-22T09:55:05.305Z</time></trkpt><trkpt lat="46.0920795" lon="13.4201311"><ele>129.0</ele><time>2026-03-22T09:55:06.287Z</time></trkpt><trkpt lat="46.0921596" lon="13.4202196"><ele>129.0</ele><time>2026-03-22T09:55:07.282Z</time></trkpt><trkpt lat="46.0922344" lon="13.4202984"><ele>129.0</ele><time>2026-03-22T09:55:08.29Z</time></trkpt><trkpt lat="46.092307" lon="13.4203724"><ele>129.0</ele><time>2026-03-22T09:55:09.3Z</time></trkpt><trkpt lat="46.0923802" lon="13.4204484"><ele>129.0</ele><time>2026-03-22T09:55:10.302Z</time></trkpt><trkpt lat="46.0924517" lon="13.4205242"><ele>129.0</ele><time>2026-03-22T09:55:11.295Z</time></trkpt><trkpt lat="46.0925203" lon="13.4205954"><ele>129.0</ele><time>2026-03-22T09:55:12.281Z</time></trkpt><trkpt lat="46.0925848" lon="13.4206617"><ele>129.0</ele><time>2026-03-22T09:55:13.284Z</time></trkpt><trkpt lat="46.0926477" lon="13.4207279"><ele>129.0</ele><time>2026-03-22T09:55:14.293Z</time></trkpt><trkpt lat="46.092715" lon="13.4208039"><ele>130.0</ele><time>2026-03-22T09:55:15.281Z</time></trkpt><trkpt lat="46.0927941" lon="13.4208833"><ele>131.0</ele><time>2026-03-22T09:55:16.288Z</time></trkpt><trkpt lat="46.092883" lon="13.4209773"><ele>132.0</ele><time>2026-03-22T09:55:17.302Z</time></trkpt><trkpt lat="46.0929764" lon="13.4210725"><ele>133.0</ele><time>2026-03-22T09:55:18.291Z</time></trkpt><trkpt lat="46.093064" lon="13.4211637"><ele>134.0</ele><time>2026-03-22T09:55:19.303Z</time></trkpt><trkpt lat="46.0931413" lon="13.4212405"><ele>134.0</ele><time>2026-03-22T09:55:20.294Z</time></trkpt><trkpt lat="46.0932085" lon="13.4213094"><ele>134.0</ele><time>2026-03-22T09:55:21.28Z</time></trkpt><trkpt lat="46.0932622" lon="13.4213869"><ele>134.0</ele><time>2026-03-22T09:55:22.297Z</time></trkpt><trkpt lat="46.0933271" lon="13.4214374"><ele>134.0</ele><time>2026-03-22T09:55:23.308Z</time></trkpt><trkpt lat="46.0933784" lon="13.4215084"><ele>134.0</ele><time>2026-03-22T09:55:24.305Z</time></trkpt><trkpt lat="46.093445" lon="13.4215615"><ele>134.0</ele><time>2026-03-22T09:55:25.29Z</time></trkpt><trkpt lat="46.0935152" lon="13.4216232"><ele>133.8</ele><time>2026-03-22T09:55:26.284Z</time></trkpt><trkpt lat="46.093587" lon="13.4216898"><ele>133.60000000000002</ele><time>2026-03-22T09:55:27.319Z</time></trkpt><trkpt lat="46.0936584" lon="13.4217659"><ele>133.4</ele><time>2026-03-22T09:55:28.302Z</time></trkpt><trkpt lat="46.093729" lon="13.4218477"><ele>133.20000000000002</ele><time>2026-03-22T09:55:29.296Z</time></trkpt><trkpt lat="46.0938013" lon="13.4219329"><ele>133.0</ele><time>2026-03-22T09:55:30.278Z</time></trkpt><trkpt lat="46.0938765" lon="13.4220186"><ele>133.0</ele><time>2026-03-22T09:55:31.284Z</time></trkpt><trkpt lat="46.0939548" lon="13.4220949"><ele>133.0</ele><time>2026-03-22T09:55:32.292Z</time></trkpt><trkpt lat="46.0940267" lon="13.4221767"><ele>133.0</ele><time>2026-03-22T09:55:33.321Z</time></trkpt><trkpt lat="46.0940929" lon="13.4222605"><ele>133.0</ele><time>2026-03-22T09:55:34.301Z</time></trkpt><trkpt lat="46.0941524" lon="13.4223501"><ele>133.0</ele><time>2026-03-22T09:55:35.285Z</time></trkpt><trkpt lat="46.0942098" lon="13.4224424"><ele>133.0</ele><time>2026-03-22T09:55:36.29Z</time></trkpt><trkpt lat="46.0942681" lon="13.42254"><ele>132.8</ele><time>2026-03-22T09:55:37.298Z</time></trkpt><trkpt lat="46.0943346" lon="13.4226371"><ele>132.60000000000002</ele><time>2026-03-22T09:55:38.283Z</time></trkpt><trkpt lat="46.0943894" lon="13.4227606"><ele>132.39999999999998</ele><time>2026-03-22T09:55:39.31Z</time></trkpt><trkpt lat="46.0944449" lon="13.4228972"><ele>132.2</ele><time>2026-03-22T09:55:40.297Z</time></trkpt><trkpt lat="46.0945047" lon="13.423044"><ele>132.0</ele><time>2026-03-22T09:55:41.31Z</time></trkpt><trkpt lat="46.0945628" lon="13.4231989"><ele>132.0</ele><time>2026-03-22T09:55:42.294Z</time></trkpt><trkpt lat="46.0946196" lon="13.4233499"><ele>132.0</ele><time>2026-03-22T09:55:43.288Z</time></trkpt><trkpt lat="46.0946656" lon="13.4234989"><ele>132.0</ele><time>2026-03-22T09:55:44.302Z</time></trkpt><trkpt lat="46.0947127" lon="13.4236185"><ele>132.0</ele><time>2026-03-22T09:55:45.308Z</time></trkpt><trkpt lat="46.0947492" lon="13.4237022"><ele>132.0</ele><time>2026-03-22T09:55:46.31Z</time></trkpt><trkpt lat="46.0947673" lon="13.423803"><ele>132.0</ele><time>2026-03-22T09:55:48.284Z</time></trkpt><trkpt lat="46.0947432" lon="13.4239023"><ele>132.0</ele><time>2026-03-22T09:55:50.316Z</time></trkpt><trkpt lat="46.0947644" lon="13.42408"><ele>132.0</ele><time>2026-03-22T09:55:56.303Z</time></trkpt><trkpt lat="46.0947813" lon="13.424174"><ele>132.0</ele><time>2026-03-22T09:55:58.28Z</time></trkpt><trkpt lat="46.0948087" lon="13.4243136"><ele>132.0</ele><time>2026-03-22T09:56:00.282Z</time></trkpt><trkpt lat="46.0948607" lon="13.4243735"><ele>132.0</ele><time>2026-03-22T09:56:01.314Z</time></trkpt><trkpt lat="46.0949589" lon="13.4244736"><ele>132.0</ele><time>2026-03-22T09:56:03.316Z</time></trkpt><trkpt lat="46.0950406" lon="13.4244672"><ele>132.0</ele><time>2026-03-22T09:56:04.3Z</time></trkpt><trkpt lat="46.0951132" lon="13.4244562"><ele>132.0</ele><time>2026-03-22T09:56:05.301Z</time></trkpt><trkpt lat="46.0951803" lon="13.4244309"><ele>132.0</ele><time>2026-03-22T09:56:06.297Z</time></trkpt><trkpt lat="46.0952463" lon="13.4244214"><ele>132.0</ele><time>2026-03-22T09:56:07.311Z</time></trkpt><trkpt lat="46.095309" lon="13.4244349"><ele>132.0</ele><time>2026-03-22T09:56:08.293Z</time></trkpt><trkpt lat="46.095372" lon="13.4244577"><ele>132.0</ele><time>2026-03-22T09:56:09.3Z</time></trkpt><trkpt lat="46.0954826" lon="13.424456"><ele>132.0</ele><time>2026-03-22T09:56:11.309Z</time></trkpt><trkpt lat="46.0955825" lon="13.4245034"><ele>132.0</ele><time>2026-03-22T09:56:13.329Z</time></trkpt><trkpt lat="46.0956772" lon="13.4246099"><ele>132.0</ele><time>2026-03-22T09:56:15.311Z</time></trkpt><trkpt lat="46.0957074" lon="13.4247067"><ele>132.0</ele><time>2026-03-22T09:56:16.29Z</time></trkpt><trkpt lat="46.095723" lon="13.4248053"><ele>132.0</ele><time>2026-03-22T09:56:17.313Z</time></trkpt><trkpt lat="46.0957315" lon="13.4249021"><ele>132.0</ele><time>2026-03-22T09:56:18.307Z</time></trkpt><trkpt lat="46.0957304" lon="13.4250033"><ele>132.16666666666666</ele><time>2026-03-22T09:56:19.309Z</time></trkpt><trkpt lat="46.095729" lon="13.4251156"><ele>132.33333333333334</ele><time>2026-03-22T09:56:20.291Z</time></trkpt><trkpt lat="46.0957254" lon="13.4252366"><ele>132.5</ele><time>2026-03-22T09:56:21.303Z</time></trkpt><trkpt lat="46.0957155" lon="13.4253612"><ele>132.66666666666669</ele><time>2026-03-22T09:56:22.309Z</time></trkpt><trkpt lat="46.0957161" lon="13.4254886"><ele>132.83333333333334</ele><time>2026-03-22T09:56:23.309Z</time></trkpt><trkpt lat="46.0957189" lon="13.4256214"><ele>133.0</ele><time>2026-03-22T09:56:24.303Z</time></trkpt><trkpt lat="46.0957232" lon="13.4257608"><ele>133.0</ele><time>2026-03-22T09:56:25.303Z</time></trkpt><trkpt lat="46.0957258" lon="13.4259031"><ele>133.0</ele><time>2026-03-22T09:56:26.287Z</time></trkpt><trkpt lat="46.095728" lon="13.4260466"><ele>133.0</ele><time>2026-03-22T09:56:27.309Z</time></trkpt><trkpt lat="46.0957316" lon="13.4261912"><ele>133.0</ele><time>2026-03-22T09:56:28.287Z</time></trkpt><trkpt lat="46.0957289" lon="13.4263341"><ele>133.0</ele><time>2026-03-22T09:56:29.312Z</time></trkpt><trkpt lat="46.0957299" lon="13.426471"><ele>133.14285714285714</ele><time>2026-03-22T09:56:30.292Z</time></trkpt><trkpt lat="46.0957323" lon="13.4265997"><ele>133.28571428571428</ele><time>2026-03-22T09:56:31.321Z</time></trkpt><trkpt lat="46.0957319" lon="13.4267187"><ele>133.42857142857144</ele><time>2026-03-22T09:56:32.301Z</time></trkpt><trkpt lat="46.0957255" lon="13.4268286"><ele>133.57142857142856</ele><time>2026-03-22T09:56:33.296Z</time></trkpt><trkpt lat="46.0957082" lon="13.4269289"><ele>133.71428571428572</ele><time>2026-03-22T09:56:34.296Z</time></trkpt><trkpt lat="46.0956748" lon="13.4270099"><ele>133.85714285714286</ele><time>2026-03-22T09:56:35.308Z</time></trkpt><trkpt lat="46.0956388" lon="13.427085"><ele>134.0</ele><time>2026-03-22T09:56:36.303Z</time></trkpt><trkpt lat="46.0956114" lon="13.4272334"><ele>134.0</ele><time>2026-03-22T09:56:38.294Z</time></trkpt><trkpt lat="46.0956405" lon="13.4273675"><ele>134.0</ele><time>2026-03-22T09:56:40.293Z</time></trkpt><trkpt lat="46.0956816" lon="13.4274438"><ele>134.0</ele><time>2026-03-22T09:56:41.312Z</time></trkpt><trkpt lat="46.0957471" lon="13.4275401"><ele>134.0</ele><time>2026-03-22T09:56:42.297Z</time></trkpt><trkpt lat="46.0958147" lon="13.4276727"><ele>134.0</ele><time>2026-03-22T09:56:43.287Z</time></trkpt><trkpt lat="46.0958724" lon="13.4278253"><ele>135.0</ele><time>2026-03-22T09:56:44.288Z</time></trkpt><trkpt lat="46.0959177" lon="13.4279832"><ele>136.0</ele><time>2026-03-22T09:56:45.32Z</time></trkpt><trkpt lat="46.0959611" lon="13.4281384"><ele>137.0</ele><time>2026-03-22T09:56:46.306Z</time></trkpt><trkpt lat="46.0960039" lon="13.4282988"><ele>138.0</ele><time>2026-03-22T09:56:47.297Z</time></trkpt><trkpt lat="46.0960421" lon="13.4284673"><ele>138.0</ele><time>2026-03-22T09:56:48.309Z</time></trkpt><trkpt lat="46.0960776" lon="13.4286404"><ele>138.0</ele><time>2026-03-22T09:56:49.302Z</time></trkpt><trkpt lat="46.0961062" lon="13.4288215"><ele>138.0</ele><time>2026-03-22T09:56:50.299Z</time></trkpt><trkpt lat="46.0961281" lon="13.4290131"><ele>138.0</ele><time>2026-03-22T09:56:51.297Z</time></trkpt><trkpt lat="46.0961616" lon="13.429208"><ele>138.5</ele><time>2026-03-22T09:56:52.305Z</time></trkpt><trkpt lat="46.0962062" lon="13.4294033"><ele>139.0</ele><time>2026-03-22T09:56:53.33Z</time></trkpt><trkpt lat="46.0962455" lon="13.4295999"><ele>139.5</ele><time>2026-03-22T09:56:54.3Z</time></trkpt><trkpt lat="46.0962762" lon="13.4297964"><ele>140.0</ele><time>2026-03-22T09:56:55.296Z</time></trkpt><trkpt lat="46.0963042" lon="13.429994"><ele>140.0</ele><time>2026-03-22T09:56:56.288Z</time></trkpt><trkpt lat="46.0963319" lon="13.4301912"><ele>140.0</ele><time>2026-03-22T09:56:57.308Z</time></trkpt><trkpt lat="46.0963588" lon="13.4303866"><ele>140.0</ele><time>2026-03-22T09:56:58.304Z</time></trkpt><trkpt lat="46.0963826" lon="13.430585"><ele>140.0</ele><time>2026-03-22T09:56:59.311Z</time></trkpt><trkpt lat="46.0964048" lon="13.430789"><ele>140.0</ele><time>2026-03-22T09:57:00.302Z</time></trkpt><trkpt lat="46.0964247" lon="13.4309986"><ele>140.0</ele><time>2026-03-22T09:57:01.303Z</time></trkpt><trkpt lat="46.096444" lon="13.4312134"><ele>140.0</ele><time>2026-03-22T09:57:02.283Z</time></trkpt><trkpt lat="46.096464" lon="13.4314317"><ele>138.33333333333331</ele><time>2026-03-22T09:57:03.301Z</time></trkpt><trkpt lat="46.0964822" lon="13.431654"><ele>136.66666666666666</ele><time>2026-03-22T09:57:04.296Z</time></trkpt><trkpt lat="46.0964973" lon="13.4318795"><ele>135.0</ele><time>2026-03-22T09:57:05.306Z</time></trkpt><trkpt lat="46.0965125" lon="13.4321069"><ele>133.33333333333334</ele><time>2026-03-22T09:57:06.299Z</time></trkpt><trkpt lat="46.0965358" lon="13.4323344"><ele>131.66666666666669</ele><time>2026-03-22T09:57:07.296Z</time></trkpt><trkpt lat="46.0965578" lon="13.4325609"><ele>130.0</ele><time>2026-03-22T09:57:08.303Z</time></trkpt><trkpt lat="46.0965825" lon="13.4327878"><ele>130.0</ele><time>2026-03-22T09:57:09.309Z</time></trkpt><trkpt lat="46.0966074" lon="13.433015"><ele>130.0</ele><time>2026-03-22T09:57:10.289Z</time></trkpt><trkpt lat="46.0966367" lon="13.4332419"><ele>130.0</ele><time>2026-03-22T09:57:11.312Z</time></trkpt><trkpt lat="46.0966653" lon="13.4334662"><ele>130.0</ele><time>2026-03-22T09:57:12.292Z</time></trkpt><trkpt lat="46.096695" lon="13.4336864"><ele>130.0</ele><time>2026-03-22T09:57:13.317Z</time></trkpt><trkpt lat="46.096727" lon="13.433902"><ele>130.0</ele><time>2026-03-22T09:57:14.29Z</time></trkpt><trkpt lat="46.0967613" lon="13.4341146"><ele>130.0</ele><time>2026-03-22T09:57:15.312Z</time></trkpt><trkpt lat="46.0967992" lon="13.4343284"><ele>130.0</ele><time>2026-03-22T09:57:16.288Z</time></trkpt><trkpt lat="46.0968389" lon="13.4345474"><ele>130.0</ele><time>2026-03-22T09:57:17.309Z</time></trkpt><trkpt lat="46.0968839" lon="13.434769"><ele>130.0</ele><time>2026-03-22T09:57:18.282Z</time></trkpt><trkpt lat="46.0969321" lon="13.4349926"><ele>130.0</ele><time>2026-03-22T09:57:19.32Z</time></trkpt><trkpt lat="46.096985" lon="13.4352175"><ele>130.0</ele><time>2026-03-22T09:57:20.299Z</time></trkpt><trkpt lat="46.0970423" lon="13.4354439"><ele>130.66666666666669</ele><time>2026-03-22T09:57:21.291Z</time></trkpt><trkpt lat="46.0971025" lon="13.4356735"><ele>131.33333333333334</ele><time>2026-03-22T09:57:22.295Z</time></trkpt><trkpt lat="46.0971673" lon="13.4359065"><ele>132.0</ele><time>2026-03-22T09:57:23.296Z</time></trkpt><trkpt lat="46.0972357" lon="13.4361408"><ele>131.66666666666666</ele><time>2026-03-22T09:57:24.301Z</time></trkpt><trkpt lat="46.0973068" lon="13.4363722"><ele>131.33333333333331</ele><time>2026-03-22T09:57:25.306Z</time></trkpt><trkpt lat="46.0973774" lon="13.4366016"><ele>131.0</ele><time>2026-03-22T09:57:26.3Z</time></trkpt><trkpt lat="46.0974497" lon="13.4368273"><ele>131.0</ele><time>2026-03-22T09:57:27.296Z</time></trkpt><trkpt lat="46.097523" lon="13.437051"><ele>131.0</ele><time>2026-03-22T09:57:28.289Z</time></trkpt><trkpt lat="46.0975946" lon="13.4372767"><ele>131.0</ele><time>2026-03-22T09:57:29.294Z</time></trkpt><trkpt lat="46.0976715" lon="13.4374961"><ele>131.33333333333331</ele><time>2026-03-22T09:57:30.287Z</time></trkpt><trkpt lat="46.0977433" lon="13.4377158"><ele>131.66666666666666</ele><time>2026-03-22T09:57:31.312Z</time></trkpt><trkpt lat="46.0978157" lon="13.4379327"><ele>132.0</ele><time>2026-03-22T09:57:32.282Z</time></trkpt><trkpt lat="46.0978878" lon="13.4381475"><ele>133.33333333333334</ele><time>2026-03-22T09:57:33.29Z</time></trkpt><trkpt lat="46.097964" lon="13.4383622"><ele>134.66666666666669</ele><time>2026-03-22T09:57:34.292Z</time></trkpt><trkpt lat="46.0980464" lon="13.4385779"><ele>136.0</ele><time>2026-03-22T09:57:35.305Z</time></trkpt><trkpt lat="46.0981279" lon="13.4388003"><ele>136.0</ele><time>2026-03-22T09:57:36.288Z</time></trkpt><trkpt lat="46.098214" lon="13.4390208"><ele>136.0</ele><time>2026-03-22T09:57:37.288Z</time></trkpt><trkpt lat="46.0983034" lon="13.439241"><ele>136.0</ele><time>2026-03-22T09:57:38.293Z</time></trkpt><trkpt lat="46.0983994" lon="13.4394574"><ele>136.33333333333334</ele><time>2026-03-22T09:57:39.302Z</time></trkpt><trkpt lat="46.0984857" lon="13.4396835"><ele>136.66666666666666</ele><time>2026-03-22T09:57:40.286Z</time></trkpt><trkpt lat="46.0985778" lon="13.4399028"><ele>137.0</ele><time>2026-03-22T09:57:41.298Z</time></trkpt><trkpt lat="46.0986662" lon="13.4401259"><ele>137.0</ele><time>2026-03-22T09:57:42.286Z</time></trkpt><trkpt lat="46.0987491" lon="13.4403562"><ele>137.0</ele><time>2026-03-22T09:57:43.292Z</time></trkpt><trkpt lat="46.0988407" lon="13.4405805"><ele>137.0</ele><time>2026-03-22T09:57:44.281Z</time></trkpt><trkpt lat="46.098932" lon="13.440806"><ele>137.33333333333331</ele><time>2026-03-22T09:57:45.299Z</time></trkpt><trkpt lat="46.099027" lon="13.4410275"><ele>137.66666666666666</ele><time>2026-03-22T09:57:46.292Z</time></trkpt><trkpt lat="46.0991265" lon="13.4412457"><ele>138.0</ele><time>2026-03-22T09:57:47.302Z</time></trkpt><trkpt lat="46.0992316" lon="13.4414614"><ele>138.0</ele><time>2026-03-22T09:57:48.311Z</time></trkpt><trkpt lat="46.0993374" lon="13.4416783"><ele>138.0</ele><time>2026-03-22T09:57:49.302Z</time></trkpt><trkpt lat="46.0994418" lon="13.4418957"><ele>138.0</ele><time>2026-03-22T09:57:50.297Z</time></trkpt><trkpt lat="46.099546" lon="13.4421118"><ele>137.66666666666666</ele><time>2026-03-22T09:57:51.287Z</time></trkpt><trkpt lat="46.0996522" lon="13.4423246"><ele>137.33333333333331</ele><time>2026-03-22T09:57:52.285Z</time></trkpt><trkpt lat="46.099757" lon="13.4425365"><ele>137.0</ele><time>2026-03-22T09:57:53.297Z</time></trkpt><trkpt lat="46.0998614" lon="13.442746"><ele>137.0</ele><time>2026-03-22T09:57:54.303Z</time></trkpt><trkpt lat="46.0999653" lon="13.4429534"><ele>137.0</ele><time>2026-03-22T09:57:55.292Z</time></trkpt><trkpt lat="46.1000682" lon="13.4431585"><ele>137.0</ele><time>2026-03-22T09:57:56.292Z</time></trkpt><trkpt lat="46.100169" lon="13.4433635"><ele>137.0</ele><time>2026-03-22T09:57:57.286Z</time></trkpt><trkpt lat="46.1002699" lon="13.4435689"><ele>137.0</ele><time>2026-03-22T09:57:58.288Z</time></trkpt><trkpt lat="46.1003724" lon="13.443774"><ele>137.0</ele><time>2026-03-22T09:57:59.304Z</time></trkpt><trkpt lat="46.1004767" lon="13.4439783"><ele>137.0</ele><time>2026-03-22T09:58:00.29Z</time></trkpt><trkpt lat="46.1005797" lon="13.4441832"><ele>137.0</ele><time>2026-03-22T09:58:01.299Z</time></trkpt><trkpt lat="46.1006799" lon="13.4443883"><ele>137.0</ele><time>2026-03-22T09:58:02.3Z</time></trkpt><trkpt lat="46.1007808" lon="13.4445903"><ele>137.33333333333331</ele><time>2026-03-22T09:58:03.313Z</time></trkpt><trkpt lat="46.1008814" lon="13.4447899"><ele>137.66666666666666</ele><time>2026-03-22T09:58:04.285Z</time></trkpt><trkpt lat="46.1009802" lon="13.4449903"><ele>138.0</ele><time>2026-03-22T09:58:05.294Z</time></trkpt><trkpt lat="46.1010803" lon="13.4451918"><ele>138.0</ele><time>2026-03-22T09:58:06.3Z</time></trkpt><trkpt lat="46.1011823" lon="13.4453928"><ele>138.0</ele><time>2026-03-22T09:58:07.332Z</time></trkpt><trkpt lat="46.1012838" lon="13.4455957"><ele>138.0</ele><time>2026-03-22T09:58:08.308Z</time></trkpt><trkpt lat="46.1013835" lon="13.4458023"><ele>137.66666666666666</ele><time>2026-03-22T09:58:09.3Z</time></trkpt><trkpt lat="46.1014801" lon="13.4460116"><ele>137.33333333333331</ele><time>2026-03-22T09:58:10.292Z</time></trkpt><trkpt lat="46.1015725" lon="13.4462223"><ele>137.0</ele><time>2026-03-22T09:58:11.31Z</time></trkpt><trkpt lat="46.101662" lon="13.4464325"><ele>137.66666666666666</ele><time>2026-03-22T09:58:12.296Z</time></trkpt><trkpt lat="46.101751" lon="13.4466413"><ele>138.33333333333334</ele><time>2026-03-22T09:58:13.312Z</time></trkpt><trkpt lat="46.1018394" lon="13.4468485"><ele>139.0</ele><time>2026-03-22T09:58:14.294Z</time></trkpt><trkpt lat="46.1019272" lon="13.4470547"><ele>139.0</ele><time>2026-03-22T09:58:15.307Z</time></trkpt><trkpt lat="46.1020141" lon="13.4472606"><ele>139.0</ele><time>2026-03-22T09:58:16.291Z</time></trkpt><trkpt lat="46.1021013" lon="13.4474656"><ele>139.0</ele><time>2026-03-22T09:58:17.306Z</time></trkpt><trkpt lat="46.1021904" lon="13.4476727"><ele>139.0</ele><time>2026-03-22T09:58:18.291Z</time></trkpt><trkpt lat="46.1022829" lon="13.4478846"><ele>139.0</ele><time>2026-03-22T09:58:19.306Z</time></trkpt><trkpt lat="46.1023762" lon="13.4481012"><ele>139.0</ele><time>2026-03-22T09:58:20.285Z</time></trkpt><trkpt lat="46.1024703" lon="13.4483177"><ele>139.0</ele><time>2026-03-22T09:58:21.304Z</time></trkpt><trkpt lat="46.1025661" lon="13.4485328"><ele>139.0</ele><time>2026-03-22T09:58:22.296Z</time></trkpt><trkpt lat="46.1026614" lon="13.4487521"><ele>139.0</ele><time>2026-03-22T09:58:23.297Z</time></trkpt><trkpt lat="46.1027607" lon="13.4489722"><ele>139.0</ele><time>2026-03-22T09:58:24.293Z</time></trkpt><trkpt lat="46.1028607" lon="13.4491945"><ele>139.0</ele><time>2026-03-22T09:58:25.312Z</time></trkpt><trkpt lat="46.1029613" lon="13.4494164"><ele>139.0</ele><time>2026-03-22T09:58:26.296Z</time></trkpt><trkpt lat="46.1030628" lon="13.4496366"><ele>139.0</ele><time>2026-03-22T09:58:27.312Z</time></trkpt><trkpt lat="46.1031682" lon="13.4498503"><ele>139.0</ele><time>2026-03-22T09:58:28.297Z</time></trkpt><trkpt lat="46.1032774" lon="13.4500599"><ele>139.0</ele><time>2026-03-22T09:58:29.31Z</time></trkpt><trkpt lat="46.1033904" lon="13.4502682"><ele>138.66666666666669</ele><time>2026-03-22T09:58:30.298Z</time></trkpt><trkpt lat="46.1035052" lon="13.4504807"><ele>138.33333333333334</ele><time>2026-03-22T09:58:31.323Z</time></trkpt><trkpt lat="46.1036264" lon="13.4506912"><ele>138.0</ele><time>2026-03-22T09:58:32.308Z</time></trkpt><trkpt lat="46.1037458" lon="13.4509051"><ele>138.0</ele><time>2026-03-22T09:58:33.306Z</time></trkpt><trkpt lat="46.1038664" lon="13.4511187"><ele>138.0</ele><time>2026-03-22T09:58:34.301Z</time></trkpt><trkpt lat="46.1039861" lon="13.4513351"><ele>138.0</ele><time>2026-03-22T09:58:35.306Z</time></trkpt><trkpt lat="46.1041052" lon="13.4515551"><ele>138.33333333333334</ele><time>2026-03-22T09:58:36.291Z</time></trkpt><trkpt lat="46.1042208" lon="13.4517801"><ele>138.66666666666669</ele><time>2026-03-22T09:58:37.32Z</time></trkpt><trkpt lat="46.104328" lon="13.4520146"><ele>139.0</ele><time>2026-03-22T09:58:38.299Z</time></trkpt><trkpt lat="46.1044189" lon="13.4522619"><ele>139.66666666666669</ele><time>2026-03-22T09:58:39.307Z</time></trkpt><trkpt lat="46.1045097" lon="13.4525051"><ele>140.33333333333334</ele><time>2026-03-22T09:58:40.292Z</time></trkpt><trkpt lat="46.1045975" lon="13.4527421"><ele>141.0</ele><time>2026-03-22T09:58:41.312Z</time></trkpt><trkpt lat="46.1046788" lon="13.4529722"><ele>141.0</ele><time>2026-03-22T09:58:42.298Z</time></trkpt><trkpt lat="46.1047611" lon="13.453191"><ele>141.0</ele><time>2026-03-22T09:58:43.295Z</time></trkpt><trkpt lat="46.1048345" lon="13.4534081"><ele>141.0</ele><time>2026-03-22T09:58:44.291Z</time></trkpt><trkpt lat="46.1049113" lon="13.4536149"><ele>141.66666666666666</ele><time>2026-03-22T09:58:45.31Z</time></trkpt><trkpt lat="46.1049713" lon="13.4538279"><ele>142.33333333333331</ele><time>2026-03-22T09:58:46.285Z</time></trkpt><trkpt lat="46.1050096" lon="13.4540468"><ele>143.0</ele><time>2026-03-22T09:58:47.298Z</time></trkpt><trkpt lat="46.1050403" lon="13.454266"><ele>143.0</ele><time>2026-03-22T09:58:48.295Z</time></trkpt><trkpt lat="46.1050723" lon="13.4544734"><ele>143.0</ele><time>2026-03-22T09:58:49.303Z</time></trkpt><trkpt lat="46.1050968" lon="13.4546741"><ele>143.0</ele><time>2026-03-22T09:58:50.29Z</time></trkpt><trkpt lat="46.1051271" lon="13.4548663"><ele>143.0</ele><time>2026-03-22T09:58:51.306Z</time></trkpt><trkpt lat="46.1051648" lon="13.4550503"><ele>143.25</ele><time>2026-03-22T09:58:52.292Z</time></trkpt><trkpt lat="46.1052059" lon="13.4552272"><ele>143.5</ele><time>2026-03-22T09:58:53.309Z</time></trkpt><trkpt lat="46.1052521" lon="13.4554065"><ele>143.75</ele><time>2026-03-22T09:58:54.299Z</time></trkpt><trkpt lat="46.105313" lon="13.4555814"><ele>144.0</ele><time>2026-03-22T09:58:55.301Z</time></trkpt><trkpt lat="46.1053756" lon="13.4557605"><ele>144.25</ele><time>2026-03-22T09:58:56.286Z</time></trkpt><trkpt lat="46.1054455" lon="13.4559381"><ele>144.5</ele><time>2026-03-22T09:58:57.293Z</time></trkpt><trkpt lat="46.105526" lon="13.4561082"><ele>144.75</ele><time>2026-03-22T09:58:58.293Z</time></trkpt><trkpt lat="46.1056027" lon="13.4562777"><ele>145.0</ele><time>2026-03-22T09:58:59.303Z</time></trkpt><trkpt lat="46.1056925" lon="13.4564368"><ele>145.0</ele><time>2026-03-22T09:59:00.309Z</time></trkpt><trkpt lat="46.1057458" lon="13.4566239"><ele>145.0</ele><time>2026-03-22T09:59:01.325Z</time></trkpt><trkpt lat="46.1058285" lon="13.4567941"><ele>145.0</ele><time>2026-03-22T09:59:02.296Z</time></trkpt><trkpt lat="46.1059028" lon="13.4569736"><ele>145.0</ele><time>2026-03-22T09:59:03.306Z</time></trkpt><trkpt lat="46.1059808" lon="13.4571547"><ele>145.0</ele><time>2026-03-22T09:59:04.288Z</time></trkpt><trkpt lat="46.1060549" lon="13.4573409"><ele>145.0</ele><time>2026-03-22T09:59:05.294Z</time></trkpt><trkpt lat="46.1061123" lon="13.4575393"><ele>145.0</ele><time>2026-03-22T09:59:06.282Z</time></trkpt><trkpt lat="46.1061729" lon="13.4577371"><ele>145.0</ele><time>2026-03-22T09:59:07.313Z</time></trkpt><trkpt lat="46.1062137" lon="13.4579573"><ele>144.33333333333334</ele><time>2026-03-22T09:59:08.3Z</time></trkpt><trkpt lat="46.1062651" lon="13.4581696"><ele>143.66666666666666</ele><time>2026-03-22T09:59:09.328Z</time></trkpt><trkpt lat="46.1063211" lon="13.4583819"><ele>143.0</ele><time>2026-03-22T09:59:10.287Z</time></trkpt><trkpt lat="46.1063866" lon="13.4585906"><ele>143.33333333333331</ele><time>2026-03-22T09:59:11.317Z</time></trkpt><trkpt lat="46.1064498" lon="13.45881"><ele>143.66666666666666</ele><time>2026-03-22T09:59:12.299Z</time></trkpt><trkpt lat="46.1065211" lon="13.459034"><ele>144.0</ele><time>2026-03-22T09:59:13.307Z</time></trkpt><trkpt lat="46.1066062" lon="13.4592562"><ele>144.0</ele><time>2026-03-22T09:59:14.286Z</time></trkpt><trkpt lat="46.1066676" lon="13.4594936"><ele>144.0</ele><time>2026-03-22T09:59:15.306Z</time></trkpt><trkpt lat="46.1067407" lon="13.4597284"><ele>144.0</ele><time>2026-03-22T09:59:16.282Z</time></trkpt><trkpt lat="46.1068078" lon="13.4599688"><ele>144.0</ele><time>2026-03-22T09:59:17.296Z</time></trkpt><trkpt lat="46.1068807" lon="13.4602066"><ele>144.0</ele><time>2026-03-22T09:59:18.301Z</time></trkpt><trkpt lat="46.1069566" lon="13.4604443"><ele>144.0</ele><time>2026-03-22T09:59:19.304Z</time></trkpt><trkpt lat="46.1070331" lon="13.460685"><ele>144.0</ele><time>2026-03-22T09:59:20.295Z</time></trkpt><trkpt lat="46.1071106" lon="13.4609247"><ele>144.0</ele><time>2026-03-22T09:59:21.299Z</time></trkpt><trkpt lat="46.1071881" lon="13.4611637"><ele>144.0</ele><time>2026-03-22T09:59:22.311Z</time></trkpt><trkpt lat="46.1072666" lon="13.4613982"><ele>144.0</ele><time>2026-03-22T09:59:23.283Z</time></trkpt><trkpt lat="46.1073453" lon="13.4616272"><ele>144.0</ele><time>2026-03-22T09:59:24.293Z</time></trkpt><trkpt lat="46.1074202" lon="13.4618515"><ele>144.0</ele><time>2026-03-22T09:59:25.294Z</time></trkpt><trkpt lat="46.1074821" lon="13.4620795"><ele>145.66666666666666</ele><time>2026-03-22T09:59:26.291Z</time></trkpt><trkpt lat="46.1075282" lon="13.4623153"><ele>147.33333333333331</ele><time>2026-03-22T09:59:27.296Z</time></trkpt><trkpt lat="46.1075586" lon="13.4625584"><ele>149.0</ele><time>2026-03-22T09:59:28.292Z</time></trkpt><trkpt lat="46.1075922" lon="13.4628005"><ele>148.0</ele><time>2026-03-22T09:59:29.288Z</time></trkpt><trkpt lat="46.1076164" lon="13.4630499"><ele>147.0</ele><time>2026-03-22T09:59:30.287Z</time></trkpt><trkpt lat="46.1076397" lon="13.4633113"><ele>146.0</ele><time>2026-03-22T09:59:31.3Z</time></trkpt><trkpt lat="46.1076567" lon="13.4635809"><ele>146.0</ele><time>2026-03-22T09:59:32.295Z</time></trkpt><trkpt lat="46.1076662" lon="13.4638561"><ele>146.0</ele><time>2026-03-22T09:59:33.306Z</time></trkpt><trkpt lat="46.1076735" lon="13.4641348"><ele>146.0</ele><time>2026-03-22T09:59:34.288Z</time></trkpt><trkpt lat="46.1076763" lon="13.4644162"><ele>147.0</ele><time>2026-03-22T09:59:35.3Z</time></trkpt><trkpt lat="46.107679" lon="13.4646965"><ele>148.0</ele><time>2026-03-22T09:59:36.29Z</time></trkpt><trkpt lat="46.1076941" lon="13.4649755"><ele>149.0</ele><time>2026-03-22T09:59:37.295Z</time></trkpt><trkpt lat="46.1077286" lon="13.4652505"><ele>148.66666666666666</ele><time>2026-03-22T09:59:38.31Z</time></trkpt><trkpt lat="46.107771" lon="13.4655235"><ele>148.33333333333334</ele><time>2026-03-22T09:59:39.303Z</time></trkpt><trkpt lat="46.1078237" lon="13.465789"><ele>148.0</ele><time>2026-03-22T09:59:40.29Z</time></trkpt><trkpt lat="46.1078855" lon="13.466048"><ele>147.33333333333334</ele><time>2026-03-22T09:59:41.301Z</time></trkpt><trkpt lat="46.1079562" lon="13.4663009"><ele>146.66666666666666</ele><time>2026-03-22T09:59:42.297Z</time></trkpt><trkpt lat="46.1080315" lon="13.4665502"><ele>146.0</ele><time>2026-03-22T09:59:43.302Z</time></trkpt><trkpt lat="46.1081091" lon="13.466797"><ele>146.0</ele><time>2026-03-22T09:59:44.289Z</time></trkpt><trkpt lat="46.1081857" lon="13.4670428"><ele>146.0</ele><time>2026-03-22T09:59:45.287Z</time></trkpt><trkpt lat="46.1082613" lon="13.4672858"><ele>146.0</ele><time>2026-03-22T09:59:46.303Z</time></trkpt><trkpt lat="46.1083367" lon="13.4675243"><ele>147.0</ele><time>2026-03-22T09:59:47.292Z</time></trkpt><trkpt lat="46.1084084" lon="13.467763"><ele>148.0</ele><time>2026-03-22T09:59:48.314Z</time></trkpt><trkpt lat="46.1084826" lon="13.4679985"><ele>149.0</ele><time>2026-03-22T09:59:49.309Z</time></trkpt><trkpt lat="46.1085558" lon="13.4682318"><ele>149.33333333333331</ele><time>2026-03-22T09:59:50.295Z</time></trkpt><trkpt lat="46.1086343" lon="13.4684596"><ele>149.66666666666666</ele><time>2026-03-22T09:59:51.297Z</time></trkpt><trkpt lat="46.1087105" lon="13.4686902"><ele>150.0</ele><time>2026-03-22T09:59:52.295Z</time></trkpt><trkpt lat="46.1087872" lon="13.4689208"><ele>149.0</ele><time>2026-03-22T09:59:53.311Z</time></trkpt><trkpt lat="46.1088599" lon="13.4691522"><ele>148.0</ele><time>2026-03-22T09:59:54.306Z</time></trkpt><trkpt lat="46.1089312" lon="13.4693836"><ele>147.0</ele><time>2026-03-22T09:59:55.3Z</time></trkpt><trkpt lat="46.1090023" lon="13.4696151"><ele>147.0</ele><time>2026-03-22T09:59:56.304Z</time></trkpt><trkpt lat="46.1090741" lon="13.4698469"><ele>147.0</ele><time>2026-03-22T09:59:57.299Z</time></trkpt><trkpt lat="46.109149" lon="13.4700797"><ele>147.0</ele><time>2026-03-22T09:59:58.291Z</time></trkpt><trkpt lat="46.1092253" lon="13.4703175"><ele>147.33333333333334</ele><time>2026-03-22T09:59:59.319Z</time></trkpt><trkpt lat="46.1093126" lon="13.4705456"><ele>147.66666666666669</ele><time>2026-03-22T10:00:00.308Z</time></trkpt><trkpt lat="46.1094106" lon="13.4707603"><ele>148.0</ele><time>2026-03-22T10:00:01.303Z</time></trkpt><trkpt lat="46.1095041" lon="13.4709773"><ele>148.0</ele><time>2026-03-22T10:00:02.307Z</time></trkpt><trkpt lat="46.1096045" lon="13.4711844"><ele>148.0</ele><time>2026-03-22T10:00:03.295Z</time></trkpt><trkpt lat="46.1097172" lon="13.4713782"><ele>148.0</ele><time>2026-03-22T10:00:04.31Z</time></trkpt><trkpt lat="46.1098289" lon="13.471571"><ele>148.66666666666669</ele><time>2026-03-22T10:00:05.303Z</time></trkpt><trkpt lat="46.1099341" lon="13.4717638"><ele>149.33333333333334</ele><time>2026-03-22T10:00:06.313Z</time></trkpt><trkpt lat="46.1100363" lon="13.4719538"><ele>150.0</ele><time>2026-03-22T10:00:07.316Z</time></trkpt><trkpt lat="46.1101314" lon="13.4721494"><ele>150.0</ele><time>2026-03-22T10:00:08.293Z</time></trkpt><trkpt lat="46.1102266" lon="13.4723441"><ele>150.0</ele><time>2026-03-22T10:00:09.309Z</time></trkpt><trkpt lat="46.1103244" lon="13.4725354"><ele>150.0</ele><time>2026-03-22T10:00:10.295Z</time></trkpt><trkpt lat="46.110426" lon="13.4727225"><ele>150.0</ele><time>2026-03-22T10:00:11.309Z</time></trkpt><trkpt lat="46.1105253" lon="13.4729122"><ele>150.0</ele><time>2026-03-22T10:00:12.301Z</time></trkpt><trkpt lat="46.1106261" lon="13.4731012"><ele>150.0</ele><time>2026-03-22T10:00:13.317Z</time></trkpt><trkpt lat="46.1107258" lon="13.4732911"><ele>149.66666666666666</ele><time>2026-03-22T10:00:14.286Z</time></trkpt><trkpt lat="46.1108209" lon="13.4734792"><ele>149.33333333333331</ele><time>2026-03-22T10:00:15.312Z</time></trkpt><trkpt lat="46.1109101" lon="13.4736675"><ele>149.0</ele><time>2026-03-22T10:00:16.288Z</time></trkpt><trkpt lat="46.1109962" lon="13.4738576"><ele>148.0</ele><time>2026-03-22T10:00:17.315Z</time></trkpt><trkpt lat="46.1110832" lon="13.4740431"><ele>147.0</ele><time>2026-03-22T10:00:18.297Z</time></trkpt><trkpt lat="46.1111623" lon="13.4742286"><ele>146.0</ele><time>2026-03-22T10:00:19.307Z</time></trkpt><trkpt lat="46.111242" lon="13.4744147"><ele>146.0</ele><time>2026-03-22T10:00:20.303Z</time></trkpt><trkpt lat="46.111323" lon="13.4746017"><ele>146.0</ele><time>2026-03-22T10:00:21.3Z</time></trkpt><trkpt lat="46.1114098" lon="13.4747885"><ele>146.0</ele><time>2026-03-22T10:00:22.294Z</time></trkpt><trkpt lat="46.1114977" lon="13.4749741"><ele>146.5</ele><time>2026-03-22T10:00:23.299Z</time></trkpt><trkpt lat="46.1115841" lon="13.4751544"><ele>147.0</ele><time>2026-03-22T10:00:24.304Z</time></trkpt><trkpt lat="46.1116648" lon="13.4753341"><ele>147.5</ele><time>2026-03-22T10:00:25.298Z</time></trkpt><trkpt lat="46.1117336" lon="13.4755179"><ele>148.0</ele><time>2026-03-22T10:00:26.306Z</time></trkpt><trkpt lat="46.1118048" lon="13.4756879"><ele>148.0</ele><time>2026-03-22T10:00:27.329Z</time></trkpt><trkpt lat="46.1118722" lon="13.4758411"><ele>148.0</ele><time>2026-03-22T10:00:28.309Z</time></trkpt><trkpt lat="46.1119305" lon="13.4759813"><ele>148.0</ele><time>2026-03-22T10:00:29.306Z</time></trkpt><trkpt lat="46.1119875" lon="13.4761079"><ele>148.0</ele><time>2026-03-22T10:00:30.309Z</time></trkpt><trkpt lat="46.1120283" lon="13.4762304"><ele>148.0</ele><time>2026-03-22T10:00:31.319Z</time></trkpt><trkpt lat="46.1120758" lon="13.4763387"><ele>148.0</ele><time>2026-03-22T10:00:32.3Z</time></trkpt><trkpt lat="46.1120809" lon="13.4764582"><ele>148.0</ele><time>2026-03-22T10:00:33.29Z</time></trkpt><trkpt lat="46.1120573" lon="13.4765716"><ele>148.0</ele><time>2026-03-22T10:00:34.299Z</time></trkpt><trkpt lat="46.1120098" lon="13.4766782"><ele>148.0</ele><time>2026-03-22T10:00:35.309Z</time></trkpt><trkpt lat="46.1119566" lon="13.4767829"><ele>148.0</ele><time>2026-03-22T10:00:36.296Z</time></trkpt><trkpt lat="46.111919" lon="13.4768881"><ele>148.0</ele><time>2026-03-22T10:00:37.294Z</time></trkpt><trkpt lat="46.1119094" lon="13.476991"><ele>148.0</ele><time>2026-03-22T10:00:38.282Z</time></trkpt><trkpt lat="46.1118634" lon="13.477149"><ele>148.0</ele><time>2026-03-22T10:00:40.307Z</time></trkpt><trkpt lat="46.1118339" lon="13.4772388"><ele>148.0</ele><time>2026-03-22T10:00:41.282Z</time></trkpt><trkpt lat="46.1118049" lon="13.4773518"><ele>148.0</ele><time>2026-03-22T10:00:42.297Z</time></trkpt><trkpt lat="46.1117809" lon="13.4774902"><ele>148.0</ele><time>2026-03-22T10:00:43.29Z</time></trkpt><trkpt lat="46.1117695" lon="13.4776634"><ele>148.0</ele><time>2026-03-22T10:00:44.302Z</time></trkpt><trkpt lat="46.1117439" lon="13.4778616"><ele>148.0</ele><time>2026-03-22T10:00:45.287Z</time></trkpt><trkpt lat="46.1116895" lon="13.4780575"><ele>148.0</ele><time>2026-03-22T10:00:46.295Z</time></trkpt><trkpt lat="46.1116511" lon="13.4782636"><ele>148.0</ele><time>2026-03-22T10:00:47.315Z</time></trkpt><trkpt lat="46.1115848" lon="13.4784672"><ele>144.33333333333334</ele><time>2026-03-22T10:00:48.301Z</time></trkpt><trkpt lat="46.1115241" lon="13.4786848"><ele>140.66666666666666</ele><time>2026-03-22T10:00:49.292Z</time></trkpt><trkpt lat="46.1114641" lon="13.4789055"><ele>137.0</ele><time>2026-03-22T10:00:50.325Z</time></trkpt><trkpt lat="46.1114328" lon="13.4791368"><ele>137.0</ele><time>2026-03-22T10:00:51.302Z</time></trkpt><trkpt lat="46.1114131" lon="13.4793688"><ele>137.0</ele><time>2026-03-22T10:00:52.291Z</time></trkpt><trkpt lat="46.1114155" lon="13.479608"><ele>137.0</ele><time>2026-03-22T10:00:53.301Z</time></trkpt><trkpt lat="46.1114264" lon="13.4798531"><ele>137.0</ele><time>2026-03-22T10:00:54.292Z</time></trkpt><trkpt lat="46.1114358" lon="13.4801035"><ele>137.0</ele><time>2026-03-22T10:00:55.298Z</time></trkpt><trkpt lat="46.1114452" lon="13.4803644"><ele>137.0</ele><time>2026-03-22T10:00:56.294Z</time></trkpt><trkpt lat="46.1114574" lon="13.4806359"><ele>137.0</ele><time>2026-03-22T10:00:57.303Z</time></trkpt><trkpt lat="46.1114762" lon="13.4809162"><ele>137.0</ele><time>2026-03-22T10:00:58.288Z</time></trkpt><trkpt lat="46.1114864" lon="13.4812032"><ele>137.0</ele><time>2026-03-22T10:00:59.305Z</time></trkpt><trkpt lat="46.1114989" lon="13.4814936"><ele>137.0</ele><time>2026-03-22T10:01:00.296Z</time></trkpt><trkpt lat="46.1115079" lon="13.481783"><ele>137.0</ele><time>2026-03-22T10:01:01.288Z</time></trkpt><trkpt lat="46.1115149" lon="13.4820662"><ele>137.0</ele><time>2026-03-22T10:01:02.302Z</time></trkpt><trkpt lat="46.1115275" lon="13.482334"><ele>137.0</ele><time>2026-03-22T10:01:03.305Z</time></trkpt><trkpt lat="46.1115537" lon="13.4825843"><ele>137.0</ele><time>2026-03-22T10:01:04.292Z</time></trkpt><trkpt lat="46.1116052" lon="13.4828236"><ele>137.0</ele><time>2026-03-22T10:01:05.314Z</time></trkpt><trkpt lat="46.1116765" lon="13.4830597"><ele>140.0</ele><time>2026-03-22T10:01:06.283Z</time></trkpt><trkpt lat="46.1117574" lon="13.4832944"><ele>143.0</ele><time>2026-03-22T10:01:07.302Z</time></trkpt><trkpt lat="46.1118367" lon="13.483525"><ele>146.0</ele><time>2026-03-22T10:01:08.31Z</time></trkpt><trkpt lat="46.111907" lon="13.4837473"><ele>145.33333333333331</ele><time>2026-03-22T10:01:09.3Z</time></trkpt><trkpt lat="46.1119853" lon="13.4839512"><ele>144.66666666666666</ele><time>2026-03-22T10:01:10.293Z</time></trkpt><trkpt lat="46.1120765" lon="13.484131"><ele>144.0</ele><time>2026-03-22T10:01:11.302Z</time></trkpt><trkpt lat="46.1122002" lon="13.4842798"><ele>144.0</ele><time>2026-03-22T10:01:12.302Z</time></trkpt><trkpt lat="46.1123451" lon="13.4844139"><ele>144.0</ele><time>2026-03-22T10:01:13.305Z</time></trkpt><trkpt lat="46.1125151" lon="13.4845212"><ele>144.0</ele><time>2026-03-22T10:01:14.294Z</time></trkpt><trkpt lat="46.1126825" lon="13.4846378"><ele>145.0</ele><time>2026-03-22T10:01:15.314Z</time></trkpt><trkpt lat="46.1128433" lon="13.4847631"><ele>146.0</ele><time>2026-03-22T10:01:16.291Z</time></trkpt><trkpt lat="46.1129908" lon="13.4849038"><ele>147.0</ele><time>2026-03-22T10:01:17.309Z</time></trkpt><trkpt lat="46.113129" lon="13.4850455"><ele>147.0</ele><time>2026-03-22T10:01:18.303Z</time></trkpt><trkpt lat="46.1132499" lon="13.4852119"><ele>147.0</ele><time>2026-03-22T10:01:19.315Z</time></trkpt><trkpt lat="46.113353" lon="13.4853972"><ele>147.0</ele><time>2026-03-22T10:01:20.281Z</time></trkpt><trkpt lat="46.1134421" lon="13.4856039"><ele>147.0</ele><time>2026-03-22T10:01:21.309Z</time></trkpt><trkpt lat="46.1135159" lon="13.485835"><ele>147.0</ele><time>2026-03-22T10:01:22.301Z</time></trkpt><trkpt lat="46.1135908" lon="13.4860689"><ele>147.0</ele><time>2026-03-22T10:01:23.298Z</time></trkpt><trkpt lat="46.1136612" lon="13.4863035"><ele>146.0</ele><time>2026-03-22T10:01:24.296Z</time></trkpt><trkpt lat="46.1137323" lon="13.4865231"><ele>145.0</ele><time>2026-03-22T10:01:25.294Z</time></trkpt><trkpt lat="46.1138058" lon="13.4867353"><ele>144.0</ele><time>2026-03-22T10:01:26.293Z</time></trkpt><trkpt lat="46.1138831" lon="13.4869335"><ele>143.5</ele><time>2026-03-22T10:01:27.307Z</time></trkpt><trkpt lat="46.113959" lon="13.4871255"><ele>143.0</ele><time>2026-03-22T10:01:28.295Z</time></trkpt><trkpt lat="46.1140217" lon="13.4873195"><ele>142.5</ele><time>2026-03-22T10:01:29.298Z</time></trkpt><trkpt lat="46.1140812" lon="13.4875122"><ele>142.0</ele><time>2026-03-22T10:01:30.301Z</time></trkpt><trkpt lat="46.1141303" lon="13.4877153"><ele>144.5</ele><time>2026-03-22T10:01:31.31Z</time></trkpt><trkpt lat="46.1141606" lon="13.4879277"><ele>147.0</ele><time>2026-03-22T10:01:32.297Z</time></trkpt><trkpt lat="46.1141801" lon="13.4881419"><ele>149.5</ele><time>2026-03-22T10:01:33.309Z</time></trkpt><trkpt lat="46.114196" lon="13.4883514"><ele>152.0</ele><time>2026-03-22T10:01:34.313Z</time></trkpt><trkpt lat="46.1141981" lon="13.4885487"><ele>152.0</ele><time>2026-03-22T10:01:35.306Z</time></trkpt><trkpt lat="46.1141976" lon="13.488735"><ele>152.0</ele><time>2026-03-22T10:01:36.299Z</time></trkpt><trkpt lat="46.1142259" lon="13.488928"><ele>152.0</ele><time>2026-03-22T10:01:37.31Z</time></trkpt><trkpt lat="46.1142733" lon="13.4891387"><ele>152.0</ele><time>2026-03-22T10:01:38.29Z</time></trkpt><trkpt lat="46.1143244" lon="13.4893646"><ele>149.33333333333331</ele><time>2026-03-22T10:01:39.301Z</time></trkpt><trkpt lat="46.1143789" lon="13.4895984"><ele>146.66666666666666</ele><time>2026-03-22T10:01:40.304Z</time></trkpt><trkpt lat="46.1144477" lon="13.4898364"><ele>144.0</ele><time>2026-03-22T10:01:41.296Z</time></trkpt><trkpt lat="46.114526" lon="13.4900799"><ele>144.0</ele><time>2026-03-22T10:01:42.284Z</time></trkpt><trkpt lat="46.1146073" lon="13.490328"><ele>144.0</ele><time>2026-03-22T10:01:43.31Z</time></trkpt><trkpt lat="46.1147272" lon="13.4905642"><ele>144.0</ele><time>2026-03-22T10:01:44.292Z</time></trkpt><trkpt lat="46.114849" lon="13.4908074"><ele>145.0</ele><time>2026-03-22T10:01:45.305Z</time></trkpt><trkpt lat="46.114968" lon="13.4910433"><ele>146.0</ele><time>2026-03-22T10:01:46.297Z</time></trkpt><trkpt lat="46.1150851" lon="13.4912702"><ele>147.0</ele><time>2026-03-22T10:01:47.294Z</time></trkpt><trkpt lat="46.1151965" lon="13.4914866"><ele>147.0</ele><time>2026-03-22T10:01:48.298Z</time></trkpt><trkpt lat="46.1153035" lon="13.4916802"><ele>147.0</ele><time>2026-03-22T10:01:49.301Z</time></trkpt><trkpt lat="46.1154058" lon="13.4918441"><ele>147.0</ele><time>2026-03-22T10:01:50.313Z</time></trkpt><trkpt lat="46.1155122" lon="13.4919835"><ele>147.0</ele><time>2026-03-22T10:01:51.308Z</time></trkpt><trkpt lat="46.1156438" lon="13.4920967"><ele>147.0</ele><time>2026-03-22T10:01:52.306Z</time></trkpt><trkpt lat="46.1158038" lon="13.4922079"><ele>147.0</ele><time>2026-03-22T10:01:53.299Z</time></trkpt><trkpt lat="46.1159816" lon="13.492316"><ele>147.0</ele><time>2026-03-22T10:01:54.296Z</time></trkpt><trkpt lat="46.1161888" lon="13.4923832"><ele>147.0</ele><time>2026-03-22T10:01:55.298Z</time></trkpt><trkpt lat="46.1163846" lon="13.4924999"><ele>147.0</ele><time>2026-03-22T10:01:56.287Z</time></trkpt><trkpt lat="46.1165944" lon="13.4925861"><ele>148.33333333333334</ele><time>2026-03-22T10:01:57.317Z</time></trkpt><trkpt lat="46.116808" lon="13.4926686"><ele>149.66666666666669</ele><time>2026-03-22T10:01:58.304Z</time></trkpt><trkpt lat="46.1170203" lon="13.4927497"><ele>151.0</ele><time>2026-03-22T10:01:59.296Z</time></trkpt><trkpt lat="46.1172268" lon="13.4928289"><ele>150.33333333333334</ele><time>2026-03-22T10:02:00.295Z</time></trkpt><trkpt lat="46.1174192" lon="13.4929122"><ele>149.66666666666666</ele><time>2026-03-22T10:02:01.301Z</time></trkpt><trkpt lat="46.1176023" lon="13.4929844"><ele>149.0</ele><time>2026-03-22T10:02:02.299Z</time></trkpt><trkpt lat="46.1177737" lon="13.493048"><ele>149.0</ele><time>2026-03-22T10:02:03.31Z</time></trkpt><trkpt lat="46.1179351" lon="13.4931095"><ele>149.0</ele><time>2026-03-22T10:02:04.305Z</time></trkpt><trkpt lat="46.1180881" lon="13.4931684"><ele>149.0</ele><time>2026-03-22T10:02:05.302Z</time></trkpt><trkpt lat="46.1182344" lon="13.4932259"><ele>149.25</ele><time>2026-03-22T10:02:06.303Z</time></trkpt><trkpt lat="46.1183754" lon="13.4932785"><ele>149.5</ele><time>2026-03-22T10:02:07.307Z</time></trkpt><trkpt lat="46.1185028" lon="13.4933243"><ele>149.75</ele><time>2026-03-22T10:02:08.308Z</time></trkpt><trkpt lat="46.1186048" lon="13.4933653"><ele>150.0</ele><time>2026-03-22T10:02:09.306Z</time></trkpt><trkpt lat="46.1186815" lon="13.4934096"><ele>150.0</ele><time>2026-03-22T10:02:10.289Z</time></trkpt><trkpt lat="46.1187427" lon="13.4934555"><ele>150.0</ele><time>2026-03-22T10:02:11.288Z</time></trkpt><trkpt lat="46.1188326" lon="13.4935602"><ele>150.0</ele><time>2026-03-22T10:02:13.303Z</time></trkpt><trkpt lat="46.1188487" lon="13.4936527"><ele>150.0</ele><time>2026-03-22T10:02:14.28Z</time></trkpt><trkpt lat="46.1188653" lon="13.4937497"><ele>150.0</ele><time>2026-03-22T10:02:15.308Z</time></trkpt><trkpt lat="46.1188585" lon="13.4938663"><ele>150.0</ele><time>2026-03-22T10:02:16.301Z</time></trkpt><trkpt lat="46.1188294" lon="13.4939961"><ele>148.75</ele><time>2026-03-22T10:02:17.306Z</time></trkpt><trkpt lat="46.1187515" lon="13.4941267"><ele>147.5</ele><time>2026-03-22T10:02:18.3Z</time></trkpt><trkpt lat="46.1186501" lon="13.4942595"><ele>146.25</ele><time>2026-03-22T10:02:19.293Z</time></trkpt><trkpt lat="46.1185305" lon="13.4944128"><ele>145.0</ele><time>2026-03-22T10:02:20.289Z</time></trkpt><trkpt lat="46.1183935" lon="13.4945828"><ele>144.66666666666669</ele><time>2026-03-22T10:02:21.293Z</time></trkpt><trkpt lat="46.118243" lon="13.4947713"><ele>144.33333333333334</ele><time>2026-03-22T10:02:22.294Z</time></trkpt><trkpt lat="46.118084" lon="13.4949792"><ele>144.0</ele><time>2026-03-22T10:02:23.28Z</time></trkpt><trkpt lat="46.1179214" lon="13.4951909"><ele>143.66666666666666</ele><time>2026-03-22T10:02:24.309Z</time></trkpt><trkpt lat="46.1177601" lon="13.4954043"><ele>143.33333333333331</ele><time>2026-03-22T10:02:25.296Z</time></trkpt><trkpt lat="46.1175982" lon="13.4956157"><ele>143.0</ele><time>2026-03-22T10:02:26.298Z</time></trkpt><trkpt lat="46.117441" lon="13.4958295"><ele>142.0</ele><time>2026-03-22T10:02:27.302Z</time></trkpt><trkpt lat="46.1172865" lon="13.4960284"><ele>141.0</ele><time>2026-03-22T10:02:28.312Z</time></trkpt><trkpt lat="46.1171409" lon="13.4962173"><ele>140.0</ele><time>2026-03-22T10:02:29.32Z</time></trkpt><trkpt lat="46.117007" lon="13.4964069"><ele>139.33333333333331</ele><time>2026-03-22T10:02:30.3Z</time></trkpt><trkpt lat="46.1168765" lon="13.4965853"><ele>138.66666666666666</ele><time>2026-03-22T10:02:31.316Z</time></trkpt><trkpt lat="46.1167422" lon="13.4967423"><ele>138.0</ele><time>2026-03-22T10:02:32.302Z</time></trkpt><trkpt lat="46.1166113" lon="13.4968908"><ele>138.0</ele><time>2026-03-22T10:02:33.306Z</time></trkpt><trkpt lat="46.1164915" lon="13.497047"><ele>138.0</ele><time>2026-03-22T10:02:34.313Z</time></trkpt><trkpt lat="46.1163755" lon="13.4972004"><ele>138.0</ele><time>2026-03-22T10:02:35.321Z</time></trkpt><trkpt lat="46.1162754" lon="13.4973681"><ele>138.0</ele><time>2026-03-22T10:02:36.299Z</time></trkpt><trkpt lat="46.1161812" lon="13.497534"><ele>138.0</ele><time>2026-03-22T10:02:37.302Z</time></trkpt><trkpt lat="46.1160982" lon="13.4977048"><ele>138.0</ele><time>2026-03-22T10:02:38.289Z</time></trkpt><trkpt lat="46.1160291" lon="13.4978809"><ele>138.0</ele><time>2026-03-22T10:02:39.31Z</time></trkpt><trkpt lat="46.1159758" lon="13.4980618"><ele>139.0</ele><time>2026-03-22T10:02:40.294Z</time></trkpt><trkpt lat="46.1159264" lon="13.4982365"><ele>140.0</ele><time>2026-03-22T10:02:41.301Z</time></trkpt><trkpt lat="46.1158633" lon="13.4983989"><ele>141.0</ele><time>2026-03-22T10:02:42.298Z</time></trkpt><trkpt lat="46.115807" lon="13.4985766"><ele>142.0</ele><time>2026-03-22T10:02:43.322Z</time></trkpt><trkpt lat="46.1157644" lon="13.4987857"><ele>142.66666666666669</ele><time>2026-03-22T10:02:44.303Z</time></trkpt><trkpt lat="46.1157076" lon="13.4990097"><ele>143.33333333333334</ele><time>2026-03-22T10:02:45.31Z</time></trkpt><trkpt lat="46.1156384" lon="13.4992352"><ele>144.0</ele><time>2026-03-22T10:02:46.281Z</time></trkpt><trkpt lat="46.1155682" lon="13.4994593"><ele>144.66666666666666</ele><time>2026-03-22T10:02:47.299Z</time></trkpt><trkpt lat="46.1154951" lon="13.4996798"><ele>145.33333333333331</ele><time>2026-03-22T10:02:48.288Z</time></trkpt><trkpt lat="46.1154183" lon="13.4998957"><ele>146.0</ele><time>2026-03-22T10:02:49.284Z</time></trkpt><trkpt lat="46.1153377" lon="13.5001077"><ele>146.0</ele><time>2026-03-22T10:02:50.301Z</time></trkpt><trkpt lat="46.1152427" lon="13.5003063"><ele>146.0</ele><time>2026-03-22T10:02:51.281Z</time></trkpt><trkpt lat="46.1151564" lon="13.5005159"><ele>146.0</ele><time>2026-03-22T10:02:52.302Z</time></trkpt><trkpt lat="46.1150698" lon="13.5007254"><ele>145.66666666666666</ele><time>2026-03-22T10:02:53.294Z</time></trkpt><trkpt lat="46.1149854" lon="13.5009333"><ele>145.33333333333334</ele><time>2026-03-22T10:02:54.286Z</time></trkpt><trkpt lat="46.1149126" lon="13.5011382"><ele>145.0</ele><time>2026-03-22T10:02:55.308Z</time></trkpt><trkpt lat="46.1148671" lon="13.5013443"><ele>144.66666666666669</ele><time>2026-03-22T10:02:56.299Z</time></trkpt><trkpt lat="46.1148519" lon="13.5015542"><ele>144.33333333333334</ele><time>2026-03-22T10:02:57.31Z</time></trkpt><trkpt lat="46.1148632" lon="13.5017749"><ele>144.0</ele><time>2026-03-22T10:02:58.298Z</time></trkpt><trkpt lat="46.114905" lon="13.5019995"><ele>144.66666666666666</ele><time>2026-03-22T10:02:59.305Z</time></trkpt><trkpt lat="46.1149573" lon="13.5022292"><ele>145.33333333333331</ele><time>2026-03-22T10:03:00.319Z</time></trkpt><trkpt lat="46.1150188" lon="13.5024618"><ele>146.0</ele><time>2026-03-22T10:03:01.33Z</time></trkpt><trkpt lat="46.1150716" lon="13.5027059"><ele>145.0</ele><time>2026-03-22T10:03:02.29Z</time></trkpt><trkpt lat="46.1151271" lon="13.5029586"><ele>144.0</ele><time>2026-03-22T10:03:03.315Z</time></trkpt><trkpt lat="46.1151832" lon="13.5032151"><ele>143.0</ele><time>2026-03-22T10:03:04.297Z</time></trkpt><trkpt lat="46.1152433" lon="13.5034703"><ele>143.0</ele><time>2026-03-22T10:03:05.307Z</time></trkpt><trkpt lat="46.1153019" lon="13.5037246"><ele>143.0</ele><time>2026-03-22T10:03:06.293Z</time></trkpt><trkpt lat="46.115347" lon="13.5039823"><ele>143.0</ele><time>2026-03-22T10:03:07.301Z</time></trkpt><trkpt lat="46.1153781" lon="13.5042345"><ele>143.0</ele><time>2026-03-22T10:03:08.317Z</time></trkpt><trkpt lat="46.1154027" lon="13.5044797"><ele>143.0</ele><time>2026-03-22T10:03:09.303Z</time></trkpt><trkpt lat="46.1154246" lon="13.5047209"><ele>143.0</ele><time>2026-03-22T10:03:10.299Z</time></trkpt><trkpt lat="46.1154441" lon="13.50496"><ele>143.33333333333331</ele><time>2026-03-22T10:03:11.313Z</time></trkpt><trkpt lat="46.1154644" lon="13.5051963"><ele>143.66666666666666</ele><time>2026-03-22T10:03:12.305Z</time></trkpt><trkpt lat="46.1154831" lon="13.5054264"><ele>144.0</ele><time>2026-03-22T10:03:13.296Z</time></trkpt><trkpt lat="46.115501" lon="13.5056487"><ele>144.0</ele><time>2026-03-22T10:03:14.29Z</time></trkpt><trkpt lat="46.1155359" lon="13.5058704"><ele>144.0</ele><time>2026-03-22T10:03:15.31Z</time></trkpt><trkpt lat="46.1156011" lon="13.5060899"><ele>144.0</ele><time>2026-03-22T10:03:16.297Z</time></trkpt><trkpt lat="46.1156959" lon="13.5063027"><ele>145.0</ele><time>2026-03-22T10:03:17.292Z</time></trkpt><trkpt lat="46.1158061" lon="13.5065177"><ele>146.0</ele><time>2026-03-22T10:03:18.293Z</time></trkpt><trkpt lat="46.1159492" lon="13.5067084"><ele>147.0</ele><time>2026-03-22T10:03:19.316Z</time></trkpt><trkpt lat="46.1161062" lon="13.506886"><ele>147.0</ele><time>2026-03-22T10:03:20.301Z</time></trkpt><trkpt lat="46.1162538" lon="13.5070713"><ele>147.0</ele><time>2026-03-22T10:03:21.312Z</time></trkpt><trkpt lat="46.116389" lon="13.507262"><ele>147.0</ele><time>2026-03-22T10:03:22.295Z</time></trkpt><trkpt lat="46.1165037" lon="13.5074642"><ele>148.0</ele><time>2026-03-22T10:03:23.292Z</time></trkpt><trkpt lat="46.1165867" lon="13.5076891"><ele>149.0</ele><time>2026-03-22T10:03:24.301Z</time></trkpt><trkpt lat="46.116648" lon="13.5079302"><ele>150.0</ele><time>2026-03-22T10:03:25.32Z</time></trkpt><trkpt lat="46.1167011" lon="13.5081812"><ele>151.0</ele><time>2026-03-22T10:03:26.308Z</time></trkpt><trkpt lat="46.1167479" lon="13.5084407"><ele>152.0</ele><time>2026-03-22T10:03:27.312Z</time></trkpt><trkpt lat="46.1167983" lon="13.5086967"><ele>153.0</ele><time>2026-03-22T10:03:28.298Z</time></trkpt><trkpt lat="46.1168501" lon="13.5089474"><ele>153.33333333333334</ele><time>2026-03-22T10:03:29.313Z</time></trkpt><trkpt lat="46.1169159" lon="13.5091871"><ele>153.66666666666669</ele><time>2026-03-22T10:03:30.299Z</time></trkpt><trkpt lat="46.11699" lon="13.5094239"><ele>154.0</ele><time>2026-03-22T10:03:31.305Z</time></trkpt><trkpt lat="46.1170602" lon="13.5096659"><ele>154.33333333333334</ele><time>2026-03-22T10:03:32.297Z</time></trkpt><trkpt lat="46.1171336" lon="13.5099063"><ele>154.66666666666666</ele><time>2026-03-22T10:03:33.304Z</time></trkpt><trkpt lat="46.117203" lon="13.5101503"><ele>155.0</ele><time>2026-03-22T10:03:34.302Z</time></trkpt><trkpt lat="46.1172729" lon="13.5103925"><ele>154.33333333333331</ele><time>2026-03-22T10:03:35.31Z</time></trkpt><trkpt lat="46.1173403" lon="13.5106313"><ele>153.66666666666666</ele><time>2026-03-22T10:03:36.305Z</time></trkpt><trkpt lat="46.1174026" lon="13.5108631"><ele>153.0</ele><time>2026-03-22T10:03:37.314Z</time></trkpt><trkpt lat="46.1174581" lon="13.5110857"><ele>156.66666666666666</ele><time>2026-03-22T10:03:38.303Z</time></trkpt><trkpt lat="46.1175067" lon="13.5113023"><ele>160.33333333333331</ele><time>2026-03-22T10:03:39.303Z</time></trkpt><trkpt lat="46.1175584" lon="13.5115167"><ele>164.0</ele><time>2026-03-22T10:03:40.298Z</time></trkpt><trkpt lat="46.1176137" lon="13.5117332"><ele>164.0</ele><time>2026-03-22T10:03:41.294Z</time></trkpt><trkpt lat="46.1176694" lon="13.5119547"><ele>164.0</ele><time>2026-03-22T10:03:42.29Z</time></trkpt><trkpt lat="46.1177206" lon="13.5121839"><ele>164.0</ele><time>2026-03-22T10:03:43.298Z</time></trkpt><trkpt lat="46.1177605" lon="13.5124239"><ele>162.66666666666666</ele><time>2026-03-22T10:03:44.302Z</time></trkpt><trkpt lat="46.117778" lon="13.5126721"><ele>161.33333333333334</ele><time>2026-03-22T10:03:45.307Z</time></trkpt><trkpt lat="46.1177905" lon="13.5129325"><ele>160.0</ele><time>2026-03-22T10:03:46.294Z</time></trkpt><trkpt lat="46.1177807" lon="13.5131962"><ele>159.66666666666669</ele><time>2026-03-22T10:03:47.294Z</time></trkpt><trkpt lat="46.1177661" lon="13.5134573"><ele>159.33333333333334</ele><time>2026-03-22T10:03:48.295Z</time></trkpt><trkpt lat="46.1177512" lon="13.5137148"><ele>159.0</ele><time>2026-03-22T10:03:49.283Z</time></trkpt><trkpt lat="46.1177258" lon="13.5139662"><ele>159.0</ele><time>2026-03-22T10:03:50.297Z</time></trkpt><trkpt lat="46.1177194" lon="13.5142121"><ele>159.0</ele><time>2026-03-22T10:03:51.311Z</time></trkpt><trkpt lat="46.1177373" lon="13.5144533"><ele>159.0</ele><time>2026-03-22T10:03:52.294Z</time></trkpt><trkpt lat="46.1177779" lon="13.5146867"><ele>159.0</ele><time>2026-03-22T10:03:53.298Z</time></trkpt><trkpt lat="46.1178462" lon="13.5149105"><ele>159.0</ele><time>2026-03-22T10:03:54.289Z</time></trkpt><trkpt lat="46.1179208" lon="13.5151294"><ele>159.0</ele><time>2026-03-22T10:03:55.308Z</time></trkpt><trkpt lat="46.1179971" lon="13.5153433"><ele>159.33333333333334</ele><time>2026-03-22T10:03:56.321Z</time></trkpt><trkpt lat="46.1180675" lon="13.5155575"><ele>159.66666666666669</ele><time>2026-03-22T10:03:57.309Z</time></trkpt><trkpt lat="46.1181361" lon="13.5157716"><ele>160.0</ele><time>2026-03-22T10:03:58.308Z</time></trkpt><trkpt lat="46.1182053" lon="13.5159857"><ele>159.66666666666669</ele><time>2026-03-22T10:03:59.306Z</time></trkpt><trkpt lat="46.1182767" lon="13.5161991"><ele>159.33333333333334</ele><time>2026-03-22T10:04:00.308Z</time></trkpt><trkpt lat="46.1183439" lon="13.5164164"><ele>159.0</ele><time>2026-03-22T10:04:01.315Z</time></trkpt><trkpt lat="46.118408" lon="13.5166352"><ele>159.0</ele><time>2026-03-22T10:04:02.302Z</time></trkpt><trkpt lat="46.1184792" lon="13.5168484"><ele>159.0</ele><time>2026-03-22T10:04:03.297Z</time></trkpt><trkpt lat="46.1185498" lon="13.5170576"><ele>159.0</ele><time>2026-03-22T10:04:04.32Z</time></trkpt><trkpt lat="46.118622" lon="13.5172607"><ele>159.0</ele><time>2026-03-22T10:04:05.323Z</time></trkpt><trkpt lat="46.1186909" lon="13.5174578"><ele>159.0</ele><time>2026-03-22T10:04:06.307Z</time></trkpt><trkpt lat="46.1187557" lon="13.5176482"><ele>159.0</ele><time>2026-03-22T10:04:07.311Z</time></trkpt><trkpt lat="46.1188176" lon="13.5178376"><ele>159.0</ele><time>2026-03-22T10:04:08.307Z</time></trkpt><trkpt lat="46.1188792" lon="13.5180272"><ele>159.5</ele><time>2026-03-22T10:04:09.305Z</time></trkpt><trkpt lat="46.1189399" lon="13.5182191"><ele>160.0</ele><time>2026-03-22T10:04:10.309Z</time></trkpt><trkpt lat="46.1189998" lon="13.518417"><ele>160.5</ele><time>2026-03-22T10:04:11.303Z</time></trkpt><trkpt lat="46.1190743" lon="13.5186104"><ele>161.0</ele><time>2026-03-22T10:04:12.301Z</time></trkpt><trkpt lat="46.1191495" lon="13.5188042"><ele>159.33333333333331</ele><time>2026-03-22T10:04:13.319Z</time></trkpt><trkpt lat="46.1192268" lon="13.5189968"><ele>157.66666666666666</ele><time>2026-03-22T10:04:14.301Z</time></trkpt><trkpt lat="46.1193098" lon="13.519183"><ele>156.0</ele><time>2026-03-22T10:04:15.313Z</time></trkpt><trkpt lat="46.1193981" lon="13.5193625"><ele>156.0</ele><time>2026-03-22T10:04:16.307Z</time></trkpt><trkpt lat="46.1194877" lon="13.5195395"><ele>156.0</ele><time>2026-03-22T10:04:17.31Z</time></trkpt><trkpt lat="46.1195777" lon="13.5197122"><ele>156.0</ele><time>2026-03-22T10:04:18.295Z</time></trkpt><trkpt lat="46.1196711" lon="13.5198779"><ele>156.0</ele><time>2026-03-22T10:04:19.323Z</time></trkpt><trkpt lat="46.1197706" lon="13.5200352"><ele>156.0</ele><time>2026-03-22T10:04:20.298Z</time></trkpt><trkpt lat="46.1198673" lon="13.520193"><ele>156.0</ele><time>2026-03-22T10:04:21.318Z</time></trkpt><trkpt lat="46.1199635" lon="13.5203527"><ele>156.0</ele><time>2026-03-22T10:04:22.308Z</time></trkpt><trkpt lat="46.120065" lon="13.5205051"><ele>156.0</ele><time>2026-03-22T10:04:23.3Z</time></trkpt><trkpt lat="46.1201777" lon="13.5206479"><ele>156.0</ele><time>2026-03-22T10:04:24.305Z</time></trkpt><trkpt lat="46.1202785" lon="13.5208085"><ele>156.0</ele><time>2026-03-22T10:04:25.313Z</time></trkpt><trkpt lat="46.1203796" lon="13.5209682"><ele>156.0</ele><time>2026-03-22T10:04:26.295Z</time></trkpt><trkpt lat="46.1204785" lon="13.5211327"><ele>156.0</ele><time>2026-03-22T10:04:27.304Z</time></trkpt><trkpt lat="46.1205765" lon="13.5212959"><ele>156.0</ele><time>2026-03-22T10:04:28.301Z</time></trkpt><trkpt lat="46.1206765" lon="13.5214562"><ele>156.0</ele><time>2026-03-22T10:04:29.297Z</time></trkpt><trkpt lat="46.1207835" lon="13.5216049"><ele>156.0</ele><time>2026-03-22T10:04:30.303Z</time></trkpt><trkpt lat="46.120888" lon="13.5217539"><ele>156.0</ele><time>2026-03-22T10:04:31.312Z</time></trkpt><trkpt lat="46.121003" lon="13.5218857"><ele>156.0</ele><time>2026-03-22T10:04:32.307Z</time></trkpt><trkpt lat="46.1211218" lon="13.5220132"><ele>156.0</ele><time>2026-03-22T10:04:33.302Z</time></trkpt><trkpt lat="46.1212637" lon="13.5220955"><ele>156.0</ele><time>2026-03-22T10:04:34.306Z</time></trkpt><trkpt lat="46.1214037" lon="13.5221758"><ele>156.0</ele><time>2026-03-22T10:04:35.307Z</time></trkpt><trkpt lat="46.1215486" lon="13.5222443"><ele>157.5</ele><time>2026-03-22T10:04:36.309Z</time></trkpt><trkpt lat="46.1216806" lon="13.5223449"><ele>159.0</ele><time>2026-03-22T10:04:37.299Z</time></trkpt><trkpt lat="46.1218124" lon="13.5224478"><ele>160.5</ele><time>2026-03-22T10:04:38.305Z</time></trkpt><trkpt lat="46.1219465" lon="13.5225399"><ele>162.0</ele><time>2026-03-22T10:04:39.316Z</time></trkpt><trkpt lat="46.1220786" lon="13.522633"><ele>162.0</ele><time>2026-03-22T10:04:40.29Z</time></trkpt><trkpt lat="46.1222135" lon="13.5227133"><ele>162.0</ele><time>2026-03-22T10:04:41.305Z</time></trkpt><trkpt lat="46.1223566" lon="13.5227586"><ele>162.0</ele><time>2026-03-22T10:04:42.303Z</time></trkpt><trkpt lat="46.1225072" lon="13.5227524"><ele>162.0</ele><time>2026-03-22T10:04:43.304Z</time></trkpt><trkpt lat="46.1226536" lon="13.5227291"><ele>163.0</ele><time>2026-03-22T10:04:44.3Z</time></trkpt><trkpt lat="46.1227963" lon="13.5226913"><ele>164.0</ele><time>2026-03-22T10:04:45.305Z</time></trkpt><trkpt lat="46.1229412" lon="13.522649"><ele>165.0</ele><time>2026-03-22T10:04:46.294Z</time></trkpt><trkpt lat="46.1230829" lon="13.5225833"><ele>166.0</ele><time>2026-03-22T10:04:47.302Z</time></trkpt><trkpt lat="46.1232268" lon="13.5225198"><ele>167.0</ele><time>2026-03-22T10:04:48.3Z</time></trkpt><trkpt lat="46.1233797" lon="13.5224834"><ele>168.0</ele><time>2026-03-22T10:04:49.304Z</time></trkpt><trkpt lat="46.123533" lon="13.5224458"><ele>169.0</ele><time>2026-03-22T10:04:50.304Z</time></trkpt><trkpt lat="46.123683" lon="13.5224132"><ele>169.0</ele><time>2026-03-22T10:04:51.307Z</time></trkpt><trkpt lat="46.1238325" lon="13.5224024"><ele>169.0</ele><time>2026-03-22T10:04:52.286Z</time></trkpt><trkpt lat="46.1239792" lon="13.5224211"><ele>169.0</ele><time>2026-03-22T10:04:53.294Z</time></trkpt><trkpt lat="46.1241198" lon="13.5224784"><ele>169.0</ele><time>2026-03-22T10:04:54.3Z</time></trkpt><trkpt lat="46.1242571" lon="13.52255"><ele>170.0</ele><time>2026-03-22T10:04:55.303Z</time></trkpt><trkpt lat="46.124394" lon="13.5226384"><ele>171.0</ele><time>2026-03-22T10:04:56.304Z</time></trkpt><trkpt lat="46.1245289" lon="13.5227377"><ele>172.0</ele><time>2026-03-22T10:04:57.307Z</time></trkpt><trkpt lat="46.1246606" lon="13.522836"><ele>169.5</ele><time>2026-03-22T10:04:58.313Z</time></trkpt><trkpt lat="46.1247852" lon="13.5229489"><ele>167.0</ele><time>2026-03-22T10:04:59.32Z</time></trkpt><trkpt lat="46.124899" lon="13.523075"><ele>164.5</ele><time>2026-03-22T10:05:00.298Z</time></trkpt><trkpt lat="46.1250071" lon="13.5232186"><ele>162.0</ele><time>2026-03-22T10:05:01.302Z</time></trkpt><trkpt lat="46.125109" lon="13.5233741"><ele>162.0</ele><time>2026-03-22T10:05:02.298Z</time></trkpt><trkpt lat="46.1252074" lon="13.5235319"><ele>162.0</ele><time>2026-03-22T10:05:03.295Z</time></trkpt><trkpt lat="46.1253032" lon="13.5236946"><ele>162.0</ele><time>2026-03-22T10:05:04.299Z</time></trkpt><trkpt lat="46.1254058" lon="13.5238513"><ele>162.0</ele><time>2026-03-22T10:05:05.299Z</time></trkpt><trkpt lat="46.1255145" lon="13.5240015"><ele>161.66666666666666</ele><time>2026-03-22T10:05:06.3Z</time></trkpt><trkpt lat="46.1256276" lon="13.5241446"><ele>161.33333333333331</ele><time>2026-03-22T10:05:07.313Z</time></trkpt><trkpt lat="46.1257298" lon="13.5243056"><ele>161.0</ele><time>2026-03-22T10:05:08.29Z</time></trkpt><trkpt lat="46.12583" lon="13.5244679"><ele>161.5</ele><time>2026-03-22T10:05:09.298Z</time></trkpt><trkpt lat="46.1259302" lon="13.5246274"><ele>162.0</ele><time>2026-03-22T10:05:10.301Z</time></trkpt><trkpt lat="46.1260297" lon="13.524787"><ele>162.5</ele><time>2026-03-22T10:05:11.303Z</time></trkpt><trkpt lat="46.126128" lon="13.5249491"><ele>163.0</ele><time>2026-03-22T10:05:12.288Z</time></trkpt><trkpt lat="46.1262309" lon="13.5251053"><ele>163.0</ele><time>2026-03-22T10:05:13.313Z</time></trkpt><trkpt lat="46.1263385" lon="13.5252549"><ele>163.0</ele><time>2026-03-22T10:05:14.311Z</time></trkpt><trkpt lat="46.1264448" lon="13.5254079"><ele>163.0</ele><time>2026-03-22T10:05:15.303Z</time></trkpt><trkpt lat="46.1265535" lon="13.5255594"><ele>163.0</ele><time>2026-03-22T10:05:16.318Z</time></trkpt><trkpt lat="46.1266627" lon="13.5257097"><ele>163.0</ele><time>2026-03-22T10:05:17.292Z</time></trkpt><trkpt lat="46.1267671" lon="13.5258679"><ele>163.0</ele><time>2026-03-22T10:05:18.285Z</time></trkpt><trkpt lat="46.1268684" lon="13.5260241"><ele>163.0</ele><time>2026-03-22T10:05:19.319Z</time></trkpt><trkpt lat="46.1269734" lon="13.5261765"><ele>163.0</ele><time>2026-03-22T10:05:20.293Z</time></trkpt><trkpt lat="46.1270786" lon="13.5263304"><ele>163.0</ele><time>2026-03-22T10:05:21.299Z</time></trkpt><trkpt lat="46.1271821" lon="13.5264854"><ele>163.0</ele><time>2026-03-22T10:05:22.319Z</time></trkpt><trkpt lat="46.1272862" lon="13.5266414"><ele>163.0</ele><time>2026-03-22T10:05:23.326Z</time></trkpt><trkpt lat="46.1273877" lon="13.5268001"><ele>163.0</ele><time>2026-03-22T10:05:24.305Z</time></trkpt><trkpt lat="46.1274833" lon="13.5269681"><ele>163.0</ele><time>2026-03-22T10:05:25.333Z</time></trkpt><trkpt lat="46.1275964" lon="13.5270997"><ele>163.0</ele><time>2026-03-22T10:05:26.319Z</time></trkpt><trkpt lat="46.1276804" lon="13.5272766"><ele>163.0</ele><time>2026-03-22T10:05:27.322Z</time></trkpt><trkpt lat="46.1277769" lon="13.5274349"><ele>163.0</ele><time>2026-03-22T10:05:28.288Z</time></trkpt><trkpt lat="46.1278857" lon="13.5275662"><ele>163.0</ele><time>2026-03-22T10:05:29.288Z</time></trkpt><trkpt lat="46.1280015" lon="13.5276923"><ele>163.0</ele><time>2026-03-22T10:05:30.304Z</time></trkpt><trkpt lat="46.1281218" lon="13.5278095"><ele>164.5</ele><time>2026-03-22T10:05:31.3Z</time></trkpt><trkpt lat="46.1282332" lon="13.5279393"><ele>166.0</ele><time>2026-03-22T10:05:32.278Z</time></trkpt><trkpt lat="46.1283389" lon="13.5280822"><ele>167.5</ele><time>2026-03-22T10:05:33.289Z</time></trkpt><trkpt lat="46.1284525" lon="13.5282207"><ele>169.0</ele><time>2026-03-22T10:05:34.31Z</time></trkpt><trkpt lat="46.1285688" lon="13.5283572"><ele>169.0</ele><time>2026-03-22T10:05:35.322Z</time></trkpt><trkpt lat="46.1286904" lon="13.5284821"><ele>169.0</ele><time>2026-03-22T10:05:36.306Z</time></trkpt><trkpt lat="46.1288131" lon="13.5286133"><ele>169.0</ele><time>2026-03-22T10:05:37.314Z</time></trkpt><trkpt lat="46.1289421" lon="13.5287376"><ele>169.25</ele><time>2026-03-22T10:05:38.321Z</time></trkpt><trkpt lat="46.1290678" lon="13.5288552"><ele>169.5</ele><time>2026-03-22T10:05:39.317Z</time></trkpt><trkpt lat="46.1291902" lon="13.5289735"><ele>169.75</ele><time>2026-03-22T10:05:40.304Z</time></trkpt><trkpt lat="46.129313" lon="13.5290888"><ele>170.0</ele><time>2026-03-22T10:05:41.289Z</time></trkpt><trkpt lat="46.1294332" lon="13.529209"><ele>170.0</ele><time>2026-03-22T10:05:42.304Z</time></trkpt><trkpt lat="46.1295737" lon="13.5292929"><ele>170.0</ele><time>2026-03-22T10:05:43.306Z</time></trkpt><trkpt lat="46.1296944" lon="13.52942"><ele>170.0</ele><time>2026-03-22T10:05:44.291Z</time></trkpt><trkpt lat="46.1298242" lon="13.5295181"><ele>170.0</ele><time>2026-03-22T10:05:45.287Z</time></trkpt><trkpt lat="46.1300589" lon="13.5297804"><ele>171.75</ele><time>2026-03-22T10:05:47.33Z</time></trkpt><trkpt lat="46.1301754" lon="13.5299142"><ele>173.5</ele><time>2026-03-22T10:05:48.302Z</time></trkpt><trkpt lat="46.1302817" lon="13.5300635"><ele>175.25</ele><time>2026-03-22T10:05:49.298Z</time></trkpt><trkpt lat="46.130382" lon="13.530222"><ele>177.0</ele><time>2026-03-22T10:05:50.299Z</time></trkpt><trkpt lat="46.1304762" lon="13.5303874"><ele>178.0</ele><time>2026-03-22T10:05:51.312Z</time></trkpt><trkpt lat="46.1305882" lon="13.5305407"><ele>179.0</ele><time>2026-03-22T10:05:52.302Z</time></trkpt><trkpt lat="46.130683" lon="13.5307102"><ele>180.0</ele><time>2026-03-22T10:05:53.291Z</time></trkpt><trkpt lat="46.1307685" lon="13.5308771"><ele>181.0</ele><time>2026-03-22T10:05:54.301Z</time></trkpt><trkpt lat="46.1308681" lon="13.5310336"><ele>181.0</ele><time>2026-03-22T10:05:55.309Z</time></trkpt><trkpt lat="46.130953" lon="13.5312176"><ele>181.0</ele><time>2026-03-22T10:05:56.305Z</time></trkpt><trkpt lat="46.1310437" lon="13.531393"><ele>181.0</ele><time>2026-03-22T10:05:57.3Z</time></trkpt><trkpt lat="46.1311395" lon="13.5315613"><ele>178.75</ele><time>2026-03-22T10:05:58.299Z</time></trkpt><trkpt lat="46.1312311" lon="13.5317371"><ele>176.5</ele><time>2026-03-22T10:05:59.305Z</time></trkpt><trkpt lat="46.1313249" lon="13.531905"><ele>174.25</ele><time>2026-03-22T10:06:00.306Z</time></trkpt><trkpt lat="46.1314187" lon="13.5320684"><ele>172.0</ele><time>2026-03-22T10:06:01.304Z</time></trkpt><trkpt lat="46.1315208" lon="13.5322248"><ele>172.33333333333334</ele><time>2026-03-22T10:06:02.312Z</time></trkpt><trkpt lat="46.1316267" lon="13.5323751"><ele>172.66666666666666</ele><time>2026-03-22T10:06:03.285Z</time></trkpt><trkpt lat="46.1317293" lon="13.5325317"><ele>173.0</ele><time>2026-03-22T10:06:04.29Z</time></trkpt><trkpt lat="46.132074" lon="13.5329514"><ele>172.0</ele><time>2026-03-22T10:06:07.303Z</time></trkpt><trkpt lat="46.132194" lon="13.5330808"><ele>171.0</ele><time>2026-03-22T10:06:08.287Z</time></trkpt><trkpt lat="46.13231" lon="13.5332164"><ele>170.0</ele><time>2026-03-22T10:06:09.307Z</time></trkpt><trkpt lat="46.1324208" lon="13.5333601"><ele>169.0</ele><time>2026-03-22T10:06:10.297Z</time></trkpt><trkpt lat="46.1325349" lon="13.5335035"><ele>169.0</ele><time>2026-03-22T10:06:11.296Z</time></trkpt><trkpt lat="46.1326335" lon="13.5336692"><ele>169.0</ele><time>2026-03-22T10:06:12.286Z</time></trkpt><trkpt lat="46.1327275" lon="13.533836"><ele>169.0</ele><time>2026-03-22T10:06:13.292Z</time></trkpt><trkpt lat="46.1328123" lon="13.5340116"><ele>169.0</ele><time>2026-03-22T10:06:14.288Z</time></trkpt><trkpt lat="46.1328961" lon="13.5341872"><ele>169.75</ele><time>2026-03-22T10:06:15.313Z</time></trkpt><trkpt lat="46.1329724" lon="13.5343703"><ele>170.5</ele><time>2026-03-22T10:06:16.292Z</time></trkpt><trkpt lat="46.1330507" lon="13.5345439"><ele>171.25</ele><time>2026-03-22T10:06:17.293Z</time></trkpt><trkpt lat="46.1331172" lon="13.5347167"><ele>172.0</ele><time>2026-03-22T10:06:18.311Z</time></trkpt><trkpt lat="46.1331883" lon="13.5348733"><ele>172.25</ele><time>2026-03-22T10:06:19.299Z</time></trkpt><trkpt lat="46.1332613" lon="13.5350192"><ele>172.5</ele><time>2026-03-22T10:06:20.3Z</time></trkpt><trkpt lat="46.1333133" lon="13.5351753"><ele>172.75</ele><time>2026-03-22T10:06:21.317Z</time></trkpt><trkpt lat="46.1333803" lon="13.535308"><ele>173.0</ele><time>2026-03-22T10:06:22.288Z</time></trkpt><trkpt lat="46.1334517" lon="13.535437"><ele>173.5</ele><time>2026-03-22T10:06:23.306Z</time></trkpt><trkpt lat="46.1335112" lon="13.5355757"><ele>174.0</ele><time>2026-03-22T10:06:24.288Z</time></trkpt><trkpt lat="46.1335897" lon="13.5356991"><ele>174.5</ele><time>2026-03-22T10:06:25.301Z</time></trkpt><trkpt lat="46.1336614" lon="13.5358338"><ele>175.0</ele><time>2026-03-22T10:06:26.303Z</time></trkpt><trkpt lat="46.1337263" lon="13.5359716"><ele>175.0</ele><time>2026-03-22T10:06:27.285Z</time></trkpt><trkpt lat="46.1337984" lon="13.5361005"><ele>175.0</ele><time>2026-03-22T10:06:28.319Z</time></trkpt><trkpt lat="46.1338777" lon="13.5362121"><ele>175.0</ele><time>2026-03-22T10:06:29.315Z</time></trkpt><trkpt lat="46.1339427" lon="13.536332"><ele>175.0</ele><time>2026-03-22T10:06:30.291Z</time></trkpt><trkpt lat="46.1340079" lon="13.536443"><ele>175.0</ele><time>2026-03-22T10:06:31.304Z</time></trkpt><trkpt lat="46.1340821" lon="13.5365321"><ele>176.6</ele><time>2026-03-22T10:06:32.3Z</time></trkpt><trkpt lat="46.13417" lon="13.5365833"><ele>178.2</ele><time>2026-03-22T10:06:33.298Z</time></trkpt><trkpt lat="46.1342597" lon="13.5366095"><ele>179.8</ele><time>2026-03-22T10:06:34.305Z</time></trkpt><trkpt lat="46.1343536" lon="13.5366216"><ele>181.4</ele><time>2026-03-22T10:06:35.304Z</time></trkpt><trkpt lat="46.1344453" lon="13.536591"><ele>183.0</ele><time>2026-03-22T10:06:36.317Z</time></trkpt><trkpt lat="46.1345342" lon="13.536585"><ele>183.0</ele><time>2026-03-22T10:06:37.302Z</time></trkpt><trkpt lat="46.1346211" lon="13.5366033"><ele>183.0</ele><time>2026-03-22T10:06:38.3Z</time></trkpt><trkpt lat="46.134707" lon="13.5366609"><ele>183.0</ele><time>2026-03-22T10:06:39.311Z</time></trkpt><trkpt lat="46.1347906" lon="13.5367395"><ele>183.0</ele><time>2026-03-22T10:06:40.287Z</time></trkpt><trkpt lat="46.1348779" lon="13.536832"><ele>183.0</ele><time>2026-03-22T10:06:41.302Z</time></trkpt><trkpt lat="46.1349773" lon="13.5369177"><ele>182.0</ele><time>2026-03-22T10:06:42.29Z</time></trkpt><trkpt lat="46.1350797" lon="13.5370077"><ele>181.0</ele><time>2026-03-22T10:06:43.303Z</time></trkpt><trkpt lat="46.1351817" lon="13.5370954"><ele>180.0</ele><time>2026-03-22T10:06:44.302Z</time></trkpt><trkpt lat="46.1352776" lon="13.5371813"><ele>179.0</ele><time>2026-03-22T10:06:45.292Z</time></trkpt><trkpt lat="46.1353714" lon="13.5372573"><ele>179.0</ele><time>2026-03-22T10:06:46.287Z</time></trkpt><trkpt lat="46.1354626" lon="13.537324"><ele>179.0</ele><time>2026-03-22T10:06:47.292Z</time></trkpt><trkpt lat="46.1355475" lon="13.5373944"><ele>179.0</ele><time>2026-03-22T10:06:48.296Z</time></trkpt><trkpt lat="46.1356285" lon="13.5374658"><ele>179.0</ele><time>2026-03-22T10:06:49.29Z</time></trkpt><trkpt lat="46.1357042" lon="13.5375374"><ele>179.0</ele><time>2026-03-22T10:06:50.293Z</time></trkpt><trkpt lat="46.1357888" lon="13.537579"><ele>179.2</ele><time>2026-03-22T10:06:51.289Z</time></trkpt><trkpt lat="46.135853" lon="13.5376859"><ele>179.39999999999998</ele><time>2026-03-22T10:06:52.296Z</time></trkpt><trkpt lat="46.135943" lon="13.537748"><ele>179.6</ele><time>2026-03-22T10:06:53.293Z</time></trkpt><trkpt lat="46.1360373" lon="13.5378059"><ele>179.8</ele><time>2026-03-22T10:06:54.299Z</time></trkpt><trkpt lat="46.1361264" lon="13.5378552"><ele>180.0</ele><time>2026-03-22T10:06:55.294Z</time></trkpt><trkpt lat="46.136204" lon="13.5379013"><ele>180.0</ele><time>2026-03-22T10:06:56.3Z</time></trkpt><trkpt lat="46.1362847" lon="13.5379244"><ele>180.0</ele><time>2026-03-22T10:06:57.293Z</time></trkpt><trkpt lat="46.1363648" lon="13.5379841"><ele>180.0</ele><time>2026-03-22T10:06:58.29Z</time></trkpt><trkpt lat="46.1364545" lon="13.5380594"><ele>180.0</ele><time>2026-03-22T10:06:59.288Z</time></trkpt><trkpt lat="46.1365491" lon="13.5381446"><ele>180.0</ele><time>2026-03-22T10:07:00.297Z</time></trkpt><trkpt lat="46.1366594" lon="13.5382155"><ele>180.25</ele><time>2026-03-22T10:07:01.309Z</time></trkpt><trkpt lat="46.1367753" lon="13.5382929"><ele>180.5</ele><time>2026-03-22T10:07:02.297Z</time></trkpt><trkpt lat="46.1369036" lon="13.5383564"><ele>180.75</ele><time>2026-03-22T10:07:03.305Z</time></trkpt><trkpt lat="46.1370332" lon="13.5384276"><ele>181.0</ele><time>2026-03-22T10:07:04.306Z</time></trkpt><trkpt lat="46.1371615" lon="13.5385029"><ele>181.0</ele><time>2026-03-22T10:07:05.292Z</time></trkpt><trkpt lat="46.1372857" lon="13.5385842"><ele>181.0</ele><time>2026-03-22T10:07:06.293Z</time></trkpt><trkpt lat="46.1374113" lon="13.5386617"><ele>181.0</ele><time>2026-03-22T10:07:07.287Z</time></trkpt><trkpt lat="46.1375352" lon="13.5387311"><ele>181.0</ele><time>2026-03-22T10:07:08.296Z</time></trkpt><trkpt lat="46.1376598" lon="13.5388067"><ele>181.25</ele><time>2026-03-22T10:07:09.315Z</time></trkpt><trkpt lat="46.1377854" lon="13.5388741"><ele>181.5</ele><time>2026-03-22T10:07:10.299Z</time></trkpt><trkpt lat="46.1379051" lon="13.5389565"><ele>181.75</ele><time>2026-03-22T10:07:11.318Z</time></trkpt><trkpt lat="46.1380239" lon="13.5390525"><ele>182.0</ele><time>2026-03-22T10:07:12.301Z</time></trkpt><trkpt lat="46.1381403" lon="13.5391561"><ele>182.0</ele><time>2026-03-22T10:07:13.302Z</time></trkpt><trkpt lat="46.1382539" lon="13.5392679"><ele>182.0</ele><time>2026-03-22T10:07:14.307Z</time></trkpt><trkpt lat="46.138367" lon="13.5393811"><ele>182.0</ele><time>2026-03-22T10:07:15.311Z</time></trkpt><trkpt lat="46.1384754" lon="13.5395076"><ele>182.0</ele><time>2026-03-22T10:07:16.287Z</time></trkpt><trkpt lat="46.1385781" lon="13.5396541"><ele>182.0</ele><time>2026-03-22T10:07:17.293Z</time></trkpt><trkpt lat="46.138683" lon="13.5398021"><ele>182.0</ele><time>2026-03-22T10:07:18.3Z</time></trkpt><trkpt lat="46.1387812" lon="13.5399649"><ele>182.0</ele><time>2026-03-22T10:07:19.297Z</time></trkpt><trkpt lat="46.1388788" lon="13.5401413"><ele>182.0</ele><time>2026-03-22T10:07:20.303Z</time></trkpt><trkpt lat="46.1389844" lon="13.5403147"><ele>182.0</ele><time>2026-03-22T10:07:21.302Z</time></trkpt><trkpt lat="46.139093" lon="13.5404892"><ele>182.0</ele><time>2026-03-22T10:07:22.3Z</time></trkpt><trkpt lat="46.139206" lon="13.5406635"><ele>185.0</ele><time>2026-03-22T10:07:23.285Z</time></trkpt><trkpt lat="46.1393222" lon="13.5408378"><ele>188.0</ele><time>2026-03-22T10:07:24.305Z</time></trkpt><trkpt lat="46.139442" lon="13.5410065"><ele>191.0</ele><time>2026-03-22T10:07:25.3Z</time></trkpt><trkpt lat="46.1395606" lon="13.5411778"><ele>191.33333333333331</ele><time>2026-03-22T10:07:26.303Z</time></trkpt><trkpt lat="46.1396771" lon="13.541354"><ele>191.66666666666666</ele><time>2026-03-22T10:07:27.308Z</time></trkpt><trkpt lat="46.1397892" lon="13.5415387"><ele>192.0</ele><time>2026-03-22T10:07:28.302Z</time></trkpt><trkpt lat="46.1399018" lon="13.5417226"><ele>191.33333333333334</ele><time>2026-03-22T10:07:29.299Z</time></trkpt><trkpt lat="46.1400126" lon="13.5419063"><ele>190.66666666666669</ele><time>2026-03-22T10:07:30.291Z</time></trkpt><trkpt lat="46.1401259" lon="13.5420884"><ele>190.0</ele><time>2026-03-22T10:07:31.3Z</time></trkpt><trkpt lat="46.1402381" lon="13.5422742"><ele>190.0</ele><time>2026-03-22T10:07:32.297Z</time></trkpt><trkpt lat="46.1403426" lon="13.5424703"><ele>190.0</ele><time>2026-03-22T10:07:33.297Z</time></trkpt><trkpt lat="46.1404482" lon="13.5426676"><ele>190.0</ele><time>2026-03-22T10:07:34.302Z</time></trkpt><trkpt lat="46.1405557" lon="13.542865"><ele>193.66666666666669</ele><time>2026-03-22T10:07:35.301Z</time></trkpt><trkpt lat="46.1406659" lon="13.5430547"><ele>197.33333333333334</ele><time>2026-03-22T10:07:36.321Z</time></trkpt><trkpt lat="46.1407613" lon="13.5432622"><ele>201.0</ele><time>2026-03-22T10:07:37.298Z</time></trkpt><trkpt lat="46.1408538" lon="13.5434686"><ele>201.0</ele><time>2026-03-22T10:07:38.295Z</time></trkpt><trkpt lat="46.1409337" lon="13.5436862"><ele>201.0</ele><time>2026-03-22T10:07:39.293Z</time></trkpt><trkpt lat="46.1410098" lon="13.5439044"><ele>201.0</ele><time>2026-03-22T10:07:40.299Z</time></trkpt><trkpt lat="46.1410859" lon="13.5441227"><ele>199.0</ele><time>2026-03-22T10:07:41.305Z</time></trkpt><trkpt lat="46.1411518" lon="13.5443465"><ele>197.0</ele><time>2026-03-22T10:07:42.298Z</time></trkpt><trkpt lat="46.1412254" lon="13.5445615"><ele>195.0</ele><time>2026-03-22T10:07:43.299Z</time></trkpt><trkpt lat="46.1413031" lon="13.5447698"><ele>195.0</ele><time>2026-03-22T10:07:44.284Z</time></trkpt><trkpt lat="46.1413771" lon="13.5449777"><ele>195.0</ele><time>2026-03-22T10:07:45.308Z</time></trkpt><trkpt lat="46.1414569" lon="13.5451769"><ele>195.0</ele><time>2026-03-22T10:07:46.299Z</time></trkpt><trkpt lat="46.1415343" lon="13.5453767"><ele>192.33333333333334</ele><time>2026-03-22T10:07:47.298Z</time></trkpt><trkpt lat="46.1416167" lon="13.5455705"><ele>189.66666666666669</ele><time>2026-03-22T10:07:48.293Z</time></trkpt><trkpt lat="46.1416902" lon="13.5457712"><ele>187.0</ele><time>2026-03-22T10:07:49.306Z</time></trkpt><trkpt lat="46.1417653" lon="13.5459722"><ele>187.0</ele><time>2026-03-22T10:07:50.303Z</time></trkpt><trkpt lat="46.1418394" lon="13.5461731"><ele>187.0</ele><time>2026-03-22T10:07:51.292Z</time></trkpt><trkpt lat="46.1419115" lon="13.5463767"><ele>187.0</ele><time>2026-03-22T10:07:52.298Z</time></trkpt><trkpt lat="46.1419794" lon="13.546582"><ele>187.0</ele><time>2026-03-22T10:07:53.295Z</time></trkpt><trkpt lat="46.1420526" lon="13.5467799"><ele>187.0</ele><time>2026-03-22T10:07:54.297Z</time></trkpt><trkpt lat="46.1421241" lon="13.5469722"><ele>187.0</ele><time>2026-03-22T10:07:55.294Z</time></trkpt><trkpt lat="46.142193" lon="13.5471557"><ele>188.5</ele><time>2026-03-22T10:07:56.301Z</time></trkpt><trkpt lat="46.1422541" lon="13.5473335"><ele>190.0</ele><time>2026-03-22T10:07:57.286Z</time></trkpt><trkpt lat="46.1423144" lon="13.5474999"><ele>191.5</ele><time>2026-03-22T10:07:58.303Z</time></trkpt><trkpt lat="46.1423694" lon="13.5476626"><ele>193.0</ele><time>2026-03-22T10:07:59.3Z</time></trkpt><trkpt lat="46.1424276" lon="13.5478185"><ele>192.25</ele><time>2026-03-22T10:08:00.298Z</time></trkpt><trkpt lat="46.1424821" lon="13.5479787"><ele>191.5</ele><time>2026-03-22T10:08:01.298Z</time></trkpt><trkpt lat="46.1425441" lon="13.5481364"><ele>190.75</ele><time>2026-03-22T10:08:02.303Z</time></trkpt><trkpt lat="46.142606" lon="13.5482975"><ele>190.0</ele><time>2026-03-22T10:08:03.299Z</time></trkpt><trkpt lat="46.1426722" lon="13.5484592"><ele>190.0</ele><time>2026-03-22T10:08:04.288Z</time></trkpt><trkpt lat="46.1427405" lon="13.5486244"><ele>190.0</ele><time>2026-03-22T10:08:05.293Z</time></trkpt><trkpt lat="46.1428155" lon="13.5487866"><ele>190.0</ele><time>2026-03-22T10:08:06.301Z</time></trkpt><trkpt lat="46.1428907" lon="13.5489521"><ele>190.0</ele><time>2026-03-22T10:08:07.303Z</time></trkpt><trkpt lat="46.1429756" lon="13.5491096"><ele>189.75</ele><time>2026-03-22T10:08:08.294Z</time></trkpt><trkpt lat="46.1430551" lon="13.5492812"><ele>189.5</ele><time>2026-03-22T10:08:09.294Z</time></trkpt><trkpt lat="46.1431532" lon="13.5494417"><ele>189.25</ele><time>2026-03-22T10:08:10.3Z</time></trkpt><trkpt lat="46.1432401" lon="13.5496182"><ele>189.0</ele><time>2026-03-22T10:08:11.306Z</time></trkpt><trkpt lat="46.1433304" lon="13.5497946"><ele>190.66666666666669</ele><time>2026-03-22T10:08:12.309Z</time></trkpt><trkpt lat="46.1434194" lon="13.5499702"><ele>192.33333333333334</ele><time>2026-03-22T10:08:13.307Z</time></trkpt><trkpt lat="46.1435051" lon="13.5501523"><ele>194.0</ele><time>2026-03-22T10:08:14.311Z</time></trkpt><trkpt lat="46.1435881" lon="13.5503342"><ele>193.66666666666669</ele><time>2026-03-22T10:08:15.307Z</time></trkpt><trkpt lat="46.1436757" lon="13.55051"><ele>193.33333333333331</ele><time>2026-03-22T10:08:16.3Z</time></trkpt><trkpt lat="46.1437677" lon="13.5506832"><ele>193.0</ele><time>2026-03-22T10:08:17.296Z</time></trkpt><trkpt lat="46.1438811" lon="13.5508345"><ele>193.0</ele><time>2026-03-22T10:08:18.287Z</time></trkpt><trkpt lat="46.1439951" lon="13.5509825"><ele>193.0</ele><time>2026-03-22T10:08:19.312Z</time></trkpt><trkpt lat="46.1441189" lon="13.5511155"><ele>193.0</ele><time>2026-03-22T10:08:20.306Z</time></trkpt><trkpt lat="46.1442351" lon="13.5512548"><ele>193.75</ele><time>2026-03-22T10:08:21.301Z</time></trkpt><trkpt lat="46.1443432" lon="13.5513947"><ele>194.5</ele><time>2026-03-22T10:08:22.298Z</time></trkpt><trkpt lat="46.1444484" lon="13.551525"><ele>195.25</ele><time>2026-03-22T10:08:23.299Z</time></trkpt><trkpt lat="46.1445539" lon="13.5516459"><ele>196.0</ele><time>2026-03-22T10:08:24.288Z</time></trkpt><trkpt lat="46.144649" lon="13.5517774"><ele>196.0</ele><time>2026-03-22T10:08:25.299Z</time></trkpt><trkpt lat="46.1447434" lon="13.5519094"><ele>196.0</ele><time>2026-03-22T10:08:26.291Z</time></trkpt><trkpt lat="46.1448368" lon="13.5520445"><ele>196.0</ele><time>2026-03-22T10:08:27.304Z</time></trkpt><trkpt lat="46.1449276" lon="13.5521817"><ele>196.0</ele><time>2026-03-22T10:08:28.3Z</time></trkpt><trkpt lat="46.1450085" lon="13.5523296"><ele>195.75</ele><time>2026-03-22T10:08:29.297Z</time></trkpt><trkpt lat="46.1450846" lon="13.5524789"><ele>195.5</ele><time>2026-03-22T10:08:30.298Z</time></trkpt><trkpt lat="46.145152" lon="13.5526354"><ele>195.25</ele><time>2026-03-22T10:08:31.3Z</time></trkpt><trkpt lat="46.1452225" lon="13.5527834"><ele>195.0</ele><time>2026-03-22T10:08:32.304Z</time></trkpt><trkpt lat="46.1452943" lon="13.5529251"><ele>195.0</ele><time>2026-03-22T10:08:33.304Z</time></trkpt><trkpt lat="46.1453532" lon="13.5530784"><ele>195.0</ele><time>2026-03-22T10:08:34.298Z</time></trkpt><trkpt lat="46.145413" lon="13.5532334"><ele>195.0</ele><time>2026-03-22T10:08:35.302Z</time></trkpt><trkpt lat="46.1454648" lon="13.5533999"><ele>195.0</ele><time>2026-03-22T10:08:36.298Z</time></trkpt><trkpt lat="46.14552" lon="13.5535682"><ele>196.0</ele><time>2026-03-22T10:08:37.293Z</time></trkpt><trkpt lat="46.1455811" lon="13.553733"><ele>197.0</ele><time>2026-03-22T10:08:38.318Z</time></trkpt><trkpt lat="46.145644" lon="13.5538946"><ele>198.0</ele><time>2026-03-22T10:08:39.311Z</time></trkpt><trkpt lat="46.1457026" lon="13.55406"><ele>199.0</ele><time>2026-03-22T10:08:40.304Z</time></trkpt><trkpt lat="46.145766" lon="13.5542238"><ele>199.25</ele><time>2026-03-22T10:08:41.292Z</time></trkpt><trkpt lat="46.1458304" lon="13.554386"><ele>199.5</ele><time>2026-03-22T10:08:42.316Z</time></trkpt><trkpt lat="46.1459039" lon="13.554542"><ele>199.75</ele><time>2026-03-22T10:08:43.302Z</time></trkpt><trkpt lat="46.1459711" lon="13.5547059"><ele>200.0</ele><time>2026-03-22T10:08:44.304Z</time></trkpt><trkpt lat="46.1460358" lon="13.5548764"><ele>200.0</ele><time>2026-03-22T10:08:45.304Z</time></trkpt><trkpt lat="46.1460994" lon="13.5550503"><ele>200.0</ele><time>2026-03-22T10:08:46.299Z</time></trkpt><trkpt lat="46.1461707" lon="13.5552189"><ele>200.0</ele><time>2026-03-22T10:08:47.29Z</time></trkpt><trkpt lat="46.1462509" lon="13.555384"><ele>200.0</ele><time>2026-03-22T10:08:48.311Z</time></trkpt><trkpt lat="46.1463279" lon="13.5555585"><ele>199.66666666666669</ele><time>2026-03-22T10:08:49.303Z</time></trkpt><trkpt lat="46.1464012" lon="13.555741"><ele>199.33333333333331</ele><time>2026-03-22T10:08:50.302Z</time></trkpt><trkpt lat="46.1464734" lon="13.5559326"><ele>199.0</ele><time>2026-03-22T10:08:51.293Z</time></trkpt><trkpt lat="46.1465436" lon="13.5561337"><ele>200.33333333333331</ele><time>2026-03-22T10:08:52.293Z</time></trkpt><trkpt lat="46.146607" lon="13.5563452"><ele>201.66666666666669</ele><time>2026-03-22T10:08:53.297Z</time></trkpt><trkpt lat="46.1466613" lon="13.5565669"><ele>203.0</ele><time>2026-03-22T10:08:54.3Z</time></trkpt><trkpt lat="46.1467245" lon="13.5567829"><ele>203.0</ele><time>2026-03-22T10:08:55.285Z</time></trkpt><trkpt lat="46.1467919" lon="13.5569925"><ele>203.0</ele><time>2026-03-22T10:08:56.302Z</time></trkpt><trkpt lat="46.1468591" lon="13.5572007"><ele>203.0</ele><time>2026-03-22T10:08:57.304Z</time></trkpt><trkpt lat="46.1469225" lon="13.557408"><ele>202.5</ele><time>2026-03-22T10:08:58.317Z</time></trkpt><trkpt lat="46.1469869" lon="13.5576074"><ele>202.0</ele><time>2026-03-22T10:08:59.298Z</time></trkpt><trkpt lat="46.1470517" lon="13.5577995"><ele>201.5</ele><time>2026-03-22T10:09:00.301Z</time></trkpt><trkpt lat="46.1471112" lon="13.5579862"><ele>201.0</ele><time>2026-03-22T10:09:01.303Z</time></trkpt><trkpt lat="46.1471679" lon="13.5581677"><ele>201.0</ele><time>2026-03-22T10:09:02.29Z</time></trkpt><trkpt lat="46.1472304" lon="13.5583418"><ele>201.0</ele><time>2026-03-22T10:09:03.293Z</time></trkpt><trkpt lat="46.1472974" lon="13.5585101"><ele>201.0</ele><time>2026-03-22T10:09:04.296Z</time></trkpt><trkpt lat="46.1473661" lon="13.5586772"><ele>201.0</ele><time>2026-03-22T10:09:05.288Z</time></trkpt><trkpt lat="46.1474474" lon="13.5588323"><ele>202.25</ele><time>2026-03-22T10:09:06.3Z</time></trkpt><trkpt lat="46.1475353" lon="13.5589798"><ele>203.5</ele><time>2026-03-22T10:09:07.284Z</time></trkpt><trkpt lat="46.1476227" lon="13.559129"><ele>204.75</ele><time>2026-03-22T10:09:08.3Z</time></trkpt><trkpt lat="46.1477186" lon="13.5592669"><ele>206.0</ele><time>2026-03-22T10:09:09.299Z</time></trkpt><trkpt lat="46.1478091" lon="13.5594107"><ele>206.0</ele><time>2026-03-22T10:09:10.294Z</time></trkpt><trkpt lat="46.1478967" lon="13.5595532"><ele>206.0</ele><time>2026-03-22T10:09:11.302Z</time></trkpt><trkpt lat="46.1479884" lon="13.5596821"><ele>206.0</ele><time>2026-03-22T10:09:12.295Z</time></trkpt><trkpt lat="46.1480659" lon="13.5598216"><ele>206.0</ele><time>2026-03-22T10:09:13.307Z</time></trkpt><trkpt lat="46.1481294" lon="13.5599748"><ele>206.0</ele><time>2026-03-22T10:09:14.287Z</time></trkpt><trkpt lat="46.1481814" lon="13.5601417"><ele>206.0</ele><time>2026-03-22T10:09:15.297Z</time></trkpt><trkpt lat="46.1482228" lon="13.5603226"><ele>206.0</ele><time>2026-03-22T10:09:16.287Z</time></trkpt><trkpt lat="46.1482888" lon="13.5605004"><ele>206.0</ele><time>2026-03-22T10:09:17.305Z</time></trkpt><trkpt lat="46.1483606" lon="13.5606793"><ele>208.0</ele><time>2026-03-22T10:09:18.304Z</time></trkpt><trkpt lat="46.1484333" lon="13.560856"><ele>210.0</ele><time>2026-03-22T10:09:19.297Z</time></trkpt><trkpt lat="46.1485041" lon="13.5610334"><ele>212.0</ele><time>2026-03-22T10:09:20.295Z</time></trkpt><trkpt lat="46.1485612" lon="13.5612271"><ele>214.0</ele><time>2026-03-22T10:09:21.292Z</time></trkpt><trkpt lat="46.1486517" lon="13.5614"><ele>214.66666666666666</ele><time>2026-03-22T10:09:22.298Z</time></trkpt><trkpt lat="46.1487603" lon="13.5615582"><ele>215.33333333333331</ele><time>2026-03-22T10:09:23.294Z</time></trkpt><trkpt lat="46.1488498" lon="13.5617355"><ele>216.0</ele><time>2026-03-22T10:09:24.306Z</time></trkpt><trkpt lat="46.1489463" lon="13.5619019"><ele>215.66666666666669</ele><time>2026-03-22T10:09:25.309Z</time></trkpt><trkpt lat="46.149041" lon="13.562079"><ele>215.33333333333334</ele><time>2026-03-22T10:09:26.287Z</time></trkpt><trkpt lat="46.1491193" lon="13.5622732"><ele>215.0</ele><time>2026-03-22T10:09:27.313Z</time></trkpt><trkpt lat="46.1491671" lon="13.5624929"><ele>215.0</ele><time>2026-03-22T10:09:28.32Z</time></trkpt><trkpt lat="46.1492229" lon="13.5627056"><ele>215.0</ele><time>2026-03-22T10:09:29.299Z</time></trkpt><trkpt lat="46.1492762" lon="13.5629169"><ele>215.0</ele><time>2026-03-22T10:09:30.3Z</time></trkpt><trkpt lat="46.1493252" lon="13.5631308"><ele>214.33333333333334</ele><time>2026-03-22T10:09:31.302Z</time></trkpt><trkpt lat="46.149375" lon="13.563346"><ele>213.66666666666669</ele><time>2026-03-22T10:09:32.316Z</time></trkpt><trkpt lat="46.1494227" lon="13.5635618"><ele>213.0</ele><time>2026-03-22T10:09:33.299Z</time></trkpt><trkpt lat="46.1494756" lon="13.5637691"><ele>216.0</ele><time>2026-03-22T10:09:34.294Z</time></trkpt><trkpt lat="46.1495214" lon="13.5639801"><ele>219.0</ele><time>2026-03-22T10:09:35.306Z</time></trkpt><trkpt lat="46.1495809" lon="13.5641833"><ele>222.0</ele><time>2026-03-22T10:09:36.3Z</time></trkpt><trkpt lat="46.1496562" lon="13.5643704"><ele>221.0</ele><time>2026-03-22T10:09:37.296Z</time></trkpt><trkpt lat="46.1497393" lon="13.5645517"><ele>220.0</ele><time>2026-03-22T10:09:38.299Z</time></trkpt><trkpt lat="46.1497868" lon="13.5647567"><ele>219.0</ele><time>2026-03-22T10:09:39.304Z</time></trkpt><trkpt lat="46.1498188" lon="13.5649705"><ele>219.0</ele><time>2026-03-22T10:09:40.303Z</time></trkpt><trkpt lat="46.1498516" lon="13.5651799"><ele>219.0</ele><time>2026-03-22T10:09:41.304Z</time></trkpt><trkpt lat="46.1498754" lon="13.5653785"><ele>219.0</ele><time>2026-03-22T10:09:42.312Z</time></trkpt><trkpt lat="46.149897" lon="13.565566"><ele>219.0</ele><time>2026-03-22T10:09:43.303Z</time></trkpt><trkpt lat="46.1499315" lon="13.5657434"><ele>220.6</ele><time>2026-03-22T10:09:44.307Z</time></trkpt><trkpt lat="46.1499524" lon="13.5659178"><ele>222.2</ele><time>2026-03-22T10:09:45.293Z</time></trkpt><trkpt lat="46.1499786" lon="13.5660771"><ele>223.79999999999998</ele><time>2026-03-22T10:09:46.293Z</time></trkpt><trkpt lat="46.1499969" lon="13.5662273"><ele>225.39999999999998</ele><time>2026-03-22T10:09:47.299Z</time></trkpt><trkpt lat="46.1500546" lon="13.5663515"><ele>227.0</ele><time>2026-03-22T10:09:48.298Z</time></trkpt><trkpt lat="46.1501065" lon="13.5664755"><ele>227.0</ele><time>2026-03-22T10:09:49.301Z</time></trkpt><trkpt lat="46.1501484" lon="13.5666089"><ele>227.0</ele><time>2026-03-22T10:09:50.297Z</time></trkpt><trkpt lat="46.1501675" lon="13.5667585"><ele>227.0</ele><time>2026-03-22T10:09:51.307Z</time></trkpt><trkpt lat="46.1501763" lon="13.5669141"><ele>227.0</ele><time>2026-03-22T10:09:52.303Z</time></trkpt><trkpt lat="46.1501907" lon="13.567068"><ele>227.0</ele><time>2026-03-22T10:09:53.3Z</time></trkpt><trkpt lat="46.1502148" lon="13.5672218"><ele>226.0</ele><time>2026-03-22T10:09:54.315Z</time></trkpt><trkpt lat="46.1502581" lon="13.5673698"><ele>225.0</ele><time>2026-03-22T10:09:55.302Z</time></trkpt><trkpt lat="46.1502907" lon="13.5675155"><ele>224.0</ele><time>2026-03-22T10:09:56.298Z</time></trkpt><trkpt lat="46.1503065" lon="13.5676594"><ele>223.0</ele><time>2026-03-22T10:09:57.296Z</time></trkpt><trkpt lat="46.1503224" lon="13.5677999"><ele>222.0</ele><time>2026-03-22T10:09:58.298Z</time></trkpt><trkpt lat="46.1503315" lon="13.5679389"><ele>221.8</ele><time>2026-03-22T10:09:59.29Z</time></trkpt><trkpt lat="46.1503183" lon="13.5680773"><ele>221.6</ele><time>2026-03-22T10:10:00.3Z</time></trkpt><trkpt lat="46.1502964" lon="13.568218"><ele>221.40000000000003</ele><time>2026-03-22T10:10:01.298Z</time></trkpt><trkpt lat="46.1502934" lon="13.5683733"><ele>221.20000000000002</ele><time>2026-03-22T10:10:02.3Z</time></trkpt><trkpt lat="46.1502673" lon="13.5685361"><ele>221.0</ele><time>2026-03-22T10:10:03.29Z</time></trkpt><trkpt lat="46.1502445" lon="13.5687076"><ele>221.75</ele><time>2026-03-22T10:10:04.299Z</time></trkpt><trkpt lat="46.1502304" lon="13.5688803"><ele>222.5</ele><time>2026-03-22T10:10:05.289Z</time></trkpt><trkpt lat="46.1501963" lon="13.5690464"><ele>223.25</ele><time>2026-03-22T10:10:06.294Z</time></trkpt><trkpt lat="46.1501763" lon="13.569204"><ele>224.0</ele><time>2026-03-22T10:10:07.305Z</time></trkpt><trkpt lat="46.1501525" lon="13.5693448"><ele>224.00000000000003</ele><time>2026-03-22T10:10:08.307Z</time></trkpt><trkpt lat="46.1501121" lon="13.5694661"><ele>224.0</ele><time>2026-03-22T10:10:09.311Z</time></trkpt><trkpt lat="46.1500822" lon="13.5695837"><ele>224.0</ele><time>2026-03-22T10:10:10.307Z</time></trkpt><trkpt lat="46.1500341" lon="13.569685"><ele>224.0</ele><time>2026-03-22T10:10:11.296Z</time></trkpt><trkpt lat="46.1499803" lon="13.5697771"><ele>224.00000000000003</ele><time>2026-03-22T10:10:12.296Z</time></trkpt><trkpt lat="46.1499208" lon="13.5698661"><ele>224.0</ele><time>2026-03-22T10:10:13.289Z</time></trkpt><trkpt lat="46.1498709" lon="13.5699721"><ele>224.79999999999998</ele><time>2026-03-22T10:10:14.302Z</time></trkpt><trkpt lat="46.1498409" lon="13.5700962"><ele>225.59999999999997</ele><time>2026-03-22T10:10:15.314Z</time></trkpt><trkpt lat="46.1498567" lon="13.5702398"><ele>226.4</ele><time>2026-03-22T10:10:16.313Z</time></trkpt><trkpt lat="46.1499282" lon="13.5703749"><ele>227.2</ele><time>2026-03-22T10:10:17.306Z</time></trkpt><trkpt lat="46.1499959" lon="13.5705229"><ele>228.0</ele><time>2026-03-22T10:10:18.302Z</time></trkpt><trkpt lat="46.1500456" lon="13.5706898"><ele>228.0</ele><time>2026-03-22T10:10:19.311Z</time></trkpt><trkpt lat="46.1500984" lon="13.5708585"><ele>228.0</ele><time>2026-03-22T10:10:20.306Z</time></trkpt><trkpt lat="46.1501493" lon="13.5710253"><ele>228.0</ele><time>2026-03-22T10:10:21.298Z</time></trkpt><trkpt lat="46.1502127" lon="13.5711807"><ele>228.0</ele><time>2026-03-22T10:10:22.298Z</time></trkpt><trkpt lat="46.1502625" lon="13.5713478"><ele>231.25</ele><time>2026-03-22T10:10:23.297Z</time></trkpt><trkpt lat="46.1503148" lon="13.5715123"><ele>234.5</ele><time>2026-03-22T10:10:24.294Z</time></trkpt><trkpt lat="46.1503981" lon="13.5716571"><ele>237.75</ele><time>2026-03-22T10:10:25.3Z</time></trkpt><trkpt lat="46.1504969" lon="13.5717927"><ele>241.0</ele><time>2026-03-22T10:10:26.304Z</time></trkpt><trkpt lat="46.1505977" lon="13.5719328"><ele>244.0</ele><time>2026-03-22T10:10:27.288Z</time></trkpt><trkpt lat="46.1506867" lon="13.5720963"><ele>247.0</ele><time>2026-03-22T10:10:28.287Z</time></trkpt><trkpt lat="46.1507587" lon="13.572281"><ele>250.0</ele><time>2026-03-22T10:10:29.288Z</time></trkpt><trkpt lat="46.1508336" lon="13.5724749"><ele>253.0</ele><time>2026-03-22T10:10:30.317Z</time></trkpt><trkpt lat="46.1509054" lon="13.572679"><ele>251.33333333333331</ele><time>2026-03-22T10:10:31.309Z</time></trkpt><trkpt lat="46.1510009" lon="13.5728636"><ele>249.66666666666669</ele><time>2026-03-22T10:10:32.295Z</time></trkpt><trkpt lat="46.1511035" lon="13.5730623"><ele>248.0</ele><time>2026-03-22T10:10:33.293Z</time></trkpt><trkpt lat="46.1512008" lon="13.5732546"><ele>248.0</ele><time>2026-03-22T10:10:34.295Z</time></trkpt><trkpt lat="46.1512931" lon="13.5733795"><ele>248.0</ele><time>2026-03-22T10:10:35.28Z</time></trkpt><trkpt lat="46.1513937" lon="13.5735301"><ele>248.0</ele><time>2026-03-22T10:10:36.299Z</time></trkpt><trkpt lat="46.151504" lon="13.5736559"><ele>248.0</ele><time>2026-03-22T10:10:37.301Z</time></trkpt><trkpt lat="46.1515964" lon="13.5737875"><ele>248.0</ele><time>2026-03-22T10:10:38.307Z</time></trkpt><trkpt lat="46.1516893" lon="13.5739229"><ele>248.0</ele><time>2026-03-22T10:10:39.306Z</time></trkpt><trkpt lat="46.1518039" lon="13.5740597"><ele>248.0</ele><time>2026-03-22T10:10:40.303Z</time></trkpt><trkpt lat="46.1519373" lon="13.5741695"><ele>248.0</ele><time>2026-03-22T10:10:41.289Z</time></trkpt><trkpt lat="46.1520688" lon="13.5742815"><ele>248.0</ele><time>2026-03-22T10:10:42.284Z</time></trkpt><trkpt lat="46.1521978" lon="13.5743794"><ele>248.0</ele><time>2026-03-22T10:10:43.28Z</time></trkpt><trkpt lat="46.1523199" lon="13.5744772"><ele>248.0</ele><time>2026-03-22T10:10:44.304Z</time></trkpt><trkpt lat="46.1524298" lon="13.5745729"><ele>248.0</ele><time>2026-03-22T10:10:45.309Z</time></trkpt><trkpt lat="46.152526" lon="13.5746853"><ele>247.0</ele><time>2026-03-22T10:10:46.313Z</time></trkpt><trkpt lat="46.1526144" lon="13.5748175"><ele>246.0</ele><time>2026-03-22T10:10:47.301Z</time></trkpt><trkpt lat="46.1526969" lon="13.5749626"><ele>245.0</ele><time>2026-03-22T10:10:48.287Z</time></trkpt><trkpt lat="46.1527355" lon="13.5751524"><ele>244.0</ele><time>2026-03-22T10:10:49.286Z</time></trkpt><trkpt lat="46.1527638" lon="13.5753452"><ele>249.75</ele><time>2026-03-22T10:10:50.298Z</time></trkpt><trkpt lat="46.1527932" lon="13.5755345"><ele>255.5</ele><time>2026-03-22T10:10:51.3Z</time></trkpt><trkpt lat="46.1528201" lon="13.5757234"><ele>261.25</ele><time>2026-03-22T10:10:52.318Z</time></trkpt><trkpt lat="46.1528511" lon="13.5759197"><ele>267.0</ele><time>2026-03-22T10:10:53.292Z</time></trkpt><trkpt lat="46.1529173" lon="13.5761146"><ele>274.6666666666667</ele><time>2026-03-22T10:10:54.291Z</time></trkpt><trkpt lat="46.1529888" lon="13.576311"><ele>282.33333333333337</ele><time>2026-03-22T10:10:55.304Z</time></trkpt><trkpt lat="46.1530598" lon="13.5765152"><ele>290.0</ele><time>2026-03-22T10:10:56.301Z</time></trkpt><trkpt lat="46.1531291" lon="13.5767244"><ele>279.33333333333337</ele><time>2026-03-22T10:10:57.289Z</time></trkpt><trkpt lat="46.1532063" lon="13.5769154"><ele>268.6666666666667</ele><time>2026-03-22T10:10:58.303Z</time></trkpt><trkpt lat="46.1533001" lon="13.5770959"><ele>258.0</ele><time>2026-03-22T10:10:59.288Z</time></trkpt><trkpt lat="46.1534149" lon="13.5772554"><ele>258.0</ele><time>2026-03-22T10:11:00.306Z</time></trkpt><trkpt lat="46.1535479" lon="13.5773903"><ele>258.0</ele><time>2026-03-22T10:11:01.305Z</time></trkpt><trkpt lat="46.1536858" lon="13.5775262"><ele>258.0</ele><time>2026-03-22T10:11:02.306Z</time></trkpt><trkpt lat="46.1538272" lon="13.577641"><ele>258.0</ele><time>2026-03-22T10:11:03.307Z</time></trkpt><trkpt lat="46.1539525" lon="13.5777626"><ele>258.0</ele><time>2026-03-22T10:11:04.301Z</time></trkpt><trkpt lat="46.1540612" lon="13.5778913"><ele>258.0</ele><time>2026-03-22T10:11:05.322Z</time></trkpt><trkpt lat="46.1541464" lon="13.5780408"><ele>258.0</ele><time>2026-03-22T10:11:06.321Z</time></trkpt><trkpt lat="46.1542262" lon="13.5781925"><ele>259.75</ele><time>2026-03-22T10:11:07.306Z</time></trkpt><trkpt lat="46.1543083" lon="13.578341"><ele>261.5</ele><time>2026-03-22T10:11:08.297Z</time></trkpt><trkpt lat="46.1544084" lon="13.5784699"><ele>263.25</ele><time>2026-03-22T10:11:09.304Z</time></trkpt><trkpt lat="46.1544778" lon="13.5786283"><ele>265.0</ele><time>2026-03-22T10:11:10.306Z</time></trkpt><trkpt lat="46.1545323" lon="13.5787855"><ele>265.0</ele><time>2026-03-22T10:11:11.299Z</time></trkpt><trkpt lat="46.1545626" lon="13.5789393"><ele>265.0</ele><time>2026-03-22T10:11:12.287Z</time></trkpt><trkpt lat="46.1545699" lon="13.5790965"><ele>265.0</ele><time>2026-03-22T10:11:13.287Z</time></trkpt><trkpt lat="46.1545519" lon="13.5792605"><ele>265.0</ele><time>2026-03-22T10:11:14.295Z</time></trkpt><trkpt lat="46.1545257" lon="13.5794387"><ele>267.0</ele><time>2026-03-22T10:11:15.3Z</time></trkpt><trkpt lat="46.1545165" lon="13.5796374"><ele>269.0</ele><time>2026-03-22T10:11:16.31Z</time></trkpt><trkpt lat="46.1545124" lon="13.5798404"><ele>271.0</ele><time>2026-03-22T10:11:17.303Z</time></trkpt><trkpt lat="46.1545093" lon="13.5800381"><ele>273.0</ele><time>2026-03-22T10:11:18.304Z</time></trkpt><trkpt lat="46.1544951" lon="13.5802346"><ele>273.75</ele><time>2026-03-22T10:11:19.314Z</time></trkpt><trkpt lat="46.1544841" lon="13.5804357"><ele>274.5</ele><time>2026-03-22T10:11:20.303Z</time></trkpt><trkpt lat="46.1544854" lon="13.5806474"><ele>275.25</ele><time>2026-03-22T10:11:21.321Z</time></trkpt><trkpt lat="46.1544848" lon="13.5808626"><ele>276.0</ele><time>2026-03-22T10:11:22.304Z</time></trkpt><trkpt lat="46.1544724" lon="13.5810711"><ele>274.75</ele><time>2026-03-22T10:11:23.306Z</time></trkpt><trkpt lat="46.1544648" lon="13.5812702"><ele>273.5</ele><time>2026-03-22T10:11:24.3Z</time></trkpt><trkpt lat="46.1544822" lon="13.5814594"><ele>272.25</ele><time>2026-03-22T10:11:25.301Z</time></trkpt><trkpt lat="46.1544957" lon="13.5816315"><ele>271.0</ele><time>2026-03-22T10:11:26.317Z</time></trkpt><trkpt lat="46.1545303" lon="13.5817967"><ele>271.0</ele><time>2026-03-22T10:11:27.306Z</time></trkpt><trkpt lat="46.1545902" lon="13.5819507"><ele>271.0</ele><time>2026-03-22T10:11:28.322Z</time></trkpt><trkpt lat="46.1546808" lon="13.5820729"><ele>271.0</ele><time>2026-03-22T10:11:29.297Z</time></trkpt><trkpt lat="46.1547801" lon="13.5821743"><ele>271.0</ele><time>2026-03-22T10:11:30.296Z</time></trkpt><trkpt lat="46.1548721" lon="13.5822635"><ele>267.2</ele><time>2026-03-22T10:11:31.297Z</time></trkpt><trkpt lat="46.1549598" lon="13.582354"><ele>263.40000000000003</ele><time>2026-03-22T10:11:32.303Z</time></trkpt><trkpt lat="46.1550527" lon="13.582428"><ele>259.6</ele><time>2026-03-22T10:11:33.303Z</time></trkpt><trkpt lat="46.1551414" lon="13.5825065"><ele>255.8</ele><time>2026-03-22T10:11:34.314Z</time></trkpt><trkpt lat="46.1552267" lon="13.5825824"><ele>252.0</ele><time>2026-03-22T10:11:35.299Z</time></trkpt><trkpt lat="46.155305" lon="13.5826742"><ele>252.0</ele><time>2026-03-22T10:11:36.283Z</time></trkpt><trkpt lat="46.1553783" lon="13.5827818"><ele>252.0</ele><time>2026-03-22T10:11:37.305Z</time></trkpt><trkpt lat="46.155443" lon="13.5829076"><ele>252.0</ele><time>2026-03-22T10:11:38.297Z</time></trkpt><trkpt lat="46.155503" lon="13.5830406"><ele>252.0</ele><time>2026-03-22T10:11:39.311Z</time></trkpt><trkpt lat="46.1555553" lon="13.5831705"><ele>252.0</ele><time>2026-03-22T10:11:40.306Z</time></trkpt><trkpt lat="46.1555933" lon="13.5833092"><ele>251.8</ele><time>2026-03-22T10:11:41.302Z</time></trkpt><trkpt lat="46.1556253" lon="13.5834523"><ele>251.6</ele><time>2026-03-22T10:11:42.296Z</time></trkpt><trkpt lat="46.1556546" lon="13.5836066"><ele>251.40000000000003</ele><time>2026-03-22T10:11:43.308Z</time></trkpt><trkpt lat="46.1556783" lon="13.5837643"><ele>251.20000000000002</ele><time>2026-03-22T10:11:44.316Z</time></trkpt><trkpt lat="46.1556995" lon="13.5839205"><ele>251.0</ele><time>2026-03-22T10:11:45.296Z</time></trkpt><trkpt lat="46.1557292" lon="13.5840708"><ele>251.0</ele><time>2026-03-22T10:11:46.297Z</time></trkpt><trkpt lat="46.1557511" lon="13.5842169"><ele>251.00000000000003</ele><time>2026-03-22T10:11:47.288Z</time></trkpt><trkpt lat="46.1557676" lon="13.5843595"><ele>251.00000000000003</ele><time>2026-03-22T10:11:48.289Z</time></trkpt><trkpt lat="46.1557993" lon="13.5844927"><ele>251.0</ele><time>2026-03-22T10:11:49.3Z</time></trkpt><trkpt lat="46.1558322" lon="13.5846196"><ele>251.0</ele><time>2026-03-22T10:11:50.309Z</time></trkpt><trkpt lat="46.1558646" lon="13.5847425"><ele>250.83333333333334</ele><time>2026-03-22T10:11:51.298Z</time></trkpt><trkpt lat="46.1559062" lon="13.5848593"><ele>250.66666666666669</ele><time>2026-03-22T10:11:52.291Z</time></trkpt><trkpt lat="46.1559499" lon="13.5849669"><ele>250.5</ele><time>2026-03-22T10:11:53.282Z</time></trkpt><trkpt lat="46.1560093" lon="13.5850474"><ele>250.33333333333331</ele><time>2026-03-22T10:11:54.303Z</time></trkpt><trkpt lat="46.1560693" lon="13.5851252"><ele>250.16666666666666</ele><time>2026-03-22T10:11:55.286Z</time></trkpt><trkpt lat="46.1561175" lon="13.5852028"><ele>250.0</ele><time>2026-03-22T10:11:56.31Z</time></trkpt><trkpt lat="46.1561853" lon="13.5853302"><ele>249.8</ele><time>2026-03-22T10:11:58.292Z</time></trkpt><trkpt lat="46.1562083" lon="13.5854538"><ele>249.6</ele><time>2026-03-22T10:12:00.301Z</time></trkpt><trkpt lat="46.1561632" lon="13.5856176"><ele>249.39999999999998</ele><time>2026-03-22T10:12:02.288Z</time></trkpt><trkpt lat="46.1561222" lon="13.5857211"><ele>249.2</ele><time>2026-03-22T10:12:03.316Z</time></trkpt><trkpt lat="46.1560787" lon="13.5858365"><ele>249.0</ele><time>2026-03-22T10:12:04.289Z</time></trkpt><trkpt lat="46.1560265" lon="13.5859552"><ele>249.0</ele><time>2026-03-22T10:12:05.291Z</time></trkpt><trkpt lat="46.1559716" lon="13.5860862"><ele>249.0</ele><time>2026-03-22T10:12:06.284Z</time></trkpt><trkpt lat="46.1558992" lon="13.5862172"><ele>249.0</ele><time>2026-03-22T10:12:07.3Z</time></trkpt><trkpt lat="46.1558269" lon="13.5863575"><ele>249.0</ele><time>2026-03-22T10:12:08.299Z</time></trkpt><trkpt lat="46.1557517" lon="13.5864988"><ele>252.75</ele><time>2026-03-22T10:12:09.295Z</time></trkpt><trkpt lat="46.1556756" lon="13.5866427"><ele>256.5</ele><time>2026-03-22T10:12:10.283Z</time></trkpt><trkpt lat="46.155596" lon="13.5867834"><ele>260.25</ele><time>2026-03-22T10:12:11.298Z</time></trkpt><trkpt lat="46.1555138" lon="13.5869228"><ele>264.0</ele><time>2026-03-22T10:12:12.302Z</time></trkpt><trkpt lat="46.1554386" lon="13.5870729"><ele>264.0</ele><time>2026-03-22T10:12:13.304Z</time></trkpt><trkpt lat="46.1553917" lon="13.5872366"><ele>264.0</ele><time>2026-03-22T10:12:14.298Z</time></trkpt><trkpt lat="46.15535" lon="13.5873958"><ele>264.0</ele><time>2026-03-22T10:12:15.3Z</time></trkpt><trkpt lat="46.1553123" lon="13.5875583"><ele>264.0</ele><time>2026-03-22T10:12:16.302Z</time></trkpt><trkpt lat="46.1552813" lon="13.5877232"><ele>261.25</ele><time>2026-03-22T10:12:17.309Z</time></trkpt><trkpt lat="46.1552497" lon="13.5878897"><ele>258.5</ele><time>2026-03-22T10:12:18.289Z</time></trkpt><trkpt lat="46.155223" lon="13.5880558"><ele>255.75</ele><time>2026-03-22T10:12:19.29Z</time></trkpt><trkpt lat="46.1552036" lon="13.5882224"><ele>253.0</ele><time>2026-03-22T10:12:20.294Z</time></trkpt><trkpt lat="46.1552257" lon="13.5883929"><ele>253.0</ele><time>2026-03-22T10:12:21.293Z</time></trkpt><trkpt lat="46.1552633" lon="13.5885605"><ele>253.0</ele><time>2026-03-22T10:12:22.322Z</time></trkpt><trkpt lat="46.155307" lon="13.5887254"><ele>253.0</ele><time>2026-03-22T10:12:23.299Z</time></trkpt><trkpt lat="46.1553435" lon="13.5888932"><ele>253.0</ele><time>2026-03-22T10:12:24.297Z</time></trkpt><trkpt lat="46.1553686" lon="13.5890669"><ele>252.75</ele><time>2026-03-22T10:12:25.302Z</time></trkpt><trkpt lat="46.1554003" lon="13.5892314"><ele>252.5</ele><time>2026-03-22T10:12:26.299Z</time></trkpt><trkpt lat="46.1554363" lon="13.5893865"><ele>252.25</ele><time>2026-03-22T10:12:27.3Z</time></trkpt><trkpt lat="46.1554649" lon="13.5895437"><ele>252.0</ele><time>2026-03-22T10:12:28.301Z</time></trkpt><trkpt lat="46.155509" lon="13.5896898"><ele>252.5</ele><time>2026-03-22T10:12:29.293Z</time></trkpt><trkpt lat="46.1555334" lon="13.589856"><ele>253.0</ele><time>2026-03-22T10:12:30.303Z</time></trkpt><trkpt lat="46.1555547" lon="13.5900258"><ele>253.5</ele><time>2026-03-22T10:12:31.317Z</time></trkpt><trkpt lat="46.1555637" lon="13.590205"><ele>254.0</ele><time>2026-03-22T10:12:32.289Z</time></trkpt><trkpt lat="46.1555734" lon="13.5903841"><ele>254.39999999999998</ele><time>2026-03-22T10:12:33.31Z</time></trkpt><trkpt lat="46.1555871" lon="13.5905564"><ele>254.79999999999998</ele><time>2026-03-22T10:12:34.307Z</time></trkpt><trkpt lat="46.1555977" lon="13.5907156"><ele>255.20000000000002</ele><time>2026-03-22T10:12:35.292Z</time></trkpt><trkpt lat="46.1556139" lon="13.5908623"><ele>255.60000000000002</ele><time>2026-03-22T10:12:36.306Z</time></trkpt><trkpt lat="46.1556188" lon="13.5909996"><ele>256.0</ele><time>2026-03-22T10:12:37.288Z</time></trkpt><trkpt lat="46.1556245" lon="13.5911316"><ele>256.2</ele><time>2026-03-22T10:12:38.298Z</time></trkpt><trkpt lat="46.1556414" lon="13.5912658"><ele>256.40000000000003</ele><time>2026-03-22T10:12:39.307Z</time></trkpt><trkpt lat="46.1556485" lon="13.5914003"><ele>256.6</ele><time>2026-03-22T10:12:40.315Z</time></trkpt><trkpt lat="46.1556866" lon="13.5915322"><ele>256.8</ele><time>2026-03-22T10:12:41.312Z</time></trkpt><trkpt lat="46.1557106" lon="13.5916692"><ele>257.0</ele><time>2026-03-22T10:12:42.302Z</time></trkpt><trkpt lat="46.1557461" lon="13.5917976"><ele>258.1666666666667</ele><time>2026-03-22T10:12:43.293Z</time></trkpt><trkpt lat="46.1557789" lon="13.5919167"><ele>259.33333333333337</ele><time>2026-03-22T10:12:44.3Z</time></trkpt><trkpt lat="46.1558105" lon="13.5920229"><ele>260.5</ele><time>2026-03-22T10:12:45.299Z</time></trkpt><trkpt lat="46.1558401" lon="13.5921117"><ele>261.6666666666667</ele><time>2026-03-22T10:12:46.299Z</time></trkpt><trkpt lat="46.1558633" lon="13.5922279"><ele>262.8333333333333</ele><time>2026-03-22T10:12:48.302Z</time></trkpt><trkpt lat="46.1559353" lon="13.5922989"><ele>264.0</ele><time>2026-03-22T10:12:51.303Z</time></trkpt><trkpt lat="46.1559767" lon="13.5923886"><ele>264.0</ele><time>2026-03-22T10:12:53.316Z</time></trkpt><trkpt lat="46.1560343" lon="13.5925174"><ele>264.0</ele><time>2026-03-22T10:12:55.3Z</time></trkpt><trkpt lat="46.1560925" lon="13.5926668"><ele>264.0</ele><time>2026-03-22T10:12:57.295Z</time></trkpt><trkpt lat="46.1561293" lon="13.5928041"><ele>264.0</ele><time>2026-03-22T10:12:59.298Z</time></trkpt><trkpt lat="46.1561852" lon="13.5928912"><ele>264.0</ele><time>2026-03-22T10:13:01.283Z</time></trkpt><trkpt lat="46.1562175" lon="13.593019"><ele>263.59999999999997</ele><time>2026-03-22T10:13:03.307Z</time></trkpt><trkpt lat="46.1562537" lon="13.5931082"><ele>263.2</ele><time>2026-03-22T10:13:05.311Z</time></trkpt><trkpt lat="46.1562954" lon="13.5932117"><ele>262.79999999999995</ele><time>2026-03-22T10:13:07.29Z</time></trkpt><trkpt lat="46.1563961" lon="13.5932781"><ele>262.4</ele><time>2026-03-22T10:13:09.293Z</time></trkpt><trkpt lat="46.1564921" lon="13.5933262"><ele>262.0</ele><time>2026-03-22T10:13:11.31Z</time></trkpt><trkpt lat="46.1565872" lon="13.5933641"><ele>264.2</ele><time>2026-03-22T10:13:13.3Z</time></trkpt><trkpt lat="46.1566847" lon="13.5934144"><ele>266.4</ele><time>2026-03-22T10:13:15.305Z</time></trkpt><trkpt lat="46.1567964" lon="13.5934635"><ele>268.6</ele><time>2026-03-22T10:13:17.307Z</time></trkpt><trkpt lat="46.1569143" lon="13.5935296"><ele>270.8</ele><time>2026-03-22T10:13:19.303Z</time></trkpt><trkpt lat="46.1569737" lon="13.5935734"><ele>273.0</ele><time>2026-03-22T10:13:20.299Z</time></trkpt><trkpt lat="46.1570345" lon="13.5936208"><ele>273.0</ele><time>2026-03-22T10:13:21.295Z</time></trkpt><trkpt lat="46.1570917" lon="13.5936615"><ele>273.0</ele><time>2026-03-22T10:13:22.298Z</time></trkpt><trkpt lat="46.1571509" lon="13.5937008"><ele>273.0</ele><time>2026-03-22T10:13:23.293Z</time></trkpt><trkpt lat="46.1572153" lon="13.593728"><ele>273.0</ele><time>2026-03-22T10:13:24.318Z</time></trkpt><trkpt lat="46.1572855" lon="13.5937524"><ele>273.0</ele><time>2026-03-22T10:13:25.319Z</time></trkpt><trkpt lat="46.1573567" lon="13.593764"><ele>273.0</ele><time>2026-03-22T10:13:26.304Z</time></trkpt><trkpt lat="46.157426" lon="13.5937895"><ele>273.0</ele><time>2026-03-22T10:13:27.309Z</time></trkpt><trkpt lat="46.157499" lon="13.5938151"><ele>273.42857142857144</ele><time>2026-03-22T10:13:28.298Z</time></trkpt><trkpt lat="46.1575742" lon="13.5938369"><ele>273.8571428571429</ele><time>2026-03-22T10:13:29.302Z</time></trkpt><trkpt lat="46.1576502" lon="13.5938509"><ele>274.2857142857143</ele><time>2026-03-22T10:13:30.301Z</time></trkpt><trkpt lat="46.1577249" lon="13.5938727"><ele>274.7142857142857</ele><time>2026-03-22T10:13:31.292Z</time></trkpt><trkpt lat="46.1577947" lon="13.5938823"><ele>275.14285714285717</ele><time>2026-03-22T10:13:32.302Z</time></trkpt><trkpt lat="46.1578573" lon="13.5939135"><ele>275.57142857142856</ele><time>2026-03-22T10:13:33.302Z</time></trkpt><trkpt lat="46.1579257" lon="13.5939428"><ele>276.0</ele><time>2026-03-22T10:13:34.306Z</time></trkpt><trkpt lat="46.1579959" lon="13.5939793"><ele>276.0</ele><time>2026-03-22T10:13:35.308Z</time></trkpt><trkpt lat="46.158061" lon="13.5940444"><ele>276.0</ele><time>2026-03-22T10:13:36.315Z</time></trkpt><trkpt lat="46.1581297" lon="13.5941339"><ele>276.0</ele><time>2026-03-22T10:13:37.312Z</time></trkpt><trkpt lat="46.1582052" lon="13.5942121"><ele>276.0</ele><time>2026-03-22T10:13:38.303Z</time></trkpt><trkpt lat="46.1582851" lon="13.5942824"><ele>276.0</ele><time>2026-03-22T10:13:39.305Z</time></trkpt><trkpt lat="46.1583585" lon="13.5943619"><ele>276.7142857142857</ele><time>2026-03-22T10:13:40.311Z</time></trkpt><trkpt lat="46.158443" lon="13.5944117"><ele>277.42857142857144</ele><time>2026-03-22T10:13:41.309Z</time></trkpt><trkpt lat="46.1585187" lon="13.5944521"><ele>278.14285714285717</ele><time>2026-03-22T10:13:42.3Z</time></trkpt><trkpt lat="46.1585778" lon="13.5944932"><ele>278.8571428571429</ele><time>2026-03-22T10:13:43.304Z</time></trkpt><trkpt lat="46.1586173" lon="13.594568"><ele>279.57142857142856</ele><time>2026-03-22T10:13:44.307Z</time></trkpt><trkpt lat="46.1586437" lon="13.5946641"><ele>280.28571428571433</ele><time>2026-03-22T10:13:45.302Z</time></trkpt><trkpt lat="46.1586703" lon="13.5947555"><ele>281.0</ele><time>2026-03-22T10:13:46.31Z</time></trkpt><trkpt lat="46.1587227" lon="13.5948601"><ele>281.0</ele><time>2026-03-22T10:13:48.309Z</time></trkpt><trkpt lat="46.1588106" lon="13.5948741"><ele>281.0</ele><time>2026-03-22T10:13:50.31Z</time></trkpt><trkpt lat="46.1588812" lon="13.5948385"><ele>281.0</ele><time>2026-03-22T10:13:52.309Z</time></trkpt><trkpt lat="46.1588436" lon="13.5947365"><ele>281.0</ele><time>2026-03-22T10:13:54.304Z</time></trkpt><trkpt lat="46.1587709" lon="13.5946602"><ele>281.0</ele><time>2026-03-22T10:13:55.298Z</time></trkpt><trkpt lat="46.1586932" lon="13.5945821"><ele>281.0</ele><time>2026-03-22T10:13:56.297Z</time></trkpt><trkpt lat="46.1586401" lon="13.5945206"><ele>283.7142857142857</ele><time>2026-03-22T10:13:57.294Z</time></trkpt><trkpt lat="46.1586056" lon="13.5944301"><ele>286.42857142857144</ele><time>2026-03-22T10:13:58.292Z</time></trkpt><trkpt lat="46.1585642" lon="13.5943303"><ele>289.1428571428571</ele><time>2026-03-22T10:13:59.308Z</time></trkpt><trkpt lat="46.1585267" lon="13.5942471"><ele>291.8571428571429</ele><time>2026-03-22T10:14:00.296Z</time></trkpt><trkpt lat="46.1584752" lon="13.594181"><ele>294.57142857142856</ele><time>2026-03-22T10:14:01.298Z</time></trkpt><trkpt lat="46.1584222" lon="13.5941169"><ele>297.2857142857143</ele><time>2026-03-22T10:14:02.299Z</time></trkpt><trkpt lat="46.1583874" lon="13.5940132"><ele>300.0</ele><time>2026-03-22T10:14:03.301Z</time></trkpt><trkpt lat="46.1583419" lon="13.5939412"><ele>300.0</ele><time>2026-03-22T10:14:04.299Z</time></trkpt><trkpt lat="46.1582887" lon="13.5938809"><ele>300.0</ele><time>2026-03-22T10:14:05.319Z</time></trkpt><trkpt lat="46.1582511" lon="13.5937806"><ele>300.0</ele><time>2026-03-22T10:14:06.318Z</time></trkpt><trkpt lat="46.1581699" lon="13.5936835"><ele>300.0</ele><time>2026-03-22T10:14:08.293Z</time></trkpt><trkpt lat="46.1581084" lon="13.5936331"><ele>300.0</ele><time>2026-03-22T10:14:10.295Z</time></trkpt><trkpt lat="46.1582157" lon="13.5936417"><ele>300.0</ele><time>2026-03-22T10:14:16.295Z</time></trkpt><trkpt lat="46.1582956" lon="13.5937061"><ele>300.0</ele><time>2026-03-22T10:14:17.307Z</time></trkpt><trkpt lat="46.1583706" lon="13.5937861"><ele>300.0</ele><time>2026-03-22T10:14:18.313Z</time></trkpt><trkpt lat="46.1584477" lon="13.593868"><ele>300.0</ele><time>2026-03-22T10:14:19.299Z</time></trkpt><trkpt lat="46.158543" lon="13.5939268"><ele>300.0</ele><time>2026-03-22T10:14:20.301Z</time></trkpt><trkpt lat="46.1586306" lon="13.593987"><ele>300.0</ele><time>2026-03-22T10:14:21.304Z</time></trkpt><trkpt lat="46.1587202" lon="13.5940347"><ele>300.0</ele><time>2026-03-22T10:14:22.297Z</time></trkpt><trkpt lat="46.1587921" lon="13.5940661"><ele>300.0</ele><time>2026-03-22T10:14:23.297Z</time></trkpt><trkpt lat="46.1588462" lon="13.5941127"><ele>300.0</ele><time>2026-03-22T10:14:24.313Z</time></trkpt><trkpt lat="46.1588934" lon="13.5941748"><ele>300.0</ele><time>2026-03-22T10:14:25.311Z</time></trkpt><trkpt lat="46.1589424" lon="13.5942401"><ele>300.0</ele><time>2026-03-22T10:14:26.296Z</time></trkpt><trkpt lat="46.1589983" lon="13.5942881"><ele>300.0</ele><time>2026-03-22T10:14:27.32Z</time></trkpt><trkpt lat="46.1591151" lon="13.5943492"><ele>301.8</ele><time>2026-03-22T10:14:29.31Z</time></trkpt><trkpt lat="46.1592309" lon="13.5943848"><ele>303.6</ele><time>2026-03-22T10:14:31.297Z</time></trkpt><trkpt lat="46.159342" lon="13.5943981"><ele>305.4</ele><time>2026-03-22T10:14:33.314Z</time></trkpt><trkpt lat="46.1594369" lon="13.5944178"><ele>307.2</ele><time>2026-03-22T10:14:35.3Z</time></trkpt><trkpt lat="46.1595087" lon="13.5944998"><ele>309.0</ele><time>2026-03-22T10:14:37.298Z</time></trkpt><trkpt lat="46.159572" lon="13.5946577"><ele>309.00000000000006</ele><time>2026-03-22T10:14:39.283Z</time></trkpt><trkpt lat="46.1595846" lon="13.5947557"><ele>309.0</ele><time>2026-03-22T10:14:40.303Z</time></trkpt><trkpt lat="46.159581" lon="13.5948592"><ele>309.0</ele><time>2026-03-22T10:14:41.291Z</time></trkpt><trkpt lat="46.1595913" lon="13.5949629"><ele>309.0</ele><time>2026-03-22T10:14:42.296Z</time></trkpt><trkpt lat="46.1595819" lon="13.5950572"><ele>309.0</ele><time>2026-03-22T10:14:43.282Z</time></trkpt><trkpt lat="46.1595849" lon="13.5951529"><ele>309.00000000000006</ele><time>2026-03-22T10:14:44.302Z</time></trkpt><trkpt lat="46.1596127" lon="13.5952465"><ele>309.0</ele><time>2026-03-22T10:14:45.303Z</time></trkpt><trkpt lat="46.1596677" lon="13.5953222"><ele>308.1666666666667</ele><time>2026-03-22T10:14:46.288Z</time></trkpt><trkpt lat="46.1597307" lon="13.595383"><ele>307.3333333333333</ele><time>2026-03-22T10:14:47.303Z</time></trkpt><trkpt lat="46.1598036" lon="13.5954324"><ele>306.5</ele><time>2026-03-22T10:14:48.318Z</time></trkpt><trkpt lat="46.1598923" lon="13.5954725"><ele>305.66666666666663</ele><time>2026-03-22T10:14:49.304Z</time></trkpt><trkpt lat="46.1599809" lon="13.5955024"><ele>304.8333333333333</ele><time>2026-03-22T10:14:50.303Z</time></trkpt><trkpt lat="46.1600689" lon="13.5955475"><ele>304.0</ele><time>2026-03-22T10:14:51.295Z</time></trkpt><trkpt lat="46.1601573" lon="13.5955869"><ele>307.2857142857143</ele><time>2026-03-22T10:14:52.288Z</time></trkpt><trkpt lat="46.1602441" lon="13.5956197"><ele>310.5714285714286</ele><time>2026-03-22T10:14:53.303Z</time></trkpt><trkpt lat="46.1603256" lon="13.5956501"><ele>313.8571428571429</ele><time>2026-03-22T10:14:54.305Z</time></trkpt><trkpt lat="46.1603959" lon="13.5956786"><ele>317.1428571428571</ele><time>2026-03-22T10:14:55.317Z</time></trkpt><trkpt lat="46.1604598" lon="13.5957069"><ele>320.42857142857144</ele><time>2026-03-22T10:14:56.301Z</time></trkpt><trkpt lat="46.160525" lon="13.5957305"><ele>323.7142857142857</ele><time>2026-03-22T10:14:57.299Z</time></trkpt><trkpt lat="46.1605913" lon="13.5957456"><ele>327.0</ele><time>2026-03-22T10:14:58.294Z</time></trkpt><trkpt lat="46.1606562" lon="13.5957436"><ele>330.6666666666667</ele><time>2026-03-22T10:14:59.31Z</time></trkpt><trkpt lat="46.1607195" lon="13.5957475"><ele>334.3333333333333</ele><time>2026-03-22T10:15:00.3Z</time></trkpt><trkpt lat="46.1608378" lon="13.595764"><ele>338.0</ele><time>2026-03-22T10:15:02.313Z</time></trkpt><trkpt lat="46.1609304" lon="13.5957935"><ele>341.66666666666663</ele><time>2026-03-22T10:15:04.302Z</time></trkpt><trkpt lat="46.160975" lon="13.5958741"><ele>345.3333333333333</ele><time>2026-03-22T10:15:06.319Z</time></trkpt><trkpt lat="46.1609758" lon="13.5959953"><ele>349.0</ele><time>2026-03-22T10:15:08.307Z</time></trkpt><trkpt lat="46.1609237" lon="13.5961064"><ele>347.2</ele><time>2026-03-22T10:15:10.3Z</time></trkpt><trkpt lat="46.1608807" lon="13.5962604"><ele>345.4</ele><time>2026-03-22T10:15:12.314Z</time></trkpt><trkpt lat="46.1609043" lon="13.5963622"><ele>343.6</ele><time>2026-03-22T10:15:13.292Z</time></trkpt><trkpt lat="46.160939" lon="13.5964513"><ele>341.8</ele><time>2026-03-22T10:15:14.306Z</time></trkpt><trkpt lat="46.1609934" lon="13.5965172"><ele>340.0</ele><time>2026-03-22T10:15:15.296Z</time></trkpt><trkpt lat="46.1610882" lon="13.5966232"><ele>340.0</ele><time>2026-03-22T10:15:17.298Z</time></trkpt><trkpt lat="46.161143" lon="13.5966894"><ele>340.0</ele><time>2026-03-22T10:15:18.298Z</time></trkpt><trkpt lat="46.1611979" lon="13.5967534"><ele>340.0</ele><time>2026-03-22T10:15:19.316Z</time></trkpt><trkpt lat="46.161254" lon="13.5968133"><ele>340.0</ele><time>2026-03-22T10:15:20.309Z</time></trkpt><trkpt lat="46.1613124" lon="13.5968599"><ele>340.0</ele><time>2026-03-22T10:15:21.294Z</time></trkpt><trkpt lat="46.1613738" lon="13.5968916"><ele>340.0</ele><time>2026-03-22T10:15:22.288Z</time></trkpt><trkpt lat="46.1614927" lon="13.5969466"><ele>344.0</ele><time>2026-03-22T10:15:24.291Z</time></trkpt><trkpt lat="46.1616132" lon="13.5969489"><ele>348.0</ele><time>2026-03-22T10:15:26.291Z</time></trkpt><trkpt lat="46.1617301" lon="13.5969439"><ele>352.0</ele><time>2026-03-22T10:15:28.286Z</time></trkpt><trkpt lat="46.1618492" lon="13.5969204"><ele>356.0</ele><time>2026-03-22T10:15:30.29Z</time></trkpt><trkpt lat="46.1619568" lon="13.5968499"><ele>355.99999999999994</ele><time>2026-03-22T10:15:32.294Z</time></trkpt><trkpt lat="46.162016" lon="13.5968172"><ele>356.0</ele><time>2026-03-22T10:15:33.282Z</time></trkpt><trkpt lat="46.1620732" lon="13.5967641"><ele>356.0</ele><time>2026-03-22T10:15:34.311Z</time></trkpt><trkpt lat="46.162139" lon="13.596732"><ele>356.0</ele><time>2026-03-22T10:15:35.288Z</time></trkpt><trkpt lat="46.1622079" lon="13.5967015"><ele>356.0</ele><time>2026-03-22T10:15:36.292Z</time></trkpt><trkpt lat="46.1622754" lon="13.5966575"><ele>355.99999999999994</ele><time>2026-03-22T10:15:37.29Z</time></trkpt><trkpt lat="46.1623444" lon="13.5966136"><ele>356.0</ele><time>2026-03-22T10:15:38.298Z</time></trkpt><trkpt lat="46.1624109" lon="13.5965663"><ele>357.0</ele><time>2026-03-22T10:15:39.29Z</time></trkpt><trkpt lat="46.1624681" lon="13.5965008"><ele>358.0</ele><time>2026-03-22T10:15:40.287Z</time></trkpt><trkpt lat="46.1625282" lon="13.5964464"><ele>359.0</ele><time>2026-03-22T10:15:41.282Z</time></trkpt><trkpt lat="46.1625884" lon="13.5964044"><ele>360.0</ele><time>2026-03-22T10:15:42.299Z</time></trkpt><trkpt lat="46.1627003" lon="13.596391"><ele>361.0</ele><time>2026-03-22T10:15:44.295Z</time></trkpt><trkpt lat="46.1627915" lon="13.5964288"><ele>362.0</ele><time>2026-03-22T10:15:46.288Z</time></trkpt><trkpt lat="46.1628401" lon="13.5964947"><ele>362.0</ele><time>2026-03-22T10:15:47.279Z</time></trkpt><trkpt lat="46.1628899" lon="13.5966488"><ele>362.0</ele><time>2026-03-22T10:15:49.281Z</time></trkpt><trkpt lat="46.1628723" lon="13.5967669"><ele>362.0</ele><time>2026-03-22T10:15:50.293Z</time></trkpt><trkpt lat="46.1628566" lon="13.5968972"><ele>362.0</ele><time>2026-03-22T10:15:51.282Z</time></trkpt><trkpt lat="46.1628533" lon="13.5970373"><ele>362.0</ele><time>2026-03-22T10:15:52.292Z</time></trkpt><trkpt lat="46.162854" lon="13.5971808"><ele>360.5</ele><time>2026-03-22T10:15:53.286Z</time></trkpt><trkpt lat="46.1628536" lon="13.5973232"><ele>359.0</ele><time>2026-03-22T10:15:54.289Z</time></trkpt><trkpt lat="46.1628568" lon="13.597464"><ele>357.5</ele><time>2026-03-22T10:15:55.284Z</time></trkpt><trkpt lat="46.1628488" lon="13.5975994"><ele>356.0</ele><time>2026-03-22T10:15:56.307Z</time></trkpt><trkpt lat="46.1628419" lon="13.5977224"><ele>354.5</ele><time>2026-03-22T10:15:57.296Z</time></trkpt><trkpt lat="46.1628365" lon="13.5978243"><ele>353.0</ele><time>2026-03-22T10:15:58.29Z</time></trkpt><trkpt lat="46.1628243" lon="13.5979836"><ele>353.0</ele><time>2026-03-22T10:16:00.3Z</time></trkpt><trkpt lat="46.1628288" lon="13.5980839"><ele>353.0</ele><time>2026-03-22T10:16:02.295Z</time></trkpt><trkpt lat="46.1628651" lon="13.5981649"><ele>353.0</ele><time>2026-03-22T10:16:04.309Z</time></trkpt><trkpt lat="46.1629178" lon="13.598105"><ele>353.0</ele><time>2026-03-22T10:16:07.28Z</time></trkpt><trkpt lat="46.1629243" lon="13.5979744"><ele>353.0</ele><time>2026-03-22T10:16:09.297Z</time></trkpt><trkpt lat="46.1629637" lon="13.5977937"><ele>353.0</ele><time>2026-03-22T10:16:11.292Z</time></trkpt><trkpt lat="46.163002" lon="13.5976888"><ele>353.0</ele><time>2026-03-22T10:16:12.28Z</time></trkpt><trkpt lat="46.1630466" lon="13.5975783"><ele>353.0</ele><time>2026-03-22T10:16:13.301Z</time></trkpt><trkpt lat="46.1630919" lon="13.5974797"><ele>353.0</ele><time>2026-03-22T10:16:14.288Z</time></trkpt><trkpt lat="46.1631406" lon="13.5973817"><ele>353.0</ele><time>2026-03-22T10:16:15.284Z</time></trkpt><trkpt lat="46.1631837" lon="13.5972703"><ele>353.0</ele><time>2026-03-22T10:16:16.294Z</time></trkpt><trkpt lat="46.1632314" lon="13.5971486"><ele>353.0</ele><time>2026-03-22T10:16:17.272Z</time></trkpt><trkpt lat="46.1632834" lon="13.5970356"><ele>359.0</ele><time>2026-03-22T10:16:18.283Z</time></trkpt><trkpt lat="46.1633248" lon="13.5969192"><ele>365.0</ele><time>2026-03-22T10:16:19.294Z</time></trkpt><trkpt lat="46.1633646" lon="13.5968092"><ele>371.0</ele><time>2026-03-22T10:16:20.3Z</time></trkpt><trkpt lat="46.1633952" lon="13.596698"><ele>377.0</ele><time>2026-03-22T10:16:21.307Z</time></trkpt><trkpt lat="46.1634282" lon="13.5966043"><ele>382.99999999999994</ele><time>2026-03-22T10:16:22.291Z</time></trkpt><trkpt lat="46.1634521" lon="13.5965129"><ele>389.0</ele><time>2026-03-22T10:16:23.302Z</time></trkpt><trkpt lat="46.1634711" lon="13.5964223"><ele>388.99999999999994</ele><time>2026-03-22T10:16:24.297Z</time></trkpt><trkpt lat="46.16348" lon="13.596257"><ele>389.0</ele><time>2026-03-22T10:16:26.288Z</time></trkpt><trkpt lat="46.1634795" lon="13.5961292"><ele>389.0</ele><time>2026-03-22T10:16:28.286Z</time></trkpt><trkpt lat="46.163507" lon="13.5960243"><ele>389.0</ele><time>2026-03-22T10:16:30.284Z</time></trkpt><trkpt lat="46.1635502" lon="13.5961297"><ele>388.99999999999994</ele><time>2026-03-22T10:16:35.287Z</time></trkpt><trkpt lat="46.1635571" lon="13.5962362"><ele>389.0</ele><time>2026-03-22T10:16:36.291Z</time></trkpt><trkpt lat="46.1635569" lon="13.5963382"><ele>389.0</ele><time>2026-03-22T10:16:37.284Z</time></trkpt><trkpt lat="46.1635378" lon="13.5964616"><ele>389.0</ele><time>2026-03-22T10:16:38.3Z</time></trkpt><trkpt lat="46.1634953" lon="13.596593"><ele>389.0</ele><time>2026-03-22T10:16:39.293Z</time></trkpt><trkpt lat="46.1634516" lon="13.5967251"><ele>389.0</ele><time>2026-03-22T10:16:40.286Z</time></trkpt><trkpt lat="46.1634322" lon="13.5969092"><ele>389.0</ele><time>2026-03-22T10:16:41.307Z</time></trkpt><trkpt lat="46.1634088" lon="13.5970901"><ele>390.6</ele><time>2026-03-22T10:16:42.298Z</time></trkpt><trkpt lat="46.1633914" lon="13.5972426"><ele>392.2</ele><time>2026-03-22T10:16:43.287Z</time></trkpt><trkpt lat="46.1633858" lon="13.5973896"><ele>393.8</ele><time>2026-03-22T10:16:44.295Z</time></trkpt><trkpt lat="46.1633893" lon="13.5975401"><ele>395.40000000000003</ele><time>2026-03-22T10:16:45.286Z</time></trkpt><trkpt lat="46.1633903" lon="13.5976681"><ele>397.0</ele><time>2026-03-22T10:16:46.283Z</time></trkpt><trkpt lat="46.1633935" lon="13.5977833"><ele>396.83333333333337</ele><time>2026-03-22T10:16:47.292Z</time></trkpt><trkpt lat="46.1633993" lon="13.5978879"><ele>396.6666666666667</ele><time>2026-03-22T10:16:48.3Z</time></trkpt><trkpt lat="46.1634053" lon="13.5979918"><ele>396.5</ele><time>2026-03-22T10:16:49.29Z</time></trkpt><trkpt lat="46.1634252" lon="13.5980932"><ele>396.33333333333337</ele><time>2026-03-22T10:16:50.289Z</time></trkpt><trkpt lat="46.1634654" lon="13.5981898"><ele>396.1666666666667</ele><time>2026-03-22T10:16:51.283Z</time></trkpt><trkpt lat="46.1635257" lon="13.5982908"><ele>396.0</ele><time>2026-03-22T10:16:52.28Z</time></trkpt><trkpt lat="46.1636023" lon="13.5983684"><ele>396.0</ele><time>2026-03-22T10:16:53.282Z</time></trkpt><trkpt lat="46.163681" lon="13.5984314"><ele>396.0</ele><time>2026-03-22T10:16:54.283Z</time></trkpt><trkpt lat="46.1637557" lon="13.5984849"><ele>396.0</ele><time>2026-03-22T10:16:55.304Z</time></trkpt><trkpt lat="46.1638209" lon="13.5985457"><ele>396.0</ele><time>2026-03-22T10:16:56.284Z</time></trkpt><trkpt lat="46.1638823" lon="13.5986004"><ele>396.0</ele><time>2026-03-22T10:16:57.287Z</time></trkpt><trkpt lat="46.1639406" lon="13.5986565"><ele>396.0</ele><time>2026-03-22T10:16:58.29Z</time></trkpt><trkpt lat="46.1640002" lon="13.5987162"><ele>397.6666666666667</ele><time>2026-03-22T10:16:59.281Z</time></trkpt><trkpt lat="46.1640626" lon="13.5987844"><ele>399.33333333333337</ele><time>2026-03-22T10:17:00.294Z</time></trkpt><trkpt lat="46.1641292" lon="13.5988498"><ele>401.0</ele><time>2026-03-22T10:17:01.293Z</time></trkpt><trkpt lat="46.1641987" lon="13.5989095"><ele>402.6666666666667</ele><time>2026-03-22T10:17:02.29Z</time></trkpt><trkpt lat="46.1642693" lon="13.5989675"><ele>404.33333333333337</ele><time>2026-03-22T10:17:03.285Z</time></trkpt><trkpt lat="46.1643379" lon="13.5990296"><ele>406.0</ele><time>2026-03-22T10:17:04.28Z</time></trkpt><trkpt lat="46.1644016" lon="13.5990875"><ele>406.0</ele><time>2026-03-22T10:17:05.294Z</time></trkpt><trkpt lat="46.1644684" lon="13.599109"><ele>406.0</ele><time>2026-03-22T10:17:06.29Z</time></trkpt><trkpt lat="46.1645379" lon="13.5991041"><ele>406.0</ele><time>2026-03-22T10:17:07.309Z</time></trkpt><trkpt lat="46.1646094" lon="13.5990409"><ele>406.0</ele><time>2026-03-22T10:17:08.282Z</time></trkpt><trkpt lat="46.1646789" lon="13.5990039"><ele>406.0</ele><time>2026-03-22T10:17:09.29Z</time></trkpt><trkpt lat="46.1647554" lon="13.5989794"><ele>406.0</ele><time>2026-03-22T10:17:10.293Z</time></trkpt><trkpt lat="46.1648297" lon="13.5989738"><ele>406.0</ele><time>2026-03-22T10:17:11.281Z</time></trkpt><trkpt lat="46.1648938" lon="13.59898"><ele>408.6666666666667</ele><time>2026-03-22T10:17:12.28Z</time></trkpt><trkpt lat="46.1649691" lon="13.5989838"><ele>411.33333333333337</ele><time>2026-03-22T10:17:13.286Z</time></trkpt><trkpt lat="46.1650475" lon="13.5990109"><ele>414.0</ele><time>2026-03-22T10:17:14.297Z</time></trkpt><trkpt lat="46.1651274" lon="13.5990645"><ele>416.66666666666663</ele><time>2026-03-22T10:17:15.275Z</time></trkpt><trkpt lat="46.1651976" lon="13.5991459"><ele>419.3333333333333</ele><time>2026-03-22T10:17:16.282Z</time></trkpt><trkpt lat="46.1652752" lon="13.5991906"><ele>422.0</ele><time>2026-03-22T10:17:17.289Z</time></trkpt><trkpt lat="46.1653315" lon="13.5992499"><ele>421.99999999999994</ele><time>2026-03-22T10:17:18.294Z</time></trkpt><trkpt lat="46.1653783" lon="13.5993236"><ele>422.0</ele><time>2026-03-22T10:17:19.281Z</time></trkpt><trkpt lat="46.1654495" lon="13.5993711"><ele>422.0</ele><time>2026-03-22T10:17:20.278Z</time></trkpt><trkpt lat="46.165529" lon="13.5993986"><ele>422.0</ele><time>2026-03-22T10:17:21.281Z</time></trkpt><trkpt lat="46.1656099" lon="13.5994123"><ele>421.99999999999994</ele><time>2026-03-22T10:17:22.287Z</time></trkpt><trkpt lat="46.1656912" lon="13.5994173"><ele>422.0</ele><time>2026-03-22T10:17:23.307Z</time></trkpt><trkpt lat="46.1657609" lon="13.5993993"><ele>425.6</ele><time>2026-03-22T10:17:24.308Z</time></trkpt><trkpt lat="46.1658926" lon="13.5994113"><ele>429.20000000000005</ele><time>2026-03-22T10:17:26.303Z</time></trkpt><trkpt lat="46.1659711" lon="13.5994393"><ele>432.8</ele><time>2026-03-22T10:17:27.291Z</time></trkpt><trkpt lat="46.1660566" lon="13.5994607"><ele>436.4</ele><time>2026-03-22T10:17:28.289Z</time></trkpt><trkpt lat="46.1661456" lon="13.5994846"><ele>440.0</ele><time>2026-03-22T10:17:29.286Z</time></trkpt><trkpt lat="46.166245" lon="13.5994956"><ele>437.66666666666663</ele><time>2026-03-22T10:17:30.306Z</time></trkpt><trkpt lat="46.1663419" lon="13.5995077"><ele>435.3333333333333</ele><time>2026-03-22T10:17:31.297Z</time></trkpt><trkpt lat="46.1664325" lon="13.5995103"><ele>433.0</ele><time>2026-03-22T10:17:32.299Z</time></trkpt><trkpt lat="46.1665129" lon="13.5995065"><ele>430.66666666666663</ele><time>2026-03-22T10:17:33.283Z</time></trkpt><trkpt lat="46.1665861" lon="13.5995108"><ele>428.3333333333333</ele><time>2026-03-22T10:17:34.287Z</time></trkpt><trkpt lat="46.1666883" lon="13.5995034"><ele>426.0</ele><time>2026-03-22T10:17:36.287Z</time></trkpt><trkpt lat="46.1667884" lon="13.5995911"><ele>426.0</ele><time>2026-03-22T10:17:38.283Z</time></trkpt><trkpt lat="46.1668395" lon="13.5996884"><ele>426.0</ele><time>2026-03-22T10:17:39.281Z</time></trkpt><trkpt lat="46.1669128" lon="13.5997496"><ele>426.0</ele><time>2026-03-22T10:17:40.278Z</time></trkpt><trkpt lat="46.1669784" lon="13.5998155"><ele>426.0</ele><time>2026-03-22T10:17:41.277Z</time></trkpt><trkpt lat="46.1670302" lon="13.599891"><ele>426.0</ele><time>2026-03-22T10:17:42.279Z</time></trkpt><trkpt lat="46.1671043" lon="13.5999342"><ele>426.0</ele><time>2026-03-22T10:17:43.283Z</time></trkpt><trkpt lat="46.1671954" lon="13.5999399"><ele>426.0</ele><time>2026-03-22T10:17:44.289Z</time></trkpt><trkpt lat="46.1672793" lon="13.599933"><ele>426.0</ele><time>2026-03-22T10:17:45.294Z</time></trkpt><trkpt lat="46.1673667" lon="13.599943"><ele>426.0</ele><time>2026-03-22T10:17:46.283Z</time></trkpt><trkpt lat="46.1674409" lon="13.5999359"><ele>426.0</ele><time>2026-03-22T10:17:47.29Z</time></trkpt><trkpt lat="46.1675294" lon="13.5999242"><ele>426.0</ele><time>2026-03-22T10:17:49.294Z</time></trkpt><trkpt lat="46.1675864" lon="13.599976"><ele>426.0</ele><time>2026-03-22T10:17:51.29Z</time></trkpt><trkpt lat="46.1676814" lon="13.6000948"><ele>423.4</ele><time>2026-03-22T10:17:53.281Z</time></trkpt><trkpt lat="46.1677731" lon="13.6001923"><ele>420.8</ele><time>2026-03-22T10:17:54.283Z</time></trkpt><trkpt lat="46.1678418" lon="13.6002913"><ele>418.2</ele><time>2026-03-22T10:17:55.277Z</time></trkpt><trkpt lat="46.1679216" lon="13.6003495"><ele>415.59999999999997</ele><time>2026-03-22T10:17:56.282Z</time></trkpt><trkpt lat="46.1680201" lon="13.6003732"><ele>413.0</ele><time>2026-03-22T10:17:57.281Z</time></trkpt><trkpt lat="46.1681055" lon="13.6003815"><ele>412.99999999999994</ele><time>2026-03-22T10:17:58.299Z</time></trkpt><trkpt lat="46.1681804" lon="13.6004156"><ele>413.0</ele><time>2026-03-22T10:17:59.307Z</time></trkpt><trkpt lat="46.1682629" lon="13.6004473"><ele>413.0</ele><time>2026-03-22T10:18:00.301Z</time></trkpt><trkpt lat="46.1683411" lon="13.6005102"><ele>413.0</ele><time>2026-03-22T10:18:01.28Z</time></trkpt><trkpt lat="46.1684296" lon="13.6005613"><ele>412.99999999999994</ele><time>2026-03-22T10:18:02.282Z</time></trkpt><trkpt lat="46.1685168" lon="13.600601"><ele>413.0</ele><time>2026-03-22T10:18:03.29Z</time></trkpt><trkpt lat="46.1685979" lon="13.6006243"><ele>417.0</ele><time>2026-03-22T10:18:04.29Z</time></trkpt><trkpt lat="46.1686744" lon="13.600653"><ele>421.0</ele><time>2026-03-22T10:18:05.298Z</time></trkpt><trkpt lat="46.1687498" lon="13.6006825"><ele>425.0</ele><time>2026-03-22T10:18:06.288Z</time></trkpt><trkpt lat="46.1688204" lon="13.6006902"><ele>429.0</ele><time>2026-03-22T10:18:07.284Z</time></trkpt><trkpt lat="46.168879" lon="13.600744"><ele>433.0</ele><time>2026-03-22T10:18:08.301Z</time></trkpt><trkpt lat="46.1689421" lon="13.6007924"><ele>437.0</ele><time>2026-03-22T10:18:09.276Z</time></trkpt><trkpt lat="46.169009" lon="13.6008403"><ele>441.0</ele><time>2026-03-22T10:18:10.302Z</time></trkpt><trkpt lat="46.1690653" lon="13.6009207"><ele>448.1666666666667</ele><time>2026-03-22T10:18:11.299Z</time></trkpt><trkpt lat="46.1691182" lon="13.6009762"><ele>455.33333333333337</ele><time>2026-03-22T10:18:12.278Z</time></trkpt><trkpt lat="46.1691791" lon="13.6010084"><ele>462.5</ele><time>2026-03-22T10:18:13.29Z</time></trkpt><trkpt lat="46.1693038" lon="13.6010274"><ele>469.6666666666667</ele><time>2026-03-22T10:18:15.289Z</time></trkpt><trkpt lat="46.1693793" lon="13.6010153"><ele>476.83333333333337</ele><time>2026-03-22T10:18:16.292Z</time></trkpt><trkpt lat="46.1694645" lon="13.6009935"><ele>484.0</ele><time>2026-03-22T10:18:17.288Z</time></trkpt><trkpt lat="46.1695419" lon="13.6009627"><ele>484.0</ele><time>2026-03-22T10:18:18.281Z</time></trkpt><trkpt lat="46.1696152" lon="13.600933"><ele>484.0</ele><time>2026-03-22T10:18:19.284Z</time></trkpt><trkpt lat="46.1697031" lon="13.6008393"><ele>484.0</ele><time>2026-03-22T10:18:21.297Z</time></trkpt><trkpt lat="46.1697882" lon="13.600713"><ele>484.0</ele><time>2026-03-22T10:18:23.296Z</time></trkpt><trkpt lat="46.1698314" lon="13.6006292"><ele>484.0</ele><time>2026-03-22T10:18:24.302Z</time></trkpt><trkpt lat="46.1698891" lon="13.6005453"><ele>483.00000000000006</ele><time>2026-03-22T10:18:25.309Z</time></trkpt><trkpt lat="46.1699509" lon="13.6004556"><ele>482.0</ele><time>2026-03-22T10:18:26.273Z</time></trkpt><trkpt lat="46.170012" lon="13.6003794"><ele>481.0</ele><time>2026-03-22T10:18:27.28Z</time></trkpt><trkpt lat="46.1700719" lon="13.6003095"><ele>480.0</ele><time>2026-03-22T10:18:28.279Z</time></trkpt><trkpt lat="46.1701307" lon="13.6002594"><ele>479.00000000000006</ele><time>2026-03-22T10:18:29.363Z</time></trkpt><trkpt lat="46.1702027" lon="13.6002358"><ele>478.0</ele><time>2026-03-22T10:18:30.32Z</time></trkpt><trkpt lat="46.1702944" lon="13.600185"><ele>478.00000000000006</ele><time>2026-03-22T10:18:32.355Z</time></trkpt><trkpt lat="46.1703617" lon="13.6001939"><ele>478.0</ele><time>2026-03-22T10:18:33.322Z</time></trkpt><trkpt lat="46.1704277" lon="13.6002064"><ele>478.00000000000006</ele><time>2026-03-22T10:18:34.316Z</time></trkpt><trkpt lat="46.1704945" lon="13.6002443"><ele>478.00000000000006</ele><time>2026-03-22T10:18:35.289Z</time></trkpt><trkpt lat="46.1705615" lon="13.6003184"><ele>478.0</ele><time>2026-03-22T10:18:36.282Z</time></trkpt><trkpt lat="46.1706319" lon="13.600362"><ele>478.00000000000006</ele><time>2026-03-22T10:18:37.268Z</time></trkpt><trkpt lat="46.1707021" lon="13.6004118"><ele>478.00000000000006</ele><time>2026-03-22T10:18:38.316Z</time></trkpt><trkpt lat="46.1707619" lon="13.6004669"><ele>477.1428571428572</ele><time>2026-03-22T10:18:39.331Z</time></trkpt><trkpt lat="46.1708327" lon="13.6005013"><ele>476.28571428571433</ele><time>2026-03-22T10:18:40.277Z</time></trkpt><trkpt lat="46.1708966" lon="13.6005125"><ele>475.42857142857144</ele><time>2026-03-22T10:18:41.294Z</time></trkpt><trkpt lat="46.1709672" lon="13.6005169"><ele>474.5714285714286</ele><time>2026-03-22T10:18:42.29Z</time></trkpt><trkpt lat="46.1710314" lon="13.6005628"><ele>473.7142857142858</ele><time>2026-03-22T10:18:43.359Z</time></trkpt><trkpt lat="46.171091" lon="13.6006241"><ele>472.85714285714283</ele><time>2026-03-22T10:18:44.331Z</time></trkpt><trkpt lat="46.1711469" lon="13.6006844"><ele>472.0</ele><time>2026-03-22T10:18:45.273Z</time></trkpt><trkpt lat="46.1712259" lon="13.6007016"><ele>472.00000000000006</ele><time>2026-03-22T10:18:46.297Z</time></trkpt><trkpt lat="46.1712958" lon="13.6007043"><ele>472.0</ele><time>2026-03-22T10:18:47.293Z</time></trkpt><trkpt lat="46.1713671" lon="13.6006891"><ele>472.0</ele><time>2026-03-22T10:18:48.3Z</time></trkpt><trkpt lat="46.1714423" lon="13.600624"><ele>472.0</ele><time>2026-03-22T10:18:49.289Z</time></trkpt><trkpt lat="46.1715188" lon="13.6005694"><ele>472.00000000000006</ele><time>2026-03-22T10:18:50.284Z</time></trkpt><trkpt lat="46.1715887" lon="13.6005452"><ele>472.0</ele><time>2026-03-22T10:18:51.267Z</time></trkpt><trkpt lat="46.1716511" lon="13.6005047"><ele>473.50000000000006</ele><time>2026-03-22T10:18:52.307Z</time></trkpt><trkpt lat="46.1717134" lon="13.6004411"><ele>475.0</ele><time>2026-03-22T10:18:53.262Z</time></trkpt><trkpt lat="46.1717687" lon="13.6003396"><ele>476.5</ele><time>2026-03-22T10:18:54.286Z</time></trkpt><trkpt lat="46.1718395" lon="13.600261"><ele>478.0</ele><time>2026-03-22T10:18:55.274Z</time></trkpt><trkpt lat="46.1718867" lon="13.6001748"><ele>479.50000000000006</ele><time>2026-03-22T10:18:56.311Z</time></trkpt><trkpt lat="46.1719175" lon="13.6000926"><ele>481.0</ele><time>2026-03-22T10:18:57.4Z</time></trkpt><trkpt lat="46.1719901" lon="13.5999975"><ele>483.8</ele><time>2026-03-22T10:18:59.308Z</time></trkpt><trkpt lat="46.1720476" lon="13.5998633"><ele>486.6</ele><time>2026-03-22T10:19:01.28Z</time></trkpt><trkpt lat="46.1720659" lon="13.5997702"><ele>489.4</ele><time>2026-03-22T10:19:03.294Z</time></trkpt><trkpt lat="46.172125" lon="13.599679"><ele>492.2</ele><time>2026-03-22T10:19:05.298Z</time></trkpt><trkpt lat="46.1722695" lon="13.599702"><ele>495.0</ele><time>2026-03-22T10:19:08.275Z</time></trkpt><trkpt lat="46.1723801" lon="13.5996744"><ele>495.0</ele><time>2026-03-22T10:19:09.273Z</time></trkpt><trkpt lat="46.172488" lon="13.5995605"><ele>495.0</ele><time>2026-03-22T10:19:10.282Z</time></trkpt><trkpt lat="46.1725953" lon="13.5994733"><ele>495.0</ele><time>2026-03-22T10:19:11.291Z</time></trkpt><trkpt lat="46.1726843" lon="13.5994"><ele>495.0</ele><time>2026-03-22T10:19:12.268Z</time></trkpt><trkpt lat="46.1727704" lon="13.5993327"><ele>498.6666666666667</ele><time>2026-03-22T10:19:13.277Z</time></trkpt><trkpt lat="46.1728292" lon="13.5992523"><ele>502.33333333333337</ele><time>2026-03-22T10:19:14.297Z</time></trkpt><trkpt lat="46.1728714" lon="13.5991784"><ele>506.0</ele><time>2026-03-22T10:19:15.282Z</time></trkpt><trkpt lat="46.1729552" lon="13.5990887"><ele>509.6666666666667</ele><time>2026-03-22T10:19:17.306Z</time></trkpt><trkpt lat="46.1730418" lon="13.5991238"><ele>513.3333333333334</ele><time>2026-03-22T10:19:19.292Z</time></trkpt><trkpt lat="46.1730945" lon="13.5992243"><ele>517.0</ele><time>2026-03-22T10:19:21.272Z</time></trkpt><trkpt lat="46.1730875" lon="13.5993283"><ele>517.0</ele><time>2026-03-22T10:19:22.275Z</time></trkpt><trkpt lat="46.1731067" lon="13.5994158"><ele>517.0</ele><time>2026-03-22T10:19:23.276Z</time></trkpt><trkpt lat="46.173119" lon="13.5995092"><ele>517.0</ele><time>2026-03-22T10:19:24.282Z</time></trkpt><trkpt lat="46.1731307" lon="13.5996086"><ele>517.0</ele><time>2026-03-22T10:19:25.283Z</time></trkpt><trkpt lat="46.1731859" lon="13.5997915"><ele>517.0</ele><time>2026-03-22T10:19:27.283Z</time></trkpt><trkpt lat="46.1732359" lon="13.5998763"><ele>517.0</ele><time>2026-03-22T10:19:28.337Z</time></trkpt><trkpt lat="46.1732886" lon="13.5999363"><ele>517.2</ele><time>2026-03-22T10:19:29.302Z</time></trkpt><trkpt lat="46.1733495" lon="13.6000019"><ele>517.4000000000001</ele><time>2026-03-22T10:19:31.269Z</time></trkpt><trkpt lat="46.1733404" lon="13.6001256"><ele>517.5999999999999</ele><time>2026-03-22T10:19:34.274Z</time></trkpt><trkpt lat="46.173301" lon="13.6002727"><ele>517.8</ele><time>2026-03-22T10:19:35.28Z</time></trkpt><trkpt lat="46.1732909" lon="13.6004054"><ele>518.0</ele><time>2026-03-22T10:19:36.279Z</time></trkpt><trkpt lat="46.1732867" lon="13.6005336"><ele>518.0</ele><time>2026-03-22T10:19:37.293Z</time></trkpt><trkpt lat="46.1732786" lon="13.6006394"><ele>518.0</ele><time>2026-03-22T10:19:38.286Z</time></trkpt><trkpt lat="46.1732495" lon="13.6007594"><ele>518.0</ele><time>2026-03-22T10:19:39.288Z</time></trkpt><trkpt lat="46.1732262" lon="13.6008633"><ele>518.0</ele><time>2026-03-22T10:19:40.297Z</time></trkpt><trkpt lat="46.1731945" lon="13.6009824"><ele>518.0</ele><time>2026-03-22T10:19:41.291Z</time></trkpt><trkpt lat="46.1731686" lon="13.6010867"><ele>518.0</ele><time>2026-03-22T10:19:42.281Z</time></trkpt><trkpt lat="46.1731715" lon="13.6012057"><ele>517.1999999999999</ele><time>2026-03-22T10:19:43.282Z</time></trkpt><trkpt lat="46.1731747" lon="13.6013332"><ele>516.4</ele><time>2026-03-22T10:19:44.277Z</time></trkpt><trkpt lat="46.1731969" lon="13.6014557"><ele>515.5999999999999</ele><time>2026-03-22T10:19:45.281Z</time></trkpt><trkpt lat="46.1732264" lon="13.6015756"><ele>514.8</ele><time>2026-03-22T10:19:46.28Z</time></trkpt><trkpt lat="46.173281" lon="13.6016818"><ele>514.0</ele><time>2026-03-22T10:19:47.283Z</time></trkpt><trkpt lat="46.1733548" lon="13.601769"><ele>514.0</ele><time>2026-03-22T10:19:48.284Z</time></trkpt><trkpt lat="46.1734354" lon="13.6018479"><ele>514.0</ele><time>2026-03-22T10:19:49.291Z</time></trkpt><trkpt lat="46.1735187" lon="13.6019095"><ele>514.0</ele><time>2026-03-22T10:19:50.307Z</time></trkpt><trkpt lat="46.1736034" lon="13.60197"><ele>514.0</ele><time>2026-03-22T10:19:51.281Z</time></trkpt><trkpt lat="46.1736809" lon="13.6020523"><ele>514.0</ele><time>2026-03-22T10:19:52.303Z</time></trkpt><trkpt lat="46.1737525" lon="13.6021319"><ele>514.0</ele><time>2026-03-22T10:19:53.291Z</time></trkpt><trkpt lat="46.1738196" lon="13.602197"><ele>514.0</ele><time>2026-03-22T10:19:54.292Z</time></trkpt><trkpt lat="46.1738742" lon="13.6022562"><ele>514.0</ele><time>2026-03-22T10:19:55.301Z</time></trkpt><trkpt lat="46.1739707" lon="13.6023387"><ele>514.0</ele><time>2026-03-22T10:19:57.288Z</time></trkpt><trkpt lat="46.174094" lon="13.6023795"><ele>514.0</ele><time>2026-03-22T10:19:59.293Z</time></trkpt><trkpt lat="46.1741579" lon="13.6023784"><ele>514.0</ele><time>2026-03-22T10:20:00.289Z</time></trkpt><trkpt lat="46.1742652" lon="13.6023981"><ele>514.0</ele><time>2026-03-22T10:20:02.282Z</time></trkpt><trkpt lat="46.1743605" lon="13.6024579"><ele>514.0</ele><time>2026-03-22T10:20:04.292Z</time></trkpt><trkpt lat="46.1744186" lon="13.6025625"><ele>514.0</ele><time>2026-03-22T10:20:06.284Z</time></trkpt><trkpt lat="46.1744929" lon="13.6026256"><ele>514.0</ele><time>2026-03-22T10:20:08.289Z</time></trkpt><trkpt lat="46.1745874" lon="13.6026249"><ele>514.0</ele><time>2026-03-22T10:20:10.298Z</time></trkpt><trkpt lat="46.1746504" lon="13.6026329"><ele>514.0</ele><time>2026-03-22T10:20:11.284Z</time></trkpt><trkpt lat="46.174763" lon="13.60258"><ele>514.0</ele><time>2026-03-22T10:20:13.273Z</time></trkpt><trkpt lat="46.1748281" lon="13.6025213"><ele>514.0</ele><time>2026-03-22T10:20:14.298Z</time></trkpt><trkpt lat="46.1749007" lon="13.6024872"><ele>514.0</ele><time>2026-03-22T10:20:15.29Z</time></trkpt><trkpt lat="46.1750014" lon="13.6024568"><ele>514.0</ele><time>2026-03-22T10:20:17.286Z</time></trkpt><trkpt lat="46.1750944" lon="13.60248"><ele>517.2</ele><time>2026-03-22T10:20:19.286Z</time></trkpt><trkpt lat="46.1752427" lon="13.6024484"><ele>520.4</ele><time>2026-03-22T10:20:21.278Z</time></trkpt><trkpt lat="46.1753162" lon="13.6024365"><ele>523.6</ele><time>2026-03-22T10:20:22.285Z</time></trkpt><trkpt lat="46.1753892" lon="13.6023928"><ele>526.8</ele><time>2026-03-22T10:20:23.282Z</time></trkpt><trkpt lat="46.1754617" lon="13.6023125"><ele>530.0</ele><time>2026-03-22T10:20:24.292Z</time></trkpt><trkpt lat="46.1755283" lon="13.6022575"><ele>529.9999999999999</ele><time>2026-03-22T10:20:25.301Z</time></trkpt><trkpt lat="46.1755956" lon="13.6022277"><ele>530.0</ele><time>2026-03-22T10:20:26.3Z</time></trkpt><trkpt lat="46.1756593" lon="13.6022596"><ele>530.0</ele><time>2026-03-22T10:20:27.286Z</time></trkpt><trkpt lat="46.1757186" lon="13.6023171"><ele>530.0</ele><time>2026-03-22T10:20:28.302Z</time></trkpt><trkpt lat="46.1757769" lon="13.6023695"><ele>530.0</ele><time>2026-03-22T10:20:29.308Z</time></trkpt><trkpt lat="46.1758338" lon="13.6024124"><ele>529.9999999999999</ele><time>2026-03-22T10:20:30.303Z</time></trkpt><trkpt lat="46.1758989" lon="13.6024218"><ele>530.0</ele><time>2026-03-22T10:20:31.277Z</time></trkpt><trkpt lat="46.1760192" lon="13.6024176"><ele>530.1666666666666</ele><time>2026-03-22T10:20:33.307Z</time></trkpt><trkpt lat="46.1761169" lon="13.6024553"><ele>530.3333333333333</ele><time>2026-03-22T10:20:35.303Z</time></trkpt><trkpt lat="46.1762055" lon="13.6024538"><ele>530.5</ele><time>2026-03-22T10:20:37.284Z</time></trkpt><trkpt lat="46.1762936" lon="13.6024098"><ele>530.6666666666666</ele><time>2026-03-22T10:20:39.297Z</time></trkpt><trkpt lat="46.1763775" lon="13.6023959"><ele>530.8333333333334</ele><time>2026-03-22T10:20:41.302Z</time></trkpt><trkpt lat="46.1764442" lon="13.6023809"><ele>531.0</ele><time>2026-03-22T10:20:43.292Z</time></trkpt><trkpt lat="46.1765119" lon="13.6023686"><ele>532.6666666666666</ele><time>2026-03-22T10:20:45.281Z</time></trkpt><trkpt lat="46.1765853" lon="13.6023465"><ele>534.3333333333334</ele><time>2026-03-22T10:20:47.28Z</time></trkpt><trkpt lat="46.1766525" lon="13.6023362"><ele>536.0</ele><time>2026-03-22T10:20:49.297Z</time></trkpt><trkpt lat="46.1767328" lon="13.6023428"><ele>537.6666666666667</ele><time>2026-03-22T10:20:51.289Z</time></trkpt><trkpt lat="46.1768105" lon="13.6023173"><ele>539.3333333333334</ele><time>2026-03-22T10:20:53.286Z</time></trkpt><trkpt lat="46.176898" lon="13.6023168"><ele>541.0</ele><time>2026-03-22T10:20:55.305Z</time></trkpt><trkpt lat="46.1769716" lon="13.6024006"><ele>541.0</ele><time>2026-03-22T10:20:57.279Z</time></trkpt><trkpt lat="46.1769836" lon="13.6025238"><ele>541.0</ele><time>2026-03-22T10:20:59.306Z</time></trkpt><trkpt lat="46.1769716" lon="13.602626"><ele>541.0</ele><time>2026-03-22T10:21:01.299Z</time></trkpt><trkpt lat="46.1769432" lon="13.6027127"><ele>541.0</ele><time>2026-03-22T10:21:04.325Z</time></trkpt><trkpt lat="46.1769752" lon="13.6028089"><ele>541.0</ele><time>2026-03-22T10:21:07.291Z</time></trkpt><trkpt lat="46.1770676" lon="13.6027336"><ele>541.0</ele><time>2026-03-22T10:21:10.311Z</time></trkpt><trkpt lat="46.1771253" lon="13.6026629"><ele>541.0</ele><time>2026-03-22T10:21:12.283Z</time></trkpt><trkpt lat="46.1771783" lon="13.6025724"><ele>541.0</ele><time>2026-03-22T10:21:14.282Z</time></trkpt><trkpt lat="46.1772558" lon="13.6025199"><ele>541.0</ele><time>2026-03-22T10:21:16.298Z</time></trkpt><trkpt lat="46.1773378" lon="13.6024539"><ele>541.0</ele><time>2026-03-22T10:21:18.301Z</time></trkpt><trkpt lat="46.1774108" lon="13.6023676"><ele>541.0</ele><time>2026-03-22T10:21:20.284Z</time></trkpt><trkpt lat="46.1774727" lon="13.6022554"><ele>544.5</ele><time>2026-03-22T10:21:22.285Z</time></trkpt><trkpt lat="46.1775367" lon="13.6021574"><ele>548.0</ele><time>2026-03-22T10:21:24.299Z</time></trkpt><trkpt lat="46.1776014" lon="13.6020367"><ele>551.5</ele><time>2026-03-22T10:21:26.304Z</time></trkpt><trkpt lat="46.1776552" lon="13.6019254"><ele>555.0</ele><time>2026-03-22T10:21:28.308Z</time></trkpt><trkpt lat="46.1776917" lon="13.6018285"><ele>558.5</ele><time>2026-03-22T10:21:30.299Z</time></trkpt><trkpt lat="46.1777161" lon="13.6017379"><ele>562.0</ele><time>2026-03-22T10:21:32.288Z</time></trkpt><trkpt lat="46.1777348" lon="13.6016426"><ele>562.0000000000001</ele><time>2026-03-22T10:21:34.295Z</time></trkpt><trkpt lat="46.1778023" lon="13.6015618"><ele>562.0</ele><time>2026-03-22T10:21:37.278Z</time></trkpt><trkpt lat="46.1778105" lon="13.6016725"><ele>562.0</ele><time>2026-03-22T10:21:40.29Z</time></trkpt><trkpt lat="46.1778055" lon="13.6017706"><ele>562.0</ele><time>2026-03-22T10:21:41.288Z</time></trkpt><trkpt lat="46.1778014" lon="13.6018855"><ele>562.0</ele><time>2026-03-22T10:21:42.305Z</time></trkpt><trkpt lat="46.1777982" lon="13.6019798"><ele>562.0000000000001</ele><time>2026-03-22T10:21:43.288Z</time></trkpt><trkpt lat="46.1777935" lon="13.602076"><ele>562.0</ele><time>2026-03-22T10:21:44.288Z</time></trkpt><trkpt lat="46.1777563" lon="13.6022471"><ele>562.0</ele><time>2026-03-22T10:21:46.28Z</time></trkpt><trkpt lat="46.1777226" lon="13.602415"><ele>562.0</ele><time>2026-03-22T10:21:48.305Z</time></trkpt><trkpt lat="46.1776789" lon="13.6025737"><ele>562.0</ele><time>2026-03-22T10:21:50.297Z</time></trkpt><trkpt lat="46.1776247" lon="13.6027172"><ele>562.0</ele><time>2026-03-22T10:21:52.288Z</time></trkpt><trkpt lat="46.1775583" lon="13.6028485"><ele>563.8333333333334</ele><time>2026-03-22T10:21:54.289Z</time></trkpt><trkpt lat="46.1775094" lon="13.6029614"><ele>565.6666666666667</ele><time>2026-03-22T10:21:56.279Z</time></trkpt><trkpt lat="46.1774774" lon="13.6030668"><ele>567.5</ele><time>2026-03-22T10:21:58.294Z</time></trkpt><trkpt lat="46.1774527" lon="13.6031741"><ele>569.3333333333334</ele><time>2026-03-22T10:22:00.301Z</time></trkpt><trkpt lat="46.1774146" lon="13.6032882"><ele>571.1666666666666</ele><time>2026-03-22T10:22:03.281Z</time></trkpt><trkpt lat="46.177371" lon="13.6033852"><ele>573.0</ele><time>2026-03-22T10:22:20.296Z</time></trkpt><trkpt lat="46.1774273" lon="13.6034373"><ele>573.0</ele><time>2026-03-22T10:22:47.283Z</time></trkpt><trkpt lat="46.1775273" lon="13.6034682"><ele>573.0</ele><time>2026-03-22T10:39:27.288Z</time></trkpt><trkpt lat="46.1774577" lon="13.6034279"><ele>573.0</ele><time>2026-03-22T10:39:34.298Z</time></trkpt><trkpt lat="46.177397" lon="13.6033989"><ele>573.0</ele><time>2026-03-22T10:39:38.285Z</time></trkpt><trkpt lat="46.1773329" lon="13.6034058"><ele>573.0</ele><time>2026-03-22T10:39:44.269Z</time></trkpt><trkpt lat="46.177276" lon="13.6034745"><ele>573.0</ele><time>2026-03-22T10:39:50.188Z</time></trkpt><trkpt lat="46.1772356" lon="13.603556"><ele>573.0</ele><time>2026-03-22T10:39:56.281Z</time></trkpt><trkpt lat="46.1771874" lon="13.6036281"><ele>569.5</ele><time>2026-03-22T10:40:05.286Z</time></trkpt><trkpt lat="46.1771184" lon="13.6036427"><ele>566.0</ele><time>2026-03-22T10:40:10.283Z</time></trkpt><trkpt lat="46.177066" lon="13.6037653"><ele>562.5</ele><time>2026-03-22T10:40:45.277Z</time></trkpt><trkpt lat="46.1770813" lon="13.6038602"><ele>559.0</ele><time>2026-03-22T10:41:13.292Z</time></trkpt><trkpt lat="46.1771349" lon="13.6039113"><ele>555.5</ele><time>2026-03-22T10:42:28.302Z</time></trkpt><trkpt lat="46.1770976" lon="13.6038004"><ele>552.0</ele><time>2026-03-22T10:47:57.268Z</time></trkpt><trkpt lat="46.1770671" lon="13.6038887"><ele>552.0</ele><time>2026-03-22T10:49:42.292Z</time></trkpt><trkpt lat="46.1771144" lon="13.6037985"><ele>552.0</ele><time>2026-03-22T10:50:22.277Z</time></trkpt><trkpt lat="46.1771828" lon="13.6037815"><ele>552.0</ele><time>2026-03-22T10:51:02.297Z</time></trkpt><trkpt lat="46.1771145" lon="13.6037502"><ele>552.0</ele><time>2026-03-22T11:02:48.291Z</time></trkpt><trkpt lat="46.1770574" lon="13.6038093"><ele>552.0</ele><time>2026-03-22T11:02:52.29Z</time></trkpt><trkpt lat="46.1770023" lon="13.6038565"><ele>552.0</ele><time>2026-03-22T11:03:00.287Z</time></trkpt><trkpt lat="46.1769335" lon="13.6038751"><ele>552.0</ele><time>2026-03-22T11:03:08.291Z</time></trkpt><trkpt lat="46.1768787" lon="13.6038284"><ele>552.0</ele><time>2026-03-22T11:03:19.291Z</time></trkpt><trkpt lat="46.1768278" lon="13.6038866"><ele>552.0</ele><time>2026-03-22T11:03:43.302Z</time></trkpt><trkpt lat="46.1768154" lon="13.6039829"><ele>552.0</ele><time>2026-03-22T11:03:59.302Z</time></trkpt><trkpt lat="46.1767861" lon="13.6040643"><ele>552.0</ele><time>2026-03-22T11:04:16.286Z</time></trkpt><trkpt lat="46.1767236" lon="13.6040817"><ele>552.0</ele><time>2026-03-22T11:04:29.308Z</time></trkpt><trkpt lat="46.1766604" lon="13.6041034"><ele>552.0</ele><time>2026-03-22T11:04:46.302Z</time></trkpt><trkpt lat="46.1766539" lon="13.6040116"><ele>552.0</ele><time>2026-03-22T11:05:04.297Z</time></trkpt><trkpt lat="46.1765969" lon="13.6039632"><ele>552.0</ele><time>2026-03-22T11:05:12.307Z</time></trkpt><trkpt lat="46.1765428" lon="13.6040156"><ele>552.0</ele><time>2026-03-22T11:05:33.295Z</time></trkpt><trkpt lat="46.176546" lon="13.6041098"><ele>552.0</ele><time>2026-03-22T11:05:40.319Z</time></trkpt><trkpt lat="46.1765416" lon="13.6040143"><ele>552.0</ele><time>2026-03-22T11:06:33.248Z</time></trkpt><trkpt lat="46.176513" lon="13.6039268"><ele>552.0</ele><time>2026-03-22T11:06:41.306Z</time></trkpt><trkpt lat="46.1765016" lon="13.6037728"><ele>552.0</ele><time>2026-03-22T11:07:21.293Z</time></trkpt><trkpt lat="46.1764982" lon="13.6036755"><ele>552.0</ele><time>2026-03-22T11:07:33.299Z</time></trkpt><trkpt lat="46.1765399" lon="13.6036043"><ele>551.1428571428571</ele><time>2026-03-22T11:07:52.307Z</time></trkpt><trkpt lat="46.1765865" lon="13.6035299"><ele>550.2857142857143</ele><time>2026-03-22T11:08:02.306Z</time></trkpt><trkpt lat="46.1765724" lon="13.6034392"><ele>549.4285714285714</ele><time>2026-03-22T11:08:21.307Z</time></trkpt><trkpt lat="46.1765979" lon="13.6033531"><ele>548.5714285714286</ele><time>2026-03-22T11:08:27.297Z</time></trkpt><trkpt lat="46.1766339" lon="13.6032748"><ele>547.7142857142858</ele><time>2026-03-22T11:08:34.294Z</time></trkpt><trkpt lat="46.1766798" lon="13.6032103"><ele>546.8571428571429</ele><time>2026-03-22T11:08:47.295Z</time></trkpt><trkpt lat="46.1767332" lon="13.6031286"><ele>546.0</ele><time>2026-03-22T11:08:59.286Z</time></trkpt><trkpt lat="46.176787" lon="13.6030583"><ele>546.0</ele><time>2026-03-22T11:09:05.294Z</time></trkpt><trkpt lat="46.1768484" lon="13.6030249"><ele>546.0</ele><time>2026-03-22T11:09:13.292Z</time></trkpt><trkpt lat="46.1768963" lon="13.6029494"><ele>546.0</ele><time>2026-03-22T11:09:19.291Z</time></trkpt><trkpt lat="46.1769356" lon="13.6028704"><ele>546.0</ele><time>2026-03-22T11:09:29.306Z</time></trkpt><trkpt lat="46.176981" lon="13.6027858"><ele>546.0</ele><time>2026-03-22T11:09:36.293Z</time></trkpt><trkpt lat="46.1770363" lon="13.6027237"><ele>546.0</ele><time>2026-03-22T11:09:45.292Z</time></trkpt><trkpt lat="46.177105" lon="13.6027092"><ele>546.0</ele><time>2026-03-22T11:09:52.29Z</time></trkpt><trkpt lat="46.1771891" lon="13.6026971"><ele>545.2857142857143</ele><time>2026-03-22T11:10:06.286Z</time></trkpt><trkpt lat="46.1772487" lon="13.6026562"><ele>544.5714285714286</ele><time>2026-03-22T11:10:21.302Z</time></trkpt><trkpt lat="46.1772738" lon="13.6025721"><ele>543.8571428571429</ele><time>2026-03-22T11:10:31.298Z</time></trkpt><trkpt lat="46.1773401" lon="13.6024918"><ele>543.1428571428571</ele><time>2026-03-22T11:10:49.295Z</time></trkpt><trkpt lat="46.1773999" lon="13.6024515"><ele>542.4285714285714</ele><time>2026-03-22T11:10:58.295Z</time></trkpt><trkpt lat="46.1774612" lon="13.6024207"><ele>541.7142857142858</ele><time>2026-03-22T11:11:09.307Z</time></trkpt><trkpt lat="46.1774705" lon="13.6023299"><ele>541.0</ele><time>2026-03-22T11:11:20.296Z</time></trkpt><trkpt lat="46.1774908" lon="13.6022413"><ele>544.0000000000001</ele><time>2026-03-22T11:11:32.308Z</time></trkpt><trkpt lat="46.1775396" lon="13.6021694"><ele>547.0</ele><time>2026-03-22T11:11:39.291Z</time></trkpt><trkpt lat="46.1775768" lon="13.6020943"><ele>550.0</ele><time>2026-03-22T11:11:45.227Z</time></trkpt><trkpt lat="46.1776159" lon="13.6020143"><ele>553.0</ele><time>2026-03-22T11:11:54.256Z</time></trkpt><trkpt lat="46.1776697" lon="13.6019447"><ele>556.0</ele><time>2026-03-22T11:12:02.281Z</time></trkpt><trkpt lat="46.177711" lon="13.6018676"><ele>559.0000000000001</ele><time>2026-03-22T11:12:08.293Z</time></trkpt><trkpt lat="46.1777484" lon="13.6017865"><ele>562.0</ele><time>2026-03-22T11:12:13.303Z</time></trkpt><trkpt lat="46.1777698" lon="13.6016995"><ele>562.0000000000001</ele><time>2026-03-22T11:12:19.287Z</time></trkpt><trkpt lat="46.1777855" lon="13.6016108"><ele>562.0</ele><time>2026-03-22T11:12:38.309Z</time></trkpt><trkpt lat="46.1778153" lon="13.6016923"><ele>562.0</ele><time>2026-03-22T11:12:52.247Z</time></trkpt><trkpt lat="46.1778469" lon="13.6017739"><ele>562.0</ele><time>2026-03-22T11:13:11.289Z</time></trkpt><trkpt lat="46.1778596" lon="13.601864"><ele>562.0</ele><time>2026-03-22T11:13:21.324Z</time></trkpt><trkpt lat="46.1778586" lon="13.6019632"><ele>562.0000000000001</ele><time>2026-03-22T11:13:31.297Z</time></trkpt><trkpt lat="46.1778445" lon="13.6020582"><ele>562.0</ele><time>2026-03-22T11:13:40.23Z</time></trkpt><trkpt lat="46.1778269" lon="13.6021555"><ele>562.0000000000001</ele><time>2026-03-22T11:13:49.3Z</time></trkpt><trkpt lat="46.1778059" lon="13.6022466"><ele>562.0</ele><time>2026-03-22T11:13:57.293Z</time></trkpt><trkpt lat="46.1777885" lon="13.602338"><ele>562.0</ele><time>2026-03-22T11:14:03.187Z</time></trkpt><trkpt lat="46.1777759" lon="13.6024355"><ele>562.0</ele><time>2026-03-22T11:14:09.267Z</time></trkpt><trkpt lat="46.1777443" lon="13.6025236"><ele>562.0</ele><time>2026-03-22T11:14:18.287Z</time></trkpt><trkpt lat="46.1777027" lon="13.6026029"><ele>562.0000000000001</ele><time>2026-03-22T11:14:26.293Z</time></trkpt><trkpt lat="46.1776663" lon="13.602684"><ele>562.0</ele><time>2026-03-22T11:14:34.289Z</time></trkpt><trkpt lat="46.1776324" lon="13.6027618"><ele>563.5714285714287</ele><time>2026-03-22T11:14:42.3Z</time></trkpt><trkpt lat="46.1775795" lon="13.6028369"><ele>565.1428571428571</ele><time>2026-03-22T11:14:51.304Z</time></trkpt><trkpt lat="46.1775496" lon="13.6029228"><ele>566.7142857142858</ele><time>2026-03-22T11:14:57.319Z</time></trkpt><trkpt lat="46.1775309" lon="13.603011"><ele>568.2857142857143</ele><time>2026-03-22T11:15:04.297Z</time></trkpt><trkpt lat="46.1775126" lon="13.6031004"><ele>569.8571428571429</ele><time>2026-03-22T11:15:12.298Z</time></trkpt><trkpt lat="46.1774833" lon="13.6031817"><ele>571.4285714285714</ele><time>2026-03-22T11:15:19.296Z</time></trkpt><trkpt lat="46.1774612" lon="13.6032769"><ele>573.0</ele><time>2026-03-22T11:15:28.292Z</time></trkpt><trkpt lat="46.1774183" lon="13.6033656"><ele>573.0</ele><time>2026-03-22T11:15:35.287Z</time></trkpt><trkpt lat="46.1773851" lon="13.6034433"><ele>573.0</ele><time>2026-03-22T11:15:41.296Z</time></trkpt><trkpt lat="46.1774205" lon="13.6035194"><ele>573.0</ele><time>2026-03-22T11:15:49.309Z</time></trkpt><trkpt lat="46.177465" lon="13.6035962"><ele>573.0</ele><time>2026-03-22T11:15:55.3Z</time></trkpt><trkpt lat="46.1774018" lon="13.6034023"><ele>573.0</ele><time>2026-03-22T11:20:13.305Z</time></trkpt><trkpt lat="46.1774363" lon="13.6031398"><ele>573.0</ele><time>2026-03-22T11:21:24.309Z</time></trkpt><trkpt lat="46.1775033" lon="13.6029532"><ele>573.0</ele><time>2026-03-22T11:21:28.33Z</time></trkpt><trkpt lat="46.1775475" lon="13.6028437"><ele>573.0</ele><time>2026-03-22T11:21:30.325Z</time></trkpt><trkpt lat="46.1775993" lon="13.6027083"><ele>573.0</ele><time>2026-03-22T11:21:32.298Z</time></trkpt><trkpt lat="46.1777044" lon="13.602379"><ele>571.0</ele><time>2026-03-22T11:21:37.306Z</time></trkpt><trkpt lat="46.1777695" lon="13.6020862"><ele>569.0</ele><time>2026-03-22T11:21:41.303Z</time></trkpt><trkpt lat="46.1778207" lon="13.6016332"><ele>569.0</ele><time>2026-03-22T11:21:45.324Z</time></trkpt><trkpt lat="46.1777569" lon="13.6017045"><ele>569.0</ele><time>2026-03-22T11:21:47.327Z</time></trkpt><trkpt lat="46.1777329" lon="13.6018248"><ele>569.0</ele><time>2026-03-22T11:21:50.314Z</time></trkpt><trkpt lat="46.1776971" lon="13.6019778"><ele>569.0</ele><time>2026-03-22T11:21:52.302Z</time></trkpt><trkpt lat="46.1776788" lon="13.6020661"><ele>569.0</ele><time>2026-03-22T11:21:53.306Z</time></trkpt><trkpt lat="46.1776388" lon="13.6021618"><ele>569.0</ele><time>2026-03-22T11:21:54.303Z</time></trkpt><trkpt lat="46.1775936" lon="13.6022407"><ele>567.6</ele><time>2026-03-22T11:21:55.307Z</time></trkpt><trkpt lat="46.1775059" lon="13.602368"><ele>566.2</ele><time>2026-03-22T11:21:57.301Z</time></trkpt><trkpt lat="46.177462" lon="13.6024383"><ele>564.8000000000001</ele><time>2026-03-22T11:21:58.298Z</time></trkpt><trkpt lat="46.1773798" lon="13.6025685"><ele>563.4</ele><time>2026-03-22T11:22:00.297Z</time></trkpt><trkpt lat="46.1772969" lon="13.6026324"><ele>562.0</ele><time>2026-03-22T11:22:02.3Z</time></trkpt><trkpt lat="46.177224" lon="13.6026847"><ele>558.8000000000001</ele><time>2026-03-22T11:22:04.315Z</time></trkpt><trkpt lat="46.1771516" lon="13.6027819"><ele>555.6</ele><time>2026-03-22T11:22:06.3Z</time></trkpt><trkpt lat="46.1770779" lon="13.6028418"><ele>552.4000000000001</ele><time>2026-03-22T11:22:09.312Z</time></trkpt><trkpt lat="46.1770486" lon="13.6027334"><ele>549.2</ele><time>2026-03-22T11:22:13.305Z</time></trkpt><trkpt lat="46.1770853" lon="13.6026039"><ele>546.0</ele><time>2026-03-22T11:22:15.305Z</time></trkpt><trkpt lat="46.1771179" lon="13.6024798"><ele>544.75</ele><time>2026-03-22T11:22:17.295Z</time></trkpt><trkpt lat="46.1770721" lon="13.6023628"><ele>543.5</ele><time>2026-03-22T11:22:19.292Z</time></trkpt><trkpt lat="46.1769599" lon="13.6023423"><ele>542.25</ele><time>2026-03-22T11:22:21.299Z</time></trkpt><trkpt lat="46.176857" lon="13.6023789"><ele>541.0</ele><time>2026-03-22T11:22:23.299Z</time></trkpt><trkpt lat="46.176722" lon="13.602442"><ele>541.0</ele><time>2026-03-22T11:22:25.309Z</time></trkpt><trkpt lat="46.1766583" lon="13.6024514"><ele>541.0</ele><time>2026-03-22T11:22:26.295Z</time></trkpt><trkpt lat="46.1765742" lon="13.6024191"><ele>541.0</ele><time>2026-03-22T11:22:28.299Z</time></trkpt><trkpt lat="46.1764818" lon="13.6023973"><ele>541.0</ele><time>2026-03-22T11:22:30.312Z</time></trkpt><trkpt lat="46.1763825" lon="13.6023903"><ele>541.0</ele><time>2026-03-22T11:22:32.306Z</time></trkpt><trkpt lat="46.1762769" lon="13.602381"><ele>539.3333333333334</ele><time>2026-03-22T11:22:34.305Z</time></trkpt><trkpt lat="46.1761912" lon="13.6023561"><ele>537.6666666666667</ele><time>2026-03-22T11:22:35.323Z</time></trkpt><trkpt lat="46.1761125" lon="13.6023295"><ele>536.0</ele><time>2026-03-22T11:22:36.313Z</time></trkpt><trkpt lat="46.1760486" lon="13.6023204"><ele>534.3333333333334</ele><time>2026-03-22T11:22:37.301Z</time></trkpt><trkpt lat="46.1759772" lon="13.6023129"><ele>532.6666666666666</ele><time>2026-03-22T11:22:38.294Z</time></trkpt><trkpt lat="46.1758731" lon="13.6023"><ele>531.0</ele><time>2026-03-22T11:22:40.303Z</time></trkpt><trkpt lat="46.1757996" lon="13.6022956"><ele>531.0</ele><time>2026-03-22T11:22:41.304Z</time></trkpt><trkpt lat="46.1757347" lon="13.602299"><ele>531.0</ele><time>2026-03-22T11:22:42.31Z</time></trkpt><trkpt lat="46.1756593" lon="13.6023137"><ele>531.0</ele><time>2026-03-22T11:22:43.308Z</time></trkpt><trkpt lat="46.1755893" lon="13.6023298"><ele>531.0</ele><time>2026-03-22T11:22:44.303Z</time></trkpt><trkpt lat="46.1755204" lon="13.6023376"><ele>531.0</ele><time>2026-03-22T11:22:45.324Z</time></trkpt><trkpt lat="46.1754425" lon="13.6023532"><ele>531.0</ele><time>2026-03-22T11:22:46.32Z</time></trkpt><trkpt lat="46.1753589" lon="13.6023716"><ele>531.0</ele><time>2026-03-22T11:22:47.309Z</time></trkpt><trkpt lat="46.1752756" lon="13.602396"><ele>530.8333333333334</ele><time>2026-03-22T11:22:48.316Z</time></trkpt><trkpt lat="46.1751968" lon="13.6024178"><ele>530.6666666666666</ele><time>2026-03-22T11:22:49.302Z</time></trkpt><trkpt lat="46.1751237" lon="13.6024447"><ele>530.5</ele><time>2026-03-22T11:22:50.304Z</time></trkpt><trkpt lat="46.1750467" lon="13.602469"><ele>530.3333333333333</ele><time>2026-03-22T11:22:51.304Z</time></trkpt><trkpt lat="46.1749737" lon="13.6025"><ele>530.1666666666666</ele><time>2026-03-22T11:22:52.314Z</time></trkpt><trkpt lat="46.174905" lon="13.6025246"><ele>530.0</ele><time>2026-03-22T11:22:53.301Z</time></trkpt><trkpt lat="46.1748317" lon="13.6025497"><ele>526.8</ele><time>2026-03-22T11:22:54.298Z</time></trkpt><trkpt lat="46.1747553" lon="13.6025849"><ele>523.6</ele><time>2026-03-22T11:22:55.315Z</time></trkpt><trkpt lat="46.1746827" lon="13.6026157"><ele>520.4</ele><time>2026-03-22T11:22:56.308Z</time></trkpt><trkpt lat="46.1746207" lon="13.6026478"><ele>517.2</ele><time>2026-03-22T11:22:57.319Z</time></trkpt><trkpt lat="46.1745049" lon="13.6026215"><ele>514.0</ele><time>2026-03-22T11:22:59.303Z</time></trkpt><trkpt lat="46.1744249" lon="13.6025024"><ele>514.0</ele><time>2026-03-22T11:23:01.299Z</time></trkpt><trkpt lat="46.1743604" lon="13.6024752"><ele>514.0</ele><time>2026-03-22T11:23:02.302Z</time></trkpt><trkpt lat="46.1742916" lon="13.6024665"><ele>514.0</ele><time>2026-03-22T11:23:03.298Z</time></trkpt><trkpt lat="46.174218" lon="13.6024692"><ele>514.0</ele><time>2026-03-22T11:23:04.298Z</time></trkpt><trkpt lat="46.1741479" lon="13.6024543"><ele>514.0</ele><time>2026-03-22T11:23:05.304Z</time></trkpt><trkpt lat="46.1740786" lon="13.6024301"><ele>514.0</ele><time>2026-03-22T11:23:06.299Z</time></trkpt><trkpt lat="46.1739979" lon="13.6024015"><ele>514.0</ele><time>2026-03-22T11:23:07.31Z</time></trkpt><trkpt lat="46.173917" lon="13.602366"><ele>514.0</ele><time>2026-03-22T11:23:08.307Z</time></trkpt><trkpt lat="46.1738474" lon="13.6023211"><ele>514.0</ele><time>2026-03-22T11:23:09.308Z</time></trkpt><trkpt lat="46.1737941" lon="13.6022357"><ele>514.0</ele><time>2026-03-22T11:23:10.308Z</time></trkpt><trkpt lat="46.173727" lon="13.6021551"><ele>514.0</ele><time>2026-03-22T11:23:11.311Z</time></trkpt><trkpt lat="46.1736425" lon="13.6020764"><ele>514.0</ele><time>2026-03-22T11:23:12.3Z</time></trkpt><trkpt lat="46.1735575" lon="13.6019893"><ele>514.0</ele><time>2026-03-22T11:23:13.299Z</time></trkpt><trkpt lat="46.1734689" lon="13.6019303"><ele>514.0</ele><time>2026-03-22T11:23:14.299Z</time></trkpt><trkpt lat="46.1733789" lon="13.6018876"><ele>514.0</ele><time>2026-03-22T11:23:15.305Z</time></trkpt><trkpt lat="46.173296" lon="13.6018479"><ele>514.0</ele><time>2026-03-22T11:23:16.303Z</time></trkpt><trkpt lat="46.1732312" lon="13.6017995"><ele>514.0</ele><time>2026-03-22T11:23:17.307Z</time></trkpt><trkpt lat="46.1731439" lon="13.6017017"><ele>514.0</ele><time>2026-03-22T11:23:19.296Z</time></trkpt><trkpt lat="46.173119" lon="13.6015392"><ele>514.0</ele><time>2026-03-22T11:23:21.302Z</time></trkpt><trkpt lat="46.1731279" lon="13.6014479"><ele>514.0</ele><time>2026-03-22T11:23:22.295Z</time></trkpt><trkpt lat="46.1731596" lon="13.6013561"><ele>514.0</ele><time>2026-03-22T11:23:23.303Z</time></trkpt><trkpt lat="46.1731745" lon="13.6012644"><ele>514.0</ele><time>2026-03-22T11:23:24.3Z</time></trkpt><trkpt lat="46.1731934" lon="13.6011725"><ele>514.0</ele><time>2026-03-22T11:23:25.323Z</time></trkpt><trkpt lat="46.1732346" lon="13.6009967"><ele>514.0</ele><time>2026-03-22T11:23:27.308Z</time></trkpt><trkpt lat="46.173253" lon="13.6008812"><ele>514.1666666666667</ele><time>2026-03-22T11:23:28.315Z</time></trkpt><trkpt lat="46.1732777" lon="13.6007797"><ele>514.3333333333334</ele><time>2026-03-22T11:23:29.302Z</time></trkpt><trkpt lat="46.1733135" lon="13.6006846"><ele>514.5</ele><time>2026-03-22T11:23:30.296Z</time></trkpt><trkpt lat="46.1733418" lon="13.6005811"><ele>514.6666666666666</ele><time>2026-03-22T11:23:31.308Z</time></trkpt><trkpt lat="46.1733804" lon="13.6004443"><ele>514.8333333333333</ele><time>2026-03-22T11:23:33.297Z</time></trkpt><trkpt lat="46.1733407" lon="13.6003537"><ele>515.0</ele><time>2026-03-22T11:23:35.301Z</time></trkpt><trkpt lat="46.1732434" lon="13.600283"><ele>511.0</ele><time>2026-03-22T11:23:37.309Z</time></trkpt><trkpt lat="46.1731567" lon="13.6001447"><ele>507.0</ele><time>2026-03-22T11:23:39.311Z</time></trkpt><trkpt lat="46.1731462" lon="13.6000086"><ele>503.0</ele><time>2026-03-22T11:23:40.293Z</time></trkpt><trkpt lat="46.1731423" lon="13.5999125"><ele>499.0</ele><time>2026-03-22T11:23:41.307Z</time></trkpt><trkpt lat="46.173147" lon="13.5997973"><ele>495.0</ele><time>2026-03-22T11:23:42.302Z</time></trkpt><trkpt lat="46.1731639" lon="13.5996505"><ele>495.0</ele><time>2026-03-22T11:23:43.301Z</time></trkpt><trkpt lat="46.1731622" lon="13.5995172"><ele>495.0</ele><time>2026-03-22T11:23:44.308Z</time></trkpt><trkpt lat="46.173146" lon="13.5993686"><ele>495.0</ele><time>2026-03-22T11:23:46.348Z</time></trkpt><trkpt lat="46.1730785" lon="13.599292"><ele>495.0</ele><time>2026-03-22T11:23:48.298Z</time></trkpt><trkpt lat="46.1729715" lon="13.5993029"><ele>495.0</ele><time>2026-03-22T11:23:50.308Z</time></trkpt><trkpt lat="46.1728504" lon="13.5994165"><ele>495.0</ele><time>2026-03-22T11:23:52.314Z</time></trkpt><trkpt lat="46.1727747" lon="13.599476"><ele>495.0</ele><time>2026-03-22T11:23:53.3Z</time></trkpt><trkpt lat="46.1726931" lon="13.5995124"><ele>495.0</ele><time>2026-03-22T11:23:54.302Z</time></trkpt><trkpt lat="46.1726033" lon="13.5995512"><ele>495.0</ele><time>2026-03-22T11:23:55.315Z</time></trkpt><trkpt lat="46.1725281" lon="13.5995794"><ele>495.0</ele><time>2026-03-22T11:23:56.309Z</time></trkpt><trkpt lat="46.1724649" lon="13.5996043"><ele>495.0</ele><time>2026-03-22T11:23:57.307Z</time></trkpt><trkpt lat="46.1723555" lon="13.599591"><ele>497.8</ele><time>2026-03-22T11:23:59.311Z</time></trkpt><trkpt lat="46.1722811" lon="13.599527"><ele>500.6</ele><time>2026-03-22T11:24:01.3Z</time></trkpt><trkpt lat="46.1721833" lon="13.5995343"><ele>503.4</ele><time>2026-03-22T11:24:03.299Z</time></trkpt><trkpt lat="46.172143" lon="13.5996378"><ele>506.2</ele><time>2026-03-22T11:24:06.293Z</time></trkpt><trkpt lat="46.1721294" lon="13.5997978"><ele>509.0</ele><time>2026-03-22T11:24:08.304Z</time></trkpt><trkpt lat="46.1721177" lon="13.5999577"><ele>508.99999999999994</ele><time>2026-03-22T11:24:10.301Z</time></trkpt><trkpt lat="46.1720635" lon="13.6000336"><ele>509.0</ele><time>2026-03-22T11:24:11.294Z</time></trkpt><trkpt lat="46.1720358" lon="13.6001852"><ele>509.0</ele><time>2026-03-22T11:24:13.304Z</time></trkpt><trkpt lat="46.1720199" lon="13.6002791"><ele>509.0</ele><time>2026-03-22T11:24:14.319Z</time></trkpt><trkpt lat="46.1719883" lon="13.6003754"><ele>508.99999999999994</ele><time>2026-03-22T11:24:15.305Z</time></trkpt><trkpt lat="46.1719287" lon="13.600434"><ele>509.0</ele><time>2026-03-22T11:24:16.299Z</time></trkpt><trkpt lat="46.1718516" lon="13.6004911"><ele>504.3333333333333</ele><time>2026-03-22T11:24:17.298Z</time></trkpt><trkpt lat="46.1717678" lon="13.6005271"><ele>499.66666666666663</ele><time>2026-03-22T11:24:18.306Z</time></trkpt><trkpt lat="46.1716882" lon="13.6005611"><ele>495.0</ele><time>2026-03-22T11:24:19.315Z</time></trkpt><trkpt lat="46.171613" lon="13.6006046"><ele>490.33333333333337</ele><time>2026-03-22T11:24:20.296Z</time></trkpt><trkpt lat="46.1715387" lon="13.6006434"><ele>485.6666666666667</ele><time>2026-03-22T11:24:21.301Z</time></trkpt><trkpt lat="46.1714705" lon="13.6006585"><ele>481.0</ele><time>2026-03-22T11:24:22.305Z</time></trkpt><trkpt lat="46.1713428" lon="13.6006466"><ele>479.50000000000006</ele><time>2026-03-22T11:24:24.3Z</time></trkpt><trkpt lat="46.1712785" lon="13.6006093"><ele>478.0</ele><time>2026-03-22T11:24:25.31Z</time></trkpt><trkpt lat="46.1712168" lon="13.6005814"><ele>476.5</ele><time>2026-03-22T11:24:26.299Z</time></trkpt><trkpt lat="46.171136" lon="13.6005726"><ele>475.0</ele><time>2026-03-22T11:24:27.308Z</time></trkpt><trkpt lat="46.1710576" lon="13.6005732"><ele>473.50000000000006</ele><time>2026-03-22T11:24:28.319Z</time></trkpt><trkpt lat="46.1709718" lon="13.6005685"><ele>472.0</ele><time>2026-03-22T11:24:29.304Z</time></trkpt><trkpt lat="46.1708874" lon="13.60056"><ele>472.0</ele><time>2026-03-22T11:24:30.301Z</time></trkpt><trkpt lat="46.1708228" lon="13.600518"><ele>472.0</ele><time>2026-03-22T11:24:31.305Z</time></trkpt><trkpt lat="46.1707732" lon="13.6004549"><ele>472.0</ele><time>2026-03-22T11:24:32.309Z</time></trkpt><trkpt lat="46.170718" lon="13.6003979"><ele>472.0</ele><time>2026-03-22T11:24:33.298Z</time></trkpt><trkpt lat="46.1706629" lon="13.6003347"><ele>472.0</ele><time>2026-03-22T11:24:34.294Z</time></trkpt><trkpt lat="46.1706036" lon="13.6002667"><ele>472.0</ele><time>2026-03-22T11:24:35.319Z</time></trkpt><trkpt lat="46.1705266" lon="13.6002582"><ele>472.0</ele><time>2026-03-22T11:24:36.296Z</time></trkpt><trkpt lat="46.1704552" lon="13.6002815"><ele>473.00000000000006</ele><time>2026-03-22T11:24:37.3Z</time></trkpt><trkpt lat="46.1703896" lon="13.6003154"><ele>474.0</ele><time>2026-03-22T11:24:38.302Z</time></trkpt><trkpt lat="46.1703132" lon="13.6003619"><ele>475.0</ele><time>2026-03-22T11:24:39.299Z</time></trkpt><trkpt lat="46.1702376" lon="13.60041"><ele>476.0</ele><time>2026-03-22T11:24:40.3Z</time></trkpt><trkpt lat="46.1701644" lon="13.6004901"><ele>477.00000000000006</ele><time>2026-03-22T11:24:41.3Z</time></trkpt><trkpt lat="46.1700868" lon="13.6005867"><ele>478.0</ele><time>2026-03-22T11:24:42.304Z</time></trkpt><trkpt lat="46.1700045" lon="13.6006859"><ele>478.00000000000006</ele><time>2026-03-22T11:24:43.3Z</time></trkpt><trkpt lat="46.1699156" lon="13.6007658"><ele>478.0</ele><time>2026-03-22T11:24:44.306Z</time></trkpt><trkpt lat="46.1698385" lon="13.6008249"><ele>478.0</ele><time>2026-03-22T11:24:45.308Z</time></trkpt><trkpt lat="46.1697491" lon="13.6008578"><ele>478.0</ele><time>2026-03-22T11:24:46.317Z</time></trkpt><trkpt lat="46.1696627" lon="13.6008912"><ele>478.00000000000006</ele><time>2026-03-22T11:24:47.301Z</time></trkpt><trkpt lat="46.169591" lon="13.6009229"><ele>478.0</ele><time>2026-03-22T11:24:48.306Z</time></trkpt><trkpt lat="46.1695187" lon="13.6009601"><ele>479.00000000000006</ele><time>2026-03-22T11:24:49.303Z</time></trkpt><trkpt lat="46.1694376" lon="13.6010082"><ele>480.0</ele><time>2026-03-22T11:24:50.299Z</time></trkpt><trkpt lat="46.1693624" lon="13.6010479"><ele>481.0</ele><time>2026-03-22T11:24:51.3Z</time></trkpt><trkpt lat="46.1692914" lon="13.6010667"><ele>482.0</ele><time>2026-03-22T11:24:52.296Z</time></trkpt><trkpt lat="46.169218" lon="13.6010543"><ele>483.00000000000006</ele><time>2026-03-22T11:24:53.312Z</time></trkpt><trkpt lat="46.1691395" lon="13.6010357"><ele>484.0</ele><time>2026-03-22T11:24:54.301Z</time></trkpt><trkpt lat="46.1690772" lon="13.6009851"><ele>475.4</ele><time>2026-03-22T11:24:55.302Z</time></trkpt><trkpt lat="46.1690062" lon="13.6009471"><ele>466.79999999999995</ele><time>2026-03-22T11:24:56.298Z</time></trkpt><trkpt lat="46.1689173" lon="13.6009133"><ele>458.20000000000005</ele><time>2026-03-22T11:24:57.303Z</time></trkpt><trkpt lat="46.1688247" lon="13.6008833"><ele>449.6</ele><time>2026-03-22T11:24:58.31Z</time></trkpt><trkpt lat="46.1687255" lon="13.6008619"><ele>441.0</ele><time>2026-03-22T11:24:59.302Z</time></trkpt><trkpt lat="46.1686227" lon="13.6008361"><ele>441.0</ele><time>2026-03-22T11:25:00.307Z</time></trkpt><trkpt lat="46.1685152" lon="13.6007745"><ele>441.0</ele><time>2026-03-22T11:25:01.302Z</time></trkpt><trkpt lat="46.1684102" lon="13.600705"><ele>441.0</ele><time>2026-03-22T11:25:02.294Z</time></trkpt><trkpt lat="46.1683299" lon="13.6006162"><ele>441.0</ele><time>2026-03-22T11:25:03.301Z</time></trkpt><trkpt lat="46.1682345" lon="13.6005552"><ele>441.0</ele><time>2026-03-22T11:25:04.325Z</time></trkpt><trkpt lat="46.1681367" lon="13.6005078"><ele>444.20000000000005</ele><time>2026-03-22T11:25:05.316Z</time></trkpt><trkpt lat="46.1680446" lon="13.6004771"><ele>447.40000000000003</ele><time>2026-03-22T11:25:06.301Z</time></trkpt><trkpt lat="46.1679715" lon="13.6004216"><ele>450.6</ele><time>2026-03-22T11:25:07.296Z</time></trkpt><trkpt lat="46.1679059" lon="13.6003457"><ele>453.8</ele><time>2026-03-22T11:25:08.301Z</time></trkpt><trkpt lat="46.1678545" lon="13.6002658"><ele>457.0</ele><time>2026-03-22T11:25:09.291Z</time></trkpt><trkpt lat="46.1677428" lon="13.600161"><ele>457.00000000000006</ele><time>2026-03-22T11:25:11.301Z</time></trkpt><trkpt lat="46.1676507" lon="13.60015"><ele>457.0</ele><time>2026-03-22T11:25:12.296Z</time></trkpt><trkpt lat="46.1675545" lon="13.6001621"><ele>457.0</ele><time>2026-03-22T11:25:13.3Z</time></trkpt><trkpt lat="46.1674656" lon="13.6001569"><ele>457.0</ele><time>2026-03-22T11:25:14.3Z</time></trkpt><trkpt lat="46.1674027" lon="13.6001387"><ele>457.00000000000006</ele><time>2026-03-22T11:25:15.317Z</time></trkpt><trkpt lat="46.1673148" lon="13.6000931"><ele>457.0</ele><time>2026-03-22T11:25:17.303Z</time></trkpt><trkpt lat="46.1672077" lon="13.6000091"><ele>451.83333333333337</ele><time>2026-03-22T11:25:19.316Z</time></trkpt><trkpt lat="46.1670978" lon="13.5999327"><ele>446.6666666666667</ele><time>2026-03-22T11:25:21.303Z</time></trkpt><trkpt lat="46.1670324" lon="13.5998854"><ele>441.5</ele><time>2026-03-22T11:25:22.308Z</time></trkpt><trkpt lat="46.166976" lon="13.5998342"><ele>436.33333333333337</ele><time>2026-03-22T11:25:23.301Z</time></trkpt><trkpt lat="46.1668748" lon="13.5997517"><ele>431.1666666666667</ele><time>2026-03-22T11:25:25.282Z</time></trkpt><trkpt lat="46.1668087" lon="13.599743"><ele>426.0</ele><time>2026-03-22T11:25:26.334Z</time></trkpt><trkpt lat="46.1667464" lon="13.5997065"><ele>426.0</ele><time>2026-03-22T11:25:27.327Z</time></trkpt><trkpt lat="46.1666798" lon="13.5996784"><ele>426.0</ele><time>2026-03-22T11:25:28.296Z</time></trkpt><trkpt lat="46.1665475" lon="13.5996513"><ele>426.0</ele><time>2026-03-22T11:25:30.318Z</time></trkpt><trkpt lat="46.1664615" lon="13.5996493"><ele>426.0</ele><time>2026-03-22T11:25:31.307Z</time></trkpt><trkpt lat="46.166373" lon="13.5996248"><ele>426.0</ele><time>2026-03-22T11:25:32.333Z</time></trkpt><trkpt lat="46.1662689" lon="13.5995918"><ele>429.5</ele><time>2026-03-22T11:25:33.308Z</time></trkpt><trkpt lat="46.1661579" lon="13.5995478"><ele>433.0</ele><time>2026-03-22T11:25:34.302Z</time></trkpt><trkpt lat="46.1660474" lon="13.599506"><ele>436.5</ele><time>2026-03-22T11:25:35.3Z</time></trkpt><trkpt lat="46.165929" lon="13.599496"><ele>440.0</ele><time>2026-03-22T11:25:36.3Z</time></trkpt><trkpt lat="46.1658114" lon="13.5994941"><ele>440.0</ele><time>2026-03-22T11:25:37.303Z</time></trkpt><trkpt lat="46.1657045" lon="13.599481"><ele>440.0</ele><time>2026-03-22T11:25:38.308Z</time></trkpt><trkpt lat="46.1656067" lon="13.5994678"><ele>440.0</ele><time>2026-03-22T11:25:39.307Z</time></trkpt><trkpt lat="46.1655158" lon="13.5994393"><ele>440.0</ele><time>2026-03-22T11:25:40.311Z</time></trkpt><trkpt lat="46.1654315" lon="13.5993771"><ele>440.0</ele><time>2026-03-22T11:25:41.322Z</time></trkpt><trkpt lat="46.1653498" lon="13.5992934"><ele>436.4</ele><time>2026-03-22T11:25:42.307Z</time></trkpt><trkpt lat="46.1652683" lon="13.599213"><ele>432.8</ele><time>2026-03-22T11:25:43.296Z</time></trkpt><trkpt lat="46.1651803" lon="13.599152"><ele>429.20000000000005</ele><time>2026-03-22T11:25:44.292Z</time></trkpt><trkpt lat="46.1650772" lon="13.5991161"><ele>425.6</ele><time>2026-03-22T11:25:45.305Z</time></trkpt><trkpt lat="46.1649727" lon="13.5990981"><ele>422.0</ele><time>2026-03-22T11:25:46.31Z</time></trkpt><trkpt lat="46.1648681" lon="13.5991119"><ele>419.3333333333333</ele><time>2026-03-22T11:25:47.299Z</time></trkpt><trkpt lat="46.1647671" lon="13.5991535"><ele>416.66666666666663</ele><time>2026-03-22T11:25:48.324Z</time></trkpt><trkpt lat="46.1646706" lon="13.5991938"><ele>414.0</ele><time>2026-03-22T11:25:49.298Z</time></trkpt><trkpt lat="46.1645932" lon="13.5992166"><ele>411.33333333333337</ele><time>2026-03-22T11:25:50.297Z</time></trkpt><trkpt lat="46.1645266" lon="13.5992219"><ele>408.6666666666667</ele><time>2026-03-22T11:25:51.301Z</time></trkpt><trkpt lat="46.1644601" lon="13.5992174"><ele>406.0</ele><time>2026-03-22T11:25:52.302Z</time></trkpt><trkpt lat="46.1643916" lon="13.5992013"><ele>406.0</ele><time>2026-03-22T11:25:53.297Z</time></trkpt><trkpt lat="46.1643233" lon="13.5991459"><ele>406.0</ele><time>2026-03-22T11:25:54.289Z</time></trkpt><trkpt lat="46.1642558" lon="13.5990715"><ele>406.0</ele><time>2026-03-22T11:25:55.3Z</time></trkpt><trkpt lat="46.1641684" lon="13.5990121"><ele>406.0</ele><time>2026-03-22T11:25:56.293Z</time></trkpt><trkpt lat="46.1640813" lon="13.5989235"><ele>406.0</ele><time>2026-03-22T11:25:57.308Z</time></trkpt><trkpt lat="46.1639891" lon="13.5988293"><ele>404.0</ele><time>2026-03-22T11:25:58.297Z</time></trkpt><trkpt lat="46.163897" lon="13.5987339"><ele>402.0</ele><time>2026-03-22T11:25:59.297Z</time></trkpt><trkpt lat="46.1638121" lon="13.5986213"><ele>400.0</ele><time>2026-03-22T11:26:00.297Z</time></trkpt><trkpt lat="46.1637258" lon="13.5985155"><ele>398.0</ele><time>2026-03-22T11:26:01.318Z</time></trkpt><trkpt lat="46.1636386" lon="13.5984273"><ele>396.0</ele><time>2026-03-22T11:26:02.289Z</time></trkpt><trkpt lat="46.1635586" lon="13.5983591"><ele>396.0</ele><time>2026-03-22T11:26:03.286Z</time></trkpt><trkpt lat="46.163485" lon="13.5982938"><ele>396.0</ele><time>2026-03-22T11:26:04.303Z</time></trkpt><trkpt lat="46.1634215" lon="13.5982071"><ele>396.0</ele><time>2026-03-22T11:26:05.293Z</time></trkpt><trkpt lat="46.1633706" lon="13.5981001"><ele>396.0</ele><time>2026-03-22T11:26:06.309Z</time></trkpt><trkpt lat="46.1633445" lon="13.5979683"><ele>396.0</ele><time>2026-03-22T11:26:07.32Z</time></trkpt><trkpt lat="46.1633394" lon="13.5978323"><ele>396.20000000000005</ele><time>2026-03-22T11:26:08.311Z</time></trkpt><trkpt lat="46.1633367" lon="13.5976958"><ele>396.40000000000003</ele><time>2026-03-22T11:26:09.298Z</time></trkpt><trkpt lat="46.1633383" lon="13.5975526"><ele>396.6</ele><time>2026-03-22T11:26:10.304Z</time></trkpt><trkpt lat="46.1633749" lon="13.5974165"><ele>396.8</ele><time>2026-03-22T11:26:11.305Z</time></trkpt><trkpt lat="46.1634045" lon="13.597274"><ele>397.0</ele><time>2026-03-22T11:26:12.306Z</time></trkpt><trkpt lat="46.1634448" lon="13.59713"><ele>395.6666666666667</ele><time>2026-03-22T11:26:13.3Z</time></trkpt><trkpt lat="46.1634812" lon="13.5969886"><ele>394.33333333333337</ele><time>2026-03-22T11:26:14.293Z</time></trkpt><trkpt lat="46.1635307" lon="13.5968592"><ele>393.0</ele><time>2026-03-22T11:26:15.289Z</time></trkpt><trkpt lat="46.1635461" lon="13.5967387"><ele>391.66666666666663</ele><time>2026-03-22T11:26:16.304Z</time></trkpt><trkpt lat="46.1635548" lon="13.5966432"><ele>390.3333333333333</ele><time>2026-03-22T11:26:17.292Z</time></trkpt><trkpt lat="46.1635417" lon="13.5965308"><ele>389.0</ele><time>2026-03-22T11:26:19.305Z</time></trkpt><trkpt lat="46.1635326" lon="13.5964097"><ele>388.99999999999994</ele><time>2026-03-22T11:26:22.302Z</time></trkpt><trkpt lat="46.1635055" lon="13.5962933"><ele>389.0</ele><time>2026-03-22T11:26:24.295Z</time></trkpt><trkpt lat="46.1635043" lon="13.5961758"><ele>389.0</ele><time>2026-03-22T11:26:26.292Z</time></trkpt><trkpt lat="46.1634349" lon="13.5961278"><ele>389.0</ele><time>2026-03-22T11:26:29.297Z</time></trkpt><trkpt lat="46.1633701" lon="13.5961971"><ele>388.99999999999994</ele><time>2026-03-22T11:26:31.307Z</time></trkpt><trkpt lat="46.1633914" lon="13.5962853"><ele>389.0</ele><time>2026-03-22T11:26:32.287Z</time></trkpt><trkpt lat="46.1633984" lon="13.5963966"><ele>388.99999999999994</ele><time>2026-03-22T11:26:33.301Z</time></trkpt><trkpt lat="46.1634049" lon="13.5965042"><ele>389.0</ele><time>2026-03-22T11:26:34.301Z</time></trkpt><trkpt lat="46.1633997" lon="13.5966087"><ele>389.0</ele><time>2026-03-22T11:26:35.297Z</time></trkpt><trkpt lat="46.1633825" lon="13.5967267"><ele>389.0</ele><time>2026-03-22T11:26:36.3Z</time></trkpt><trkpt lat="46.1633205" lon="13.5968554"><ele>388.99999999999994</ele><time>2026-03-22T11:26:37.298Z</time></trkpt><trkpt lat="46.1632643" lon="13.5969647"><ele>389.0</ele><time>2026-03-22T11:26:38.299Z</time></trkpt><trkpt lat="46.1632016" lon="13.5970662"><ele>381.79999999999995</ele><time>2026-03-22T11:26:39.293Z</time></trkpt><trkpt lat="46.1631278" lon="13.5971835"><ele>374.59999999999997</ele><time>2026-03-22T11:26:40.29Z</time></trkpt><trkpt lat="46.1630786" lon="13.5973141"><ele>367.4</ele><time>2026-03-22T11:26:41.304Z</time></trkpt><trkpt lat="46.1630268" lon="13.5974315"><ele>360.2</ele><time>2026-03-22T11:26:42.297Z</time></trkpt><trkpt lat="46.1629854" lon="13.5975599"><ele>353.0</ele><time>2026-03-22T11:26:43.298Z</time></trkpt><trkpt lat="46.1629232" lon="13.5976947"><ele>353.0</ele><time>2026-03-22T11:26:44.309Z</time></trkpt><trkpt lat="46.1628979" lon="13.5978137"><ele>353.0</ele><time>2026-03-22T11:26:45.299Z</time></trkpt><trkpt lat="46.1628879" lon="13.597958"><ele>353.0</ele><time>2026-03-22T11:26:47.306Z</time></trkpt><trkpt lat="46.1629172" lon="13.5981263"><ele>353.0</ele><time>2026-03-22T11:26:49.302Z</time></trkpt><trkpt lat="46.1628428" lon="13.5981349"><ele>353.0</ele><time>2026-03-22T11:26:52.305Z</time></trkpt><trkpt lat="46.1628389" lon="13.5979219"><ele>353.0</ele><time>2026-03-22T11:26:54.307Z</time></trkpt><trkpt lat="46.1628616" lon="13.5977684"><ele>353.0</ele><time>2026-03-22T11:26:55.306Z</time></trkpt><trkpt lat="46.1628958" lon="13.5976072"><ele>353.0</ele><time>2026-03-22T11:26:56.299Z</time></trkpt><trkpt lat="46.162919" lon="13.5974491"><ele>353.0</ele><time>2026-03-22T11:26:57.296Z</time></trkpt><trkpt lat="46.1629506" lon="13.5972937"><ele>353.0</ele><time>2026-03-22T11:26:58.307Z</time></trkpt><trkpt lat="46.1629843" lon="13.5971585"><ele>353.0</ele><time>2026-03-22T11:26:59.303Z</time></trkpt><trkpt lat="46.1629976" lon="13.5970186"><ele>353.0</ele><time>2026-03-22T11:27:00.295Z</time></trkpt><trkpt lat="46.1629938" lon="13.5968905"><ele>353.0</ele><time>2026-03-22T11:27:01.303Z</time></trkpt><trkpt lat="46.1629608" lon="13.5967622"><ele>353.0</ele><time>2026-03-22T11:27:02.305Z</time></trkpt><trkpt lat="46.1629331" lon="13.5966484"><ele>354.5</ele><time>2026-03-22T11:27:03.295Z</time></trkpt><trkpt lat="46.162872" lon="13.5965378"><ele>356.0</ele><time>2026-03-22T11:27:04.298Z</time></trkpt><trkpt lat="46.16281" lon="13.5964725"><ele>357.5</ele><time>2026-03-22T11:27:05.305Z</time></trkpt><trkpt lat="46.1627358" lon="13.5964496"><ele>359.0</ele><time>2026-03-22T11:27:06.298Z</time></trkpt><trkpt lat="46.1626647" lon="13.5964702"><ele>360.5</ele><time>2026-03-22T11:27:07.299Z</time></trkpt><trkpt lat="46.1625876" lon="13.5965345"><ele>362.0</ele><time>2026-03-22T11:27:08.293Z</time></trkpt><trkpt lat="46.1624954" lon="13.5966073"><ele>362.0</ele><time>2026-03-22T11:27:09.297Z</time></trkpt><trkpt lat="46.1623912" lon="13.5966911"><ele>362.0</ele><time>2026-03-22T11:27:10.299Z</time></trkpt><trkpt lat="46.162284" lon="13.596776"><ele>362.0</ele><time>2026-03-22T11:27:11.307Z</time></trkpt><trkpt lat="46.1621745" lon="13.5968492"><ele>362.0</ele><time>2026-03-22T11:27:12.305Z</time></trkpt><trkpt lat="46.1620715" lon="13.596917"><ele>360.8</ele><time>2026-03-22T11:27:13.307Z</time></trkpt><trkpt lat="46.1619755" lon="13.5969734"><ele>359.6</ele><time>2026-03-22T11:27:14.301Z</time></trkpt><trkpt lat="46.1618794" lon="13.5970128"><ele>358.40000000000003</ele><time>2026-03-22T11:27:15.308Z</time></trkpt><trkpt lat="46.1617815" lon="13.5970302"><ele>357.20000000000005</ele><time>2026-03-22T11:27:16.302Z</time></trkpt><trkpt lat="46.1616827" lon="13.5970411"><ele>356.0</ele><time>2026-03-22T11:27:17.309Z</time></trkpt><trkpt lat="46.1615864" lon="13.5970494"><ele>353.33333333333337</ele><time>2026-03-22T11:27:18.329Z</time></trkpt><trkpt lat="46.1614968" lon="13.59705"><ele>350.6666666666667</ele><time>2026-03-22T11:27:19.306Z</time></trkpt><trkpt lat="46.161416" lon="13.5970397"><ele>348.0</ele><time>2026-03-22T11:27:20.303Z</time></trkpt><trkpt lat="46.1613459" lon="13.5970054"><ele>345.3333333333333</ele><time>2026-03-22T11:27:21.296Z</time></trkpt><trkpt lat="46.1612798" lon="13.5969628"><ele>342.66666666666663</ele><time>2026-03-22T11:27:22.296Z</time></trkpt><trkpt lat="46.1612145" lon="13.5969006"><ele>340.0</ele><time>2026-03-22T11:27:23.3Z</time></trkpt><trkpt lat="46.1611452" lon="13.5968403"><ele>340.0</ele><time>2026-03-22T11:27:24.3Z</time></trkpt><trkpt lat="46.1610851" lon="13.5967663"><ele>340.0</ele><time>2026-03-22T11:27:25.303Z</time></trkpt><trkpt lat="46.1610249" lon="13.5966924"><ele>340.0</ele><time>2026-03-22T11:27:26.296Z</time></trkpt><trkpt lat="46.1609682" lon="13.596612"><ele>340.0</ele><time>2026-03-22T11:27:27.304Z</time></trkpt><trkpt lat="46.1609214" lon="13.596535"><ele>340.0</ele><time>2026-03-22T11:27:28.29Z</time></trkpt><trkpt lat="46.1608658" lon="13.5963856"><ele>340.0</ele><time>2026-03-22T11:27:30.298Z</time></trkpt><trkpt lat="46.160865" lon="13.5962705"><ele>340.0</ele><time>2026-03-22T11:27:32.295Z</time></trkpt><trkpt lat="46.1608909" lon="13.5961805"><ele>340.0</ele><time>2026-03-22T11:27:34.308Z</time></trkpt><trkpt lat="46.1609333" lon="13.5960353"><ele>340.0</ele><time>2026-03-22T11:27:36.301Z</time></trkpt><trkpt lat="46.1609481" lon="13.5959372"><ele>340.0</ele><time>2026-03-22T11:27:37.308Z</time></trkpt><trkpt lat="46.1608272" lon="13.5957993"><ele>340.0</ele><time>2026-03-22T11:27:39.313Z</time></trkpt><trkpt lat="46.1606879" lon="13.5957719"><ele>336.75</ele><time>2026-03-22T11:27:40.302Z</time></trkpt><trkpt lat="46.160548" lon="13.5957258"><ele>333.5</ele><time>2026-03-22T11:27:41.304Z</time></trkpt><trkpt lat="46.160418" lon="13.5956902"><ele>330.25</ele><time>2026-03-22T11:27:42.301Z</time></trkpt><trkpt lat="46.1602758" lon="13.5956599"><ele>327.0</ele><time>2026-03-22T11:27:43.327Z</time></trkpt><trkpt lat="46.1601537" lon="13.5956085"><ele>327.0</ele><time>2026-03-22T11:27:44.303Z</time></trkpt><trkpt lat="46.1600324" lon="13.5955596"><ele>327.0</ele><time>2026-03-22T11:27:45.298Z</time></trkpt><trkpt lat="46.1599218" lon="13.5955242"><ele>327.0</ele><time>2026-03-22T11:27:46.302Z</time></trkpt><trkpt lat="46.1598241" lon="13.5954839"><ele>327.0</ele><time>2026-03-22T11:27:47.301Z</time></trkpt><trkpt lat="46.1597378" lon="13.5954338"><ele>327.0</ele><time>2026-03-22T11:27:48.3Z</time></trkpt><trkpt lat="46.1596706" lon="13.5953585"><ele>324.0</ele><time>2026-03-22T11:27:49.318Z</time></trkpt><trkpt lat="46.1596231" lon="13.5952691"><ele>321.0</ele><time>2026-03-22T11:27:50.296Z</time></trkpt><trkpt lat="46.159595" lon="13.5951634"><ele>318.0</ele><time>2026-03-22T11:27:51.292Z</time></trkpt><trkpt lat="46.1595996" lon="13.5950505"><ele>315.0</ele><time>2026-03-22T11:27:52.291Z</time></trkpt><trkpt lat="46.1595962" lon="13.5949428"><ele>312.0</ele><time>2026-03-22T11:27:53.299Z</time></trkpt><trkpt lat="46.1596299" lon="13.5948313"><ele>309.0</ele><time>2026-03-22T11:27:54.306Z</time></trkpt><trkpt lat="46.1596459" lon="13.594718"><ele>309.0</ele><time>2026-03-22T11:27:55.311Z</time></trkpt><trkpt lat="46.1596156" lon="13.5946083"><ele>309.0</ele><time>2026-03-22T11:27:56.301Z</time></trkpt><trkpt lat="46.159544" lon="13.594527"><ele>309.0</ele><time>2026-03-22T11:27:57.305Z</time></trkpt><trkpt lat="46.1594844" lon="13.594454"><ele>309.0</ele><time>2026-03-22T11:27:58.302Z</time></trkpt><trkpt lat="46.159407" lon="13.5944321"><ele>309.0</ele><time>2026-03-22T11:27:59.309Z</time></trkpt><trkpt lat="46.1593211" lon="13.5944497"><ele>309.0</ele><time>2026-03-22T11:28:00.302Z</time></trkpt><trkpt lat="46.159229" lon="13.5944278"><ele>307.2</ele><time>2026-03-22T11:28:01.297Z</time></trkpt><trkpt lat="46.1591296" lon="13.5944485"><ele>305.4</ele><time>2026-03-22T11:28:02.296Z</time></trkpt><trkpt lat="46.1590367" lon="13.5944539"><ele>303.6</ele><time>2026-03-22T11:28:03.297Z</time></trkpt><trkpt lat="46.1589462" lon="13.5944196"><ele>301.8</ele><time>2026-03-22T11:28:04.3Z</time></trkpt><trkpt lat="46.158864" lon="13.5943459"><ele>300.0</ele><time>2026-03-22T11:28:05.31Z</time></trkpt><trkpt lat="46.1587739" lon="13.5942643"><ele>300.0</ele><time>2026-03-22T11:28:06.307Z</time></trkpt><trkpt lat="46.1586785" lon="13.5941705"><ele>300.0</ele><time>2026-03-22T11:28:07.317Z</time></trkpt><trkpt lat="46.1585812" lon="13.5940887"><ele>300.0</ele><time>2026-03-22T11:28:08.301Z</time></trkpt><trkpt lat="46.1584876" lon="13.5940171"><ele>300.0</ele><time>2026-03-22T11:28:09.3Z</time></trkpt><trkpt lat="46.1584044" lon="13.5939494"><ele>300.0</ele><time>2026-03-22T11:28:10.286Z</time></trkpt><trkpt lat="46.1583286" lon="13.5938775"><ele>300.0</ele><time>2026-03-22T11:28:11.305Z</time></trkpt><trkpt lat="46.1582656" lon="13.5937779"><ele>300.0</ele><time>2026-03-22T11:28:12.303Z</time></trkpt><trkpt lat="46.158199" lon="13.5936991"><ele>300.0</ele><time>2026-03-22T11:28:13.299Z</time></trkpt><trkpt lat="46.1581467" lon="13.5936253"><ele>300.0</ele><time>2026-03-22T11:28:14.291Z</time></trkpt><trkpt lat="46.1580628" lon="13.5935761"><ele>300.0</ele><time>2026-03-22T11:28:16.285Z</time></trkpt><trkpt lat="46.1581004" lon="13.5936733"><ele>300.0</ele><time>2026-03-22T11:28:20.298Z</time></trkpt><trkpt lat="46.1582253" lon="13.593822"><ele>300.0</ele><time>2026-03-22T11:28:22.304Z</time></trkpt><trkpt lat="46.1583345" lon="13.5939345"><ele>300.0</ele><time>2026-03-22T11:28:23.312Z</time></trkpt><trkpt lat="46.1584137" lon="13.5940705"><ele>300.0</ele><time>2026-03-22T11:28:24.296Z</time></trkpt><trkpt lat="46.1584896" lon="13.5941686"><ele>300.0</ele><time>2026-03-22T11:28:25.303Z</time></trkpt><trkpt lat="46.1585593" lon="13.5942631"><ele>300.0</ele><time>2026-03-22T11:28:26.337Z</time></trkpt><trkpt lat="46.1586208" lon="13.594368"><ele>300.0</ele><time>2026-03-22T11:28:27.303Z</time></trkpt><trkpt lat="46.1586754" lon="13.59446"><ele>300.0</ele><time>2026-03-22T11:28:28.298Z</time></trkpt><trkpt lat="46.1586995" lon="13.5945807"><ele>300.0</ele><time>2026-03-22T11:28:29.311Z</time></trkpt><trkpt lat="46.1587587" lon="13.5946556"><ele>300.0</ele><time>2026-03-22T11:28:30.29Z</time></trkpt><trkpt lat="46.1588014" lon="13.5947287"><ele>300.0</ele><time>2026-03-22T11:28:31.32Z</time></trkpt><trkpt lat="46.1588557" lon="13.5948437"><ele>296.2</ele><time>2026-03-22T11:28:33.305Z</time></trkpt><trkpt lat="46.1588039" lon="13.5949138"><ele>292.4</ele><time>2026-03-22T11:28:37.302Z</time></trkpt><trkpt lat="46.1587139" lon="13.5948144"><ele>288.6</ele><time>2026-03-22T11:28:39.298Z</time></trkpt><trkpt lat="46.1586445" lon="13.5947306"><ele>284.8</ele><time>2026-03-22T11:28:40.29Z</time></trkpt><trkpt lat="46.158552" lon="13.594645"><ele>281.0</ele><time>2026-03-22T11:28:41.306Z</time></trkpt><trkpt lat="46.1584364" lon="13.5945607"><ele>279.75</ele><time>2026-03-22T11:28:42.302Z</time></trkpt><trkpt lat="46.1583388" lon="13.5944336"><ele>278.5</ele><time>2026-03-22T11:28:43.292Z</time></trkpt><trkpt lat="46.1582364" lon="13.5943116"><ele>277.25</ele><time>2026-03-22T11:28:44.306Z</time></trkpt><trkpt lat="46.1581233" lon="13.5942157"><ele>276.0</ele><time>2026-03-22T11:28:45.307Z</time></trkpt><trkpt lat="46.1580142" lon="13.5941172"><ele>276.0</ele><time>2026-03-22T11:28:46.299Z</time></trkpt><trkpt lat="46.1578994" lon="13.5940493"><ele>276.0</ele><time>2026-03-22T11:28:47.294Z</time></trkpt><trkpt lat="46.1577923" lon="13.5940205"><ele>276.0</ele><time>2026-03-22T11:28:48.292Z</time></trkpt><trkpt lat="46.1576818" lon="13.5939963"><ele>276.0</ele><time>2026-03-22T11:28:49.297Z</time></trkpt><trkpt lat="46.1575713" lon="13.5939655"><ele>276.0</ele><time>2026-03-22T11:28:50.319Z</time></trkpt><trkpt lat="46.15747" lon="13.5939132"><ele>276.0</ele><time>2026-03-22T11:28:51.301Z</time></trkpt><trkpt lat="46.1573872" lon="13.5938746"><ele>276.0</ele><time>2026-03-22T11:28:52.304Z</time></trkpt><trkpt lat="46.157324" lon="13.593827"><ele>276.0</ele><time>2026-03-22T11:28:53.304Z</time></trkpt><trkpt lat="46.1572238" lon="13.5937676"><ele>276.0</ele><time>2026-03-22T11:28:55.288Z</time></trkpt><trkpt lat="46.1571311" lon="13.5936752"><ele>275.57142857142856</ele><time>2026-03-22T11:28:57.298Z</time></trkpt><trkpt lat="46.1570691" lon="13.5936244"><ele>275.14285714285717</ele><time>2026-03-22T11:28:58.294Z</time></trkpt><trkpt lat="46.1570031" lon="13.5936004"><ele>274.7142857142857</ele><time>2026-03-22T11:28:59.312Z</time></trkpt><trkpt lat="46.1569507" lon="13.5935393"><ele>274.2857142857143</ele><time>2026-03-22T11:29:00.297Z</time></trkpt><trkpt lat="46.156889" lon="13.593484"><ele>273.8571428571429</ele><time>2026-03-22T11:29:01.297Z</time></trkpt><trkpt lat="46.1568249" lon="13.5934544"><ele>273.42857142857144</ele><time>2026-03-22T11:29:02.292Z</time></trkpt><trkpt lat="46.1567576" lon="13.5934303"><ele>273.0</ele><time>2026-03-22T11:29:03.298Z</time></trkpt><trkpt lat="46.1566937" lon="13.5933905"><ele>273.0</ele><time>2026-03-22T11:29:04.291Z</time></trkpt><trkpt lat="46.1566294" lon="13.5933612"><ele>273.0</ele><time>2026-03-22T11:29:05.308Z</time></trkpt><trkpt lat="46.1565266" lon="13.5933078"><ele>273.0</ele><time>2026-03-22T11:29:07.296Z</time></trkpt><trkpt lat="46.1564476" lon="13.5933099"><ele>273.0</ele><time>2026-03-22T11:29:09.292Z</time></trkpt><trkpt lat="46.1563554" lon="13.5932805"><ele>273.0</ele><time>2026-03-22T11:29:11.299Z</time></trkpt><trkpt lat="46.1562802" lon="13.5932495"><ele>273.0</ele><time>2026-03-22T11:29:13.302Z</time></trkpt><trkpt lat="46.1562007" lon="13.5932585"><ele>272.0</ele><time>2026-03-22T11:29:16.295Z</time></trkpt><trkpt lat="46.1561422" lon="13.5933156"><ele>271.0</ele><time>2026-03-22T11:29:19.303Z</time></trkpt><trkpt lat="46.1560892" lon="13.5934152"><ele>270.0</ele><time>2026-03-22T11:29:22.306Z</time></trkpt><trkpt lat="46.1560363" lon="13.5934884"><ele>269.0</ele><time>2026-03-22T11:29:27.304Z</time></trkpt><trkpt lat="46.1559817" lon="13.5935618"><ele>268.0</ele><time>2026-03-22T11:29:42.332Z</time></trkpt><trkpt lat="46.1560081" lon="13.5936705"><ele>267.0</ele><time>2026-03-22T11:29:44.301Z</time></trkpt><trkpt lat="46.1560468" lon="13.5937595"><ele>267.00000000000006</ele><time>2026-03-22T11:29:46.297Z</time></trkpt><trkpt lat="46.156092" lon="13.5938568"><ele>267.0</ele><time>2026-03-22T11:29:48.32Z</time></trkpt><trkpt lat="46.1561386" lon="13.5939273"><ele>267.0</ele><time>2026-03-22T11:29:50.299Z</time></trkpt><trkpt lat="46.156157" lon="13.5940162"><ele>267.0</ele><time>2026-03-22T11:29:53.302Z</time></trkpt><trkpt lat="46.1561967" lon="13.5941252"><ele>267.0</ele><time>2026-03-22T11:29:56.301Z</time></trkpt><trkpt lat="46.1562209" lon="13.5942477"><ele>267.00000000000006</ele><time>2026-03-22T11:29:59.315Z</time></trkpt><trkpt lat="46.156204" lon="13.5943353"><ele>267.0</ele><time>2026-03-22T11:30:01.305Z</time></trkpt><trkpt lat="46.1561785" lon="13.5944571"><ele>267.8571428571429</ele><time>2026-03-22T11:30:04.293Z</time></trkpt><trkpt lat="46.1561494" lon="13.5945499"><ele>268.7142857142857</ele><time>2026-03-22T11:30:06.3Z</time></trkpt><trkpt lat="46.1561108" lon="13.5946283"><ele>269.57142857142856</ele><time>2026-03-22T11:30:08.295Z</time></trkpt><trkpt lat="46.1560631" lon="13.5946931"><ele>270.42857142857144</ele><time>2026-03-22T11:30:10.303Z</time></trkpt><trkpt lat="46.1560236" lon="13.5947639"><ele>271.2857142857143</ele><time>2026-03-22T11:30:12.296Z</time></trkpt><trkpt lat="46.1560182" lon="13.5948735"><ele>272.14285714285717</ele><time>2026-03-22T11:30:14.291Z</time></trkpt><trkpt lat="46.1559819" lon="13.5949855"><ele>273.0</ele><time>2026-03-22T11:30:16.299Z</time></trkpt><trkpt lat="46.1559462" lon="13.5950736"><ele>273.0</ele><time>2026-03-22T11:30:18.296Z</time></trkpt><trkpt lat="46.1559347" lon="13.5951879"><ele>273.0</ele><time>2026-03-22T11:30:21.291Z</time></trkpt><trkpt lat="46.1558855" lon="13.5953022"><ele>273.0</ele><time>2026-03-22T11:30:55.311Z</time></trkpt><trkpt lat="46.1558658" lon="13.5953953"><ele>273.0</ele><time>2026-03-22T11:31:02.313Z</time></trkpt><trkpt lat="46.155826" lon="13.5955059"><ele>273.0</ele><time>2026-03-22T11:31:05.322Z</time></trkpt><trkpt lat="46.1558289" lon="13.5955987"><ele>273.0</ele><time>2026-03-22T11:31:07.3Z</time></trkpt><trkpt lat="46.155789" lon="13.5956751"><ele>273.0</ele><time>2026-03-22T11:31:10.294Z</time></trkpt><trkpt lat="46.1558359" lon="13.5957379"><ele>273.0</ele><time>2026-03-22T11:31:35.3Z</time></trkpt><trkpt lat="46.1557789" lon="13.5956738"><ele>273.0</ele><time>2026-03-22T11:31:39.307Z</time></trkpt><trkpt lat="46.1557732" lon="13.5955488"><ele>273.0</ele><time>2026-03-22T11:31:42.305Z</time></trkpt><trkpt lat="46.155788" lon="13.5954448"><ele>273.0</ele><time>2026-03-22T11:31:46.293Z</time></trkpt><trkpt lat="46.1558602" lon="13.5952909"><ele>273.0</ele><time>2026-03-22T11:32:22.314Z</time></trkpt><trkpt lat="46.1559078" lon="13.595185"><ele>273.0</ele><time>2026-03-22T11:32:40.302Z</time></trkpt><trkpt lat="46.1558944" lon="13.5952752"><ele>273.0</ele><time>2026-03-22T11:32:42.311Z</time></trkpt><trkpt lat="46.1558415" lon="13.5953935"><ele>273.0</ele><time>2026-03-22T11:32:54.299Z</time></trkpt><trkpt lat="46.1557645" lon="13.595367"><ele>273.0</ele><time>2026-03-22T11:33:01.311Z</time></trkpt><trkpt lat="46.1557514" lon="13.5956766"><ele>274.5</ele><time>2026-03-22T11:34:32.367Z</time></trkpt><trkpt lat="46.1556879" lon="13.5954253"><ele>276.0</ele><time>2026-03-22T11:34:55.336Z</time></trkpt><trkpt lat="46.1556946" lon="13.5953288"><ele>277.5</ele><time>2026-03-22T11:35:09.315Z</time></trkpt><trkpt lat="46.1557576" lon="13.5955923"><ele>279.0</ele><time>2026-03-22T11:35:13.319Z</time></trkpt><trkpt lat="46.1557847" lon="13.59544"><ele>279.0</ele><time>2026-03-22T11:36:22.118Z</time></trkpt><trkpt lat="46.1558268" lon="13.5953398"><ele>279.0</ele><time>2026-03-22T11:36:29.225Z</time></trkpt><trkpt lat="46.1558773" lon="13.5952408"><ele>273.0</ele><time>2026-03-22T11:36:43.504Z</time></trkpt></trkseg><trkseg><trkpt lat="46.1557898" lon="13.5955272"><ele>279.0</ele><time>2026-03-22T13:43:37.307Z</time></trkpt><trkpt lat="46.1558348" lon="13.5954605"><ele>279.0</ele><time>2026-03-22T13:43:50.332Z</time></trkpt><trkpt lat="46.155867" lon="13.5953743"><ele>279.0</ele><time>2026-03-22T13:44:22.339Z</time></trkpt><trkpt lat="46.1558932" lon="13.5952407"><ele>279.0</ele><time>2026-03-22T13:44:24.333Z</time></trkpt><trkpt lat="46.1559379" lon="13.5951191"><ele>279.0</ele><time>2026-03-22T13:44:26.341Z</time></trkpt><trkpt lat="46.1559593" lon="13.5950038"><ele>279.0</ele><time>2026-03-22T13:44:28.344Z</time></trkpt><trkpt lat="46.155991" lon="13.5948841"><ele>277.8</ele><time>2026-03-22T13:44:31.338Z</time></trkpt><trkpt lat="46.1560463" lon="13.5947365"><ele>276.59999999999997</ele><time>2026-03-22T13:44:33.342Z</time></trkpt><trkpt lat="46.1561006" lon="13.5945843"><ele>275.4</ele><time>2026-03-22T13:44:35.335Z</time></trkpt><trkpt lat="46.1561162" lon="13.5944955"><ele>274.2</ele><time>2026-03-22T13:44:36.342Z</time></trkpt><trkpt lat="46.1561324" lon="13.5943717"><ele>273.0</ele><time>2026-03-22T13:44:38.36Z</time></trkpt><trkpt lat="46.1561291" lon="13.5942414"><ele>271.8</ele><time>2026-03-22T13:44:40.337Z</time></trkpt><trkpt lat="46.1561102" lon="13.5941172"><ele>270.6</ele><time>2026-03-22T13:44:42.336Z</time></trkpt><trkpt lat="46.1560794" lon="13.5939836"><ele>269.4</ele><time>2026-03-22T13:44:44.343Z</time></trkpt><trkpt lat="46.1560385" lon="13.5938231"><ele>268.2</ele><time>2026-03-22T13:44:46.351Z</time></trkpt><trkpt lat="46.156019" lon="13.5936736"><ele>267.0</ele><time>2026-03-22T13:44:48.353Z</time></trkpt><trkpt lat="46.1559848" lon="13.593505"><ele>266.5</ele><time>2026-03-22T13:44:50.351Z</time></trkpt><trkpt lat="46.1559615" lon="13.5934023"><ele>266.0</ele><time>2026-03-22T13:44:51.336Z</time></trkpt><trkpt lat="46.1559353" lon="13.5933078"><ele>265.5</ele><time>2026-03-22T13:44:52.342Z</time></trkpt><trkpt lat="46.1559139" lon="13.5932017"><ele>265.0</ele><time>2026-03-22T13:44:53.335Z</time></trkpt><trkpt lat="46.1559022" lon="13.5930704"><ele>264.5</ele><time>2026-03-22T13:44:54.339Z</time></trkpt><trkpt lat="46.1559091" lon="13.5929361"><ele>264.0</ele><time>2026-03-22T13:44:55.347Z</time></trkpt><trkpt lat="46.155917" lon="13.5928129"><ele>264.0</ele><time>2026-03-22T13:44:56.34Z</time></trkpt><trkpt lat="46.1559072" lon="13.5926889"><ele>264.0</ele><time>2026-03-22T13:44:57.337Z</time></trkpt><trkpt lat="46.1558918" lon="13.5925739"><ele>264.0</ele><time>2026-03-22T13:44:58.342Z</time></trkpt><trkpt lat="46.1558694" lon="13.5924619"><ele>264.0</ele><time>2026-03-22T13:44:59.349Z</time></trkpt><trkpt lat="46.1558376" lon="13.5923603"><ele>264.0</ele><time>2026-03-22T13:45:00.335Z</time></trkpt><trkpt lat="46.155807" lon="13.5922729"><ele>264.0</ele><time>2026-03-22T13:45:01.337Z</time></trkpt><trkpt lat="46.1557769" lon="13.5921919"><ele>264.0</ele><time>2026-03-22T13:45:02.339Z</time></trkpt><trkpt lat="46.155746" lon="13.5921095"><ele>264.0</ele><time>2026-03-22T13:45:03.349Z</time></trkpt><trkpt lat="46.1557268" lon="13.5920172"><ele>264.0</ele><time>2026-03-22T13:45:04.345Z</time></trkpt><trkpt lat="46.1557053" lon="13.5919162"><ele>264.0</ele><time>2026-03-22T13:45:05.348Z</time></trkpt><trkpt lat="46.1556885" lon="13.5917998"><ele>264.0</ele><time>2026-03-22T13:45:06.346Z</time></trkpt><trkpt lat="46.1556694" lon="13.5916736"><ele>264.0</ele><time>2026-03-22T13:45:07.34Z</time></trkpt><trkpt lat="46.1556492" lon="13.5915387"><ele>262.59999999999997</ele><time>2026-03-22T13:45:08.359Z</time></trkpt><trkpt lat="46.1556387" lon="13.5913902"><ele>261.2</ele><time>2026-03-22T13:45:09.349Z</time></trkpt><trkpt lat="46.1556252" lon="13.5912371"><ele>259.79999999999995</ele><time>2026-03-22T13:45:10.353Z</time></trkpt><trkpt lat="46.1556118" lon="13.5910739"><ele>258.4</ele><time>2026-03-22T13:45:11.345Z</time></trkpt><trkpt lat="46.1556111" lon="13.5909008"><ele>257.0</ele><time>2026-03-22T13:45:12.354Z</time></trkpt><trkpt lat="46.1556065" lon="13.5907311"><ele>256.8</ele><time>2026-03-22T13:45:13.353Z</time></trkpt><trkpt lat="46.1556018" lon="13.5905662"><ele>256.6</ele><time>2026-03-22T13:45:14.354Z</time></trkpt><trkpt lat="46.1555963" lon="13.5904063"><ele>256.40000000000003</ele><time>2026-03-22T13:45:15.341Z</time></trkpt><trkpt lat="46.1555858" lon="13.5902557"><ele>256.2</ele><time>2026-03-22T13:45:16.349Z</time></trkpt><trkpt lat="46.1555741" lon="13.5901194"><ele>256.0</ele><time>2026-03-22T13:45:17.38Z</time></trkpt><trkpt lat="46.1555618" lon="13.5899945"><ele>255.66666666666666</ele><time>2026-03-22T13:45:18.351Z</time></trkpt><trkpt lat="46.1555479" lon="13.5898793"><ele>255.33333333333331</ele><time>2026-03-22T13:45:19.371Z</time></trkpt><trkpt lat="46.1555348" lon="13.5897825"><ele>255.0</ele><time>2026-03-22T13:45:20.363Z</time></trkpt><trkpt lat="46.1555271" lon="13.5896426"><ele>254.66666666666669</ele><time>2026-03-22T13:45:22.349Z</time></trkpt><trkpt lat="46.1555688" lon="13.5895361"><ele>254.33333333333334</ele><time>2026-03-22T13:45:24.346Z</time></trkpt><trkpt lat="46.1556084" lon="13.5894318"><ele>254.0</ele><time>2026-03-22T13:45:26.358Z</time></trkpt><trkpt lat="46.1556495" lon="13.5892847"><ele>255.50000000000003</ele><time>2026-03-22T13:45:28.354Z</time></trkpt><trkpt lat="46.155704" lon="13.589119"><ele>257.0</ele><time>2026-03-22T13:45:30.342Z</time></trkpt><trkpt lat="46.1557349" lon="13.5890333"><ele>258.5</ele><time>2026-03-22T13:45:31.365Z</time></trkpt><trkpt lat="46.1557666" lon="13.5889476"><ele>260.0</ele><time>2026-03-22T13:45:32.354Z</time></trkpt><trkpt lat="46.1557984" lon="13.5888612"><ele>261.5</ele><time>2026-03-22T13:45:33.345Z</time></trkpt><trkpt lat="46.1558328" lon="13.5887745"><ele>263.0</ele><time>2026-03-22T13:45:34.342Z</time></trkpt><trkpt lat="46.1558742" lon="13.5886882"><ele>263.33333333333337</ele><time>2026-03-22T13:45:35.347Z</time></trkpt><trkpt lat="46.1559211" lon="13.5885992"><ele>263.6666666666667</ele><time>2026-03-22T13:45:36.349Z</time></trkpt><trkpt lat="46.1559708" lon="13.5885073"><ele>264.0</ele><time>2026-03-22T13:45:37.353Z</time></trkpt><trkpt lat="46.1560203" lon="13.588412"><ele>264.3333333333333</ele><time>2026-03-22T13:45:38.341Z</time></trkpt><trkpt lat="46.1560705" lon="13.5883176"><ele>264.66666666666663</ele><time>2026-03-22T13:45:39.348Z</time></trkpt><trkpt lat="46.1561196" lon="13.5882256"><ele>265.0</ele><time>2026-03-22T13:45:40.359Z</time></trkpt><trkpt lat="46.1561727" lon="13.5881405"><ele>265.0</ele><time>2026-03-22T13:45:41.35Z</time></trkpt><trkpt lat="46.1562302" lon="13.5880589"><ele>265.0</ele><time>2026-03-22T13:45:42.356Z</time></trkpt><trkpt lat="46.1562916" lon="13.5879801"><ele>265.0</ele><time>2026-03-22T13:45:43.35Z</time></trkpt><trkpt lat="46.1563486" lon="13.5878845"><ele>265.0</ele><time>2026-03-22T13:45:44.364Z</time></trkpt><trkpt lat="46.1564096" lon="13.5877872"><ele>265.0</ele><time>2026-03-22T13:45:45.348Z</time></trkpt><trkpt lat="46.156477" lon="13.5876994"><ele>265.0</ele><time>2026-03-22T13:45:46.356Z</time></trkpt><trkpt lat="46.1565499" lon="13.5876153"><ele>267.6</ele><time>2026-03-22T13:45:47.344Z</time></trkpt><trkpt lat="46.1566228" lon="13.5875329"><ele>270.2</ele><time>2026-03-22T13:45:48.351Z</time></trkpt><trkpt lat="46.1566979" lon="13.5874556"><ele>272.8</ele><time>2026-03-22T13:45:49.336Z</time></trkpt><trkpt lat="46.1567757" lon="13.5873821"><ele>275.4</ele><time>2026-03-22T13:45:50.349Z</time></trkpt><trkpt lat="46.1568582" lon="13.5873053"><ele>278.0</ele><time>2026-03-22T13:45:51.342Z</time></trkpt><trkpt lat="46.15694" lon="13.5872274"><ele>278.0</ele><time>2026-03-22T13:45:52.348Z</time></trkpt><trkpt lat="46.1570183" lon="13.5871453"><ele>278.0</ele><time>2026-03-22T13:45:53.352Z</time></trkpt><trkpt lat="46.157085" lon="13.587052"><ele>278.0</ele><time>2026-03-22T13:45:54.344Z</time></trkpt><trkpt lat="46.1571469" lon="13.5869593"><ele>278.0</ele><time>2026-03-22T13:45:55.353Z</time></trkpt><trkpt lat="46.1572023" lon="13.5868577"><ele>278.0</ele><time>2026-03-22T13:45:56.361Z</time></trkpt><trkpt lat="46.1572421" lon="13.5867413"><ele>276.5</ele><time>2026-03-22T13:45:57.348Z</time></trkpt><trkpt lat="46.1572681" lon="13.5866221"><ele>275.0</ele><time>2026-03-22T13:45:58.355Z</time></trkpt><trkpt lat="46.1572731" lon="13.5864922"><ele>273.5</ele><time>2026-03-22T13:45:59.349Z</time></trkpt><trkpt lat="46.1572773" lon="13.5863611"><ele>272.0</ele><time>2026-03-22T13:46:00.349Z</time></trkpt><trkpt lat="46.1572944" lon="13.5862429"><ele>270.5</ele><time>2026-03-22T13:46:01.348Z</time></trkpt><trkpt lat="46.1573171" lon="13.5861471"><ele>269.0</ele><time>2026-03-22T13:46:02.349Z</time></trkpt><trkpt lat="46.1573569" lon="13.5860119"><ele>274.4</ele><time>2026-03-22T13:46:04.344Z</time></trkpt><trkpt lat="46.1574286" lon="13.5859045"><ele>279.79999999999995</ele><time>2026-03-22T13:46:06.362Z</time></trkpt><trkpt lat="46.1575267" lon="13.5857904"><ele>285.20000000000005</ele><time>2026-03-22T13:46:08.344Z</time></trkpt><trkpt lat="46.1575793" lon="13.5857246"><ele>290.6</ele><time>2026-03-22T13:46:09.346Z</time></trkpt><trkpt lat="46.1576354" lon="13.585635"><ele>296.0</ele><time>2026-03-22T13:46:10.348Z</time></trkpt><trkpt lat="46.1576995" lon="13.5855427"><ele>296.0</ele><time>2026-03-22T13:46:11.339Z</time></trkpt><trkpt lat="46.1577581" lon="13.5854632"><ele>296.0</ele><time>2026-03-22T13:46:12.341Z</time></trkpt><trkpt lat="46.1578114" lon="13.585388"><ele>296.0</ele><time>2026-03-22T13:46:13.357Z</time></trkpt><trkpt lat="46.1578406" lon="13.5852343"><ele>296.0</ele><time>2026-03-22T13:46:15.346Z</time></trkpt><trkpt lat="46.1578106" lon="13.5851498"><ele>296.0</ele><time>2026-03-22T13:46:16.343Z</time></trkpt><trkpt lat="46.1577836" lon="13.5850453"><ele>296.0</ele><time>2026-03-22T13:46:18.35Z</time></trkpt><trkpt lat="46.1577805" lon="13.5849176"><ele>296.1666666666667</ele><time>2026-03-22T13:46:20.354Z</time></trkpt><trkpt lat="46.1578049" lon="13.5848244"><ele>296.33333333333337</ele><time>2026-03-22T13:46:22.356Z</time></trkpt><trkpt lat="46.1579046" lon="13.5849609"><ele>296.5</ele><time>2026-03-22T13:46:25.34Z</time></trkpt><trkpt lat="46.1579864" lon="13.5850323"><ele>296.6666666666667</ele><time>2026-03-22T13:46:26.334Z</time></trkpt><trkpt lat="46.1580358" lon="13.5851106"><ele>296.8333333333333</ele><time>2026-03-22T13:46:27.351Z</time></trkpt><trkpt lat="46.1580785" lon="13.5851785"><ele>297.0</ele><time>2026-03-22T13:46:28.346Z</time></trkpt><trkpt lat="46.1581126" lon="13.5852874"><ele>296.8</ele><time>2026-03-22T13:46:29.367Z</time></trkpt><trkpt lat="46.1581394" lon="13.5854388"><ele>296.6</ele><time>2026-03-22T13:46:30.351Z</time></trkpt><trkpt lat="46.1581528" lon="13.5856001"><ele>296.40000000000003</ele><time>2026-03-22T13:46:31.359Z</time></trkpt><trkpt lat="46.1581328" lon="13.5857539"><ele>296.2</ele><time>2026-03-22T13:46:32.355Z</time></trkpt><trkpt lat="46.1581077" lon="13.5858651"><ele>296.0</ele><time>2026-03-22T13:46:33.351Z</time></trkpt><trkpt lat="46.1580912" lon="13.5859607"><ele>296.0</ele><time>2026-03-22T13:46:34.347Z</time></trkpt><trkpt lat="46.1580495" lon="13.5860426"><ele>296.0</ele><time>2026-03-22T13:46:35.355Z</time></trkpt><trkpt lat="46.1580068" lon="13.5861434"><ele>296.0</ele><time>2026-03-22T13:46:36.34Z</time></trkpt><trkpt lat="46.1579698" lon="13.5862306"><ele>296.0</ele><time>2026-03-22T13:46:37.356Z</time></trkpt><trkpt lat="46.1579124" lon="13.5863439"><ele>296.0</ele><time>2026-03-22T13:46:39.347Z</time></trkpt><trkpt lat="46.1578863" lon="13.5864445"><ele>296.0</ele><time>2026-03-22T13:46:42.355Z</time></trkpt><trkpt lat="46.1579494" lon="13.5863161"><ele>296.0</ele><time>2026-03-22T13:46:44.367Z</time></trkpt><trkpt lat="46.1579998" lon="13.5862264"><ele>296.0</ele><time>2026-03-22T13:46:45.354Z</time></trkpt><trkpt lat="46.1580513" lon="13.5861013"><ele>296.0</ele><time>2026-03-22T13:46:46.361Z</time></trkpt><trkpt lat="46.1581272" lon="13.5859743"><ele>296.0</ele><time>2026-03-22T13:46:47.358Z</time></trkpt><trkpt lat="46.1582033" lon="13.585843"><ele>296.0</ele><time>2026-03-22T13:46:48.348Z</time></trkpt><trkpt lat="46.1582865" lon="13.585725"><ele>303.75</ele><time>2026-03-22T13:46:49.348Z</time></trkpt><trkpt lat="46.158364" lon="13.5855962"><ele>311.5</ele><time>2026-03-22T13:46:50.352Z</time></trkpt><trkpt lat="46.1584222" lon="13.5854416"><ele>319.25</ele><time>2026-03-22T13:46:51.358Z</time></trkpt><trkpt lat="46.1584895" lon="13.5853097"><ele>327.0</ele><time>2026-03-22T13:46:52.344Z</time></trkpt><trkpt lat="46.1585414" lon="13.5851799"><ele>327.0</ele><time>2026-03-22T13:46:53.362Z</time></trkpt><trkpt lat="46.1585745" lon="13.5850418"><ele>327.0</ele><time>2026-03-22T13:46:54.352Z</time></trkpt><trkpt lat="46.1585995" lon="13.5849235"><ele>327.0</ele><time>2026-03-22T13:46:55.356Z</time></trkpt><trkpt lat="46.1586073" lon="13.584814"><ele>327.0</ele><time>2026-03-22T13:46:56.341Z</time></trkpt><trkpt lat="46.1585957" lon="13.5847153"><ele>327.0</ele><time>2026-03-22T13:46:57.342Z</time></trkpt><trkpt lat="46.1585387" lon="13.5846073"><ele>327.0</ele><time>2026-03-22T13:46:59.343Z</time></trkpt><trkpt lat="46.158464" lon="13.5845334"><ele>327.0</ele><time>2026-03-22T13:47:02.345Z</time></trkpt><trkpt lat="46.1584594" lon="13.5844348"><ele>327.0</ele><time>2026-03-22T13:47:04.362Z</time></trkpt><trkpt lat="46.1585426" lon="13.5844199"><ele>327.0</ele><time>2026-03-22T13:47:06.359Z</time></trkpt><trkpt lat="46.1585987" lon="13.5844669"><ele>327.0</ele><time>2026-03-22T13:47:07.344Z</time></trkpt><trkpt lat="46.1586712" lon="13.5844978"><ele>327.0</ele><time>2026-03-22T13:47:08.341Z</time></trkpt><trkpt lat="46.1587387" lon="13.5845096"><ele>327.0</ele><time>2026-03-22T13:47:09.346Z</time></trkpt><trkpt lat="46.1588273" lon="13.5846346"><ele>327.0</ele><time>2026-03-22T13:47:11.347Z</time></trkpt><trkpt lat="46.1588619" lon="13.5847138"><ele>327.0</ele><time>2026-03-22T13:47:12.351Z</time></trkpt><trkpt lat="46.1588776" lon="13.5848043"><ele>327.0</ele><time>2026-03-22T13:47:13.352Z</time></trkpt><trkpt lat="46.1588569" lon="13.5849248"><ele>327.0</ele><time>2026-03-22T13:47:14.358Z</time></trkpt><trkpt lat="46.1588507" lon="13.5850614"><ele>327.0</ele><time>2026-03-22T13:47:15.361Z</time></trkpt><trkpt lat="46.1588319" lon="13.5852139"><ele>327.0</ele><time>2026-03-22T13:47:16.35Z</time></trkpt><trkpt lat="46.1588398" lon="13.5853627"><ele>329.5</ele><time>2026-03-22T13:47:17.349Z</time></trkpt><trkpt lat="46.1588212" lon="13.5855348"><ele>332.0</ele><time>2026-03-22T13:47:18.338Z</time></trkpt><trkpt lat="46.1588129" lon="13.5856952"><ele>334.5</ele><time>2026-03-22T13:47:19.353Z</time></trkpt><trkpt lat="46.158778" lon="13.5858811"><ele>337.0</ele><time>2026-03-22T13:47:20.342Z</time></trkpt><trkpt lat="46.1587434" lon="13.5860689"><ele>342.0</ele><time>2026-03-22T13:47:21.361Z</time></trkpt><trkpt lat="46.1586898" lon="13.5862484"><ele>347.0</ele><time>2026-03-22T13:47:22.357Z</time></trkpt><trkpt lat="46.1586423" lon="13.5864299"><ele>352.0</ele><time>2026-03-22T13:47:23.352Z</time></trkpt><trkpt lat="46.1585969" lon="13.5865948"><ele>357.0</ele><time>2026-03-22T13:47:24.351Z</time></trkpt><trkpt lat="46.1585541" lon="13.5867417"><ele>357.0</ele><time>2026-03-22T13:47:25.342Z</time></trkpt><trkpt lat="46.1585111" lon="13.5868786"><ele>357.0</ele><time>2026-03-22T13:47:26.352Z</time></trkpt><trkpt lat="46.1584534" lon="13.5870036"><ele>357.0</ele><time>2026-03-22T13:47:27.352Z</time></trkpt><trkpt lat="46.1583994" lon="13.5871296"><ele>357.0</ele><time>2026-03-22T13:47:28.358Z</time></trkpt><trkpt lat="46.1583539" lon="13.5872623"><ele>357.0</ele><time>2026-03-22T13:47:29.358Z</time></trkpt><trkpt lat="46.1583057" lon="13.5873859"><ele>359.8333333333333</ele><time>2026-03-22T13:47:30.354Z</time></trkpt><trkpt lat="46.1582689" lon="13.5875042"><ele>362.6666666666667</ele><time>2026-03-22T13:47:31.356Z</time></trkpt><trkpt lat="46.1582292" lon="13.5876058"><ele>365.5</ele><time>2026-03-22T13:47:32.366Z</time></trkpt><trkpt lat="46.1581908" lon="13.5877388"><ele>368.33333333333337</ele><time>2026-03-22T13:47:34.358Z</time></trkpt><trkpt lat="46.1582088" lon="13.5878394"><ele>371.1666666666667</ele><time>2026-03-22T13:47:36.347Z</time></trkpt><trkpt lat="46.1582704" lon="13.5878063"><ele>374.0</ele><time>2026-03-22T13:47:38.35Z</time></trkpt><trkpt lat="46.1582964" lon="13.5875989"><ele>374.0</ele><time>2026-03-22T13:47:40.342Z</time></trkpt><trkpt lat="46.1583478" lon="13.5874464"><ele>374.0</ele><time>2026-03-22T13:47:41.369Z</time></trkpt><trkpt lat="46.158419" lon="13.587286"><ele>374.0</ele><time>2026-03-22T13:47:42.346Z</time></trkpt><trkpt lat="46.1585055" lon="13.5871049"><ele>374.0</ele><time>2026-03-22T13:47:43.353Z</time></trkpt><trkpt lat="46.158584" lon="13.586925"><ele>369.75</ele><time>2026-03-22T13:47:44.349Z</time></trkpt><trkpt lat="46.1586698" lon="13.5867579"><ele>365.5</ele><time>2026-03-22T13:47:45.369Z</time></trkpt><trkpt lat="46.1587565" lon="13.586598"><ele>361.25</ele><time>2026-03-22T13:47:46.35Z</time></trkpt><trkpt lat="46.1588526" lon="13.5864462"><ele>357.0</ele><time>2026-03-22T13:47:47.367Z</time></trkpt><trkpt lat="46.1589423" lon="13.586297"><ele>352.0</ele><time>2026-03-22T13:47:48.356Z</time></trkpt><trkpt lat="46.1590316" lon="13.5861582"><ele>347.0</ele><time>2026-03-22T13:47:49.357Z</time></trkpt><trkpt lat="46.1591179" lon="13.5860262"><ele>342.0</ele><time>2026-03-22T13:47:50.353Z</time></trkpt><trkpt lat="46.159194" lon="13.585894"><ele>337.0</ele><time>2026-03-22T13:47:51.357Z</time></trkpt><trkpt lat="46.1592525" lon="13.5857454"><ele>343.8</ele><time>2026-03-22T13:47:52.347Z</time></trkpt><trkpt lat="46.1593226" lon="13.5856003"><ele>350.6</ele><time>2026-03-22T13:47:53.354Z</time></trkpt><trkpt lat="46.159392" lon="13.5854615"><ele>357.40000000000003</ele><time>2026-03-22T13:47:54.343Z</time></trkpt><trkpt lat="46.1594535" lon="13.5853314"><ele>364.20000000000005</ele><time>2026-03-22T13:47:55.352Z</time></trkpt><trkpt lat="46.1595069" lon="13.5852133"><ele>371.0</ele><time>2026-03-22T13:47:56.359Z</time></trkpt><trkpt lat="46.1595473" lon="13.5850932"><ele>371.0</ele><time>2026-03-22T13:47:57.352Z</time></trkpt><trkpt lat="46.1595868" lon="13.5849811"><ele>371.0</ele><time>2026-03-22T13:47:58.351Z</time></trkpt><trkpt lat="46.1596171" lon="13.5848938"><ele>371.0</ele><time>2026-03-22T13:47:59.342Z</time></trkpt><trkpt lat="46.1596496" lon="13.5847519"><ele>371.0</ele><time>2026-03-22T13:48:01.347Z</time></trkpt><trkpt lat="46.1596634" lon="13.5846561"><ele>371.0</ele><time>2026-03-22T13:48:02.347Z</time></trkpt><trkpt lat="46.1596923" lon="13.5844919"><ele>371.0</ele><time>2026-03-22T13:48:04.36Z</time></trkpt><trkpt lat="46.1596824" lon="13.5843938"><ele>371.6</ele><time>2026-03-22T13:48:05.353Z</time></trkpt><trkpt lat="46.1596774" lon="13.5842662"><ele>372.20000000000005</ele><time>2026-03-22T13:48:06.35Z</time></trkpt><trkpt lat="46.1596993" lon="13.5841058"><ele>372.79999999999995</ele><time>2026-03-22T13:48:07.344Z</time></trkpt><trkpt lat="46.1597378" lon="13.5839477"><ele>373.4</ele><time>2026-03-22T13:48:08.34Z</time></trkpt><trkpt lat="46.1597739" lon="13.5837961"><ele>374.0</ele><time>2026-03-22T13:48:09.345Z</time></trkpt><trkpt lat="46.1597935" lon="13.5836457"><ele>375.6666666666667</ele><time>2026-03-22T13:48:10.349Z</time></trkpt><trkpt lat="46.1598081" lon="13.583507"><ele>377.33333333333337</ele><time>2026-03-22T13:48:11.347Z</time></trkpt><trkpt lat="46.1598134" lon="13.5833817"><ele>379.0</ele><time>2026-03-22T13:48:12.358Z</time></trkpt><trkpt lat="46.1598024" lon="13.5832781"><ele>380.6666666666667</ele><time>2026-03-22T13:48:13.365Z</time></trkpt><trkpt lat="46.1597858" lon="13.5831215"><ele>382.3333333333333</ele><time>2026-03-22T13:48:15.349Z</time></trkpt><trkpt lat="46.1597967" lon="13.5830041"><ele>384.0</ele><time>2026-03-22T13:48:17.346Z</time></trkpt><trkpt lat="46.1598229" lon="13.5829019"><ele>386.1666666666667</ele><time>2026-03-22T13:48:19.351Z</time></trkpt><trkpt lat="46.1598639" lon="13.5828021"><ele>388.33333333333337</ele><time>2026-03-22T13:48:21.364Z</time></trkpt><trkpt lat="46.1599367" lon="13.5827088"><ele>390.5</ele><time>2026-03-22T13:48:23.366Z</time></trkpt><trkpt lat="46.1600033" lon="13.5826988"><ele>392.6666666666667</ele><time>2026-03-22T13:48:24.346Z</time></trkpt><trkpt lat="46.160081" lon="13.5827192"><ele>394.83333333333337</ele><time>2026-03-22T13:48:25.375Z</time></trkpt><trkpt lat="46.1601579" lon="13.5827161"><ele>397.0</ele><time>2026-03-22T13:48:26.368Z</time></trkpt><trkpt lat="46.1602379" lon="13.5827018"><ele>399.8</ele><time>2026-03-22T13:48:27.36Z</time></trkpt><trkpt lat="46.1603191" lon="13.5826567"><ele>402.6</ele><time>2026-03-22T13:48:28.342Z</time></trkpt><trkpt lat="46.160396" lon="13.5825892"><ele>405.40000000000003</ele><time>2026-03-22T13:48:29.343Z</time></trkpt><trkpt lat="46.1604679" lon="13.5825006"><ele>408.20000000000005</ele><time>2026-03-22T13:48:30.346Z</time></trkpt><trkpt lat="46.1605438" lon="13.5824245"><ele>411.0</ele><time>2026-03-22T13:48:31.356Z</time></trkpt><trkpt lat="46.1606282" lon="13.5823571"><ele>411.1428571428571</ele><time>2026-03-22T13:48:32.35Z</time></trkpt><trkpt lat="46.1607011" lon="13.5822847"><ele>411.2857142857143</ele><time>2026-03-22T13:48:33.342Z</time></trkpt><trkpt lat="46.1607667" lon="13.5822099"><ele>411.42857142857144</ele><time>2026-03-22T13:48:34.359Z</time></trkpt><trkpt lat="46.1608269" lon="13.5821523"><ele>411.57142857142856</ele><time>2026-03-22T13:48:35.35Z</time></trkpt><trkpt lat="46.1608815" lon="13.5821053"><ele>411.7142857142857</ele><time>2026-03-22T13:48:36.347Z</time></trkpt><trkpt lat="46.1609365" lon="13.5820567"><ele>411.85714285714283</ele><time>2026-03-22T13:48:37.349Z</time></trkpt><trkpt lat="46.1609899" lon="13.5819825"><ele>412.0</ele><time>2026-03-22T13:48:38.343Z</time></trkpt><trkpt lat="46.161052" lon="13.5819036"><ele>412.00000000000006</ele><time>2026-03-22T13:48:39.352Z</time></trkpt><trkpt lat="46.1611148" lon="13.581818"><ele>412.0</ele><time>2026-03-22T13:48:40.339Z</time></trkpt><trkpt lat="46.1611706" lon="13.5817477"><ele>412.0</ele><time>2026-03-22T13:48:41.339Z</time></trkpt><trkpt lat="46.161221" lon="13.5816853"><ele>412.0</ele><time>2026-03-22T13:48:42.341Z</time></trkpt><trkpt lat="46.1612944" lon="13.5815629"><ele>412.00000000000006</ele><time>2026-03-22T13:48:44.339Z</time></trkpt><trkpt lat="46.1613554" lon="13.5814841"><ele>412.0</ele><time>2026-03-22T13:48:46.335Z</time></trkpt><trkpt lat="46.1614079" lon="13.5814216"><ele>412.0</ele><time>2026-03-22T13:48:48.349Z</time></trkpt><trkpt lat="46.1614125" lon="13.581542"><ele>412.0</ele><time>2026-03-22T13:48:51.341Z</time></trkpt><trkpt lat="46.1613558" lon="13.5816532"><ele>412.0</ele><time>2026-03-22T13:48:52.344Z</time></trkpt><trkpt lat="46.1612766" lon="13.5817856"><ele>412.0</ele><time>2026-03-22T13:48:53.346Z</time></trkpt><trkpt lat="46.1612044" lon="13.5819163"><ele>412.0</ele><time>2026-03-22T13:48:54.341Z</time></trkpt><trkpt lat="46.1611527" lon="13.5820467"><ele>417.8</ele><time>2026-03-22T13:48:55.351Z</time></trkpt><trkpt lat="46.1610995" lon="13.5821567"><ele>423.6</ele><time>2026-03-22T13:48:56.334Z</time></trkpt><trkpt lat="46.1610219" lon="13.5822563"><ele>429.40000000000003</ele><time>2026-03-22T13:48:57.363Z</time></trkpt><trkpt lat="46.160969" lon="13.5823699"><ele>435.20000000000005</ele><time>2026-03-22T13:48:58.336Z</time></trkpt><trkpt lat="46.160912" lon="13.5824591"><ele>441.0</ele><time>2026-03-22T13:48:59.367Z</time></trkpt><trkpt lat="46.1608618" lon="13.582549"><ele>441.0</ele><time>2026-03-22T13:49:00.342Z</time></trkpt><trkpt lat="46.1608211" lon="13.5826241"><ele>441.0</ele><time>2026-03-22T13:49:01.356Z</time></trkpt><trkpt lat="46.1607801" lon="13.5827361"><ele>441.0</ele><time>2026-03-22T13:49:03.359Z</time></trkpt><trkpt lat="46.160869" lon="13.5827363"><ele>441.0</ele><time>2026-03-22T13:49:08.345Z</time></trkpt><trkpt lat="46.1609364" lon="13.5826536"><ele>441.0</ele><time>2026-03-22T13:49:09.336Z</time></trkpt><trkpt lat="46.1610279" lon="13.5825407"><ele>441.0</ele><time>2026-03-22T13:49:10.348Z</time></trkpt><trkpt lat="46.1611295" lon="13.5824159"><ele>441.0</ele><time>2026-03-22T13:49:11.337Z</time></trkpt><trkpt lat="46.1612224" lon="13.5823126"><ele>441.0</ele><time>2026-03-22T13:49:12.337Z</time></trkpt><trkpt lat="46.1613045" lon="13.5822409"><ele>441.0</ele><time>2026-03-22T13:49:13.333Z</time></trkpt><trkpt lat="46.1613727" lon="13.582167"><ele>441.0</ele><time>2026-03-22T13:49:14.336Z</time></trkpt><trkpt lat="46.1614364" lon="13.5820516"><ele>444.4</ele><time>2026-03-22T13:49:15.359Z</time></trkpt><trkpt lat="46.1614983" lon="13.5819227"><ele>447.8</ele><time>2026-03-22T13:49:16.35Z</time></trkpt><trkpt lat="46.1615583" lon="13.5818108"><ele>451.19999999999993</ele><time>2026-03-22T13:49:17.348Z</time></trkpt><trkpt lat="46.16161" lon="13.5817083"><ele>454.59999999999997</ele><time>2026-03-22T13:49:18.345Z</time></trkpt><trkpt lat="46.1616589" lon="13.581618"><ele>458.0</ele><time>2026-03-22T13:49:19.351Z</time></trkpt><trkpt lat="46.1617164" lon="13.5815287"><ele>458.0</ele><time>2026-03-22T13:49:20.332Z</time></trkpt><trkpt lat="46.1617976" lon="13.5814574"><ele>457.99999999999994</ele><time>2026-03-22T13:49:21.348Z</time></trkpt><trkpt lat="46.1618847" lon="13.5813942"><ele>457.99999999999994</ele><time>2026-03-22T13:49:22.352Z</time></trkpt><trkpt lat="46.1619755" lon="13.5813569"><ele>458.0</ele><time>2026-03-22T13:49:23.36Z</time></trkpt><trkpt lat="46.1620715" lon="13.5813391"><ele>458.0</ele><time>2026-03-22T13:49:24.355Z</time></trkpt><trkpt lat="46.1621704" lon="13.5813383"><ele>457.99999999999994</ele><time>2026-03-22T13:49:25.358Z</time></trkpt><trkpt lat="46.1622676" lon="13.581336"><ele>458.0</ele><time>2026-03-22T13:49:26.349Z</time></trkpt><trkpt lat="46.162345" lon="13.5813241"><ele>458.0</ele><time>2026-03-22T13:49:27.363Z</time></trkpt><trkpt lat="46.1624397" lon="13.5813327"><ele>458.0</ele><time>2026-03-22T13:49:29.346Z</time></trkpt><trkpt lat="46.1625111" lon="13.5813218"><ele>457.99999999999994</ele><time>2026-03-22T13:49:31.357Z</time></trkpt><trkpt lat="46.1625589" lon="13.581245"><ele>458.0</ele><time>2026-03-22T13:49:33.341Z</time></trkpt><trkpt lat="46.1625711" lon="13.581069"><ele>460.49999999999994</ele><time>2026-03-22T13:49:35.346Z</time></trkpt><trkpt lat="46.1625822" lon="13.5809307"><ele>463.0</ele><time>2026-03-22T13:49:36.346Z</time></trkpt><trkpt lat="46.1625923" lon="13.5808248"><ele>465.5</ele><time>2026-03-22T13:49:37.343Z</time></trkpt><trkpt lat="46.1626151" lon="13.580717"><ele>468.0</ele><time>2026-03-22T13:49:38.344Z</time></trkpt><trkpt lat="46.1626662" lon="13.5806007"><ele>470.49999999999994</ele><time>2026-03-22T13:49:39.347Z</time></trkpt><trkpt lat="46.1627239" lon="13.5804856"><ele>473.0</ele><time>2026-03-22T13:49:40.344Z</time></trkpt><trkpt lat="46.1628211" lon="13.5803876"><ele>469.59999999999997</ele><time>2026-03-22T13:49:41.34Z</time></trkpt><trkpt lat="46.1629377" lon="13.5803066"><ele>466.19999999999993</ele><time>2026-03-22T13:49:42.337Z</time></trkpt><trkpt lat="46.1630451" lon="13.580254"><ele>462.8</ele><time>2026-03-22T13:49:43.339Z</time></trkpt><trkpt lat="46.1631295" lon="13.5802282"><ele>459.4</ele><time>2026-03-22T13:49:44.344Z</time></trkpt><trkpt lat="46.1631931" lon="13.5802059"><ele>456.0</ele><time>2026-03-22T13:49:45.35Z</time></trkpt><trkpt lat="46.163269" lon="13.5801279"><ele>456.0</ele><time>2026-03-22T13:49:47.359Z</time></trkpt><trkpt lat="46.1632525" lon="13.5799623"><ele>456.0</ele><time>2026-03-22T13:49:49.344Z</time></trkpt><trkpt lat="46.1631956" lon="13.5799067"><ele>456.0</ele><time>2026-03-22T13:49:50.334Z</time></trkpt><trkpt lat="46.1631623" lon="13.5797695"><ele>456.0</ele><time>2026-03-22T13:49:52.353Z</time></trkpt><trkpt lat="46.1631513" lon="13.5796742"><ele>456.0</ele><time>2026-03-22T13:49:53.338Z</time></trkpt><trkpt lat="46.1631654" lon="13.5795598"><ele>456.0</ele><time>2026-03-22T13:49:54.344Z</time></trkpt><trkpt lat="46.1631765" lon="13.5794262"><ele>457.6</ele><time>2026-03-22T13:49:55.356Z</time></trkpt><trkpt lat="46.1631872" lon="13.5793012"><ele>459.20000000000005</ele><time>2026-03-22T13:49:56.334Z</time></trkpt><trkpt lat="46.1631836" lon="13.5791957"><ele>460.79999999999995</ele><time>2026-03-22T13:49:57.357Z</time></trkpt><trkpt lat="46.1631522" lon="13.5790481"><ele>462.4</ele><time>2026-03-22T13:49:59.35Z</time></trkpt><trkpt lat="46.1630586" lon="13.5789523"><ele>464.0</ele><time>2026-03-22T13:50:01.335Z</time></trkpt><trkpt lat="46.1629536" lon="13.5788732"><ele>464.0</ele><time>2026-03-22T13:50:03.361Z</time></trkpt><trkpt lat="46.1628599" lon="13.5787582"><ele>464.0</ele><time>2026-03-22T13:50:05.349Z</time></trkpt><trkpt lat="46.1628145" lon="13.5786766"><ele>464.0</ele><time>2026-03-22T13:50:06.348Z</time></trkpt><trkpt lat="46.1627698" lon="13.5785953"><ele>464.0</ele><time>2026-03-22T13:50:07.351Z</time></trkpt><trkpt lat="46.1627262" lon="13.5784555"><ele>464.0</ele><time>2026-03-22T13:50:09.346Z</time></trkpt><trkpt lat="46.1627165" lon="13.5783393"><ele>468.16666666666663</ele><time>2026-03-22T13:50:11.343Z</time></trkpt><trkpt lat="46.1626967" lon="13.5782295"><ele>472.3333333333333</ele><time>2026-03-22T13:50:14.339Z</time></trkpt><trkpt lat="46.162662" lon="13.5781486"><ele>476.5</ele><time>2026-03-22T13:50:16.345Z</time></trkpt><trkpt lat="46.1626216" lon="13.5780728"><ele>480.66666666666663</ele><time>2026-03-22T13:50:18.374Z</time></trkpt><trkpt lat="46.1625401" lon="13.5780918"><ele>484.8333333333333</ele><time>2026-03-22T13:50:20.344Z</time></trkpt><trkpt lat="46.1624774" lon="13.5781108"><ele>489.0</ele><time>2026-03-22T13:50:21.386Z</time></trkpt><trkpt lat="46.1623776" lon="13.5781443"><ele>488.25</ele><time>2026-03-22T13:50:22.454Z</time></trkpt><trkpt lat="46.1622545" lon="13.5781551"><ele>487.5</ele><time>2026-03-22T13:50:23.375Z</time></trkpt><trkpt lat="46.1621103" lon="13.5782095"><ele>486.75</ele><time>2026-03-22T13:50:24.367Z</time></trkpt><trkpt lat="46.1619873" lon="13.57823"><ele>486.0</ele><time>2026-03-22T13:50:25.365Z</time></trkpt><trkpt lat="46.1618864" lon="13.578274"><ele>486.0</ele><time>2026-03-22T13:50:26.339Z</time></trkpt><trkpt lat="46.1618131" lon="13.5783337"><ele>486.0</ele><time>2026-03-22T13:50:27.339Z</time></trkpt><trkpt lat="46.1617261" lon="13.5783645"><ele>486.0</ele><time>2026-03-22T13:50:28.351Z</time></trkpt><trkpt lat="46.1616531" lon="13.5783875"><ele>486.0</ele><time>2026-03-22T13:50:29.341Z</time></trkpt><trkpt lat="46.1615787" lon="13.5783949"><ele>486.0</ele><time>2026-03-22T13:50:30.338Z</time></trkpt><trkpt lat="46.1615045" lon="13.5783733"><ele>486.0</ele><time>2026-03-22T13:50:31.349Z</time></trkpt><trkpt lat="46.1614238" lon="13.5783457"><ele>485.1666666666667</ele><time>2026-03-22T13:50:32.348Z</time></trkpt><trkpt lat="46.161351" lon="13.5783037"><ele>484.33333333333337</ele><time>2026-03-22T13:50:33.35Z</time></trkpt><trkpt lat="46.1612741" lon="13.5782547"><ele>483.5</ele><time>2026-03-22T13:50:34.347Z</time></trkpt><trkpt lat="46.1611904" lon="13.5781966"><ele>482.6666666666667</ele><time>2026-03-22T13:50:35.352Z</time></trkpt><trkpt lat="46.1611161" lon="13.5781359"><ele>481.83333333333337</ele><time>2026-03-22T13:50:36.347Z</time></trkpt><trkpt lat="46.1610583" lon="13.5780651"><ele>481.0</ele><time>2026-03-22T13:50:37.348Z</time></trkpt><trkpt lat="46.1610107" lon="13.5779996"><ele>483.1666666666667</ele><time>2026-03-22T13:50:38.334Z</time></trkpt><trkpt lat="46.1609827" lon="13.5778308"><ele>485.33333333333337</ele><time>2026-03-22T13:50:40.355Z</time></trkpt><trkpt lat="46.1609851" lon="13.5777141"><ele>487.5</ele><time>2026-03-22T13:50:41.34Z</time></trkpt><trkpt lat="46.1609859" lon="13.577595"><ele>489.66666666666663</ele><time>2026-03-22T13:50:42.337Z</time></trkpt><trkpt lat="46.1609926" lon="13.5774743"><ele>491.8333333333333</ele><time>2026-03-22T13:50:43.343Z</time></trkpt><trkpt lat="46.1610001" lon="13.5773648"><ele>494.0</ele><time>2026-03-22T13:50:44.35Z</time></trkpt><trkpt lat="46.1610167" lon="13.5772546"><ele>494.0</ele><time>2026-03-22T13:50:45.373Z</time></trkpt><trkpt lat="46.1610261" lon="13.5771581"><ele>494.0</ele><time>2026-03-22T13:50:46.362Z</time></trkpt><trkpt lat="46.1610181" lon="13.5770673"><ele>494.0</ele><time>2026-03-22T13:50:47.363Z</time></trkpt><trkpt lat="46.1610292" lon="13.5769093"><ele>494.0</ele><time>2026-03-22T13:50:49.338Z</time></trkpt><trkpt lat="46.1610782" lon="13.5767435"><ele>494.0</ele><time>2026-03-22T13:50:51.341Z</time></trkpt><trkpt lat="46.1610972" lon="13.5765988"><ele>494.79999999999995</ele><time>2026-03-22T13:50:53.372Z</time></trkpt><trkpt lat="46.1610561" lon="13.5764959"><ele>495.59999999999997</ele><time>2026-03-22T13:50:55.351Z</time></trkpt><trkpt lat="46.1609958" lon="13.5764081"><ele>496.4</ele><time>2026-03-22T13:50:57.352Z</time></trkpt><trkpt lat="46.1609794" lon="13.5762891"><ele>497.2</ele><time>2026-03-22T13:50:59.357Z</time></trkpt><trkpt lat="46.1610067" lon="13.5761203"><ele>498.0</ele><time>2026-03-22T13:51:01.351Z</time></trkpt><trkpt lat="46.1610456" lon="13.5759703"><ele>498.6666666666667</ele><time>2026-03-22T13:51:03.34Z</time></trkpt><trkpt lat="46.1610567" lon="13.5758678"><ele>499.33333333333337</ele><time>2026-03-22T13:51:05.357Z</time></trkpt><trkpt lat="46.1610226" lon="13.5757226"><ele>500.0</ele><time>2026-03-22T13:51:07.346Z</time></trkpt><trkpt lat="46.1610052" lon="13.5756323"><ele>500.6666666666667</ele><time>2026-03-22T13:51:08.347Z</time></trkpt><trkpt lat="46.1609473" lon="13.5754966"><ele>501.33333333333337</ele><time>2026-03-22T13:51:10.348Z</time></trkpt><trkpt lat="46.1609023" lon="13.5753754"><ele>502.0</ele><time>2026-03-22T13:51:12.348Z</time></trkpt><trkpt lat="46.1608607" lon="13.5752668"><ele>503.6</ele><time>2026-03-22T13:51:14.351Z</time></trkpt><trkpt lat="46.1608535" lon="13.5751737"><ele>505.20000000000005</ele><time>2026-03-22T13:51:15.351Z</time></trkpt><trkpt lat="46.1608648" lon="13.5750237"><ele>506.8</ele><time>2026-03-22T13:51:16.351Z</time></trkpt><trkpt lat="46.1608748" lon="13.5748434"><ele>508.4</ele><time>2026-03-22T13:51:17.36Z</time></trkpt><trkpt lat="46.1608776" lon="13.5746886"><ele>510.0</ele><time>2026-03-22T13:51:18.361Z</time></trkpt><trkpt lat="46.16089" lon="13.5745539"><ele>512.6666666666666</ele><time>2026-03-22T13:51:19.367Z</time></trkpt><trkpt lat="46.1608882" lon="13.5744156"><ele>515.3333333333334</ele><time>2026-03-22T13:51:20.347Z</time></trkpt><trkpt lat="46.1608824" lon="13.5742825"><ele>518.0</ele><time>2026-03-22T13:51:21.37Z</time></trkpt><trkpt lat="46.1608809" lon="13.5741581"><ele>520.6666666666667</ele><time>2026-03-22T13:51:22.344Z</time></trkpt><trkpt lat="46.1608777" lon="13.574045"><ele>523.3333333333334</ele><time>2026-03-22T13:51:23.349Z</time></trkpt><trkpt lat="46.1608424" lon="13.5739329"><ele>526.0</ele><time>2026-03-22T13:51:24.371Z</time></trkpt><trkpt lat="46.1607805" lon="13.573794"><ele>519.0</ele><time>2026-03-22T13:51:25.354Z</time></trkpt><trkpt lat="46.1606743" lon="13.5736565"><ele>512.0</ele><time>2026-03-22T13:51:26.357Z</time></trkpt><trkpt lat="46.160556" lon="13.5734877"><ele>505.0</ele><time>2026-03-22T13:51:27.35Z</time></trkpt><trkpt lat="46.1604441" lon="13.5733092"><ele>505.0</ele><time>2026-03-22T13:51:28.359Z</time></trkpt><trkpt lat="46.160349" lon="13.5731523"><ele>505.0</ele><time>2026-03-22T13:51:29.353Z</time></trkpt><trkpt lat="46.1602784" lon="13.5730248"><ele>505.0</ele><time>2026-03-22T13:51:30.357Z</time></trkpt><trkpt lat="46.1602054" lon="13.5729114"><ele>505.0</ele><time>2026-03-22T13:51:31.344Z</time></trkpt><trkpt lat="46.1601466" lon="13.5727795"><ele>506.50000000000006</ele><time>2026-03-22T13:51:32.348Z</time></trkpt><trkpt lat="46.1601091" lon="13.5726433"><ele>508.0</ele><time>2026-03-22T13:51:33.343Z</time></trkpt><trkpt lat="46.160072" lon="13.5725257"><ele>509.5</ele><time>2026-03-22T13:51:34.343Z</time></trkpt><trkpt lat="46.1600218" lon="13.5724207"><ele>511.0</ele><time>2026-03-22T13:51:35.361Z</time></trkpt><trkpt lat="46.1599657" lon="13.5723424"><ele>512.5</ele><time>2026-03-22T13:51:36.34Z</time></trkpt><trkpt lat="46.1599054" lon="13.5723007"><ele>514.0</ele><time>2026-03-22T13:51:37.358Z</time></trkpt><trkpt lat="46.1598199" lon="13.5722644"><ele>514.0</ele><time>2026-03-22T13:51:39.348Z</time></trkpt><trkpt lat="46.1597554" lon="13.5722542"><ele>514.0</ele><time>2026-03-22T13:51:41.348Z</time></trkpt><trkpt lat="46.1596816" lon="13.5722124"><ele>514.0</ele><time>2026-03-22T13:51:44.357Z</time></trkpt><trkpt lat="46.1597589" lon="13.5721784"><ele>514.0</ele><time>2026-03-22T13:51:48.356Z</time></trkpt><trkpt lat="46.1598795" lon="13.5721943"><ele>514.0</ele><time>2026-03-22T13:51:50.341Z</time></trkpt><trkpt lat="46.1599492" lon="13.5721768"><ele>514.0</ele><time>2026-03-22T13:51:51.362Z</time></trkpt><trkpt lat="46.1600274" lon="13.5721829"><ele>517.8</ele><time>2026-03-22T13:51:52.347Z</time></trkpt><trkpt lat="46.1600972" lon="13.5722231"><ele>521.5999999999999</ele><time>2026-03-22T13:51:53.339Z</time></trkpt><trkpt lat="46.1601463" lon="13.5723619"><ele>525.4</ele><time>2026-03-22T13:51:54.338Z</time></trkpt><trkpt lat="46.1601848" lon="13.5724758"><ele>529.1999999999999</ele><time>2026-03-22T13:51:55.357Z</time></trkpt><trkpt lat="46.1602577" lon="13.5725507"><ele>533.0</ele><time>2026-03-22T13:51:56.37Z</time></trkpt><trkpt lat="46.160349" lon="13.5726275"><ele>533.0</ele><time>2026-03-22T13:51:57.359Z</time></trkpt><trkpt lat="46.1604693" lon="13.5727083"><ele>533.0</ele><time>2026-03-22T13:51:58.364Z</time></trkpt><trkpt lat="46.1606054" lon="13.5728351"><ele>533.0</ele><time>2026-03-22T13:51:59.361Z</time></trkpt><trkpt lat="46.1607654" lon="13.5729285"><ele>535.25</ele><time>2026-03-22T13:52:00.357Z</time></trkpt><trkpt lat="46.1609175" lon="13.5730244"><ele>537.5</ele><time>2026-03-22T13:52:01.358Z</time></trkpt><trkpt lat="46.1610505" lon="13.5731185"><ele>539.75</ele><time>2026-03-22T13:52:02.36Z</time></trkpt><trkpt lat="46.1611626" lon="13.5732127"><ele>542.0</ele><time>2026-03-22T13:52:03.356Z</time></trkpt><trkpt lat="46.1612566" lon="13.5733029"><ele>542.0</ele><time>2026-03-22T13:52:04.347Z</time></trkpt><trkpt lat="46.1613433" lon="13.5733722"><ele>542.0</ele><time>2026-03-22T13:52:05.358Z</time></trkpt><trkpt lat="46.1614301" lon="13.5734567"><ele>542.0</ele><time>2026-03-22T13:52:06.337Z</time></trkpt><trkpt lat="46.161521" lon="13.5736223"><ele>542.0</ele><time>2026-03-22T13:52:07.368Z</time></trkpt><trkpt lat="46.161604" lon="13.5738356"><ele>544.0</ele><time>2026-03-22T13:52:08.346Z</time></trkpt><trkpt lat="46.1616826" lon="13.5740646"><ele>546.0</ele><time>2026-03-22T13:52:09.348Z</time></trkpt><trkpt lat="46.16175" lon="13.5742502"><ele>548.0</ele><time>2026-03-22T13:52:10.35Z</time></trkpt><trkpt lat="46.1618111" lon="13.5744035"><ele>550.0</ele><time>2026-03-22T13:52:11.345Z</time></trkpt><trkpt lat="46.1618558" lon="13.5745549"><ele>550.0</ele><time>2026-03-22T13:52:12.358Z</time></trkpt><trkpt lat="46.1618975" lon="13.5746818"><ele>550.0</ele><time>2026-03-22T13:52:13.352Z</time></trkpt><trkpt lat="46.1619498" lon="13.5747801"><ele>550.0</ele><time>2026-03-22T13:52:14.348Z</time></trkpt><trkpt lat="46.162002" lon="13.5748732"><ele>550.0</ele><time>2026-03-22T13:52:15.346Z</time></trkpt><trkpt lat="46.1620302" lon="13.5749879"><ele>550.0</ele><time>2026-03-22T13:52:16.357Z</time></trkpt><trkpt lat="46.1620818" lon="13.5750812"><ele>550.0</ele><time>2026-03-22T13:52:17.343Z</time></trkpt><trkpt lat="46.1621606" lon="13.5751521"><ele>550.0</ele><time>2026-03-22T13:52:18.351Z</time></trkpt><trkpt lat="46.1622556" lon="13.5752259"><ele>550.0</ele><time>2026-03-22T13:52:19.367Z</time></trkpt><trkpt lat="46.1623563" lon="13.5753125"><ele>550.0</ele><time>2026-03-22T13:52:20.351Z</time></trkpt><trkpt lat="46.1624499" lon="13.5754154"><ele>550.0</ele><time>2026-03-22T13:52:21.357Z</time></trkpt><trkpt lat="46.1625274" lon="13.5755124"><ele>550.0</ele><time>2026-03-22T13:52:22.375Z</time></trkpt><trkpt lat="46.1626038" lon="13.5755675"><ele>553.6</ele><time>2026-03-22T13:52:23.349Z</time></trkpt><trkpt lat="46.1626563" lon="13.5756234"><ele>557.2</ele><time>2026-03-22T13:52:24.358Z</time></trkpt><trkpt lat="46.1627183" lon="13.575731"><ele>560.8</ele><time>2026-03-22T13:52:26.354Z</time></trkpt><trkpt lat="46.1628098" lon="13.5757072"><ele>564.4</ele><time>2026-03-22T13:52:30.344Z</time></trkpt><trkpt lat="46.1627702" lon="13.5755311"><ele>568.0</ele><time>2026-03-22T13:52:32.345Z</time></trkpt><trkpt lat="46.1627288" lon="13.5754346"><ele>571.1666666666667</ele><time>2026-03-22T13:52:33.361Z</time></trkpt><trkpt lat="46.1626981" lon="13.5753385"><ele>574.3333333333334</ele><time>2026-03-22T13:52:34.362Z</time></trkpt><trkpt lat="46.1626763" lon="13.575228"><ele>577.5</ele><time>2026-03-22T13:52:35.352Z</time></trkpt><trkpt lat="46.1626473" lon="13.5751098"><ele>580.6666666666666</ele><time>2026-03-22T13:52:36.34Z</time></trkpt><trkpt lat="46.1626493" lon="13.5749822"><ele>583.8333333333333</ele><time>2026-03-22T13:52:37.362Z</time></trkpt><trkpt lat="46.1626355" lon="13.5748651"><ele>587.0</ele><time>2026-03-22T13:52:38.341Z</time></trkpt><trkpt lat="46.1625937" lon="13.5747569"><ele>587.0</ele><time>2026-03-22T13:52:39.354Z</time></trkpt><trkpt lat="46.1625503" lon="13.5746504"><ele>587.0</ele><time>2026-03-22T13:52:40.342Z</time></trkpt><trkpt lat="46.1625021" lon="13.5745491"><ele>587.0</ele><time>2026-03-22T13:52:41.349Z</time></trkpt><trkpt lat="46.1624673" lon="13.5744366"><ele>587.0</ele><time>2026-03-22T13:52:42.349Z</time></trkpt><trkpt lat="46.162428" lon="13.5743226"><ele>587.0</ele><time>2026-03-22T13:52:43.349Z</time></trkpt><trkpt lat="46.1623791" lon="13.5742162"><ele>587.0</ele><time>2026-03-22T13:52:44.369Z</time></trkpt><trkpt lat="46.1623349" lon="13.5741051"><ele>587.2</ele><time>2026-03-22T13:52:45.358Z</time></trkpt><trkpt lat="46.1622875" lon="13.5739876"><ele>587.4000000000001</ele><time>2026-03-22T13:52:46.36Z</time></trkpt><trkpt lat="46.1622474" lon="13.5738489"><ele>587.5999999999999</ele><time>2026-03-22T13:52:47.345Z</time></trkpt><trkpt lat="46.1622164" lon="13.5736923"><ele>587.8</ele><time>2026-03-22T13:52:48.354Z</time></trkpt><trkpt lat="46.162199" lon="13.573527"><ele>588.0</ele><time>2026-03-22T13:52:49.377Z</time></trkpt><trkpt lat="46.1621577" lon="13.5733694"><ele>588.0</ele><time>2026-03-22T13:52:50.359Z</time></trkpt><trkpt lat="46.1621136" lon="13.5731974"><ele>588.0</ele><time>2026-03-22T13:52:51.364Z</time></trkpt><trkpt lat="46.1620594" lon="13.573016"><ele>588.0</ele><time>2026-03-22T13:52:52.342Z</time></trkpt><trkpt lat="46.161993" lon="13.5728497"><ele>588.0</ele><time>2026-03-22T13:52:53.353Z</time></trkpt><trkpt lat="46.1619014" lon="13.5727092"><ele>592.8</ele><time>2026-03-22T13:52:54.355Z</time></trkpt><trkpt lat="46.1618138" lon="13.5725853"><ele>597.5999999999999</ele><time>2026-03-22T13:52:55.342Z</time></trkpt><trkpt lat="46.1617501" lon="13.5724688"><ele>602.4000000000001</ele><time>2026-03-22T13:52:56.349Z</time></trkpt><trkpt lat="46.1616997" lon="13.5723683"><ele>607.2</ele><time>2026-03-22T13:52:57.353Z</time></trkpt><trkpt lat="46.1616357" lon="13.5722593"><ele>612.0</ele><time>2026-03-22T13:52:59.352Z</time></trkpt><trkpt lat="46.1616212" lon="13.5721584"><ele>612.0</ele><time>2026-03-22T13:53:02.356Z</time></trkpt><trkpt lat="46.1616911" lon="13.5721505"><ele>612.0</ele><time>2026-03-22T13:53:04.347Z</time></trkpt><trkpt lat="46.16176" lon="13.5722063"><ele>612.0</ele><time>2026-03-22T13:53:05.359Z</time></trkpt><trkpt lat="46.161851" lon="13.5723312"><ele>612.0</ele><time>2026-03-22T13:53:06.347Z</time></trkpt><trkpt lat="46.1619662" lon="13.5724448"><ele>612.0</ele><time>2026-03-22T13:53:07.352Z</time></trkpt><trkpt lat="46.1620791" lon="13.5725447"><ele>612.0</ele><time>2026-03-22T13:53:08.361Z</time></trkpt><trkpt lat="46.1621883" lon="13.5726834"><ele>612.0</ele><time>2026-03-22T13:53:09.36Z</time></trkpt><trkpt lat="46.1622774" lon="13.5728539"><ele>612.0</ele><time>2026-03-22T13:53:10.367Z</time></trkpt><trkpt lat="46.1623616" lon="13.5730259"><ele>612.0</ele><time>2026-03-22T13:53:11.365Z</time></trkpt><trkpt lat="46.1624219" lon="13.573196"><ele>614.75</ele><time>2026-03-22T13:53:12.35Z</time></trkpt><trkpt lat="46.1624818" lon="13.573343"><ele>617.5</ele><time>2026-03-22T13:53:13.351Z</time></trkpt><trkpt lat="46.1625646" lon="13.5734716"><ele>620.25</ele><time>2026-03-22T13:53:14.345Z</time></trkpt><trkpt lat="46.1626666" lon="13.5735907"><ele>623.0</ele><time>2026-03-22T13:53:15.357Z</time></trkpt><trkpt lat="46.1627878" lon="13.5736697"><ele>629.3333333333333</ele><time>2026-03-22T13:53:16.355Z</time></trkpt><trkpt lat="46.1629269" lon="13.5737435"><ele>635.6666666666666</ele><time>2026-03-22T13:53:17.361Z</time></trkpt><trkpt lat="46.1630702" lon="13.5738514"><ele>642.0</ele><time>2026-03-22T13:53:18.353Z</time></trkpt><trkpt lat="46.1632157" lon="13.5739555"><ele>642.0</ele><time>2026-03-22T13:53:19.346Z</time></trkpt><trkpt lat="46.163372" lon="13.574047"><ele>642.0</ele><time>2026-03-22T13:53:20.352Z</time></trkpt><trkpt lat="46.1635643" lon="13.5742219"><ele>642.0</ele><time>2026-03-22T13:53:21.358Z</time></trkpt><trkpt lat="46.1637148" lon="13.5743894"><ele>642.0</ele><time>2026-03-22T13:53:22.345Z</time></trkpt><trkpt lat="46.1638397" lon="13.5745185"><ele>642.0</ele><time>2026-03-22T13:53:23.383Z</time></trkpt><trkpt lat="46.1639454" lon="13.5746115"><ele>642.0</ele><time>2026-03-22T13:53:24.352Z</time></trkpt><trkpt lat="46.1640205" lon="13.5747392"><ele>642.0</ele><time>2026-03-22T13:53:25.338Z</time></trkpt><trkpt lat="46.164086" lon="13.5748711"><ele>643.6</ele><time>2026-03-22T13:53:26.34Z</time></trkpt><trkpt lat="46.1641777" lon="13.5749678"><ele>645.2</ele><time>2026-03-22T13:53:27.362Z</time></trkpt><trkpt lat="46.1642613" lon="13.5750715"><ele>646.8</ele><time>2026-03-22T13:53:28.352Z</time></trkpt><trkpt lat="46.1643492" lon="13.5751642"><ele>648.4</ele><time>2026-03-22T13:53:29.359Z</time></trkpt><trkpt lat="46.1644294" lon="13.5752586"><ele>650.0</ele><time>2026-03-22T13:53:30.356Z</time></trkpt><trkpt lat="46.164526" lon="13.5752869"><ele>650.0</ele><time>2026-03-22T13:53:31.353Z</time></trkpt><trkpt lat="46.1646264" lon="13.5752966"><ele>650.0</ele><time>2026-03-22T13:53:32.352Z</time></trkpt><trkpt lat="46.1647165" lon="13.5753461"><ele>650.0</ele><time>2026-03-22T13:53:33.36Z</time></trkpt><trkpt lat="46.1648212" lon="13.5753686"><ele>650.0</ele><time>2026-03-22T13:53:34.36Z</time></trkpt><trkpt lat="46.1649247" lon="13.5753839"><ele>650.0</ele><time>2026-03-22T13:53:35.356Z</time></trkpt><trkpt lat="46.1650262" lon="13.5753909"><ele>650.6666666666666</ele><time>2026-03-22T13:53:36.352Z</time></trkpt><trkpt lat="46.1651186" lon="13.5753976"><ele>651.3333333333333</ele><time>2026-03-22T13:53:37.368Z</time></trkpt><trkpt lat="46.1652063" lon="13.5754078"><ele>652.0</ele><time>2026-03-22T13:53:38.352Z</time></trkpt><trkpt lat="46.1652834" lon="13.5754129"><ele>652.6666666666666</ele><time>2026-03-22T13:53:39.365Z</time></trkpt><trkpt lat="46.1653518" lon="13.5753871"><ele>653.3333333333334</ele><time>2026-03-22T13:53:40.352Z</time></trkpt><trkpt lat="46.1654171" lon="13.5753758"><ele>654.0</ele><time>2026-03-22T13:53:41.357Z</time></trkpt><trkpt lat="46.1654867" lon="13.5753752"><ele>654.0</ele><time>2026-03-22T13:53:42.368Z</time></trkpt><trkpt lat="46.1655625" lon="13.5753662"><ele>654.0</ele><time>2026-03-22T13:53:43.364Z</time></trkpt><trkpt lat="46.1656371" lon="13.5753539"><ele>654.0</ele><time>2026-03-22T13:53:44.341Z</time></trkpt><trkpt lat="46.165716" lon="13.5753483"><ele>654.0</ele><time>2026-03-22T13:53:45.348Z</time></trkpt><trkpt lat="46.1657944" lon="13.5753429"><ele>654.0</ele><time>2026-03-22T13:53:46.349Z</time></trkpt><trkpt lat="46.165863" lon="13.5753509"><ele>654.0</ele><time>2026-03-22T13:53:47.35Z</time></trkpt><trkpt lat="46.1659631" lon="13.5753579"><ele>657.6666666666666</ele><time>2026-03-22T13:53:49.345Z</time></trkpt><trkpt lat="46.1660199" lon="13.5753994"><ele>661.3333333333334</ele><time>2026-03-22T13:53:51.36Z</time></trkpt><trkpt lat="46.1660493" lon="13.5755171"><ele>665.0</ele><time>2026-03-22T13:53:53.357Z</time></trkpt><trkpt lat="46.1660782" lon="13.5756354"><ele>668.6666666666667</ele><time>2026-03-22T13:53:55.359Z</time></trkpt><trkpt lat="46.1661075" lon="13.5757767"><ele>672.3333333333334</ele><time>2026-03-22T13:53:56.345Z</time></trkpt><trkpt lat="46.1662024" lon="13.5758522"><ele>676.0</ele><time>2026-03-22T13:53:59.354Z</time></trkpt><trkpt lat="46.1663174" lon="13.5757654"><ele>676.0</ele><time>2026-03-22T13:54:01.345Z</time></trkpt><trkpt lat="46.1663863" lon="13.575763"><ele>676.0</ele><time>2026-03-22T13:54:02.348Z</time></trkpt><trkpt lat="46.1664536" lon="13.575756"><ele>676.0</ele><time>2026-03-22T13:54:03.349Z</time></trkpt><trkpt lat="46.1665407" lon="13.5756663"><ele>676.0</ele><time>2026-03-22T13:54:05.357Z</time></trkpt><trkpt lat="46.1665988" lon="13.5754871"><ele>676.0</ele><time>2026-03-22T13:54:07.349Z</time></trkpt><trkpt lat="46.1666302" lon="13.5753998"><ele>676.0</ele><time>2026-03-22T13:54:08.366Z</time></trkpt><trkpt lat="46.1666791" lon="13.5753413"><ele>670.4</ele><time>2026-03-22T13:54:09.37Z</time></trkpt><trkpt lat="46.1667527" lon="13.5753119"><ele>664.8</ele><time>2026-03-22T13:54:10.368Z</time></trkpt><trkpt lat="46.1668191" lon="13.575284"><ele>659.1999999999999</ele><time>2026-03-22T13:54:11.361Z</time></trkpt><trkpt lat="46.1669532" lon="13.5752346"><ele>653.5999999999999</ele><time>2026-03-22T13:54:13.355Z</time></trkpt><trkpt lat="46.1670285" lon="13.5751268"><ele>648.0</ele><time>2026-03-22T13:54:14.342Z</time></trkpt><trkpt lat="46.1671202" lon="13.5750435"><ele>648.0</ele><time>2026-03-22T13:54:15.357Z</time></trkpt><trkpt lat="46.1671967" lon="13.5749972"><ele>648.0</ele><time>2026-03-22T13:54:16.342Z</time></trkpt><trkpt lat="46.1672922" lon="13.5749686"><ele>648.0</ele><time>2026-03-22T13:54:17.353Z</time></trkpt><trkpt lat="46.1674079" lon="13.5749408"><ele>648.0</ele><time>2026-03-22T13:54:18.352Z</time></trkpt><trkpt lat="46.1674825" lon="13.5748874"><ele>648.0</ele><time>2026-03-22T13:54:19.357Z</time></trkpt><trkpt lat="46.1676064" lon="13.5747113"><ele>649.8</ele><time>2026-03-22T13:54:20.35Z</time></trkpt><trkpt lat="46.1676898" lon="13.57463"><ele>651.5999999999999</ele><time>2026-03-22T13:54:21.342Z</time></trkpt><trkpt lat="46.1677698" lon="13.5745972"><ele>653.4000000000001</ele><time>2026-03-22T13:54:22.339Z</time></trkpt><trkpt lat="46.1678522" lon="13.5745451"><ele>655.2</ele><time>2026-03-22T13:54:23.345Z</time></trkpt><trkpt lat="46.1679497" lon="13.5745405"><ele>657.0</ele><time>2026-03-22T13:54:24.349Z</time></trkpt><trkpt lat="46.1680414" lon="13.5745142"><ele>651.0</ele><time>2026-03-22T13:54:25.342Z</time></trkpt><trkpt lat="46.1681438" lon="13.5744835"><ele>645.0</ele><time>2026-03-22T13:54:26.335Z</time></trkpt><trkpt lat="46.1682652" lon="13.5744548"><ele>639.0</ele><time>2026-03-22T13:54:27.356Z</time></trkpt><trkpt lat="46.1683428" lon="13.5744107"><ele>633.0</ele><time>2026-03-22T13:54:28.357Z</time></trkpt><trkpt lat="46.1684405" lon="13.57427"><ele>627.0</ele><time>2026-03-22T13:54:29.341Z</time></trkpt><trkpt lat="46.1685282" lon="13.5742243"><ele>627.0</ele><time>2026-03-22T13:54:30.354Z</time></trkpt><trkpt lat="46.1686125" lon="13.5741445"><ele>627.0</ele><time>2026-03-22T13:54:31.339Z</time></trkpt><trkpt lat="46.1686894" lon="13.5740725"><ele>627.0</ele><time>2026-03-22T13:54:32.347Z</time></trkpt><trkpt lat="46.1687771" lon="13.5739836"><ele>627.0</ele><time>2026-03-22T13:54:33.348Z</time></trkpt><trkpt lat="46.1688448" lon="13.5739571"><ele>627.0</ele><time>2026-03-22T13:54:34.351Z</time></trkpt><trkpt lat="46.1689226" lon="13.5739429"><ele>627.0</ele><time>2026-03-22T13:54:35.348Z</time></trkpt><trkpt lat="46.1689945" lon="13.5738951"><ele>627.8000000000001</ele><time>2026-03-22T13:54:36.346Z</time></trkpt><trkpt lat="46.1690594" lon="13.5738697"><ele>628.6</ele><time>2026-03-22T13:54:37.349Z</time></trkpt><trkpt lat="46.1691363" lon="13.573803"><ele>629.4000000000001</ele><time>2026-03-22T13:54:38.345Z</time></trkpt><trkpt lat="46.1692411" lon="13.5737305"><ele>630.2</ele><time>2026-03-22T13:54:39.375Z</time></trkpt><trkpt lat="46.1693665" lon="13.5736056"><ele>631.0</ele><time>2026-03-22T13:54:40.343Z</time></trkpt><trkpt lat="46.1694285" lon="13.5735773"><ele>631.0</ele><time>2026-03-22T13:54:41.35Z</time></trkpt><trkpt lat="46.1695121" lon="13.5734915"><ele>631.0</ele><time>2026-03-22T13:54:42.351Z</time></trkpt><trkpt lat="46.1696817" lon="13.5736662"><ele>631.0</ele><time>2026-03-22T13:54:45.351Z</time></trkpt><trkpt lat="46.1696942" lon="13.5738278"><ele>631.0</ele><time>2026-03-22T13:54:46.334Z</time></trkpt><trkpt lat="46.1697337" lon="13.5739301"><ele>631.0</ele><time>2026-03-22T13:54:47.361Z</time></trkpt><trkpt lat="46.1697646" lon="13.5740216"><ele>631.0</ele><time>2026-03-22T13:54:48.35Z</time></trkpt><trkpt lat="46.1698019" lon="13.5739098"><ele>631.0</ele><time>2026-03-22T13:54:52.343Z</time></trkpt><trkpt lat="46.1698266" lon="13.5737469"><ele>631.0</ele><time>2026-03-22T13:54:54.358Z</time></trkpt><trkpt lat="46.1698238" lon="13.5736543"><ele>631.0</ele><time>2026-03-22T13:54:55.347Z</time></trkpt><trkpt lat="46.1698334" lon="13.5735103"><ele>631.0</ele><time>2026-03-22T13:54:57.34Z</time></trkpt><trkpt lat="46.1698226" lon="13.5734025"><ele>625.25</ele><time>2026-03-22T13:54:59.348Z</time></trkpt><trkpt lat="46.1699203" lon="13.5736248"><ele>619.5</ele><time>2026-03-22T13:55:03.38Z</time></trkpt><trkpt lat="46.1699137" lon="13.5738252"><ele>613.75</ele><time>2026-03-22T13:55:05.358Z</time></trkpt><trkpt lat="46.1699302" lon="13.5739291"><ele>608.0</ele><time>2026-03-22T13:55:06.361Z</time></trkpt><trkpt lat="46.1698833" lon="13.5740433"><ele>612.6</ele><time>2026-03-22T13:55:07.344Z</time></trkpt><trkpt lat="46.1698279" lon="13.574135"><ele>617.1999999999999</ele><time>2026-03-22T13:55:08.325Z</time></trkpt><trkpt lat="46.1697901" lon="13.5742295"><ele>621.8</ele><time>2026-03-22T13:55:09.328Z</time></trkpt><trkpt lat="46.1697646" lon="13.5743683"><ele>626.4</ele><time>2026-03-22T13:55:10.343Z</time></trkpt><trkpt lat="46.1697511" lon="13.5744873"><ele>631.0</ele><time>2026-03-22T13:55:11.357Z</time></trkpt><trkpt lat="46.1697566" lon="13.5746456"><ele>635.5</ele><time>2026-03-22T13:55:12.337Z</time></trkpt><trkpt lat="46.1697783" lon="13.5748062"><ele>640.0</ele><time>2026-03-22T13:55:13.361Z</time></trkpt><trkpt lat="46.1697908" lon="13.5750189"><ele>644.5</ele><time>2026-03-22T13:55:15.347Z</time></trkpt><trkpt lat="46.1698098" lon="13.5751478"><ele>649.0</ele><time>2026-03-22T13:55:16.356Z</time></trkpt><trkpt lat="46.1698542" lon="13.5753444"><ele>644.8000000000001</ele><time>2026-03-22T13:55:17.346Z</time></trkpt><trkpt lat="46.1699377" lon="13.575447"><ele>640.6</ele><time>2026-03-22T13:55:19.344Z</time></trkpt><trkpt lat="46.1700574" lon="13.5755673"><ele>636.4</ele><time>2026-03-22T13:55:21.344Z</time></trkpt><trkpt lat="46.1701536" lon="13.5756069"><ele>632.2</ele><time>2026-03-22T13:55:22.331Z</time></trkpt><trkpt lat="46.1702454" lon="13.5756284"><ele>628.0</ele><time>2026-03-22T13:55:23.351Z</time></trkpt><trkpt lat="46.1703327" lon="13.5756318"><ele>628.0</ele><time>2026-03-22T13:55:24.35Z</time></trkpt><trkpt lat="46.170413" lon="13.5756734"><ele>628.0</ele><time>2026-03-22T13:55:25.337Z</time></trkpt><trkpt lat="46.1704983" lon="13.5756891"><ele>628.0</ele><time>2026-03-22T13:55:26.33Z</time></trkpt><trkpt lat="46.1705816" lon="13.5757328"><ele>628.0</ele><time>2026-03-22T13:55:27.356Z</time></trkpt><trkpt lat="46.1706561" lon="13.5757592"><ele>628.0</ele><time>2026-03-22T13:55:28.343Z</time></trkpt><trkpt lat="46.1707558" lon="13.5757663"><ele>628.0</ele><time>2026-03-22T13:55:30.338Z</time></trkpt><trkpt lat="46.1708615" lon="13.5758843"><ele>622.75</ele><time>2026-03-22T13:55:32.362Z</time></trkpt><trkpt lat="46.1708835" lon="13.5760221"><ele>617.5</ele><time>2026-03-22T13:55:33.334Z</time></trkpt><trkpt lat="46.170909" lon="13.5761558"><ele>612.25</ele><time>2026-03-22T13:55:34.351Z</time></trkpt><trkpt lat="46.1709266" lon="13.5763462"><ele>607.0</ele><time>2026-03-22T13:55:35.337Z</time></trkpt><trkpt lat="46.1709157" lon="13.5765458"><ele>607.0</ele><time>2026-03-22T13:55:36.342Z</time></trkpt><trkpt lat="46.1709181" lon="13.5766988"><ele>607.0</ele><time>2026-03-22T13:55:37.339Z</time></trkpt><trkpt lat="46.1709174" lon="13.5768383"><ele>607.0</ele><time>2026-03-22T13:55:38.352Z</time></trkpt><trkpt lat="46.1709194" lon="13.5769683"><ele>607.0</ele><time>2026-03-22T13:55:39.361Z</time></trkpt><trkpt lat="46.1709195" lon="13.5770908"><ele>607.0</ele><time>2026-03-22T13:55:40.331Z</time></trkpt><trkpt lat="46.170941" lon="13.5771823"><ele>607.0</ele><time>2026-03-22T13:55:42.351Z</time></trkpt><trkpt lat="46.1710221" lon="13.5773246"><ele>608.1666666666667</ele><time>2026-03-22T13:55:44.348Z</time></trkpt><trkpt lat="46.171087" lon="13.577398"><ele>609.3333333333334</ele><time>2026-03-22T13:55:45.342Z</time></trkpt><trkpt lat="46.1711563" lon="13.5774412"><ele>610.5</ele><time>2026-03-22T13:55:46.342Z</time></trkpt><trkpt lat="46.1712447" lon="13.5774318"><ele>611.6666666666666</ele><time>2026-03-22T13:55:47.34Z</time></trkpt><trkpt lat="46.171331" lon="13.5773802"><ele>612.8333333333333</ele><time>2026-03-22T13:55:48.342Z</time></trkpt><trkpt lat="46.1714207" lon="13.5773333"><ele>614.0</ele><time>2026-03-22T13:55:49.337Z</time></trkpt><trkpt lat="46.1715193" lon="13.5772984"><ele>611.0</ele><time>2026-03-22T13:55:50.348Z</time></trkpt><trkpt lat="46.1716176" lon="13.577278"><ele>608.0</ele><time>2026-03-22T13:55:51.343Z</time></trkpt><trkpt lat="46.1717103" lon="13.5772305"><ele>605.0</ele><time>2026-03-22T13:55:52.359Z</time></trkpt><trkpt lat="46.1718055" lon="13.5771332"><ele>602.0</ele><time>2026-03-22T13:55:53.335Z</time></trkpt><trkpt lat="46.1718972" lon="13.5770125"><ele>599.0</ele><time>2026-03-22T13:55:54.343Z</time></trkpt><trkpt lat="46.1719864" lon="13.576876"><ele>593.0</ele><time>2026-03-22T13:55:55.347Z</time></trkpt><trkpt lat="46.172102" lon="13.5767971"><ele>587.0</ele><time>2026-03-22T13:55:56.344Z</time></trkpt><trkpt lat="46.1722329" lon="13.5767377"><ele>581.0</ele><time>2026-03-22T13:55:57.351Z</time></trkpt><trkpt lat="46.172352" lon="13.5766518"><ele>575.0</ele><time>2026-03-22T13:55:58.334Z</time></trkpt><trkpt lat="46.1724679" lon="13.5765717"><ele>575.0</ele><time>2026-03-22T13:55:59.332Z</time></trkpt><trkpt lat="46.1725855" lon="13.5764828"><ele>575.0</ele><time>2026-03-22T13:56:00.352Z</time></trkpt><trkpt lat="46.1726823" lon="13.5763504"><ele>575.0</ele><time>2026-03-22T13:56:01.34Z</time></trkpt><trkpt lat="46.1727625" lon="13.5762114"><ele>575.0</ele><time>2026-03-22T13:56:02.365Z</time></trkpt><trkpt lat="46.1728531" lon="13.5760895"><ele>571.5</ele><time>2026-03-22T13:56:03.351Z</time></trkpt><trkpt lat="46.1729505" lon="13.5759863"><ele>568.0</ele><time>2026-03-22T13:56:04.336Z</time></trkpt><trkpt lat="46.1730641" lon="13.5759402"><ele>564.5</ele><time>2026-03-22T13:56:05.334Z</time></trkpt><trkpt lat="46.1731581" lon="13.5758816"><ele>561.0</ele><time>2026-03-22T13:56:06.319Z</time></trkpt><trkpt lat="46.1732525" lon="13.5757904"><ele>561.0</ele><time>2026-03-22T13:56:07.328Z</time></trkpt><trkpt lat="46.1733572" lon="13.5757317"><ele>561.0</ele><time>2026-03-22T13:56:08.339Z</time></trkpt><trkpt lat="46.1734521" lon="13.575698"><ele>561.0</ele><time>2026-03-22T13:56:09.348Z</time></trkpt><trkpt lat="46.1735312" lon="13.5756644"><ele>561.0</ele><time>2026-03-22T13:56:10.332Z</time></trkpt><trkpt lat="46.173604" lon="13.5756444"><ele>561.0</ele><time>2026-03-22T13:56:11.344Z</time></trkpt><trkpt lat="46.1737121" lon="13.5756863"><ele>561.0</ele><time>2026-03-22T13:56:12.341Z</time></trkpt><trkpt lat="46.1738305" lon="13.5756786"><ele>561.0</ele><time>2026-03-22T13:56:13.363Z</time></trkpt><trkpt lat="46.1739482" lon="13.5756967"><ele>561.0</ele><time>2026-03-22T13:56:14.336Z</time></trkpt><trkpt lat="46.1740728" lon="13.5757246"><ele>561.0</ele><time>2026-03-22T13:56:15.341Z</time></trkpt><trkpt lat="46.1741887" lon="13.5757708"><ele>560.6</ele><time>2026-03-22T13:56:16.332Z</time></trkpt><trkpt lat="46.1742947" lon="13.5758402"><ele>560.2</ele><time>2026-03-22T13:56:17.345Z</time></trkpt><trkpt lat="46.1743813" lon="13.5759142"><ele>559.8</ele><time>2026-03-22T13:56:18.335Z</time></trkpt><trkpt lat="46.174479" lon="13.5759667"><ele>559.4</ele><time>2026-03-22T13:56:19.342Z</time></trkpt><trkpt lat="46.1745681" lon="13.5760332"><ele>559.0</ele><time>2026-03-22T13:56:20.364Z</time></trkpt><trkpt lat="46.1746431" lon="13.5760563"><ele>559.0</ele><time>2026-03-22T13:56:21.344Z</time></trkpt><trkpt lat="46.1747212" lon="13.5760797"><ele>559.0</ele><time>2026-03-22T13:56:22.345Z</time></trkpt><trkpt lat="46.1747947" lon="13.5761371"><ele>559.0</ele><time>2026-03-22T13:56:23.344Z</time></trkpt><trkpt lat="46.1748743" lon="13.576214"><ele>559.0</ele><time>2026-03-22T13:56:24.331Z</time></trkpt><trkpt lat="46.1749433" lon="13.5762977"><ele>559.0</ele><time>2026-03-22T13:56:25.328Z</time></trkpt><trkpt lat="46.1750096" lon="13.576379"><ele>559.0</ele><time>2026-03-22T13:56:26.356Z</time></trkpt><trkpt lat="46.1750673" lon="13.5764744"><ele>560.1428571428571</ele><time>2026-03-22T13:56:27.335Z</time></trkpt><trkpt lat="46.1751249" lon="13.5765721"><ele>561.2857142857143</ele><time>2026-03-22T13:56:28.351Z</time></trkpt><trkpt lat="46.1751811" lon="13.5766148"><ele>562.4285714285714</ele><time>2026-03-22T13:56:29.335Z</time></trkpt><trkpt lat="46.1752444" lon="13.5766166"><ele>563.5714285714286</ele><time>2026-03-22T13:56:30.335Z</time></trkpt><trkpt lat="46.1753034" lon="13.5766558"><ele>564.7142857142858</ele><time>2026-03-22T13:56:31.359Z</time></trkpt><trkpt lat="46.1753679" lon="13.5767068"><ele>565.8571428571429</ele><time>2026-03-22T13:56:32.343Z</time></trkpt><trkpt lat="46.1754349" lon="13.5767763"><ele>567.0</ele><time>2026-03-22T13:56:33.338Z</time></trkpt><trkpt lat="46.1755037" lon="13.5768796"><ele>567.0</ele><time>2026-03-22T13:56:34.357Z</time></trkpt><trkpt lat="46.1755955" lon="13.5769723"><ele>567.0</ele><time>2026-03-22T13:56:35.356Z</time></trkpt><trkpt lat="46.1756879" lon="13.5770516"><ele>567.0</ele><time>2026-03-22T13:56:36.345Z</time></trkpt><trkpt lat="46.1757677" lon="13.5771295"><ele>567.0</ele><time>2026-03-22T13:56:37.342Z</time></trkpt><trkpt lat="46.175846" lon="13.577201"><ele>567.0</ele><time>2026-03-22T13:56:38.349Z</time></trkpt><trkpt lat="46.1759275" lon="13.5772709"><ele>566.6666666666666</ele><time>2026-03-22T13:56:39.343Z</time></trkpt><trkpt lat="46.175991" lon="13.5773186"><ele>566.3333333333334</ele><time>2026-03-22T13:56:40.34Z</time></trkpt><trkpt lat="46.1760684" lon="13.5773363"><ele>566.0</ele><time>2026-03-22T13:56:41.329Z</time></trkpt><trkpt lat="46.1761594" lon="13.5773954"><ele>565.6666666666667</ele><time>2026-03-22T13:56:42.338Z</time></trkpt><trkpt lat="46.1762443" lon="13.5774278"><ele>565.3333333333334</ele><time>2026-03-22T13:56:43.358Z</time></trkpt><trkpt lat="46.1763323" lon="13.5774547"><ele>565.0</ele><time>2026-03-22T13:56:44.341Z</time></trkpt><trkpt lat="46.1764253" lon="13.5775107"><ele>565.0</ele><time>2026-03-22T13:56:45.35Z</time></trkpt><trkpt lat="46.1765146" lon="13.5775723"><ele>565.0</ele><time>2026-03-22T13:56:46.349Z</time></trkpt><trkpt lat="46.1766217" lon="13.5776513"><ele>565.0</ele><time>2026-03-22T13:56:47.339Z</time></trkpt><trkpt lat="46.1767247" lon="13.5776838"><ele>565.0</ele><time>2026-03-22T13:56:48.342Z</time></trkpt><trkpt lat="46.1768031" lon="13.5777487"><ele>565.0</ele><time>2026-03-22T13:56:49.35Z</time></trkpt><trkpt lat="46.17687" lon="13.5777755"><ele>566.1666666666667</ele><time>2026-03-22T13:56:50.347Z</time></trkpt><trkpt lat="46.1769232" lon="13.5778347"><ele>567.3333333333334</ele><time>2026-03-22T13:56:51.36Z</time></trkpt><trkpt lat="46.1769906" lon="13.5778658"><ele>568.5</ele><time>2026-03-22T13:56:52.339Z</time></trkpt><trkpt lat="46.177063" lon="13.5778803"><ele>569.6666666666666</ele><time>2026-03-22T13:56:53.334Z</time></trkpt><trkpt lat="46.1771316" lon="13.5778646"><ele>570.8333333333333</ele><time>2026-03-22T13:56:54.336Z</time></trkpt><trkpt lat="46.1772177" lon="13.5778476"><ele>572.0</ele><time>2026-03-22T13:56:55.344Z</time></trkpt><trkpt lat="46.1773171" lon="13.5778317"><ele>566.6</ele><time>2026-03-22T13:56:56.336Z</time></trkpt><trkpt lat="46.1774241" lon="13.5778601"><ele>561.2</ele><time>2026-03-22T13:56:57.35Z</time></trkpt><trkpt lat="46.1775261" lon="13.5778732"><ele>555.8</ele><time>2026-03-22T13:56:58.346Z</time></trkpt><trkpt lat="46.1776217" lon="13.5779133"><ele>550.4</ele><time>2026-03-22T13:56:59.33Z</time></trkpt><trkpt lat="46.1776882" lon="13.5779533"><ele>545.0</ele><time>2026-03-22T13:57:00.353Z</time></trkpt><trkpt lat="46.1777557" lon="13.5779765"><ele>545.0</ele><time>2026-03-22T13:57:01.359Z</time></trkpt><trkpt lat="46.1778167" lon="13.5780149"><ele>545.0</ele><time>2026-03-22T13:57:02.351Z</time></trkpt><trkpt lat="46.1778914" lon="13.578085"><ele>545.0</ele><time>2026-03-22T13:57:04.339Z</time></trkpt><trkpt lat="46.1779581" lon="13.578158"><ele>545.0</ele><time>2026-03-22T13:57:06.338Z</time></trkpt><trkpt lat="46.1780207" lon="13.5781928"><ele>545.0</ele><time>2026-03-22T13:57:08.344Z</time></trkpt><trkpt lat="46.1781258" lon="13.5782741"><ele>545.0</ele><time>2026-03-22T13:57:10.336Z</time></trkpt><trkpt lat="46.1781725" lon="13.5783384"><ele>540.0</ele><time>2026-03-22T13:57:11.331Z</time></trkpt><trkpt lat="46.1782804" lon="13.5784361"><ele>535.0</ele><time>2026-03-22T13:57:13.349Z</time></trkpt><trkpt lat="46.1783371" lon="13.5784929"><ele>530.0</ele><time>2026-03-22T13:57:14.331Z</time></trkpt><trkpt lat="46.1784017" lon="13.5785432"><ele>525.0</ele><time>2026-03-22T13:57:15.328Z</time></trkpt><trkpt lat="46.1784886" lon="13.5785743"><ele>520.0</ele><time>2026-03-22T13:57:16.336Z</time></trkpt><trkpt lat="46.1785728" lon="13.5785865"><ele>515.0</ele><time>2026-03-22T13:57:17.33Z</time></trkpt><trkpt lat="46.1786402" lon="13.5785754"><ele>515.0</ele><time>2026-03-22T13:57:18.352Z</time></trkpt><trkpt lat="46.1788031" lon="13.5785752"><ele>515.0</ele><time>2026-03-22T13:57:20.337Z</time></trkpt><trkpt lat="46.1788669" lon="13.5785851"><ele>515.0</ele><time>2026-03-22T13:57:21.337Z</time></trkpt><trkpt lat="46.178952" lon="13.5786046"><ele>515.0</ele><time>2026-03-22T13:57:22.329Z</time></trkpt><trkpt lat="46.1790384" lon="13.5786424"><ele>515.0</ele><time>2026-03-22T13:57:23.342Z</time></trkpt><trkpt lat="46.179123" lon="13.5786014"><ele>511.16666666666663</ele><time>2026-03-22T13:57:24.328Z</time></trkpt><trkpt lat="46.179216" lon="13.5785741"><ele>507.3333333333333</ele><time>2026-03-22T13:57:25.344Z</time></trkpt><trkpt lat="46.1792844" lon="13.5785307"><ele>503.5</ele><time>2026-03-22T13:57:26.352Z</time></trkpt><trkpt lat="46.1793693" lon="13.5784847"><ele>499.66666666666663</ele><time>2026-03-22T13:57:27.34Z</time></trkpt><trkpt lat="46.1794519" lon="13.5784831"><ele>495.8333333333333</ele><time>2026-03-22T13:57:28.34Z</time></trkpt><trkpt lat="46.1795303" lon="13.5784831"><ele>492.0</ele><time>2026-03-22T13:57:29.356Z</time></trkpt><trkpt lat="46.1796178" lon="13.5784469"><ele>492.0</ele><time>2026-03-22T13:57:30.332Z</time></trkpt><trkpt lat="46.1797132" lon="13.5784195"><ele>492.00000000000006</ele><time>2026-03-22T13:57:31.35Z</time></trkpt><trkpt lat="46.1797947" lon="13.5784131"><ele>492.00000000000006</ele><time>2026-03-22T13:57:32.346Z</time></trkpt><trkpt lat="46.1798586" lon="13.5784103"><ele>492.0</ele><time>2026-03-22T13:57:33.349Z</time></trkpt><trkpt lat="46.1799248" lon="13.5784539"><ele>492.0</ele><time>2026-03-22T13:57:34.351Z</time></trkpt><trkpt lat="46.180042" lon="13.5785672"><ele>492.20000000000005</ele><time>2026-03-22T13:57:35.341Z</time></trkpt><trkpt lat="46.1801113" lon="13.5786218"><ele>492.40000000000003</ele><time>2026-03-22T13:57:36.349Z</time></trkpt><trkpt lat="46.1802029" lon="13.5786713"><ele>492.59999999999997</ele><time>2026-03-22T13:57:37.344Z</time></trkpt><trkpt lat="46.1802578" lon="13.5786198"><ele>492.79999999999995</ele><time>2026-03-22T13:57:39.342Z</time></trkpt><trkpt lat="46.1801402" lon="13.5784909"><ele>493.0</ele><time>2026-03-22T13:57:41.343Z</time></trkpt><trkpt lat="46.1800623" lon="13.5784439"><ele>493.00000000000006</ele><time>2026-03-22T13:57:42.344Z</time></trkpt><trkpt lat="46.1799811" lon="13.5784135"><ele>493.0</ele><time>2026-03-22T13:57:43.331Z</time></trkpt><trkpt lat="46.1798984" lon="13.5783694"><ele>493.0</ele><time>2026-03-22T13:57:44.345Z</time></trkpt><trkpt lat="46.1798218" lon="13.5783198"><ele>493.0</ele><time>2026-03-22T13:57:45.344Z</time></trkpt><trkpt lat="46.1797468" lon="13.5782781"><ele>493.00000000000006</ele><time>2026-03-22T13:57:46.35Z</time></trkpt><trkpt lat="46.1796552" lon="13.5782645"><ele>493.0</ele><time>2026-03-22T13:57:47.348Z</time></trkpt><trkpt lat="46.179562" lon="13.5782786"><ele>492.83333333333337</ele><time>2026-03-22T13:57:48.344Z</time></trkpt><trkpt lat="46.1794732" lon="13.5782987"><ele>492.6666666666667</ele><time>2026-03-22T13:57:49.357Z</time></trkpt><trkpt lat="46.1793887" lon="13.5783323"><ele>492.5</ele><time>2026-03-22T13:57:50.33Z</time></trkpt><trkpt lat="46.1792641" lon="13.5783542"><ele>492.33333333333337</ele><time>2026-03-22T13:57:52.334Z</time></trkpt><trkpt lat="46.1791961" lon="13.578367"><ele>492.1666666666667</ele><time>2026-03-22T13:57:53.35Z</time></trkpt><trkpt lat="46.1791309" lon="13.5783663"><ele>492.0</ele><time>2026-03-22T13:57:54.337Z</time></trkpt><trkpt lat="46.1790656" lon="13.5783532"><ele>491.20000000000005</ele><time>2026-03-22T13:57:55.347Z</time></trkpt><trkpt lat="46.178972" lon="13.5783366"><ele>490.40000000000003</ele><time>2026-03-22T13:57:57.342Z</time></trkpt><trkpt lat="46.178895" lon="13.5782612"><ele>489.59999999999997</ele><time>2026-03-22T13:57:59.335Z</time></trkpt><trkpt lat="46.1788614" lon="13.5780681"><ele>488.79999999999995</ele><time>2026-03-22T13:58:01.329Z</time></trkpt><trkpt lat="46.1788988" lon="13.5779319"><ele>488.0</ele><time>2026-03-22T13:58:02.339Z</time></trkpt><trkpt lat="46.1789891" lon="13.5778228"><ele>487.0</ele><time>2026-03-22T13:58:03.344Z</time></trkpt><trkpt lat="46.179048" lon="13.5777226"><ele>485.99999999999994</ele><time>2026-03-22T13:58:04.347Z</time></trkpt><trkpt lat="46.1790891" lon="13.5776137"><ele>484.99999999999994</ele><time>2026-03-22T13:58:05.341Z</time></trkpt><trkpt lat="46.1791264" lon="13.5775328"><ele>484.0</ele><time>2026-03-22T13:58:06.338Z</time></trkpt><trkpt lat="46.1791803" lon="13.5774017"><ele>483.0</ele><time>2026-03-22T13:58:08.345Z</time></trkpt><trkpt lat="46.1791439" lon="13.5772168"><ele>483.0</ele><time>2026-03-22T13:58:10.351Z</time></trkpt><trkpt lat="46.1790853" lon="13.5771156"><ele>483.0</ele><time>2026-03-22T13:58:11.337Z</time></trkpt><trkpt lat="46.1789214" lon="13.576871"><ele>483.0</ele><time>2026-03-22T13:58:12.323Z</time></trkpt><trkpt lat="46.1788367" lon="13.5767549"><ele>483.0</ele><time>2026-03-22T13:58:13.327Z</time></trkpt><trkpt lat="46.1785706" lon="13.5764521"><ele>482.0</ele><time>2026-03-22T13:58:15.337Z</time></trkpt><trkpt lat="46.1784769" lon="13.5762779"><ele>481.0</ele><time>2026-03-22T13:58:16.348Z</time></trkpt><trkpt lat="46.1784315" lon="13.5761172"><ele>480.0</ele><time>2026-03-22T13:58:17.335Z</time></trkpt><trkpt lat="46.1784349" lon="13.5760199"><ele>479.0</ele><time>2026-03-22T13:58:18.339Z</time></trkpt><trkpt lat="46.1783231" lon="13.5758041"><ele>479.0</ele><time>2026-03-22T13:58:19.346Z</time></trkpt><trkpt lat="46.178264" lon="13.5756261"><ele>479.0</ele><time>2026-03-22T13:58:20.351Z</time></trkpt><trkpt lat="46.1781767" lon="13.5754769"><ele>479.0</ele><time>2026-03-22T13:58:21.346Z</time></trkpt><trkpt lat="46.1781106" lon="13.5753958"><ele>479.0</ele><time>2026-03-22T13:58:22.354Z</time></trkpt><trkpt lat="46.1780562" lon="13.5752962"><ele>479.0</ele><time>2026-03-22T13:58:23.347Z</time></trkpt><trkpt lat="46.1780013" lon="13.5752006"><ele>480.6</ele><time>2026-03-22T13:58:24.332Z</time></trkpt><trkpt lat="46.1779572" lon="13.5750925"><ele>482.2</ele><time>2026-03-22T13:58:25.355Z</time></trkpt><trkpt lat="46.1778767" lon="13.5749963"><ele>483.80000000000007</ele><time>2026-03-22T13:58:26.346Z</time></trkpt><trkpt lat="46.1778492" lon="13.5748886"><ele>485.40000000000003</ele><time>2026-03-22T13:58:27.359Z</time></trkpt><trkpt lat="46.177775" lon="13.5747388"><ele>487.0</ele><time>2026-03-22T13:58:28.337Z</time></trkpt><trkpt lat="46.177722" lon="13.5745179"><ele>487.0</ele><time>2026-03-22T13:58:30.357Z</time></trkpt><trkpt lat="46.1776866" lon="13.5744123"><ele>487.00000000000006</ele><time>2026-03-22T13:58:32.344Z</time></trkpt><trkpt lat="46.1777572" lon="13.5744106"><ele>487.00000000000006</ele><time>2026-03-22T13:58:36.344Z</time></trkpt><trkpt lat="46.1777724" lon="13.5745971"><ele>487.0</ele><time>2026-03-22T13:58:38.341Z</time></trkpt><trkpt lat="46.1778207" lon="13.5746763"><ele>487.0</ele><time>2026-03-22T13:58:39.351Z</time></trkpt><trkpt lat="46.1779126" lon="13.5747959"><ele>482.75</ele><time>2026-03-22T13:58:40.344Z</time></trkpt><trkpt lat="46.1780156" lon="13.5748955"><ele>478.5</ele><time>2026-03-22T13:58:41.339Z</time></trkpt><trkpt lat="46.1781539" lon="13.5750686"><ele>474.25</ele><time>2026-03-22T13:58:42.34Z</time></trkpt><trkpt lat="46.1782608" lon="13.5751746"><ele>470.0</ele><time>2026-03-22T13:58:43.351Z</time></trkpt><trkpt lat="46.1783858" lon="13.5752514"><ele>471.8</ele><time>2026-03-22T13:58:44.349Z</time></trkpt><trkpt lat="46.1784834" lon="13.5753416"><ele>473.6</ele><time>2026-03-22T13:58:45.344Z</time></trkpt><trkpt lat="46.1785373" lon="13.5754983"><ele>475.4</ele><time>2026-03-22T13:58:46.345Z</time></trkpt><trkpt lat="46.1786193" lon="13.5755776"><ele>477.2</ele><time>2026-03-22T13:58:47.349Z</time></trkpt><trkpt lat="46.1787198" lon="13.5755818"><ele>479.0</ele><time>2026-03-22T13:58:48.343Z</time></trkpt><trkpt lat="46.1788282" lon="13.5755591"><ele>478.99999999999994</ele><time>2026-03-22T13:58:49.35Z</time></trkpt><trkpt lat="46.178921" lon="13.5754972"><ele>479.0</ele><time>2026-03-22T13:58:50.352Z</time></trkpt><trkpt lat="46.1790148" lon="13.5755724"><ele>479.0</ele><time>2026-03-22T13:58:52.342Z</time></trkpt><trkpt lat="46.1790583" lon="13.5756506"><ele>479.0</ele><time>2026-03-22T13:58:53.348Z</time></trkpt><trkpt lat="46.1791123" lon="13.5757113"><ele>478.99999999999994</ele><time>2026-03-22T13:58:54.355Z</time></trkpt><trkpt lat="46.1791796" lon="13.5758176"><ele>479.0</ele><time>2026-03-22T13:58:55.351Z</time></trkpt><trkpt lat="46.1793014" lon="13.5758751"><ele>487.0</ele><time>2026-03-22T13:58:56.359Z</time></trkpt><trkpt lat="46.1795002" lon="13.5758327"><ele>495.0</ele><time>2026-03-22T13:58:58.352Z</time></trkpt><trkpt lat="46.1795935" lon="13.5757838"><ele>503.0</ele><time>2026-03-22T13:58:59.347Z</time></trkpt><trkpt lat="46.17967" lon="13.5757197"><ele>511.0</ele><time>2026-03-22T13:59:00.347Z</time></trkpt><trkpt lat="46.1797397" lon="13.5756792"><ele>511.0</ele><time>2026-03-22T13:59:01.351Z</time></trkpt><trkpt lat="46.1797882" lon="13.5756202"><ele>511.0</ele><time>2026-03-22T13:59:02.357Z</time></trkpt><trkpt lat="46.1798111" lon="13.5754729"><ele>511.0</ele><time>2026-03-22T13:59:04.338Z</time></trkpt><trkpt lat="46.1797885" lon="13.5753835"><ele>511.0</ele><time>2026-03-22T13:59:05.349Z</time></trkpt><trkpt lat="46.1797423" lon="13.5753083"><ele>511.0</ele><time>2026-03-22T13:59:06.348Z</time></trkpt><trkpt lat="46.1796708" lon="13.5750669"><ele>515.5</ele><time>2026-03-22T13:59:07.358Z</time></trkpt><trkpt lat="46.1796206" lon="13.5748927"><ele>520.0</ele><time>2026-03-22T13:59:08.34Z</time></trkpt><trkpt lat="46.1795742" lon="13.5747138"><ele>524.5</ele><time>2026-03-22T13:59:09.343Z</time></trkpt><trkpt lat="46.1795329" lon="13.5745478"><ele>529.0</ele><time>2026-03-22T13:59:10.35Z</time></trkpt><trkpt lat="46.1794846" lon="13.5743942"><ele>530.1666666666667</ele><time>2026-03-22T13:59:11.338Z</time></trkpt><trkpt lat="46.1794622" lon="13.5742653"><ele>531.3333333333334</ele><time>2026-03-22T13:59:12.333Z</time></trkpt><trkpt lat="46.1794642" lon="13.5741592"><ele>532.5</ele><time>2026-03-22T13:59:13.347Z</time></trkpt><trkpt lat="46.1794464" lon="13.574067"><ele>533.6666666666666</ele><time>2026-03-22T13:59:14.339Z</time></trkpt><trkpt lat="46.1794877" lon="13.5739171"><ele>534.8333333333333</ele><time>2026-03-22T13:59:16.34Z</time></trkpt><trkpt lat="46.1795468" lon="13.5738833"><ele>536.0</ele><time>2026-03-22T13:59:17.344Z</time></trkpt><trkpt lat="46.1796099" lon="13.5738739"><ele>536.0</ele><time>2026-03-22T13:59:18.34Z</time></trkpt><trkpt lat="46.17971" lon="13.5739671"><ele>536.0</ele><time>2026-03-22T13:59:20.339Z</time></trkpt><trkpt lat="46.1797671" lon="13.5740347"><ele>536.0</ele><time>2026-03-22T13:59:22.355Z</time></trkpt><trkpt lat="46.1798454" lon="13.5740603"><ele>536.0</ele><time>2026-03-22T13:59:24.357Z</time></trkpt><trkpt lat="46.1799315" lon="13.574083"><ele>536.0</ele><time>2026-03-22T13:59:26.362Z</time></trkpt><trkpt lat="46.1800211" lon="13.5742077"><ele>535.0</ele><time>2026-03-22T13:59:28.339Z</time></trkpt><trkpt lat="46.1800714" lon="13.574377"><ele>534.0</ele><time>2026-03-22T13:59:29.33Z</time></trkpt><trkpt lat="46.1801351" lon="13.5745782"><ele>533.0</ele><time>2026-03-22T13:59:30.341Z</time></trkpt><trkpt lat="46.1802061" lon="13.5747968"><ele>532.0</ele><time>2026-03-22T13:59:31.343Z</time></trkpt><trkpt lat="46.1802808" lon="13.5750121"><ele>532.0</ele><time>2026-03-22T13:59:32.349Z</time></trkpt><trkpt lat="46.1803735" lon="13.5751933"><ele>532.0</ele><time>2026-03-22T13:59:33.344Z</time></trkpt><trkpt lat="46.1804579" lon="13.5753607"><ele>532.0</ele><time>2026-03-22T13:59:34.353Z</time></trkpt><trkpt lat="46.1805231" lon="13.5755296"><ele>532.0</ele><time>2026-03-22T13:59:35.355Z</time></trkpt><trkpt lat="46.1806372" lon="13.5757136"><ele>534.0</ele><time>2026-03-22T13:59:36.344Z</time></trkpt><trkpt lat="46.1807601" lon="13.5758812"><ele>536.0</ele><time>2026-03-22T13:59:37.355Z</time></trkpt><trkpt lat="46.1808851" lon="13.5760202"><ele>538.0</ele><time>2026-03-22T13:59:38.351Z</time></trkpt><trkpt lat="46.1809833" lon="13.576157"><ele>532.25</ele><time>2026-03-22T13:59:39.356Z</time></trkpt><trkpt lat="46.1810691" lon="13.5762904"><ele>526.5</ele><time>2026-03-22T13:59:40.349Z</time></trkpt><trkpt lat="46.1811523" lon="13.5764171"><ele>520.75</ele><time>2026-03-22T13:59:41.346Z</time></trkpt><trkpt lat="46.1812297" lon="13.5765486"><ele>515.0</ele><time>2026-03-22T13:59:42.34Z</time></trkpt><trkpt lat="46.1813039" lon="13.5767002"><ele>515.0</ele><time>2026-03-22T13:59:43.338Z</time></trkpt><trkpt lat="46.1814096" lon="13.5768317"><ele>515.0</ele><time>2026-03-22T13:59:44.343Z</time></trkpt><trkpt lat="46.1815225" lon="13.5769542"><ele>515.0</ele><time>2026-03-22T13:59:45.345Z</time></trkpt><trkpt lat="46.1816366" lon="13.5770648"><ele>515.0</ele><time>2026-03-22T13:59:46.357Z</time></trkpt><trkpt lat="46.1817631" lon="13.5771473"><ele>514.75</ele><time>2026-03-22T13:59:47.345Z</time></trkpt><trkpt lat="46.1818711" lon="13.577256"><ele>514.5</ele><time>2026-03-22T13:59:48.357Z</time></trkpt><trkpt lat="46.1819759" lon="13.5773666"><ele>514.25</ele><time>2026-03-22T13:59:49.348Z</time></trkpt><trkpt lat="46.182079" lon="13.5774785"><ele>514.0</ele><time>2026-03-22T13:59:50.338Z</time></trkpt><trkpt lat="46.1821769" lon="13.5775908"><ele>514.0</ele><time>2026-03-22T13:59:51.354Z</time></trkpt><trkpt lat="46.1822748" lon="13.5776943"><ele>514.0</ele><time>2026-03-22T13:59:52.35Z</time></trkpt><trkpt lat="46.1823647" lon="13.5778004"><ele>514.0</ele><time>2026-03-22T13:59:53.373Z</time></trkpt><trkpt lat="46.1824593" lon="13.577888"><ele>514.0</ele><time>2026-03-22T13:59:54.343Z</time></trkpt><trkpt lat="46.1825456" lon="13.5779831"><ele>513.5</ele><time>2026-03-22T13:59:55.379Z</time></trkpt><trkpt lat="46.182625" lon="13.5780901"><ele>513.0</ele><time>2026-03-22T13:59:56.342Z</time></trkpt><trkpt lat="46.1826996" lon="13.5782182"><ele>512.5</ele><time>2026-03-22T13:59:57.353Z</time></trkpt><trkpt lat="46.1827843" lon="13.5783495"><ele>512.0</ele><time>2026-03-22T13:59:58.351Z</time></trkpt><trkpt lat="46.1828818" lon="13.5784743"><ele>512.0</ele><time>2026-03-22T13:59:59.352Z</time></trkpt><trkpt lat="46.1829871" lon="13.5785936"><ele>512.0</ele><time>2026-03-22T14:00:00.346Z</time></trkpt><trkpt lat="46.1830969" lon="13.5787149"><ele>512.0</ele><time>2026-03-22T14:00:01.344Z</time></trkpt><trkpt lat="46.1831759" lon="13.5788983"><ele>512.0</ele><time>2026-03-22T14:00:02.351Z</time></trkpt><trkpt lat="46.18327" lon="13.5790706"><ele>518.0</ele><time>2026-03-22T14:00:03.356Z</time></trkpt><trkpt lat="46.1833297" lon="13.5792657"><ele>524.0</ele><time>2026-03-22T14:00:04.346Z</time></trkpt><trkpt lat="46.1835032" lon="13.5796033"><ele>530.0</ele><time>2026-03-22T14:00:06.35Z</time></trkpt><trkpt lat="46.1835766" lon="13.5797861"><ele>530.0</ele><time>2026-03-22T14:00:07.345Z</time></trkpt><trkpt lat="46.1836547" lon="13.5799666"><ele>530.0</ele><time>2026-03-22T14:00:08.354Z</time></trkpt><trkpt lat="46.1837233" lon="13.5801539"><ele>530.0</ele><time>2026-03-22T14:00:09.341Z</time></trkpt><trkpt lat="46.1837838" lon="13.5803392"><ele>530.0</ele><time>2026-03-22T14:00:10.348Z</time></trkpt><trkpt lat="46.1838327" lon="13.5805243"><ele>531.25</ele><time>2026-03-22T14:00:11.343Z</time></trkpt><trkpt lat="46.1838946" lon="13.5806973"><ele>532.5</ele><time>2026-03-22T14:00:12.332Z</time></trkpt><trkpt lat="46.1839974" lon="13.580827"><ele>533.75</ele><time>2026-03-22T14:00:13.343Z</time></trkpt><trkpt lat="46.1840923" lon="13.5809636"><ele>535.0</ele><time>2026-03-22T14:00:14.337Z</time></trkpt><trkpt lat="46.184175" lon="13.5811168"><ele>536.5</ele><time>2026-03-22T14:00:15.336Z</time></trkpt><trkpt lat="46.1842668" lon="13.5812512"><ele>538.0</ele><time>2026-03-22T14:00:16.346Z</time></trkpt><trkpt lat="46.1843538" lon="13.5813789"><ele>539.5</ele><time>2026-03-22T14:00:17.349Z</time></trkpt><trkpt lat="46.1844468" lon="13.5814843"><ele>541.0</ele><time>2026-03-22T14:00:18.349Z</time></trkpt><trkpt lat="46.1845101" lon="13.5816026"><ele>541.0</ele><time>2026-03-22T14:00:19.351Z</time></trkpt><trkpt lat="46.1845862" lon="13.58171"><ele>541.0</ele><time>2026-03-22T14:00:20.352Z</time></trkpt><trkpt lat="46.1846218" lon="13.5818003"><ele>541.0</ele><time>2026-03-22T14:00:21.341Z</time></trkpt><trkpt lat="46.1846797" lon="13.5819636"><ele>541.0</ele><time>2026-03-22T14:00:23.336Z</time></trkpt><trkpt lat="46.184749" lon="13.5820915"><ele>541.0</ele><time>2026-03-22T14:00:24.341Z</time></trkpt><trkpt lat="46.184819" lon="13.5822296"><ele>541.0</ele><time>2026-03-22T14:00:25.347Z</time></trkpt><trkpt lat="46.1848788" lon="13.5823455"><ele>541.0</ele><time>2026-03-22T14:00:26.338Z</time></trkpt><trkpt lat="46.1849484" lon="13.582464"><ele>541.0</ele><time>2026-03-22T14:00:27.355Z</time></trkpt><trkpt lat="46.1850222" lon="13.5825976"><ele>541.0</ele><time>2026-03-22T14:00:29.354Z</time></trkpt><trkpt lat="46.1850965" lon="13.5826124"><ele>541.0</ele><time>2026-03-22T14:00:31.37Z</time></trkpt><trkpt lat="46.1851594" lon="13.5827013"><ele>541.0</ele><time>2026-03-22T14:00:32.339Z</time></trkpt><trkpt lat="46.1852247" lon="13.5826874"><ele>541.0</ele><time>2026-03-22T14:00:33.351Z</time></trkpt><trkpt lat="46.1853" lon="13.5826583"><ele>541.0</ele><time>2026-03-22T14:00:34.355Z</time></trkpt><trkpt lat="46.1857202" lon="13.5829433"><ele>543.3333333333334</ele><time>2026-03-22T14:00:35.339Z</time></trkpt><trkpt lat="46.1857845" lon="13.5830832"><ele>545.6666666666666</ele><time>2026-03-22T14:00:39.34Z</time></trkpt><trkpt lat="46.1859053" lon="13.5832856"><ele>548.0</ele><time>2026-03-22T14:00:40.336Z</time></trkpt><trkpt lat="46.1860193" lon="13.5835175"><ele>548.3333333333333</ele><time>2026-03-22T14:00:41.338Z</time></trkpt><trkpt lat="46.1861685" lon="13.5836885"><ele>548.6666666666666</ele><time>2026-03-22T14:00:42.338Z</time></trkpt><trkpt lat="46.1863114" lon="13.5838282"><ele>549.0</ele><time>2026-03-22T14:00:43.355Z</time></trkpt><trkpt lat="46.1864368" lon="13.5839257"><ele>549.75</ele><time>2026-03-22T14:00:44.354Z</time></trkpt><trkpt lat="46.1865211" lon="13.5840455"><ele>550.5</ele><time>2026-03-22T14:00:45.347Z</time></trkpt><trkpt lat="46.1866718" lon="13.5840985"><ele>551.25</ele><time>2026-03-22T14:00:46.34Z</time></trkpt><trkpt lat="46.186845" lon="13.5840986"><ele>552.0</ele><time>2026-03-22T14:00:47.337Z</time></trkpt><trkpt lat="46.1870138" lon="13.5841338"><ele>552.0</ele><time>2026-03-22T14:00:48.34Z</time></trkpt><trkpt lat="46.1872106" lon="13.5841689"><ele>552.0</ele><time>2026-03-22T14:00:49.338Z</time></trkpt><trkpt lat="46.1873317" lon="13.5842587"><ele>552.0</ele><time>2026-03-22T14:00:50.353Z</time></trkpt><trkpt lat="46.1874124" lon="13.5843598"><ele>552.0</ele><time>2026-03-22T14:00:51.349Z</time></trkpt><trkpt lat="46.1874971" lon="13.584412"><ele>555.0</ele><time>2026-03-22T14:00:52.334Z</time></trkpt><trkpt lat="46.1875653" lon="13.5844939"><ele>558.0</ele><time>2026-03-22T14:00:53.35Z</time></trkpt><trkpt lat="46.1876482" lon="13.5845254"><ele>561.0</ele><time>2026-03-22T14:00:54.332Z</time></trkpt><trkpt lat="46.1877651" lon="13.5845749"><ele>564.0</ele><time>2026-03-22T14:00:56.355Z</time></trkpt><trkpt lat="46.187869" lon="13.5846192"><ele>567.0</ele><time>2026-03-22T14:00:58.338Z</time></trkpt><trkpt lat="46.1879338" lon="13.584664"><ele>567.0</ele><time>2026-03-22T14:00:59.356Z</time></trkpt><trkpt lat="46.188003" lon="13.5846806"><ele>567.0</ele><time>2026-03-22T14:01:00.338Z</time></trkpt><trkpt lat="46.1881707" lon="13.584851"><ele>567.0</ele><time>2026-03-22T14:01:02.349Z</time></trkpt><trkpt lat="46.1882237" lon="13.5849664"><ele>567.0</ele><time>2026-03-22T14:01:04.349Z</time></trkpt><trkpt lat="46.1882682" lon="13.5850532"><ele>567.0</ele><time>2026-03-22T14:01:05.355Z</time></trkpt><trkpt lat="46.1883324" lon="13.5851041"><ele>568.3333333333334</ele><time>2026-03-22T14:01:06.35Z</time></trkpt><trkpt lat="46.1883983" lon="13.5851594"><ele>569.6666666666666</ele><time>2026-03-22T14:01:07.347Z</time></trkpt><trkpt lat="46.1884539" lon="13.5852454"><ele>571.0</ele><time>2026-03-22T14:01:08.341Z</time></trkpt><trkpt lat="46.1885127" lon="13.5853252"><ele>572.3333333333333</ele><time>2026-03-22T14:01:09.346Z</time></trkpt><trkpt lat="46.1885802" lon="13.585383"><ele>573.6666666666666</ele><time>2026-03-22T14:01:10.34Z</time></trkpt><trkpt lat="46.188642" lon="13.5854138"><ele>575.0</ele><time>2026-03-22T14:01:11.337Z</time></trkpt><trkpt lat="46.1887589" lon="13.5854332"><ele>575.0</ele><time>2026-03-22T14:01:13.337Z</time></trkpt><trkpt lat="46.1888252" lon="13.5854633"><ele>575.0</ele><time>2026-03-22T14:01:14.35Z</time></trkpt><trkpt lat="46.1889309" lon="13.5855128"><ele>575.0</ele><time>2026-03-22T14:01:16.338Z</time></trkpt><trkpt lat="46.1890546" lon="13.5856556"><ele>575.0</ele><time>2026-03-22T14:01:17.346Z</time></trkpt><trkpt lat="46.1891768" lon="13.5858557"><ele>576.75</ele><time>2026-03-22T14:01:18.349Z</time></trkpt><trkpt lat="46.189344" lon="13.5859963"><ele>578.5</ele><time>2026-03-22T14:01:19.348Z</time></trkpt><trkpt lat="46.1894461" lon="13.586101"><ele>580.25</ele><time>2026-03-22T14:01:20.332Z</time></trkpt><trkpt lat="46.189519" lon="13.5861785"><ele>582.0</ele><time>2026-03-22T14:01:21.36Z</time></trkpt><trkpt lat="46.1895711" lon="13.5862473"><ele>582.0</ele><time>2026-03-22T14:01:22.347Z</time></trkpt><trkpt lat="46.189614" lon="13.5863375"><ele>582.0</ele><time>2026-03-22T14:01:23.349Z</time></trkpt><trkpt lat="46.1896619" lon="13.5864192"><ele>582.0</ele><time>2026-03-22T14:01:24.346Z</time></trkpt><trkpt lat="46.1897134" lon="13.5865049"><ele>582.0</ele><time>2026-03-22T14:01:25.33Z</time></trkpt><trkpt lat="46.1897807" lon="13.5865743"><ele>582.0</ele><time>2026-03-22T14:01:26.341Z</time></trkpt><trkpt lat="46.1898418" lon="13.586651"><ele>582.0</ele><time>2026-03-22T14:01:27.354Z</time></trkpt><trkpt lat="46.1899155" lon="13.586685"><ele>583.5</ele><time>2026-03-22T14:01:28.342Z</time></trkpt><trkpt lat="46.1899993" lon="13.5867948"><ele>585.0</ele><time>2026-03-22T14:01:30.341Z</time></trkpt><trkpt lat="46.1900433" lon="13.586866"><ele>586.5</ele><time>2026-03-22T14:01:32.338Z</time></trkpt><trkpt lat="46.1900867" lon="13.5869946"><ele>588.0</ele><time>2026-03-22T14:01:52.353Z</time></trkpt><trkpt lat="46.1901607" lon="13.5870867"><ele>589.5</ele><time>2026-03-22T14:01:54.356Z</time></trkpt><trkpt lat="46.1902173" lon="13.5871307"><ele>591.0</ele><time>2026-03-22T14:01:55.345Z</time></trkpt><trkpt lat="46.1902798" lon="13.5871764"><ele>591.0</ele><time>2026-03-22T14:01:56.345Z</time></trkpt><trkpt lat="46.1903413" lon="13.5872189"><ele>591.0</ele><time>2026-03-22T14:01:57.363Z</time></trkpt><trkpt lat="46.1904047" lon="13.5872562"><ele>591.0</ele><time>2026-03-22T14:01:58.342Z</time></trkpt><trkpt lat="46.1904697" lon="13.5872932"><ele>591.0</ele><time>2026-03-22T14:01:59.355Z</time></trkpt><trkpt lat="46.1905402" lon="13.587313"><ele>591.0</ele><time>2026-03-22T14:02:00.359Z</time></trkpt><trkpt lat="46.1906108" lon="13.5873465"><ele>591.0</ele><time>2026-03-22T14:02:01.365Z</time></trkpt><trkpt lat="46.1906766" lon="13.5873909"><ele>591.0</ele><time>2026-03-22T14:02:02.366Z</time></trkpt><trkpt lat="46.1907433" lon="13.5874653"><ele>592.4</ele><time>2026-03-22T14:02:03.351Z</time></trkpt><trkpt lat="46.1908225" lon="13.5875349"><ele>593.8</ele><time>2026-03-22T14:02:04.357Z</time></trkpt><trkpt lat="46.1908997" lon="13.5876236"><ele>595.1999999999999</ele><time>2026-03-22T14:02:05.361Z</time></trkpt><trkpt lat="46.1909647" lon="13.587751"><ele>596.6</ele><time>2026-03-22T14:02:06.343Z</time></trkpt><trkpt lat="46.1910471" lon="13.5878682"><ele>598.0</ele><time>2026-03-22T14:02:07.352Z</time></trkpt><trkpt lat="46.1911313" lon="13.58799"><ele>598.0</ele><time>2026-03-22T14:02:08.368Z</time></trkpt><trkpt lat="46.1912186" lon="13.5881086"><ele>598.0</ele><time>2026-03-22T14:02:09.365Z</time></trkpt><trkpt lat="46.1913255" lon="13.5881933"><ele>598.0</ele><time>2026-03-22T14:02:10.361Z</time></trkpt><trkpt lat="46.191435" lon="13.5882875"><ele>598.0</ele><time>2026-03-22T14:02:11.377Z</time></trkpt><trkpt lat="46.1915467" lon="13.5883892"><ele>598.5</ele><time>2026-03-22T14:02:12.367Z</time></trkpt><trkpt lat="46.1916566" lon="13.5885059"><ele>599.0</ele><time>2026-03-22T14:02:13.353Z</time></trkpt><trkpt lat="46.1917609" lon="13.5886391"><ele>599.5</ele><time>2026-03-22T14:02:14.368Z</time></trkpt><trkpt lat="46.1918551" lon="13.5887909"><ele>600.0</ele><time>2026-03-22T14:02:15.385Z</time></trkpt><trkpt lat="46.191956" lon="13.5889345"><ele>600.0</ele><time>2026-03-22T14:02:16.372Z</time></trkpt><trkpt lat="46.1920416" lon="13.5891021"><ele>600.0</ele><time>2026-03-22T14:02:17.353Z</time></trkpt><trkpt lat="46.1921456" lon="13.5892434"><ele>600.0</ele><time>2026-03-22T14:02:18.35Z</time></trkpt><trkpt lat="46.192255" lon="13.5893721"><ele>600.0</ele><time>2026-03-22T14:02:19.364Z</time></trkpt><trkpt lat="46.1923566" lon="13.589518"><ele>602.0</ele><time>2026-03-22T14:02:20.352Z</time></trkpt><trkpt lat="46.1924737" lon="13.5896427"><ele>604.0</ele><time>2026-03-22T14:02:21.356Z</time></trkpt><trkpt lat="46.1925889" lon="13.5897799"><ele>606.0</ele><time>2026-03-22T14:02:22.354Z</time></trkpt><trkpt lat="46.1927101" lon="13.5899171"><ele>608.0</ele><time>2026-03-22T14:02:23.353Z</time></trkpt><trkpt lat="46.1928267" lon="13.590063"><ele>608.0</ele><time>2026-03-22T14:02:24.359Z</time></trkpt><trkpt lat="46.1929549" lon="13.5901886"><ele>608.0</ele><time>2026-03-22T14:02:25.351Z</time></trkpt><trkpt lat="46.1930904" lon="13.5903038"><ele>608.0</ele><time>2026-03-22T14:02:26.369Z</time></trkpt><trkpt lat="46.1932193" lon="13.5904294"><ele>612.6666666666666</ele><time>2026-03-22T14:02:27.364Z</time></trkpt><trkpt lat="46.1933225" lon="13.5905993"><ele>617.3333333333334</ele><time>2026-03-22T14:02:28.354Z</time></trkpt><trkpt lat="46.1934297" lon="13.5907603"><ele>622.0</ele><time>2026-03-22T14:02:29.358Z</time></trkpt><trkpt lat="46.193548" lon="13.5908921"><ele>622.0</ele><time>2026-03-22T14:02:30.36Z</time></trkpt><trkpt lat="46.1936567" lon="13.5910224"><ele>622.0</ele><time>2026-03-22T14:02:31.366Z</time></trkpt><trkpt lat="46.1937556" lon="13.5911514"><ele>622.0</ele><time>2026-03-22T14:02:32.375Z</time></trkpt><trkpt lat="46.1938569" lon="13.5912488"><ele>622.0</ele><time>2026-03-22T14:02:33.366Z</time></trkpt><trkpt lat="46.1939494" lon="13.5913273"><ele>624.2</ele><time>2026-03-22T14:02:34.375Z</time></trkpt><trkpt lat="46.1940442" lon="13.5913753"><ele>626.4000000000001</ele><time>2026-03-22T14:02:35.362Z</time></trkpt><trkpt lat="46.1941426" lon="13.5914084"><ele>628.5999999999999</ele><time>2026-03-22T14:02:36.341Z</time></trkpt><trkpt lat="46.1942556" lon="13.591412"><ele>630.8</ele><time>2026-03-22T14:02:37.348Z</time></trkpt><trkpt lat="46.1943603" lon="13.5914711"><ele>633.0</ele><time>2026-03-22T14:02:38.349Z</time></trkpt><trkpt lat="46.1944626" lon="13.5915544"><ele>633.0</ele><time>2026-03-22T14:02:39.377Z</time></trkpt><trkpt lat="46.1945544" lon="13.5916436"><ele>633.0</ele><time>2026-03-22T14:02:40.343Z</time></trkpt><trkpt lat="46.1946212" lon="13.5917537"><ele>633.0</ele><time>2026-03-22T14:02:41.355Z</time></trkpt><trkpt lat="46.1947034" lon="13.5918185"><ele>633.0</ele><time>2026-03-22T14:02:42.344Z</time></trkpt><trkpt lat="46.1947983" lon="13.5918621"><ele>633.0</ele><time>2026-03-22T14:02:43.351Z</time></trkpt><trkpt lat="46.1949156" lon="13.5918582"><ele>637.2</ele><time>2026-03-22T14:02:44.362Z</time></trkpt><trkpt lat="46.1950435" lon="13.5918801"><ele>641.4</ele><time>2026-03-22T14:02:45.353Z</time></trkpt><trkpt lat="46.1951646" lon="13.591912"><ele>645.6</ele><time>2026-03-22T14:02:46.348Z</time></trkpt><trkpt lat="46.195256" lon="13.5919672"><ele>649.8000000000001</ele><time>2026-03-22T14:02:47.345Z</time></trkpt><trkpt lat="46.1953422" lon="13.5919303"><ele>654.0</ele><time>2026-03-22T14:02:48.347Z</time></trkpt><trkpt lat="46.1954268" lon="13.5919171"><ele>654.0</ele><time>2026-03-22T14:02:49.362Z</time></trkpt><trkpt lat="46.1955126" lon="13.5918984"><ele>654.0</ele><time>2026-03-22T14:02:50.369Z</time></trkpt><trkpt lat="46.1956019" lon="13.5919323"><ele>654.0</ele><time>2026-03-22T14:02:51.36Z</time></trkpt><trkpt lat="46.1956894" lon="13.5919379"><ele>654.0</ele><time>2026-03-22T14:02:52.339Z</time></trkpt><trkpt lat="46.1957592" lon="13.5920337"><ele>654.0</ele><time>2026-03-22T14:02:53.345Z</time></trkpt><trkpt lat="46.1958363" lon="13.5920605"><ele>654.0</ele><time>2026-03-22T14:02:54.343Z</time></trkpt><trkpt lat="46.1959209" lon="13.592099"><ele>652.0</ele><time>2026-03-22T14:02:55.365Z</time></trkpt><trkpt lat="46.1960063" lon="13.5922108"><ele>650.0</ele><time>2026-03-22T14:02:56.349Z</time></trkpt><trkpt lat="46.1961152" lon="13.5923775"><ele>648.0</ele><time>2026-03-22T14:02:57.356Z</time></trkpt><trkpt lat="46.1962311" lon="13.5925245"><ele>646.0</ele><time>2026-03-22T14:02:58.355Z</time></trkpt><trkpt lat="46.1963468" lon="13.5926652"><ele>642.6666666666667</ele><time>2026-03-22T14:02:59.374Z</time></trkpt><trkpt lat="46.1964378" lon="13.5928673"><ele>639.3333333333334</ele><time>2026-03-22T14:03:00.363Z</time></trkpt><trkpt lat="46.1965409" lon="13.5930174"><ele>636.0</ele><time>2026-03-22T14:03:01.366Z</time></trkpt><trkpt lat="46.1966569" lon="13.5931528"><ele>645.0</ele><time>2026-03-22T14:03:02.353Z</time></trkpt><trkpt lat="46.1967841" lon="13.5932443"><ele>654.0</ele><time>2026-03-22T14:03:03.365Z</time></trkpt><trkpt lat="46.1969115" lon="13.5933641"><ele>663.0</ele><time>2026-03-22T14:03:04.345Z</time></trkpt><trkpt lat="46.1970443" lon="13.5935035"><ele>667.0</ele><time>2026-03-22T14:03:05.37Z</time></trkpt><trkpt lat="46.1971571" lon="13.5936892"><ele>671.0</ele><time>2026-03-22T14:03:06.35Z</time></trkpt><trkpt lat="46.1972732" lon="13.5938694"><ele>675.0</ele><time>2026-03-22T14:03:07.351Z</time></trkpt><trkpt lat="46.1973669" lon="13.5940578"><ele>675.0</ele><time>2026-03-22T14:03:08.358Z</time></trkpt><trkpt lat="46.1974668" lon="13.5942158"><ele>675.0</ele><time>2026-03-22T14:03:09.341Z</time></trkpt><trkpt lat="46.197553" lon="13.5943642"><ele>675.0</ele><time>2026-03-22T14:03:10.338Z</time></trkpt><trkpt lat="46.1976285" lon="13.5945015"><ele>675.0</ele><time>2026-03-22T14:03:11.349Z</time></trkpt><trkpt lat="46.1976917" lon="13.5946347"><ele>671.75</ele><time>2026-03-22T14:03:12.354Z</time></trkpt><trkpt lat="46.1977424" lon="13.5947727"><ele>668.5</ele><time>2026-03-22T14:03:13.343Z</time></trkpt><trkpt lat="46.1978332" lon="13.5948459"><ele>665.25</ele><time>2026-03-22T14:03:14.343Z</time></trkpt><trkpt lat="46.1979238" lon="13.5949157"><ele>662.0</ele><time>2026-03-22T14:03:15.349Z</time></trkpt><trkpt lat="46.1980656" lon="13.5949147"><ele>665.2</ele><time>2026-03-22T14:03:16.355Z</time></trkpt><trkpt lat="46.1982042" lon="13.5949423"><ele>668.4000000000001</ele><time>2026-03-22T14:03:17.348Z</time></trkpt><trkpt lat="46.19829" lon="13.5949998"><ele>671.5999999999999</ele><time>2026-03-22T14:03:18.341Z</time></trkpt><trkpt lat="46.198384" lon="13.5950506"><ele>674.8</ele><time>2026-03-22T14:03:19.36Z</time></trkpt><trkpt lat="46.1984883" lon="13.595101"><ele>678.0</ele><time>2026-03-22T14:03:20.351Z</time></trkpt><trkpt lat="46.1985824" lon="13.5951703"><ele>678.0</ele><time>2026-03-22T14:03:21.366Z</time></trkpt><trkpt lat="46.1986858" lon="13.5952025"><ele>678.0</ele><time>2026-03-22T14:03:22.345Z</time></trkpt><trkpt lat="46.1987759" lon="13.5952484"><ele>678.0</ele><time>2026-03-22T14:03:23.357Z</time></trkpt><trkpt lat="46.1988564" lon="13.595281"><ele>678.0</ele><time>2026-03-22T14:03:24.36Z</time></trkpt><trkpt lat="46.1989321" lon="13.5952793"><ele>678.0</ele><time>2026-03-22T14:03:25.352Z</time></trkpt><trkpt lat="46.1989995" lon="13.595267"><ele>678.0</ele><time>2026-03-22T14:03:26.35Z</time></trkpt><trkpt lat="46.1991051" lon="13.5952339"><ele>676.8</ele><time>2026-03-22T14:03:28.359Z</time></trkpt><trkpt lat="46.1992155" lon="13.5952061"><ele>675.5999999999999</ele><time>2026-03-22T14:03:30.342Z</time></trkpt><trkpt lat="46.1992886" lon="13.5952515"><ele>674.4000000000001</ele><time>2026-03-22T14:03:31.36Z</time></trkpt><trkpt lat="46.1993544" lon="13.5953442"><ele>673.2</ele><time>2026-03-22T14:03:32.345Z</time></trkpt><trkpt lat="46.1994233" lon="13.5954322"><ele>672.0</ele><time>2026-03-22T14:03:33.363Z</time></trkpt><trkpt lat="46.1995081" lon="13.5955031"><ele>672.0</ele><time>2026-03-22T14:03:34.349Z</time></trkpt><trkpt lat="46.1996439" lon="13.5955606"><ele>672.0</ele><time>2026-03-22T14:03:35.345Z</time></trkpt><trkpt lat="46.1997824" lon="13.5956187"><ele>672.0</ele><time>2026-03-22T14:03:36.343Z</time></trkpt><trkpt lat="46.1999101" lon="13.5956984"><ele>672.0</ele><time>2026-03-22T14:03:37.346Z</time></trkpt><trkpt lat="46.1999996" lon="13.5958186"><ele>672.6</ele><time>2026-03-22T14:03:38.347Z</time></trkpt><trkpt lat="46.2000906" lon="13.595911"><ele>673.2</ele><time>2026-03-22T14:03:39.355Z</time></trkpt><trkpt lat="46.2001519" lon="13.5960035"><ele>673.8</ele><time>2026-03-22T14:03:40.342Z</time></trkpt><trkpt lat="46.2002224" lon="13.5960559"><ele>674.4</ele><time>2026-03-22T14:03:41.351Z</time></trkpt><trkpt lat="46.2002923" lon="13.5961218"><ele>675.0</ele><time>2026-03-22T14:03:42.351Z</time></trkpt><trkpt lat="46.2003698" lon="13.5961882"><ele>675.0</ele><time>2026-03-22T14:03:43.352Z</time></trkpt><trkpt lat="46.2004672" lon="13.5962289"><ele>675.0</ele><time>2026-03-22T14:03:44.341Z</time></trkpt><trkpt lat="46.2006019" lon="13.5962959"><ele>675.0</ele><time>2026-03-22T14:03:45.368Z</time></trkpt><trkpt lat="46.2007581" lon="13.5962989"><ele>675.0</ele><time>2026-03-22T14:03:46.364Z</time></trkpt><trkpt lat="46.2009103" lon="13.5963121"><ele>678.25</ele><time>2026-03-22T14:03:47.367Z</time></trkpt><trkpt lat="46.2010449" lon="13.5963755"><ele>681.5</ele><time>2026-03-22T14:03:48.364Z</time></trkpt><trkpt lat="46.2011609" lon="13.596395"><ele>684.75</ele><time>2026-03-22T14:03:49.36Z</time></trkpt><trkpt lat="46.2012731" lon="13.5963952"><ele>688.0</ele><time>2026-03-22T14:03:50.36Z</time></trkpt><trkpt lat="46.2013862" lon="13.5964042"><ele>688.0</ele><time>2026-03-22T14:03:51.358Z</time></trkpt><trkpt lat="46.2014965" lon="13.5964109"><ele>688.0</ele><time>2026-03-22T14:03:52.347Z</time></trkpt><trkpt lat="46.2015974" lon="13.5964148"><ele>688.0</ele><time>2026-03-22T14:03:53.359Z</time></trkpt><trkpt lat="46.2017012" lon="13.5964426"><ele>688.0</ele><time>2026-03-22T14:03:54.375Z</time></trkpt><trkpt lat="46.2018033" lon="13.5965067"><ele>688.0</ele><time>2026-03-22T14:03:55.356Z</time></trkpt><trkpt lat="46.2018991" lon="13.5965971"><ele>685.75</ele><time>2026-03-22T14:03:56.357Z</time></trkpt><trkpt lat="46.2019993" lon="13.5967326"><ele>683.5</ele><time>2026-03-22T14:03:57.355Z</time></trkpt><trkpt lat="46.2020661" lon="13.5968428"><ele>681.25</ele><time>2026-03-22T14:03:58.346Z</time></trkpt><trkpt lat="46.2021454" lon="13.5969755"><ele>679.0</ele><time>2026-03-22T14:03:59.371Z</time></trkpt><trkpt lat="46.2022501" lon="13.5970646"><ele>686.0</ele><time>2026-03-22T14:04:00.355Z</time></trkpt><trkpt lat="46.2023571" lon="13.5971649"><ele>693.0</ele><time>2026-03-22T14:04:01.358Z</time></trkpt><trkpt lat="46.2024464" lon="13.5972648"><ele>700.0</ele><time>2026-03-22T14:04:02.353Z</time></trkpt><trkpt lat="46.2025008" lon="13.597402"><ele>707.0</ele><time>2026-03-22T14:04:03.351Z</time></trkpt><trkpt lat="46.20255" lon="13.5975401"><ele>707.0</ele><time>2026-03-22T14:04:04.378Z</time></trkpt><trkpt lat="46.2025827" lon="13.5976795"><ele>707.0</ele><time>2026-03-22T14:04:05.371Z</time></trkpt><trkpt lat="46.2026031" lon="13.5978081"><ele>707.0</ele><time>2026-03-22T14:04:06.344Z</time></trkpt><trkpt lat="46.2026391" lon="13.5979255"><ele>707.0</ele><time>2026-03-22T14:04:07.343Z</time></trkpt><trkpt lat="46.202697" lon="13.598021"><ele>707.0</ele><time>2026-03-22T14:04:08.345Z</time></trkpt><trkpt lat="46.2027675" lon="13.5980978"><ele>705.5714285714286</ele><time>2026-03-22T14:04:09.359Z</time></trkpt><trkpt lat="46.2028097" lon="13.598205"><ele>704.1428571428571</ele><time>2026-03-22T14:04:10.356Z</time></trkpt><trkpt lat="46.2028437" lon="13.5983156"><ele>702.7142857142858</ele><time>2026-03-22T14:04:11.382Z</time></trkpt><trkpt lat="46.2028662" lon="13.5984122"><ele>701.2857142857142</ele><time>2026-03-22T14:04:12.35Z</time></trkpt><trkpt lat="46.2028823" lon="13.598503"><ele>699.8571428571429</ele><time>2026-03-22T14:04:13.381Z</time></trkpt><trkpt lat="46.2029002" lon="13.5985981"><ele>698.4285714285714</ele><time>2026-03-22T14:04:14.345Z</time></trkpt><trkpt lat="46.2028686" lon="13.5986962"><ele>697.0</ele><time>2026-03-22T14:04:15.351Z</time></trkpt><trkpt lat="46.2028217" lon="13.5987938"><ele>696.8333333333334</ele><time>2026-03-22T14:04:16.355Z</time></trkpt><trkpt lat="46.2027889" lon="13.5988943"><ele>696.6666666666667</ele><time>2026-03-22T14:04:17.351Z</time></trkpt><trkpt lat="46.2027484" lon="13.5989749"><ele>696.5</ele><time>2026-03-22T14:04:18.369Z</time></trkpt><trkpt lat="46.2026699" lon="13.5990925"><ele>696.3333333333334</ele><time>2026-03-22T14:04:20.347Z</time></trkpt><trkpt lat="46.2026946" lon="13.5991913"><ele>696.1666666666666</ele><time>2026-03-22T14:04:21.342Z</time></trkpt><trkpt lat="46.2027259" lon="13.5992764"><ele>696.0</ele><time>2026-03-22T14:04:22.348Z</time></trkpt><trkpt lat="46.202785" lon="13.5993404"><ele>696.0</ele><time>2026-03-22T14:04:23.351Z</time></trkpt><trkpt lat="46.202861" lon="13.5994442"><ele>696.0</ele><time>2026-03-22T14:04:25.353Z</time></trkpt><trkpt lat="46.2029768" lon="13.5995053"><ele>696.0</ele><time>2026-03-22T14:04:27.363Z</time></trkpt><trkpt lat="46.2030552" lon="13.5995571"><ele>696.0</ele><time>2026-03-22T14:04:28.356Z</time></trkpt><trkpt lat="46.203152" lon="13.5995582"><ele>696.0</ele><time>2026-03-22T14:04:29.372Z</time></trkpt><trkpt lat="46.2032674" lon="13.5995559"><ele>694.0</ele><time>2026-03-22T14:04:30.338Z</time></trkpt><trkpt lat="46.2033967" lon="13.5996021"><ele>692.0</ele><time>2026-03-22T14:04:31.345Z</time></trkpt><trkpt lat="46.2035087" lon="13.5995838"><ele>690.0</ele><time>2026-03-22T14:04:32.348Z</time></trkpt><trkpt lat="46.203624" lon="13.5995546"><ele>688.0</ele><time>2026-03-22T14:04:33.356Z</time></trkpt><trkpt lat="46.2037521" lon="13.5995531"><ele>688.0</ele><time>2026-03-22T14:04:34.36Z</time></trkpt><trkpt lat="46.2038748" lon="13.5995563"><ele>688.0</ele><time>2026-03-22T14:04:35.362Z</time></trkpt><trkpt lat="46.2039923" lon="13.5995667"><ele>688.0</ele><time>2026-03-22T14:04:36.347Z</time></trkpt><trkpt lat="46.2041067" lon="13.5995332"><ele>688.0</ele><time>2026-03-22T14:04:37.361Z</time></trkpt><trkpt lat="46.2042211" lon="13.5994761"><ele>689.5</ele><time>2026-03-22T14:04:38.369Z</time></trkpt><trkpt lat="46.2043391" lon="13.5994078"><ele>691.0</ele><time>2026-03-22T14:04:39.373Z</time></trkpt><trkpt lat="46.2044658" lon="13.5993587"><ele>692.5</ele><time>2026-03-22T14:04:40.351Z</time></trkpt><trkpt lat="46.2045863" lon="13.5993019"><ele>694.0</ele><time>2026-03-22T14:04:41.354Z</time></trkpt><trkpt lat="46.2046973" lon="13.5992341"><ele>694.0</ele><time>2026-03-22T14:04:42.345Z</time></trkpt><trkpt lat="46.2048127" lon="13.5991945"><ele>694.0</ele><time>2026-03-22T14:04:43.352Z</time></trkpt><trkpt lat="46.2049251" lon="13.5991659"><ele>694.0</ele><time>2026-03-22T14:04:44.369Z</time></trkpt><trkpt lat="46.2050371" lon="13.5991585"><ele>694.0</ele><time>2026-03-22T14:04:45.377Z</time></trkpt><trkpt lat="46.2051417" lon="13.5991572"><ele>694.0</ele><time>2026-03-22T14:04:46.352Z</time></trkpt><trkpt lat="46.2052478" lon="13.5991718"><ele>690.75</ele><time>2026-03-22T14:04:47.356Z</time></trkpt><trkpt lat="46.2053676" lon="13.5991889"><ele>687.5</ele><time>2026-03-22T14:04:48.349Z</time></trkpt><trkpt lat="46.2055137" lon="13.5992164"><ele>684.25</ele><time>2026-03-22T14:04:49.354Z</time></trkpt><trkpt lat="46.2056764" lon="13.5992555"><ele>681.0</ele><time>2026-03-22T14:04:50.36Z</time></trkpt><trkpt lat="46.2058347" lon="13.5992945"><ele>681.0</ele><time>2026-03-22T14:04:51.37Z</time></trkpt><trkpt lat="46.2059905" lon="13.5993372"><ele>681.0</ele><time>2026-03-22T14:04:52.348Z</time></trkpt><trkpt lat="46.20615" lon="13.5993557"><ele>681.0</ele><time>2026-03-22T14:04:53.371Z</time></trkpt><trkpt lat="46.2063127" lon="13.5993577"><ele>681.0</ele><time>2026-03-22T14:04:54.352Z</time></trkpt><trkpt lat="46.2064756" lon="13.5993387"><ele>681.0</ele><time>2026-03-22T14:04:55.348Z</time></trkpt><trkpt lat="46.2066381" lon="13.5993159"><ele>681.0</ele><time>2026-03-22T14:04:56.348Z</time></trkpt><trkpt lat="46.2067944" lon="13.5992724"><ele>680.6666666666666</ele><time>2026-03-22T14:04:57.357Z</time></trkpt><trkpt lat="46.206948" lon="13.5992251"><ele>680.3333333333333</ele><time>2026-03-22T14:04:58.356Z</time></trkpt><trkpt lat="46.2071011" lon="13.5991939"><ele>680.0</ele><time>2026-03-22T14:04:59.352Z</time></trkpt><trkpt lat="46.2072517" lon="13.5991708"><ele>680.0</ele><time>2026-03-22T14:05:00.354Z</time></trkpt><trkpt lat="46.2073968" lon="13.5991598"><ele>680.0</ele><time>2026-03-22T14:05:01.35Z</time></trkpt><trkpt lat="46.2075341" lon="13.5991103"><ele>680.0</ele><time>2026-03-22T14:05:02.363Z</time></trkpt><trkpt lat="46.2076612" lon="13.5990139"><ele>680.0</ele><time>2026-03-22T14:05:03.36Z</time></trkpt><trkpt lat="46.2077793" lon="13.5989136"><ele>680.0</ele><time>2026-03-22T14:05:04.363Z</time></trkpt><trkpt lat="46.2078946" lon="13.5988275"><ele>680.0</ele><time>2026-03-22T14:05:05.378Z</time></trkpt><trkpt lat="46.2080141" lon="13.5987756"><ele>680.0</ele><time>2026-03-22T14:05:06.354Z</time></trkpt><trkpt lat="46.2081368" lon="13.5987421"><ele>680.0</ele><time>2026-03-22T14:05:07.346Z</time></trkpt><trkpt lat="46.2082523" lon="13.5987193"><ele>679.5</ele><time>2026-03-22T14:05:08.35Z</time></trkpt><trkpt lat="46.2083436" lon="13.5987224"><ele>679.0</ele><time>2026-03-22T14:05:09.352Z</time></trkpt><trkpt lat="46.2084295" lon="13.5987644"><ele>678.5</ele><time>2026-03-22T14:05:10.362Z</time></trkpt><trkpt lat="46.2085106" lon="13.5987824"><ele>678.0</ele><time>2026-03-22T14:05:11.366Z</time></trkpt><trkpt lat="46.2085901" lon="13.5988356"><ele>677.5</ele><time>2026-03-22T14:05:12.355Z</time></trkpt><trkpt lat="46.2086757" lon="13.598891"><ele>677.0</ele><time>2026-03-22T14:05:13.36Z</time></trkpt><trkpt lat="46.2087701" lon="13.5989654"><ele>677.0</ele><time>2026-03-22T14:05:14.346Z</time></trkpt><trkpt lat="46.2088744" lon="13.5990075"><ele>677.0</ele><time>2026-03-22T14:05:15.347Z</time></trkpt><trkpt lat="46.2089838" lon="13.5990251"><ele>677.0</ele><time>2026-03-22T14:05:16.355Z</time></trkpt><trkpt lat="46.2090932" lon="13.5990395"><ele>677.0</ele><time>2026-03-22T14:05:17.353Z</time></trkpt><trkpt lat="46.2092033" lon="13.5990662"><ele>677.0</ele><time>2026-03-22T14:05:18.351Z</time></trkpt><trkpt lat="46.2093135" lon="13.5990813"><ele>676.6</ele><time>2026-03-22T14:05:19.357Z</time></trkpt><trkpt lat="46.2094145" lon="13.5990868"><ele>676.2</ele><time>2026-03-22T14:05:20.349Z</time></trkpt><trkpt lat="46.209506" lon="13.5990569"><ele>675.8</ele><time>2026-03-22T14:05:21.352Z</time></trkpt><trkpt lat="46.2095961" lon="13.5989712"><ele>675.4</ele><time>2026-03-22T14:05:22.35Z</time></trkpt><trkpt lat="46.2096755" lon="13.5988672"><ele>675.0</ele><time>2026-03-22T14:05:23.367Z</time></trkpt><trkpt lat="46.2097546" lon="13.5987567"><ele>675.0</ele><time>2026-03-22T14:05:24.347Z</time></trkpt><trkpt lat="46.2098412" lon="13.59864"><ele>675.0</ele><time>2026-03-22T14:05:25.361Z</time></trkpt><trkpt lat="46.2099319" lon="13.598543"><ele>675.0</ele><time>2026-03-22T14:05:26.353Z</time></trkpt><trkpt lat="46.2100363" lon="13.5984934"><ele>675.0</ele><time>2026-03-22T14:05:27.345Z</time></trkpt><trkpt lat="46.210149" lon="13.5984574"><ele>675.0</ele><time>2026-03-22T14:05:28.344Z</time></trkpt><trkpt lat="46.2102955" lon="13.5984562"><ele>675.0</ele><time>2026-03-22T14:05:29.357Z</time></trkpt><trkpt lat="46.21044" lon="13.5984247"><ele>675.0</ele><time>2026-03-22T14:05:30.346Z</time></trkpt><trkpt lat="46.2105547" lon="13.5983417"><ele>675.0</ele><time>2026-03-22T14:05:31.343Z</time></trkpt><trkpt lat="46.2106594" lon="13.59821"><ele>672.2</ele><time>2026-03-22T14:05:32.346Z</time></trkpt><trkpt lat="46.210716" lon="13.598067"><ele>669.4</ele><time>2026-03-22T14:05:33.344Z</time></trkpt><trkpt lat="46.2107549" lon="13.5979499"><ele>666.5999999999999</ele><time>2026-03-22T14:05:34.348Z</time></trkpt><trkpt lat="46.2108207" lon="13.5978521"><ele>663.8</ele><time>2026-03-22T14:05:35.36Z</time></trkpt><trkpt lat="46.2109208" lon="13.5977537"><ele>661.0</ele><time>2026-03-22T14:05:36.346Z</time></trkpt><trkpt lat="46.2110507" lon="13.5976618"><ele>661.0</ele><time>2026-03-22T14:05:37.348Z</time></trkpt><trkpt lat="46.2112129" lon="13.5975602"><ele>661.0</ele><time>2026-03-22T14:05:38.344Z</time></trkpt><trkpt lat="46.2113833" lon="13.597444"><ele>661.0</ele><time>2026-03-22T14:05:39.361Z</time></trkpt><trkpt lat="46.2115309" lon="13.5973159"><ele>656.6666666666667</ele><time>2026-03-22T14:05:40.351Z</time></trkpt><trkpt lat="46.211664" lon="13.5971833"><ele>652.3333333333334</ele><time>2026-03-22T14:05:41.337Z</time></trkpt><trkpt lat="46.2117823" lon="13.5970285"><ele>648.0</ele><time>2026-03-22T14:05:42.334Z</time></trkpt><trkpt lat="46.2118969" lon="13.5968699"><ele>648.0</ele><time>2026-03-22T14:05:43.339Z</time></trkpt><trkpt lat="46.2120123" lon="13.5966966"><ele>648.0</ele><time>2026-03-22T14:05:44.341Z</time></trkpt><trkpt lat="46.2121448" lon="13.5965614"><ele>648.0</ele><time>2026-03-22T14:05:45.348Z</time></trkpt><trkpt lat="46.2122562" lon="13.5964283"><ele>641.75</ele><time>2026-03-22T14:05:46.349Z</time></trkpt><trkpt lat="46.2123351" lon="13.5962756"><ele>635.5</ele><time>2026-03-22T14:05:47.358Z</time></trkpt><trkpt lat="46.2124155" lon="13.5961462"><ele>629.25</ele><time>2026-03-22T14:05:48.343Z</time></trkpt><trkpt lat="46.21251" lon="13.5960298"><ele>623.0</ele><time>2026-03-22T14:05:49.353Z</time></trkpt><trkpt lat="46.2126049" lon="13.5959431"><ele>623.0</ele><time>2026-03-22T14:05:50.345Z</time></trkpt><trkpt lat="46.2126943" lon="13.5958767"><ele>623.0</ele><time>2026-03-22T14:05:51.356Z</time></trkpt><trkpt lat="46.2127811" lon="13.5958223"><ele>623.0</ele><time>2026-03-22T14:05:52.371Z</time></trkpt><trkpt lat="46.2128481" lon="13.5957311"><ele>623.0</ele><time>2026-03-22T14:05:53.348Z</time></trkpt><trkpt lat="46.2129192" lon="13.5956198"><ele>623.0</ele><time>2026-03-22T14:05:54.368Z</time></trkpt><trkpt lat="46.2129552" lon="13.5954487"><ele>621.75</ele><time>2026-03-22T14:05:55.355Z</time></trkpt><trkpt lat="46.2129706" lon="13.5952601"><ele>620.5</ele><time>2026-03-22T14:05:56.357Z</time></trkpt><trkpt lat="46.212951" lon="13.5950616"><ele>619.25</ele><time>2026-03-22T14:05:57.361Z</time></trkpt><trkpt lat="46.2129289" lon="13.5948789"><ele>618.0</ele><time>2026-03-22T14:05:58.366Z</time></trkpt><trkpt lat="46.212923" lon="13.5947208"><ele>618.0</ele><time>2026-03-22T14:05:59.368Z</time></trkpt><trkpt lat="46.212922" lon="13.5945926"><ele>618.0</ele><time>2026-03-22T14:06:00.361Z</time></trkpt><trkpt lat="46.2129451" lon="13.5944947"><ele>618.0</ele><time>2026-03-22T14:06:01.342Z</time></trkpt><trkpt lat="46.2129021" lon="13.5944075"><ele>618.0</ele><time>2026-03-22T14:06:02.358Z</time></trkpt><trkpt lat="46.2128624" lon="13.5943225"><ele>618.0</ele><time>2026-03-22T14:06:03.358Z</time></trkpt><trkpt lat="46.2127973" lon="13.5942244"><ele>618.0</ele><time>2026-03-22T14:06:04.358Z</time></trkpt><trkpt lat="46.2126917" lon="13.594128"><ele>615.6666666666666</ele><time>2026-03-22T14:06:05.37Z</time></trkpt><trkpt lat="46.2126042" lon="13.5940276"><ele>613.3333333333334</ele><time>2026-03-22T14:06:06.36Z</time></trkpt><trkpt lat="46.2125363" lon="13.5939451"><ele>611.0</ele><time>2026-03-22T14:06:07.35Z</time></trkpt><trkpt lat="46.2124706" lon="13.5938883"><ele>608.6666666666667</ele><time>2026-03-22T14:06:08.346Z</time></trkpt><trkpt lat="46.2124182" lon="13.5938312"><ele>606.3333333333334</ele><time>2026-03-22T14:06:09.351Z</time></trkpt><trkpt lat="46.2124377" lon="13.593682"><ele>604.0</ele><time>2026-03-22T14:06:11.363Z</time></trkpt><trkpt lat="46.2125174" lon="13.593638"><ele>600.75</ele><time>2026-03-22T14:06:12.359Z</time></trkpt><trkpt lat="46.2126282" lon="13.5936214"><ele>597.5</ele><time>2026-03-22T14:06:13.353Z</time></trkpt><trkpt lat="46.2127684" lon="13.5936294"><ele>594.25</ele><time>2026-03-22T14:06:14.35Z</time></trkpt><trkpt lat="46.212911" lon="13.5936369"><ele>591.0</ele><time>2026-03-22T14:06:15.351Z</time></trkpt><trkpt lat="46.2130218" lon="13.5935893"><ele>591.0</ele><time>2026-03-22T14:06:16.364Z</time></trkpt><trkpt lat="46.2131253" lon="13.5935584"><ele>591.0</ele><time>2026-03-22T14:06:17.358Z</time></trkpt><trkpt lat="46.2132328" lon="13.5935472"><ele>591.0</ele><time>2026-03-22T14:06:18.37Z</time></trkpt><trkpt lat="46.2133703" lon="13.5936033"><ele>591.0</ele><time>2026-03-22T14:06:19.343Z</time></trkpt><trkpt lat="46.213502" lon="13.5937061"><ele>590.0</ele><time>2026-03-22T14:06:20.343Z</time></trkpt><trkpt lat="46.2136612" lon="13.593876"><ele>589.0</ele><time>2026-03-22T14:06:21.343Z</time></trkpt><trkpt lat="46.2138035" lon="13.5939901"><ele>588.0</ele><time>2026-03-22T14:06:22.352Z</time></trkpt><trkpt lat="46.2139655" lon="13.5940782"><ele>585.4</ele><time>2026-03-22T14:06:23.363Z</time></trkpt><trkpt lat="46.2140681" lon="13.5940902"><ele>582.8</ele><time>2026-03-22T14:06:24.377Z</time></trkpt><trkpt lat="46.2141731" lon="13.5941564"><ele>580.2</ele><time>2026-03-22T14:06:25.349Z</time></trkpt><trkpt lat="46.2142421" lon="13.5942318"><ele>577.6</ele><time>2026-03-22T14:06:26.337Z</time></trkpt><trkpt lat="46.214312" lon="13.5943909"><ele>575.0</ele><time>2026-03-22T14:06:27.358Z</time></trkpt><trkpt lat="46.2143847" lon="13.594597"><ele>575.0</ele><time>2026-03-22T14:06:28.35Z</time></trkpt><trkpt lat="46.214436" lon="13.5948291"><ele>575.0</ele><time>2026-03-22T14:06:29.372Z</time></trkpt><trkpt lat="46.2144624" lon="13.5950429"><ele>575.0</ele><time>2026-03-22T14:06:30.359Z</time></trkpt><trkpt lat="46.2144877" lon="13.5952153"><ele>575.0</ele><time>2026-03-22T14:06:31.363Z</time></trkpt><trkpt lat="46.2144764" lon="13.5953673"><ele>573.8333333333333</ele><time>2026-03-22T14:06:32.357Z</time></trkpt><trkpt lat="46.2144598" lon="13.5954829"><ele>572.6666666666666</ele><time>2026-03-22T14:06:33.364Z</time></trkpt><trkpt lat="46.2144711" lon="13.5955813"><ele>571.5</ele><time>2026-03-22T14:06:34.357Z</time></trkpt><trkpt lat="46.2145019" lon="13.5956706"><ele>570.3333333333334</ele><time>2026-03-22T14:06:35.374Z</time></trkpt><trkpt lat="46.2146091" lon="13.5956898"><ele>569.1666666666667</ele><time>2026-03-22T14:06:37.347Z</time></trkpt><trkpt lat="46.2146637" lon="13.5956077"><ele>568.0</ele><time>2026-03-22T14:06:38.361Z</time></trkpt><trkpt lat="46.2147303" lon="13.595473"><ele>569.75</ele><time>2026-03-22T14:06:39.345Z</time></trkpt><trkpt lat="46.2148042" lon="13.595297"><ele>571.5</ele><time>2026-03-22T14:06:40.342Z</time></trkpt><trkpt lat="46.2148976" lon="13.595136"><ele>573.25</ele><time>2026-03-22T14:06:41.348Z</time></trkpt><trkpt lat="46.2149748" lon="13.5949883"><ele>575.0</ele><time>2026-03-22T14:06:42.351Z</time></trkpt><trkpt lat="46.2150331" lon="13.5948506"><ele>568.8</ele><time>2026-03-22T14:06:43.353Z</time></trkpt><trkpt lat="46.2150752" lon="13.5946978"><ele>562.6</ele><time>2026-03-22T14:06:44.342Z</time></trkpt><trkpt lat="46.2151147" lon="13.5945428"><ele>556.4</ele><time>2026-03-22T14:06:45.357Z</time></trkpt><trkpt lat="46.2151342" lon="13.5944202"><ele>550.2</ele><time>2026-03-22T14:06:46.342Z</time></trkpt><trkpt lat="46.2151628" lon="13.5943332"><ele>544.0</ele><time>2026-03-22T14:06:47.355Z</time></trkpt><trkpt lat="46.2152419" lon="13.5942428"><ele>544.0</ele><time>2026-03-22T14:06:49.358Z</time></trkpt><trkpt lat="46.2153024" lon="13.5942905"><ele>544.0</ele><time>2026-03-22T14:06:50.339Z</time></trkpt><trkpt lat="46.2153357" lon="13.5944247"><ele>544.0</ele><time>2026-03-22T14:06:51.341Z</time></trkpt><trkpt lat="46.2153675" lon="13.5946424"><ele>544.0</ele><time>2026-03-22T14:06:52.34Z</time></trkpt><trkpt lat="46.2154417" lon="13.5949644"><ele>543.0</ele><time>2026-03-22T14:06:53.341Z</time></trkpt><trkpt lat="46.2155333" lon="13.5952922"><ele>542.0</ele><time>2026-03-22T14:06:54.349Z</time></trkpt><trkpt lat="46.2156032" lon="13.5955625"><ele>541.0</ele><time>2026-03-22T14:06:55.359Z</time></trkpt><trkpt lat="46.215628" lon="13.5957934"><ele>539.75</ele><time>2026-03-22T14:06:56.34Z</time></trkpt><trkpt lat="46.2156092" lon="13.5960234"><ele>538.5</ele><time>2026-03-22T14:06:57.361Z</time></trkpt><trkpt lat="46.2155562" lon="13.596229"><ele>537.25</ele><time>2026-03-22T14:06:58.359Z</time></trkpt><trkpt lat="46.2155276" lon="13.5964111"><ele>536.0</ele><time>2026-03-22T14:06:59.352Z</time></trkpt><trkpt lat="46.2155099" lon="13.5965655"><ele>533.2</ele><time>2026-03-22T14:07:00.351Z</time></trkpt><trkpt lat="46.2155072" lon="13.5967072"><ele>530.4000000000001</ele><time>2026-03-22T14:07:01.359Z</time></trkpt><trkpt lat="46.215535" lon="13.5968398"><ele>527.6</ele><time>2026-03-22T14:07:02.357Z</time></trkpt><trkpt lat="46.2155867" lon="13.596941"><ele>524.8000000000001</ele><time>2026-03-22T14:07:03.352Z</time></trkpt><trkpt lat="46.2156716" lon="13.5969851"><ele>522.0</ele><time>2026-03-22T14:07:04.338Z</time></trkpt><trkpt lat="46.2157592" lon="13.5969926"><ele>518.0</ele><time>2026-03-22T14:07:05.349Z</time></trkpt><trkpt lat="46.215833" lon="13.5969659"><ele>514.0</ele><time>2026-03-22T14:07:06.357Z</time></trkpt><trkpt lat="46.2158977" lon="13.5968875"><ele>510.00000000000006</ele><time>2026-03-22T14:07:07.355Z</time></trkpt><trkpt lat="46.2159516" lon="13.5967856"><ele>506.0</ele><time>2026-03-22T14:07:08.345Z</time></trkpt><trkpt lat="46.2159914" lon="13.5966435"><ele>502.0</ele><time>2026-03-22T14:07:09.361Z</time></trkpt><trkpt lat="46.2160449" lon="13.596461"><ele>502.0</ele><time>2026-03-22T14:07:10.345Z</time></trkpt><trkpt lat="46.2161088" lon="13.5962901"><ele>502.0</ele><time>2026-03-22T14:07:11.352Z</time></trkpt><trkpt lat="46.2161841" lon="13.5961441"><ele>502.0</ele><time>2026-03-22T14:07:12.343Z</time></trkpt><trkpt lat="46.2162632" lon="13.5960089"><ele>502.0</ele><time>2026-03-22T14:07:13.345Z</time></trkpt><trkpt lat="46.2163453" lon="13.5958901"><ele>504.20000000000005</ele><time>2026-03-22T14:07:14.355Z</time></trkpt><trkpt lat="46.2164266" lon="13.5957847"><ele>506.40000000000003</ele><time>2026-03-22T14:07:15.345Z</time></trkpt><trkpt lat="46.216513" lon="13.5956996"><ele>508.59999999999997</ele><time>2026-03-22T14:07:16.341Z</time></trkpt><trkpt lat="46.2166054" lon="13.5956436"><ele>510.79999999999995</ele><time>2026-03-22T14:07:17.342Z</time></trkpt><trkpt lat="46.2167169" lon="13.5956718"><ele>513.0</ele><time>2026-03-22T14:07:18.337Z</time></trkpt><trkpt lat="46.2168222" lon="13.595731"><ele>507.59999999999997</ele><time>2026-03-22T14:07:19.342Z</time></trkpt><trkpt lat="46.216925" lon="13.5958121"><ele>502.19999999999993</ele><time>2026-03-22T14:07:20.342Z</time></trkpt><trkpt lat="46.2170271" lon="13.5958896"><ele>496.8</ele><time>2026-03-22T14:07:21.34Z</time></trkpt><trkpt lat="46.2171264" lon="13.5959209"><ele>491.4</ele><time>2026-03-22T14:07:22.334Z</time></trkpt><trkpt lat="46.2172144" lon="13.595895"><ele>486.0</ele><time>2026-03-22T14:07:23.34Z</time></trkpt><trkpt lat="46.2172836" lon="13.5958023"><ele>483.25</ele><time>2026-03-22T14:07:24.336Z</time></trkpt><trkpt lat="46.2173784" lon="13.5956454"><ele>480.5</ele><time>2026-03-22T14:07:25.355Z</time></trkpt><trkpt lat="46.2174771" lon="13.5954496"><ele>477.75</ele><time>2026-03-22T14:07:26.334Z</time></trkpt><trkpt lat="46.2175904" lon="13.5953434"><ele>475.0</ele><time>2026-03-22T14:07:27.341Z</time></trkpt><trkpt lat="46.2177019" lon="13.5952623"><ele>475.0</ele><time>2026-03-22T14:07:28.344Z</time></trkpt><trkpt lat="46.2177559" lon="13.5951095"><ele>475.0</ele><time>2026-03-22T14:07:29.363Z</time></trkpt><trkpt lat="46.2178018" lon="13.5949316"><ele>475.0</ele><time>2026-03-22T14:07:30.339Z</time></trkpt><trkpt lat="46.217803" lon="13.5947574"><ele>475.0</ele><time>2026-03-22T14:07:31.353Z</time></trkpt><trkpt lat="46.2178132" lon="13.5945886"><ele>473.25</ele><time>2026-03-22T14:07:32.349Z</time></trkpt><trkpt lat="46.2178541" lon="13.5944331"><ele>471.5</ele><time>2026-03-22T14:07:33.348Z</time></trkpt><trkpt lat="46.2179156" lon="13.5942904"><ele>469.75</ele><time>2026-03-22T14:07:34.357Z</time></trkpt><trkpt lat="46.2179679" lon="13.5941611"><ele>468.0</ele><time>2026-03-22T14:07:35.369Z</time></trkpt><trkpt lat="46.2182038" lon="13.5938452"><ele>463.66666666666663</ele><time>2026-03-22T14:07:37.349Z</time></trkpt><trkpt lat="46.2183566" lon="13.59373"><ele>459.3333333333333</ele><time>2026-03-22T14:07:38.365Z</time></trkpt><trkpt lat="46.2185048" lon="13.5935848"><ele>455.0</ele><time>2026-03-22T14:07:39.346Z</time></trkpt><trkpt lat="46.2186304" lon="13.5934406"><ele>454.0</ele><time>2026-03-22T14:07:40.363Z</time></trkpt><trkpt lat="46.2187559" lon="13.5933146"><ele>453.0</ele><time>2026-03-22T14:07:41.347Z</time></trkpt><trkpt lat="46.2188587" lon="13.5931744"><ele>452.0</ele><time>2026-03-22T14:07:42.347Z</time></trkpt><trkpt lat="46.2189352" lon="13.5929948"><ele>451.0</ele><time>2026-03-22T14:07:43.349Z</time></trkpt><trkpt lat="46.2190274" lon="13.5928427"><ele>448.5</ele><time>2026-03-22T14:07:44.351Z</time></trkpt><trkpt lat="46.2191339" lon="13.5927023"><ele>446.0</ele><time>2026-03-22T14:07:45.357Z</time></trkpt><trkpt lat="46.2192303" lon="13.5925393"><ele>443.5</ele><time>2026-03-22T14:07:46.35Z</time></trkpt><trkpt lat="46.219317" lon="13.5924082"><ele>441.0</ele><time>2026-03-22T14:07:47.374Z</time></trkpt><trkpt lat="46.2193773" lon="13.5923031"><ele>441.0</ele><time>2026-03-22T14:07:48.348Z</time></trkpt><trkpt lat="46.2194209" lon="13.5921929"><ele>441.0</ele><time>2026-03-22T14:07:49.352Z</time></trkpt><trkpt lat="46.219464" lon="13.5920579"><ele>441.0</ele><time>2026-03-22T14:07:50.346Z</time></trkpt><trkpt lat="46.2194881" lon="13.5919185"><ele>441.0</ele><time>2026-03-22T14:07:51.345Z</time></trkpt><trkpt lat="46.2194651" lon="13.5917913"><ele>441.0</ele><time>2026-03-22T14:07:52.359Z</time></trkpt><trkpt lat="46.2194268" lon="13.5916951"><ele>439.6</ele><time>2026-03-22T14:07:53.354Z</time></trkpt><trkpt lat="46.2193606" lon="13.5916083"><ele>438.20000000000005</ele><time>2026-03-22T14:07:54.351Z</time></trkpt><trkpt lat="46.2192732" lon="13.5915507"><ele>436.79999999999995</ele><time>2026-03-22T14:07:55.358Z</time></trkpt><trkpt lat="46.2191789" lon="13.5914814"><ele>435.4</ele><time>2026-03-22T14:07:56.342Z</time></trkpt><trkpt lat="46.219071" lon="13.5913754"><ele>434.0</ele><time>2026-03-22T14:07:57.354Z</time></trkpt><trkpt lat="46.2186589" lon="13.5911072"><ele>432.25</ele><time>2026-03-22T14:07:58.344Z</time></trkpt><trkpt lat="46.2184821" lon="13.5910337"><ele>430.5</ele><time>2026-03-22T14:07:59.35Z</time></trkpt><trkpt lat="46.2183561" lon="13.5909686"><ele>428.75</ele><time>2026-03-22T14:08:00.351Z</time></trkpt><trkpt lat="46.2182525" lon="13.5909116"><ele>427.0</ele><time>2026-03-22T14:08:01.376Z</time></trkpt><trkpt lat="46.2181496" lon="13.5908326"><ele>429.83333333333337</ele><time>2026-03-22T14:08:02.366Z</time></trkpt><trkpt lat="46.2180418" lon="13.5907407"><ele>432.6666666666667</ele><time>2026-03-22T14:08:03.369Z</time></trkpt><trkpt lat="46.2179761" lon="13.5906906"><ele>435.5</ele><time>2026-03-22T14:08:04.353Z</time></trkpt><trkpt lat="46.2179082" lon="13.5906355"><ele>438.33333333333337</ele><time>2026-03-22T14:08:05.359Z</time></trkpt><trkpt lat="46.2178478" lon="13.5905967"><ele>441.1666666666667</ele><time>2026-03-22T14:08:06.344Z</time></trkpt><trkpt lat="46.2177804" lon="13.5905659"><ele>444.0</ele><time>2026-03-22T14:08:08.348Z</time></trkpt><trkpt lat="46.2178795" lon="13.5904492"><ele>444.0</ele><time>2026-03-22T14:08:10.354Z</time></trkpt><trkpt lat="46.2180041" lon="13.590345"><ele>444.0</ele><time>2026-03-22T14:08:11.363Z</time></trkpt><trkpt lat="46.2181203" lon="13.5903196"><ele>444.0</ele><time>2026-03-22T14:08:12.364Z</time></trkpt><trkpt lat="46.2182243" lon="13.5903417"><ele>444.0</ele><time>2026-03-22T14:08:13.358Z</time></trkpt><trkpt lat="46.218356" lon="13.5904252"><ele>438.33333333333337</ele><time>2026-03-22T14:08:14.352Z</time></trkpt><trkpt lat="46.2184886" lon="13.5904807"><ele>432.6666666666667</ele><time>2026-03-22T14:08:15.364Z</time></trkpt><trkpt lat="46.2186803" lon="13.5905974"><ele>427.0</ele><time>2026-03-22T14:08:16.36Z</time></trkpt><trkpt lat="46.2188232" lon="13.5907123"><ele>427.0</ele><time>2026-03-22T14:08:17.349Z</time></trkpt><trkpt lat="46.2189062" lon="13.5907193"><ele>427.00000000000006</ele><time>2026-03-22T14:08:18.348Z</time></trkpt><trkpt lat="46.2189873" lon="13.590685"><ele>427.00000000000006</ele><time>2026-03-22T14:08:19.354Z</time></trkpt><trkpt lat="46.2190837" lon="13.5905898"><ele>427.0</ele><time>2026-03-22T14:08:20.359Z</time></trkpt><trkpt lat="46.2191845" lon="13.5904943"><ele>427.0</ele><time>2026-03-22T14:08:21.364Z</time></trkpt><trkpt lat="46.2192937" lon="13.5904501"><ele>423.75</ele><time>2026-03-22T14:08:22.357Z</time></trkpt><trkpt lat="46.2194093" lon="13.5904487"><ele>420.5</ele><time>2026-03-22T14:08:23.373Z</time></trkpt><trkpt lat="46.2195209" lon="13.5905577"><ele>417.25</ele><time>2026-03-22T14:08:24.358Z</time></trkpt><trkpt lat="46.2196985" lon="13.5906782"><ele>414.0</ele><time>2026-03-22T14:08:25.345Z</time></trkpt><trkpt lat="46.2198554" lon="13.5908073"><ele>410.0</ele><time>2026-03-22T14:08:26.355Z</time></trkpt><trkpt lat="46.219948" lon="13.5908566"><ele>406.0</ele><time>2026-03-22T14:08:27.358Z</time></trkpt><trkpt lat="46.2200886" lon="13.5908819"><ele>402.0</ele><time>2026-03-22T14:08:28.357Z</time></trkpt><trkpt lat="46.2201987" lon="13.5908867"><ele>398.0</ele><time>2026-03-22T14:08:29.373Z</time></trkpt><trkpt lat="46.2203091" lon="13.5908226"><ele>398.0</ele><time>2026-03-22T14:08:30.345Z</time></trkpt><trkpt lat="46.2204124" lon="13.5907281"><ele>398.0</ele><time>2026-03-22T14:08:31.35Z</time></trkpt><trkpt lat="46.2204949" lon="13.5906036"><ele>398.0</ele><time>2026-03-22T14:08:32.344Z</time></trkpt><trkpt lat="46.2205754" lon="13.5904922"><ele>398.0</ele><time>2026-03-22T14:08:33.359Z</time></trkpt><trkpt lat="46.2206665" lon="13.5904015"><ele>399.79999999999995</ele><time>2026-03-22T14:08:34.332Z</time></trkpt><trkpt lat="46.2207521" lon="13.5903325"><ele>401.6</ele><time>2026-03-22T14:08:35.346Z</time></trkpt><trkpt lat="46.2208229" lon="13.5902675"><ele>403.4</ele><time>2026-03-22T14:08:36.337Z</time></trkpt><trkpt lat="46.2209097" lon="13.5902668"><ele>405.20000000000005</ele><time>2026-03-22T14:08:37.379Z</time></trkpt><trkpt lat="46.2210031" lon="13.5903233"><ele>407.0</ele><time>2026-03-22T14:08:38.368Z</time></trkpt><trkpt lat="46.2211191" lon="13.5903519"><ele>407.0</ele><time>2026-03-22T14:08:39.351Z</time></trkpt><trkpt lat="46.2212752" lon="13.5903194"><ele>407.0</ele><time>2026-03-22T14:08:40.357Z</time></trkpt><trkpt lat="46.2214518" lon="13.5902872"><ele>407.0</ele><time>2026-03-22T14:08:41.367Z</time></trkpt><trkpt lat="46.2216339" lon="13.5902766"><ele>402.3333333333333</ele><time>2026-03-22T14:08:42.36Z</time></trkpt><trkpt lat="46.2218103" lon="13.5902755"><ele>397.66666666666663</ele><time>2026-03-22T14:08:43.362Z</time></trkpt><trkpt lat="46.2219887" lon="13.5902972"><ele>393.0</ele><time>2026-03-22T14:08:44.347Z</time></trkpt><trkpt lat="46.222167" lon="13.5903149"><ele>385.6666666666667</ele><time>2026-03-22T14:08:45.378Z</time></trkpt><trkpt lat="46.2223486" lon="13.5902989"><ele>378.33333333333337</ele><time>2026-03-22T14:08:46.349Z</time></trkpt><trkpt lat="46.222524" lon="13.5902363"><ele>371.0</ele><time>2026-03-22T14:08:47.352Z</time></trkpt><trkpt lat="46.2226968" lon="13.5901588"><ele>371.0</ele><time>2026-03-22T14:08:48.341Z</time></trkpt><trkpt lat="46.2228514" lon="13.5900524"><ele>371.0</ele><time>2026-03-22T14:08:49.347Z</time></trkpt><trkpt lat="46.222998" lon="13.5899412"><ele>371.0</ele><time>2026-03-22T14:08:50.335Z</time></trkpt><trkpt lat="46.2231751" lon="13.5899145"><ele>365.33333333333337</ele><time>2026-03-22T14:08:51.354Z</time></trkpt><trkpt lat="46.2233633" lon="13.5899532"><ele>359.6666666666667</ele><time>2026-03-22T14:08:52.349Z</time></trkpt><trkpt lat="46.2235437" lon="13.5900125"><ele>354.0</ele><time>2026-03-22T14:08:53.35Z</time></trkpt><trkpt lat="46.223693" lon="13.5899568"><ele>354.0</ele><time>2026-03-22T14:08:54.351Z</time></trkpt><trkpt lat="46.2238132" lon="13.5898699"><ele>354.0</ele><time>2026-03-22T14:08:55.356Z</time></trkpt><trkpt lat="46.2239369" lon="13.5898215"><ele>354.0</ele><time>2026-03-22T14:08:56.35Z</time></trkpt><trkpt lat="46.2242911" lon="13.5898466"><ele>349.3333333333333</ele><time>2026-03-22T14:08:58.352Z</time></trkpt><trkpt lat="46.224507" lon="13.5899421"><ele>344.66666666666663</ele><time>2026-03-22T14:08:59.348Z</time></trkpt><trkpt lat="46.224644" lon="13.5899696"><ele>340.0</ele><time>2026-03-22T14:09:00.356Z</time></trkpt><trkpt lat="46.224763" lon="13.5899924"><ele>336.8</ele><time>2026-03-22T14:09:01.346Z</time></trkpt><trkpt lat="46.224842" lon="13.5899623"><ele>333.6</ele><time>2026-03-22T14:09:02.355Z</time></trkpt><trkpt lat="46.2249298" lon="13.5898332"><ele>330.4</ele><time>2026-03-22T14:09:04.331Z</time></trkpt><trkpt lat="46.2249549" lon="13.5897406"><ele>327.2</ele><time>2026-03-22T14:09:05.362Z</time></trkpt><trkpt lat="46.2251185" lon="13.5897093"><ele>324.0</ele><time>2026-03-22T14:09:08.349Z</time></trkpt><trkpt lat="46.225146" lon="13.5898078"><ele>324.0</ele><time>2026-03-22T14:09:09.343Z</time></trkpt><trkpt lat="46.2251628" lon="13.5899989"><ele>324.0</ele><time>2026-03-22T14:09:10.341Z</time></trkpt><trkpt lat="46.2250951" lon="13.5901751"><ele>324.0</ele><time>2026-03-22T14:09:11.343Z</time></trkpt><trkpt lat="46.2249739" lon="13.590324"><ele>324.0</ele><time>2026-03-22T14:09:12.346Z</time></trkpt><trkpt lat="46.2248374" lon="13.5904822"><ele>324.0</ele><time>2026-03-22T14:09:13.347Z</time></trkpt><trkpt lat="46.2247056" lon="13.5906148"><ele>324.0</ele><time>2026-03-22T14:09:14.348Z</time></trkpt><trkpt lat="46.224609" lon="13.5907689"><ele>324.0</ele><time>2026-03-22T14:09:15.353Z</time></trkpt><trkpt lat="46.2245229" lon="13.5909285"><ele>324.0</ele><time>2026-03-22T14:09:16.347Z</time></trkpt><trkpt lat="46.2244496" lon="13.5911156"><ele>319.5</ele><time>2026-03-22T14:09:17.357Z</time></trkpt><trkpt lat="46.22439" lon="13.5913041"><ele>315.0</ele><time>2026-03-22T14:09:18.338Z</time></trkpt><trkpt lat="46.2243273" lon="13.5914904"><ele>310.5</ele><time>2026-03-22T14:09:19.351Z</time></trkpt><trkpt lat="46.2242886" lon="13.5916949"><ele>306.0</ele><time>2026-03-22T14:09:20.355Z</time></trkpt><trkpt lat="46.2242699" lon="13.5919111"><ele>304.0</ele><time>2026-03-22T14:09:21.359Z</time></trkpt><trkpt lat="46.2242774" lon="13.5921234"><ele>302.0</ele><time>2026-03-22T14:09:22.353Z</time></trkpt><trkpt lat="46.224306" lon="13.5923333"><ele>300.0</ele><time>2026-03-22T14:09:23.376Z</time></trkpt><trkpt lat="46.2243222" lon="13.5925112"><ele>298.0</ele><time>2026-03-22T14:09:24.337Z</time></trkpt><trkpt lat="46.2243307" lon="13.5926471"><ele>298.0</ele><time>2026-03-22T14:09:25.352Z</time></trkpt><trkpt lat="46.2243381" lon="13.5927595"><ele>298.0</ele><time>2026-03-22T14:09:26.353Z</time></trkpt><trkpt lat="46.2243777" lon="13.5928483"><ele>298.0</ele><time>2026-03-22T14:09:27.357Z</time></trkpt><trkpt lat="46.2244329" lon="13.5928945"><ele>298.0</ele><time>2026-03-22T14:09:28.354Z</time></trkpt><trkpt lat="46.224507" lon="13.5928847"><ele>298.0</ele><time>2026-03-22T14:09:29.371Z</time></trkpt><trkpt lat="46.224603" lon="13.5928155"><ele>298.0</ele><time>2026-03-22T14:09:30.345Z</time></trkpt><trkpt lat="46.2247182" lon="13.5927309"><ele>296.0</ele><time>2026-03-22T14:09:31.356Z</time></trkpt><trkpt lat="46.2248434" lon="13.592653"><ele>294.0</ele><time>2026-03-22T14:09:32.347Z</time></trkpt><trkpt lat="46.2249756" lon="13.5926031"><ele>292.0</ele><time>2026-03-22T14:09:33.363Z</time></trkpt><trkpt lat="46.2251119" lon="13.5925897"><ele>290.0</ele><time>2026-03-22T14:09:34.356Z</time></trkpt><trkpt lat="46.2252435" lon="13.5926092"><ele>290.0</ele><time>2026-03-22T14:09:35.367Z</time></trkpt><trkpt lat="46.2253736" lon="13.5926792"><ele>290.0</ele><time>2026-03-22T14:09:36.356Z</time></trkpt><trkpt lat="46.225498" lon="13.5927536"><ele>290.0</ele><time>2026-03-22T14:09:37.347Z</time></trkpt><trkpt lat="46.2256212" lon="13.5927954"><ele>290.0</ele><time>2026-03-22T14:09:38.342Z</time></trkpt><trkpt lat="46.2257373" lon="13.5927559"><ele>287.25</ele><time>2026-03-22T14:09:39.344Z</time></trkpt><trkpt lat="46.2258386" lon="13.5926875"><ele>284.5</ele><time>2026-03-22T14:09:40.375Z</time></trkpt><trkpt lat="46.2259461" lon="13.5926205"><ele>281.75</ele><time>2026-03-22T14:09:41.356Z</time></trkpt><trkpt lat="46.2260597" lon="13.5925594"><ele>279.0</ele><time>2026-03-22T14:09:42.354Z</time></trkpt><trkpt lat="46.2261674" lon="13.5924471"><ele>279.0</ele><time>2026-03-22T14:09:43.366Z</time></trkpt><trkpt lat="46.2262667" lon="13.5922915"><ele>279.0</ele><time>2026-03-22T14:09:44.345Z</time></trkpt><trkpt lat="46.2263717" lon="13.5921469"><ele>279.0</ele><time>2026-03-22T14:09:45.36Z</time></trkpt><trkpt lat="46.2264468" lon="13.591873"><ele>277.3333333333333</ele><time>2026-03-22T14:09:46.365Z</time></trkpt><trkpt lat="46.2266478" lon="13.5917579"><ele>275.66666666666663</ele><time>2026-03-22T14:09:47.356Z</time></trkpt><trkpt lat="46.2267992" lon="13.5916043"><ele>274.0</ele><time>2026-03-22T14:09:48.349Z</time></trkpt><trkpt lat="46.2269361" lon="13.5914746"><ele>274.0</ele><time>2026-03-22T14:09:49.349Z</time></trkpt><trkpt lat="46.2270956" lon="13.5914116"><ele>274.0</ele><time>2026-03-22T14:09:50.346Z</time></trkpt><trkpt lat="46.2272632" lon="13.5914357"><ele>274.0</ele><time>2026-03-22T14:09:51.352Z</time></trkpt><trkpt lat="46.227434" lon="13.5915338"><ele>265.3333333333333</ele><time>2026-03-22T14:09:52.351Z</time></trkpt><trkpt lat="46.2276141" lon="13.5917255"><ele>256.6666666666667</ele><time>2026-03-22T14:09:53.36Z</time></trkpt><trkpt lat="46.2277766" lon="13.5918537"><ele>248.0</ele><time>2026-03-22T14:09:54.352Z</time></trkpt><trkpt lat="46.2279633" lon="13.5919397"><ele>248.0</ele><time>2026-03-22T14:09:55.362Z</time></trkpt><trkpt lat="46.2281276" lon="13.5919755"><ele>248.0</ele><time>2026-03-22T14:09:56.348Z</time></trkpt><trkpt lat="46.2282867" lon="13.5919653"><ele>248.0</ele><time>2026-03-22T14:09:57.37Z</time></trkpt><trkpt lat="46.2284542" lon="13.5918843"><ele>243.33333333333334</ele><time>2026-03-22T14:09:58.368Z</time></trkpt><trkpt lat="46.2286192" lon="13.5918256"><ele>238.66666666666669</ele><time>2026-03-22T14:09:59.35Z</time></trkpt><trkpt lat="46.2287884" lon="13.5917397"><ele>234.0</ele><time>2026-03-22T14:10:00.347Z</time></trkpt><trkpt lat="46.2289391" lon="13.5916242"><ele>233.75</ele><time>2026-03-22T14:10:01.348Z</time></trkpt><trkpt lat="46.2290746" lon="13.5915078"><ele>233.5</ele><time>2026-03-22T14:10:02.358Z</time></trkpt><trkpt lat="46.229188" lon="13.5913726"><ele>233.25</ele><time>2026-03-22T14:10:03.365Z</time></trkpt><trkpt lat="46.2293137" lon="13.5912769"><ele>233.0</ele><time>2026-03-22T14:10:04.358Z</time></trkpt><trkpt lat="46.2294448" lon="13.5912024"><ele>232.5</ele><time>2026-03-22T14:10:05.369Z</time></trkpt><trkpt lat="46.2295779" lon="13.5911481"><ele>232.0</ele><time>2026-03-22T14:10:06.354Z</time></trkpt><trkpt lat="46.2296965" lon="13.5911192"><ele>231.5</ele><time>2026-03-22T14:10:07.351Z</time></trkpt><trkpt lat="46.2298014" lon="13.5911362"><ele>231.0</ele><time>2026-03-22T14:10:08.372Z</time></trkpt><trkpt lat="46.2298932" lon="13.591153"><ele>230.0</ele><time>2026-03-22T14:10:09.354Z</time></trkpt><trkpt lat="46.229983" lon="13.5911983"><ele>229.0</ele><time>2026-03-22T14:10:10.356Z</time></trkpt><trkpt lat="46.2300658" lon="13.5912338"><ele>228.0</ele><time>2026-03-22T14:10:11.365Z</time></trkpt><trkpt lat="46.2301404" lon="13.5912304"><ele>227.0</ele><time>2026-03-22T14:10:12.35Z</time></trkpt><trkpt lat="46.2302149" lon="13.5911989"><ele>226.0</ele><time>2026-03-22T14:10:13.358Z</time></trkpt><trkpt lat="46.2302859" lon="13.5911614"><ele>225.0</ele><time>2026-03-22T14:10:14.352Z</time></trkpt><trkpt lat="46.2303611" lon="13.5911313"><ele>225.0</ele><time>2026-03-22T14:10:15.357Z</time></trkpt><trkpt lat="46.2304332" lon="13.5911518"><ele>225.0</ele><time>2026-03-22T14:10:16.341Z</time></trkpt><trkpt lat="46.2305097" lon="13.5912239"><ele>225.0</ele><time>2026-03-22T14:10:17.355Z</time></trkpt><trkpt lat="46.2305931" lon="13.5913343"><ele>225.0</ele><time>2026-03-22T14:10:18.353Z</time></trkpt><trkpt lat="46.2306878" lon="13.5914583"><ele>225.0</ele><time>2026-03-22T14:10:19.357Z</time></trkpt><trkpt lat="46.230795" lon="13.5915808"><ele>222.66666666666669</ele><time>2026-03-22T14:10:20.35Z</time></trkpt><trkpt lat="46.2309477" lon="13.5917108"><ele>220.33333333333334</ele><time>2026-03-22T14:10:21.368Z</time></trkpt><trkpt lat="46.2310921" lon="13.59182"><ele>218.0</ele><time>2026-03-22T14:10:22.357Z</time></trkpt><trkpt lat="46.2312358" lon="13.5919429"><ele>217.33333333333334</ele><time>2026-03-22T14:10:23.371Z</time></trkpt><trkpt lat="46.2313837" lon="13.5920462"><ele>216.66666666666669</ele><time>2026-03-22T14:10:24.35Z</time></trkpt><trkpt lat="46.2315171" lon="13.5921499"><ele>216.0</ele><time>2026-03-22T14:10:25.356Z</time></trkpt><trkpt lat="46.2316327" lon="13.5922524"><ele>215.83333333333334</ele><time>2026-03-22T14:10:26.352Z</time></trkpt><trkpt lat="46.2317229" lon="13.5923413"><ele>215.66666666666669</ele><time>2026-03-22T14:10:27.356Z</time></trkpt><trkpt lat="46.2317818" lon="13.5924139"><ele>215.5</ele><time>2026-03-22T14:10:28.348Z</time></trkpt><trkpt lat="46.2318697" lon="13.5924607"><ele>215.33333333333334</ele><time>2026-03-22T14:10:30.361Z</time></trkpt><trkpt lat="46.2319375" lon="13.5925604"><ele>215.16666666666669</ele><time>2026-03-22T14:10:38.36Z</time></trkpt><trkpt lat="46.2320043" lon="13.5925889"><ele>215.0</ele><time>2026-03-22T14:10:50.342Z</time></trkpt><trkpt lat="46.2320993" lon="13.5925348"><ele>215.0</ele><time>2026-03-22T14:10:52.348Z</time></trkpt><trkpt lat="46.2321669" lon="13.5924406"><ele>215.0</ele><time>2026-03-22T14:10:53.351Z</time></trkpt><trkpt lat="46.2322442" lon="13.5923142"><ele>215.0</ele><time>2026-03-22T14:10:54.357Z</time></trkpt><trkpt lat="46.2323267" lon="13.5921584"><ele>215.0</ele><time>2026-03-22T14:10:55.377Z</time></trkpt><trkpt lat="46.2324151" lon="13.5919964"><ele>214.5</ele><time>2026-03-22T14:10:56.364Z</time></trkpt><trkpt lat="46.2324784" lon="13.5918161"><ele>214.0</ele><time>2026-03-22T14:10:57.358Z</time></trkpt><trkpt lat="46.2325411" lon="13.5916411"><ele>213.5</ele><time>2026-03-22T14:10:58.359Z</time></trkpt><trkpt lat="46.2326092" lon="13.5914744"><ele>213.0</ele><time>2026-03-22T14:10:59.363Z</time></trkpt><trkpt lat="46.232679" lon="13.5913138"><ele>213.0</ele><time>2026-03-22T14:11:00.345Z</time></trkpt><trkpt lat="46.2327549" lon="13.5911626"><ele>213.0</ele><time>2026-03-22T14:11:01.354Z</time></trkpt><trkpt lat="46.232836" lon="13.5910228"><ele>213.0</ele><time>2026-03-22T14:11:02.354Z</time></trkpt><trkpt lat="46.2329313" lon="13.590911"><ele>213.0</ele><time>2026-03-22T14:11:03.379Z</time></trkpt><trkpt lat="46.2330191" lon="13.5907961"><ele>213.0</ele><time>2026-03-22T14:11:04.356Z</time></trkpt><trkpt lat="46.2331052" lon="13.5906835"><ele>213.0</ele><time>2026-03-22T14:11:05.359Z</time></trkpt><trkpt lat="46.2331878" lon="13.5905665"><ele>213.0</ele><time>2026-03-22T14:11:06.345Z</time></trkpt><trkpt lat="46.2332685" lon="13.590451"><ele>213.0</ele><time>2026-03-22T14:11:07.354Z</time></trkpt><trkpt lat="46.2333495" lon="13.5903444"><ele>212.60000000000002</ele><time>2026-03-22T14:11:08.359Z</time></trkpt><trkpt lat="46.2334308" lon="13.5902467"><ele>212.20000000000002</ele><time>2026-03-22T14:11:09.36Z</time></trkpt><trkpt lat="46.2335094" lon="13.5901524"><ele>211.8</ele><time>2026-03-22T14:11:10.364Z</time></trkpt><trkpt lat="46.2335825" lon="13.590054"><ele>211.4</ele><time>2026-03-22T14:11:11.363Z</time></trkpt><trkpt lat="46.233658" lon="13.5899556"><ele>211.0</ele><time>2026-03-22T14:11:12.348Z</time></trkpt><trkpt lat="46.2337388" lon="13.5898485"><ele>211.0</ele><time>2026-03-22T14:11:13.354Z</time></trkpt><trkpt lat="46.2338348" lon="13.5897488"><ele>211.0</ele><time>2026-03-22T14:11:14.361Z</time></trkpt><trkpt lat="46.2339279" lon="13.5896363"><ele>211.0</ele><time>2026-03-22T14:11:15.367Z</time></trkpt><trkpt lat="46.2340203" lon="13.589522"><ele>211.0</ele><time>2026-03-22T14:11:16.365Z</time></trkpt><trkpt lat="46.2341103" lon="13.5894069"><ele>211.0</ele><time>2026-03-22T14:11:17.357Z</time></trkpt><trkpt lat="46.2342031" lon="13.5892906"><ele>211.0</ele><time>2026-03-22T14:11:18.377Z</time></trkpt><trkpt lat="46.2343044" lon="13.589162"><ele>211.0</ele><time>2026-03-22T14:11:19.353Z</time></trkpt><trkpt lat="46.2344158" lon="13.5890142"><ele>211.0</ele><time>2026-03-22T14:11:20.345Z</time></trkpt><trkpt lat="46.2345418" lon="13.5888561"><ele>211.0</ele><time>2026-03-22T14:11:21.363Z</time></trkpt><trkpt lat="46.2346765" lon="13.5886754"><ele>211.0</ele><time>2026-03-22T14:11:22.358Z</time></trkpt><trkpt lat="46.234822" lon="13.5884827"><ele>211.0</ele><time>2026-03-22T14:11:23.35Z</time></trkpt><trkpt lat="46.2349761" lon="13.5882839"><ele>210.66666666666666</ele><time>2026-03-22T14:11:24.355Z</time></trkpt><trkpt lat="46.2351391" lon="13.5880843"><ele>210.33333333333331</ele><time>2026-03-22T14:11:25.352Z</time></trkpt><trkpt lat="46.2353072" lon="13.5878836"><ele>210.0</ele><time>2026-03-22T14:11:26.346Z</time></trkpt><trkpt lat="46.235476" lon="13.5876808"><ele>210.33333333333331</ele><time>2026-03-22T14:11:27.36Z</time></trkpt><trkpt lat="46.2356303" lon="13.5874598"><ele>210.66666666666666</ele><time>2026-03-22T14:11:28.377Z</time></trkpt><trkpt lat="46.2357791" lon="13.5872433"><ele>211.0</ele><time>2026-03-22T14:11:29.358Z</time></trkpt><trkpt lat="46.2359204" lon="13.58703"><ele>212.66666666666666</ele><time>2026-03-22T14:11:30.354Z</time></trkpt><trkpt lat="46.2360541" lon="13.586827"><ele>214.33333333333331</ele><time>2026-03-22T14:11:31.373Z</time></trkpt><trkpt lat="46.2361887" lon="13.5866448"><ele>216.0</ele><time>2026-03-22T14:11:32.341Z</time></trkpt><trkpt lat="46.2363119" lon="13.5864618"><ele>216.0</ele><time>2026-03-22T14:11:33.348Z</time></trkpt><trkpt lat="46.236431" lon="13.5862848"><ele>216.0</ele><time>2026-03-22T14:11:34.356Z</time></trkpt><trkpt lat="46.2365401" lon="13.5860997"><ele>216.0</ele><time>2026-03-22T14:11:35.347Z</time></trkpt><trkpt lat="46.2366404" lon="13.5859102"><ele>216.33333333333331</ele><time>2026-03-22T14:11:36.358Z</time></trkpt><trkpt lat="46.2367354" lon="13.585724"><ele>216.66666666666666</ele><time>2026-03-22T14:11:37.379Z</time></trkpt><trkpt lat="46.2368249" lon="13.5855426"><ele>217.0</ele><time>2026-03-22T14:11:38.355Z</time></trkpt><trkpt lat="46.2369197" lon="13.5853716"><ele>218.33333333333331</ele><time>2026-03-22T14:11:39.37Z</time></trkpt><trkpt lat="46.2370268" lon="13.5852154"><ele>219.66666666666669</ele><time>2026-03-22T14:11:40.37Z</time></trkpt><trkpt lat="46.2371343" lon="13.5850549"><ele>221.0</ele><time>2026-03-22T14:11:41.357Z</time></trkpt><trkpt lat="46.2372585" lon="13.5849103"><ele>220.0</ele><time>2026-03-22T14:11:42.351Z</time></trkpt><trkpt lat="46.2373842" lon="13.5847609"><ele>219.0</ele><time>2026-03-22T14:11:43.36Z</time></trkpt><trkpt lat="46.2375218" lon="13.5846222"><ele>218.0</ele><time>2026-03-22T14:11:44.349Z</time></trkpt><trkpt lat="46.2376546" lon="13.5844665"><ele>218.0</ele><time>2026-03-22T14:11:45.357Z</time></trkpt><trkpt lat="46.2377923" lon="13.5843106"><ele>218.0</ele><time>2026-03-22T14:11:46.351Z</time></trkpt><trkpt lat="46.237934" lon="13.5841566"><ele>218.0</ele><time>2026-03-22T14:11:47.366Z</time></trkpt><trkpt lat="46.2380749" lon="13.5840107"><ele>216.66666666666669</ele><time>2026-03-22T14:11:48.362Z</time></trkpt><trkpt lat="46.2382171" lon="13.5838812"><ele>215.33333333333331</ele><time>2026-03-22T14:11:49.351Z</time></trkpt><trkpt lat="46.2383603" lon="13.583766"><ele>214.0</ele><time>2026-03-22T14:11:50.356Z</time></trkpt><trkpt lat="46.2385053" lon="13.5836725"><ele>214.0</ele><time>2026-03-22T14:11:51.367Z</time></trkpt><trkpt lat="46.2386531" lon="13.5836182"><ele>214.0</ele><time>2026-03-22T14:11:52.352Z</time></trkpt><trkpt lat="46.238809" lon="13.5836278"><ele>214.0</ele><time>2026-03-22T14:11:53.362Z</time></trkpt><trkpt lat="46.2389707" lon="13.5836756"><ele>213.0</ele><time>2026-03-22T14:11:54.37Z</time></trkpt><trkpt lat="46.2391342" lon="13.5837256"><ele>212.0</ele><time>2026-03-22T14:11:55.365Z</time></trkpt><trkpt lat="46.2392924" lon="13.5838089"><ele>211.0</ele><time>2026-03-22T14:11:56.35Z</time></trkpt><trkpt lat="46.2394522" lon="13.5838701"><ele>211.0</ele><time>2026-03-22T14:11:57.366Z</time></trkpt><trkpt lat="46.2396111" lon="13.5839477"><ele>211.0</ele><time>2026-03-22T14:11:58.369Z</time></trkpt><trkpt lat="46.2397718" lon="13.5839634"><ele>211.0</ele><time>2026-03-22T14:11:59.36Z</time></trkpt><trkpt lat="46.2399313" lon="13.5839606"><ele>211.0</ele><time>2026-03-22T14:12:00.374Z</time></trkpt><trkpt lat="46.2400895" lon="13.5839416"><ele>211.0</ele><time>2026-03-22T14:12:01.36Z</time></trkpt><trkpt lat="46.240248" lon="13.5839025"><ele>211.0</ele><time>2026-03-22T14:12:02.361Z</time></trkpt><trkpt lat="46.2404081" lon="13.5838678"><ele>211.0</ele><time>2026-03-22T14:12:03.381Z</time></trkpt><trkpt lat="46.2405693" lon="13.5838226"><ele>211.0</ele><time>2026-03-22T14:12:04.351Z</time></trkpt><trkpt lat="46.2407304" lon="13.583769"><ele>211.0</ele><time>2026-03-22T14:12:05.371Z</time></trkpt><trkpt lat="46.2408915" lon="13.5837048"><ele>213.33333333333331</ele><time>2026-03-22T14:12:06.357Z</time></trkpt><trkpt lat="46.2410502" lon="13.5836309"><ele>215.66666666666669</ele><time>2026-03-22T14:12:07.365Z</time></trkpt><trkpt lat="46.2412014" lon="13.5835467"><ele>218.0</ele><time>2026-03-22T14:12:08.359Z</time></trkpt><trkpt lat="46.2413411" lon="13.5834503"><ele>218.5</ele><time>2026-03-22T14:12:09.371Z</time></trkpt><trkpt lat="46.2414696" lon="13.583341"><ele>219.0</ele><time>2026-03-22T14:12:10.359Z</time></trkpt><trkpt lat="46.2415859" lon="13.5832088"><ele>219.5</ele><time>2026-03-22T14:12:11.357Z</time></trkpt><trkpt lat="46.2416948" lon="13.5830634"><ele>220.0</ele><time>2026-03-22T14:12:12.372Z</time></trkpt><trkpt lat="46.2418022" lon="13.5829162"><ele>219.75</ele><time>2026-03-22T14:12:13.372Z</time></trkpt><trkpt lat="46.2419092" lon="13.5827675"><ele>219.5</ele><time>2026-03-22T14:12:14.356Z</time></trkpt><trkpt lat="46.2420159" lon="13.5826166"><ele>219.25</ele><time>2026-03-22T14:12:15.374Z</time></trkpt><trkpt lat="46.2421229" lon="13.5824661"><ele>219.0</ele><time>2026-03-22T14:12:16.366Z</time></trkpt><trkpt lat="46.2422287" lon="13.5823204"><ele>218.5</ele><time>2026-03-22T14:12:17.368Z</time></trkpt><trkpt lat="46.2423322" lon="13.5821807"><ele>218.0</ele><time>2026-03-22T14:12:18.371Z</time></trkpt><trkpt lat="46.242431" lon="13.5820439"><ele>217.5</ele><time>2026-03-22T14:12:19.368Z</time></trkpt><trkpt lat="46.2425258" lon="13.5819117"><ele>217.0</ele><time>2026-03-22T14:12:20.353Z</time></trkpt><trkpt lat="46.2426163" lon="13.581783"><ele>217.0</ele><time>2026-03-22T14:12:21.361Z</time></trkpt><trkpt lat="46.2427055" lon="13.5816612"><ele>217.0</ele><time>2026-03-22T14:12:22.354Z</time></trkpt><trkpt lat="46.2427876" lon="13.5815519"><ele>217.0</ele><time>2026-03-22T14:12:23.353Z</time></trkpt><trkpt lat="46.2428588" lon="13.5814646"><ele>217.0</ele><time>2026-03-22T14:12:24.347Z</time></trkpt><trkpt lat="46.2429267" lon="13.5813974"><ele>217.0</ele><time>2026-03-22T14:12:25.351Z</time></trkpt><trkpt lat="46.2430012" lon="13.5813451"><ele>217.0</ele><time>2026-03-22T14:12:26.354Z</time></trkpt><trkpt lat="46.2430815" lon="13.5812881"><ele>217.0</ele><time>2026-03-22T14:12:27.362Z</time></trkpt><trkpt lat="46.2431509" lon="13.581183"><ele>217.0</ele><time>2026-03-22T14:12:28.362Z</time></trkpt><trkpt lat="46.2432183" lon="13.5810415"><ele>217.0</ele><time>2026-03-22T14:12:29.347Z</time></trkpt><trkpt lat="46.2433033" lon="13.5808881"><ele>217.0</ele><time>2026-03-22T14:12:30.348Z</time></trkpt><trkpt lat="46.2434099" lon="13.5807322"><ele>220.0</ele><time>2026-03-22T14:12:31.356Z</time></trkpt><trkpt lat="46.2435264" lon="13.5805683"><ele>223.0</ele><time>2026-03-22T14:12:32.356Z</time></trkpt><trkpt lat="46.2436498" lon="13.5804097"><ele>226.0</ele><time>2026-03-22T14:12:33.367Z</time></trkpt><trkpt lat="46.24377" lon="13.5802516"><ele>226.0</ele><time>2026-03-22T14:12:34.35Z</time></trkpt><trkpt lat="46.2438883" lon="13.5800975"><ele>226.0</ele><time>2026-03-22T14:12:35.356Z</time></trkpt><trkpt lat="46.2440012" lon="13.5799452"><ele>226.0</ele><time>2026-03-22T14:12:36.367Z</time></trkpt><trkpt lat="46.244109" lon="13.5798006"><ele>228.0</ele><time>2026-03-22T14:12:37.366Z</time></trkpt><trkpt lat="46.2442132" lon="13.5796626"><ele>230.0</ele><time>2026-03-22T14:12:38.346Z</time></trkpt><trkpt lat="46.2443098" lon="13.5795261"><ele>232.0</ele><time>2026-03-22T14:12:39.353Z</time></trkpt><trkpt lat="46.2444004" lon="13.5793943"><ele>234.0</ele><time>2026-03-22T14:12:40.359Z</time></trkpt><trkpt lat="46.2444865" lon="13.57927"><ele>234.2</ele><time>2026-03-22T14:12:41.368Z</time></trkpt><trkpt lat="46.2445678" lon="13.5791496"><ele>234.39999999999998</ele><time>2026-03-22T14:12:42.361Z</time></trkpt><trkpt lat="46.2446464" lon="13.5790379"><ele>234.6</ele><time>2026-03-22T14:12:43.38Z</time></trkpt><trkpt lat="46.244724" lon="13.5789366"><ele>234.8</ele><time>2026-03-22T14:12:44.367Z</time></trkpt><trkpt lat="46.244798" lon="13.5788341"><ele>235.0</ele><time>2026-03-22T14:12:45.367Z</time></trkpt><trkpt lat="46.2448692" lon="13.578735"><ele>234.99999999999997</ele><time>2026-03-22T14:12:46.358Z</time></trkpt><trkpt lat="46.2449378" lon="13.5786404"><ele>235.0</ele><time>2026-03-22T14:12:47.378Z</time></trkpt><trkpt lat="46.2450061" lon="13.5785545"><ele>235.0</ele><time>2026-03-22T14:12:48.357Z</time></trkpt><trkpt lat="46.2450705" lon="13.5784789"><ele>235.0</ele><time>2026-03-22T14:12:49.352Z</time></trkpt><trkpt lat="46.2451446" lon="13.5784327"><ele>234.99999999999997</ele><time>2026-03-22T14:12:50.354Z</time></trkpt><trkpt lat="46.2452212" lon="13.578405"><ele>235.0</ele><time>2026-03-22T14:12:51.37Z</time></trkpt><trkpt lat="46.2452983" lon="13.5783925"><ele>235.0</ele><time>2026-03-22T14:12:52.368Z</time></trkpt><trkpt lat="46.2453809" lon="13.5784127"><ele>235.0</ele><time>2026-03-22T14:12:53.352Z</time></trkpt><trkpt lat="46.2454623" lon="13.5784717"><ele>235.0</ele><time>2026-03-22T14:12:54.346Z</time></trkpt><trkpt lat="46.2455467" lon="13.5785506"><ele>235.0</ele><time>2026-03-22T14:12:55.376Z</time></trkpt><trkpt lat="46.2456373" lon="13.5786423"><ele>235.0</ele><time>2026-03-22T14:12:56.35Z</time></trkpt><trkpt lat="46.2457306" lon="13.5787178"><ele>235.6</ele><time>2026-03-22T14:12:57.351Z</time></trkpt><trkpt lat="46.2458166" lon="13.5787998"><ele>236.2</ele><time>2026-03-22T14:12:58.368Z</time></trkpt><trkpt lat="46.2459029" lon="13.5788806"><ele>236.8</ele><time>2026-03-22T14:12:59.374Z</time></trkpt><trkpt lat="46.2459946" lon="13.5789422"><ele>237.4</ele><time>2026-03-22T14:13:00.358Z</time></trkpt><trkpt lat="46.2460902" lon="13.5790078"><ele>238.0</ele><time>2026-03-22T14:13:01.357Z</time></trkpt><trkpt lat="46.2461914" lon="13.5790295"><ele>238.0</ele><time>2026-03-22T14:13:02.36Z</time></trkpt><trkpt lat="46.2462864" lon="13.5790732"><ele>238.0</ele><time>2026-03-22T14:13:03.37Z</time></trkpt><trkpt lat="46.2463839" lon="13.5791189"><ele>238.0</ele><time>2026-03-22T14:13:04.389Z</time></trkpt><trkpt lat="46.246476" lon="13.5791642"><ele>238.0</ele><time>2026-03-22T14:13:05.367Z</time></trkpt><trkpt lat="46.2465562" lon="13.5792145"><ele>238.0</ele><time>2026-03-22T14:13:06.378Z</time></trkpt><trkpt lat="46.2466321" lon="13.5792536"><ele>237.99999999999997</ele><time>2026-03-22T14:13:07.373Z</time></trkpt><trkpt lat="46.2467083" lon="13.5792932"><ele>238.0</ele><time>2026-03-22T14:13:08.349Z</time></trkpt><trkpt lat="46.2467872" lon="13.579322"><ele>238.0</ele><time>2026-03-22T14:13:09.357Z</time></trkpt><trkpt lat="46.2468739" lon="13.5793337"><ele>238.0</ele><time>2026-03-22T14:13:10.359Z</time></trkpt><trkpt lat="46.2469577" lon="13.579313"><ele>237.99999999999997</ele><time>2026-03-22T14:13:11.363Z</time></trkpt><trkpt lat="46.2470436" lon="13.5793282"><ele>238.0</ele><time>2026-03-22T14:13:12.382Z</time></trkpt><trkpt lat="46.2471324" lon="13.579333"><ele>237.99999999999997</ele><time>2026-03-22T14:13:13.349Z</time></trkpt><trkpt lat="46.2472162" lon="13.5793342"><ele>238.0</ele><time>2026-03-22T14:13:14.355Z</time></trkpt><trkpt lat="46.2472891" lon="13.5793538"><ele>238.0</ele><time>2026-03-22T14:13:15.355Z</time></trkpt><trkpt lat="46.2473583" lon="13.5793727"><ele>238.0</ele><time>2026-03-22T14:13:16.356Z</time></trkpt><trkpt lat="46.2474285" lon="13.5793501"><ele>237.99999999999997</ele><time>2026-03-22T14:13:17.363Z</time></trkpt><trkpt lat="46.2474932" lon="13.5792197"><ele>238.0</ele><time>2026-03-22T14:13:19.386Z</time></trkpt><trkpt lat="46.2475535" lon="13.5791547"><ele>237.8</ele><time>2026-03-22T14:13:21.36Z</time></trkpt><trkpt lat="46.2476143" lon="13.5791007"><ele>237.60000000000002</ele><time>2026-03-22T14:13:23.347Z</time></trkpt><trkpt lat="46.247675" lon="13.5790402"><ele>237.39999999999998</ele><time>2026-03-22T14:13:25.36Z</time></trkpt><trkpt lat="46.2477907" lon="13.5789501"><ele>237.2</ele><time>2026-03-22T14:15:12.356Z</time></trkpt><trkpt lat="46.2477565" lon="13.578847"><ele>237.0</ele><time>2026-03-22T14:15:15.357Z</time></trkpt><trkpt lat="46.2477507" lon="13.5786692"><ele>237.5</ele><time>2026-03-22T14:15:17.36Z</time></trkpt><trkpt lat="46.2477597" lon="13.5785603"><ele>238.0</ele><time>2026-03-22T14:15:18.357Z</time></trkpt><trkpt lat="46.2477763" lon="13.5784453"><ele>238.5</ele><time>2026-03-22T14:15:19.36Z</time></trkpt><trkpt lat="46.2478033" lon="13.5783271"><ele>239.0</ele><time>2026-03-22T14:15:20.345Z</time></trkpt><trkpt lat="46.2478381" lon="13.5782114"><ele>239.5</ele><time>2026-03-22T14:15:21.351Z</time></trkpt><trkpt lat="46.2478673" lon="13.578101"><ele>240.0</ele><time>2026-03-22T14:15:22.359Z</time></trkpt><trkpt lat="46.2478922" lon="13.5779861"><ele>240.0</ele><time>2026-03-22T14:15:23.359Z</time></trkpt><trkpt lat="46.2479285" lon="13.5778646"><ele>240.0</ele><time>2026-03-22T14:15:24.367Z</time></trkpt><trkpt lat="46.2479636" lon="13.5777182"><ele>240.0</ele><time>2026-03-22T14:15:25.349Z</time></trkpt><trkpt lat="46.2480086" lon="13.5775605"><ele>240.0</ele><time>2026-03-22T14:15:26.359Z</time></trkpt><trkpt lat="46.2480497" lon="13.577389"><ele>240.0</ele><time>2026-03-22T14:15:27.359Z</time></trkpt><trkpt lat="46.2480838" lon="13.5772117"><ele>239.75</ele><time>2026-03-22T14:15:28.352Z</time></trkpt><trkpt lat="46.2481108" lon="13.577027"><ele>239.5</ele><time>2026-03-22T14:15:29.371Z</time></trkpt><trkpt lat="46.2481479" lon="13.5768448"><ele>239.25</ele><time>2026-03-22T14:15:30.362Z</time></trkpt><trkpt lat="46.248183" lon="13.5766544"><ele>239.0</ele><time>2026-03-22T14:15:31.377Z</time></trkpt><trkpt lat="46.2482195" lon="13.5764608"><ele>238.5</ele><time>2026-03-22T14:15:32.363Z</time></trkpt><trkpt lat="46.2482585" lon="13.5762659"><ele>238.0</ele><time>2026-03-22T14:15:33.362Z</time></trkpt><trkpt lat="46.2483006" lon="13.5760669"><ele>237.5</ele><time>2026-03-22T14:15:34.357Z</time></trkpt><trkpt lat="46.2483432" lon="13.5758661"><ele>237.0</ele><time>2026-03-22T14:15:35.353Z</time></trkpt><trkpt lat="46.2483831" lon="13.5756651"><ele>236.75</ele><time>2026-03-22T14:15:36.351Z</time></trkpt><trkpt lat="46.2484357" lon="13.5754666"><ele>236.5</ele><time>2026-03-22T14:15:37.381Z</time></trkpt><trkpt lat="46.2484855" lon="13.5752676"><ele>236.25</ele><time>2026-03-22T14:15:38.354Z</time></trkpt><trkpt lat="46.248531" lon="13.5750696"><ele>236.0</ele><time>2026-03-22T14:15:39.375Z</time></trkpt><trkpt lat="46.2485765" lon="13.5748744"><ele>236.0</ele><time>2026-03-22T14:15:40.365Z</time></trkpt><trkpt lat="46.24862" lon="13.5746814"><ele>236.0</ele><time>2026-03-22T14:15:41.368Z</time></trkpt><trkpt lat="46.2486624" lon="13.5744833"><ele>236.0</ele><time>2026-03-22T14:15:42.357Z</time></trkpt><trkpt lat="46.2486985" lon="13.5742784"><ele>236.0</ele><time>2026-03-22T14:15:43.381Z</time></trkpt><trkpt lat="46.2487366" lon="13.5740647"><ele>236.0</ele><time>2026-03-22T14:15:44.354Z</time></trkpt><trkpt lat="46.2487821" lon="13.5738378"><ele>236.0</ele><time>2026-03-22T14:15:45.364Z</time></trkpt><trkpt lat="46.2488342" lon="13.5735943"><ele>236.0</ele><time>2026-03-22T14:15:46.37Z</time></trkpt><trkpt lat="46.2488933" lon="13.5733401"><ele>236.0</ele><time>2026-03-22T14:15:47.366Z</time></trkpt><trkpt lat="46.2489524" lon="13.573078"><ele>236.0</ele><time>2026-03-22T14:15:48.353Z</time></trkpt><trkpt lat="46.2490054" lon="13.572805"><ele>236.0</ele><time>2026-03-22T14:15:49.371Z</time></trkpt><trkpt lat="46.249051" lon="13.5725249"><ele>240.66666666666669</ele><time>2026-03-22T14:15:50.363Z</time></trkpt><trkpt lat="46.2491188" lon="13.5722561"><ele>245.33333333333331</ele><time>2026-03-22T14:15:51.357Z</time></trkpt><trkpt lat="46.2491838" lon="13.571987"><ele>250.0</ele><time>2026-03-22T14:15:52.355Z</time></trkpt><trkpt lat="46.2492348" lon="13.5717149"><ele>250.0</ele><time>2026-03-22T14:15:53.36Z</time></trkpt><trkpt lat="46.2492949" lon="13.571448"><ele>250.0</ele><time>2026-03-22T14:15:54.349Z</time></trkpt><trkpt lat="46.2493471" lon="13.5711775"><ele>250.0</ele><time>2026-03-22T14:15:55.358Z</time></trkpt><trkpt lat="46.2493985" lon="13.5709059"><ele>248.0</ele><time>2026-03-22T14:15:56.366Z</time></trkpt><trkpt lat="46.2494433" lon="13.5706312"><ele>246.0</ele><time>2026-03-22T14:15:57.388Z</time></trkpt><trkpt lat="46.2495033" lon="13.570363"><ele>244.0</ele><time>2026-03-22T14:15:58.372Z</time></trkpt><trkpt lat="46.2495591" lon="13.5700906"><ele>243.0</ele><time>2026-03-22T14:15:59.365Z</time></trkpt><trkpt lat="46.2496072" lon="13.5698181"><ele>242.0</ele><time>2026-03-22T14:16:00.371Z</time></trkpt><trkpt lat="46.2496532" lon="13.5695454"><ele>241.0</ele><time>2026-03-22T14:16:01.379Z</time></trkpt><trkpt lat="46.2496973" lon="13.5692716"><ele>241.0</ele><time>2026-03-22T14:16:02.355Z</time></trkpt><trkpt lat="46.249739" lon="13.5689967"><ele>241.0</ele><time>2026-03-22T14:16:03.378Z</time></trkpt><trkpt lat="46.2497707" lon="13.5687177"><ele>241.0</ele><time>2026-03-22T14:16:04.351Z</time></trkpt><trkpt lat="46.2498087" lon="13.5684357"><ele>246.33333333333331</ele><time>2026-03-22T14:16:05.353Z</time></trkpt><trkpt lat="46.2498302" lon="13.5681455"><ele>251.66666666666669</ele><time>2026-03-22T14:16:06.37Z</time></trkpt><trkpt lat="46.2498649" lon="13.5678578"><ele>257.0</ele><time>2026-03-22T14:16:07.365Z</time></trkpt><trkpt lat="46.2498886" lon="13.5675671"><ele>257.0</ele><time>2026-03-22T14:16:08.361Z</time></trkpt><trkpt lat="46.2499145" lon="13.5672791"><ele>257.0</ele><time>2026-03-22T14:16:09.373Z</time></trkpt><trkpt lat="46.2499237" lon="13.5669964"><ele>257.0</ele><time>2026-03-22T14:16:10.361Z</time></trkpt><trkpt lat="46.2499112" lon="13.5667176"><ele>255.66666666666669</ele><time>2026-03-22T14:16:11.38Z</time></trkpt><trkpt lat="46.2499044" lon="13.566443"><ele>254.33333333333331</ele><time>2026-03-22T14:16:12.361Z</time></trkpt><trkpt lat="46.2499235" lon="13.5661726"><ele>253.0</ele><time>2026-03-22T14:16:13.381Z</time></trkpt><trkpt lat="46.2499119" lon="13.5658991"><ele>253.0</ele><time>2026-03-22T14:16:14.369Z</time></trkpt><trkpt lat="46.2499157" lon="13.5656311"><ele>253.0</ele><time>2026-03-22T14:16:15.379Z</time></trkpt><trkpt lat="46.2499091" lon="13.5653601"><ele>253.0</ele><time>2026-03-22T14:16:16.361Z</time></trkpt><trkpt lat="46.2498772" lon="13.565094"><ele>253.0</ele><time>2026-03-22T14:16:17.37Z</time></trkpt><trkpt lat="46.249835" lon="13.5648295"><ele>253.0</ele><time>2026-03-22T14:16:18.37Z</time></trkpt><trkpt lat="46.2497812" lon="13.5645664"><ele>253.0</ele><time>2026-03-22T14:16:19.366Z</time></trkpt><trkpt lat="46.2497348" lon="13.5643035"><ele>248.66666666666666</ele><time>2026-03-22T14:16:20.367Z</time></trkpt><trkpt lat="46.2497013" lon="13.5640402"><ele>244.33333333333331</ele><time>2026-03-22T14:16:21.399Z</time></trkpt><trkpt lat="46.2496538" lon="13.563783"><ele>240.0</ele><time>2026-03-22T14:16:22.383Z</time></trkpt><trkpt lat="46.2495928" lon="13.5635307"><ele>240.0</ele><time>2026-03-22T14:16:23.35Z</time></trkpt><trkpt lat="46.2495445" lon="13.563277"><ele>240.0</ele><time>2026-03-22T14:16:24.351Z</time></trkpt><trkpt lat="46.2494999" lon="13.5630251"><ele>240.0</ele><time>2026-03-22T14:16:25.372Z</time></trkpt><trkpt lat="46.2494649" lon="13.5627659"><ele>240.33333333333331</ele><time>2026-03-22T14:16:26.383Z</time></trkpt><trkpt lat="46.2494394" lon="13.5624935"><ele>240.66666666666666</ele><time>2026-03-22T14:16:27.382Z</time></trkpt><trkpt lat="46.2494271" lon="13.5622313"><ele>241.0</ele><time>2026-03-22T14:16:28.372Z</time></trkpt><trkpt lat="46.2494046" lon="13.5619638"><ele>242.0</ele><time>2026-03-22T14:16:29.369Z</time></trkpt><trkpt lat="46.2493611" lon="13.5616976"><ele>243.0</ele><time>2026-03-22T14:16:30.365Z</time></trkpt><trkpt lat="46.2493161" lon="13.5614299"><ele>244.0</ele><time>2026-03-22T14:16:31.361Z</time></trkpt><trkpt lat="46.2492816" lon="13.5611613"><ele>244.33333333333331</ele><time>2026-03-22T14:16:32.364Z</time></trkpt><trkpt lat="46.2492261" lon="13.5608919"><ele>244.66666666666669</ele><time>2026-03-22T14:16:33.382Z</time></trkpt><trkpt lat="46.2492134" lon="13.5606173"><ele>245.0</ele><time>2026-03-22T14:16:34.355Z</time></trkpt><trkpt lat="46.2491883" lon="13.5603452"><ele>246.33333333333334</ele><time>2026-03-22T14:16:35.363Z</time></trkpt><trkpt lat="46.2491603" lon="13.5600763"><ele>247.66666666666669</ele><time>2026-03-22T14:16:36.363Z</time></trkpt><trkpt lat="46.2491404" lon="13.5598056"><ele>249.0</ele><time>2026-03-22T14:16:37.391Z</time></trkpt><trkpt lat="46.2491082" lon="13.5595297"><ele>249.33333333333331</ele><time>2026-03-22T14:16:38.374Z</time></trkpt><trkpt lat="46.2490769" lon="13.5592503"><ele>249.66666666666666</ele><time>2026-03-22T14:16:39.367Z</time></trkpt><trkpt lat="46.2490508" lon="13.5589699"><ele>250.0</ele><time>2026-03-22T14:16:40.369Z</time></trkpt><trkpt lat="46.2490154" lon="13.5586854"><ele>250.0</ele><time>2026-03-22T14:16:41.368Z</time></trkpt><trkpt lat="46.2489725" lon="13.5583857"><ele>250.0</ele><time>2026-03-22T14:16:42.361Z</time></trkpt><trkpt lat="46.2489553" lon="13.5581083"><ele>250.0</ele><time>2026-03-22T14:16:43.391Z</time></trkpt><trkpt lat="46.2489325" lon="13.557831"><ele>245.66666666666666</ele><time>2026-03-22T14:16:44.371Z</time></trkpt><trkpt lat="46.2488979" lon="13.5575585"><ele>241.33333333333331</ele><time>2026-03-22T14:16:45.368Z</time></trkpt><trkpt lat="46.2488634" lon="13.5572989"><ele>237.0</ele><time>2026-03-22T14:16:46.365Z</time></trkpt><trkpt lat="46.2488326" lon="13.5570424"><ele>237.33333333333331</ele><time>2026-03-22T14:16:47.368Z</time></trkpt><trkpt lat="46.248797" lon="13.5567887"><ele>237.66666666666666</ele><time>2026-03-22T14:16:48.368Z</time></trkpt><trkpt lat="46.2487644" lon="13.556542"><ele>238.0</ele><time>2026-03-22T14:16:49.359Z</time></trkpt><trkpt lat="46.2487389" lon="13.5563078"><ele>239.66666666666666</ele><time>2026-03-22T14:16:50.351Z</time></trkpt><trkpt lat="46.2487118" lon="13.55608"><ele>241.33333333333331</ele><time>2026-03-22T14:16:51.362Z</time></trkpt><trkpt lat="46.2486805" lon="13.5558566"><ele>243.0</ele><time>2026-03-22T14:16:52.384Z</time></trkpt><trkpt lat="46.2486526" lon="13.5556394"><ele>243.0</ele><time>2026-03-22T14:16:53.356Z</time></trkpt><trkpt lat="46.2486167" lon="13.5554337"><ele>243.0</ele><time>2026-03-22T14:16:54.363Z</time></trkpt><trkpt lat="46.2485964" lon="13.5552292"><ele>243.0</ele><time>2026-03-22T14:16:55.379Z</time></trkpt><trkpt lat="46.2485682" lon="13.5550344"><ele>243.0</ele><time>2026-03-22T14:16:56.358Z</time></trkpt><trkpt lat="46.2485161" lon="13.554834"><ele>243.33333333333331</ele><time>2026-03-22T14:16:57.372Z</time></trkpt><trkpt lat="46.2484626" lon="13.5546313"><ele>243.66666666666666</ele><time>2026-03-22T14:16:58.36Z</time></trkpt><trkpt lat="46.2483843" lon="13.5544281"><ele>244.0</ele><time>2026-03-22T14:16:59.363Z</time></trkpt><trkpt lat="46.2483159" lon="13.5542115"><ele>245.0</ele><time>2026-03-22T14:17:00.368Z</time></trkpt><trkpt lat="46.2482526" lon="13.554"><ele>246.0</ele><time>2026-03-22T14:17:01.367Z</time></trkpt><trkpt lat="46.248193" lon="13.5537978"><ele>247.0</ele><time>2026-03-22T14:17:02.354Z</time></trkpt><trkpt lat="46.2481348" lon="13.5536053"><ele>244.75</ele><time>2026-03-22T14:17:03.374Z</time></trkpt><trkpt lat="46.2480807" lon="13.5534132"><ele>242.5</ele><time>2026-03-22T14:17:04.351Z</time></trkpt><trkpt lat="46.248027" lon="13.5532181"><ele>240.25</ele><time>2026-03-22T14:17:05.367Z</time></trkpt><trkpt lat="46.2479784" lon="13.5530025"><ele>238.0</ele><time>2026-03-22T14:17:06.365Z</time></trkpt><trkpt lat="46.2479177" lon="13.5527701"><ele>238.0</ele><time>2026-03-22T14:17:07.365Z</time></trkpt><trkpt lat="46.2478703" lon="13.5525118"><ele>238.0</ele><time>2026-03-22T14:17:08.361Z</time></trkpt><trkpt lat="46.2478192" lon="13.5522244"><ele>238.0</ele><time>2026-03-22T14:17:09.368Z</time></trkpt><trkpt lat="46.2477779" lon="13.5519174"><ele>238.66666666666666</ele><time>2026-03-22T14:17:10.361Z</time></trkpt><trkpt lat="46.2477409" lon="13.551628"><ele>239.33333333333331</ele><time>2026-03-22T14:17:11.353Z</time></trkpt><trkpt lat="46.2476992" lon="13.551366"><ele>240.0</ele><time>2026-03-22T14:17:12.378Z</time></trkpt><trkpt lat="46.2476598" lon="13.5511288"><ele>240.5</ele><time>2026-03-22T14:17:13.373Z</time></trkpt><trkpt lat="46.2476373" lon="13.5509049"><ele>241.0</ele><time>2026-03-22T14:17:14.37Z</time></trkpt><trkpt lat="46.2475956" lon="13.5507071"><ele>241.5</ele><time>2026-03-22T14:17:15.368Z</time></trkpt><trkpt lat="46.2475649" lon="13.5505229"><ele>242.0</ele><time>2026-03-22T14:17:16.373Z</time></trkpt><trkpt lat="46.2475139" lon="13.5503591"><ele>243.0</ele><time>2026-03-22T14:17:17.371Z</time></trkpt><trkpt lat="46.2474659" lon="13.550203"><ele>244.0</ele><time>2026-03-22T14:17:18.369Z</time></trkpt><trkpt lat="46.2474164" lon="13.5500453"><ele>245.0</ele><time>2026-03-22T14:17:19.353Z</time></trkpt><trkpt lat="46.2473671" lon="13.5498876"><ele>246.0</ele><time>2026-03-22T14:17:20.36Z</time></trkpt><trkpt lat="46.2473175" lon="13.5497313"><ele>244.0</ele><time>2026-03-22T14:17:21.359Z</time></trkpt><trkpt lat="46.2472701" lon="13.5495756"><ele>242.0</ele><time>2026-03-22T14:17:22.35Z</time></trkpt><trkpt lat="46.2472341" lon="13.5494154"><ele>240.0</ele><time>2026-03-22T14:17:23.373Z</time></trkpt><trkpt lat="46.2471936" lon="13.5492477"><ele>238.0</ele><time>2026-03-22T14:17:24.359Z</time></trkpt><trkpt lat="46.2471603" lon="13.5490731"><ele>237.5</ele><time>2026-03-22T14:17:25.358Z</time></trkpt><trkpt lat="46.2471585" lon="13.5488771"><ele>237.0</ele><time>2026-03-22T14:17:26.354Z</time></trkpt><trkpt lat="46.2471747" lon="13.548668"><ele>236.5</ele><time>2026-03-22T14:17:27.38Z</time></trkpt><trkpt lat="46.2471956" lon="13.5484397"><ele>236.0</ele><time>2026-03-22T14:17:28.371Z</time></trkpt><trkpt lat="46.2472176" lon="13.5481962"><ele>236.0</ele><time>2026-03-22T14:17:29.38Z</time></trkpt><trkpt lat="46.2472621" lon="13.5479441"><ele>236.0</ele><time>2026-03-22T14:17:30.354Z</time></trkpt><trkpt lat="46.2472984" lon="13.5476847"><ele>236.0</ele><time>2026-03-22T14:17:31.363Z</time></trkpt><trkpt lat="46.2473299" lon="13.5474237"><ele>239.66666666666669</ele><time>2026-03-22T14:17:32.358Z</time></trkpt><trkpt lat="46.2473623" lon="13.5471639"><ele>243.33333333333331</ele><time>2026-03-22T14:17:33.372Z</time></trkpt><trkpt lat="46.247402" lon="13.5469056"><ele>247.0</ele><time>2026-03-22T14:17:34.353Z</time></trkpt><trkpt lat="46.2474434" lon="13.5466497"><ele>247.0</ele><time>2026-03-22T14:17:35.36Z</time></trkpt><trkpt lat="46.2474912" lon="13.5463994"><ele>247.0</ele><time>2026-03-22T14:17:36.353Z</time></trkpt><trkpt lat="46.2475423" lon="13.5461518"><ele>247.0</ele><time>2026-03-22T14:17:37.38Z</time></trkpt><trkpt lat="46.2476019" lon="13.5459113"><ele>244.33333333333331</ele><time>2026-03-22T14:17:38.363Z</time></trkpt><trkpt lat="46.2476416" lon="13.5456631"><ele>241.66666666666669</ele><time>2026-03-22T14:17:39.363Z</time></trkpt><trkpt lat="46.2476688" lon="13.5454101"><ele>239.0</ele><time>2026-03-22T14:17:40.355Z</time></trkpt><trkpt lat="46.2476743" lon="13.5451571"><ele>239.0</ele><time>2026-03-22T14:17:41.359Z</time></trkpt><trkpt lat="46.2476696" lon="13.5449006"><ele>239.0</ele><time>2026-03-22T14:17:42.367Z</time></trkpt><trkpt lat="46.2476527" lon="13.5446431"><ele>239.0</ele><time>2026-03-22T14:17:43.37Z</time></trkpt><trkpt lat="46.2476308" lon="13.544386"><ele>239.33333333333334</ele><time>2026-03-22T14:17:44.355Z</time></trkpt><trkpt lat="46.2476055" lon="13.5441307"><ele>239.66666666666669</ele><time>2026-03-22T14:17:45.376Z</time></trkpt><trkpt lat="46.2475757" lon="13.5438774"><ele>240.0</ele><time>2026-03-22T14:17:46.344Z</time></trkpt><trkpt lat="46.2475351" lon="13.5436255"><ele>241.33333333333331</ele><time>2026-03-22T14:17:47.369Z</time></trkpt><trkpt lat="46.247475" lon="13.5433798"><ele>242.66666666666666</ele><time>2026-03-22T14:17:48.38Z</time></trkpt><trkpt lat="46.2474141" lon="13.543134"><ele>244.0</ele><time>2026-03-22T14:17:49.359Z</time></trkpt><trkpt lat="46.2473559" lon="13.5428874"><ele>241.66666666666666</ele><time>2026-03-22T14:17:50.345Z</time></trkpt><trkpt lat="46.2472854" lon="13.5426433"><ele>239.33333333333331</ele><time>2026-03-22T14:17:51.364Z</time></trkpt><trkpt lat="46.2472491" lon="13.5423847"><ele>237.0</ele><time>2026-03-22T14:17:52.352Z</time></trkpt><trkpt lat="46.2471846" lon="13.5421326"><ele>238.33333333333331</ele><time>2026-03-22T14:17:53.355Z</time></trkpt><trkpt lat="46.2471339" lon="13.5418759"><ele>239.66666666666666</ele><time>2026-03-22T14:17:54.357Z</time></trkpt><trkpt lat="46.2470685" lon="13.5416209"><ele>241.0</ele><time>2026-03-22T14:17:55.36Z</time></trkpt><trkpt lat="46.2470037" lon="13.5413616"><ele>241.66666666666666</ele><time>2026-03-22T14:17:56.352Z</time></trkpt><trkpt lat="46.2469374" lon="13.5411027"><ele>242.33333333333331</ele><time>2026-03-22T14:17:57.369Z</time></trkpt><trkpt lat="46.2468777" lon="13.5408431"><ele>243.0</ele><time>2026-03-22T14:17:58.351Z</time></trkpt><trkpt lat="46.2468183" lon="13.5405788"><ele>243.0</ele><time>2026-03-22T14:17:59.38Z</time></trkpt><trkpt lat="46.2467744" lon="13.5403089"><ele>243.0</ele><time>2026-03-22T14:18:00.363Z</time></trkpt><trkpt lat="46.2467351" lon="13.5400337"><ele>243.0</ele><time>2026-03-22T14:18:01.359Z</time></trkpt><trkpt lat="46.2467224" lon="13.5397574"><ele>242.33333333333331</ele><time>2026-03-22T14:18:02.373Z</time></trkpt><trkpt lat="46.2467141" lon="13.5394811"><ele>241.66666666666666</ele><time>2026-03-22T14:18:03.385Z</time></trkpt><trkpt lat="46.2466969" lon="13.5392052"><ele>241.0</ele><time>2026-03-22T14:18:04.346Z</time></trkpt><trkpt lat="46.2466853" lon="13.53893"><ele>240.66666666666666</ele><time>2026-03-22T14:18:05.357Z</time></trkpt><trkpt lat="46.2466504" lon="13.5386568"><ele>240.33333333333331</ele><time>2026-03-22T14:18:06.356Z</time></trkpt><trkpt lat="46.246612" lon="13.538383"><ele>240.0</ele><time>2026-03-22T14:18:07.348Z</time></trkpt><trkpt lat="46.2465698" lon="13.5381088"><ele>241.0</ele><time>2026-03-22T14:18:08.378Z</time></trkpt><trkpt lat="46.2465184" lon="13.5378324"><ele>242.0</ele><time>2026-03-22T14:18:09.397Z</time></trkpt><trkpt lat="46.2464684" lon="13.5375537"><ele>243.0</ele><time>2026-03-22T14:18:10.365Z</time></trkpt><trkpt lat="46.2464216" lon="13.5372734"><ele>241.66666666666669</ele><time>2026-03-22T14:18:11.375Z</time></trkpt><trkpt lat="46.2463764" lon="13.5369944"><ele>240.33333333333334</ele><time>2026-03-22T14:18:12.39Z</time></trkpt><trkpt lat="46.2463301" lon="13.5367188"><ele>239.0</ele><time>2026-03-22T14:18:13.353Z</time></trkpt><trkpt lat="46.2462865" lon="13.5364468"><ele>238.66666666666669</ele><time>2026-03-22T14:18:14.358Z</time></trkpt><trkpt lat="46.2462451" lon="13.5361791"><ele>238.33333333333331</ele><time>2026-03-22T14:18:15.377Z</time></trkpt><trkpt lat="46.2462048" lon="13.5359166"><ele>238.0</ele><time>2026-03-22T14:18:16.359Z</time></trkpt><trkpt lat="46.246167" lon="13.5356571"><ele>238.0</ele><time>2026-03-22T14:18:17.357Z</time></trkpt><trkpt lat="46.2461301" lon="13.5353997"><ele>238.0</ele><time>2026-03-22T14:18:18.356Z</time></trkpt><trkpt lat="46.2461031" lon="13.5351391"><ele>238.0</ele><time>2026-03-22T14:18:19.38Z</time></trkpt><trkpt lat="46.2460844" lon="13.5348752"><ele>239.33333333333331</ele><time>2026-03-22T14:18:20.367Z</time></trkpt><trkpt lat="46.2460686" lon="13.5346092"><ele>240.66666666666669</ele><time>2026-03-22T14:18:21.352Z</time></trkpt><trkpt lat="46.2460518" lon="13.5343423"><ele>242.0</ele><time>2026-03-22T14:18:22.359Z</time></trkpt><trkpt lat="46.2460396" lon="13.5340747"><ele>242.66666666666669</ele><time>2026-03-22T14:18:23.361Z</time></trkpt><trkpt lat="46.2460285" lon="13.533808"><ele>243.33333333333331</ele><time>2026-03-22T14:18:24.368Z</time></trkpt><trkpt lat="46.246026" lon="13.5335454"><ele>244.0</ele><time>2026-03-22T14:18:25.372Z</time></trkpt><trkpt lat="46.2460144" lon="13.5332878"><ele>244.33333333333331</ele><time>2026-03-22T14:18:26.375Z</time></trkpt><trkpt lat="46.2460036" lon="13.5330332"><ele>244.66666666666669</ele><time>2026-03-22T14:18:27.36Z</time></trkpt><trkpt lat="46.2459925" lon="13.532778"><ele>245.0</ele><time>2026-03-22T14:18:28.37Z</time></trkpt><trkpt lat="46.2459822" lon="13.5325204"><ele>245.0</ele><time>2026-03-22T14:18:29.351Z</time></trkpt><trkpt lat="46.2459752" lon="13.532264"><ele>245.0</ele><time>2026-03-22T14:18:30.356Z</time></trkpt><trkpt lat="46.2459665" lon="13.5320112"><ele>245.0</ele><time>2026-03-22T14:18:31.359Z</time></trkpt><trkpt lat="46.2459625" lon="13.5317661"><ele>245.66666666666669</ele><time>2026-03-22T14:18:32.352Z</time></trkpt><trkpt lat="46.2459573" lon="13.5315258"><ele>246.33333333333331</ele><time>2026-03-22T14:18:33.351Z</time></trkpt><trkpt lat="46.2459192" lon="13.531286"><ele>247.0</ele><time>2026-03-22T14:18:34.367Z</time></trkpt><trkpt lat="46.2459258" lon="13.5310544"><ele>247.33333333333331</ele><time>2026-03-22T14:18:35.352Z</time></trkpt><trkpt lat="46.2459241" lon="13.5308258"><ele>247.66666666666669</ele><time>2026-03-22T14:18:36.349Z</time></trkpt><trkpt lat="46.2459278" lon="13.5306025"><ele>248.0</ele><time>2026-03-22T14:18:37.371Z</time></trkpt><trkpt lat="46.2459311" lon="13.5303834"><ele>248.0</ele><time>2026-03-22T14:18:38.35Z</time></trkpt><trkpt lat="46.245936" lon="13.5301653"><ele>248.0</ele><time>2026-03-22T14:18:39.358Z</time></trkpt><trkpt lat="46.2459264" lon="13.5299457"><ele>248.0</ele><time>2026-03-22T14:18:40.365Z</time></trkpt><trkpt lat="46.2459181" lon="13.5297272"><ele>248.25</ele><time>2026-03-22T14:18:41.374Z</time></trkpt><trkpt lat="46.2458892" lon="13.5295119"><ele>248.5</ele><time>2026-03-22T14:18:42.366Z</time></trkpt><trkpt lat="46.2458768" lon="13.5293003"><ele>248.75</ele><time>2026-03-22T14:18:43.377Z</time></trkpt><trkpt lat="46.2458697" lon="13.5290889"><ele>249.0</ele><time>2026-03-22T14:18:44.374Z</time></trkpt><trkpt lat="46.2458841" lon="13.5288867"><ele>249.25</ele><time>2026-03-22T14:18:45.368Z</time></trkpt><trkpt lat="46.2458824" lon="13.5287031"><ele>249.5</ele><time>2026-03-22T14:18:46.376Z</time></trkpt><trkpt lat="46.2458782" lon="13.5285388"><ele>249.75</ele><time>2026-03-22T14:18:47.365Z</time></trkpt><trkpt lat="46.2458553" lon="13.5283871"><ele>250.0</ele><time>2026-03-22T14:18:48.362Z</time></trkpt><trkpt lat="46.2458628" lon="13.5282391"><ele>249.99999999999997</ele><time>2026-03-22T14:18:49.358Z</time></trkpt><trkpt lat="46.245884" lon="13.5281095"><ele>250.0</ele><time>2026-03-22T14:18:50.348Z</time></trkpt><trkpt lat="46.2459346" lon="13.5280133"><ele>250.0</ele><time>2026-03-22T14:18:51.353Z</time></trkpt><trkpt lat="46.2459796" lon="13.5279351"><ele>250.0</ele><time>2026-03-22T14:18:52.364Z</time></trkpt><trkpt lat="46.2459803" lon="13.5278406"><ele>249.99999999999997</ele><time>2026-03-22T14:18:53.376Z</time></trkpt><trkpt lat="46.2459624" lon="13.5277519"><ele>250.0</ele><time>2026-03-22T14:18:54.37Z</time></trkpt><trkpt lat="46.2459075" lon="13.5276757"><ele>250.25</ele><time>2026-03-22T14:18:55.371Z</time></trkpt><trkpt lat="46.2458364" lon="13.5275849"><ele>250.5</ele><time>2026-03-22T14:18:56.351Z</time></trkpt><trkpt lat="46.2457746" lon="13.5274363"><ele>250.75</ele><time>2026-03-22T14:18:57.366Z</time></trkpt><trkpt lat="46.2457261" lon="13.5272373"><ele>251.0</ele><time>2026-03-22T14:18:58.363Z</time></trkpt><trkpt lat="46.2456955" lon="13.5269987"><ele>251.0</ele><time>2026-03-22T14:18:59.373Z</time></trkpt><trkpt lat="46.2456838" lon="13.526742"><ele>251.0</ele><time>2026-03-22T14:19:00.355Z</time></trkpt><trkpt lat="46.245663" lon="13.5264839"><ele>251.0</ele><time>2026-03-22T14:19:01.353Z</time></trkpt><trkpt lat="46.2456393" lon="13.5262217"><ele>250.33333333333334</ele><time>2026-03-22T14:19:02.366Z</time></trkpt><trkpt lat="46.2456323" lon="13.5259617"><ele>249.66666666666669</ele><time>2026-03-22T14:19:03.36Z</time></trkpt><trkpt lat="46.2456503" lon="13.5257009"><ele>249.0</ele><time>2026-03-22T14:19:04.355Z</time></trkpt><trkpt lat="46.2456729" lon="13.5254393"><ele>249.0</ele><time>2026-03-22T14:19:05.361Z</time></trkpt><trkpt lat="46.2456889" lon="13.5251738"><ele>249.0</ele><time>2026-03-22T14:19:06.372Z</time></trkpt><trkpt lat="46.2456908" lon="13.5249048"><ele>249.0</ele><time>2026-03-22T14:19:07.368Z</time></trkpt><trkpt lat="46.2456788" lon="13.5246377"><ele>249.66666666666669</ele><time>2026-03-22T14:19:08.362Z</time></trkpt><trkpt lat="46.245646" lon="13.5243801"><ele>250.33333333333334</ele><time>2026-03-22T14:19:09.365Z</time></trkpt><trkpt lat="46.2456132" lon="13.5241318"><ele>251.0</ele><time>2026-03-22T14:19:10.349Z</time></trkpt><trkpt lat="46.24558" lon="13.5238896"><ele>250.66666666666669</ele><time>2026-03-22T14:19:11.378Z</time></trkpt><trkpt lat="46.2455482" lon="13.523648"><ele>250.33333333333331</ele><time>2026-03-22T14:19:12.378Z</time></trkpt><trkpt lat="46.2455272" lon="13.523403"><ele>250.0</ele><time>2026-03-22T14:19:13.361Z</time></trkpt><trkpt lat="46.2455161" lon="13.5231559"><ele>250.0</ele><time>2026-03-22T14:19:14.373Z</time></trkpt><trkpt lat="46.2455115" lon="13.5229065"><ele>250.0</ele><time>2026-03-22T14:19:15.37Z</time></trkpt><trkpt lat="46.2455206" lon="13.5226512"><ele>250.0</ele><time>2026-03-22T14:19:16.368Z</time></trkpt><trkpt lat="46.2455407" lon="13.522391"><ele>251.0</ele><time>2026-03-22T14:19:17.376Z</time></trkpt><trkpt lat="46.2455704" lon="13.5221316"><ele>252.0</ele><time>2026-03-22T14:19:18.365Z</time></trkpt><trkpt lat="46.2456061" lon="13.5218793"><ele>253.0</ele><time>2026-03-22T14:19:19.348Z</time></trkpt><trkpt lat="46.245642" lon="13.5216337"><ele>253.33333333333331</ele><time>2026-03-22T14:19:20.358Z</time></trkpt><trkpt lat="46.2456631" lon="13.5213886"><ele>253.66666666666669</ele><time>2026-03-22T14:19:21.37Z</time></trkpt><trkpt lat="46.2456633" lon="13.5211415"><ele>254.0</ele><time>2026-03-22T14:19:22.369Z</time></trkpt><trkpt lat="46.2456497" lon="13.5208918"><ele>254.0</ele><time>2026-03-22T14:19:23.365Z</time></trkpt><trkpt lat="46.245614" lon="13.5206429"><ele>254.0</ele><time>2026-03-22T14:19:24.365Z</time></trkpt><trkpt lat="46.2455817" lon="13.5203877"><ele>254.0</ele><time>2026-03-22T14:19:25.356Z</time></trkpt><trkpt lat="46.2455441" lon="13.5201278"><ele>254.0</ele><time>2026-03-22T14:19:26.351Z</time></trkpt><trkpt lat="46.245513" lon="13.5198619"><ele>254.0</ele><time>2026-03-22T14:19:27.35Z</time></trkpt><trkpt lat="46.2454787" lon="13.5195945"><ele>254.0</ele><time>2026-03-22T14:19:28.35Z</time></trkpt><trkpt lat="46.2454395" lon="13.519327"><ele>252.66666666666669</ele><time>2026-03-22T14:19:29.366Z</time></trkpt><trkpt lat="46.2453971" lon="13.5190592"><ele>251.33333333333331</ele><time>2026-03-22T14:19:30.36Z</time></trkpt><trkpt lat="46.245354" lon="13.5187917"><ele>250.0</ele><time>2026-03-22T14:19:31.385Z</time></trkpt><trkpt lat="46.2453063" lon="13.5185257"><ele>248.66666666666666</ele><time>2026-03-22T14:19:32.347Z</time></trkpt><trkpt lat="46.2452408" lon="13.5182646"><ele>247.33333333333331</ele><time>2026-03-22T14:19:33.365Z</time></trkpt><trkpt lat="46.245156" lon="13.5180118"><ele>246.0</ele><time>2026-03-22T14:19:34.369Z</time></trkpt><trkpt lat="46.2450703" lon="13.5177543"><ele>245.66666666666669</ele><time>2026-03-22T14:19:35.388Z</time></trkpt><trkpt lat="46.2449746" lon="13.5175026"><ele>245.33333333333334</ele><time>2026-03-22T14:19:36.36Z</time></trkpt><trkpt lat="46.244882" lon="13.517249"><ele>245.0</ele><time>2026-03-22T14:19:37.348Z</time></trkpt><trkpt lat="46.2447973" lon="13.5169941"><ele>246.33333333333334</ele><time>2026-03-22T14:19:38.353Z</time></trkpt><trkpt lat="46.2447281" lon="13.5167406"><ele>247.66666666666669</ele><time>2026-03-22T14:19:39.358Z</time></trkpt><trkpt lat="46.2446622" lon="13.5164886"><ele>249.0</ele><time>2026-03-22T14:19:40.34Z</time></trkpt><trkpt lat="46.2446123" lon="13.5162347"><ele>249.66666666666669</ele><time>2026-03-22T14:19:41.359Z</time></trkpt><trkpt lat="46.2445667" lon="13.5159856"><ele>250.33333333333334</ele><time>2026-03-22T14:19:42.36Z</time></trkpt><trkpt lat="46.2445292" lon="13.5157425"><ele>251.0</ele><time>2026-03-22T14:19:43.352Z</time></trkpt><trkpt lat="46.2444923" lon="13.5155078"><ele>251.66666666666669</ele><time>2026-03-22T14:19:44.35Z</time></trkpt><trkpt lat="46.2444532" lon="13.5152815"><ele>252.33333333333331</ele><time>2026-03-22T14:19:45.375Z</time></trkpt><trkpt lat="46.2444151" lon="13.5150593"><ele>253.0</ele><time>2026-03-22T14:19:46.357Z</time></trkpt><trkpt lat="46.2443857" lon="13.5148409"><ele>253.0</ele><time>2026-03-22T14:19:47.385Z</time></trkpt><trkpt lat="46.2443769" lon="13.5146331"><ele>253.0</ele><time>2026-03-22T14:19:48.362Z</time></trkpt><trkpt lat="46.2443591" lon="13.5144353"><ele>253.0</ele><time>2026-03-22T14:19:49.354Z</time></trkpt><trkpt lat="46.2442948" lon="13.5142558"><ele>253.0</ele><time>2026-03-22T14:19:50.359Z</time></trkpt><trkpt lat="46.2442301" lon="13.5140828"><ele>253.75</ele><time>2026-03-22T14:19:51.364Z</time></trkpt><trkpt lat="46.2441742" lon="13.5139004"><ele>254.5</ele><time>2026-03-22T14:19:52.353Z</time></trkpt><trkpt lat="46.2441343" lon="13.5137012"><ele>255.25</ele><time>2026-03-22T14:19:53.365Z</time></trkpt><trkpt lat="46.2441177" lon="13.5134788"><ele>256.0</ele><time>2026-03-22T14:19:54.369Z</time></trkpt><trkpt lat="46.244096" lon="13.5132414"><ele>256.66666666666663</ele><time>2026-03-22T14:19:55.346Z</time></trkpt><trkpt lat="46.244066" lon="13.5129966"><ele>257.3333333333333</ele><time>2026-03-22T14:19:56.373Z</time></trkpt><trkpt lat="46.2440057" lon="13.5127545"><ele>258.0</ele><time>2026-03-22T14:19:57.349Z</time></trkpt><trkpt lat="46.2439343" lon="13.5125182"><ele>259.3333333333333</ele><time>2026-03-22T14:19:58.355Z</time></trkpt><trkpt lat="46.2438732" lon="13.512284"><ele>260.66666666666663</ele><time>2026-03-22T14:19:59.371Z</time></trkpt><trkpt lat="46.2437946" lon="13.5120587"><ele>262.0</ele><time>2026-03-22T14:20:00.375Z</time></trkpt><trkpt lat="46.2437098" lon="13.5118257"><ele>262.0</ele><time>2026-03-22T14:20:01.377Z</time></trkpt><trkpt lat="46.243602" lon="13.511605"><ele>262.0</ele><time>2026-03-22T14:20:02.367Z</time></trkpt><trkpt lat="46.2434794" lon="13.5114006"><ele>262.0</ele><time>2026-03-22T14:20:03.368Z</time></trkpt><trkpt lat="46.2433578" lon="13.5111954"><ele>258.3333333333333</ele><time>2026-03-22T14:20:04.383Z</time></trkpt><trkpt lat="46.2432385" lon="13.5109669"><ele>254.66666666666669</ele><time>2026-03-22T14:20:05.361Z</time></trkpt><trkpt lat="46.2431419" lon="13.5107156"><ele>251.0</ele><time>2026-03-22T14:20:06.369Z</time></trkpt><trkpt lat="46.2430631" lon="13.5104453"><ele>271.6666666666667</ele><time>2026-03-22T14:20:07.376Z</time></trkpt><trkpt lat="46.2430056" lon="13.5101779"><ele>292.3333333333333</ele><time>2026-03-22T14:20:08.365Z</time></trkpt><trkpt lat="46.2429378" lon="13.5099377"><ele>313.0</ele><time>2026-03-22T14:20:09.354Z</time></trkpt><trkpt lat="46.2428575" lon="13.5097076"><ele>296.3333333333333</ele><time>2026-03-22T14:20:10.369Z</time></trkpt><trkpt lat="46.2427812" lon="13.509483"><ele>279.6666666666667</ele><time>2026-03-22T14:20:11.37Z</time></trkpt><trkpt lat="46.2427227" lon="13.5092604"><ele>263.0</ele><time>2026-03-22T14:20:12.363Z</time></trkpt><trkpt lat="46.2426585" lon="13.5090533"><ele>263.0</ele><time>2026-03-22T14:20:13.371Z</time></trkpt><trkpt lat="46.2425625" lon="13.5088706"><ele>263.0</ele><time>2026-03-22T14:20:14.365Z</time></trkpt><trkpt lat="46.2424536" lon="13.5087055"><ele>263.0</ele><time>2026-03-22T14:20:15.366Z</time></trkpt><trkpt lat="46.2423535" lon="13.508536"><ele>270.6666666666667</ele><time>2026-03-22T14:20:16.354Z</time></trkpt><trkpt lat="46.2422538" lon="13.5083589"><ele>278.3333333333333</ele><time>2026-03-22T14:20:17.381Z</time></trkpt><trkpt lat="46.2421665" lon="13.5081692"><ele>286.0</ele><time>2026-03-22T14:20:18.373Z</time></trkpt><trkpt lat="46.2421081" lon="13.5079575"><ele>277.66666666666663</ele><time>2026-03-22T14:20:19.36Z</time></trkpt><trkpt lat="46.2420218" lon="13.5077687"><ele>269.3333333333333</ele><time>2026-03-22T14:20:20.375Z</time></trkpt><trkpt lat="46.2419377" lon="13.5075779"><ele>261.0</ele><time>2026-03-22T14:20:21.374Z</time></trkpt><trkpt lat="46.2418458" lon="13.5073967"><ele>261.0</ele><time>2026-03-22T14:20:22.386Z</time></trkpt><trkpt lat="46.2417639" lon="13.5072113"><ele>261.0</ele><time>2026-03-22T14:20:23.375Z</time></trkpt><trkpt lat="46.241685" lon="13.5070216"><ele>261.0</ele><time>2026-03-22T14:20:24.36Z</time></trkpt><trkpt lat="46.2416283" lon="13.5068137"><ele>257.0</ele><time>2026-03-22T14:20:25.379Z</time></trkpt><trkpt lat="46.2415612" lon="13.5066053"><ele>253.0</ele><time>2026-03-22T14:20:26.363Z</time></trkpt><trkpt lat="46.2414963" lon="13.5063864"><ele>249.0</ele><time>2026-03-22T14:20:27.366Z</time></trkpt><trkpt lat="46.241447" lon="13.5061594"><ele>266.3333333333333</ele><time>2026-03-22T14:20:28.367Z</time></trkpt><trkpt lat="46.241392" lon="13.5059287"><ele>283.66666666666663</ele><time>2026-03-22T14:20:29.383Z</time></trkpt><trkpt lat="46.2413287" lon="13.5056951"><ele>301.0</ele><time>2026-03-22T14:20:30.358Z</time></trkpt><trkpt lat="46.2412613" lon="13.5054594"><ele>292.0</ele><time>2026-03-22T14:20:31.36Z</time></trkpt><trkpt lat="46.2411894" lon="13.5052269"><ele>283.0</ele><time>2026-03-22T14:20:32.354Z</time></trkpt><trkpt lat="46.2411195" lon="13.5049939"><ele>274.0</ele><time>2026-03-22T14:20:33.359Z</time></trkpt><trkpt lat="46.2410464" lon="13.5047598"><ele>264.66666666666663</ele><time>2026-03-22T14:20:34.357Z</time></trkpt><trkpt lat="46.2409623" lon="13.5045327"><ele>255.33333333333331</ele><time>2026-03-22T14:20:35.355Z</time></trkpt><trkpt lat="46.2408589" lon="13.5043183"><ele>246.0</ele><time>2026-03-22T14:20:36.352Z</time></trkpt><trkpt lat="46.2407568" lon="13.5041066"><ele>249.33333333333331</ele><time>2026-03-22T14:20:37.361Z</time></trkpt><trkpt lat="46.2406159" lon="13.5039263"><ele>252.66666666666666</ele><time>2026-03-22T14:20:38.377Z</time></trkpt><trkpt lat="46.2404673" lon="13.5037533"><ele>256.0</ele><time>2026-03-22T14:20:39.372Z</time></trkpt><trkpt lat="46.2403188" lon="13.5035794"><ele>256.0</ele><time>2026-03-22T14:20:40.354Z</time></trkpt><trkpt lat="46.2401724" lon="13.5034025"><ele>256.0</ele><time>2026-03-22T14:20:41.361Z</time></trkpt><trkpt lat="46.2400221" lon="13.503232"><ele>256.0</ele><time>2026-03-22T14:20:42.357Z</time></trkpt><trkpt lat="46.2398622" lon="13.5030727"><ele>259.0</ele><time>2026-03-22T14:20:43.362Z</time></trkpt><trkpt lat="46.2396814" lon="13.5029515"><ele>262.0</ele><time>2026-03-22T14:20:44.369Z</time></trkpt><trkpt lat="46.2394892" lon="13.5028736"><ele>265.0</ele><time>2026-03-22T14:20:45.359Z</time></trkpt><trkpt lat="46.239301" lon="13.5027697"><ele>257.66666666666663</ele><time>2026-03-22T14:20:46.356Z</time></trkpt><trkpt lat="46.2391183" lon="13.5026694"><ele>250.33333333333331</ele><time>2026-03-22T14:20:47.36Z</time></trkpt><trkpt lat="46.2389283" lon="13.5025965"><ele>243.0</ele><time>2026-03-22T14:20:48.353Z</time></trkpt><trkpt lat="46.2387375" lon="13.5024944"><ele>243.0</ele><time>2026-03-22T14:20:49.36Z</time></trkpt><trkpt lat="46.2385246" lon="13.5024684"><ele>243.0</ele><time>2026-03-22T14:20:50.368Z</time></trkpt><trkpt lat="46.2383245" lon="13.5023975"><ele>243.0</ele><time>2026-03-22T14:20:51.368Z</time></trkpt><trkpt lat="46.2381112" lon="13.5023683"><ele>246.5</ele><time>2026-03-22T14:20:52.352Z</time></trkpt><trkpt lat="46.2378824" lon="13.5023417"><ele>250.0</ele><time>2026-03-22T14:20:53.37Z</time></trkpt><trkpt lat="46.2376445" lon="13.5023042"><ele>250.0</ele><time>2026-03-22T14:20:54.369Z</time></trkpt><trkpt lat="46.2374092" lon="13.5022658"><ele>250.0</ele><time>2026-03-22T14:20:55.375Z</time></trkpt><trkpt lat="46.2371847" lon="13.5022129"><ele>245.33333333333331</ele><time>2026-03-22T14:20:56.36Z</time></trkpt><trkpt lat="46.2369635" lon="13.5021487"><ele>240.66666666666669</ele><time>2026-03-22T14:20:57.362Z</time></trkpt><trkpt lat="46.2367427" lon="13.5021416"><ele>236.0</ele><time>2026-03-22T14:20:58.367Z</time></trkpt><trkpt lat="46.2365392" lon="13.5020499"><ele>235.0</ele><time>2026-03-22T14:20:59.355Z</time></trkpt><trkpt lat="46.2363408" lon="13.5019941"><ele>234.0</ele><time>2026-03-22T14:21:00.369Z</time></trkpt><trkpt lat="46.2361501" lon="13.5019796"><ele>233.0</ele><time>2026-03-22T14:21:01.369Z</time></trkpt><trkpt lat="46.2359654" lon="13.502015"><ele>233.0</ele><time>2026-03-22T14:21:02.346Z</time></trkpt><trkpt lat="46.2357791" lon="13.502019"><ele>233.0</ele><time>2026-03-22T14:21:03.358Z</time></trkpt><trkpt lat="46.2355948" lon="13.5020991"><ele>233.0</ele><time>2026-03-22T14:21:04.35Z</time></trkpt><trkpt lat="46.2354268" lon="13.5021814"><ele>244.0</ele><time>2026-03-22T14:21:05.366Z</time></trkpt><trkpt lat="46.2351863" lon="13.502291"><ele>255.0</ele><time>2026-03-22T14:21:06.353Z</time></trkpt><trkpt lat="46.2350001" lon="13.5023052"><ele>266.0</ele><time>2026-03-22T14:21:07.344Z</time></trkpt><trkpt lat="46.2348056" lon="13.5023424"><ele>267.6666666666667</ele><time>2026-03-22T14:21:08.346Z</time></trkpt><trkpt lat="46.2346028" lon="13.502294"><ele>269.3333333333333</ele><time>2026-03-22T14:21:09.349Z</time></trkpt><trkpt lat="46.2344087" lon="13.5022052"><ele>271.0</ele><time>2026-03-22T14:21:10.349Z</time></trkpt><trkpt lat="46.2342209" lon="13.5020873"><ele>261.66666666666663</ele><time>2026-03-22T14:21:11.355Z</time></trkpt><trkpt lat="46.2340197" lon="13.5020034"><ele>252.33333333333331</ele><time>2026-03-22T14:21:12.354Z</time></trkpt><trkpt lat="46.233854" lon="13.5019765"><ele>243.0</ele><time>2026-03-22T14:21:13.366Z</time></trkpt><trkpt lat="46.2336567" lon="13.5019098"><ele>242.66666666666669</ele><time>2026-03-22T14:21:14.357Z</time></trkpt><trkpt lat="46.2334637" lon="13.5018656"><ele>242.33333333333334</ele><time>2026-03-22T14:21:15.364Z</time></trkpt><trkpt lat="46.2332904" lon="13.5017663"><ele>242.0</ele><time>2026-03-22T14:21:16.363Z</time></trkpt><trkpt lat="46.2331164" lon="13.5017144"><ele>242.0</ele><time>2026-03-22T14:21:17.36Z</time></trkpt><trkpt lat="46.2329417" lon="13.5016504"><ele>242.0</ele><time>2026-03-22T14:21:18.348Z</time></trkpt><trkpt lat="46.2327615" lon="13.5016246"><ele>242.0</ele><time>2026-03-22T14:21:19.372Z</time></trkpt><trkpt lat="46.2325746" lon="13.5016275"><ele>242.0</ele><time>2026-03-22T14:21:20.349Z</time></trkpt><trkpt lat="46.2323816" lon="13.501631"><ele>242.0</ele><time>2026-03-22T14:21:21.354Z</time></trkpt><trkpt lat="46.2321823" lon="13.5016184"><ele>242.0</ele><time>2026-03-22T14:21:22.351Z</time></trkpt><trkpt lat="46.2319801" lon="13.5015946"><ele>241.33333333333334</ele><time>2026-03-22T14:21:23.359Z</time></trkpt><trkpt lat="46.231777" lon="13.5015567"><ele>240.66666666666669</ele><time>2026-03-22T14:21:24.352Z</time></trkpt><trkpt lat="46.2315751" lon="13.5014828"><ele>240.0</ele><time>2026-03-22T14:21:25.364Z</time></trkpt><trkpt lat="46.2313739" lon="13.5013966"><ele>238.0</ele><time>2026-03-22T14:21:26.351Z</time></trkpt><trkpt lat="46.2311683" lon="13.5013215"><ele>236.0</ele><time>2026-03-22T14:21:27.354Z</time></trkpt><trkpt lat="46.2309694" lon="13.5012239"><ele>234.0</ele><time>2026-03-22T14:21:28.37Z</time></trkpt><trkpt lat="46.2307777" lon="13.5011401"><ele>233.0</ele><time>2026-03-22T14:21:29.351Z</time></trkpt><trkpt lat="46.2305935" lon="13.501058"><ele>232.0</ele><time>2026-03-22T14:21:30.362Z</time></trkpt><trkpt lat="46.2304071" lon="13.5010028"><ele>231.0</ele><time>2026-03-22T14:21:31.367Z</time></trkpt><trkpt lat="46.2302146" lon="13.5009956"><ele>231.0</ele><time>2026-03-22T14:21:32.351Z</time></trkpt><trkpt lat="46.2300184" lon="13.5010155"><ele>231.0</ele><time>2026-03-22T14:21:33.355Z</time></trkpt><trkpt lat="46.2298209" lon="13.5010716"><ele>231.0</ele><time>2026-03-22T14:21:34.371Z</time></trkpt><trkpt lat="46.229621" lon="13.501138"><ele>231.33333333333331</ele><time>2026-03-22T14:21:35.368Z</time></trkpt><trkpt lat="46.2294131" lon="13.5011433"><ele>231.66666666666666</ele><time>2026-03-22T14:21:36.362Z</time></trkpt><trkpt lat="46.2291955" lon="13.5011172"><ele>232.0</ele><time>2026-03-22T14:21:37.376Z</time></trkpt><trkpt lat="46.2289749" lon="13.5010918"><ele>234.66666666666666</ele><time>2026-03-22T14:21:38.349Z</time></trkpt><trkpt lat="46.2287543" lon="13.5010665"><ele>237.33333333333331</ele><time>2026-03-22T14:21:39.442Z</time></trkpt><trkpt lat="46.2285358" lon="13.5010331"><ele>240.0</ele><time>2026-03-22T14:21:40.418Z</time></trkpt><trkpt lat="46.2283188" lon="13.5009619"><ele>242.66666666666669</ele><time>2026-03-22T14:21:41.399Z</time></trkpt><trkpt lat="46.2281008" lon="13.5008792"><ele>245.33333333333334</ele><time>2026-03-22T14:21:42.352Z</time></trkpt><trkpt lat="46.2279071" lon="13.5007612"><ele>248.0</ele><time>2026-03-22T14:21:43.358Z</time></trkpt><trkpt lat="46.2277182" lon="13.5006656"><ele>248.0</ele><time>2026-03-22T14:21:44.352Z</time></trkpt><trkpt lat="46.2275471" lon="13.500549"><ele>248.0</ele><time>2026-03-22T14:21:45.38Z</time></trkpt><trkpt lat="46.2273702" lon="13.5004765"><ele>248.0</ele><time>2026-03-22T14:21:46.403Z</time></trkpt><trkpt lat="46.2271772" lon="13.5004498"><ele>248.33333333333334</ele><time>2026-03-22T14:21:47.36Z</time></trkpt><trkpt lat="46.226982" lon="13.5004424"><ele>248.66666666666669</ele><time>2026-03-22T14:21:48.335Z</time></trkpt><trkpt lat="46.2267839" lon="13.5004305"><ele>249.0</ele><time>2026-03-22T14:21:49.341Z</time></trkpt><trkpt lat="46.2265782" lon="13.5004059"><ele>246.0</ele><time>2026-03-22T14:21:50.329Z</time></trkpt><trkpt lat="46.2263649" lon="13.5004033"><ele>243.0</ele><time>2026-03-22T14:21:51.357Z</time></trkpt><trkpt lat="46.22615" lon="13.5004111"><ele>240.0</ele><time>2026-03-22T14:21:52.351Z</time></trkpt><trkpt lat="46.2259377" lon="13.5003839"><ele>240.0</ele><time>2026-03-22T14:21:53.354Z</time></trkpt><trkpt lat="46.2257364" lon="13.5003476"><ele>240.0</ele><time>2026-03-22T14:21:54.337Z</time></trkpt><trkpt lat="46.2255506" lon="13.5003118"><ele>240.0</ele><time>2026-03-22T14:21:55.346Z</time></trkpt><trkpt lat="46.2253728" lon="13.5002931"><ele>240.0</ele><time>2026-03-22T14:21:56.355Z</time></trkpt><trkpt lat="46.2251916" lon="13.5002749"><ele>240.0</ele><time>2026-03-22T14:21:57.466Z</time></trkpt><trkpt lat="46.2248267" lon="13.5004331"><ele>243.33333333333331</ele><time>2026-03-22T14:21:59.339Z</time></trkpt><trkpt lat="46.2246399" lon="13.5005592"><ele>246.66666666666666</ele><time>2026-03-22T14:22:00.349Z</time></trkpt><trkpt lat="46.2244414" lon="13.5006709"><ele>250.0</ele><time>2026-03-22T14:22:01.357Z</time></trkpt><trkpt lat="46.2242346" lon="13.5007775"><ele>250.0</ele><time>2026-03-22T14:22:02.347Z</time></trkpt><trkpt lat="46.2240202" lon="13.5008921"><ele>250.0</ele><time>2026-03-22T14:22:03.36Z</time></trkpt><trkpt lat="46.2238098" lon="13.5010189"><ele>246.33333333333331</ele><time>2026-03-22T14:22:04.357Z</time></trkpt><trkpt lat="46.2236076" lon="13.5011347"><ele>242.66666666666669</ele><time>2026-03-22T14:22:05.341Z</time></trkpt><trkpt lat="46.2234174" lon="13.5012461"><ele>239.0</ele><time>2026-03-22T14:22:06.352Z</time></trkpt><trkpt lat="46.2232368" lon="13.5013487"><ele>242.33333333333334</ele><time>2026-03-22T14:22:07.35Z</time></trkpt><trkpt lat="46.2230639" lon="13.5014249"><ele>245.66666666666669</ele><time>2026-03-22T14:22:08.36Z</time></trkpt><trkpt lat="46.2228984" lon="13.5015033"><ele>249.0</ele><time>2026-03-22T14:22:09.369Z</time></trkpt><trkpt lat="46.2227383" lon="13.5015856"><ele>249.0</ele><time>2026-03-22T14:22:10.357Z</time></trkpt><trkpt lat="46.2225764" lon="13.5016533"><ele>249.0</ele><time>2026-03-22T14:22:11.352Z</time></trkpt><trkpt lat="46.2224311" lon="13.5017504"><ele>249.0</ele><time>2026-03-22T14:22:12.349Z</time></trkpt><trkpt lat="46.2222941" lon="13.501846"><ele>248.0</ele><time>2026-03-22T14:22:13.388Z</time></trkpt><trkpt lat="46.2221651" lon="13.501942"><ele>247.0</ele><time>2026-03-22T14:22:14.362Z</time></trkpt><trkpt lat="46.2220526" lon="13.5020417"><ele>246.0</ele><time>2026-03-22T14:22:15.366Z</time></trkpt><trkpt lat="46.2219424" lon="13.5021153"><ele>245.0</ele><time>2026-03-22T14:22:16.349Z</time></trkpt><trkpt lat="46.2218379" lon="13.5021735"><ele>245.0</ele><time>2026-03-22T14:22:17.369Z</time></trkpt><trkpt lat="46.2217253" lon="13.5021609"><ele>245.0</ele><time>2026-03-22T14:22:18.369Z</time></trkpt><trkpt lat="46.2216225" lon="13.5020818"><ele>245.0</ele><time>2026-03-22T14:22:19.376Z</time></trkpt><trkpt lat="46.2215302" lon="13.5019725"><ele>245.0</ele><time>2026-03-22T14:22:20.358Z</time></trkpt><trkpt lat="46.2214143" lon="13.5018899"><ele>251.0</ele><time>2026-03-22T14:22:21.359Z</time></trkpt><trkpt lat="46.221275" lon="13.5018415"><ele>257.0</ele><time>2026-03-22T14:22:22.352Z</time></trkpt><trkpt lat="46.2211269" lon="13.5017927"><ele>263.0</ele><time>2026-03-22T14:22:23.341Z</time></trkpt><trkpt lat="46.2209889" lon="13.5016747"><ele>263.0</ele><time>2026-03-22T14:22:24.357Z</time></trkpt><trkpt lat="46.220841" lon="13.5015797"><ele>263.0</ele><time>2026-03-22T14:22:25.35Z</time></trkpt><trkpt lat="46.2207008" lon="13.501505"><ele>263.0</ele><time>2026-03-22T14:22:26.364Z</time></trkpt><trkpt lat="46.2205523" lon="13.5014603"><ele>266.0</ele><time>2026-03-22T14:22:27.356Z</time></trkpt><trkpt lat="46.2204007" lon="13.5014201"><ele>269.0</ele><time>2026-03-22T14:22:28.346Z</time></trkpt><trkpt lat="46.2202468" lon="13.5014065"><ele>272.0</ele><time>2026-03-22T14:22:29.371Z</time></trkpt><trkpt lat="46.2200901" lon="13.5013859"><ele>272.0</ele><time>2026-03-22T14:22:30.385Z</time></trkpt><trkpt lat="46.2199339" lon="13.5013821"><ele>272.0</ele><time>2026-03-22T14:22:31.366Z</time></trkpt><trkpt lat="46.2197727" lon="13.5013554"><ele>272.0</ele><time>2026-03-22T14:22:32.369Z</time></trkpt><trkpt lat="46.2196152" lon="13.5012534"><ele>264.0</ele><time>2026-03-22T14:22:33.378Z</time></trkpt><trkpt lat="46.2194549" lon="13.5011728"><ele>256.0</ele><time>2026-03-22T14:22:34.351Z</time></trkpt><trkpt lat="46.2193044" lon="13.50105"><ele>248.0</ele><time>2026-03-22T14:22:35.366Z</time></trkpt><trkpt lat="46.2191709" lon="13.5009255"><ele>248.0</ele><time>2026-03-22T14:22:36.361Z</time></trkpt><trkpt lat="46.2190585" lon="13.5007396"><ele>248.0</ele><time>2026-03-22T14:22:37.373Z</time></trkpt><trkpt lat="46.2189531" lon="13.5005709"><ele>248.0</ele><time>2026-03-22T14:22:38.359Z</time></trkpt><trkpt lat="46.2188481" lon="13.5003981"><ele>249.5</ele><time>2026-03-22T14:22:39.355Z</time></trkpt><trkpt lat="46.2187486" lon="13.5002427"><ele>251.0</ele><time>2026-03-22T14:22:40.357Z</time></trkpt><trkpt lat="46.218667" lon="13.5000877"><ele>252.5</ele><time>2026-03-22T14:22:41.354Z</time></trkpt><trkpt lat="46.2186045" lon="13.4999367"><ele>254.0</ele><time>2026-03-22T14:22:42.347Z</time></trkpt><trkpt lat="46.2185499" lon="13.4997867"><ele>254.0</ele><time>2026-03-22T14:22:43.358Z</time></trkpt><trkpt lat="46.2184984" lon="13.4996307"><ele>254.0</ele><time>2026-03-22T14:22:44.346Z</time></trkpt><trkpt lat="46.2184437" lon="13.4994696"><ele>254.0</ele><time>2026-03-22T14:22:45.357Z</time></trkpt><trkpt lat="46.2183865" lon="13.499305"><ele>254.0</ele><time>2026-03-22T14:22:46.356Z</time></trkpt><trkpt lat="46.2183217" lon="13.4991394"><ele>252.75</ele><time>2026-03-22T14:22:47.35Z</time></trkpt><trkpt lat="46.2182443" lon="13.4989798"><ele>251.5</ele><time>2026-03-22T14:22:48.363Z</time></trkpt><trkpt lat="46.2181711" lon="13.4988128"><ele>250.25</ele><time>2026-03-22T14:22:49.351Z</time></trkpt><trkpt lat="46.218098" lon="13.4986401"><ele>249.0</ele><time>2026-03-22T14:22:50.35Z</time></trkpt><trkpt lat="46.2180242" lon="13.4984648"><ele>249.0</ele><time>2026-03-22T14:22:51.372Z</time></trkpt><trkpt lat="46.2179581" lon="13.4982828"><ele>249.0</ele><time>2026-03-22T14:22:52.37Z</time></trkpt><trkpt lat="46.2178817" lon="13.4981127"><ele>249.0</ele><time>2026-03-22T14:22:53.371Z</time></trkpt><trkpt lat="46.2178001" lon="13.4979519"><ele>249.0</ele><time>2026-03-22T14:22:54.351Z</time></trkpt><trkpt lat="46.2177248" lon="13.4977905"><ele>245.75</ele><time>2026-03-22T14:22:55.361Z</time></trkpt><trkpt lat="46.2176443" lon="13.4976388"><ele>242.5</ele><time>2026-03-22T14:22:56.348Z</time></trkpt><trkpt lat="46.2175742" lon="13.4974857"><ele>239.25</ele><time>2026-03-22T14:22:57.369Z</time></trkpt><trkpt lat="46.2175124" lon="13.4973403"><ele>236.0</ele><time>2026-03-22T14:22:58.383Z</time></trkpt><trkpt lat="46.2174488" lon="13.4972065"><ele>235.0</ele><time>2026-03-22T14:22:59.358Z</time></trkpt><trkpt lat="46.2173913" lon="13.497074"><ele>234.00000000000003</ele><time>2026-03-22T14:23:00.358Z</time></trkpt><trkpt lat="46.2173358" lon="13.4969422"><ele>233.00000000000003</ele><time>2026-03-22T14:23:01.359Z</time></trkpt><trkpt lat="46.2172815" lon="13.4968105"><ele>232.0</ele><time>2026-03-22T14:23:02.362Z</time></trkpt><trkpt lat="46.2172249" lon="13.4966801"><ele>231.0</ele><time>2026-03-22T14:23:03.349Z</time></trkpt><trkpt lat="46.2171718" lon="13.496547"><ele>231.75</ele><time>2026-03-22T14:23:04.373Z</time></trkpt><trkpt lat="46.2171169" lon="13.4964128"><ele>232.5</ele><time>2026-03-22T14:23:05.372Z</time></trkpt><trkpt lat="46.2170578" lon="13.4962748"><ele>233.25</ele><time>2026-03-22T14:23:06.361Z</time></trkpt><trkpt lat="46.216989" lon="13.4961317"><ele>234.0</ele><time>2026-03-22T14:23:07.361Z</time></trkpt><trkpt lat="46.2169083" lon="13.4959882"><ele>234.0</ele><time>2026-03-22T14:23:08.349Z</time></trkpt><trkpt lat="46.2168136" lon="13.4958507"><ele>234.0</ele><time>2026-03-22T14:23:09.371Z</time></trkpt><trkpt lat="46.2166992" lon="13.495732"><ele>234.0</ele><time>2026-03-22T14:23:10.373Z</time></trkpt><trkpt lat="46.2165652" lon="13.495642"><ele>234.0</ele><time>2026-03-22T14:23:11.355Z</time></trkpt><trkpt lat="46.2164097" lon="13.4956057"><ele>236.66666666666669</ele><time>2026-03-22T14:23:12.376Z</time></trkpt><trkpt lat="46.2162406" lon="13.4956064"><ele>239.33333333333334</ele><time>2026-03-22T14:23:13.379Z</time></trkpt><trkpt lat="46.2160655" lon="13.4956095"><ele>242.0</ele><time>2026-03-22T14:23:14.37Z</time></trkpt><trkpt lat="46.2158829" lon="13.4955917"><ele>242.0</ele><time>2026-03-22T14:23:15.365Z</time></trkpt><trkpt lat="46.2156934" lon="13.4955645"><ele>242.0</ele><time>2026-03-22T14:23:16.365Z</time></trkpt><trkpt lat="46.2155001" lon="13.495545"><ele>242.0</ele><time>2026-03-22T14:23:17.36Z</time></trkpt><trkpt lat="46.2153079" lon="13.4955382"><ele>240.33333333333334</ele><time>2026-03-22T14:23:18.357Z</time></trkpt><trkpt lat="46.21512" lon="13.4955193"><ele>238.66666666666669</ele><time>2026-03-22T14:23:19.37Z</time></trkpt><trkpt lat="46.2149398" lon="13.4954913"><ele>237.0</ele><time>2026-03-22T14:23:20.36Z</time></trkpt><trkpt lat="46.2147625" lon="13.4954272"><ele>233.66666666666669</ele><time>2026-03-22T14:23:21.364Z</time></trkpt><trkpt lat="46.2145854" lon="13.4953603"><ele>230.33333333333334</ele><time>2026-03-22T14:23:22.363Z</time></trkpt><trkpt lat="46.214404" lon="13.4953026"><ele>227.0</ele><time>2026-03-22T14:23:23.368Z</time></trkpt><trkpt lat="46.2142281" lon="13.4952035"><ele>227.0</ele><time>2026-03-22T14:23:24.353Z</time></trkpt><trkpt lat="46.2140614" lon="13.4950795"><ele>227.0</ele><time>2026-03-22T14:23:25.381Z</time></trkpt><trkpt lat="46.2138927" lon="13.4949386"><ele>227.0</ele><time>2026-03-22T14:23:26.372Z</time></trkpt><trkpt lat="46.2137165" lon="13.4948006"><ele>224.0</ele><time>2026-03-22T14:23:27.352Z</time></trkpt><trkpt lat="46.2135432" lon="13.4946438"><ele>221.0</ele><time>2026-03-22T14:23:28.385Z</time></trkpt><trkpt lat="46.2133604" lon="13.4945037"><ele>218.0</ele><time>2026-03-22T14:23:29.362Z</time></trkpt><trkpt lat="46.2131946" lon="13.4943294"><ele>222.0</ele><time>2026-03-22T14:23:30.388Z</time></trkpt><trkpt lat="46.2130281" lon="13.4941433"><ele>226.0</ele><time>2026-03-22T14:23:31.361Z</time></trkpt><trkpt lat="46.2128746" lon="13.4939087"><ele>230.0</ele><time>2026-03-22T14:23:32.35Z</time></trkpt><trkpt lat="46.2127182" lon="13.4936672"><ele>230.0</ele><time>2026-03-22T14:23:33.368Z</time></trkpt><trkpt lat="46.2125682" lon="13.493419"><ele>230.0</ele><time>2026-03-22T14:23:34.368Z</time></trkpt><trkpt lat="46.2124202" lon="13.4931718"><ele>237.0</ele><time>2026-03-22T14:23:35.355Z</time></trkpt><trkpt lat="46.2122622" lon="13.4929437"><ele>244.0</ele><time>2026-03-22T14:23:36.365Z</time></trkpt><trkpt lat="46.2120971" lon="13.4927352"><ele>251.0</ele><time>2026-03-22T14:23:37.368Z</time></trkpt><trkpt lat="46.2119382" lon="13.4925277"><ele>251.0</ele><time>2026-03-22T14:23:38.356Z</time></trkpt><trkpt lat="46.2117752" lon="13.4923377"><ele>251.0</ele><time>2026-03-22T14:23:39.362Z</time></trkpt><trkpt lat="46.2116045" lon="13.492173"><ele>251.0</ele><time>2026-03-22T14:23:40.356Z</time></trkpt><trkpt lat="46.2114666" lon="13.491961"><ele>249.0</ele><time>2026-03-22T14:23:41.368Z</time></trkpt><trkpt lat="46.2113263" lon="13.4917509"><ele>247.0</ele><time>2026-03-22T14:23:42.36Z</time></trkpt><trkpt lat="46.2111833" lon="13.4915483"><ele>245.0</ele><time>2026-03-22T14:23:43.359Z</time></trkpt><trkpt lat="46.2110543" lon="13.491336"><ele>235.0</ele><time>2026-03-22T14:23:44.373Z</time></trkpt><trkpt lat="46.2109228" lon="13.4911414"><ele>225.0</ele><time>2026-03-22T14:23:45.352Z</time></trkpt><trkpt lat="46.2107969" lon="13.4909552"><ele>215.0</ele><time>2026-03-22T14:23:46.372Z</time></trkpt><trkpt lat="46.2106706" lon="13.4907796"><ele>214.33333333333334</ele><time>2026-03-22T14:23:47.367Z</time></trkpt><trkpt lat="46.2105465" lon="13.4906011"><ele>213.66666666666669</ele><time>2026-03-22T14:23:48.369Z</time></trkpt><trkpt lat="46.2104002" lon="13.4904523"><ele>213.0</ele><time>2026-03-22T14:23:49.362Z</time></trkpt><trkpt lat="46.2102551" lon="13.4902882"><ele>213.0</ele><time>2026-03-22T14:23:50.352Z</time></trkpt><trkpt lat="46.2100964" lon="13.4901306"><ele>213.0</ele><time>2026-03-22T14:23:51.366Z</time></trkpt><trkpt lat="46.2099232" lon="13.4899867"><ele>213.0</ele><time>2026-03-22T14:23:52.351Z</time></trkpt><trkpt lat="46.2097407" lon="13.489855"><ele>214.0</ele><time>2026-03-22T14:23:53.38Z</time></trkpt><trkpt lat="46.2095663" lon="13.489701"><ele>215.0</ele><time>2026-03-22T14:23:54.359Z</time></trkpt><trkpt lat="46.209404" lon="13.4895132"><ele>216.0</ele><time>2026-03-22T14:23:55.36Z</time></trkpt><trkpt lat="46.209251" lon="13.489296"><ele>216.0</ele><time>2026-03-22T14:23:56.356Z</time></trkpt><trkpt lat="46.2091065" lon="13.4890673"><ele>216.0</ele><time>2026-03-22T14:23:57.36Z</time></trkpt><trkpt lat="46.2089644" lon="13.4888441"><ele>216.0</ele><time>2026-03-22T14:23:58.367Z</time></trkpt><trkpt lat="46.2088238" lon="13.4886403"><ele>216.33333333333331</ele><time>2026-03-22T14:23:59.369Z</time></trkpt><trkpt lat="46.2087033" lon="13.4884409"><ele>216.66666666666666</ele><time>2026-03-22T14:24:00.356Z</time></trkpt><trkpt lat="46.208588" lon="13.4882605"><ele>217.0</ele><time>2026-03-22T14:24:01.359Z</time></trkpt><trkpt lat="46.2084822" lon="13.4880897"><ele>215.5</ele><time>2026-03-22T14:24:02.373Z</time></trkpt><trkpt lat="46.2083876" lon="13.4879192"><ele>214.0</ele><time>2026-03-22T14:24:03.361Z</time></trkpt><trkpt lat="46.2083157" lon="13.4877457"><ele>212.5</ele><time>2026-03-22T14:24:04.359Z</time></trkpt><trkpt lat="46.208269" lon="13.4875537"><ele>211.0</ele><time>2026-03-22T14:24:05.365Z</time></trkpt><trkpt lat="46.2082416" lon="13.487348"><ele>211.0</ele><time>2026-03-22T14:24:06.365Z</time></trkpt><trkpt lat="46.208274" lon="13.4871209"><ele>211.0</ele><time>2026-03-22T14:24:07.363Z</time></trkpt><trkpt lat="46.2083054" lon="13.4868828"><ele>211.0</ele><time>2026-03-22T14:24:08.354Z</time></trkpt><trkpt lat="46.2083208" lon="13.4866359"><ele>210.33333333333331</ele><time>2026-03-22T14:24:09.354Z</time></trkpt><trkpt lat="46.2082956" lon="13.4863828"><ele>209.66666666666669</ele><time>2026-03-22T14:24:10.364Z</time></trkpt><trkpt lat="46.2082471" lon="13.4861236"><ele>209.0</ele><time>2026-03-22T14:24:11.358Z</time></trkpt><trkpt lat="46.2081586" lon="13.4858787"><ele>208.33333333333334</ele><time>2026-03-22T14:24:12.37Z</time></trkpt><trkpt lat="46.2080715" lon="13.485623"><ele>207.66666666666669</ele><time>2026-03-22T14:24:13.364Z</time></trkpt><trkpt lat="46.2079621" lon="13.4853654"><ele>207.0</ele><time>2026-03-22T14:24:14.36Z</time></trkpt><trkpt lat="46.2078523" lon="13.4851066"><ele>207.0</ele><time>2026-03-22T14:24:15.379Z</time></trkpt><trkpt lat="46.2077455" lon="13.484852"><ele>207.0</ele><time>2026-03-22T14:24:16.352Z</time></trkpt><trkpt lat="46.2076422" lon="13.4846032"><ele>207.0</ele><time>2026-03-22T14:24:17.361Z</time></trkpt><trkpt lat="46.2075427" lon="13.4843553"><ele>207.0</ele><time>2026-03-22T14:24:18.345Z</time></trkpt><trkpt lat="46.2074429" lon="13.484113"><ele>207.0</ele><time>2026-03-22T14:24:19.347Z</time></trkpt><trkpt lat="46.2073591" lon="13.4838636"><ele>207.0</ele><time>2026-03-22T14:24:20.359Z</time></trkpt><trkpt lat="46.207286" lon="13.483618"><ele>212.33333333333331</ele><time>2026-03-22T14:24:21.367Z</time></trkpt><trkpt lat="46.2071936" lon="13.4833857"><ele>217.66666666666666</ele><time>2026-03-22T14:24:22.351Z</time></trkpt><trkpt lat="46.2070978" lon="13.4831668"><ele>223.0</ele><time>2026-03-22T14:24:23.359Z</time></trkpt><trkpt lat="46.2069911" lon="13.4829663"><ele>220.0</ele><time>2026-03-22T14:24:24.354Z</time></trkpt><trkpt lat="46.2068721" lon="13.4827649"><ele>217.0</ele><time>2026-03-22T14:24:25.368Z</time></trkpt><trkpt lat="46.2067511" lon="13.4825653"><ele>214.0</ele><time>2026-03-22T14:24:26.361Z</time></trkpt><trkpt lat="46.206637" lon="13.4823535"><ele>214.0</ele><time>2026-03-22T14:24:27.371Z</time></trkpt><trkpt lat="46.2065311" lon="13.4821249"><ele>214.0</ele><time>2026-03-22T14:24:28.371Z</time></trkpt><trkpt lat="46.2064333" lon="13.4818834"><ele>214.0</ele><time>2026-03-22T14:24:29.352Z</time></trkpt><trkpt lat="46.206336" lon="13.481638"><ele>219.33333333333331</ele><time>2026-03-22T14:24:30.362Z</time></trkpt><trkpt lat="46.2062374" lon="13.481402"><ele>224.66666666666669</ele><time>2026-03-22T14:24:31.376Z</time></trkpt><trkpt lat="46.2061441" lon="13.4811801"><ele>230.0</ele><time>2026-03-22T14:24:32.343Z</time></trkpt><trkpt lat="46.2060629" lon="13.4809689"><ele>230.0</ele><time>2026-03-22T14:24:33.358Z</time></trkpt><trkpt lat="46.2059924" lon="13.4807568"><ele>230.0</ele><time>2026-03-22T14:24:34.358Z</time></trkpt><trkpt lat="46.2059462" lon="13.4805428"><ele>230.0</ele><time>2026-03-22T14:24:35.348Z</time></trkpt><trkpt lat="46.2059048" lon="13.480334"><ele>226.0</ele><time>2026-03-22T14:24:36.351Z</time></trkpt><trkpt lat="46.2058411" lon="13.4801275"><ele>222.0</ele><time>2026-03-22T14:24:37.357Z</time></trkpt><trkpt lat="46.2057813" lon="13.4799066"><ele>218.0</ele><time>2026-03-22T14:24:38.351Z</time></trkpt><trkpt lat="46.2057131" lon="13.4796826"><ele>229.33333333333334</ele><time>2026-03-22T14:24:39.371Z</time></trkpt><trkpt lat="46.2056305" lon="13.4794579"><ele>240.66666666666669</ele><time>2026-03-22T14:24:40.351Z</time></trkpt><trkpt lat="46.2055538" lon="13.4792317"><ele>252.0</ele><time>2026-03-22T14:24:41.369Z</time></trkpt><trkpt lat="46.2054991" lon="13.4790044"><ele>252.0</ele><time>2026-03-22T14:24:42.36Z</time></trkpt><trkpt lat="46.2054299" lon="13.4787897"><ele>252.0</ele><time>2026-03-22T14:24:43.36Z</time></trkpt><trkpt lat="46.2053622" lon="13.4785858"><ele>252.0</ele><time>2026-03-22T14:24:44.357Z</time></trkpt><trkpt lat="46.2052799" lon="13.4783987"><ele>242.0</ele><time>2026-03-22T14:24:45.359Z</time></trkpt><trkpt lat="46.2051856" lon="13.478221"><ele>232.0</ele><time>2026-03-22T14:24:46.349Z</time></trkpt><trkpt lat="46.2050789" lon="13.4780443"><ele>222.0</ele><time>2026-03-22T14:24:47.356Z</time></trkpt><trkpt lat="46.20497" lon="13.477869"><ele>218.5</ele><time>2026-03-22T14:24:48.356Z</time></trkpt><trkpt lat="46.2048645" lon="13.4777003"><ele>215.0</ele><time>2026-03-22T14:24:49.347Z</time></trkpt><trkpt lat="46.2047547" lon="13.4775579"><ele>211.5</ele><time>2026-03-22T14:24:50.359Z</time></trkpt><trkpt lat="46.2046393" lon="13.4774353"><ele>208.0</ele><time>2026-03-22T14:24:51.352Z</time></trkpt><trkpt lat="46.2045235" lon="13.4773094"><ele>211.75</ele><time>2026-03-22T14:24:52.377Z</time></trkpt><trkpt lat="46.2044169" lon="13.4771708"><ele>215.5</ele><time>2026-03-22T14:24:53.361Z</time></trkpt><trkpt lat="46.2043354" lon="13.4770113"><ele>219.25</ele><time>2026-03-22T14:24:54.362Z</time></trkpt><trkpt lat="46.2042839" lon="13.4768282"><ele>223.0</ele><time>2026-03-22T14:24:55.364Z</time></trkpt><trkpt lat="46.2042491" lon="13.476627"><ele>223.0</ele><time>2026-03-22T14:24:56.37Z</time></trkpt><trkpt lat="46.2041964" lon="13.4764341"><ele>223.0</ele><time>2026-03-22T14:24:57.36Z</time></trkpt><trkpt lat="46.2041303" lon="13.4762389"><ele>223.0</ele><time>2026-03-22T14:24:58.345Z</time></trkpt><trkpt lat="46.204028" lon="13.4759756"><ele>225.66666666666666</ele><time>2026-03-22T14:24:59.348Z</time></trkpt><trkpt lat="46.2039366" lon="13.47574"><ele>228.33333333333331</ele><time>2026-03-22T14:25:00.351Z</time></trkpt><trkpt lat="46.2038602" lon="13.4755032"><ele>231.0</ele><time>2026-03-22T14:25:01.369Z</time></trkpt><trkpt lat="46.203796" lon="13.4752737"><ele>231.0</ele><time>2026-03-22T14:25:02.353Z</time></trkpt><trkpt lat="46.2037369" lon="13.4750477"><ele>231.0</ele><time>2026-03-22T14:25:03.371Z</time></trkpt><trkpt lat="46.2036833" lon="13.4748136"><ele>231.0</ele><time>2026-03-22T14:25:04.37Z</time></trkpt><trkpt lat="46.2036163" lon="13.4745922"><ele>227.66666666666669</ele><time>2026-03-22T14:25:05.365Z</time></trkpt><trkpt lat="46.2035617" lon="13.4743629"><ele>224.33333333333334</ele><time>2026-03-22T14:25:06.352Z</time></trkpt><trkpt lat="46.2034907" lon="13.4741467"><ele>221.0</ele><time>2026-03-22T14:25:07.385Z</time></trkpt><trkpt lat="46.2034161" lon="13.4739378"><ele>219.0</ele><time>2026-03-22T14:25:08.353Z</time></trkpt><trkpt lat="46.2033389" lon="13.4737389"><ele>217.0</ele><time>2026-03-22T14:25:09.379Z</time></trkpt><trkpt lat="46.2032446" lon="13.473567"><ele>215.0</ele><time>2026-03-22T14:25:10.353Z</time></trkpt><trkpt lat="46.2031302" lon="13.4734248"><ele>215.0</ele><time>2026-03-22T14:25:11.38Z</time></trkpt><trkpt lat="46.2030105" lon="13.4732835"><ele>215.0</ele><time>2026-03-22T14:25:12.354Z</time></trkpt><trkpt lat="46.2028856" lon="13.4731402"><ele>215.0</ele><time>2026-03-22T14:25:13.354Z</time></trkpt><trkpt lat="46.2027493" lon="13.4730118"><ele>213.66666666666669</ele><time>2026-03-22T14:25:14.359Z</time></trkpt><trkpt lat="46.2026109" lon="13.4728864"><ele>212.33333333333331</ele><time>2026-03-22T14:25:15.349Z</time></trkpt><trkpt lat="46.2024692" lon="13.4727628"><ele>211.0</ele><time>2026-03-22T14:25:16.35Z</time></trkpt><trkpt lat="46.2023268" lon="13.4726371"><ele>211.0</ele><time>2026-03-22T14:25:17.368Z</time></trkpt><trkpt lat="46.2021882" lon="13.4725141"><ele>211.0</ele><time>2026-03-22T14:25:18.363Z</time></trkpt><trkpt lat="46.2020564" lon="13.4723943"><ele>211.0</ele><time>2026-03-22T14:25:19.373Z</time></trkpt><trkpt lat="46.2019291" lon="13.4722771"><ele>211.0</ele><time>2026-03-22T14:25:20.353Z</time></trkpt><trkpt lat="46.201799" lon="13.4721742"><ele>211.0</ele><time>2026-03-22T14:25:21.384Z</time></trkpt><trkpt lat="46.2016661" lon="13.4720844"><ele>211.0</ele><time>2026-03-22T14:25:22.339Z</time></trkpt><trkpt lat="46.2015379" lon="13.4719871"><ele>211.0</ele><time>2026-03-22T14:25:23.356Z</time></trkpt><trkpt lat="46.2014032" lon="13.4719126"><ele>210.5</ele><time>2026-03-22T14:25:24.344Z</time></trkpt><trkpt lat="46.2012712" lon="13.471838"><ele>210.0</ele><time>2026-03-22T14:25:25.352Z</time></trkpt><trkpt lat="46.2011426" lon="13.4717618"><ele>209.5</ele><time>2026-03-22T14:25:26.356Z</time></trkpt><trkpt lat="46.2010205" lon="13.4716854"><ele>209.0</ele><time>2026-03-22T14:25:27.36Z</time></trkpt><trkpt lat="46.2009001" lon="13.4716129"><ele>209.0</ele><time>2026-03-22T14:25:28.358Z</time></trkpt><trkpt lat="46.200788" lon="13.4715299"><ele>209.0</ele><time>2026-03-22T14:25:29.377Z</time></trkpt><trkpt lat="46.2006785" lon="13.4714564"><ele>209.0</ele><time>2026-03-22T14:25:30.349Z</time></trkpt><trkpt lat="46.2005665" lon="13.4714017"><ele>209.0</ele><time>2026-03-22T14:25:31.375Z</time></trkpt><trkpt lat="46.2004579" lon="13.4713402"><ele>210.75</ele><time>2026-03-22T14:25:32.353Z</time></trkpt><trkpt lat="46.2003417" lon="13.4713063"><ele>212.5</ele><time>2026-03-22T14:25:33.369Z</time></trkpt><trkpt lat="46.2002333" lon="13.471259"><ele>214.25</ele><time>2026-03-22T14:25:34.358Z</time></trkpt><trkpt lat="46.2001178" lon="13.4712319"><ele>216.0</ele><time>2026-03-22T14:25:35.358Z</time></trkpt><trkpt lat="46.199997" lon="13.4712509"><ele>212.5</ele><time>2026-03-22T14:25:36.364Z</time></trkpt><trkpt lat="46.1998656" lon="13.4712651"><ele>209.0</ele><time>2026-03-22T14:25:37.362Z</time></trkpt><trkpt lat="46.1997293" lon="13.471259"><ele>205.5</ele><time>2026-03-22T14:25:38.378Z</time></trkpt><trkpt lat="46.199588" lon="13.4712483"><ele>202.0</ele><time>2026-03-22T14:25:39.375Z</time></trkpt><trkpt lat="46.19945" lon="13.4712111"><ele>202.0</ele><time>2026-03-22T14:25:40.36Z</time></trkpt><trkpt lat="46.1993134" lon="13.4711847"><ele>202.0</ele><time>2026-03-22T14:25:41.373Z</time></trkpt><trkpt lat="46.1991812" lon="13.4711418"><ele>202.0</ele><time>2026-03-22T14:25:42.364Z</time></trkpt><trkpt lat="46.1990556" lon="13.4710473"><ele>202.0</ele><time>2026-03-22T14:25:43.361Z</time></trkpt><trkpt lat="46.198932" lon="13.4709456"><ele>204.25</ele><time>2026-03-22T14:25:44.366Z</time></trkpt><trkpt lat="46.198812" lon="13.4708372"><ele>206.5</ele><time>2026-03-22T14:25:45.35Z</time></trkpt><trkpt lat="46.1986989" lon="13.4707219"><ele>208.75</ele><time>2026-03-22T14:25:46.375Z</time></trkpt><trkpt lat="46.198577" lon="13.4706211"><ele>211.0</ele><time>2026-03-22T14:25:47.37Z</time></trkpt><trkpt lat="46.1984412" lon="13.4705367"><ele>211.0</ele><time>2026-03-22T14:25:48.36Z</time></trkpt><trkpt lat="46.1982904" lon="13.4704749"><ele>211.0</ele><time>2026-03-22T14:25:49.364Z</time></trkpt><trkpt lat="46.1981345" lon="13.470423"><ele>211.0</ele><time>2026-03-22T14:25:50.361Z</time></trkpt><trkpt lat="46.1979664" lon="13.4703785"><ele>206.66666666666666</ele><time>2026-03-22T14:25:51.385Z</time></trkpt><trkpt lat="46.1977824" lon="13.4703847"><ele>202.33333333333331</ele><time>2026-03-22T14:25:52.371Z</time></trkpt><trkpt lat="46.1975903" lon="13.4703933"><ele>198.0</ele><time>2026-03-22T14:25:53.378Z</time></trkpt><trkpt lat="46.1973932" lon="13.4704282"><ele>203.66666666666669</ele><time>2026-03-22T14:25:54.369Z</time></trkpt><trkpt lat="46.1971951" lon="13.4704566"><ele>209.33333333333334</ele><time>2026-03-22T14:25:55.37Z</time></trkpt><trkpt lat="46.1969929" lon="13.470488"><ele>215.0</ele><time>2026-03-22T14:25:56.349Z</time></trkpt><trkpt lat="46.196788" lon="13.4705126"><ele>215.0</ele><time>2026-03-22T14:25:57.37Z</time></trkpt><trkpt lat="46.1965811" lon="13.4705419"><ele>215.0</ele><time>2026-03-22T14:25:58.358Z</time></trkpt><trkpt lat="46.1963774" lon="13.4705371"><ele>215.0</ele><time>2026-03-22T14:25:59.357Z</time></trkpt><trkpt lat="46.1961837" lon="13.4705026"><ele>211.0</ele><time>2026-03-22T14:26:00.353Z</time></trkpt><trkpt lat="46.1957918" lon="13.4703821"><ele>207.0</ele><time>2026-03-22T14:26:02.341Z</time></trkpt><trkpt lat="46.1955696" lon="13.4702306"><ele>207.0</ele><time>2026-03-22T14:26:03.35Z</time></trkpt><trkpt lat="46.195205" lon="13.47002"><ele>207.0</ele><time>2026-03-22T14:26:04.365Z</time></trkpt><trkpt lat="46.1945636" lon="13.4696857"><ele>206.0</ele><time>2026-03-22T14:26:07.354Z</time></trkpt><trkpt lat="46.1942523" lon="13.4697233"><ele>205.0</ele><time>2026-03-22T14:26:10.355Z</time></trkpt><trkpt lat="46.194054" lon="13.4697326"><ele>204.0</ele><time>2026-03-22T14:26:11.357Z</time></trkpt><trkpt lat="46.1938529" lon="13.4697409"><ele>203.0</ele><time>2026-03-22T14:26:12.349Z</time></trkpt><trkpt lat="46.1936502" lon="13.4697716"><ele>202.0</ele><time>2026-03-22T14:26:13.362Z</time></trkpt><trkpt lat="46.1934484" lon="13.4698175"><ele>202.0</ele><time>2026-03-22T14:26:14.359Z</time></trkpt><trkpt lat="46.193253" lon="13.4698878"><ele>202.0</ele><time>2026-03-22T14:26:15.347Z</time></trkpt><trkpt lat="46.1930625" lon="13.4699905"><ele>202.0</ele><time>2026-03-22T14:26:16.339Z</time></trkpt><trkpt lat="46.1928672" lon="13.4701042"><ele>203.33333333333331</ele><time>2026-03-22T14:26:17.364Z</time></trkpt><trkpt lat="46.1926894" lon="13.470246"><ele>204.66666666666669</ele><time>2026-03-22T14:26:18.343Z</time></trkpt><trkpt lat="46.1925085" lon="13.4703697"><ele>206.0</ele><time>2026-03-22T14:26:19.363Z</time></trkpt><trkpt lat="46.192312" lon="13.4704926"><ele>206.0</ele><time>2026-03-22T14:26:20.326Z</time></trkpt><trkpt lat="46.1921058" lon="13.470599"><ele>206.0</ele><time>2026-03-22T14:26:21.349Z</time></trkpt><trkpt lat="46.1919219" lon="13.4706877"><ele>206.0</ele><time>2026-03-22T14:26:22.337Z</time></trkpt><trkpt lat="46.1913277" lon="13.4708259"><ele>204.66666666666669</ele><time>2026-03-22T14:26:25.346Z</time></trkpt><trkpt lat="46.1911626" lon="13.4709287"><ele>203.33333333333331</ele><time>2026-03-22T14:26:26.348Z</time></trkpt><trkpt lat="46.1909722" lon="13.470959"><ele>202.0</ele><time>2026-03-22T14:26:27.36Z</time></trkpt><trkpt lat="46.1907997" lon="13.4709993"><ele>202.66666666666666</ele><time>2026-03-22T14:26:28.37Z</time></trkpt><trkpt lat="46.1906222" lon="13.4710169"><ele>203.33333333333331</ele><time>2026-03-22T14:26:29.35Z</time></trkpt><trkpt lat="46.1904544" lon="13.4710283"><ele>204.0</ele><time>2026-03-22T14:26:30.366Z</time></trkpt><trkpt lat="46.1902686" lon="13.471049"><ele>204.0</ele><time>2026-03-22T14:26:31.352Z</time></trkpt><trkpt lat="46.1900882" lon="13.4710716"><ele>204.0</ele><time>2026-03-22T14:26:32.355Z</time></trkpt><trkpt lat="46.1899215" lon="13.4711183"><ele>204.0</ele><time>2026-03-22T14:26:33.375Z</time></trkpt><trkpt lat="46.1897616" lon="13.4711617"><ele>206.0</ele><time>2026-03-22T14:26:34.371Z</time></trkpt><trkpt lat="46.1896013" lon="13.4712332"><ele>208.0</ele><time>2026-03-22T14:26:35.381Z</time></trkpt><trkpt lat="46.1894471" lon="13.4713471"><ele>210.0</ele><time>2026-03-22T14:26:36.375Z</time></trkpt><trkpt lat="46.1892874" lon="13.4714603"><ele>210.0</ele><time>2026-03-22T14:26:37.353Z</time></trkpt><trkpt lat="46.189118" lon="13.4715699"><ele>210.0</ele><time>2026-03-22T14:26:38.355Z</time></trkpt><trkpt lat="46.1889445" lon="13.4716857"><ele>210.0</ele><time>2026-03-22T14:26:39.356Z</time></trkpt><trkpt lat="46.1887676" lon="13.4718125"><ele>208.66666666666669</ele><time>2026-03-22T14:26:40.35Z</time></trkpt><trkpt lat="46.1885933" lon="13.471951"><ele>207.33333333333334</ele><time>2026-03-22T14:26:41.371Z</time></trkpt><trkpt lat="46.1884144" lon="13.4720734"><ele>206.0</ele><time>2026-03-22T14:26:42.35Z</time></trkpt><trkpt lat="46.1882501" lon="13.4722246"><ele>204.0</ele><time>2026-03-22T14:26:43.351Z</time></trkpt><trkpt lat="46.1880446" lon="13.4723608"><ele>202.0</ele><time>2026-03-22T14:26:44.371Z</time></trkpt><trkpt lat="46.1878307" lon="13.472485"><ele>202.0</ele><time>2026-03-22T14:26:45.342Z</time></trkpt><trkpt lat="46.1876528" lon="13.4726216"><ele>202.0</ele><time>2026-03-22T14:26:46.352Z</time></trkpt><trkpt lat="46.187431" lon="13.4727605"><ele>202.0</ele><time>2026-03-22T14:26:47.393Z</time></trkpt><trkpt lat="46.1872654" lon="13.4729088"><ele>204.33333333333331</ele><time>2026-03-22T14:26:48.353Z</time></trkpt><trkpt lat="46.1871103" lon="13.4730776"><ele>206.66666666666669</ele><time>2026-03-22T14:26:49.353Z</time></trkpt><trkpt lat="46.1869538" lon="13.4732378"><ele>209.0</ele><time>2026-03-22T14:26:50.353Z</time></trkpt><trkpt lat="46.1868071" lon="13.4734199"><ele>209.0</ele><time>2026-03-22T14:26:51.361Z</time></trkpt><trkpt lat="46.1866651" lon="13.4736034"><ele>209.0</ele><time>2026-03-22T14:26:52.365Z</time></trkpt><trkpt lat="46.1865172" lon="13.4737874"><ele>209.0</ele><time>2026-03-22T14:26:53.348Z</time></trkpt><trkpt lat="46.1863828" lon="13.4739827"><ele>206.66666666666669</ele><time>2026-03-22T14:26:54.338Z</time></trkpt><trkpt lat="46.1862585" lon="13.4741893"><ele>204.33333333333331</ele><time>2026-03-22T14:26:55.368Z</time></trkpt><trkpt lat="46.1861442" lon="13.4744075"><ele>202.0</ele><time>2026-03-22T14:26:56.358Z</time></trkpt><trkpt lat="46.1860276" lon="13.4746162"><ele>202.0</ele><time>2026-03-22T14:26:57.357Z</time></trkpt><trkpt lat="46.1859128" lon="13.4748156"><ele>202.0</ele><time>2026-03-22T14:26:58.357Z</time></trkpt><trkpt lat="46.1857949" lon="13.475008"><ele>202.0</ele><time>2026-03-22T14:26:59.358Z</time></trkpt><trkpt lat="46.1857237" lon="13.4752159"><ele>201.0</ele><time>2026-03-22T14:27:00.358Z</time></trkpt><trkpt lat="46.1855831" lon="13.4753613"><ele>200.0</ele><time>2026-03-22T14:27:01.373Z</time></trkpt><trkpt lat="46.1854305" lon="13.4754965"><ele>199.0</ele><time>2026-03-22T14:27:02.364Z</time></trkpt><trkpt lat="46.185275" lon="13.4756321"><ele>199.0</ele><time>2026-03-22T14:27:03.359Z</time></trkpt><trkpt lat="46.1851264" lon="13.4757834"><ele>199.0</ele><time>2026-03-22T14:27:04.345Z</time></trkpt><trkpt lat="46.1849798" lon="13.4759407"><ele>199.0</ele><time>2026-03-22T14:27:05.352Z</time></trkpt><trkpt lat="46.1848285" lon="13.4760978"><ele>197.33333333333331</ele><time>2026-03-22T14:27:06.349Z</time></trkpt><trkpt lat="46.1846746" lon="13.4762527"><ele>195.66666666666669</ele><time>2026-03-22T14:27:07.363Z</time></trkpt><trkpt lat="46.1845345" lon="13.4764152"><ele>194.0</ele><time>2026-03-22T14:27:08.37Z</time></trkpt><trkpt lat="46.1843758" lon="13.4765497"><ele>194.0</ele><time>2026-03-22T14:27:09.375Z</time></trkpt><trkpt lat="46.184208" lon="13.4766683"><ele>194.0</ele><time>2026-03-22T14:27:10.35Z</time></trkpt><trkpt lat="46.1840376" lon="13.4767614"><ele>194.0</ele><time>2026-03-22T14:27:11.367Z</time></trkpt><trkpt lat="46.1838775" lon="13.4768716"><ele>192.33333333333334</ele><time>2026-03-22T14:27:12.351Z</time></trkpt><trkpt lat="46.1837376" lon="13.4770174"><ele>190.66666666666669</ele><time>2026-03-22T14:27:13.371Z</time></trkpt><trkpt lat="46.1835909" lon="13.4771534"><ele>189.0</ele><time>2026-03-22T14:27:14.342Z</time></trkpt><trkpt lat="46.1834459" lon="13.4772846"><ele>190.66666666666669</ele><time>2026-03-22T14:27:15.347Z</time></trkpt><trkpt lat="46.1832732" lon="13.4773682"><ele>192.33333333333334</ele><time>2026-03-22T14:27:16.353Z</time></trkpt><trkpt lat="46.1830815" lon="13.4774277"><ele>194.0</ele><time>2026-03-22T14:27:17.357Z</time></trkpt><trkpt lat="46.1828753" lon="13.4774776"><ele>194.0</ele><time>2026-03-22T14:27:18.376Z</time></trkpt><trkpt lat="46.182658" lon="13.4775029"><ele>194.0</ele><time>2026-03-22T14:27:19.361Z</time></trkpt><trkpt lat="46.1824626" lon="13.477558"><ele>194.0</ele><time>2026-03-22T14:27:20.348Z</time></trkpt><trkpt lat="46.1822826" lon="13.4776134"><ele>192.33333333333334</ele><time>2026-03-22T14:27:21.351Z</time></trkpt><trkpt lat="46.1821083" lon="13.4776555"><ele>190.66666666666669</ele><time>2026-03-22T14:27:22.349Z</time></trkpt><trkpt lat="46.1819402" lon="13.4776997"><ele>189.0</ele><time>2026-03-22T14:27:23.376Z</time></trkpt><trkpt lat="46.1817758" lon="13.477718"><ele>189.0</ele><time>2026-03-22T14:27:24.355Z</time></trkpt><trkpt lat="46.1816462" lon="13.477769"><ele>189.0</ele><time>2026-03-22T14:27:25.374Z</time></trkpt><trkpt lat="46.1815049" lon="13.4777577"><ele>189.0</ele><time>2026-03-22T14:27:26.349Z</time></trkpt><trkpt lat="46.1813612" lon="13.4777329"><ele>189.0</ele><time>2026-03-22T14:27:27.357Z</time></trkpt><trkpt lat="46.1812217" lon="13.4776982"><ele>189.0</ele><time>2026-03-22T14:27:28.35Z</time></trkpt><trkpt lat="46.1810932" lon="13.4776589"><ele>189.0</ele><time>2026-03-22T14:27:29.375Z</time></trkpt><trkpt lat="46.1809686" lon="13.4776046"><ele>189.0</ele><time>2026-03-22T14:27:30.349Z</time></trkpt><trkpt lat="46.1808411" lon="13.4775736"><ele>189.0</ele><time>2026-03-22T14:27:31.373Z</time></trkpt><trkpt lat="46.1807116" lon="13.4775711"><ele>188.75</ele><time>2026-03-22T14:27:32.347Z</time></trkpt><trkpt lat="46.1805828" lon="13.4775937"><ele>188.5</ele><time>2026-03-22T14:27:33.357Z</time></trkpt><trkpt lat="46.1804524" lon="13.4776194"><ele>188.25</ele><time>2026-03-22T14:27:34.35Z</time></trkpt><trkpt lat="46.1803184" lon="13.4776716"><ele>188.0</ele><time>2026-03-22T14:27:35.351Z</time></trkpt><trkpt lat="46.1802004" lon="13.4777627"><ele>188.0</ele><time>2026-03-22T14:27:36.361Z</time></trkpt><trkpt lat="46.1800719" lon="13.4778334"><ele>188.0</ele><time>2026-03-22T14:27:37.343Z</time></trkpt><trkpt lat="46.1799404" lon="13.4779109"><ele>188.0</ele><time>2026-03-22T14:27:38.357Z</time></trkpt><trkpt lat="46.1797991" lon="13.477984"><ele>188.0</ele><time>2026-03-22T14:27:39.359Z</time></trkpt><trkpt lat="46.1796528" lon="13.4780669"><ele>188.0</ele><time>2026-03-22T14:27:40.343Z</time></trkpt><trkpt lat="46.1795059" lon="13.4781606"><ele>188.0</ele><time>2026-03-22T14:27:41.348Z</time></trkpt><trkpt lat="46.1793526" lon="13.4782557"><ele>188.0</ele><time>2026-03-22T14:27:42.346Z</time></trkpt><trkpt lat="46.1791915" lon="13.4783511"><ele>188.0</ele><time>2026-03-22T14:27:43.349Z</time></trkpt><trkpt lat="46.1790253" lon="13.478444"><ele>188.0</ele><time>2026-03-22T14:27:44.36Z</time></trkpt><trkpt lat="46.1788544" lon="13.4785417"><ele>188.0</ele><time>2026-03-22T14:27:45.35Z</time></trkpt><trkpt lat="46.1786794" lon="13.4786371"><ele>189.0</ele><time>2026-03-22T14:27:46.349Z</time></trkpt><trkpt lat="46.1785068" lon="13.4787441"><ele>190.0</ele><time>2026-03-22T14:27:47.367Z</time></trkpt><trkpt lat="46.1783349" lon="13.4788529"><ele>191.0</ele><time>2026-03-22T14:27:48.354Z</time></trkpt><trkpt lat="46.1781661" lon="13.4789585"><ele>188.33333333333331</ele><time>2026-03-22T14:27:49.374Z</time></trkpt><trkpt lat="46.177994" lon="13.479083"><ele>185.66666666666666</ele><time>2026-03-22T14:27:50.359Z</time></trkpt><trkpt lat="46.1778071" lon="13.4791676"><ele>183.0</ele><time>2026-03-22T14:27:51.347Z</time></trkpt><trkpt lat="46.1776201" lon="13.4792593"><ele>183.0</ele><time>2026-03-22T14:27:52.35Z</time></trkpt><trkpt lat="46.1774332" lon="13.4793815"><ele>183.0</ele><time>2026-03-22T14:27:53.359Z</time></trkpt><trkpt lat="46.1772457" lon="13.4794723"><ele>183.0</ele><time>2026-03-22T14:27:54.353Z</time></trkpt><trkpt lat="46.1770746" lon="13.4796091"><ele>187.0</ele><time>2026-03-22T14:27:55.372Z</time></trkpt><trkpt lat="46.1769157" lon="13.4797591"><ele>191.0</ele><time>2026-03-22T14:27:56.363Z</time></trkpt><trkpt lat="46.1767552" lon="13.4799031"><ele>195.0</ele><time>2026-03-22T14:27:57.343Z</time></trkpt><trkpt lat="46.1765833" lon="13.4800293"><ele>190.66666666666666</ele><time>2026-03-22T14:27:58.347Z</time></trkpt><trkpt lat="46.1764099" lon="13.4801589"><ele>186.33333333333331</ele><time>2026-03-22T14:27:59.354Z</time></trkpt><trkpt lat="46.1762265" lon="13.4802659"><ele>182.0</ele><time>2026-03-22T14:28:00.358Z</time></trkpt><trkpt lat="46.176049" lon="13.4803965"><ele>182.33333333333331</ele><time>2026-03-22T14:28:01.349Z</time></trkpt><trkpt lat="46.1758695" lon="13.4805119"><ele>182.66666666666666</ele><time>2026-03-22T14:28:02.361Z</time></trkpt><trkpt lat="46.1757022" lon="13.4806422"><ele>183.0</ele><time>2026-03-22T14:28:03.349Z</time></trkpt><trkpt lat="46.1755388" lon="13.480758"><ele>183.0</ele><time>2026-03-22T14:28:04.362Z</time></trkpt><trkpt lat="46.1753962" lon="13.4808999"><ele>183.0</ele><time>2026-03-22T14:28:05.344Z</time></trkpt><trkpt lat="46.1752463" lon="13.4810177"><ele>183.0</ele><time>2026-03-22T14:28:06.363Z</time></trkpt><trkpt lat="46.1750993" lon="13.4811284"><ele>183.0</ele><time>2026-03-22T14:28:07.351Z</time></trkpt><trkpt lat="46.1749523" lon="13.4812306"><ele>183.0</ele><time>2026-03-22T14:28:08.356Z</time></trkpt><trkpt lat="46.1748045" lon="13.4813329"><ele>183.0</ele><time>2026-03-22T14:28:09.38Z</time></trkpt><trkpt lat="46.1746575" lon="13.48144"><ele>183.0</ele><time>2026-03-22T14:28:10.348Z</time></trkpt><trkpt lat="46.1745115" lon="13.4815554"><ele>183.0</ele><time>2026-03-22T14:28:11.368Z</time></trkpt><trkpt lat="46.1743672" lon="13.4816772"><ele>183.0</ele><time>2026-03-22T14:28:12.379Z</time></trkpt><trkpt lat="46.1742206" lon="13.4818018"><ele>183.0</ele><time>2026-03-22T14:28:13.352Z</time></trkpt><trkpt lat="46.1740744" lon="13.4819276"><ele>183.0</ele><time>2026-03-22T14:28:14.348Z</time></trkpt><trkpt lat="46.1739432" lon="13.4820699"><ele>183.0</ele><time>2026-03-22T14:28:15.354Z</time></trkpt><trkpt lat="46.1738237" lon="13.4822201"><ele>182.75</ele><time>2026-03-22T14:28:16.367Z</time></trkpt><trkpt lat="46.1737153" lon="13.4823725"><ele>182.5</ele><time>2026-03-22T14:28:17.374Z</time></trkpt><trkpt lat="46.1736173" lon="13.4825289"><ele>182.25</ele><time>2026-03-22T14:28:18.359Z</time></trkpt><trkpt lat="46.1735214" lon="13.4826853"><ele>182.0</ele><time>2026-03-22T14:28:19.357Z</time></trkpt><trkpt lat="46.173442" lon="13.4828578"><ele>181.66666666666666</ele><time>2026-03-22T14:28:20.344Z</time></trkpt><trkpt lat="46.1733676" lon="13.4830355"><ele>181.33333333333334</ele><time>2026-03-22T14:28:21.366Z</time></trkpt><trkpt lat="46.1733248" lon="13.4832416"><ele>181.0</ele><time>2026-03-22T14:28:22.361Z</time></trkpt><trkpt lat="46.173314" lon="13.4834689"><ele>181.0</ele><time>2026-03-22T14:28:23.392Z</time></trkpt><trkpt lat="46.1732815" lon="13.4836928"><ele>181.0</ele><time>2026-03-22T14:28:24.362Z</time></trkpt><trkpt lat="46.1732528" lon="13.4839143"><ele>181.0</ele><time>2026-03-22T14:28:25.361Z</time></trkpt><trkpt lat="46.1732026" lon="13.4841179"><ele>181.25</ele><time>2026-03-22T14:28:26.35Z</time></trkpt><trkpt lat="46.1731711" lon="13.4843185"><ele>181.5</ele><time>2026-03-22T14:28:27.361Z</time></trkpt><trkpt lat="46.1731465" lon="13.4845136"><ele>181.75</ele><time>2026-03-22T14:28:28.346Z</time></trkpt><trkpt lat="46.1731154" lon="13.4847032"><ele>182.0</ele><time>2026-03-22T14:28:29.375Z</time></trkpt><trkpt lat="46.1731702" lon="13.4849132"><ele>181.75</ele><time>2026-03-22T14:28:30.343Z</time></trkpt><trkpt lat="46.1731839" lon="13.485095"><ele>181.5</ele><time>2026-03-22T14:28:31.352Z</time></trkpt><trkpt lat="46.1731796" lon="13.4852729"><ele>181.25</ele><time>2026-03-22T14:28:32.366Z</time></trkpt><trkpt lat="46.1731862" lon="13.4854488"><ele>181.0</ele><time>2026-03-22T14:28:33.342Z</time></trkpt><trkpt lat="46.1731739" lon="13.4856261"><ele>181.0</ele><time>2026-03-22T14:28:34.352Z</time></trkpt><trkpt lat="46.1731278" lon="13.4857978"><ele>181.0</ele><time>2026-03-22T14:28:35.376Z</time></trkpt><trkpt lat="46.1730449" lon="13.4859809"><ele>181.0</ele><time>2026-03-22T14:28:36.356Z</time></trkpt><trkpt lat="46.1729241" lon="13.4861474"><ele>181.0</ele><time>2026-03-22T14:28:37.369Z</time></trkpt><trkpt lat="46.1727874" lon="13.4863146"><ele>180.66666666666669</ele><time>2026-03-22T14:28:38.353Z</time></trkpt><trkpt lat="46.1726152" lon="13.4864811"><ele>180.33333333333334</ele><time>2026-03-22T14:28:39.363Z</time></trkpt><trkpt lat="46.1724362" lon="13.4866832"><ele>180.0</ele><time>2026-03-22T14:28:40.356Z</time></trkpt><trkpt lat="46.1722551" lon="13.4869016"><ele>182.5</ele><time>2026-03-22T14:28:41.346Z</time></trkpt><trkpt lat="46.1720755" lon="13.4871057"><ele>185.0</ele><time>2026-03-22T14:28:42.358Z</time></trkpt><trkpt lat="46.1719018" lon="13.4873048"><ele>185.0</ele><time>2026-03-22T14:28:43.363Z</time></trkpt><trkpt lat="46.1717293" lon="13.487505"><ele>185.0</ele><time>2026-03-22T14:28:44.36Z</time></trkpt><trkpt lat="46.1715572" lon="13.4877021"><ele>185.0</ele><time>2026-03-22T14:28:45.348Z</time></trkpt><trkpt lat="46.1713929" lon="13.4878989"><ele>183.66666666666666</ele><time>2026-03-22T14:28:46.347Z</time></trkpt><trkpt lat="46.1712355" lon="13.4880853"><ele>182.33333333333334</ele><time>2026-03-22T14:28:47.352Z</time></trkpt><trkpt lat="46.1710869" lon="13.4882836"><ele>181.0</ele><time>2026-03-22T14:28:48.379Z</time></trkpt><trkpt lat="46.17093" lon="13.4884884"><ele>181.0</ele><time>2026-03-22T14:28:49.365Z</time></trkpt><trkpt lat="46.1707691" lon="13.4886813"><ele>181.0</ele><time>2026-03-22T14:28:50.36Z</time></trkpt><trkpt lat="46.1706177" lon="13.4888381"><ele>181.0</ele><time>2026-03-22T14:28:51.37Z</time></trkpt><trkpt lat="46.170478" lon="13.4889655"><ele>181.25</ele><time>2026-03-22T14:28:52.362Z</time></trkpt><trkpt lat="46.1703356" lon="13.4890448"><ele>181.5</ele><time>2026-03-22T14:28:53.388Z</time></trkpt><trkpt lat="46.1702028" lon="13.4891144"><ele>181.75</ele><time>2026-03-22T14:28:54.374Z</time></trkpt><trkpt lat="46.1700749" lon="13.4891788"><ele>182.0</ele><time>2026-03-22T14:28:55.352Z</time></trkpt><trkpt lat="46.1699449" lon="13.4892304"><ele>181.5</ele><time>2026-03-22T14:28:56.366Z</time></trkpt><trkpt lat="46.1698159" lon="13.4892746"><ele>181.0</ele><time>2026-03-22T14:28:57.354Z</time></trkpt><trkpt lat="46.1696913" lon="13.4893209"><ele>180.5</ele><time>2026-03-22T14:28:58.359Z</time></trkpt><trkpt lat="46.1695705" lon="13.4893778"><ele>180.0</ele><time>2026-03-22T14:28:59.36Z</time></trkpt><trkpt lat="46.1694526" lon="13.4894429"><ele>180.0</ele><time>2026-03-22T14:29:00.345Z</time></trkpt><trkpt lat="46.1693317" lon="13.4894916"><ele>180.0</ele><time>2026-03-22T14:29:01.356Z</time></trkpt><trkpt lat="46.1692012" lon="13.4895218"><ele>180.0</ele><time>2026-03-22T14:29:02.362Z</time></trkpt><trkpt lat="46.169056" lon="13.4895286"><ele>180.0</ele><time>2026-03-22T14:29:03.368Z</time></trkpt><trkpt lat="46.1689073" lon="13.4894951"><ele>180.0</ele><time>2026-03-22T14:29:04.352Z</time></trkpt><trkpt lat="46.1687653" lon="13.4894702"><ele>180.0</ele><time>2026-03-22T14:29:05.346Z</time></trkpt><trkpt lat="46.1686295" lon="13.4894517"><ele>180.0</ele><time>2026-03-22T14:29:06.362Z</time></trkpt><trkpt lat="46.1684964" lon="13.4894029"><ele>180.0</ele><time>2026-03-22T14:29:07.37Z</time></trkpt><trkpt lat="46.1683615" lon="13.4892954"><ele>180.0</ele><time>2026-03-22T14:29:08.351Z</time></trkpt><trkpt lat="46.1682357" lon="13.4891686"><ele>180.0</ele><time>2026-03-22T14:29:09.351Z</time></trkpt><trkpt lat="46.1681082" lon="13.4890648"><ele>180.0</ele><time>2026-03-22T14:29:10.373Z</time></trkpt><trkpt lat="46.1679828" lon="13.4889725"><ele>180.0</ele><time>2026-03-22T14:29:11.382Z</time></trkpt><trkpt lat="46.167856" lon="13.4889005"><ele>179.0</ele><time>2026-03-22T14:29:12.36Z</time></trkpt><trkpt lat="46.1677146" lon="13.4888748"><ele>178.0</ele><time>2026-03-22T14:29:13.351Z</time></trkpt><trkpt lat="46.1675689" lon="13.4888669"><ele>177.0</ele><time>2026-03-22T14:29:14.348Z</time></trkpt><trkpt lat="46.1674226" lon="13.4888692"><ele>176.0</ele><time>2026-03-22T14:29:15.355Z</time></trkpt><trkpt lat="46.1672765" lon="13.4888972"><ele>175.66666666666666</ele><time>2026-03-22T14:29:16.387Z</time></trkpt><trkpt lat="46.1671313" lon="13.4889479"><ele>175.33333333333334</ele><time>2026-03-22T14:29:17.363Z</time></trkpt><trkpt lat="46.1669867" lon="13.489026"><ele>175.0</ele><time>2026-03-22T14:29:18.353Z</time></trkpt><trkpt lat="46.1668479" lon="13.4891386"><ele>175.0</ele><time>2026-03-22T14:29:19.37Z</time></trkpt><trkpt lat="46.1667096" lon="13.4892489"><ele>175.0</ele><time>2026-03-22T14:29:20.351Z</time></trkpt><trkpt lat="46.1665694" lon="13.4893572"><ele>175.0</ele><time>2026-03-22T14:29:21.364Z</time></trkpt><trkpt lat="46.1664223" lon="13.4894388"><ele>175.66666666666669</ele><time>2026-03-22T14:29:22.359Z</time></trkpt><trkpt lat="46.1662722" lon="13.4895093"><ele>176.33333333333334</ele><time>2026-03-22T14:29:23.358Z</time></trkpt><trkpt lat="46.1661081" lon="13.4895202"><ele>177.0</ele><time>2026-03-22T14:29:24.35Z</time></trkpt><trkpt lat="46.165929" lon="13.4894779"><ele>177.0</ele><time>2026-03-22T14:29:25.349Z</time></trkpt><trkpt lat="46.1657388" lon="13.4894135"><ele>177.0</ele><time>2026-03-22T14:29:26.352Z</time></trkpt><trkpt lat="46.1655483" lon="13.4893022"><ele>177.0</ele><time>2026-03-22T14:29:27.354Z</time></trkpt><trkpt lat="46.1653582" lon="13.4891828"><ele>178.0</ele><time>2026-03-22T14:29:28.36Z</time></trkpt><trkpt lat="46.1651699" lon="13.4890557"><ele>179.0</ele><time>2026-03-22T14:29:29.379Z</time></trkpt><trkpt lat="46.1649898" lon="13.4889301"><ele>180.0</ele><time>2026-03-22T14:29:30.347Z</time></trkpt><trkpt lat="46.1648151" lon="13.48882"><ele>177.66666666666666</ele><time>2026-03-22T14:29:31.346Z</time></trkpt><trkpt lat="46.164647" lon="13.4887214"><ele>175.33333333333331</ele><time>2026-03-22T14:29:32.361Z</time></trkpt><trkpt lat="46.1644838" lon="13.4886301"><ele>173.0</ele><time>2026-03-22T14:29:33.345Z</time></trkpt><trkpt lat="46.1643193" lon="13.4885558"><ele>173.0</ele><time>2026-03-22T14:29:34.358Z</time></trkpt><trkpt lat="46.164148" lon="13.4885053"><ele>173.0</ele><time>2026-03-22T14:29:35.373Z</time></trkpt><trkpt lat="46.1639717" lon="13.4884703"><ele>173.0</ele><time>2026-03-22T14:29:36.357Z</time></trkpt><trkpt lat="46.1637906" lon="13.4884606"><ele>174.33333333333331</ele><time>2026-03-22T14:29:37.36Z</time></trkpt><trkpt lat="46.1636095" lon="13.4884326"><ele>175.66666666666666</ele><time>2026-03-22T14:29:38.352Z</time></trkpt><trkpt lat="46.163426" lon="13.4883961"><ele>177.0</ele><time>2026-03-22T14:29:39.367Z</time></trkpt><trkpt lat="46.1632418" lon="13.4883585"><ele>177.66666666666666</ele><time>2026-03-22T14:29:40.36Z</time></trkpt><trkpt lat="46.1630522" lon="13.4883129"><ele>178.33333333333331</ele><time>2026-03-22T14:29:41.366Z</time></trkpt><trkpt lat="46.1628558" lon="13.4882649"><ele>179.0</ele><time>2026-03-22T14:29:42.363Z</time></trkpt><trkpt lat="46.1626579" lon="13.4882235"><ele>179.0</ele><time>2026-03-22T14:29:43.363Z</time></trkpt><trkpt lat="46.1624586" lon="13.488182"><ele>179.0</ele><time>2026-03-22T14:29:44.362Z</time></trkpt><trkpt lat="46.162257" lon="13.4881407"><ele>179.0</ele><time>2026-03-22T14:29:45.363Z</time></trkpt><trkpt lat="46.162055" lon="13.4880988"><ele>182.66666666666666</ele><time>2026-03-22T14:29:46.358Z</time></trkpt><trkpt lat="46.161859" lon="13.4880497"><ele>186.33333333333334</ele><time>2026-03-22T14:29:47.371Z</time></trkpt><trkpt lat="46.1616752" lon="13.4880003"><ele>190.0</ele><time>2026-03-22T14:29:48.344Z</time></trkpt><trkpt lat="46.1615015" lon="13.4879459"><ele>184.0</ele><time>2026-03-22T14:29:49.367Z</time></trkpt><trkpt lat="46.1613287" lon="13.4879104"><ele>178.0</ele><time>2026-03-22T14:29:50.359Z</time></trkpt><trkpt lat="46.1611673" lon="13.4878455"><ele>172.0</ele><time>2026-03-22T14:29:51.362Z</time></trkpt><trkpt lat="46.1610025" lon="13.4878203"><ele>172.0</ele><time>2026-03-22T14:29:52.352Z</time></trkpt><trkpt lat="46.1608369" lon="13.4878126"><ele>172.0</ele><time>2026-03-22T14:29:53.38Z</time></trkpt><trkpt lat="46.1606716" lon="13.4878022"><ele>172.0</ele><time>2026-03-22T14:29:54.362Z</time></trkpt><trkpt lat="46.1605066" lon="13.4878028"><ele>171.33333333333334</ele><time>2026-03-22T14:29:55.358Z</time></trkpt><trkpt lat="46.1603318" lon="13.4878172"><ele>170.66666666666666</ele><time>2026-03-22T14:29:56.366Z</time></trkpt><trkpt lat="46.1601479" lon="13.4878453"><ele>170.0</ele><time>2026-03-22T14:29:57.35Z</time></trkpt><trkpt lat="46.1599562" lon="13.4878756"><ele>170.33333333333331</ele><time>2026-03-22T14:29:58.37Z</time></trkpt><trkpt lat="46.1597628" lon="13.4879089"><ele>170.66666666666666</ele><time>2026-03-22T14:29:59.386Z</time></trkpt><trkpt lat="46.159574" lon="13.4879472"><ele>171.0</ele><time>2026-03-22T14:30:00.362Z</time></trkpt><trkpt lat="46.1593917" lon="13.4879838"><ele>174.66666666666666</ele><time>2026-03-22T14:30:01.361Z</time></trkpt><trkpt lat="46.1592129" lon="13.4880217"><ele>178.33333333333331</ele><time>2026-03-22T14:30:02.36Z</time></trkpt><trkpt lat="46.1590376" lon="13.4880126"><ele>182.0</ele><time>2026-03-22T14:30:03.371Z</time></trkpt><trkpt lat="46.1588573" lon="13.4880109"><ele>182.0</ele><time>2026-03-22T14:30:04.357Z</time></trkpt><trkpt lat="46.1586681" lon="13.487982"><ele>182.0</ele><time>2026-03-22T14:30:05.382Z</time></trkpt><trkpt lat="46.1584704" lon="13.4879677"><ele>182.0</ele><time>2026-03-22T14:30:06.364Z</time></trkpt><trkpt lat="46.1582718" lon="13.4879519"><ele>180.33333333333331</ele><time>2026-03-22T14:30:07.375Z</time></trkpt><trkpt lat="46.1580765" lon="13.4879486"><ele>178.66666666666666</ele><time>2026-03-22T14:30:08.377Z</time></trkpt><trkpt lat="46.1578832" lon="13.487971"><ele>177.0</ele><time>2026-03-22T14:30:09.367Z</time></trkpt><trkpt lat="46.1576914" lon="13.4880271"><ele>177.0</ele><time>2026-03-22T14:30:10.363Z</time></trkpt><trkpt lat="46.1575006" lon="13.4880943"><ele>177.0</ele><time>2026-03-22T14:30:11.383Z</time></trkpt><trkpt lat="46.1573117" lon="13.4881593"><ele>177.0</ele><time>2026-03-22T14:30:12.38Z</time></trkpt><trkpt lat="46.1571266" lon="13.4882206"><ele>176.33333333333334</ele><time>2026-03-22T14:30:13.355Z</time></trkpt><trkpt lat="46.1569446" lon="13.4882799"><ele>175.66666666666669</ele><time>2026-03-22T14:30:14.366Z</time></trkpt><trkpt lat="46.1567641" lon="13.4883453"><ele>175.0</ele><time>2026-03-22T14:30:15.35Z</time></trkpt><trkpt lat="46.1565842" lon="13.488407"><ele>175.33333333333334</ele><time>2026-03-22T14:30:16.387Z</time></trkpt><trkpt lat="46.1564072" lon="13.4884696"><ele>175.66666666666666</ele><time>2026-03-22T14:30:17.357Z</time></trkpt><trkpt lat="46.1562337" lon="13.488528"><ele>176.0</ele><time>2026-03-22T14:30:18.366Z</time></trkpt><trkpt lat="46.1560631" lon="13.4885877"><ele>176.0</ele><time>2026-03-22T14:30:19.37Z</time></trkpt><trkpt lat="46.155892" lon="13.4886354"><ele>176.0</ele><time>2026-03-22T14:30:20.372Z</time></trkpt><trkpt lat="46.1557202" lon="13.4886722"><ele>176.0</ele><time>2026-03-22T14:30:21.37Z</time></trkpt><trkpt lat="46.1555466" lon="13.488684"><ele>176.66666666666666</ele><time>2026-03-22T14:30:22.359Z</time></trkpt><trkpt lat="46.155373" lon="13.4886771"><ele>177.33333333333334</ele><time>2026-03-22T14:30:23.353Z</time></trkpt><trkpt lat="46.1552006" lon="13.4886572"><ele>178.0</ele><time>2026-03-22T14:30:24.374Z</time></trkpt><trkpt lat="46.1550294" lon="13.4886464"><ele>180.33333333333334</ele><time>2026-03-22T14:30:25.36Z</time></trkpt><trkpt lat="46.1548617" lon="13.4886387"><ele>182.66666666666666</ele><time>2026-03-22T14:30:26.361Z</time></trkpt><trkpt lat="46.1546966" lon="13.4886349"><ele>185.0</ele><time>2026-03-22T14:30:27.365Z</time></trkpt><trkpt lat="46.1545372" lon="13.4886245"><ele>185.0</ele><time>2026-03-22T14:30:28.35Z</time></trkpt><trkpt lat="46.1543865" lon="13.4886062"><ele>185.0</ele><time>2026-03-22T14:30:29.356Z</time></trkpt><trkpt lat="46.1542399" lon="13.4885712"><ele>185.0</ele><time>2026-03-22T14:30:30.356Z</time></trkpt><trkpt lat="46.1540927" lon="13.4885382"><ele>185.0</ele><time>2026-03-22T14:30:31.355Z</time></trkpt><trkpt lat="46.153944" lon="13.4885274"><ele>186.0</ele><time>2026-03-22T14:30:32.348Z</time></trkpt><trkpt lat="46.1537962" lon="13.4885454"><ele>187.0</ele><time>2026-03-22T14:30:33.354Z</time></trkpt><trkpt lat="46.1536525" lon="13.4885567"><ele>188.0</ele><time>2026-03-22T14:30:34.4Z</time></trkpt><trkpt lat="46.1535091" lon="13.4886056"><ele>189.0</ele><time>2026-03-22T14:30:35.357Z</time></trkpt><trkpt lat="46.1533626" lon="13.4886803"><ele>191.0</ele><time>2026-03-22T14:30:36.372Z</time></trkpt><trkpt lat="46.1532082" lon="13.4887656"><ele>193.0</ele><time>2026-03-22T14:30:37.359Z</time></trkpt><trkpt lat="46.1530504" lon="13.4888754"><ele>195.0</ele><time>2026-03-22T14:30:38.369Z</time></trkpt><trkpt lat="46.1528831" lon="13.4889701"><ele>195.33333333333331</ele><time>2026-03-22T14:30:39.371Z</time></trkpt><trkpt lat="46.1527056" lon="13.4890471"><ele>195.66666666666666</ele><time>2026-03-22T14:30:40.351Z</time></trkpt><trkpt lat="46.1525262" lon="13.4891141"><ele>196.0</ele><time>2026-03-22T14:30:41.379Z</time></trkpt><trkpt lat="46.1523487" lon="13.4891714"><ele>195.0</ele><time>2026-03-22T14:30:42.359Z</time></trkpt><trkpt lat="46.1521775" lon="13.48922"><ele>194.0</ele><time>2026-03-22T14:30:43.36Z</time></trkpt><trkpt lat="46.1520169" lon="13.4892809"><ele>193.0</ele><time>2026-03-22T14:30:44.357Z</time></trkpt><trkpt lat="46.15186" lon="13.4893295"><ele>193.0</ele><time>2026-03-22T14:30:45.379Z</time></trkpt><trkpt lat="46.1517101" lon="13.4893753"><ele>193.0</ele><time>2026-03-22T14:30:46.351Z</time></trkpt><trkpt lat="46.1515642" lon="13.4893934"><ele>193.0</ele><time>2026-03-22T14:30:47.358Z</time></trkpt><trkpt lat="46.1514072" lon="13.4893605"><ele>192.33333333333331</ele><time>2026-03-22T14:30:48.356Z</time></trkpt><trkpt lat="46.1512461" lon="13.4893156"><ele>191.66666666666666</ele><time>2026-03-22T14:30:49.376Z</time></trkpt><trkpt lat="46.1510758" lon="13.489242"><ele>191.0</ele><time>2026-03-22T14:30:50.356Z</time></trkpt><trkpt lat="46.150893" lon="13.4891628"><ele>191.0</ele><time>2026-03-22T14:30:51.349Z</time></trkpt><trkpt lat="46.1507045" lon="13.4890805"><ele>191.0</ele><time>2026-03-22T14:30:52.355Z</time></trkpt><trkpt lat="46.1505161" lon="13.4889979"><ele>191.0</ele><time>2026-03-22T14:30:53.348Z</time></trkpt><trkpt lat="46.1503312" lon="13.4889194"><ele>191.0</ele><time>2026-03-22T14:30:54.359Z</time></trkpt><trkpt lat="46.1501492" lon="13.4888513"><ele>191.0</ele><time>2026-03-22T14:30:55.371Z</time></trkpt><trkpt lat="46.1499624" lon="13.488805"><ele>191.0</ele><time>2026-03-22T14:30:56.347Z</time></trkpt><trkpt lat="46.1497651" lon="13.4887898"><ele>190.66666666666666</ele><time>2026-03-22T14:30:57.366Z</time></trkpt><trkpt lat="46.1495675" lon="13.4887921"><ele>190.33333333333334</ele><time>2026-03-22T14:30:58.368Z</time></trkpt><trkpt lat="46.1493674" lon="13.4888085"><ele>190.0</ele><time>2026-03-22T14:30:59.365Z</time></trkpt><trkpt lat="46.1491672" lon="13.4888197"><ele>190.33333333333334</ele><time>2026-03-22T14:31:00.377Z</time></trkpt><trkpt lat="46.1489742" lon="13.4888192"><ele>190.66666666666666</ele><time>2026-03-22T14:31:01.378Z</time></trkpt><trkpt lat="46.1487908" lon="13.4888281"><ele>191.0</ele><time>2026-03-22T14:31:02.365Z</time></trkpt><trkpt lat="46.1486117" lon="13.4888481"><ele>191.0</ele><time>2026-03-22T14:31:03.355Z</time></trkpt><trkpt lat="46.1484382" lon="13.4888861"><ele>191.0</ele><time>2026-03-22T14:31:04.369Z</time></trkpt><trkpt lat="46.1482672" lon="13.4889414"><ele>191.0</ele><time>2026-03-22T14:31:05.368Z</time></trkpt><trkpt lat="46.1480941" lon="13.4889956"><ele>191.33333333333331</ele><time>2026-03-22T14:31:06.343Z</time></trkpt><trkpt lat="46.1479275" lon="13.4890629"><ele>191.66666666666666</ele><time>2026-03-22T14:31:07.371Z</time></trkpt><trkpt lat="46.1477609" lon="13.4891076"><ele>192.0</ele><time>2026-03-22T14:31:08.357Z</time></trkpt><trkpt lat="46.1476032" lon="13.4891649"><ele>192.0</ele><time>2026-03-22T14:31:09.389Z</time></trkpt><trkpt lat="46.1474407" lon="13.4891863"><ele>192.0</ele><time>2026-03-22T14:31:10.351Z</time></trkpt><trkpt lat="46.1472722" lon="13.4891843"><ele>192.0</ele><time>2026-03-22T14:31:11.356Z</time></trkpt><trkpt lat="46.1470968" lon="13.4891888"><ele>190.33333333333334</ele><time>2026-03-22T14:31:12.352Z</time></trkpt><trkpt lat="46.1469127" lon="13.4891321"><ele>188.66666666666669</ele><time>2026-03-22T14:31:13.375Z</time></trkpt><trkpt lat="46.1467238" lon="13.4890697"><ele>187.0</ele><time>2026-03-22T14:31:14.348Z</time></trkpt><trkpt lat="46.1465311" lon="13.4889855"><ele>186.33333333333334</ele><time>2026-03-22T14:31:15.375Z</time></trkpt><trkpt lat="46.1463325" lon="13.4888917"><ele>185.66666666666666</ele><time>2026-03-22T14:31:16.366Z</time></trkpt><trkpt lat="46.1461329" lon="13.4888029"><ele>185.0</ele><time>2026-03-22T14:31:17.355Z</time></trkpt><trkpt lat="46.1459355" lon="13.4887259"><ele>184.66666666666666</ele><time>2026-03-22T14:31:18.361Z</time></trkpt><trkpt lat="46.1457487" lon="13.488648"><ele>184.33333333333334</ele><time>2026-03-22T14:31:19.376Z</time></trkpt><trkpt lat="46.1455816" lon="13.4885233"><ele>184.0</ele><time>2026-03-22T14:31:20.367Z</time></trkpt><trkpt lat="46.1454237" lon="13.4883876"><ele>184.0</ele><time>2026-03-22T14:31:21.385Z</time></trkpt><trkpt lat="46.1452679" lon="13.4882381"><ele>184.0</ele><time>2026-03-22T14:31:22.36Z</time></trkpt><trkpt lat="46.1451138" lon="13.4880684"><ele>184.0</ele><time>2026-03-22T14:31:23.35Z</time></trkpt><trkpt lat="46.1449625" lon="13.4878788"><ele>183.66666666666669</ele><time>2026-03-22T14:31:24.365Z</time></trkpt><trkpt lat="46.1448098" lon="13.4876772"><ele>183.33333333333334</ele><time>2026-03-22T14:31:25.352Z</time></trkpt><trkpt lat="46.1446544" lon="13.4874742"><ele>183.0</ele><time>2026-03-22T14:31:26.356Z</time></trkpt><trkpt lat="46.1444877" lon="13.4872873"><ele>183.0</ele><time>2026-03-22T14:31:27.362Z</time></trkpt><trkpt lat="46.1443062" lon="13.487124"><ele>183.0</ele><time>2026-03-22T14:31:28.347Z</time></trkpt><trkpt lat="46.1441152" lon="13.4869821"><ele>183.0</ele><time>2026-03-22T14:31:29.351Z</time></trkpt><trkpt lat="46.1439244" lon="13.4868513"><ele>182.33333333333334</ele><time>2026-03-22T14:31:30.369Z</time></trkpt><trkpt lat="46.143739" lon="13.4867247"><ele>181.66666666666669</ele><time>2026-03-22T14:31:31.356Z</time></trkpt><trkpt lat="46.1435595" lon="13.4866031"><ele>181.0</ele><time>2026-03-22T14:31:32.372Z</time></trkpt><trkpt lat="46.1433827" lon="13.4864876"><ele>180.66666666666669</ele><time>2026-03-22T14:31:33.373Z</time></trkpt><trkpt lat="46.1432098" lon="13.4863784"><ele>180.33333333333334</ele><time>2026-03-22T14:31:34.361Z</time></trkpt><trkpt lat="46.1430449" lon="13.4862795"><ele>180.0</ele><time>2026-03-22T14:31:35.378Z</time></trkpt><trkpt lat="46.1428819" lon="13.4862088"><ele>177.0</ele><time>2026-03-22T14:31:36.352Z</time></trkpt><trkpt lat="46.1427096" lon="13.4861758"><ele>174.0</ele><time>2026-03-22T14:31:37.37Z</time></trkpt><trkpt lat="46.1425302" lon="13.4861802"><ele>171.0</ele><time>2026-03-22T14:31:38.358Z</time></trkpt><trkpt lat="46.142346" lon="13.4862027"><ele>170.66666666666666</ele><time>2026-03-22T14:31:39.372Z</time></trkpt><trkpt lat="46.1421568" lon="13.486235"><ele>170.33333333333331</ele><time>2026-03-22T14:31:40.357Z</time></trkpt><trkpt lat="46.1419626" lon="13.4862823"><ele>170.0</ele><time>2026-03-22T14:31:41.355Z</time></trkpt><trkpt lat="46.1417697" lon="13.4863578"><ele>172.66666666666666</ele><time>2026-03-22T14:31:42.352Z</time></trkpt><trkpt lat="46.1415804" lon="13.4864625"><ele>175.33333333333334</ele><time>2026-03-22T14:31:43.37Z</time></trkpt><trkpt lat="46.1413929" lon="13.4865569"><ele>178.0</ele><time>2026-03-22T14:31:44.352Z</time></trkpt><trkpt lat="46.1412013" lon="13.4866338"><ele>178.0</ele><time>2026-03-22T14:31:45.357Z</time></trkpt><trkpt lat="46.141001" lon="13.4866653"><ele>178.0</ele><time>2026-03-22T14:31:46.384Z</time></trkpt><trkpt lat="46.1407974" lon="13.4866687"><ele>178.0</ele><time>2026-03-22T14:31:47.362Z</time></trkpt><trkpt lat="46.1405951" lon="13.4866789"><ele>176.66666666666669</ele><time>2026-03-22T14:31:48.353Z</time></trkpt><trkpt lat="46.1403935" lon="13.4866684"><ele>175.33333333333334</ele><time>2026-03-22T14:31:49.368Z</time></trkpt><trkpt lat="46.1401917" lon="13.4866625"><ele>174.0</ele><time>2026-03-22T14:31:50.36Z</time></trkpt><trkpt lat="46.1399913" lon="13.4866404"><ele>175.66666666666666</ele><time>2026-03-22T14:31:51.365Z</time></trkpt><trkpt lat="46.1397945" lon="13.4866254"><ele>177.33333333333331</ele><time>2026-03-22T14:31:52.367Z</time></trkpt><trkpt lat="46.1396" lon="13.4866102"><ele>179.0</ele><time>2026-03-22T14:31:53.364Z</time></trkpt><trkpt lat="46.1394086" lon="13.4865668"><ele>179.0</ele><time>2026-03-22T14:31:54.363Z</time></trkpt><trkpt lat="46.139217" lon="13.4865322"><ele>179.0</ele><time>2026-03-22T14:31:55.377Z</time></trkpt><trkpt lat="46.1390232" lon="13.486503"><ele>179.0</ele><time>2026-03-22T14:31:56.369Z</time></trkpt><trkpt lat="46.1388264" lon="13.4864683"><ele>178.0</ele><time>2026-03-22T14:31:57.362Z</time></trkpt><trkpt lat="46.1386258" lon="13.4864476"><ele>177.0</ele><time>2026-03-22T14:31:58.349Z</time></trkpt><trkpt lat="46.1384256" lon="13.4864166"><ele>176.0</ele><time>2026-03-22T14:31:59.362Z</time></trkpt><trkpt lat="46.1382316" lon="13.4863608"><ele>176.0</ele><time>2026-03-22T14:32:00.371Z</time></trkpt><trkpt lat="46.1380459" lon="13.4862804"><ele>176.0</ele><time>2026-03-22T14:32:01.377Z</time></trkpt><trkpt lat="46.1378681" lon="13.4861663"><ele>176.0</ele><time>2026-03-22T14:32:02.371Z</time></trkpt><trkpt lat="46.1376847" lon="13.4860715"><ele>175.0</ele><time>2026-03-22T14:32:03.37Z</time></trkpt><trkpt lat="46.1374989" lon="13.4859747"><ele>174.0</ele><time>2026-03-22T14:32:04.354Z</time></trkpt><trkpt lat="46.1373094" lon="13.4858864"><ele>173.0</ele><time>2026-03-22T14:32:05.363Z</time></trkpt><trkpt lat="46.1371168" lon="13.4858047"><ele>173.0</ele><time>2026-03-22T14:32:06.352Z</time></trkpt><trkpt lat="46.1369179" lon="13.4857356"><ele>173.0</ele><time>2026-03-22T14:32:07.378Z</time></trkpt><trkpt lat="46.1367158" lon="13.4856589"><ele>173.0</ele><time>2026-03-22T14:32:08.356Z</time></trkpt><trkpt lat="46.1365092" lon="13.4855857"><ele>173.33333333333331</ele><time>2026-03-22T14:32:09.361Z</time></trkpt><trkpt lat="46.1362983" lon="13.4855212"><ele>173.66666666666666</ele><time>2026-03-22T14:32:10.355Z</time></trkpt><trkpt lat="46.1360859" lon="13.4854577"><ele>174.0</ele><time>2026-03-22T14:32:11.384Z</time></trkpt><trkpt lat="46.1358709" lon="13.4854101"><ele>172.33333333333334</ele><time>2026-03-22T14:32:12.343Z</time></trkpt><trkpt lat="46.135654" lon="13.485363"><ele>170.66666666666669</ele><time>2026-03-22T14:32:13.362Z</time></trkpt><trkpt lat="46.1354377" lon="13.4853076"><ele>169.0</ele><time>2026-03-22T14:32:14.359Z</time></trkpt><trkpt lat="46.1352228" lon="13.4852578"><ele>169.0</ele><time>2026-03-22T14:32:15.353Z</time></trkpt><trkpt lat="46.1350081" lon="13.4852132"><ele>169.0</ele><time>2026-03-22T14:32:16.359Z</time></trkpt><trkpt lat="46.1347965" lon="13.4851524"><ele>169.0</ele><time>2026-03-22T14:32:17.379Z</time></trkpt><trkpt lat="46.1345873" lon="13.4851129"><ele>170.0</ele><time>2026-03-22T14:32:18.364Z</time></trkpt><trkpt lat="46.1343802" lon="13.4850642"><ele>171.0</ele><time>2026-03-22T14:32:19.359Z</time></trkpt><trkpt lat="46.1341735" lon="13.4850239"><ele>172.0</ele><time>2026-03-22T14:32:20.357Z</time></trkpt><trkpt lat="46.1339709" lon="13.48498"><ele>172.0</ele><time>2026-03-22T14:32:21.364Z</time></trkpt><trkpt lat="46.133773" lon="13.4849426"><ele>172.0</ele><time>2026-03-22T14:32:22.372Z</time></trkpt><trkpt lat="46.133583" lon="13.4848884"><ele>172.0</ele><time>2026-03-22T14:32:23.35Z</time></trkpt><trkpt lat="46.1333971" lon="13.4848398"><ele>172.0</ele><time>2026-03-22T14:32:24.362Z</time></trkpt><trkpt lat="46.1332101" lon="13.4848242"><ele>172.0</ele><time>2026-03-22T14:32:25.351Z</time></trkpt><trkpt lat="46.1330205" lon="13.4848451"><ele>172.0</ele><time>2026-03-22T14:32:26.361Z</time></trkpt><trkpt lat="46.1328294" lon="13.4848964"><ele>172.0</ele><time>2026-03-22T14:32:27.35Z</time></trkpt><trkpt lat="46.1326368" lon="13.4849695"><ele>172.0</ele><time>2026-03-22T14:32:28.382Z</time></trkpt><trkpt lat="46.1324439" lon="13.485059"><ele>172.0</ele><time>2026-03-22T14:32:29.356Z</time></trkpt><trkpt lat="46.1322511" lon="13.4851555"><ele>171.33333333333334</ele><time>2026-03-22T14:32:30.356Z</time></trkpt><trkpt lat="46.1320568" lon="13.4852305"><ele>170.66666666666666</ele><time>2026-03-22T14:32:31.375Z</time></trkpt><trkpt lat="46.1318689" lon="13.4853072"><ele>170.0</ele><time>2026-03-22T14:32:32.365Z</time></trkpt><trkpt lat="46.1316902" lon="13.485389"><ele>171.0</ele><time>2026-03-22T14:32:33.355Z</time></trkpt><trkpt lat="46.1315173" lon="13.4854621"><ele>172.0</ele><time>2026-03-22T14:32:34.365Z</time></trkpt><trkpt lat="46.131354" lon="13.4855382"><ele>173.0</ele><time>2026-03-22T14:32:35.37Z</time></trkpt><trkpt lat="46.1312019" lon="13.4856156"><ele>173.0</ele><time>2026-03-22T14:32:36.362Z</time></trkpt><trkpt lat="46.1310625" lon="13.4857036"><ele>173.0</ele><time>2026-03-22T14:32:37.378Z</time></trkpt><trkpt lat="46.1309332" lon="13.4857997"><ele>173.0</ele><time>2026-03-22T14:32:38.348Z</time></trkpt><trkpt lat="46.1308106" lon="13.4859008"><ele>173.0</ele><time>2026-03-22T14:32:39.354Z</time></trkpt><trkpt lat="46.1306921" lon="13.4859866"><ele>171.5</ele><time>2026-03-22T14:32:40.346Z</time></trkpt><trkpt lat="46.1305708" lon="13.4860485"><ele>170.0</ele><time>2026-03-22T14:32:41.365Z</time></trkpt><trkpt lat="46.1304578" lon="13.486116"><ele>168.5</ele><time>2026-03-22T14:32:42.361Z</time></trkpt><trkpt lat="46.1303505" lon="13.4861816"><ele>167.0</ele><time>2026-03-22T14:32:43.343Z</time></trkpt><trkpt lat="46.1302471" lon="13.4862502"><ele>168.0</ele><time>2026-03-22T14:32:44.349Z</time></trkpt><trkpt lat="46.1301392" lon="13.4862963"><ele>169.0</ele><time>2026-03-22T14:32:45.35Z</time></trkpt><trkpt lat="46.1300324" lon="13.4863308"><ele>170.0</ele><time>2026-03-22T14:32:46.358Z</time></trkpt><trkpt lat="46.1299288" lon="13.4863651"><ele>171.0</ele><time>2026-03-22T14:32:47.352Z</time></trkpt><trkpt lat="46.1298259" lon="13.4864005"><ele>172.0</ele><time>2026-03-22T14:32:48.353Z</time></trkpt><trkpt lat="46.1297233" lon="13.4864237"><ele>172.0</ele><time>2026-03-22T14:32:49.36Z</time></trkpt><trkpt lat="46.1296228" lon="13.4864463"><ele>172.0</ele><time>2026-03-22T14:32:50.366Z</time></trkpt><trkpt lat="46.1295207" lon="13.4864316"><ele>172.0</ele><time>2026-03-22T14:32:51.38Z</time></trkpt><trkpt lat="46.1294289" lon="13.4864212"><ele>172.0</ele><time>2026-03-22T14:32:52.352Z</time></trkpt><trkpt lat="46.1293453" lon="13.4863882"><ele>172.0</ele><time>2026-03-22T14:32:53.355Z</time></trkpt><trkpt lat="46.1292613" lon="13.4863641"><ele>172.0</ele><time>2026-03-22T14:32:54.349Z</time></trkpt><trkpt lat="46.1291745" lon="13.4863213"><ele>172.0</ele><time>2026-03-22T14:32:55.35Z</time></trkpt><trkpt lat="46.1290945" lon="13.4862305"><ele>172.0</ele><time>2026-03-22T14:32:56.345Z</time></trkpt><trkpt lat="46.1289976" lon="13.4861764"><ele>172.0</ele><time>2026-03-22T14:32:57.364Z</time></trkpt><trkpt lat="46.1288938" lon="13.4861351"><ele>172.0</ele><time>2026-03-22T14:32:58.353Z</time></trkpt><trkpt lat="46.1287952" lon="13.4860629"><ele>171.5</ele><time>2026-03-22T14:32:59.366Z</time></trkpt><trkpt lat="46.1286804" lon="13.4860379"><ele>171.0</ele><time>2026-03-22T14:33:00.371Z</time></trkpt><trkpt lat="46.1285682" lon="13.4860146"><ele>170.5</ele><time>2026-03-22T14:33:01.355Z</time></trkpt><trkpt lat="46.1284607" lon="13.485977"><ele>170.0</ele><time>2026-03-22T14:33:02.348Z</time></trkpt><trkpt lat="46.1283601" lon="13.4858945"><ele>170.0</ele><time>2026-03-22T14:33:03.376Z</time></trkpt><trkpt lat="46.1282568" lon="13.4858208"><ele>170.0</ele><time>2026-03-22T14:33:04.349Z</time></trkpt><trkpt lat="46.1281493" lon="13.4857636"><ele>170.0</ele><time>2026-03-22T14:33:05.375Z</time></trkpt><trkpt lat="46.128047" lon="13.485705"><ele>170.0</ele><time>2026-03-22T14:33:06.391Z</time></trkpt><trkpt lat="46.127947" lon="13.4856317"><ele>170.2</ele><time>2026-03-22T14:33:07.366Z</time></trkpt><trkpt lat="46.1278491" lon="13.4855761"><ele>170.4</ele><time>2026-03-22T14:33:08.358Z</time></trkpt><trkpt lat="46.127749" lon="13.4855291"><ele>170.60000000000002</ele><time>2026-03-22T14:33:09.358Z</time></trkpt><trkpt lat="46.1276513" lon="13.485473"><ele>170.8</ele><time>2026-03-22T14:33:10.352Z</time></trkpt><trkpt lat="46.1275553" lon="13.4854226"><ele>171.0</ele><time>2026-03-22T14:33:11.362Z</time></trkpt><trkpt lat="46.1274614" lon="13.4853711"><ele>170.60000000000002</ele><time>2026-03-22T14:33:12.352Z</time></trkpt><trkpt lat="46.1273666" lon="13.4853277"><ele>170.2</ele><time>2026-03-22T14:33:13.389Z</time></trkpt><trkpt lat="46.1272694" lon="13.4852841"><ele>169.8</ele><time>2026-03-22T14:33:14.351Z</time></trkpt><trkpt lat="46.1271704" lon="13.4852387"><ele>169.39999999999998</ele><time>2026-03-22T14:33:15.35Z</time></trkpt><trkpt lat="46.127069" lon="13.4851958"><ele>169.0</ele><time>2026-03-22T14:33:16.366Z</time></trkpt><trkpt lat="46.1269631" lon="13.4851596"><ele>169.0</ele><time>2026-03-22T14:33:17.379Z</time></trkpt><trkpt lat="46.1268563" lon="13.4851029"><ele>169.0</ele><time>2026-03-22T14:33:18.345Z</time></trkpt><trkpt lat="46.1267515" lon="13.4850631"><ele>169.0</ele><time>2026-03-22T14:33:19.367Z</time></trkpt><trkpt lat="46.1266463" lon="13.4850243"><ele>169.0</ele><time>2026-03-22T14:33:20.35Z</time></trkpt><trkpt lat="46.126553" lon="13.4849647"><ele>169.0</ele><time>2026-03-22T14:33:21.354Z</time></trkpt><trkpt lat="46.1264624" lon="13.4849141"><ele>169.0</ele><time>2026-03-22T14:33:22.358Z</time></trkpt><trkpt lat="46.1263735" lon="13.4848659"><ele>169.0</ele><time>2026-03-22T14:33:23.365Z</time></trkpt><trkpt lat="46.126286" lon="13.4848152"><ele>169.0</ele><time>2026-03-22T14:33:24.364Z</time></trkpt><trkpt lat="46.126204" lon="13.4847461"><ele>169.0</ele><time>2026-03-22T14:33:25.369Z</time></trkpt><trkpt lat="46.1261155" lon="13.4846606"><ele>169.0</ele><time>2026-03-22T14:33:26.377Z</time></trkpt><trkpt lat="46.1260217" lon="13.4845731"><ele>169.0</ele><time>2026-03-22T14:33:27.358Z</time></trkpt><trkpt lat="46.1259149" lon="13.4844914"><ele>169.0</ele><time>2026-03-22T14:33:28.354Z</time></trkpt><trkpt lat="46.1258083" lon="13.484385"><ele>169.0</ele><time>2026-03-22T14:33:29.355Z</time></trkpt><trkpt lat="46.1256916" lon="13.4843027"><ele>169.0</ele><time>2026-03-22T14:33:30.373Z</time></trkpt><trkpt lat="46.1255826" lon="13.4842077"><ele>168.5</ele><time>2026-03-22T14:33:31.382Z</time></trkpt><trkpt lat="46.1254774" lon="13.4841111"><ele>168.0</ele><time>2026-03-22T14:33:32.376Z</time></trkpt><trkpt lat="46.1253718" lon="13.4840103"><ele>167.5</ele><time>2026-03-22T14:33:33.363Z</time></trkpt><trkpt lat="46.1252575" lon="13.483934"><ele>167.0</ele><time>2026-03-22T14:33:34.366Z</time></trkpt><trkpt lat="46.1251357" lon="13.4838839"><ele>167.0</ele><time>2026-03-22T14:33:35.361Z</time></trkpt><trkpt lat="46.1250128" lon="13.4838031"><ele>167.0</ele><time>2026-03-22T14:33:36.355Z</time></trkpt><trkpt lat="46.1248775" lon="13.4837723"><ele>167.0</ele><time>2026-03-22T14:33:37.356Z</time></trkpt><trkpt lat="46.124742" lon="13.4837366"><ele>167.0</ele><time>2026-03-22T14:33:38.356Z</time></trkpt><trkpt lat="46.1246107" lon="13.4836867"><ele>164.33333333333331</ele><time>2026-03-22T14:33:39.369Z</time></trkpt><trkpt lat="46.1244674" lon="13.4836603"><ele>161.66666666666666</ele><time>2026-03-22T14:33:40.353Z</time></trkpt><trkpt lat="46.1243193" lon="13.4836032"><ele>159.0</ele><time>2026-03-22T14:33:41.382Z</time></trkpt><trkpt lat="46.1241689" lon="13.4835391"><ele>159.33333333333334</ele><time>2026-03-22T14:33:42.357Z</time></trkpt><trkpt lat="46.1240252" lon="13.4834166"><ele>159.66666666666669</ele><time>2026-03-22T14:33:43.358Z</time></trkpt><trkpt lat="46.1238791" lon="13.4832877"><ele>160.0</ele><time>2026-03-22T14:33:44.357Z</time></trkpt><trkpt lat="46.123733" lon="13.4831538"><ele>160.0</ele><time>2026-03-22T14:33:45.359Z</time></trkpt><trkpt lat="46.1235841" lon="13.4830273"><ele>160.0</ele><time>2026-03-22T14:33:46.36Z</time></trkpt><trkpt lat="46.1234358" lon="13.4829067"><ele>160.0</ele><time>2026-03-22T14:33:47.367Z</time></trkpt><trkpt lat="46.1232937" lon="13.4827757"><ele>159.66666666666669</ele><time>2026-03-22T14:33:48.38Z</time></trkpt><trkpt lat="46.1231456" lon="13.4826583"><ele>159.33333333333334</ele><time>2026-03-22T14:33:49.366Z</time></trkpt><trkpt lat="46.1229881" lon="13.4825662"><ele>159.0</ele><time>2026-03-22T14:33:50.378Z</time></trkpt><trkpt lat="46.1228293" lon="13.4824785"><ele>159.0</ele><time>2026-03-22T14:33:51.376Z</time></trkpt><trkpt lat="46.1226642" lon="13.4824134"><ele>159.0</ele><time>2026-03-22T14:33:52.352Z</time></trkpt><trkpt lat="46.1225055" lon="13.482327"><ele>159.0</ele><time>2026-03-22T14:33:53.352Z</time></trkpt><trkpt lat="46.122341" lon="13.4822533"><ele>159.33333333333334</ele><time>2026-03-22T14:33:54.348Z</time></trkpt><trkpt lat="46.1221685" lon="13.4821944"><ele>159.66666666666669</ele><time>2026-03-22T14:33:55.367Z</time></trkpt><trkpt lat="46.1219953" lon="13.4821324"><ele>160.0</ele><time>2026-03-22T14:33:56.382Z</time></trkpt><trkpt lat="46.1218155" lon="13.4820966"><ele>159.33333333333334</ele><time>2026-03-22T14:33:57.372Z</time></trkpt><trkpt lat="46.1216323" lon="13.4820732"><ele>158.66666666666666</ele><time>2026-03-22T14:33:58.372Z</time></trkpt><trkpt lat="46.1214468" lon="13.4820647"><ele>158.0</ele><time>2026-03-22T14:33:59.394Z</time></trkpt><trkpt lat="46.1212618" lon="13.4820438"><ele>158.0</ele><time>2026-03-22T14:34:00.371Z</time></trkpt><trkpt lat="46.1210755" lon="13.4820203"><ele>158.0</ele><time>2026-03-22T14:34:01.354Z</time></trkpt><trkpt lat="46.1208885" lon="13.4819758"><ele>158.0</ele><time>2026-03-22T14:34:02.38Z</time></trkpt><trkpt lat="46.1206981" lon="13.4819463"><ele>157.0</ele><time>2026-03-22T14:34:03.404Z</time></trkpt><trkpt lat="46.1205058" lon="13.4819157"><ele>156.0</ele><time>2026-03-22T14:34:04.361Z</time></trkpt><trkpt lat="46.1203133" lon="13.4818792"><ele>155.0</ele><time>2026-03-22T14:34:05.382Z</time></trkpt><trkpt lat="46.1201194" lon="13.481843"><ele>155.0</ele><time>2026-03-22T14:34:06.367Z</time></trkpt><trkpt lat="46.1199253" lon="13.4818107"><ele>155.0</ele><time>2026-03-22T14:34:07.363Z</time></trkpt><trkpt lat="46.1197341" lon="13.4817732"><ele>155.0</ele><time>2026-03-22T14:34:08.366Z</time></trkpt><trkpt lat="46.1195478" lon="13.4817364"><ele>154.33333333333331</ele><time>2026-03-22T14:34:09.381Z</time></trkpt><trkpt lat="46.1193659" lon="13.4816969"><ele>153.66666666666666</ele><time>2026-03-22T14:34:10.362Z</time></trkpt><trkpt lat="46.1191866" lon="13.4816571"><ele>153.0</ele><time>2026-03-22T14:34:11.355Z</time></trkpt><trkpt lat="46.1190091" lon="13.4816142"><ele>152.0</ele><time>2026-03-22T14:34:12.364Z</time></trkpt><trkpt lat="46.1188271" lon="13.4816056"><ele>151.0</ele><time>2026-03-22T14:34:13.396Z</time></trkpt><trkpt lat="46.1186418" lon="13.4816124"><ele>150.0</ele><time>2026-03-22T14:34:14.365Z</time></trkpt><trkpt lat="46.118454" lon="13.4816347"><ele>150.0</ele><time>2026-03-22T14:34:15.362Z</time></trkpt><trkpt lat="46.1182604" lon="13.4816661"><ele>150.0</ele><time>2026-03-22T14:34:16.374Z</time></trkpt><trkpt lat="46.1180625" lon="13.4816723"><ele>150.0</ele><time>2026-03-22T14:34:17.375Z</time></trkpt><trkpt lat="46.1178612" lon="13.4816871"><ele>150.33333333333334</ele><time>2026-03-22T14:34:18.362Z</time></trkpt><trkpt lat="46.1176561" lon="13.4816913"><ele>150.66666666666669</ele><time>2026-03-22T14:34:19.375Z</time></trkpt><trkpt lat="46.1174472" lon="13.4816727"><ele>151.0</ele><time>2026-03-22T14:34:20.357Z</time></trkpt><trkpt lat="46.117246" lon="13.4815994"><ele>151.33333333333334</ele><time>2026-03-22T14:34:21.399Z</time></trkpt><trkpt lat="46.1170549" lon="13.4814961"><ele>151.66666666666666</ele><time>2026-03-22T14:34:22.361Z</time></trkpt><trkpt lat="46.1168754" lon="13.4813642"><ele>152.0</ele><time>2026-03-22T14:34:23.35Z</time></trkpt><trkpt lat="46.1167124" lon="13.4812041"><ele>151.33333333333331</ele><time>2026-03-22T14:34:24.351Z</time></trkpt><trkpt lat="46.1165543" lon="13.4810552"><ele>150.66666666666666</ele><time>2026-03-22T14:34:25.364Z</time></trkpt><trkpt lat="46.1163985" lon="13.4809142"><ele>150.0</ele><time>2026-03-22T14:34:26.34Z</time></trkpt><trkpt lat="46.1162498" lon="13.4807638"><ele>150.0</ele><time>2026-03-22T14:34:27.356Z</time></trkpt><trkpt lat="46.116101" lon="13.4806136"><ele>150.0</ele><time>2026-03-22T14:34:28.356Z</time></trkpt><trkpt lat="46.1159467" lon="13.4804751"><ele>150.0</ele><time>2026-03-22T14:34:29.345Z</time></trkpt><trkpt lat="46.115792" lon="13.4803326"><ele>150.33333333333334</ele><time>2026-03-22T14:34:30.36Z</time></trkpt><trkpt lat="46.1156331" lon="13.4801935"><ele>150.66666666666669</ele><time>2026-03-22T14:34:31.36Z</time></trkpt><trkpt lat="46.1154691" lon="13.4800548"><ele>151.0</ele><time>2026-03-22T14:34:32.355Z</time></trkpt><trkpt lat="46.1153055" lon="13.4799126"><ele>151.0</ele><time>2026-03-22T14:34:33.376Z</time></trkpt><trkpt lat="46.115141" lon="13.4797771"><ele>151.0</ele><time>2026-03-22T14:34:34.363Z</time></trkpt><trkpt lat="46.1149798" lon="13.4796361"><ele>151.0</ele><time>2026-03-22T14:34:35.372Z</time></trkpt><trkpt lat="46.114821" lon="13.4794896"><ele>151.33333333333334</ele><time>2026-03-22T14:34:36.36Z</time></trkpt><trkpt lat="46.1146604" lon="13.4793488"><ele>151.66666666666666</ele><time>2026-03-22T14:34:37.353Z</time></trkpt><trkpt lat="46.1145077" lon="13.4791874"><ele>152.0</ele><time>2026-03-22T14:34:38.359Z</time></trkpt><trkpt lat="46.1143643" lon="13.4790175"><ele>152.0</ele><time>2026-03-22T14:34:39.371Z</time></trkpt><trkpt lat="46.1142363" lon="13.478832"><ele>152.0</ele><time>2026-03-22T14:34:40.368Z</time></trkpt><trkpt lat="46.114107" lon="13.4786517"><ele>152.0</ele><time>2026-03-22T14:34:41.357Z</time></trkpt><trkpt lat="46.1139689" lon="13.4784841"><ele>150.33333333333331</ele><time>2026-03-22T14:34:42.37Z</time></trkpt><trkpt lat="46.1138281" lon="13.4783226"><ele>148.66666666666666</ele><time>2026-03-22T14:34:43.364Z</time></trkpt><trkpt lat="46.1136836" lon="13.4781732"><ele>147.0</ele><time>2026-03-22T14:34:44.366Z</time></trkpt><trkpt lat="46.1135365" lon="13.4780406"><ele>147.33333333333334</ele><time>2026-03-22T14:34:45.371Z</time></trkpt><trkpt lat="46.113394" lon="13.4779104"><ele>147.66666666666669</ele><time>2026-03-22T14:34:46.37Z</time></trkpt><trkpt lat="46.1132519" lon="13.4777892"><ele>148.0</ele><time>2026-03-22T14:34:47.37Z</time></trkpt><trkpt lat="46.1131041" lon="13.477688"><ele>148.0</ele><time>2026-03-22T14:34:48.366Z</time></trkpt><trkpt lat="46.1129589" lon="13.4776171"><ele>148.0</ele><time>2026-03-22T14:34:49.368Z</time></trkpt><trkpt lat="46.1128207" lon="13.4775511"><ele>148.0</ele><time>2026-03-22T14:34:50.349Z</time></trkpt><trkpt lat="46.1126856" lon="13.4775083"><ele>148.0</ele><time>2026-03-22T14:34:51.355Z</time></trkpt><trkpt lat="46.1125575" lon="13.4774637"><ele>148.0</ele><time>2026-03-22T14:34:52.354Z</time></trkpt><trkpt lat="46.1124368" lon="13.4774201"><ele>148.0</ele><time>2026-03-22T14:34:53.348Z</time></trkpt><trkpt lat="46.1123241" lon="13.4773789"><ele>148.0</ele><time>2026-03-22T14:34:54.363Z</time></trkpt><trkpt lat="46.1122181" lon="13.4773348"><ele>148.0</ele><time>2026-03-22T14:34:55.349Z</time></trkpt><trkpt lat="46.1121204" lon="13.4772754"><ele>148.0</ele><time>2026-03-22T14:34:56.355Z</time></trkpt><trkpt lat="46.1120305" lon="13.4772172"><ele>148.0</ele><time>2026-03-22T14:34:57.353Z</time></trkpt><trkpt lat="46.111977" lon="13.4771115"><ele>148.0</ele><time>2026-03-22T14:34:58.355Z</time></trkpt><trkpt lat="46.111947" lon="13.4770077"><ele>148.0</ele><time>2026-03-22T14:34:59.363Z</time></trkpt><trkpt lat="46.1119453" lon="13.4769013"><ele>148.0</ele><time>2026-03-22T14:35:00.374Z</time></trkpt><trkpt lat="46.1119737" lon="13.476805"><ele>148.0</ele><time>2026-03-22T14:35:01.35Z</time></trkpt><trkpt lat="46.1119945" lon="13.4767178"><ele>148.0</ele><time>2026-03-22T14:35:02.359Z</time></trkpt><trkpt lat="46.112028" lon="13.4766368"><ele>148.0</ele><time>2026-03-22T14:35:03.365Z</time></trkpt><trkpt lat="46.1121072" lon="13.4765222"><ele>148.0</ele><time>2026-03-22T14:35:05.368Z</time></trkpt><trkpt lat="46.1121166" lon="13.4763896"><ele>148.0</ele><time>2026-03-22T14:35:07.357Z</time></trkpt><trkpt lat="46.1121039" lon="13.4762303"><ele>148.0</ele><time>2026-03-22T14:35:09.365Z</time></trkpt><trkpt lat="46.1120536" lon="13.4761309"><ele>148.0</ele><time>2026-03-22T14:35:10.342Z</time></trkpt><trkpt lat="46.1119883" lon="13.4760297"><ele>148.0</ele><time>2026-03-22T14:35:11.38Z</time></trkpt><trkpt lat="46.1119345" lon="13.4758984"><ele>148.0</ele><time>2026-03-22T14:35:12.346Z</time></trkpt><trkpt lat="46.1118764" lon="13.4757526"><ele>148.0</ele><time>2026-03-22T14:35:13.365Z</time></trkpt><trkpt lat="46.1118134" lon="13.4755859"><ele>149.33333333333334</ele><time>2026-03-22T14:35:14.362Z</time></trkpt><trkpt lat="46.1117364" lon="13.475403"><ele>150.66666666666666</ele><time>2026-03-22T14:35:15.371Z</time></trkpt><trkpt lat="46.1116498" lon="13.4752036"><ele>152.0</ele><time>2026-03-22T14:35:16.368Z</time></trkpt><trkpt lat="46.1115591" lon="13.4749949"><ele>150.0</ele><time>2026-03-22T14:35:17.37Z</time></trkpt><trkpt lat="46.1114681" lon="13.4747833"><ele>148.0</ele><time>2026-03-22T14:35:18.358Z</time></trkpt><trkpt lat="46.1113732" lon="13.4745738"><ele>146.0</ele><time>2026-03-22T14:35:19.354Z</time></trkpt><trkpt lat="46.1112793" lon="13.4743662"><ele>146.0</ele><time>2026-03-22T14:35:20.344Z</time></trkpt><trkpt lat="46.1111826" lon="13.4741621"><ele>146.0</ele><time>2026-03-22T14:35:21.358Z</time></trkpt><trkpt lat="46.1110891" lon="13.4739575"><ele>146.0</ele><time>2026-03-22T14:35:22.348Z</time></trkpt><trkpt lat="46.1109962" lon="13.4737507"><ele>145.66666666666666</ele><time>2026-03-22T14:35:23.355Z</time></trkpt><trkpt lat="46.1109014" lon="13.4735429"><ele>145.33333333333334</ele><time>2026-03-22T14:35:24.345Z</time></trkpt><trkpt lat="46.1107994" lon="13.4733376"><ele>145.0</ele><time>2026-03-22T14:35:25.355Z</time></trkpt><trkpt lat="46.1106934" lon="13.4731317"><ele>146.66666666666669</ele><time>2026-03-22T14:35:26.347Z</time></trkpt><trkpt lat="46.1105849" lon="13.4729273"><ele>148.33333333333334</ele><time>2026-03-22T14:35:27.347Z</time></trkpt><trkpt lat="46.1104804" lon="13.4727223"><ele>150.0</ele><time>2026-03-22T14:35:28.35Z</time></trkpt><trkpt lat="46.110376" lon="13.4725234"><ele>150.0</ele><time>2026-03-22T14:35:29.352Z</time></trkpt><trkpt lat="46.1102738" lon="13.4723257"><ele>150.0</ele><time>2026-03-22T14:35:30.344Z</time></trkpt><trkpt lat="46.1101707" lon="13.4721339"><ele>150.0</ele><time>2026-03-22T14:35:31.349Z</time></trkpt><trkpt lat="46.1100698" lon="13.471945"><ele>150.0</ele><time>2026-03-22T14:35:32.347Z</time></trkpt><trkpt lat="46.1099705" lon="13.4717546"><ele>150.0</ele><time>2026-03-22T14:35:33.357Z</time></trkpt><trkpt lat="46.1098725" lon="13.4715609"><ele>150.0</ele><time>2026-03-22T14:35:34.355Z</time></trkpt><trkpt lat="46.109778" lon="13.4713638"><ele>149.33333333333334</ele><time>2026-03-22T14:35:35.375Z</time></trkpt><trkpt lat="46.1096877" lon="13.4711615"><ele>148.66666666666669</ele><time>2026-03-22T14:35:36.348Z</time></trkpt><trkpt lat="46.1095925" lon="13.4709635"><ele>148.0</ele><time>2026-03-22T14:35:37.361Z</time></trkpt><trkpt lat="46.1094988" lon="13.4707602"><ele>148.0</ele><time>2026-03-22T14:35:38.345Z</time></trkpt><trkpt lat="46.109406" lon="13.4705518"><ele>148.0</ele><time>2026-03-22T14:35:39.351Z</time></trkpt><trkpt lat="46.1093216" lon="13.4703363"><ele>148.0</ele><time>2026-03-22T14:35:40.356Z</time></trkpt><trkpt lat="46.1092441" lon="13.4701149"><ele>148.0</ele><time>2026-03-22T14:35:41.362Z</time></trkpt><trkpt lat="46.1091699" lon="13.4698903"><ele>148.0</ele><time>2026-03-22T14:35:42.352Z</time></trkpt><trkpt lat="46.1090963" lon="13.4696646"><ele>148.0</ele><time>2026-03-22T14:35:43.379Z</time></trkpt><trkpt lat="46.1090252" lon="13.46944"><ele>147.33333333333334</ele><time>2026-03-22T14:35:44.348Z</time></trkpt><trkpt lat="46.1089555" lon="13.4692185"><ele>146.66666666666666</ele><time>2026-03-22T14:35:45.355Z</time></trkpt><trkpt lat="46.1088775" lon="13.4690036"><ele>146.0</ele><time>2026-03-22T14:35:46.36Z</time></trkpt><trkpt lat="46.1088125" lon="13.4687768"><ele>147.33333333333331</ele><time>2026-03-22T14:35:47.351Z</time></trkpt><trkpt lat="46.1087426" lon="13.46855"><ele>148.66666666666666</ele><time>2026-03-22T14:35:48.38Z</time></trkpt><trkpt lat="46.1086681" lon="13.4683212"><ele>150.0</ele><time>2026-03-22T14:35:49.354Z</time></trkpt><trkpt lat="46.1085912" lon="13.4680864"><ele>149.66666666666666</ele><time>2026-03-22T14:35:50.348Z</time></trkpt><trkpt lat="46.1085126" lon="13.467844"><ele>149.33333333333331</ele><time>2026-03-22T14:35:51.354Z</time></trkpt><trkpt lat="46.1084328" lon="13.4675968"><ele>149.0</ele><time>2026-03-22T14:35:52.373Z</time></trkpt><trkpt lat="46.1083535" lon="13.4673429"><ele>149.0</ele><time>2026-03-22T14:35:53.371Z</time></trkpt><trkpt lat="46.1082738" lon="13.4670831"><ele>149.0</ele><time>2026-03-22T14:35:54.371Z</time></trkpt><trkpt lat="46.1081922" lon="13.4668206"><ele>149.0</ele><time>2026-03-22T14:35:55.374Z</time></trkpt><trkpt lat="46.1081095" lon="13.4665566"><ele>148.66666666666666</ele><time>2026-03-22T14:35:56.365Z</time></trkpt><trkpt lat="46.1080276" lon="13.466289"><ele>148.33333333333334</ele><time>2026-03-22T14:35:57.36Z</time></trkpt><trkpt lat="46.1079502" lon="13.4660156"><ele>148.0</ele><time>2026-03-22T14:35:58.351Z</time></trkpt><trkpt lat="46.107876" lon="13.4657386"><ele>148.0</ele><time>2026-03-22T14:35:59.368Z</time></trkpt><trkpt lat="46.1078237" lon="13.4654532"><ele>148.0</ele><time>2026-03-22T14:36:00.358Z</time></trkpt><trkpt lat="46.1077828" lon="13.4651662"><ele>148.0</ele><time>2026-03-22T14:36:01.377Z</time></trkpt><trkpt lat="46.1077462" lon="13.4648805"><ele>147.33333333333334</ele><time>2026-03-22T14:36:02.37Z</time></trkpt><trkpt lat="46.1077146" lon="13.4645981"><ele>146.66666666666666</ele><time>2026-03-22T14:36:03.357Z</time></trkpt><trkpt lat="46.1077085" lon="13.4643218"><ele>146.0</ele><time>2026-03-22T14:36:04.349Z</time></trkpt><trkpt lat="46.1077081" lon="13.4640554"><ele>146.0</ele><time>2026-03-22T14:36:05.355Z</time></trkpt><trkpt lat="46.1077028" lon="13.4637919"><ele>146.0</ele><time>2026-03-22T14:36:06.346Z</time></trkpt><trkpt lat="46.1076913" lon="13.4635273"><ele>146.0</ele><time>2026-03-22T14:36:07.351Z</time></trkpt><trkpt lat="46.1076797" lon="13.4632648"><ele>146.0</ele><time>2026-03-22T14:36:08.347Z</time></trkpt><trkpt lat="46.1076564" lon="13.4630097"><ele>146.0</ele><time>2026-03-22T14:36:09.361Z</time></trkpt><trkpt lat="46.1076328" lon="13.4627603"><ele>146.0</ele><time>2026-03-22T14:36:10.357Z</time></trkpt><trkpt lat="46.107606" lon="13.4625182"><ele>146.33333333333331</ele><time>2026-03-22T14:36:11.359Z</time></trkpt><trkpt lat="46.1075752" lon="13.4622801"><ele>146.66666666666666</ele><time>2026-03-22T14:36:12.346Z</time></trkpt><trkpt lat="46.1075285" lon="13.4620493"><ele>147.0</ele><time>2026-03-22T14:36:13.344Z</time></trkpt><trkpt lat="46.1074621" lon="13.4618256"><ele>146.0</ele><time>2026-03-22T14:36:14.345Z</time></trkpt><trkpt lat="46.1073883" lon="13.4615935"><ele>145.0</ele><time>2026-03-22T14:36:15.352Z</time></trkpt><trkpt lat="46.1073056" lon="13.4613509"><ele>144.0</ele><time>2026-03-22T14:36:16.347Z</time></trkpt><trkpt lat="46.1072196" lon="13.4611015"><ele>144.0</ele><time>2026-03-22T14:36:17.349Z</time></trkpt><trkpt lat="46.1071314" lon="13.4608428"><ele>144.0</ele><time>2026-03-22T14:36:18.35Z</time></trkpt><trkpt lat="46.1070336" lon="13.4605714"><ele>144.0</ele><time>2026-03-22T14:36:19.352Z</time></trkpt><trkpt lat="46.1069284" lon="13.4602749"><ele>143.5</ele><time>2026-03-22T14:36:20.349Z</time></trkpt><trkpt lat="46.1068213" lon="13.4599571"><ele>143.0</ele><time>2026-03-22T14:36:21.366Z</time></trkpt><trkpt lat="46.1067207" lon="13.4596358"><ele>143.5</ele><time>2026-03-22T14:36:22.351Z</time></trkpt><trkpt lat="46.1066235" lon="13.4593229"><ele>144.0</ele><time>2026-03-22T14:36:23.375Z</time></trkpt><trkpt lat="46.1065385" lon="13.4590251"><ele>143.66666666666666</ele><time>2026-03-22T14:36:24.355Z</time></trkpt><trkpt lat="46.1064691" lon="13.4587345"><ele>143.33333333333331</ele><time>2026-03-22T14:36:25.354Z</time></trkpt><trkpt lat="46.1063961" lon="13.4584622"><ele>143.0</ele><time>2026-03-22T14:36:26.352Z</time></trkpt><trkpt lat="46.1063263" lon="13.4582116"><ele>143.0</ele><time>2026-03-22T14:36:27.35Z</time></trkpt><trkpt lat="46.1062608" lon="13.4579756"><ele>143.0</ele><time>2026-03-22T14:36:28.359Z</time></trkpt><trkpt lat="46.10619" lon="13.4577544"><ele>143.0</ele><time>2026-03-22T14:36:29.341Z</time></trkpt><trkpt lat="46.1061291" lon="13.4575408"><ele>143.66666666666666</ele><time>2026-03-22T14:36:30.338Z</time></trkpt><trkpt lat="46.1060441" lon="13.4573523"><ele>144.33333333333334</ele><time>2026-03-22T14:36:31.348Z</time></trkpt><trkpt lat="46.1059526" lon="13.4571717"><ele>145.0</ele><time>2026-03-22T14:36:32.347Z</time></trkpt><trkpt lat="46.1058784" lon="13.4569783"><ele>145.0</ele><time>2026-03-22T14:36:33.362Z</time></trkpt><trkpt lat="46.1058111" lon="13.45678"><ele>145.0</ele><time>2026-03-22T14:36:34.352Z</time></trkpt><trkpt lat="46.1057431" lon="13.4565813"><ele>145.0</ele><time>2026-03-22T14:36:35.359Z</time></trkpt><trkpt lat="46.105677" lon="13.4563814"><ele>145.0</ele><time>2026-03-22T14:36:36.355Z</time></trkpt><trkpt lat="46.1056072" lon="13.4561857"><ele>145.0</ele><time>2026-03-22T14:36:37.371Z</time></trkpt><trkpt lat="46.1055364" lon="13.4559931"><ele>145.0</ele><time>2026-03-22T14:36:38.373Z</time></trkpt><trkpt lat="46.1054626" lon="13.4558022"><ele>145.0</ele><time>2026-03-22T14:36:39.35Z</time></trkpt><trkpt lat="46.1053849" lon="13.4556131"><ele>145.0</ele><time>2026-03-22T14:36:40.339Z</time></trkpt><trkpt lat="46.1053129" lon="13.4554154"><ele>145.0</ele><time>2026-03-22T14:36:41.36Z</time></trkpt><trkpt lat="46.1052363" lon="13.4552162"><ele>144.66666666666669</ele><time>2026-03-22T14:36:42.345Z</time></trkpt><trkpt lat="46.1051862" lon="13.4550082"><ele>144.33333333333334</ele><time>2026-03-22T14:36:43.36Z</time></trkpt><trkpt lat="46.10514" lon="13.4547898"><ele>144.0</ele><time>2026-03-22T14:36:44.341Z</time></trkpt><trkpt lat="46.1050881" lon="13.4545727"><ele>143.66666666666666</ele><time>2026-03-22T14:36:45.35Z</time></trkpt><trkpt lat="46.1050546" lon="13.4543569"><ele>143.33333333333331</ele><time>2026-03-22T14:36:46.348Z</time></trkpt><trkpt lat="46.1050304" lon="13.4541432"><ele>143.0</ele><time>2026-03-22T14:36:47.353Z</time></trkpt><trkpt lat="46.1049987" lon="13.4539334"><ele>142.66666666666666</ele><time>2026-03-22T14:36:48.357Z</time></trkpt><trkpt lat="46.1049524" lon="13.4537245"><ele>142.33333333333334</ele><time>2026-03-22T14:36:49.357Z</time></trkpt><trkpt lat="46.1048894" lon="13.4535163"><ele>142.0</ele><time>2026-03-22T14:36:50.359Z</time></trkpt><trkpt lat="46.1048113" lon="13.4533113"><ele>141.66666666666669</ele><time>2026-03-22T14:36:51.345Z</time></trkpt><trkpt lat="46.104732" lon="13.4531013"><ele>141.33333333333334</ele><time>2026-03-22T14:36:52.348Z</time></trkpt><trkpt lat="46.1046505" lon="13.4528839"><ele>141.0</ele><time>2026-03-22T14:36:53.349Z</time></trkpt><trkpt lat="46.104565" lon="13.4526576"><ele>141.0</ele><time>2026-03-22T14:36:54.356Z</time></trkpt><trkpt lat="46.1044799" lon="13.4524273"><ele>141.0</ele><time>2026-03-22T14:36:55.355Z</time></trkpt><trkpt lat="46.1043969" lon="13.4522023"><ele>141.0</ele><time>2026-03-22T14:36:56.381Z</time></trkpt><trkpt lat="46.1043243" lon="13.4519787"><ele>140.33333333333334</ele><time>2026-03-22T14:36:57.342Z</time></trkpt><trkpt lat="46.1042311" lon="13.4517699"><ele>139.66666666666669</ele><time>2026-03-22T14:36:58.344Z</time></trkpt><trkpt lat="46.1041528" lon="13.4515593"><ele>139.0</ele><time>2026-03-22T14:36:59.348Z</time></trkpt><trkpt lat="46.1040378" lon="13.4513838"><ele>138.66666666666669</ele><time>2026-03-22T14:37:00.35Z</time></trkpt><trkpt lat="46.1039352" lon="13.4511988"><ele>138.33333333333334</ele><time>2026-03-22T14:37:01.365Z</time></trkpt><trkpt lat="46.1038373" lon="13.4510076"><ele>138.0</ele><time>2026-03-22T14:37:02.354Z</time></trkpt><trkpt lat="46.1037339" lon="13.4508146"><ele>138.0</ele><time>2026-03-22T14:37:03.381Z</time></trkpt><trkpt lat="46.1036272" lon="13.4506181"><ele>138.0</ele><time>2026-03-22T14:37:04.357Z</time></trkpt><trkpt lat="46.1035165" lon="13.4504198"><ele>138.0</ele><time>2026-03-22T14:37:05.35Z</time></trkpt><trkpt lat="46.1034055" lon="13.4502178"><ele>138.33333333333334</ele><time>2026-03-22T14:37:06.357Z</time></trkpt><trkpt lat="46.1032964" lon="13.4500086"><ele>138.66666666666669</ele><time>2026-03-22T14:37:07.363Z</time></trkpt><trkpt lat="46.1031967" lon="13.4497847"><ele>139.0</ele><time>2026-03-22T14:37:08.345Z</time></trkpt><trkpt lat="46.1030933" lon="13.4495622"><ele>139.0</ele><time>2026-03-22T14:37:09.349Z</time></trkpt><trkpt lat="46.1029848" lon="13.4493438"><ele>139.0</ele><time>2026-03-22T14:37:10.353Z</time></trkpt><trkpt lat="46.1028854" lon="13.4491141"><ele>139.0</ele><time>2026-03-22T14:37:11.356Z</time></trkpt><trkpt lat="46.1027839" lon="13.448886"><ele>139.0</ele><time>2026-03-22T14:37:12.344Z</time></trkpt><trkpt lat="46.1026784" lon="13.4486637"><ele>139.0</ele><time>2026-03-22T14:37:13.349Z</time></trkpt><trkpt lat="46.1025765" lon="13.44844"><ele>139.0</ele><time>2026-03-22T14:37:14.353Z</time></trkpt><trkpt lat="46.102476" lon="13.4482161"><ele>139.0</ele><time>2026-03-22T14:37:15.341Z</time></trkpt><trkpt lat="46.102376" lon="13.4479922"><ele>139.0</ele><time>2026-03-22T14:37:16.351Z</time></trkpt><trkpt lat="46.1022778" lon="13.4477674"><ele>139.0</ele><time>2026-03-22T14:37:17.375Z</time></trkpt><trkpt lat="46.1021813" lon="13.4475418"><ele>139.0</ele><time>2026-03-22T14:37:18.367Z</time></trkpt><trkpt lat="46.102086" lon="13.4473163"><ele>139.0</ele><time>2026-03-22T14:37:19.366Z</time></trkpt><trkpt lat="46.1019914" lon="13.4470916"><ele>139.0</ele><time>2026-03-22T14:37:20.372Z</time></trkpt><trkpt lat="46.1018966" lon="13.446871"><ele>139.0</ele><time>2026-03-22T14:37:21.358Z</time></trkpt><trkpt lat="46.1018075" lon="13.4466508"><ele>139.0</ele><time>2026-03-22T14:37:22.351Z</time></trkpt><trkpt lat="46.1017176" lon="13.446437"><ele>139.0</ele><time>2026-03-22T14:37:23.34Z</time></trkpt><trkpt lat="46.101628" lon="13.4462284"><ele>138.33333333333334</ele><time>2026-03-22T14:37:24.376Z</time></trkpt><trkpt lat="46.1015357" lon="13.4460246"><ele>137.66666666666666</ele><time>2026-03-22T14:37:25.376Z</time></trkpt><trkpt lat="46.1014392" lon="13.4458255"><ele>137.0</ele><time>2026-03-22T14:37:26.367Z</time></trkpt><trkpt lat="46.1013416" lon="13.4456292"><ele>137.33333333333331</ele><time>2026-03-22T14:37:27.361Z</time></trkpt><trkpt lat="46.1012442" lon="13.4454342"><ele>137.66666666666666</ele><time>2026-03-22T14:37:28.368Z</time></trkpt><trkpt lat="46.101148" lon="13.4452378"><ele>138.0</ele><time>2026-03-22T14:37:29.369Z</time></trkpt><trkpt lat="46.1010507" lon="13.4450408"><ele>138.0</ele><time>2026-03-22T14:37:30.376Z</time></trkpt><trkpt lat="46.1009541" lon="13.4448372"><ele>138.0</ele><time>2026-03-22T14:37:31.362Z</time></trkpt><trkpt lat="46.1008505" lon="13.4446308"><ele>138.0</ele><time>2026-03-22T14:37:32.364Z</time></trkpt><trkpt lat="46.1007416" lon="13.444419"><ele>137.66666666666666</ele><time>2026-03-22T14:37:33.362Z</time></trkpt><trkpt lat="46.1006412" lon="13.4441947"><ele>137.33333333333331</ele><time>2026-03-22T14:37:34.353Z</time></trkpt><trkpt lat="46.1005353" lon="13.4439745"><ele>137.0</ele><time>2026-03-22T14:37:35.381Z</time></trkpt><trkpt lat="46.1004294" lon="13.4437539"><ele>136.66666666666666</ele><time>2026-03-22T14:37:36.369Z</time></trkpt><trkpt lat="46.1003231" lon="13.4435348"><ele>136.33333333333334</ele><time>2026-03-22T14:37:37.366Z</time></trkpt><trkpt lat="46.1002222" lon="13.4433118"><ele>136.0</ele><time>2026-03-22T14:37:38.364Z</time></trkpt><trkpt lat="46.1001094" lon="13.4431049"><ele>136.33333333333334</ele><time>2026-03-22T14:37:39.367Z</time></trkpt><trkpt lat="46.1000008" lon="13.4428985"><ele>136.66666666666666</ele><time>2026-03-22T14:37:40.35Z</time></trkpt><trkpt lat="46.0999045" lon="13.4426867"><ele>137.0</ele><time>2026-03-22T14:37:41.38Z</time></trkpt><trkpt lat="46.0998081" lon="13.4424836"><ele>137.0</ele><time>2026-03-22T14:37:42.353Z</time></trkpt><trkpt lat="46.0997115" lon="13.4422897"><ele>137.0</ele><time>2026-03-22T14:37:43.355Z</time></trkpt><trkpt lat="46.0996194" lon="13.4420985"><ele>137.0</ele><time>2026-03-22T14:37:44.359Z</time></trkpt><trkpt lat="46.0995293" lon="13.4419125"><ele>137.25</ele><time>2026-03-22T14:37:45.359Z</time></trkpt><trkpt lat="46.0994422" lon="13.4417332"><ele>137.5</ele><time>2026-03-22T14:37:46.362Z</time></trkpt><trkpt lat="46.0993583" lon="13.4415618"><ele>137.75</ele><time>2026-03-22T14:37:47.385Z</time></trkpt><trkpt lat="46.0992764" lon="13.4413929"><ele>138.0</ele><time>2026-03-22T14:37:48.366Z</time></trkpt><trkpt lat="46.0991972" lon="13.4412161"><ele>138.33333333333334</ele><time>2026-03-22T14:37:49.375Z</time></trkpt><trkpt lat="46.0991178" lon="13.4410352"><ele>138.66666666666669</ele><time>2026-03-22T14:37:50.365Z</time></trkpt><trkpt lat="46.0990413" lon="13.4408479"><ele>139.0</ele><time>2026-03-22T14:37:51.39Z</time></trkpt><trkpt lat="46.0989682" lon="13.4406556"><ele>138.5</ele><time>2026-03-22T14:37:52.352Z</time></trkpt><trkpt lat="46.098897" lon="13.4404657"><ele>138.0</ele><time>2026-03-22T14:37:53.359Z</time></trkpt><trkpt lat="46.0988261" lon="13.4402808"><ele>137.5</ele><time>2026-03-22T14:37:54.378Z</time></trkpt><trkpt lat="46.0987544" lon="13.4401009"><ele>137.0</ele><time>2026-03-22T14:37:55.363Z</time></trkpt><trkpt lat="46.0986818" lon="13.4399227"><ele>137.0</ele><time>2026-03-22T14:37:56.35Z</time></trkpt><trkpt lat="46.0986083" lon="13.4397431"><ele>137.0</ele><time>2026-03-22T14:37:57.36Z</time></trkpt><trkpt lat="46.0985315" lon="13.4395615"><ele>137.0</ele><time>2026-03-22T14:37:58.351Z</time></trkpt><trkpt lat="46.0984529" lon="13.439383"><ele>137.0</ele><time>2026-03-22T14:37:59.351Z</time></trkpt><trkpt lat="46.0983774" lon="13.439207"><ele>137.0</ele><time>2026-03-22T14:38:00.363Z</time></trkpt><trkpt lat="46.0983031" lon="13.4390343"><ele>137.0</ele><time>2026-03-22T14:38:01.351Z</time></trkpt><trkpt lat="46.0982314" lon="13.4388626"><ele>137.0</ele><time>2026-03-22T14:38:02.363Z</time></trkpt><trkpt lat="46.0981598" lon="13.4386883"><ele>137.0</ele><time>2026-03-22T14:38:03.349Z</time></trkpt><trkpt lat="46.0980908" lon="13.4385054"><ele>136.66666666666666</ele><time>2026-03-22T14:38:04.352Z</time></trkpt><trkpt lat="46.0980266" lon="13.4383116"><ele>136.33333333333334</ele><time>2026-03-22T14:38:05.38Z</time></trkpt><trkpt lat="46.0979532" lon="13.4381211"><ele>136.0</ele><time>2026-03-22T14:38:06.372Z</time></trkpt><trkpt lat="46.0978715" lon="13.4379251"><ele>134.66666666666669</ele><time>2026-03-22T14:38:07.363Z</time></trkpt><trkpt lat="46.0977917" lon="13.4377191"><ele>133.33333333333334</ele><time>2026-03-22T14:38:08.356Z</time></trkpt><trkpt lat="46.0977283" lon="13.4375081"><ele>132.0</ele><time>2026-03-22T14:38:09.362Z</time></trkpt><trkpt lat="46.0976624" lon="13.4373039"><ele>131.66666666666666</ele><time>2026-03-22T14:38:10.35Z</time></trkpt><trkpt lat="46.0976188" lon="13.4370886"><ele>131.33333333333331</ele><time>2026-03-22T14:38:11.349Z</time></trkpt><trkpt lat="46.0975531" lon="13.4368906"><ele>131.0</ele><time>2026-03-22T14:38:12.356Z</time></trkpt><trkpt lat="46.0974865" lon="13.4366938"><ele>131.0</ele><time>2026-03-22T14:38:13.356Z</time></trkpt><trkpt lat="46.0974207" lon="13.4364964"><ele>131.0</ele><time>2026-03-22T14:38:14.365Z</time></trkpt><trkpt lat="46.0973611" lon="13.4362978"><ele>131.0</ele><time>2026-03-22T14:38:15.358Z</time></trkpt><trkpt lat="46.097303" lon="13.4361007"><ele>131.25</ele><time>2026-03-22T14:38:16.386Z</time></trkpt><trkpt lat="46.0972442" lon="13.4359046"><ele>131.5</ele><time>2026-03-22T14:38:17.36Z</time></trkpt><trkpt lat="46.09719" lon="13.4357077"><ele>131.75</ele><time>2026-03-22T14:38:18.366Z</time></trkpt><trkpt lat="46.0971397" lon="13.4355087"><ele>132.0</ele><time>2026-03-22T14:38:19.359Z</time></trkpt><trkpt lat="46.0970919" lon="13.4353017"><ele>131.33333333333334</ele><time>2026-03-22T14:38:20.352Z</time></trkpt><trkpt lat="46.0970417" lon="13.4350876"><ele>130.66666666666669</ele><time>2026-03-22T14:38:21.375Z</time></trkpt><trkpt lat="46.0969911" lon="13.434867"><ele>130.0</ele><time>2026-03-22T14:38:22.355Z</time></trkpt><trkpt lat="46.0969434" lon="13.4346421"><ele>130.33333333333334</ele><time>2026-03-22T14:38:23.367Z</time></trkpt><trkpt lat="46.096899" lon="13.4344148"><ele>130.66666666666666</ele><time>2026-03-22T14:38:24.374Z</time></trkpt><trkpt lat="46.0968536" lon="13.4341867"><ele>131.0</ele><time>2026-03-22T14:38:25.372Z</time></trkpt><trkpt lat="46.0968202" lon="13.4339553"><ele>130.66666666666666</ele><time>2026-03-22T14:38:26.359Z</time></trkpt><trkpt lat="46.0967862" lon="13.4337295"><ele>130.33333333333334</ele><time>2026-03-22T14:38:27.353Z</time></trkpt><trkpt lat="46.096756" lon="13.433507"><ele>130.0</ele><time>2026-03-22T14:38:28.376Z</time></trkpt><trkpt lat="46.0967253" lon="13.4332834"><ele>130.0</ele><time>2026-03-22T14:38:29.359Z</time></trkpt><trkpt lat="46.0966974" lon="13.4330589"><ele>130.0</ele><time>2026-03-22T14:38:30.361Z</time></trkpt><trkpt lat="46.0966656" lon="13.4328383"><ele>130.0</ele><time>2026-03-22T14:38:31.363Z</time></trkpt><trkpt lat="46.0966449" lon="13.4326258"><ele>130.25</ele><time>2026-03-22T14:38:32.369Z</time></trkpt><trkpt lat="46.096626" lon="13.4324181"><ele>130.5</ele><time>2026-03-22T14:38:33.365Z</time></trkpt><trkpt lat="46.0966089" lon="13.4322154"><ele>130.75</ele><time>2026-03-22T14:38:34.362Z</time></trkpt><trkpt lat="46.0965968" lon="13.4320146"><ele>131.0</ele><time>2026-03-22T14:38:35.362Z</time></trkpt><trkpt lat="46.0965819" lon="13.4318167"><ele>132.0</ele><time>2026-03-22T14:38:36.367Z</time></trkpt><trkpt lat="46.0965669" lon="13.4316173"><ele>133.0</ele><time>2026-03-22T14:38:37.391Z</time></trkpt><trkpt lat="46.0965475" lon="13.4314139"><ele>134.0</ele><time>2026-03-22T14:38:38.362Z</time></trkpt><trkpt lat="46.0965311" lon="13.4312039"><ele>135.0</ele><time>2026-03-22T14:38:39.371Z</time></trkpt><trkpt lat="46.0965148" lon="13.4309898"><ele>136.25</ele><time>2026-03-22T14:38:40.369Z</time></trkpt><trkpt lat="46.0964978" lon="13.430776"><ele>137.5</ele><time>2026-03-22T14:38:41.361Z</time></trkpt><trkpt lat="46.0964809" lon="13.4305663"><ele>138.75</ele><time>2026-03-22T14:38:42.346Z</time></trkpt><trkpt lat="46.0964599" lon="13.4303615"><ele>140.0</ele><time>2026-03-22T14:38:43.365Z</time></trkpt><trkpt lat="46.0964324" lon="13.4301636"><ele>140.0</ele><time>2026-03-22T14:38:44.352Z</time></trkpt><trkpt lat="46.0964027" lon="13.4299754"><ele>140.0</ele><time>2026-03-22T14:38:45.352Z</time></trkpt><trkpt lat="46.0963565" lon="13.4298052"><ele>140.0</ele><time>2026-03-22T14:38:46.342Z</time></trkpt><trkpt lat="46.09631" lon="13.4296414"><ele>140.0</ele><time>2026-03-22T14:38:47.355Z</time></trkpt><trkpt lat="46.0962605" lon="13.4294896"><ele>140.0</ele><time>2026-03-22T14:38:48.354Z</time></trkpt><trkpt lat="46.0962235" lon="13.429348"><ele>140.0</ele><time>2026-03-22T14:38:49.372Z</time></trkpt><trkpt lat="46.0961942" lon="13.4292154"><ele>140.0</ele><time>2026-03-22T14:38:50.376Z</time></trkpt><trkpt lat="46.0961766" lon="13.429089"><ele>140.0</ele><time>2026-03-22T14:38:51.361Z</time></trkpt><trkpt lat="46.0961472" lon="13.4289674"><ele>140.0</ele><time>2026-03-22T14:38:52.367Z</time></trkpt><trkpt lat="46.0961341" lon="13.428839"><ele>139.6</ele><time>2026-03-22T14:38:53.357Z</time></trkpt><trkpt lat="46.0961117" lon="13.4287059"><ele>139.2</ele><time>2026-03-22T14:38:54.354Z</time></trkpt><trkpt lat="46.0960825" lon="13.4285689"><ele>138.8</ele><time>2026-03-22T14:38:55.347Z</time></trkpt><trkpt lat="46.0960543" lon="13.4284245"><ele>138.4</ele><time>2026-03-22T14:38:56.358Z</time></trkpt><trkpt lat="46.0960174" lon="13.428276"><ele>138.0</ele><time>2026-03-22T14:38:57.363Z</time></trkpt><trkpt lat="46.095982" lon="13.4281261"><ele>137.4</ele><time>2026-03-22T14:38:58.358Z</time></trkpt><trkpt lat="46.0959564" lon="13.427971"><ele>136.8</ele><time>2026-03-22T14:38:59.361Z</time></trkpt><trkpt lat="46.095915" lon="13.4278283"><ele>136.2</ele><time>2026-03-22T14:39:00.372Z</time></trkpt><trkpt lat="46.09589" lon="13.4276925"><ele>135.6</ele><time>2026-03-22T14:39:01.358Z</time></trkpt><trkpt lat="46.0958904" lon="13.427564"><ele>135.0</ele><time>2026-03-22T14:39:02.348Z</time></trkpt><trkpt lat="46.0959191" lon="13.4274464"><ele>135.0</ele><time>2026-03-22T14:39:03.357Z</time></trkpt><trkpt lat="46.0959769" lon="13.4273438"><ele>135.0</ele><time>2026-03-22T14:39:04.357Z</time></trkpt><trkpt lat="46.0959935" lon="13.4272282"><ele>135.0</ele><time>2026-03-22T14:39:05.367Z</time></trkpt><trkpt lat="46.0959573" lon="13.4271019"><ele>135.0</ele><time>2026-03-22T14:39:06.369Z</time></trkpt><trkpt lat="46.095902" lon="13.4269663"><ele>135.0</ele><time>2026-03-22T14:39:07.35Z</time></trkpt><trkpt lat="46.0958532" lon="13.4267995"><ele>135.0</ele><time>2026-03-22T14:39:08.349Z</time></trkpt><trkpt lat="46.0958312" lon="13.426604"><ele>135.0</ele><time>2026-03-22T14:39:09.349Z</time></trkpt><trkpt lat="46.0958224" lon="13.4263975"><ele>135.0</ele><time>2026-03-22T14:39:10.366Z</time></trkpt><trkpt lat="46.0958022" lon="13.4262001"><ele>135.0</ele><time>2026-03-22T14:39:11.38Z</time></trkpt><trkpt lat="46.0957925" lon="13.4260175"><ele>135.0</ele><time>2026-03-22T14:39:12.346Z</time></trkpt><trkpt lat="46.0957877" lon="13.4258483"><ele>135.0</ele><time>2026-03-22T14:39:13.366Z</time></trkpt><trkpt lat="46.0957862" lon="13.4256875"><ele>135.0</ele><time>2026-03-22T14:39:14.348Z</time></trkpt><trkpt lat="46.0957843" lon="13.4255324"><ele>135.0</ele><time>2026-03-22T14:39:15.364Z</time></trkpt><trkpt lat="46.0957842" lon="13.4253828"><ele>135.0</ele><time>2026-03-22T14:39:16.361Z</time></trkpt><trkpt lat="46.0957873" lon="13.4252538"><ele>134.83333333333334</ele><time>2026-03-22T14:39:17.382Z</time></trkpt><trkpt lat="46.0958071" lon="13.4251229"><ele>134.66666666666666</ele><time>2026-03-22T14:39:19.35Z</time></trkpt><trkpt lat="46.0958139" lon="13.4250259"><ele>134.5</ele><time>2026-03-22T14:39:22.367Z</time></trkpt><trkpt lat="46.0958388" lon="13.4249239"><ele>134.33333333333331</ele><time>2026-03-22T14:39:24.356Z</time></trkpt><trkpt lat="46.0958834" lon="13.4247748"><ele>134.16666666666666</ele><time>2026-03-22T14:39:26.347Z</time></trkpt><trkpt lat="46.0959302" lon="13.4247049"><ele>134.0</ele><time>2026-03-22T14:39:27.357Z</time></trkpt><trkpt lat="46.0959689" lon="13.4246262"><ele>133.71428571428572</ele><time>2026-03-22T14:39:28.351Z</time></trkpt><trkpt lat="46.0959947" lon="13.4245238"><ele>133.42857142857142</ele><time>2026-03-22T14:39:29.361Z</time></trkpt><trkpt lat="46.0959847" lon="13.4244166"><ele>133.14285714285714</ele><time>2026-03-22T14:39:30.362Z</time></trkpt><trkpt lat="46.0959501" lon="13.4243278"><ele>132.85714285714286</ele><time>2026-03-22T14:39:31.374Z</time></trkpt><trkpt lat="46.0959085" lon="13.4242584"><ele>132.57142857142858</ele><time>2026-03-22T14:39:32.373Z</time></trkpt><trkpt lat="46.0958396" lon="13.4242414"><ele>132.28571428571428</ele><time>2026-03-22T14:39:33.353Z</time></trkpt><trkpt lat="46.0957639" lon="13.4242591"><ele>132.0</ele><time>2026-03-22T14:39:34.357Z</time></trkpt><trkpt lat="46.0956832" lon="13.4242925"><ele>132.0</ele><time>2026-03-22T14:39:35.371Z</time></trkpt><trkpt lat="46.0955892" lon="13.4243094"><ele>132.0</ele><time>2026-03-22T14:39:36.353Z</time></trkpt><trkpt lat="46.095491" lon="13.4243279"><ele>132.0</ele><time>2026-03-22T14:39:37.355Z</time></trkpt><trkpt lat="46.0953872" lon="13.4243444"><ele>132.0</ele><time>2026-03-22T14:39:38.356Z</time></trkpt><trkpt lat="46.0952827" lon="13.4243613"><ele>132.0</ele><time>2026-03-22T14:39:39.354Z</time></trkpt><trkpt lat="46.0951865" lon="13.4243743"><ele>132.0</ele><time>2026-03-22T14:39:40.367Z</time></trkpt><trkpt lat="46.0950994" lon="13.4243697"><ele>132.0</ele><time>2026-03-22T14:39:41.35Z</time></trkpt><trkpt lat="46.095017" lon="13.424344"><ele>132.0</ele><time>2026-03-22T14:39:42.36Z</time></trkpt><trkpt lat="46.0949503" lon="13.424285"><ele>132.0</ele><time>2026-03-22T14:39:43.37Z</time></trkpt><trkpt lat="46.0948968" lon="13.4241848"><ele>132.0</ele><time>2026-03-22T14:39:44.355Z</time></trkpt><trkpt lat="46.0948465" lon="13.4240659"><ele>132.0</ele><time>2026-03-22T14:39:45.351Z</time></trkpt><trkpt lat="46.0948087" lon="13.4239175"><ele>132.0</ele><time>2026-03-22T14:39:46.348Z</time></trkpt><trkpt lat="46.0947722" lon="13.4237531"><ele>132.0</ele><time>2026-03-22T14:39:47.365Z</time></trkpt><trkpt lat="46.0947385" lon="13.4235818"><ele>132.0</ele><time>2026-03-22T14:39:48.347Z</time></trkpt><trkpt lat="46.0946919" lon="13.4234151"><ele>132.0</ele><time>2026-03-22T14:39:49.354Z</time></trkpt><trkpt lat="46.0946435" lon="13.4232429"><ele>132.0</ele><time>2026-03-22T14:39:50.375Z</time></trkpt><trkpt lat="46.0945861" lon="13.423077"><ele>132.0</ele><time>2026-03-22T14:39:51.365Z</time></trkpt><trkpt lat="46.0945002" lon="13.4229244"><ele>132.0</ele><time>2026-03-22T14:39:52.364Z</time></trkpt><trkpt lat="46.0944241" lon="13.4227595"><ele>132.0</ele><time>2026-03-22T14:39:53.346Z</time></trkpt><trkpt lat="46.0943391" lon="13.4226053"><ele>132.0</ele><time>2026-03-22T14:39:54.349Z</time></trkpt><trkpt lat="46.0942461" lon="13.4224527"><ele>132.0</ele><time>2026-03-22T14:39:55.351Z</time></trkpt><trkpt lat="46.0941481" lon="13.4223064"><ele>132.0</ele><time>2026-03-22T14:39:56.348Z</time></trkpt><trkpt lat="46.0940505" lon="13.4221543"><ele>132.0</ele><time>2026-03-22T14:39:57.377Z</time></trkpt><trkpt lat="46.0939363" lon="13.422025"><ele>132.33333333333334</ele><time>2026-03-22T14:39:58.365Z</time></trkpt><trkpt lat="46.093812" lon="13.4218898"><ele>132.66666666666669</ele><time>2026-03-22T14:39:59.365Z</time></trkpt><trkpt lat="46.0936783" lon="13.4217495"><ele>133.0</ele><time>2026-03-22T14:40:00.358Z</time></trkpt><trkpt lat="46.0935419" lon="13.4216101"><ele>133.0</ele><time>2026-03-22T14:40:01.379Z</time></trkpt><trkpt lat="46.0934083" lon="13.4214765"><ele>133.0</ele><time>2026-03-22T14:40:02.352Z</time></trkpt><trkpt lat="46.0932758" lon="13.4213492"><ele>133.0</ele><time>2026-03-22T14:40:03.367Z</time></trkpt><trkpt lat="46.0931497" lon="13.4212211"><ele>133.33333333333334</ele><time>2026-03-22T14:40:04.365Z</time></trkpt><trkpt lat="46.0930266" lon="13.4210924"><ele>133.66666666666666</ele><time>2026-03-22T14:40:05.382Z</time></trkpt><trkpt lat="46.092905" lon="13.420961"><ele>134.0</ele><time>2026-03-22T14:40:06.351Z</time></trkpt><trkpt lat="46.0927729" lon="13.4208352"><ele>134.0</ele><time>2026-03-22T14:40:07.371Z</time></trkpt><trkpt lat="46.0926427" lon="13.4206986"><ele>134.0</ele><time>2026-03-22T14:40:08.372Z</time></trkpt><trkpt lat="46.0925129" lon="13.420567"><ele>134.0</ele><time>2026-03-22T14:40:09.361Z</time></trkpt><trkpt lat="46.0923879" lon="13.420436"><ele>132.75</ele><time>2026-03-22T14:40:10.352Z</time></trkpt><trkpt lat="46.0922661" lon="13.4203115"><ele>131.5</ele><time>2026-03-22T14:40:11.368Z</time></trkpt><trkpt lat="46.0921496" lon="13.420192"><ele>130.25</ele><time>2026-03-22T14:40:12.36Z</time></trkpt><trkpt lat="46.0920447" lon="13.4200787"><ele>129.0</ele><time>2026-03-22T14:40:13.363Z</time></trkpt><trkpt lat="46.0919604" lon="13.419977"><ele>128.99999999999997</ele><time>2026-03-22T14:40:14.357Z</time></trkpt><trkpt lat="46.0918947" lon="13.4198941"><ele>129.0</ele><time>2026-03-22T14:40:15.351Z</time></trkpt><trkpt lat="46.0918472" lon="13.4198136"><ele>129.0</ele><time>2026-03-22T14:40:16.347Z</time></trkpt><trkpt lat="46.091816" lon="13.4197268"><ele>129.0</ele><time>2026-03-22T14:40:17.358Z</time></trkpt><trkpt lat="46.0918011" lon="13.4196303"><ele>129.0</ele><time>2026-03-22T14:40:18.349Z</time></trkpt><trkpt lat="46.09178" lon="13.4195402"><ele>128.99999999999997</ele><time>2026-03-22T14:40:19.354Z</time></trkpt><trkpt lat="46.0917458" lon="13.4194573"><ele>129.0</ele><time>2026-03-22T14:40:20.352Z</time></trkpt><trkpt lat="46.0916903" lon="13.4193995"><ele>129.2</ele><time>2026-03-22T14:40:21.357Z</time></trkpt><trkpt lat="46.0916243" lon="13.4193921"><ele>129.4</ele><time>2026-03-22T14:40:22.358Z</time></trkpt><trkpt lat="46.0915501" lon="13.4194302"><ele>129.6</ele><time>2026-03-22T14:40:23.367Z</time></trkpt><trkpt lat="46.0914602" lon="13.4194585"><ele>129.8</ele><time>2026-03-22T14:40:24.351Z</time></trkpt><trkpt lat="46.091366" lon="13.4194281"><ele>130.0</ele><time>2026-03-22T14:40:25.349Z</time></trkpt><trkpt lat="46.0912745" lon="13.4193199"><ele>129.5</ele><time>2026-03-22T14:40:26.353Z</time></trkpt><trkpt lat="46.0911723" lon="13.4192045"><ele>129.0</ele><time>2026-03-22T14:40:27.348Z</time></trkpt><trkpt lat="46.0910596" lon="13.4191013"><ele>128.5</ele><time>2026-03-22T14:40:28.355Z</time></trkpt><trkpt lat="46.0909417" lon="13.4189992"><ele>128.0</ele><time>2026-03-22T14:40:29.361Z</time></trkpt><trkpt lat="46.0908236" lon="13.4189013"><ele>128.5</ele><time>2026-03-22T14:40:30.345Z</time></trkpt><trkpt lat="46.0907081" lon="13.4188061"><ele>129.0</ele><time>2026-03-22T14:40:31.352Z</time></trkpt><trkpt lat="46.0905957" lon="13.41871"><ele>129.5</ele><time>2026-03-22T14:40:32.347Z</time></trkpt><trkpt lat="46.0904826" lon="13.4186148"><ele>130.0</ele><time>2026-03-22T14:40:33.348Z</time></trkpt><trkpt lat="46.0903678" lon="13.4185164"><ele>130.0</ele><time>2026-03-22T14:40:34.348Z</time></trkpt><trkpt lat="46.0902502" lon="13.4184176"><ele>130.0</ele><time>2026-03-22T14:40:35.374Z</time></trkpt><trkpt lat="46.0901304" lon="13.4183208"><ele>130.0</ele><time>2026-03-22T14:40:36.343Z</time></trkpt><trkpt lat="46.0900072" lon="13.4182246"><ele>130.0</ele><time>2026-03-22T14:40:37.348Z</time></trkpt><trkpt lat="46.0898866" lon="13.4181195"><ele>129.5</ele><time>2026-03-22T14:40:38.354Z</time></trkpt><trkpt lat="46.089765" lon="13.4180109"><ele>129.0</ele><time>2026-03-22T14:40:39.344Z</time></trkpt><trkpt lat="46.0896411" lon="13.4179032"><ele>128.5</ele><time>2026-03-22T14:40:40.347Z</time></trkpt><trkpt lat="46.089516" lon="13.4177986"><ele>128.0</ele><time>2026-03-22T14:40:41.36Z</time></trkpt><trkpt lat="46.0893944" lon="13.4176962"><ele>128.0</ele><time>2026-03-22T14:40:42.348Z</time></trkpt><trkpt lat="46.0892743" lon="13.4175989"><ele>128.0</ele><time>2026-03-22T14:40:43.363Z</time></trkpt><trkpt lat="46.0891533" lon="13.4175071"><ele>128.0</ele><time>2026-03-22T14:40:44.365Z</time></trkpt><trkpt lat="46.089028" lon="13.4174238"><ele>128.0</ele><time>2026-03-22T14:40:45.358Z</time></trkpt><trkpt lat="46.0889052" lon="13.4173305"><ele>128.33333333333331</ele><time>2026-03-22T14:40:46.356Z</time></trkpt><trkpt lat="46.0887756" lon="13.4172461"><ele>128.66666666666666</ele><time>2026-03-22T14:40:47.377Z</time></trkpt><trkpt lat="46.0886391" lon="13.4171563"><ele>129.0</ele><time>2026-03-22T14:40:48.374Z</time></trkpt><trkpt lat="46.0884897" lon="13.4170693"><ele>129.33333333333334</ele><time>2026-03-22T14:40:49.37Z</time></trkpt><trkpt lat="46.0883258" lon="13.4169944"><ele>129.66666666666669</ele><time>2026-03-22T14:40:50.356Z</time></trkpt><trkpt lat="46.0881516" lon="13.4169311"><ele>130.0</ele><time>2026-03-22T14:40:51.36Z</time></trkpt><trkpt lat="46.087969" lon="13.4168763"><ele>129.0</ele><time>2026-03-22T14:40:52.35Z</time></trkpt><trkpt lat="46.0877827" lon="13.4168117"><ele>128.0</ele><time>2026-03-22T14:40:53.364Z</time></trkpt><trkpt lat="46.0875954" lon="13.4167459"><ele>127.0</ele><time>2026-03-22T14:40:54.36Z</time></trkpt><trkpt lat="46.0874096" lon="13.4166784"><ele>126.33333333333334</ele><time>2026-03-22T14:40:55.345Z</time></trkpt><trkpt lat="46.0872289" lon="13.4166124"><ele>125.66666666666666</ele><time>2026-03-22T14:40:56.354Z</time></trkpt><trkpt lat="46.0870566" lon="13.4165342"><ele>125.0</ele><time>2026-03-22T14:40:57.357Z</time></trkpt><trkpt lat="46.086889" lon="13.4164657"><ele>125.0</ele><time>2026-03-22T14:40:58.351Z</time></trkpt><trkpt lat="46.0867276" lon="13.4163927"><ele>125.0</ele><time>2026-03-22T14:40:59.37Z</time></trkpt><trkpt lat="46.0865706" lon="13.4163089"><ele>125.0</ele><time>2026-03-22T14:41:00.359Z</time></trkpt><trkpt lat="46.0864162" lon="13.416212"><ele>125.0</ele><time>2026-03-22T14:41:01.377Z</time></trkpt><trkpt lat="46.0862653" lon="13.4160969"><ele>125.0</ele><time>2026-03-22T14:41:02.356Z</time></trkpt><trkpt lat="46.0861211" lon="13.4159581"><ele>125.0</ele><time>2026-03-22T14:41:03.369Z</time></trkpt><trkpt lat="46.0859712" lon="13.4158252"><ele>125.0</ele><time>2026-03-22T14:41:04.368Z</time></trkpt><trkpt lat="46.0858215" lon="13.4156812"><ele>125.0</ele><time>2026-03-22T14:41:05.365Z</time></trkpt><trkpt lat="46.0856638" lon="13.415549"><ele>125.0</ele><time>2026-03-22T14:41:06.357Z</time></trkpt><trkpt lat="46.0855083" lon="13.4154064"><ele>124.0</ele><time>2026-03-22T14:41:07.358Z</time></trkpt><trkpt lat="46.0853483" lon="13.4152563"><ele>123.0</ele><time>2026-03-22T14:41:08.362Z</time></trkpt><trkpt lat="46.0851846" lon="13.4151024"><ele>122.0</ele><time>2026-03-22T14:41:09.351Z</time></trkpt><trkpt lat="46.0850183" lon="13.4149425"><ele>121.66666666666666</ele><time>2026-03-22T14:41:10.351Z</time></trkpt><trkpt lat="46.0848501" lon="13.4147699"><ele>121.33333333333334</ele><time>2026-03-22T14:41:11.363Z</time></trkpt><trkpt lat="46.0846779" lon="13.4145855"><ele>121.0</ele><time>2026-03-22T14:41:12.367Z</time></trkpt><trkpt lat="46.084502" lon="13.414391"><ele>121.0</ele><time>2026-03-22T14:41:13.375Z</time></trkpt><trkpt lat="46.0843221" lon="13.4141897"><ele>121.0</ele><time>2026-03-22T14:41:14.358Z</time></trkpt><trkpt lat="46.0841418" lon="13.4139926"><ele>121.0</ele><time>2026-03-22T14:41:15.359Z</time></trkpt><trkpt lat="46.0839684" lon="13.413802"><ele>121.0</ele><time>2026-03-22T14:41:16.352Z</time></trkpt><trkpt lat="46.0837974" lon="13.4136198"><ele>121.0</ele><time>2026-03-22T14:41:17.364Z</time></trkpt><trkpt lat="46.0836265" lon="13.4134438"><ele>121.0</ele><time>2026-03-22T14:41:18.352Z</time></trkpt><trkpt lat="46.0834591" lon="13.4132676"><ele>121.0</ele><time>2026-03-22T14:41:19.36Z</time></trkpt><trkpt lat="46.0832947" lon="13.413091"><ele>121.0</ele><time>2026-03-22T14:41:20.357Z</time></trkpt><trkpt lat="46.0831339" lon="13.412914"><ele>122.33333333333334</ele><time>2026-03-22T14:41:21.366Z</time></trkpt><trkpt lat="46.0829736" lon="13.4127408"><ele>123.66666666666666</ele><time>2026-03-22T14:41:22.36Z</time></trkpt><trkpt lat="46.0828225" lon="13.4125559"><ele>125.0</ele><time>2026-03-22T14:41:23.345Z</time></trkpt><trkpt lat="46.0826717" lon="13.4123759"><ele>125.0</ele><time>2026-03-22T14:41:24.346Z</time></trkpt><trkpt lat="46.0825224" lon="13.4122047"><ele>125.0</ele><time>2026-03-22T14:41:25.355Z</time></trkpt><trkpt lat="46.0823753" lon="13.4120435"><ele>125.0</ele><time>2026-03-22T14:41:26.369Z</time></trkpt><trkpt lat="46.0822348" lon="13.4118856"><ele>124.0</ele><time>2026-03-22T14:41:27.359Z</time></trkpt><trkpt lat="46.0820935" lon="13.4117348"><ele>123.0</ele><time>2026-03-22T14:41:28.352Z</time></trkpt><trkpt lat="46.0819565" lon="13.4115703"><ele>122.0</ele><time>2026-03-22T14:41:29.364Z</time></trkpt><trkpt lat="46.0818192" lon="13.4113953"><ele>122.0</ele><time>2026-03-22T14:41:30.374Z</time></trkpt><trkpt lat="46.0816934" lon="13.4111927"><ele>122.0</ele><time>2026-03-22T14:41:31.358Z</time></trkpt><trkpt lat="46.0815763" lon="13.4109649"><ele>122.0</ele><time>2026-03-22T14:41:32.362Z</time></trkpt><trkpt lat="46.08144" lon="13.410744"><ele>122.0</ele><time>2026-03-22T14:41:33.397Z</time></trkpt><trkpt lat="46.0813043" lon="13.4105043"><ele>122.0</ele><time>2026-03-22T14:41:34.344Z</time></trkpt><trkpt lat="46.0811569" lon="13.4102696"><ele>122.0</ele><time>2026-03-22T14:41:35.364Z</time></trkpt><trkpt lat="46.0810127" lon="13.4100081"><ele>121.5</ele><time>2026-03-22T14:41:36.351Z</time></trkpt><trkpt lat="46.0808635" lon="13.4097496"><ele>121.0</ele><time>2026-03-22T14:41:37.359Z</time></trkpt><trkpt lat="46.0807207" lon="13.4094893"><ele>121.33333333333334</ele><time>2026-03-22T14:41:38.348Z</time></trkpt><trkpt lat="46.0805833" lon="13.4092299"><ele>121.66666666666666</ele><time>2026-03-22T14:41:39.354Z</time></trkpt><trkpt lat="46.0804401" lon="13.4089898"><ele>122.0</ele><time>2026-03-22T14:41:40.363Z</time></trkpt><trkpt lat="46.0803097" lon="13.4087487"><ele>122.0</ele><time>2026-03-22T14:41:41.365Z</time></trkpt><trkpt lat="46.0801845" lon="13.4085082"><ele>122.0</ele><time>2026-03-22T14:41:42.357Z</time></trkpt><trkpt lat="46.0800643" lon="13.4082684"><ele>122.0</ele><time>2026-03-22T14:41:43.355Z</time></trkpt><trkpt lat="46.0799482" lon="13.4080283"><ele>121.66666666666666</ele><time>2026-03-22T14:41:44.351Z</time></trkpt><trkpt lat="46.0798315" lon="13.4077894"><ele>121.33333333333334</ele><time>2026-03-22T14:41:45.358Z</time></trkpt><trkpt lat="46.0797127" lon="13.4075513"><ele>121.0</ele><time>2026-03-22T14:41:46.387Z</time></trkpt><trkpt lat="46.079587" lon="13.4073161"><ele>121.33333333333334</ele><time>2026-03-22T14:41:47.368Z</time></trkpt><trkpt lat="46.0794586" lon="13.4070795"><ele>121.66666666666666</ele><time>2026-03-22T14:41:48.352Z</time></trkpt><trkpt lat="46.0793355" lon="13.4068353"><ele>122.0</ele><time>2026-03-22T14:41:49.365Z</time></trkpt><trkpt lat="46.0792001" lon="13.4065967"><ele>121.0</ele><time>2026-03-22T14:41:50.355Z</time></trkpt><trkpt lat="46.0790644" lon="13.4063462"><ele>120.0</ele><time>2026-03-22T14:41:51.357Z</time></trkpt><trkpt lat="46.078907" lon="13.4061099"><ele>119.0</ele><time>2026-03-22T14:41:52.353Z</time></trkpt><trkpt lat="46.0787433" lon="13.4058697"><ele>119.0</ele><time>2026-03-22T14:41:53.37Z</time></trkpt><trkpt lat="46.0785732" lon="13.4056287"><ele>119.0</ele><time>2026-03-22T14:41:54.371Z</time></trkpt><trkpt lat="46.078396" lon="13.405393"><ele>118.0</ele><time>2026-03-22T14:41:55.368Z</time></trkpt><trkpt lat="46.0782123" lon="13.4051653"><ele>117.0</ele><time>2026-03-22T14:41:56.349Z</time></trkpt><trkpt lat="46.078028" lon="13.4049438"><ele>117.0</ele><time>2026-03-22T14:41:57.366Z</time></trkpt><trkpt lat="46.0778367" lon="13.4047434"><ele>117.0</ele><time>2026-03-22T14:41:58.36Z</time></trkpt><trkpt lat="46.0776274" lon="13.4045841"><ele>117.0</ele><time>2026-03-22T14:41:59.366Z</time></trkpt><trkpt lat="46.0774088" lon="13.4044513"><ele>117.0</ele><time>2026-03-22T14:42:00.347Z</time></trkpt><trkpt lat="46.0771898" lon="13.4043234"><ele>117.0</ele><time>2026-03-22T14:42:01.348Z</time></trkpt><trkpt lat="46.0769724" lon="13.4041954"><ele>117.0</ele><time>2026-03-22T14:42:02.356Z</time></trkpt><trkpt lat="46.0767573" lon="13.4040682"><ele>116.5</ele><time>2026-03-22T14:42:03.356Z</time></trkpt><trkpt lat="46.0765436" lon="13.4039425"><ele>116.0</ele><time>2026-03-22T14:42:04.371Z</time></trkpt><trkpt lat="46.0763345" lon="13.4038095"><ele>116.33333333333333</ele><time>2026-03-22T14:42:05.369Z</time></trkpt><trkpt lat="46.0761304" lon="13.403673"><ele>116.66666666666666</ele><time>2026-03-22T14:42:06.364Z</time></trkpt><trkpt lat="46.0759366" lon="13.4035219"><ele>117.0</ele><time>2026-03-22T14:42:07.377Z</time></trkpt><trkpt lat="46.0757504" lon="13.4033596"><ele>117.0</ele><time>2026-03-22T14:42:08.36Z</time></trkpt><trkpt lat="46.0755645" lon="13.4031896"><ele>117.0</ele><time>2026-03-22T14:42:09.367Z</time></trkpt><trkpt lat="46.075389" lon="13.4029948"><ele>117.0</ele><time>2026-03-22T14:42:10.369Z</time></trkpt><trkpt lat="46.0752141" lon="13.4027941"><ele>117.0</ele><time>2026-03-22T14:42:11.367Z</time></trkpt><trkpt lat="46.0750328" lon="13.4026013"><ele>117.0</ele><time>2026-03-22T14:42:12.37Z</time></trkpt><trkpt lat="46.074852" lon="13.402404"><ele>117.0</ele><time>2026-03-22T14:42:13.353Z</time></trkpt><trkpt lat="46.0746586" lon="13.4022323"><ele>117.0</ele><time>2026-03-22T14:42:14.361Z</time></trkpt><trkpt lat="46.0744561" lon="13.4020796"><ele>117.0</ele><time>2026-03-22T14:42:15.361Z</time></trkpt><trkpt lat="46.0742441" lon="13.4019425"><ele>117.0</ele><time>2026-03-22T14:42:16.376Z</time></trkpt><trkpt lat="46.0740287" lon="13.4018115"><ele>117.0</ele><time>2026-03-22T14:42:17.376Z</time></trkpt><trkpt lat="46.0738132" lon="13.4016743"><ele>117.0</ele><time>2026-03-22T14:42:18.351Z</time></trkpt><trkpt lat="46.0735979" lon="13.4015307"><ele>117.0</ele><time>2026-03-22T14:42:19.37Z</time></trkpt><trkpt lat="46.0733821" lon="13.4013905"><ele>117.0</ele><time>2026-03-22T14:42:20.357Z</time></trkpt><trkpt lat="46.0731729" lon="13.4012343"><ele>115.5</ele><time>2026-03-22T14:42:21.379Z</time></trkpt><trkpt lat="46.0729643" lon="13.4010797"><ele>114.0</ele><time>2026-03-22T14:42:22.353Z</time></trkpt><trkpt lat="46.0727602" lon="13.4009158"><ele>114.0</ele><time>2026-03-22T14:42:23.366Z</time></trkpt><trkpt lat="46.0725546" lon="13.4007611"><ele>114.0</ele><time>2026-03-22T14:42:24.365Z</time></trkpt><trkpt lat="46.0723501" lon="13.4006067"><ele>114.0</ele><time>2026-03-22T14:42:25.372Z</time></trkpt><trkpt lat="46.0721468" lon="13.4004478"><ele>114.0</ele><time>2026-03-22T14:42:26.361Z</time></trkpt><trkpt lat="46.0719449" lon="13.400288"><ele>114.0</ele><time>2026-03-22T14:42:27.394Z</time></trkpt><trkpt lat="46.0717429" lon="13.4001277"><ele>114.0</ele><time>2026-03-22T14:42:28.357Z</time></trkpt><trkpt lat="46.0715432" lon="13.3999731"><ele>114.0</ele><time>2026-03-22T14:42:29.385Z</time></trkpt><trkpt lat="46.0713483" lon="13.3998227"><ele>114.0</ele><time>2026-03-22T14:42:30.37Z</time></trkpt><trkpt lat="46.0711593" lon="13.3996774"><ele>114.0</ele><time>2026-03-22T14:42:31.378Z</time></trkpt><trkpt lat="46.0709753" lon="13.399534"><ele>114.33333333333334</ele><time>2026-03-22T14:42:32.369Z</time></trkpt><trkpt lat="46.0707959" lon="13.3993987"><ele>114.66666666666667</ele><time>2026-03-22T14:42:33.355Z</time></trkpt><trkpt lat="46.0706204" lon="13.399268"><ele>115.0</ele><time>2026-03-22T14:42:34.38Z</time></trkpt><trkpt lat="46.0704515" lon="13.399135"><ele>115.0</ele><time>2026-03-22T14:42:35.367Z</time></trkpt><trkpt lat="46.0702858" lon="13.3990158"><ele>115.0</ele><time>2026-03-22T14:42:36.365Z</time></trkpt><trkpt lat="46.070121" lon="13.3989004"><ele>115.0</ele><time>2026-03-22T14:42:37.367Z</time></trkpt><trkpt lat="46.0699501" lon="13.3988069"><ele>115.0</ele><time>2026-03-22T14:42:38.374Z</time></trkpt><trkpt lat="46.0697773" lon="13.3987243"><ele>115.0</ele><time>2026-03-22T14:42:39.367Z</time></trkpt><trkpt lat="46.0696035" lon="13.3986539"><ele>115.0</ele><time>2026-03-22T14:42:40.38Z</time></trkpt><trkpt lat="46.069433" lon="13.3985701"><ele>115.0</ele><time>2026-03-22T14:42:41.353Z</time></trkpt><trkpt lat="46.069261" lon="13.3984887"><ele>115.0</ele><time>2026-03-22T14:42:42.354Z</time></trkpt><trkpt lat="46.06909" lon="13.3983926"><ele>115.0</ele><time>2026-03-22T14:42:43.383Z</time></trkpt><trkpt lat="46.0689227" lon="13.3982773"><ele>115.0</ele><time>2026-03-22T14:42:44.347Z</time></trkpt><trkpt lat="46.0687458" lon="13.3982032"><ele>115.0</ele><time>2026-03-22T14:42:45.366Z</time></trkpt><trkpt lat="46.0685628" lon="13.3981465"><ele>115.0</ele><time>2026-03-22T14:42:46.364Z</time></trkpt><trkpt lat="46.0683767" lon="13.3980941"><ele>115.33333333333334</ele><time>2026-03-22T14:42:47.379Z</time></trkpt><trkpt lat="46.0681882" lon="13.3980402"><ele>115.66666666666666</ele><time>2026-03-22T14:42:48.351Z</time></trkpt><trkpt lat="46.0679972" lon="13.3979925"><ele>116.0</ele><time>2026-03-22T14:42:49.357Z</time></trkpt><trkpt lat="46.0678063" lon="13.3979341"><ele>116.0</ele><time>2026-03-22T14:42:50.355Z</time></trkpt><trkpt lat="46.0676171" lon="13.3978813"><ele>116.0</ele><time>2026-03-22T14:42:51.365Z</time></trkpt><trkpt lat="46.0674353" lon="13.3978233"><ele>116.0</ele><time>2026-03-22T14:42:52.358Z</time></trkpt><trkpt lat="46.0672606" lon="13.397765"><ele>115.0</ele><time>2026-03-22T14:42:53.356Z</time></trkpt><trkpt lat="46.0670921" lon="13.3977052"><ele>114.0</ele><time>2026-03-22T14:42:54.38Z</time></trkpt><trkpt lat="46.0669257" lon="13.3976587"><ele>113.0</ele><time>2026-03-22T14:42:55.372Z</time></trkpt><trkpt lat="46.0667642" lon="13.3976111"><ele>113.0</ele><time>2026-03-22T14:42:56.354Z</time></trkpt><trkpt lat="46.0666072" lon="13.3975594"><ele>113.0</ele><time>2026-03-22T14:42:57.364Z</time></trkpt><trkpt lat="46.0664526" lon="13.3975187"><ele>113.0</ele><time>2026-03-22T14:42:58.366Z</time></trkpt><trkpt lat="46.0663016" lon="13.397478"><ele>113.0</ele><time>2026-03-22T14:42:59.372Z</time></trkpt><trkpt lat="46.0661534" lon="13.3974306"><ele>113.0</ele><time>2026-03-22T14:43:00.382Z</time></trkpt><trkpt lat="46.0660093" lon="13.3973748"><ele>113.0</ele><time>2026-03-22T14:43:01.359Z</time></trkpt><trkpt lat="46.0658658" lon="13.3973177"><ele>113.0</ele><time>2026-03-22T14:43:02.352Z</time></trkpt><trkpt lat="46.0657224" lon="13.3972669"><ele>113.0</ele><time>2026-03-22T14:43:03.388Z</time></trkpt><trkpt lat="46.0655783" lon="13.3972174"><ele>113.0</ele><time>2026-03-22T14:43:04.369Z</time></trkpt><trkpt lat="46.0654293" lon="13.3971681"><ele>113.0</ele><time>2026-03-22T14:43:05.367Z</time></trkpt><trkpt lat="46.0652749" lon="13.397118"><ele>113.0</ele><time>2026-03-22T14:43:06.365Z</time></trkpt><trkpt lat="46.0651165" lon="13.3970696"><ele>113.0</ele><time>2026-03-22T14:43:07.378Z</time></trkpt><trkpt lat="46.0649567" lon="13.3970225"><ele>113.0</ele><time>2026-03-22T14:43:08.358Z</time></trkpt><trkpt lat="46.0647976" lon="13.3969577"><ele>113.0</ele><time>2026-03-22T14:43:09.399Z</time></trkpt><trkpt lat="46.0646383" lon="13.396902"><ele>113.0</ele><time>2026-03-22T14:43:10.358Z</time></trkpt><trkpt lat="46.064481" lon="13.3968346"><ele>113.0</ele><time>2026-03-22T14:43:11.364Z</time></trkpt><trkpt lat="46.0643195" lon="13.3967677"><ele>113.0</ele><time>2026-03-22T14:43:12.351Z</time></trkpt><trkpt lat="46.0641513" lon="13.3967067"><ele>113.0</ele><time>2026-03-22T14:43:13.362Z</time></trkpt><trkpt lat="46.0639765" lon="13.3966308"><ele>113.0</ele><time>2026-03-22T14:43:14.391Z</time></trkpt><trkpt lat="46.0638033" lon="13.3965468"><ele>113.33333333333333</ele><time>2026-03-22T14:43:15.372Z</time></trkpt><trkpt lat="46.0636269" lon="13.3964616"><ele>113.66666666666666</ele><time>2026-03-22T14:43:16.375Z</time></trkpt><trkpt lat="46.0634466" lon="13.396356"><ele>114.0</ele><time>2026-03-22T14:43:17.373Z</time></trkpt><trkpt lat="46.0632693" lon="13.3962474"><ele>113.33333333333334</ele><time>2026-03-22T14:43:18.359Z</time></trkpt><trkpt lat="46.0630884" lon="13.3961427"><ele>112.66666666666667</ele><time>2026-03-22T14:43:19.373Z</time></trkpt><trkpt lat="46.0629048" lon="13.3960419"><ele>112.0</ele><time>2026-03-22T14:43:20.369Z</time></trkpt><trkpt lat="46.0627221" lon="13.3959411"><ele>112.0</ele><time>2026-03-22T14:43:21.384Z</time></trkpt><trkpt lat="46.0625378" lon="13.3958424"><ele>112.0</ele><time>2026-03-22T14:43:22.367Z</time></trkpt><trkpt lat="46.0623546" lon="13.3957364"><ele>112.0</ele><time>2026-03-22T14:43:23.369Z</time></trkpt><trkpt lat="46.0621696" lon="13.395634"><ele>112.33333333333334</ele><time>2026-03-22T14:43:24.351Z</time></trkpt><trkpt lat="46.0619888" lon="13.3955264"><ele>112.66666666666666</ele><time>2026-03-22T14:43:25.359Z</time></trkpt><trkpt lat="46.061811" lon="13.395427"><ele>113.0</ele><time>2026-03-22T14:43:26.355Z</time></trkpt><trkpt lat="46.0616416" lon="13.3953245"><ele>112.66666666666666</ele><time>2026-03-22T14:43:27.374Z</time></trkpt><trkpt lat="46.0614766" lon="13.3952269"><ele>112.33333333333334</ele><time>2026-03-22T14:43:28.355Z</time></trkpt><trkpt lat="46.061314" lon="13.395135"><ele>112.0</ele><time>2026-03-22T14:43:29.362Z</time></trkpt><trkpt lat="46.0611547" lon="13.3950397"><ele>112.0</ele><time>2026-03-22T14:43:30.355Z</time></trkpt><trkpt lat="46.0609942" lon="13.3949433"><ele>112.0</ele><time>2026-03-22T14:43:31.385Z</time></trkpt><trkpt lat="46.0608338" lon="13.3948504"><ele>112.0</ele><time>2026-03-22T14:43:32.376Z</time></trkpt><trkpt lat="46.0606752" lon="13.3947618"><ele>111.66666666666667</ele><time>2026-03-22T14:43:33.372Z</time></trkpt><trkpt lat="46.0605187" lon="13.3946845"><ele>111.33333333333334</ele><time>2026-03-22T14:43:34.385Z</time></trkpt><trkpt lat="46.0603665" lon="13.3945975"><ele>111.0</ele><time>2026-03-22T14:43:35.367Z</time></trkpt><trkpt lat="46.0602122" lon="13.3945367"><ele>111.0</ele><time>2026-03-22T14:43:36.358Z</time></trkpt><trkpt lat="46.0600688" lon="13.3944694"><ele>111.0</ele><time>2026-03-22T14:43:37.36Z</time></trkpt><trkpt lat="46.0599317" lon="13.3944152"><ele>111.0</ele><time>2026-03-22T14:43:38.361Z</time></trkpt><trkpt lat="46.0598008" lon="13.3943777"><ele>111.0</ele><time>2026-03-22T14:43:39.368Z</time></trkpt><trkpt lat="46.0596694" lon="13.3943604"><ele>111.25</ele><time>2026-03-22T14:43:40.374Z</time></trkpt><trkpt lat="46.0595335" lon="13.3943511"><ele>111.5</ele><time>2026-03-22T14:43:41.389Z</time></trkpt><trkpt lat="46.0593928" lon="13.3943373"><ele>111.75</ele><time>2026-03-22T14:43:42.355Z</time></trkpt><trkpt lat="46.0592474" lon="13.3943194"><ele>112.0</ele><time>2026-03-22T14:43:43.36Z</time></trkpt><trkpt lat="46.0590976" lon="13.3943047"><ele>111.33333333333334</ele><time>2026-03-22T14:43:44.369Z</time></trkpt><trkpt lat="46.0589388" lon="13.3942915"><ele>110.66666666666666</ele><time>2026-03-22T14:43:45.383Z</time></trkpt><trkpt lat="46.058768" lon="13.3942761"><ele>110.0</ele><time>2026-03-22T14:43:46.364Z</time></trkpt><trkpt lat="46.0586003" lon="13.3942611"><ele>110.0</ele><time>2026-03-22T14:43:47.362Z</time></trkpt><trkpt lat="46.0584414" lon="13.3942452"><ele>110.0</ele><time>2026-03-22T14:43:48.353Z</time></trkpt><trkpt lat="46.058293" lon="13.3942341"><ele>110.0</ele><time>2026-03-22T14:43:49.362Z</time></trkpt><trkpt lat="46.0581561" lon="13.3941719"><ele>110.25</ele><time>2026-03-22T14:43:50.355Z</time></trkpt><trkpt lat="46.0580237" lon="13.3941492"><ele>110.5</ele><time>2026-03-22T14:43:51.368Z</time></trkpt><trkpt lat="46.0579009" lon="13.3941724"><ele>110.75</ele><time>2026-03-22T14:43:52.352Z</time></trkpt><trkpt lat="46.0577868" lon="13.3941915"><ele>111.0</ele><time>2026-03-22T14:43:53.356Z</time></trkpt><trkpt lat="46.0576758" lon="13.3942164"><ele>111.0</ele><time>2026-03-22T14:43:54.358Z</time></trkpt><trkpt lat="46.0575747" lon="13.3942197"><ele>111.0</ele><time>2026-03-22T14:43:55.365Z</time></trkpt><trkpt lat="46.0574883" lon="13.3941948"><ele>111.0</ele><time>2026-03-22T14:43:56.351Z</time></trkpt><trkpt lat="46.0574112" lon="13.3941734"><ele>111.0</ele><time>2026-03-22T14:43:57.355Z</time></trkpt><trkpt lat="46.0573269" lon="13.3941905"><ele>111.0</ele><time>2026-03-22T14:43:58.344Z</time></trkpt><trkpt lat="46.0572262" lon="13.3942218"><ele>111.5</ele><time>2026-03-22T14:43:59.367Z</time></trkpt><trkpt lat="46.0571173" lon="13.3942451"><ele>112.0</ele><time>2026-03-22T14:44:00.348Z</time></trkpt><trkpt lat="46.0569999" lon="13.3942696"><ele>112.5</ele><time>2026-03-22T14:44:01.35Z</time></trkpt><trkpt lat="46.056877" lon="13.3942872"><ele>113.0</ele><time>2026-03-22T14:44:02.358Z</time></trkpt><trkpt lat="46.0567552" lon="13.3942953"><ele>113.0</ele><time>2026-03-22T14:44:03.358Z</time></trkpt><trkpt lat="46.0566354" lon="13.3942919"><ele>113.0</ele><time>2026-03-22T14:44:04.352Z</time></trkpt><trkpt lat="46.0565158" lon="13.3942838"><ele>113.0</ele><time>2026-03-22T14:44:05.365Z</time></trkpt><trkpt lat="46.0563914" lon="13.3942494"><ele>113.0</ele><time>2026-03-22T14:44:06.349Z</time></trkpt><trkpt lat="46.0562639" lon="13.3941818"><ele>112.25</ele><time>2026-03-22T14:44:07.357Z</time></trkpt><trkpt lat="46.0561331" lon="13.3941153"><ele>111.5</ele><time>2026-03-22T14:44:08.355Z</time></trkpt><trkpt lat="46.056005" lon="13.3940348"><ele>110.75</ele><time>2026-03-22T14:44:09.356Z</time></trkpt><trkpt lat="46.0558713" lon="13.3939638"><ele>110.0</ele><time>2026-03-22T14:44:10.346Z</time></trkpt><trkpt lat="46.0557223" lon="13.3939136"><ele>110.0</ele><time>2026-03-22T14:44:11.367Z</time></trkpt><trkpt lat="46.0555669" lon="13.3938974"><ele>110.0</ele><time>2026-03-22T14:44:12.355Z</time></trkpt><trkpt lat="46.0554112" lon="13.3938909"><ele>110.0</ele><time>2026-03-22T14:44:13.366Z</time></trkpt><trkpt lat="46.0552562" lon="13.3939163"><ele>110.0</ele><time>2026-03-22T14:44:14.358Z</time></trkpt><trkpt lat="46.0551064" lon="13.3939229"><ele>110.0</ele><time>2026-03-22T14:44:15.365Z</time></trkpt><trkpt lat="46.054965" lon="13.39388"><ele>110.0</ele><time>2026-03-22T14:44:16.362Z</time></trkpt><trkpt lat="46.0548264" lon="13.3938389"><ele>110.0</ele><time>2026-03-22T14:44:17.372Z</time></trkpt><trkpt lat="46.0546915" lon="13.3937938"><ele>110.0</ele><time>2026-03-22T14:44:18.351Z</time></trkpt><trkpt lat="46.0545567" lon="13.3937392"><ele>110.0</ele><time>2026-03-22T14:44:19.358Z</time></trkpt><trkpt lat="46.0544219" lon="13.3936813"><ele>110.0</ele><time>2026-03-22T14:44:20.363Z</time></trkpt><trkpt lat="46.0542857" lon="13.3936248"><ele>110.0</ele><time>2026-03-22T14:44:21.352Z</time></trkpt><trkpt lat="46.054147" lon="13.3935666"><ele>110.0</ele><time>2026-03-22T14:44:22.352Z</time></trkpt><trkpt lat="46.0540074" lon="13.3935029"><ele>110.0</ele><time>2026-03-22T14:44:23.358Z</time></trkpt><trkpt lat="46.0538667" lon="13.3934416"><ele>110.0</ele><time>2026-03-22T14:44:24.353Z</time></trkpt><trkpt lat="46.0537274" lon="13.3933779"><ele>110.0</ele><time>2026-03-22T14:44:25.364Z</time></trkpt><trkpt lat="46.0535876" lon="13.3933174"><ele>110.0</ele><time>2026-03-22T14:44:26.359Z</time></trkpt><trkpt lat="46.0534491" lon="13.3932538"><ele>110.0</ele><time>2026-03-22T14:44:27.355Z</time></trkpt><trkpt lat="46.05331" lon="13.3931955"><ele>110.0</ele><time>2026-03-22T14:44:28.354Z</time></trkpt><trkpt lat="46.0531691" lon="13.3931437"><ele>110.0</ele><time>2026-03-22T14:44:29.39Z</time></trkpt><trkpt lat="46.0530247" lon="13.3930887"><ele>109.66666666666666</ele><time>2026-03-22T14:44:30.362Z</time></trkpt><trkpt lat="46.052876" lon="13.3930326"><ele>109.33333333333334</ele><time>2026-03-22T14:44:31.391Z</time></trkpt><trkpt lat="46.0527227" lon="13.3929745"><ele>109.0</ele><time>2026-03-22T14:44:32.381Z</time></trkpt><trkpt lat="46.0525645" lon="13.3928982"><ele>108.66666666666667</ele><time>2026-03-22T14:44:33.369Z</time></trkpt><trkpt lat="46.0523965" lon="13.3928301"><ele>108.33333333333334</ele><time>2026-03-22T14:44:34.372Z</time></trkpt><trkpt lat="46.0522276" lon="13.3927384"><ele>108.0</ele><time>2026-03-22T14:44:35.363Z</time></trkpt><trkpt lat="46.0520526" lon="13.3926648"><ele>108.0</ele><time>2026-03-22T14:44:36.355Z</time></trkpt><trkpt lat="46.0518813" lon="13.3925876"><ele>108.0</ele><time>2026-03-22T14:44:37.353Z</time></trkpt><trkpt lat="46.051712" lon="13.3925096"><ele>108.0</ele><time>2026-03-22T14:44:38.361Z</time></trkpt><trkpt lat="46.0515487" lon="13.3924182"><ele>107.66666666666666</ele><time>2026-03-22T14:44:39.354Z</time></trkpt><trkpt lat="46.051386" lon="13.3923337"><ele>107.33333333333333</ele><time>2026-03-22T14:44:40.366Z</time></trkpt><trkpt lat="46.0512271" lon="13.3922516"><ele>107.0</ele><time>2026-03-22T14:44:41.372Z</time></trkpt><trkpt lat="46.0510744" lon="13.3921641"><ele>107.0</ele><time>2026-03-22T14:44:42.365Z</time></trkpt><trkpt lat="46.0509248" lon="13.3920854"><ele>107.0</ele><time>2026-03-22T14:44:43.372Z</time></trkpt><trkpt lat="46.0507802" lon="13.3920058"><ele>107.0</ele><time>2026-03-22T14:44:44.347Z</time></trkpt><trkpt lat="46.0506377" lon="13.3919325"><ele>106.66666666666666</ele><time>2026-03-22T14:44:45.367Z</time></trkpt><trkpt lat="46.0504961" lon="13.3918606"><ele>106.33333333333334</ele><time>2026-03-22T14:44:46.346Z</time></trkpt><trkpt lat="46.0503528" lon="13.3917867"><ele>106.0</ele><time>2026-03-22T14:44:47.362Z</time></trkpt><trkpt lat="46.0502079" lon="13.3917038"><ele>106.0</ele><time>2026-03-22T14:44:48.355Z</time></trkpt><trkpt lat="46.0500607" lon="13.3916149"><ele>106.0</ele><time>2026-03-22T14:44:49.352Z</time></trkpt><trkpt lat="46.0499105" lon="13.3915317"><ele>106.0</ele><time>2026-03-22T14:44:50.351Z</time></trkpt><trkpt lat="46.0497601" lon="13.3914379"><ele>106.0</ele><time>2026-03-22T14:44:51.377Z</time></trkpt><trkpt lat="46.0496097" lon="13.3913418"><ele>106.0</ele><time>2026-03-22T14:44:52.358Z</time></trkpt><trkpt lat="46.0494592" lon="13.3912413"><ele>106.0</ele><time>2026-03-22T14:44:53.349Z</time></trkpt><trkpt lat="46.0493074" lon="13.3911405"><ele>106.0</ele><time>2026-03-22T14:44:54.361Z</time></trkpt><trkpt lat="46.0491587" lon="13.3910185"><ele>106.0</ele><time>2026-03-22T14:44:55.354Z</time></trkpt><trkpt lat="46.049009" lon="13.3908968"><ele>106.0</ele><time>2026-03-22T14:44:56.353Z</time></trkpt><trkpt lat="46.0488642" lon="13.3907723"><ele>106.0</ele><time>2026-03-22T14:44:57.362Z</time></trkpt><trkpt lat="46.0487203" lon="13.3906503"><ele>106.0</ele><time>2026-03-22T14:44:58.367Z</time></trkpt><trkpt lat="46.0485726" lon="13.3905401"><ele>106.0</ele><time>2026-03-22T14:44:59.348Z</time></trkpt><trkpt lat="46.0484281" lon="13.3904227"><ele>106.0</ele><time>2026-03-22T14:45:00.359Z</time></trkpt><trkpt lat="46.0482846" lon="13.3903026"><ele>106.0</ele><time>2026-03-22T14:45:01.347Z</time></trkpt><trkpt lat="46.0481394" lon="13.3901766"><ele>106.0</ele><time>2026-03-22T14:45:02.369Z</time></trkpt><trkpt lat="46.0479922" lon="13.3900409"><ele>106.0</ele><time>2026-03-22T14:45:03.375Z</time></trkpt><trkpt lat="46.0478411" lon="13.3899111"><ele>106.0</ele><time>2026-03-22T14:45:04.371Z</time></trkpt><trkpt lat="46.0476936" lon="13.389765"><ele>106.0</ele><time>2026-03-22T14:45:05.358Z</time></trkpt><trkpt lat="46.0475415" lon="13.3896355"><ele>105.33333333333334</ele><time>2026-03-22T14:45:06.35Z</time></trkpt><trkpt lat="46.047381" lon="13.389537"><ele>104.66666666666666</ele><time>2026-03-22T14:45:07.376Z</time></trkpt><trkpt lat="46.0472296" lon="13.3894226"><ele>104.0</ele><time>2026-03-22T14:45:08.353Z</time></trkpt><trkpt lat="46.0470836" lon="13.3893031"><ele>104.0</ele><time>2026-03-22T14:45:09.365Z</time></trkpt><trkpt lat="46.0469379" lon="13.3891864"><ele>104.0</ele><time>2026-03-22T14:45:10.349Z</time></trkpt><trkpt lat="46.0467926" lon="13.3890675"><ele>104.0</ele><time>2026-03-22T14:45:11.361Z</time></trkpt><trkpt lat="46.0466461" lon="13.3889472"><ele>104.0</ele><time>2026-03-22T14:45:12.361Z</time></trkpt><trkpt lat="46.046501" lon="13.3888183"><ele>104.0</ele><time>2026-03-22T14:45:13.36Z</time></trkpt><trkpt lat="46.0463486" lon="13.3887013"><ele>104.0</ele><time>2026-03-22T14:45:14.356Z</time></trkpt><trkpt lat="46.0461957" lon="13.3885777"><ele>104.0</ele><time>2026-03-22T14:45:15.36Z</time></trkpt><trkpt lat="46.0460428" lon="13.3884495"><ele>104.0</ele><time>2026-03-22T14:45:16.374Z</time></trkpt><trkpt lat="46.0458906" lon="13.3883148"><ele>104.0</ele><time>2026-03-22T14:45:17.352Z</time></trkpt><trkpt lat="46.0457335" lon="13.3881755"><ele>103.66666666666666</ele><time>2026-03-22T14:45:18.37Z</time></trkpt><trkpt lat="46.0455756" lon="13.3880286"><ele>103.33333333333334</ele><time>2026-03-22T14:45:19.372Z</time></trkpt><trkpt lat="46.045419" lon="13.3878713"><ele>103.0</ele><time>2026-03-22T14:45:20.369Z</time></trkpt><trkpt lat="46.0452635" lon="13.3877034"><ele>103.0</ele><time>2026-03-22T14:45:21.36Z</time></trkpt><trkpt lat="46.0451169" lon="13.3875135"><ele>103.0</ele><time>2026-03-22T14:45:22.368Z</time></trkpt><trkpt lat="46.0449816" lon="13.3873125"><ele>103.0</ele><time>2026-03-22T14:45:23.351Z</time></trkpt><trkpt lat="46.0448674" lon="13.3870925"><ele>102.0</ele><time>2026-03-22T14:45:24.348Z</time></trkpt><trkpt lat="46.0447634" lon="13.3868746"><ele>101.0</ele><time>2026-03-22T14:45:25.371Z</time></trkpt><trkpt lat="46.0446639" lon="13.3866609"><ele>100.0</ele><time>2026-03-22T14:45:26.385Z</time></trkpt><trkpt lat="46.0445734" lon="13.3864396"><ele>101.0</ele><time>2026-03-22T14:45:27.352Z</time></trkpt><trkpt lat="46.0444882" lon="13.3862127"><ele>102.0</ele><time>2026-03-22T14:45:28.358Z</time></trkpt><trkpt lat="46.0444095" lon="13.3859772"><ele>103.0</ele><time>2026-03-22T14:45:29.395Z</time></trkpt><trkpt lat="46.0443388" lon="13.3857347"><ele>102.66666666666667</ele><time>2026-03-22T14:45:30.352Z</time></trkpt><trkpt lat="46.0442653" lon="13.3854893"><ele>102.33333333333334</ele><time>2026-03-22T14:45:31.36Z</time></trkpt><trkpt lat="46.0441944" lon="13.3852421"><ele>102.0</ele><time>2026-03-22T14:45:32.361Z</time></trkpt><trkpt lat="46.0441074" lon="13.3850096"><ele>101.66666666666666</ele><time>2026-03-22T14:45:33.368Z</time></trkpt><trkpt lat="46.0440455" lon="13.3847659"><ele>101.33333333333333</ele><time>2026-03-22T14:45:34.36Z</time></trkpt><trkpt lat="46.0439781" lon="13.3845293"><ele>101.0</ele><time>2026-03-22T14:45:35.361Z</time></trkpt><trkpt lat="46.043897" lon="13.3843007"><ele>101.0</ele><time>2026-03-22T14:45:36.358Z</time></trkpt><trkpt lat="46.0438211" lon="13.3840679"><ele>101.0</ele><time>2026-03-22T14:45:37.37Z</time></trkpt><trkpt lat="46.0437584" lon="13.3838262"><ele>101.0</ele><time>2026-03-22T14:45:38.36Z</time></trkpt><trkpt lat="46.0436892" lon="13.3835837"><ele>101.0</ele><time>2026-03-22T14:45:39.347Z</time></trkpt><trkpt lat="46.0436164" lon="13.383338"><ele>101.0</ele><time>2026-03-22T14:45:40.356Z</time></trkpt><trkpt lat="46.0435409" lon="13.3830901"><ele>101.0</ele><time>2026-03-22T14:45:41.358Z</time></trkpt><trkpt lat="46.0434726" lon="13.3828346"><ele>101.0</ele><time>2026-03-22T14:45:42.36Z</time></trkpt><trkpt lat="46.0434002" lon="13.3825786"><ele>101.0</ele><time>2026-03-22T14:45:43.362Z</time></trkpt><trkpt lat="46.0433279" lon="13.3823189"><ele>101.0</ele><time>2026-03-22T14:45:44.359Z</time></trkpt><trkpt lat="46.0432521" lon="13.382058"><ele>100.33333333333333</ele><time>2026-03-22T14:45:45.37Z</time></trkpt><trkpt lat="46.0431711" lon="13.3817986"><ele>99.66666666666666</ele><time>2026-03-22T14:45:46.376Z</time></trkpt><trkpt lat="46.0431053" lon="13.3815276"><ele>99.0</ele><time>2026-03-22T14:45:47.364Z</time></trkpt><trkpt lat="46.0430284" lon="13.3812624"><ele>99.0</ele><time>2026-03-22T14:45:48.35Z</time></trkpt><trkpt lat="46.0429495" lon="13.3809993"><ele>99.0</ele><time>2026-03-22T14:45:49.366Z</time></trkpt><trkpt lat="46.0428705" lon="13.3807352"><ele>99.0</ele><time>2026-03-22T14:45:50.367Z</time></trkpt><trkpt lat="46.042793" lon="13.3804672"><ele>99.33333333333334</ele><time>2026-03-22T14:45:51.365Z</time></trkpt><trkpt lat="46.0427151" lon="13.3801961"><ele>99.66666666666667</ele><time>2026-03-22T14:45:52.361Z</time></trkpt><trkpt lat="46.042637" lon="13.379926"><ele>100.0</ele><time>2026-03-22T14:45:53.378Z</time></trkpt><trkpt lat="46.0425602" lon="13.3796585"><ele>100.0</ele><time>2026-03-22T14:45:54.359Z</time></trkpt><trkpt lat="46.0424849" lon="13.3793939"><ele>100.0</ele><time>2026-03-22T14:45:55.369Z</time></trkpt><trkpt lat="46.042408" lon="13.3791341"><ele>100.0</ele><time>2026-03-22T14:45:56.364Z</time></trkpt><trkpt lat="46.0423304" lon="13.3788797"><ele>100.0</ele><time>2026-03-22T14:45:57.352Z</time></trkpt><trkpt lat="46.0422462" lon="13.37864"><ele>100.0</ele><time>2026-03-22T14:45:58.363Z</time></trkpt><trkpt lat="46.0421809" lon="13.3783981"><ele>100.0</ele><time>2026-03-22T14:45:59.371Z</time></trkpt><trkpt lat="46.0420965" lon="13.3781776"><ele>99.66666666666667</ele><time>2026-03-22T14:46:00.379Z</time></trkpt><trkpt lat="46.0420397" lon="13.3779455"><ele>99.33333333333334</ele><time>2026-03-22T14:46:01.379Z</time></trkpt><trkpt lat="46.0419771" lon="13.3777257"><ele>99.0</ele><time>2026-03-22T14:46:02.362Z</time></trkpt><trkpt lat="46.0419142" lon="13.3775188"><ele>99.0</ele><time>2026-03-22T14:46:03.365Z</time></trkpt><trkpt lat="46.0418406" lon="13.3773414"><ele>99.0</ele><time>2026-03-22T14:46:04.369Z</time></trkpt><trkpt lat="46.0417752" lon="13.3771833"><ele>99.0</ele><time>2026-03-22T14:46:05.359Z</time></trkpt><trkpt lat="46.0417158" lon="13.3770435"><ele>99.0</ele><time>2026-03-22T14:46:06.371Z</time></trkpt><trkpt lat="46.0416621" lon="13.3769193"><ele>99.0</ele><time>2026-03-22T14:46:07.382Z</time></trkpt><trkpt lat="46.0416182" lon="13.3768025"><ele>99.0</ele><time>2026-03-22T14:46:08.357Z</time></trkpt><trkpt lat="46.0415711" lon="13.3766956"><ele>99.0</ele><time>2026-03-22T14:46:09.37Z</time></trkpt><trkpt lat="46.0415408" lon="13.3765783"><ele>99.0</ele><time>2026-03-22T14:46:10.357Z</time></trkpt><trkpt lat="46.0415151" lon="13.3764616"><ele>99.0</ele><time>2026-03-22T14:46:11.372Z</time></trkpt><trkpt lat="46.0415119" lon="13.376348"><ele>99.0</ele><time>2026-03-22T14:46:12.37Z</time></trkpt><trkpt lat="46.0415269" lon="13.3762473"><ele>99.0</ele><time>2026-03-22T14:46:13.381Z</time></trkpt><trkpt lat="46.0415426" lon="13.3761589"><ele>99.0</ele><time>2026-03-22T14:46:14.383Z</time></trkpt><trkpt lat="46.0415597" lon="13.3759989"><ele>99.0</ele><time>2026-03-22T14:46:16.362Z</time></trkpt><trkpt lat="46.0415761" lon="13.3758953"><ele>99.0</ele><time>2026-03-22T14:46:18.363Z</time></trkpt><trkpt lat="46.0416014" lon="13.3757747"><ele>99.0</ele><time>2026-03-22T14:46:21.357Z</time></trkpt><trkpt lat="46.041594" lon="13.3756601"><ele>99.0</ele><time>2026-03-22T14:46:23.344Z</time></trkpt><trkpt lat="46.0414635" lon="13.375566"><ele>99.0</ele><time>2026-03-22T14:46:25.353Z</time></trkpt><trkpt lat="46.0413479" lon="13.3755273"><ele>99.0</ele><time>2026-03-22T14:46:26.372Z</time></trkpt><trkpt lat="46.0412054" lon="13.3755109"><ele>99.0</ele><time>2026-03-22T14:46:27.365Z</time></trkpt><trkpt lat="46.0410577" lon="13.3754759"><ele>99.0</ele><time>2026-03-22T14:46:28.358Z</time></trkpt><trkpt lat="46.0409115" lon="13.3754287"><ele>99.66666666666666</ele><time>2026-03-22T14:46:29.368Z</time></trkpt><trkpt lat="46.0407661" lon="13.3753707"><ele>100.33333333333333</ele><time>2026-03-22T14:46:30.363Z</time></trkpt><trkpt lat="46.0406181" lon="13.3753085"><ele>101.0</ele><time>2026-03-22T14:46:31.351Z</time></trkpt><trkpt lat="46.0404641" lon="13.3752247"><ele>101.0</ele><time>2026-03-22T14:46:32.383Z</time></trkpt><trkpt lat="46.040301" lon="13.3751193"><ele>101.0</ele><time>2026-03-22T14:46:33.346Z</time></trkpt><trkpt lat="46.0401303" lon="13.3749945"><ele>101.0</ele><time>2026-03-22T14:46:34.369Z</time></trkpt><trkpt lat="46.039959" lon="13.3748315"><ele>99.5</ele><time>2026-03-22T14:46:35.364Z</time></trkpt><trkpt lat="46.0397831" lon="13.3746394"><ele>98.0</ele><time>2026-03-22T14:46:36.36Z</time></trkpt><trkpt lat="46.0395918" lon="13.374439"><ele>98.0</ele><time>2026-03-22T14:46:37.362Z</time></trkpt><trkpt lat="46.039388" lon="13.3742279"><ele>98.0</ele><time>2026-03-22T14:46:38.356Z</time></trkpt><trkpt lat="46.039189" lon="13.3739933"><ele>98.0</ele><time>2026-03-22T14:46:39.371Z</time></trkpt><trkpt lat="46.0389919" lon="13.373761"><ele>98.0</ele><time>2026-03-22T14:46:40.369Z</time></trkpt><trkpt lat="46.0388022" lon="13.3735295"><ele>98.0</ele><time>2026-03-22T14:46:41.365Z</time></trkpt><trkpt lat="46.038613" lon="13.3733128"><ele>98.0</ele><time>2026-03-22T14:46:42.353Z</time></trkpt><trkpt lat="46.0384242" lon="13.3731056"><ele>99.0</ele><time>2026-03-22T14:46:43.369Z</time></trkpt><trkpt lat="46.0382345" lon="13.3729043"><ele>100.0</ele><time>2026-03-22T14:46:44.355Z</time></trkpt><trkpt lat="46.0380454" lon="13.3727046"><ele>100.0</ele><time>2026-03-22T14:46:45.365Z</time></trkpt><trkpt lat="46.0378545" lon="13.3725175"><ele>100.0</ele><time>2026-03-22T14:46:46.358Z</time></trkpt><trkpt lat="46.037662" lon="13.3723505"><ele>99.66666666666667</ele><time>2026-03-22T14:46:47.356Z</time></trkpt><trkpt lat="46.037468" lon="13.3722032"><ele>99.33333333333334</ele><time>2026-03-22T14:46:48.368Z</time></trkpt><trkpt lat="46.0372746" lon="13.3720697"><ele>99.0</ele><time>2026-03-22T14:46:49.368Z</time></trkpt><trkpt lat="46.0370827" lon="13.3719475"><ele>99.0</ele><time>2026-03-22T14:46:50.352Z</time></trkpt><trkpt lat="46.0368939" lon="13.3718348"><ele>99.0</ele><time>2026-03-22T14:46:51.368Z</time></trkpt><trkpt lat="46.0367084" lon="13.3717404"><ele>99.0</ele><time>2026-03-22T14:46:52.376Z</time></trkpt><trkpt lat="46.0365335" lon="13.3716492"><ele>98.33333333333334</ele><time>2026-03-22T14:46:53.363Z</time></trkpt><trkpt lat="46.0363666" lon="13.3715671"><ele>97.66666666666667</ele><time>2026-03-22T14:46:54.352Z</time></trkpt><trkpt lat="46.0362095" lon="13.371491"><ele>97.0</ele><time>2026-03-22T14:46:55.365Z</time></trkpt><trkpt lat="46.0360612" lon="13.3714262"><ele>97.0</ele><time>2026-03-22T14:46:56.378Z</time></trkpt><trkpt lat="46.0359285" lon="13.3713591"><ele>97.0</ele><time>2026-03-22T14:46:57.372Z</time></trkpt><trkpt lat="46.0358232" lon="13.371289"><ele>97.0</ele><time>2026-03-22T14:46:58.367Z</time></trkpt><trkpt lat="46.0357405" lon="13.3712235"><ele>97.0</ele><time>2026-03-22T14:46:59.355Z</time></trkpt><trkpt lat="46.0356735" lon="13.3711477"><ele>97.0</ele><time>2026-03-22T14:47:00.361Z</time></trkpt><trkpt lat="46.0356247" lon="13.3710483"><ele>97.0</ele><time>2026-03-22T14:47:01.35Z</time></trkpt><trkpt lat="46.0355959" lon="13.370924"><ele>97.0</ele><time>2026-03-22T14:47:02.357Z</time></trkpt><trkpt lat="46.0355865" lon="13.3707831"><ele>97.0</ele><time>2026-03-22T14:47:03.353Z</time></trkpt><trkpt lat="46.0355924" lon="13.3706292"><ele>97.0</ele><time>2026-03-22T14:47:04.369Z</time></trkpt><trkpt lat="46.0356245" lon="13.3704618"><ele>97.0</ele><time>2026-03-22T14:47:05.371Z</time></trkpt><trkpt lat="46.0356706" lon="13.3702805"><ele>97.0</ele><time>2026-03-22T14:47:06.36Z</time></trkpt><trkpt lat="46.0357239" lon="13.370087"><ele>97.0</ele><time>2026-03-22T14:47:07.364Z</time></trkpt><trkpt lat="46.0357826" lon="13.3698756"><ele>97.0</ele><time>2026-03-22T14:47:08.351Z</time></trkpt><trkpt lat="46.0358498" lon="13.3696457"><ele>97.0</ele><time>2026-03-22T14:47:09.363Z</time></trkpt><trkpt lat="46.0359194" lon="13.3693978"><ele>97.0</ele><time>2026-03-22T14:47:10.35Z</time></trkpt><trkpt lat="46.0359909" lon="13.3691405"><ele>97.0</ele><time>2026-03-22T14:47:11.373Z</time></trkpt><trkpt lat="46.0360676" lon="13.3688871"><ele>97.0</ele><time>2026-03-22T14:47:12.356Z</time></trkpt><trkpt lat="46.0361541" lon="13.3686368"><ele>97.0</ele><time>2026-03-22T14:47:13.352Z</time></trkpt><trkpt lat="46.036248" lon="13.3683915"><ele>97.0</ele><time>2026-03-22T14:47:14.374Z</time></trkpt><trkpt lat="46.0363529" lon="13.3681557"><ele>97.0</ele><time>2026-03-22T14:47:15.386Z</time></trkpt><trkpt lat="46.0364717" lon="13.3679298"><ele>97.0</ele><time>2026-03-22T14:47:16.347Z</time></trkpt><trkpt lat="46.0365962" lon="13.3677056"><ele>97.0</ele><time>2026-03-22T14:47:17.352Z</time></trkpt><trkpt lat="46.0367312" lon="13.3674881"><ele>97.0</ele><time>2026-03-22T14:47:18.353Z</time></trkpt><trkpt lat="46.0368805" lon="13.3672845"><ele>97.0</ele><time>2026-03-22T14:47:19.356Z</time></trkpt><trkpt lat="46.0370301" lon="13.3670825"><ele>97.0</ele><time>2026-03-22T14:47:20.375Z</time></trkpt><trkpt lat="46.0371839" lon="13.3668864"><ele>97.33333333333334</ele><time>2026-03-22T14:47:21.358Z</time></trkpt><trkpt lat="46.0373373" lon="13.3666909"><ele>97.66666666666666</ele><time>2026-03-22T14:47:22.357Z</time></trkpt><trkpt lat="46.0374833" lon="13.3664796"><ele>98.0</ele><time>2026-03-22T14:47:23.36Z</time></trkpt><trkpt lat="46.0376257" lon="13.3662526"><ele>98.0</ele><time>2026-03-22T14:47:24.36Z</time></trkpt><trkpt lat="46.0377629" lon="13.3660076"><ele>98.0</ele><time>2026-03-22T14:47:25.345Z</time></trkpt><trkpt lat="46.037888" lon="13.3657502"><ele>98.0</ele><time>2026-03-22T14:47:26.342Z</time></trkpt><trkpt lat="46.0380057" lon="13.3654802"><ele>98.0</ele><time>2026-03-22T14:47:27.335Z</time></trkpt><trkpt lat="46.0381123" lon="13.3651965"><ele>98.0</ele><time>2026-03-22T14:47:28.341Z</time></trkpt><trkpt lat="46.0382095" lon="13.3649075"><ele>98.0</ele><time>2026-03-22T14:47:29.363Z</time></trkpt><trkpt lat="46.0382949" lon="13.3646063"><ele>97.0</ele><time>2026-03-22T14:47:30.326Z</time></trkpt><trkpt lat="46.0383666" lon="13.3642976"><ele>96.0</ele><time>2026-03-22T14:47:31.336Z</time></trkpt><trkpt lat="46.0384288" lon="13.3639845"><ele>96.0</ele><time>2026-03-22T14:47:32.34Z</time></trkpt><trkpt lat="46.0384693" lon="13.3636662"><ele>96.0</ele><time>2026-03-22T14:47:33.357Z</time></trkpt><trkpt lat="46.0384974" lon="13.3633376"><ele>95.5</ele><time>2026-03-22T14:47:34.338Z</time></trkpt><trkpt lat="46.0385107" lon="13.3629892"><ele>95.0</ele><time>2026-03-22T14:47:35.341Z</time></trkpt><trkpt lat="46.0385045" lon="13.3626212"><ele>95.0</ele><time>2026-03-22T14:47:36.333Z</time></trkpt><trkpt lat="46.038491" lon="13.362237"><ele>95.0</ele><time>2026-03-22T14:47:37.355Z</time></trkpt><trkpt lat="46.038471" lon="13.3618397"><ele>95.0</ele><time>2026-03-22T14:47:38.338Z</time></trkpt><trkpt lat="46.0384465" lon="13.3614271"><ele>95.0</ele><time>2026-03-22T14:47:39.365Z</time></trkpt><trkpt lat="46.0384189" lon="13.3609935"><ele>95.0</ele><time>2026-03-22T14:47:40.339Z</time></trkpt><trkpt lat="46.0383894" lon="13.3605362"><ele>95.0</ele><time>2026-03-22T14:47:41.357Z</time></trkpt><trkpt lat="46.038358" lon="13.3600559"><ele>94.5</ele><time>2026-03-22T14:47:42.345Z</time></trkpt><trkpt lat="46.0383307" lon="13.3595544"><ele>94.0</ele><time>2026-03-22T14:47:43.327Z</time></trkpt><trkpt lat="46.0383072" lon="13.3590357"><ele>94.0</ele><time>2026-03-22T14:47:44.364Z</time></trkpt><trkpt lat="46.0382862" lon="13.3584981"><ele>94.0</ele><time>2026-03-22T14:47:45.35Z</time></trkpt><trkpt lat="46.0382573" lon="13.3579535"><ele>93.5</ele><time>2026-03-22T14:47:46.35Z</time></trkpt><trkpt lat="46.0382303" lon="13.3574218"><ele>93.0</ele><time>2026-03-22T14:47:47.351Z</time></trkpt><trkpt lat="46.0382041" lon="13.3569079"><ele>93.0</ele><time>2026-03-22T14:47:48.365Z</time></trkpt><trkpt lat="46.0381709" lon="13.35642"><ele>93.0</ele><time>2026-03-22T14:47:49.355Z</time></trkpt><trkpt lat="46.0381435" lon="13.3559501"><ele>93.0</ele><time>2026-03-22T14:47:50.352Z</time></trkpt><trkpt lat="46.0381184" lon="13.3554923"><ele>93.0</ele><time>2026-03-22T14:47:51.354Z</time></trkpt><trkpt lat="46.0381045" lon="13.3550505"><ele>93.5</ele><time>2026-03-22T14:47:52.345Z</time></trkpt><trkpt lat="46.0380982" lon="13.3546239"><ele>94.0</ele><time>2026-03-22T14:47:53.336Z</time></trkpt><trkpt lat="46.0381053" lon="13.3542086"><ele>92.5</ele><time>2026-03-22T14:47:54.35Z</time></trkpt><trkpt lat="46.0381234" lon="13.3538041"><ele>91.0</ele><time>2026-03-22T14:47:55.347Z</time></trkpt><trkpt lat="46.0381537" lon="13.3534102"><ele>91.5</ele><time>2026-03-22T14:47:56.349Z</time></trkpt><trkpt lat="46.0382007" lon="13.3530254"><ele>92.0</ele><time>2026-03-22T14:47:57.353Z</time></trkpt><trkpt lat="46.0382596" lon="13.3526505"><ele>92.0</ele><time>2026-03-22T14:47:58.358Z</time></trkpt><trkpt lat="46.0383311" lon="13.3522857"><ele>92.0</ele><time>2026-03-22T14:47:59.361Z</time></trkpt><trkpt lat="46.0384136" lon="13.3519296"><ele>92.0</ele><time>2026-03-22T14:48:00.362Z</time></trkpt><trkpt lat="46.0385027" lon="13.3515794"><ele>92.0</ele><time>2026-03-22T14:48:01.347Z</time></trkpt><trkpt lat="46.038596" lon="13.351234"><ele>92.0</ele><time>2026-03-22T14:48:02.34Z</time></trkpt><trkpt lat="46.0386905" lon="13.3508941"><ele>92.0</ele><time>2026-03-22T14:48:03.343Z</time></trkpt><trkpt lat="46.0387862" lon="13.3505604"><ele>92.0</ele><time>2026-03-22T14:48:04.354Z</time></trkpt><trkpt lat="46.0388802" lon="13.3502338"><ele>92.0</ele><time>2026-03-22T14:48:05.352Z</time></trkpt><trkpt lat="46.0389679" lon="13.3499188"><ele>92.0</ele><time>2026-03-22T14:48:06.369Z</time></trkpt><trkpt lat="46.0390487" lon="13.3496148"><ele>92.0</ele><time>2026-03-22T14:48:07.356Z</time></trkpt><trkpt lat="46.0391204" lon="13.3493188"><ele>92.0</ele><time>2026-03-22T14:48:08.359Z</time></trkpt><trkpt lat="46.0391849" lon="13.3490274"><ele>92.0</ele><time>2026-03-22T14:48:09.348Z</time></trkpt><trkpt lat="46.0392399" lon="13.3487364"><ele>92.0</ele><time>2026-03-22T14:48:10.339Z</time></trkpt><trkpt lat="46.0392864" lon="13.3484446"><ele>92.0</ele><time>2026-03-22T14:48:11.352Z</time></trkpt><trkpt lat="46.0393255" lon="13.348154"><ele>92.0</ele><time>2026-03-22T14:48:12.351Z</time></trkpt><trkpt lat="46.0393571" lon="13.3478653"><ele>92.0</ele><time>2026-03-22T14:48:13.369Z</time></trkpt><trkpt lat="46.0393806" lon="13.3475796"><ele>92.0</ele><time>2026-03-22T14:48:14.374Z</time></trkpt><trkpt lat="46.0393944" lon="13.3472923"><ele>92.0</ele><time>2026-03-22T14:48:15.366Z</time></trkpt><trkpt lat="46.0393987" lon="13.3470008"><ele>92.0</ele><time>2026-03-22T14:48:16.354Z</time></trkpt><trkpt lat="46.0394006" lon="13.3467061"><ele>92.0</ele><time>2026-03-22T14:48:17.378Z</time></trkpt><trkpt lat="46.0394085" lon="13.3464097"><ele>92.0</ele><time>2026-03-22T14:48:18.353Z</time></trkpt><trkpt lat="46.0394113" lon="13.3461129"><ele>92.0</ele><time>2026-03-22T14:48:19.376Z</time></trkpt><trkpt lat="46.0394112" lon="13.3458142"><ele>92.0</ele><time>2026-03-22T14:48:20.363Z</time></trkpt><trkpt lat="46.0394048" lon="13.3455142"><ele>91.66666666666667</ele><time>2026-03-22T14:48:21.388Z</time></trkpt><trkpt lat="46.0393968" lon="13.3452156"><ele>91.33333333333333</ele><time>2026-03-22T14:48:22.35Z</time></trkpt><trkpt lat="46.0393939" lon="13.3449183"><ele>91.0</ele><time>2026-03-22T14:48:23.37Z</time></trkpt><trkpt lat="46.0393951" lon="13.3446235"><ele>90.66666666666666</ele><time>2026-03-22T14:48:24.372Z</time></trkpt><trkpt lat="46.0394004" lon="13.3443314"><ele>90.33333333333333</ele><time>2026-03-22T14:48:25.361Z</time></trkpt><trkpt lat="46.0394133" lon="13.3440396"><ele>90.0</ele><time>2026-03-22T14:48:26.354Z</time></trkpt><trkpt lat="46.039434" lon="13.3437402"><ele>90.0</ele><time>2026-03-22T14:48:27.355Z</time></trkpt><trkpt lat="46.0394633" lon="13.3434312"><ele>90.0</ele><time>2026-03-22T14:48:28.35Z</time></trkpt><trkpt lat="46.0395036" lon="13.3431151"><ele>90.0</ele><time>2026-03-22T14:48:29.363Z</time></trkpt><trkpt lat="46.0395586" lon="13.3427936"><ele>89.5</ele><time>2026-03-22T14:48:30.368Z</time></trkpt><trkpt lat="46.0396194" lon="13.3424636"><ele>89.0</ele><time>2026-03-22T14:48:31.382Z</time></trkpt><trkpt lat="46.0396854" lon="13.3421201"><ele>88.5</ele><time>2026-03-22T14:48:32.36Z</time></trkpt><trkpt lat="46.0397629" lon="13.3417637"><ele>88.0</ele><time>2026-03-22T14:48:33.361Z</time></trkpt><trkpt lat="46.0398455" lon="13.3413912"><ele>89.0</ele><time>2026-03-22T14:48:34.359Z</time></trkpt><trkpt lat="46.0399386" lon="13.3410055"><ele>90.0</ele><time>2026-03-22T14:48:35.356Z</time></trkpt><trkpt lat="46.040034" lon="13.340602"><ele>90.0</ele><time>2026-03-22T14:48:36.355Z</time></trkpt><trkpt lat="46.0401291" lon="13.3401778"><ele>90.0</ele><time>2026-03-22T14:48:37.369Z</time></trkpt><trkpt lat="46.0402234" lon="13.3397305"><ele>89.0</ele><time>2026-03-22T14:48:38.363Z</time></trkpt><trkpt lat="46.0403215" lon="13.3392695"><ele>88.0</ele><time>2026-03-22T14:48:39.353Z</time></trkpt><trkpt lat="46.0404244" lon="13.3387938"><ele>88.0</ele><time>2026-03-22T14:48:40.353Z</time></trkpt><trkpt lat="46.0405295" lon="13.3383027"><ele>88.0</ele><time>2026-03-22T14:48:41.359Z</time></trkpt><trkpt lat="46.0406359" lon="13.3378047"><ele>88.0</ele><time>2026-03-22T14:48:42.359Z</time></trkpt><trkpt lat="46.0407417" lon="13.3373123"><ele>88.0</ele><time>2026-03-22T14:48:43.361Z</time></trkpt><trkpt lat="46.0408435" lon="13.3368375"><ele>88.5</ele><time>2026-03-22T14:48:44.35Z</time></trkpt><trkpt lat="46.0409396" lon="13.3363841"><ele>89.0</ele><time>2026-03-22T14:48:45.358Z</time></trkpt><trkpt lat="46.0410321" lon="13.3359524"><ele>89.0</ele><time>2026-03-22T14:48:46.385Z</time></trkpt><trkpt lat="46.0411222" lon="13.3355433"><ele>89.0</ele><time>2026-03-22T14:48:47.366Z</time></trkpt><trkpt lat="46.041204" lon="13.3351504"><ele>89.0</ele><time>2026-03-22T14:48:48.36Z</time></trkpt><trkpt lat="46.0412745" lon="13.3347753"><ele>89.0</ele><time>2026-03-22T14:48:49.367Z</time></trkpt><trkpt lat="46.0413475" lon="13.3344319"><ele>89.0</ele><time>2026-03-22T14:48:50.351Z</time></trkpt><trkpt lat="46.041415" lon="13.3341262"><ele>89.0</ele><time>2026-03-22T14:48:51.372Z</time></trkpt><trkpt lat="46.041473" lon="13.3338538"><ele>89.0</ele><time>2026-03-22T14:48:52.353Z</time></trkpt><trkpt lat="46.0415283" lon="13.3336116"><ele>88.75</ele><time>2026-03-22T14:48:53.361Z</time></trkpt><trkpt lat="46.0415759" lon="13.3333965"><ele>88.5</ele><time>2026-03-22T14:48:54.361Z</time></trkpt><trkpt lat="46.0416209" lon="13.3332175"><ele>88.25</ele><time>2026-03-22T14:48:55.355Z</time></trkpt><trkpt lat="46.0416569" lon="13.3330779"><ele>88.0</ele><time>2026-03-22T14:48:56.353Z</time></trkpt><trkpt lat="46.0416874" lon="13.3329696"><ele>87.66666666666666</ele><time>2026-03-22T14:48:57.359Z</time></trkpt><trkpt lat="46.0417212" lon="13.3328854"><ele>87.33333333333333</ele><time>2026-03-22T14:48:58.369Z</time></trkpt><trkpt lat="46.0417711" lon="13.3328115"><ele>87.0</ele><time>2026-03-22T14:48:59.352Z</time></trkpt><trkpt lat="46.0418339" lon="13.332742"><ele>86.66666666666667</ele><time>2026-03-22T14:49:00.354Z</time></trkpt><trkpt lat="46.0419039" lon="13.3326675"><ele>86.33333333333334</ele><time>2026-03-22T14:49:01.353Z</time></trkpt><trkpt lat="46.0419744" lon="13.332582"><ele>86.0</ele><time>2026-03-22T14:49:02.355Z</time></trkpt><trkpt lat="46.0420626" lon="13.3325081"><ele>86.0</ele><time>2026-03-22T14:49:03.358Z</time></trkpt><trkpt lat="46.042166" lon="13.332455"><ele>86.0</ele><time>2026-03-22T14:49:04.355Z</time></trkpt><trkpt lat="46.0422875" lon="13.3324781"><ele>86.0</ele><time>2026-03-22T14:49:05.358Z</time></trkpt><trkpt lat="46.0424301" lon="13.3325313"><ele>86.0</ele><time>2026-03-22T14:49:06.344Z</time></trkpt><trkpt lat="46.0425857" lon="13.3325985"><ele>86.0</ele><time>2026-03-22T14:49:07.351Z</time></trkpt><trkpt lat="46.0427458" lon="13.3326677"><ele>86.0</ele><time>2026-03-22T14:49:08.351Z</time></trkpt><trkpt lat="46.0429086" lon="13.3327289"><ele>86.0</ele><time>2026-03-22T14:49:09.351Z</time></trkpt><trkpt lat="46.0430717" lon="13.3327944"><ele>86.0</ele><time>2026-03-22T14:49:10.36Z</time></trkpt><trkpt lat="46.0432332" lon="13.3328546"><ele>86.0</ele><time>2026-03-22T14:49:11.353Z</time></trkpt><trkpt lat="46.0433843" lon="13.3329108"><ele>86.0</ele><time>2026-03-22T14:49:12.37Z</time></trkpt><trkpt lat="46.0435168" lon="13.3329578"><ele>86.33333333333334</ele><time>2026-03-22T14:49:13.35Z</time></trkpt><trkpt lat="46.0436216" lon="13.3329936"><ele>86.66666666666667</ele><time>2026-03-22T14:49:14.341Z</time></trkpt><trkpt lat="46.0437059" lon="13.3330249"><ele>87.0</ele><time>2026-03-22T14:49:15.353Z</time></trkpt><trkpt lat="46.043773" lon="13.3330487"><ele>87.33333333333333</ele><time>2026-03-22T14:49:16.358Z</time></trkpt><trkpt lat="46.0438486" lon="13.3330724"><ele>87.66666666666666</ele><time>2026-03-22T14:49:18.353Z</time></trkpt><trkpt lat="46.0439227" lon="13.333084"><ele>88.0</ele><time>2026-03-22T14:49:21.353Z</time></trkpt><trkpt lat="46.0439601" lon="13.3329951"><ele>88.25</ele><time>2026-03-22T14:49:23.358Z</time></trkpt><trkpt lat="46.0439545" lon="13.3328904"><ele>88.5</ele><time>2026-03-22T14:49:24.354Z</time></trkpt><trkpt lat="46.0439525" lon="13.3327286"><ele>88.75</ele><time>2026-03-22T14:49:25.356Z</time></trkpt><trkpt lat="46.0439567" lon="13.332521"><ele>89.0</ele><time>2026-03-22T14:49:26.365Z</time></trkpt><trkpt lat="46.0439649" lon="13.3322659"><ele>89.0</ele><time>2026-03-22T14:49:27.34Z</time></trkpt><trkpt lat="46.043974" lon="13.3319699"><ele>89.0</ele><time>2026-03-22T14:49:28.355Z</time></trkpt><trkpt lat="46.0439881" lon="13.3316426"><ele>89.0</ele><time>2026-03-22T14:49:29.362Z</time></trkpt><trkpt lat="46.0439991" lon="13.3312948"><ele>89.0</ele><time>2026-03-22T14:49:30.34Z</time></trkpt><trkpt lat="46.0440067" lon="13.3309443"><ele>89.0</ele><time>2026-03-22T14:49:31.366Z</time></trkpt><trkpt lat="46.0440236" lon="13.330598"><ele>89.5</ele><time>2026-03-22T14:49:32.357Z</time></trkpt><trkpt lat="46.0440357" lon="13.3302573"><ele>90.0</ele><time>2026-03-22T14:49:33.392Z</time></trkpt><trkpt lat="46.0440478" lon="13.3299235"><ele>89.66666666666667</ele><time>2026-03-22T14:49:34.354Z</time></trkpt><trkpt lat="46.0440662" lon="13.3296008"><ele>89.33333333333334</ele><time>2026-03-22T14:49:35.344Z</time></trkpt><trkpt lat="46.0440743" lon="13.3292931"><ele>89.0</ele><time>2026-03-22T14:49:36.347Z</time></trkpt><trkpt lat="46.044085" lon="13.3289996"><ele>88.0</ele><time>2026-03-22T14:49:37.346Z</time></trkpt><trkpt lat="46.0440962" lon="13.3287189"><ele>87.0</ele><time>2026-03-22T14:49:38.348Z</time></trkpt><trkpt lat="46.0441133" lon="13.3284497"><ele>86.0</ele><time>2026-03-22T14:49:39.363Z</time></trkpt><trkpt lat="46.0441224" lon="13.3281907"><ele>86.0</ele><time>2026-03-22T14:49:40.346Z</time></trkpt><trkpt lat="46.0441306" lon="13.3279398"><ele>86.0</ele><time>2026-03-22T14:49:41.367Z</time></trkpt><trkpt lat="46.044142" lon="13.3276979"><ele>86.0</ele><time>2026-03-22T14:49:42.368Z</time></trkpt><trkpt lat="46.0441537" lon="13.3274657"><ele>86.0</ele><time>2026-03-22T14:49:43.361Z</time></trkpt><trkpt lat="46.0441628" lon="13.3272455"><ele>86.0</ele><time>2026-03-22T14:49:44.364Z</time></trkpt><trkpt lat="46.0441698" lon="13.3270312"><ele>86.0</ele><time>2026-03-22T14:49:45.34Z</time></trkpt><trkpt lat="46.0441763" lon="13.3268139"><ele>86.0</ele><time>2026-03-22T14:49:46.342Z</time></trkpt><trkpt lat="46.0441791" lon="13.3265874"><ele>86.0</ele><time>2026-03-22T14:49:47.351Z</time></trkpt><trkpt lat="46.0441843" lon="13.326359"><ele>86.0</ele><time>2026-03-22T14:49:48.353Z</time></trkpt><trkpt lat="46.0441846" lon="13.3261389"><ele>86.0</ele><time>2026-03-22T14:49:49.363Z</time></trkpt><trkpt lat="46.044186" lon="13.3259346"><ele>86.0</ele><time>2026-03-22T14:49:50.346Z</time></trkpt><trkpt lat="46.044178" lon="13.3257499"><ele>86.0</ele><time>2026-03-22T14:49:51.36Z</time></trkpt><trkpt lat="46.0441795" lon="13.3255896"><ele>86.0</ele><time>2026-03-22T14:49:52.338Z</time></trkpt><trkpt lat="46.0441717" lon="13.3254437"><ele>85.8</ele><time>2026-03-22T14:49:53.349Z</time></trkpt><trkpt lat="46.0441541" lon="13.3253026"><ele>85.6</ele><time>2026-03-22T14:49:54.353Z</time></trkpt><trkpt lat="46.0441171" lon="13.325171"><ele>85.4</ele><time>2026-03-22T14:49:55.379Z</time></trkpt><trkpt lat="46.0440701" lon="13.3250516"><ele>85.2</ele><time>2026-03-22T14:49:56.345Z</time></trkpt><trkpt lat="46.0440149" lon="13.3249341"><ele>85.0</ele><time>2026-03-22T14:49:57.351Z</time></trkpt><trkpt lat="46.043959" lon="13.3248052"><ele>84.8</ele><time>2026-03-22T14:49:58.353Z</time></trkpt><trkpt lat="46.0438959" lon="13.3246809"><ele>84.6</ele><time>2026-03-22T14:49:59.356Z</time></trkpt><trkpt lat="46.0438325" lon="13.3245648"><ele>84.4</ele><time>2026-03-22T14:50:00.377Z</time></trkpt><trkpt lat="46.043772" lon="13.3244486"><ele>84.2</ele><time>2026-03-22T14:50:01.352Z</time></trkpt><trkpt lat="46.0437198" lon="13.3243203"><ele>84.0</ele><time>2026-03-22T14:50:02.356Z</time></trkpt><trkpt lat="46.043675" lon="13.3241844"><ele>84.0</ele><time>2026-03-22T14:50:03.37Z</time></trkpt><trkpt lat="46.0436496" lon="13.3240351"><ele>84.0</ele><time>2026-03-22T14:50:04.353Z</time></trkpt><trkpt lat="46.0436403" lon="13.3238792"><ele>84.0</ele><time>2026-03-22T14:50:05.365Z</time></trkpt><trkpt lat="46.043631" lon="13.323726"><ele>84.0</ele><time>2026-03-22T14:50:06.359Z</time></trkpt><trkpt lat="46.0436192" lon="13.3235662"><ele>84.0</ele><time>2026-03-22T14:50:07.357Z</time></trkpt><trkpt lat="46.0435827" lon="13.3233732"><ele>83.66666666666667</ele><time>2026-03-22T14:50:08.353Z</time></trkpt><trkpt lat="46.043482" lon="13.3231515"><ele>83.33333333333334</ele><time>2026-03-22T14:50:09.343Z</time></trkpt><trkpt lat="46.0433635" lon="13.3228975"><ele>83.0</ele><time>2026-03-22T14:50:10.365Z</time></trkpt><trkpt lat="46.0432332" lon="13.3226157"><ele>82.5</ele><time>2026-03-22T14:50:11.35Z</time></trkpt><trkpt lat="46.0431038" lon="13.3223372"><ele>82.0</ele><time>2026-03-22T14:50:12.342Z</time></trkpt><trkpt lat="46.0429765" lon="13.3220766"><ele>81.66666666666666</ele><time>2026-03-22T14:50:13.345Z</time></trkpt><trkpt lat="46.0428575" lon="13.321833"><ele>81.33333333333333</ele><time>2026-03-22T14:50:14.35Z</time></trkpt><trkpt lat="46.0427554" lon="13.3215988"><ele>81.0</ele><time>2026-03-22T14:50:15.359Z</time></trkpt><trkpt lat="46.0426695" lon="13.3213763"><ele>82.0</ele><time>2026-03-22T14:50:16.352Z</time></trkpt><trkpt lat="46.0426108" lon="13.3211445"><ele>83.0</ele><time>2026-03-22T14:50:17.36Z</time></trkpt><trkpt lat="46.0425751" lon="13.3209012"><ele>84.0</ele><time>2026-03-22T14:50:18.352Z</time></trkpt><trkpt lat="46.0425588" lon="13.3206371"><ele>83.66666666666667</ele><time>2026-03-22T14:50:19.353Z</time></trkpt><trkpt lat="46.0425192" lon="13.3203832"><ele>83.33333333333334</ele><time>2026-03-22T14:50:20.359Z</time></trkpt><trkpt lat="46.0425059" lon="13.3201476"><ele>83.0</ele><time>2026-03-22T14:50:21.357Z</time></trkpt><trkpt lat="46.0424862" lon="13.3199427"><ele>83.0</ele><time>2026-03-22T14:50:22.361Z</time></trkpt><trkpt lat="46.0424848" lon="13.3197606"><ele>83.0</ele><time>2026-03-22T14:50:23.353Z</time></trkpt><trkpt lat="46.0425068" lon="13.3195934"><ele>83.0</ele><time>2026-03-22T14:50:24.338Z</time></trkpt><trkpt lat="46.0425437" lon="13.3194249"><ele>83.0</ele><time>2026-03-22T14:50:25.365Z</time></trkpt><trkpt lat="46.0426451" lon="13.31927"><ele>83.33333333333334</ele><time>2026-03-22T14:50:26.342Z</time></trkpt><trkpt lat="46.0427638" lon="13.3191008"><ele>83.66666666666667</ele><time>2026-03-22T14:50:27.361Z</time></trkpt><trkpt lat="46.0428809" lon="13.3189314"><ele>84.0</ele><time>2026-03-22T14:50:28.358Z</time></trkpt><trkpt lat="46.0429866" lon="13.3187714"><ele>84.75</ele><time>2026-03-22T14:50:29.347Z</time></trkpt><trkpt lat="46.043081" lon="13.3186224"><ele>85.5</ele><time>2026-03-22T14:50:30.339Z</time></trkpt><trkpt lat="46.043178" lon="13.3185032"><ele>86.25</ele><time>2026-03-22T14:50:31.35Z</time></trkpt><trkpt lat="46.0432809" lon="13.3184121"><ele>87.0</ele><time>2026-03-22T14:50:32.362Z</time></trkpt><trkpt lat="46.0433807" lon="13.3183327"><ele>87.0</ele><time>2026-03-22T14:50:33.341Z</time></trkpt><trkpt lat="46.0434607" lon="13.3182198"><ele>87.0</ele><time>2026-03-22T14:50:34.344Z</time></trkpt><trkpt lat="46.0435443" lon="13.3181324"><ele>87.0</ele><time>2026-03-22T14:50:35.361Z</time></trkpt><trkpt lat="46.0436186" lon="13.3180249"><ele>87.0</ele><time>2026-03-22T14:50:36.35Z</time></trkpt><trkpt lat="46.0436922" lon="13.3178601"><ele>87.0</ele><time>2026-03-22T14:50:37.341Z</time></trkpt><trkpt lat="46.043759" lon="13.3176389"><ele>87.0</ele><time>2026-03-22T14:50:38.361Z</time></trkpt><trkpt lat="46.0438203" lon="13.3173612"><ele>87.0</ele><time>2026-03-22T14:50:39.35Z</time></trkpt><trkpt lat="46.0438854" lon="13.3170428"><ele>87.0</ele><time>2026-03-22T14:50:40.34Z</time></trkpt><trkpt lat="46.0439467" lon="13.316691"><ele>87.0</ele><time>2026-03-22T14:50:41.35Z</time></trkpt><trkpt lat="46.0440186" lon="13.3163415"><ele>87.5</ele><time>2026-03-22T14:50:42.348Z</time></trkpt><trkpt lat="46.0440801" lon="13.316017"><ele>88.0</ele><time>2026-03-22T14:50:43.368Z</time></trkpt><trkpt lat="46.044133" lon="13.315715"><ele>87.66666666666666</ele><time>2026-03-22T14:50:44.343Z</time></trkpt><trkpt lat="46.0441921" lon="13.315435"><ele>87.33333333333333</ele><time>2026-03-22T14:50:45.347Z</time></trkpt><trkpt lat="46.0442554" lon="13.3151761"><ele>87.0</ele><time>2026-03-22T14:50:46.361Z</time></trkpt><trkpt lat="46.0443139" lon="13.3149403"><ele>87.0</ele><time>2026-03-22T14:50:47.356Z</time></trkpt><trkpt lat="46.0443974" lon="13.3147283"><ele>87.0</ele><time>2026-03-22T14:50:48.359Z</time></trkpt><trkpt lat="46.0444842" lon="13.3145206"><ele>87.0</ele><time>2026-03-22T14:50:49.347Z</time></trkpt><trkpt lat="46.0445597" lon="13.3142971"><ele>87.0</ele><time>2026-03-22T14:50:50.345Z</time></trkpt><trkpt lat="46.0446226" lon="13.3140538"><ele>87.0</ele><time>2026-03-22T14:50:51.332Z</time></trkpt><trkpt lat="46.0446856" lon="13.3138112"><ele>87.0</ele><time>2026-03-22T14:50:52.355Z</time></trkpt><trkpt lat="46.044754" lon="13.3135893"><ele>87.0</ele><time>2026-03-22T14:50:53.354Z</time></trkpt><trkpt lat="46.0447915" lon="13.3133719"><ele>87.0</ele><time>2026-03-22T14:50:54.378Z</time></trkpt><trkpt lat="46.0448235" lon="13.3131762"><ele>87.0</ele><time>2026-03-22T14:50:55.344Z</time></trkpt><trkpt lat="46.0448415" lon="13.3130006"><ele>87.0</ele><time>2026-03-22T14:50:56.356Z</time></trkpt><trkpt lat="46.0448405" lon="13.3128285"><ele>86.75</ele><time>2026-03-22T14:50:57.357Z</time></trkpt><trkpt lat="46.0447973" lon="13.3126576"><ele>86.5</ele><time>2026-03-22T14:50:58.359Z</time></trkpt><trkpt lat="46.044722" lon="13.3124939"><ele>86.25</ele><time>2026-03-22T14:50:59.365Z</time></trkpt><trkpt lat="46.0446598" lon="13.3123567"><ele>86.0</ele><time>2026-03-22T14:51:00.368Z</time></trkpt><trkpt lat="46.0446081" lon="13.3122385"><ele>86.33333333333334</ele><time>2026-03-22T14:51:01.352Z</time></trkpt><trkpt lat="46.0445828" lon="13.3121209"><ele>86.66666666666667</ele><time>2026-03-22T14:51:02.357Z</time></trkpt><trkpt lat="46.0445768" lon="13.312011"><ele>87.0</ele><time>2026-03-22T14:51:03.354Z</time></trkpt><trkpt lat="46.0445844" lon="13.3118797"><ele>87.33333333333333</ele><time>2026-03-22T14:51:05.35Z</time></trkpt><trkpt lat="46.0446307" lon="13.3117262"><ele>87.66666666666666</ele><time>2026-03-22T14:51:14.343Z</time></trkpt><trkpt lat="46.0445811" lon="13.3116497"><ele>88.0</ele><time>2026-03-22T14:51:15.344Z</time></trkpt><trkpt lat="46.0444889" lon="13.3115525"><ele>88.0</ele><time>2026-03-22T14:51:16.343Z</time></trkpt><trkpt lat="46.0443511" lon="13.311475"><ele>88.0</ele><time>2026-03-22T14:51:17.343Z</time></trkpt><trkpt lat="46.0441616" lon="13.3113873"><ele>88.0</ele><time>2026-03-22T14:51:18.342Z</time></trkpt><trkpt lat="46.0439467" lon="13.3112765"><ele>87.0</ele><time>2026-03-22T14:51:19.346Z</time></trkpt><trkpt lat="46.0437299" lon="13.3111543"><ele>86.0</ele><time>2026-03-22T14:51:20.34Z</time></trkpt><trkpt lat="46.0435329" lon="13.311017"><ele>86.0</ele><time>2026-03-22T14:51:21.345Z</time></trkpt><trkpt lat="46.0433438" lon="13.3108924"><ele>86.0</ele><time>2026-03-22T14:51:22.344Z</time></trkpt><trkpt lat="46.0431577" lon="13.3107838"><ele>86.0</ele><time>2026-03-22T14:51:23.348Z</time></trkpt><trkpt lat="46.042986" lon="13.3106933"><ele>85.33333333333334</ele><time>2026-03-22T14:51:24.346Z</time></trkpt><trkpt lat="46.0428281" lon="13.3106051"><ele>84.66666666666667</ele><time>2026-03-22T14:51:25.348Z</time></trkpt><trkpt lat="46.0426793" lon="13.310518"><ele>84.0</ele><time>2026-03-22T14:51:26.343Z</time></trkpt><trkpt lat="46.0425337" lon="13.3104331"><ele>84.75</ele><time>2026-03-22T14:51:27.348Z</time></trkpt><trkpt lat="46.0423925" lon="13.3103536"><ele>85.5</ele><time>2026-03-22T14:51:28.342Z</time></trkpt><trkpt lat="46.0422564" lon="13.310283"><ele>86.25</ele><time>2026-03-22T14:51:29.344Z</time></trkpt><trkpt lat="46.0421266" lon="13.3102146"><ele>87.0</ele><time>2026-03-22T14:51:30.347Z</time></trkpt><trkpt lat="46.0420047" lon="13.3101209"><ele>87.0</ele><time>2026-03-22T14:51:31.346Z</time></trkpt><trkpt lat="46.0418862" lon="13.3100204"><ele>87.0</ele><time>2026-03-22T14:51:32.348Z</time></trkpt><trkpt lat="46.0417718" lon="13.3099104"><ele>87.0</ele><time>2026-03-22T14:51:33.349Z</time></trkpt><trkpt lat="46.0416643" lon="13.3097827"><ele>87.0</ele><time>2026-03-22T14:51:34.352Z</time></trkpt><trkpt lat="46.0415601" lon="13.309645"><ele>87.25</ele><time>2026-03-22T14:51:35.349Z</time></trkpt><trkpt lat="46.0414623" lon="13.3094928"><ele>87.5</ele><time>2026-03-22T14:51:36.351Z</time></trkpt><trkpt lat="46.0413742" lon="13.3093241"><ele>87.75</ele><time>2026-03-22T14:51:37.349Z</time></trkpt><trkpt lat="46.0412956" lon="13.309145"><ele>88.0</ele><time>2026-03-22T14:51:38.348Z</time></trkpt><trkpt lat="46.0412253" lon="13.3089658"><ele>88.25</ele><time>2026-03-22T14:51:39.346Z</time></trkpt><trkpt lat="46.0411638" lon="13.3087926"><ele>88.5</ele><time>2026-03-22T14:51:40.348Z</time></trkpt><trkpt lat="46.0411034" lon="13.3086264"><ele>88.75</ele><time>2026-03-22T14:51:41.348Z</time></trkpt><trkpt lat="46.0410451" lon="13.3084599"><ele>89.0</ele><time>2026-03-22T14:51:42.356Z</time></trkpt><trkpt lat="46.0409718" lon="13.3082885"><ele>89.0</ele><time>2026-03-22T14:51:43.358Z</time></trkpt><trkpt lat="46.0409126" lon="13.3081116"><ele>89.0</ele><time>2026-03-22T14:51:44.352Z</time></trkpt><trkpt lat="46.0408772" lon="13.3079295"><ele>89.0</ele><time>2026-03-22T14:51:45.368Z</time></trkpt><trkpt lat="46.0408476" lon="13.307745"><ele>89.0</ele><time>2026-03-22T14:51:46.344Z</time></trkpt><trkpt lat="46.0408065" lon="13.3075684"><ele>89.0</ele><time>2026-03-22T14:51:47.364Z</time></trkpt><trkpt lat="46.0407782" lon="13.3073947"><ele>89.0</ele><time>2026-03-22T14:51:48.337Z</time></trkpt><trkpt lat="46.0407401" lon="13.3072364"><ele>89.0</ele><time>2026-03-22T14:51:49.346Z</time></trkpt><trkpt lat="46.0407034" lon="13.3070846"><ele>89.0</ele><time>2026-03-22T14:51:50.343Z</time></trkpt><trkpt lat="46.0406666" lon="13.3069362"><ele>89.0</ele><time>2026-03-22T14:51:51.351Z</time></trkpt><trkpt lat="46.040637" lon="13.3067895"><ele>89.0</ele><time>2026-03-22T14:51:52.36Z</time></trkpt><trkpt lat="46.0406118" lon="13.3066449"><ele>89.0</ele><time>2026-03-22T14:51:53.353Z</time></trkpt><trkpt lat="46.0406022" lon="13.3065003"><ele>89.0</ele><time>2026-03-22T14:51:54.332Z</time></trkpt><trkpt lat="46.0405927" lon="13.3063568"><ele>89.0</ele><time>2026-03-22T14:51:55.376Z</time></trkpt><trkpt lat="46.0405628" lon="13.3062146"><ele>88.5</ele><time>2026-03-22T14:51:56.351Z</time></trkpt><trkpt lat="46.0405272" lon="13.3060682"><ele>88.0</ele><time>2026-03-22T14:51:57.375Z</time></trkpt><trkpt lat="46.0404976" lon="13.3059069"><ele>87.5</ele><time>2026-03-22T14:51:58.384Z</time></trkpt><trkpt lat="46.0404773" lon="13.3057315"><ele>87.0</ele><time>2026-03-22T14:51:59.343Z</time></trkpt><trkpt lat="46.0404617" lon="13.3055553"><ele>87.0</ele><time>2026-03-22T14:52:00.343Z</time></trkpt><trkpt lat="46.0404446" lon="13.3053852"><ele>87.0</ele><time>2026-03-22T14:52:01.354Z</time></trkpt><trkpt lat="46.0404318" lon="13.3052244"><ele>87.0</ele><time>2026-03-22T14:52:02.345Z</time></trkpt><trkpt lat="46.040413" lon="13.3050699"><ele>87.0</ele><time>2026-03-22T14:52:03.357Z</time></trkpt><trkpt lat="46.0403987" lon="13.3049206"><ele>87.0</ele><time>2026-03-22T14:52:04.355Z</time></trkpt><trkpt lat="46.0403873" lon="13.3047719"><ele>87.0</ele><time>2026-03-22T14:52:05.347Z</time></trkpt><trkpt lat="46.0403756" lon="13.3046242"><ele>87.0</ele><time>2026-03-22T14:52:06.347Z</time></trkpt><trkpt lat="46.0403568" lon="13.3044786"><ele>87.0</ele><time>2026-03-22T14:52:07.347Z</time></trkpt><trkpt lat="46.0403346" lon="13.3043329"><ele>87.0</ele><time>2026-03-22T14:52:08.351Z</time></trkpt><trkpt lat="46.040316" lon="13.3041866"><ele>87.0</ele><time>2026-03-22T14:52:09.364Z</time></trkpt><trkpt lat="46.0403047" lon="13.3040297"><ele>87.0</ele><time>2026-03-22T14:52:10.35Z</time></trkpt><trkpt lat="46.0402871" lon="13.3038586"><ele>87.0</ele><time>2026-03-22T14:52:11.345Z</time></trkpt><trkpt lat="46.0402688" lon="13.3036758"><ele>87.0</ele><time>2026-03-22T14:52:12.344Z</time></trkpt><trkpt lat="46.0402464" lon="13.3034866"><ele>87.0</ele><time>2026-03-22T14:52:13.356Z</time></trkpt><trkpt lat="46.0402243" lon="13.3032902"><ele>87.0</ele><time>2026-03-22T14:52:14.361Z</time></trkpt><trkpt lat="46.0401983" lon="13.30309"><ele>87.0</ele><time>2026-03-22T14:52:15.344Z</time></trkpt><trkpt lat="46.0401706" lon="13.3028879"><ele>87.0</ele><time>2026-03-22T14:52:16.372Z</time></trkpt><trkpt lat="46.0401383" lon="13.3026849"><ele>87.0</ele><time>2026-03-22T14:52:17.357Z</time></trkpt><trkpt lat="46.040107" lon="13.3024844"><ele>87.0</ele><time>2026-03-22T14:52:18.341Z</time></trkpt><trkpt lat="46.0400772" lon="13.3022902"><ele>87.0</ele><time>2026-03-22T14:52:19.348Z</time></trkpt><trkpt lat="46.040044" lon="13.3020953"><ele>87.0</ele><time>2026-03-22T14:52:20.354Z</time></trkpt><trkpt lat="46.0400113" lon="13.3018946"><ele>87.0</ele><time>2026-03-22T14:52:21.354Z</time></trkpt><trkpt lat="46.0399785" lon="13.3016957"><ele>87.25</ele><time>2026-03-22T14:52:22.367Z</time></trkpt><trkpt lat="46.0399487" lon="13.301497"><ele>87.5</ele><time>2026-03-22T14:52:23.353Z</time></trkpt><trkpt lat="46.039919" lon="13.3012973"><ele>87.75</ele><time>2026-03-22T14:52:24.358Z</time></trkpt><trkpt lat="46.0398882" lon="13.3010988"><ele>88.0</ele><time>2026-03-22T14:52:25.351Z</time></trkpt><trkpt lat="46.0398572" lon="13.3008918"><ele>88.25</ele><time>2026-03-22T14:52:26.366Z</time></trkpt><trkpt lat="46.0398263" lon="13.3006766"><ele>88.5</ele><time>2026-03-22T14:52:27.395Z</time></trkpt><trkpt lat="46.0397968" lon="13.300476"><ele>88.75</ele><time>2026-03-22T14:52:28.353Z</time></trkpt><trkpt lat="46.0397691" lon="13.3002943"><ele>89.0</ele><time>2026-03-22T14:52:29.357Z</time></trkpt><trkpt lat="46.0397408" lon="13.3001165"><ele>88.5</ele><time>2026-03-22T14:52:30.339Z</time></trkpt><trkpt lat="46.03971" lon="13.2999416"><ele>88.0</ele><time>2026-03-22T14:52:31.331Z</time></trkpt><trkpt lat="46.0396877" lon="13.2997707"><ele>87.5</ele><time>2026-03-22T14:52:32.345Z</time></trkpt><trkpt lat="46.0396621" lon="13.299598"><ele>87.0</ele><time>2026-03-22T14:52:33.362Z</time></trkpt><trkpt lat="46.0396196" lon="13.2994247"><ele>87.0</ele><time>2026-03-22T14:52:34.346Z</time></trkpt><trkpt lat="46.039578" lon="13.2992445"><ele>87.0</ele><time>2026-03-22T14:52:35.363Z</time></trkpt><trkpt lat="46.0395319" lon="13.2990519"><ele>87.0</ele><time>2026-03-22T14:52:36.344Z</time></trkpt><trkpt lat="46.0394709" lon="13.2988537"><ele>87.0</ele><time>2026-03-22T14:52:37.35Z</time></trkpt><trkpt lat="46.0394017" lon="13.2986577"><ele>87.5</ele><time>2026-03-22T14:52:38.342Z</time></trkpt><trkpt lat="46.0393371" lon="13.2984656"><ele>88.0</ele><time>2026-03-22T14:52:39.364Z</time></trkpt><trkpt lat="46.0392768" lon="13.2982811"><ele>88.5</ele><time>2026-03-22T14:52:40.345Z</time></trkpt><trkpt lat="46.0392205" lon="13.2980982"><ele>89.0</ele><time>2026-03-22T14:52:41.346Z</time></trkpt><trkpt lat="46.0391685" lon="13.2979098"><ele>89.66666666666667</ele><time>2026-03-22T14:52:42.344Z</time></trkpt><trkpt lat="46.0391115" lon="13.2977169"><ele>90.33333333333333</ele><time>2026-03-22T14:52:43.35Z</time></trkpt><trkpt lat="46.0390351" lon="13.2975296"><ele>91.0</ele><time>2026-03-22T14:52:44.346Z</time></trkpt><trkpt lat="46.038956" lon="13.2973386"><ele>91.25</ele><time>2026-03-22T14:52:45.357Z</time></trkpt><trkpt lat="46.0388771" lon="13.2971482"><ele>91.5</ele><time>2026-03-22T14:52:46.341Z</time></trkpt><trkpt lat="46.0388033" lon="13.2969691"><ele>91.75</ele><time>2026-03-22T14:52:47.352Z</time></trkpt><trkpt lat="46.0387314" lon="13.296804"><ele>92.0</ele><time>2026-03-22T14:52:48.354Z</time></trkpt><trkpt lat="46.0386625" lon="13.2966438"><ele>92.0</ele><time>2026-03-22T14:52:49.351Z</time></trkpt><trkpt lat="46.0385976" lon="13.2964924"><ele>92.0</ele><time>2026-03-22T14:52:50.347Z</time></trkpt><trkpt lat="46.0385338" lon="13.296351"><ele>92.0</ele><time>2026-03-22T14:52:51.368Z</time></trkpt><trkpt lat="46.0384712" lon="13.2962093"><ele>92.0</ele><time>2026-03-22T14:52:52.344Z</time></trkpt><trkpt lat="46.0384084" lon="13.2960565"><ele>91.5</ele><time>2026-03-22T14:52:53.355Z</time></trkpt><trkpt lat="46.03834" lon="13.2958945"><ele>91.0</ele><time>2026-03-22T14:52:54.345Z</time></trkpt><trkpt lat="46.038271" lon="13.2957232"><ele>90.5</ele><time>2026-03-22T14:52:55.336Z</time></trkpt><trkpt lat="46.0381969" lon="13.2955465"><ele>90.0</ele><time>2026-03-22T14:52:56.339Z</time></trkpt><trkpt lat="46.0381196" lon="13.2953712"><ele>89.5</ele><time>2026-03-22T14:52:57.342Z</time></trkpt><trkpt lat="46.0380454" lon="13.2951993"><ele>89.0</ele><time>2026-03-22T14:52:58.348Z</time></trkpt><trkpt lat="46.0379783" lon="13.2950348"><ele>88.5</ele><time>2026-03-22T14:52:59.347Z</time></trkpt><trkpt lat="46.0379146" lon="13.2948809"><ele>88.0</ele><time>2026-03-22T14:53:00.337Z</time></trkpt><trkpt lat="46.0378491" lon="13.2947409"><ele>88.0</ele><time>2026-03-22T14:53:01.346Z</time></trkpt><trkpt lat="46.0377832" lon="13.2946097"><ele>88.0</ele><time>2026-03-22T14:53:02.335Z</time></trkpt><trkpt lat="46.0377134" lon="13.2944909"><ele>88.0</ele><time>2026-03-22T14:53:03.357Z</time></trkpt><trkpt lat="46.0376469" lon="13.2943782"><ele>88.0</ele><time>2026-03-22T14:53:04.343Z</time></trkpt><trkpt lat="46.03759" lon="13.2942712"><ele>88.0</ele><time>2026-03-22T14:53:05.358Z</time></trkpt><trkpt lat="46.0375369" lon="13.2941727"><ele>88.0</ele><time>2026-03-22T14:53:06.348Z</time></trkpt><trkpt lat="46.0374889" lon="13.2940767"><ele>88.0</ele><time>2026-03-22T14:53:07.346Z</time></trkpt><trkpt lat="46.0374492" lon="13.2939788"><ele>88.0</ele><time>2026-03-22T14:53:08.342Z</time></trkpt><trkpt lat="46.0374143" lon="13.293884"><ele>88.0</ele><time>2026-03-22T14:53:09.356Z</time></trkpt><trkpt lat="46.0373814" lon="13.2937951"><ele>88.0</ele><time>2026-03-22T14:53:10.341Z</time></trkpt><trkpt lat="46.0373618" lon="13.2936967"><ele>88.0</ele><time>2026-03-22T14:53:11.337Z</time></trkpt><trkpt lat="46.0373598" lon="13.2935845"><ele>88.2</ele><time>2026-03-22T14:53:12.348Z</time></trkpt><trkpt lat="46.0373732" lon="13.2934613"><ele>88.4</ele><time>2026-03-22T14:53:13.349Z</time></trkpt><trkpt lat="46.0373848" lon="13.2933268"><ele>88.60000000000001</ele><time>2026-03-22T14:53:14.343Z</time></trkpt><trkpt lat="46.0373571" lon="13.2931856"><ele>88.80000000000001</ele><time>2026-03-22T14:53:15.349Z</time></trkpt><trkpt lat="46.0373198" lon="13.2930529"><ele>89.0</ele><time>2026-03-22T14:53:16.349Z</time></trkpt><trkpt lat="46.0372561" lon="13.2929377"><ele>89.2</ele><time>2026-03-22T14:53:17.353Z</time></trkpt><trkpt lat="46.0371721" lon="13.2928494"><ele>89.4</ele><time>2026-03-22T14:53:18.358Z</time></trkpt><trkpt lat="46.0370752" lon="13.2928042"><ele>89.6</ele><time>2026-03-22T14:53:19.349Z</time></trkpt><trkpt lat="46.0369724" lon="13.292812"><ele>89.8</ele><time>2026-03-22T14:53:20.343Z</time></trkpt><trkpt lat="46.0368728" lon="13.2928185"><ele>90.0</ele><time>2026-03-22T14:53:21.338Z</time></trkpt><trkpt lat="46.0367712" lon="13.2928157"><ele>90.0</ele><time>2026-03-22T14:53:22.348Z</time></trkpt><trkpt lat="46.0366722" lon="13.2927347"><ele>90.0</ele><time>2026-03-22T14:53:23.365Z</time></trkpt><trkpt lat="46.0365704" lon="13.2926382"><ele>90.0</ele><time>2026-03-22T14:53:24.347Z</time></trkpt><trkpt lat="46.0364755" lon="13.2924988"><ele>90.0</ele><time>2026-03-22T14:53:25.358Z</time></trkpt><trkpt lat="46.0363815" lon="13.2923615"><ele>90.0</ele><time>2026-03-22T14:53:26.354Z</time></trkpt><trkpt lat="46.0362762" lon="13.292217"><ele>90.0</ele><time>2026-03-22T14:53:27.347Z</time></trkpt><trkpt lat="46.0361559" lon="13.2920362"><ele>90.0</ele><time>2026-03-22T14:53:28.352Z</time></trkpt><trkpt lat="46.0360138" lon="13.2918555"><ele>90.0</ele><time>2026-03-22T14:53:29.352Z</time></trkpt><trkpt lat="46.0358571" lon="13.2916425"><ele>90.0</ele><time>2026-03-22T14:53:30.344Z</time></trkpt><trkpt lat="46.0356983" lon="13.2913942"><ele>89.0</ele><time>2026-03-22T14:53:31.35Z</time></trkpt><trkpt lat="46.0355365" lon="13.2911481"><ele>88.0</ele><time>2026-03-22T14:53:32.354Z</time></trkpt><trkpt lat="46.0353671" lon="13.2909024"><ele>88.0</ele><time>2026-03-22T14:53:33.369Z</time></trkpt><trkpt lat="46.0351862" lon="13.2906334"><ele>88.0</ele><time>2026-03-22T14:53:34.352Z</time></trkpt><trkpt lat="46.0349789" lon="13.2903504"><ele>88.0</ele><time>2026-03-22T14:53:35.349Z</time></trkpt><trkpt lat="46.0347632" lon="13.290028"><ele>88.0</ele><time>2026-03-22T14:53:36.346Z</time></trkpt><trkpt lat="46.0345426" lon="13.289719"><ele>87.0</ele><time>2026-03-22T14:53:37.341Z</time></trkpt><trkpt lat="46.0343465" lon="13.2894153"><ele>86.0</ele><time>2026-03-22T14:53:38.349Z</time></trkpt><trkpt lat="46.0341573" lon="13.2891339"><ele>87.0</ele><time>2026-03-22T14:53:39.35Z</time></trkpt><trkpt lat="46.0339809" lon="13.2888568"><ele>88.0</ele><time>2026-03-22T14:53:40.346Z</time></trkpt><trkpt lat="46.0338069" lon="13.2885928"><ele>88.0</ele><time>2026-03-22T14:53:41.349Z</time></trkpt><trkpt lat="46.0336355" lon="13.2883374"><ele>88.0</ele><time>2026-03-22T14:53:42.351Z</time></trkpt><trkpt lat="46.0334656" lon="13.288094"><ele>87.0</ele><time>2026-03-22T14:53:43.363Z</time></trkpt><trkpt lat="46.0332915" lon="13.2878664"><ele>86.0</ele><time>2026-03-22T14:53:44.37Z</time></trkpt><trkpt lat="46.0331212" lon="13.2876271"><ele>86.0</ele><time>2026-03-22T14:53:45.378Z</time></trkpt><trkpt lat="46.0329517" lon="13.2873791"><ele>86.0</ele><time>2026-03-22T14:53:46.343Z</time></trkpt><trkpt lat="46.0327845" lon="13.287133"><ele>86.33333333333334</ele><time>2026-03-22T14:53:47.367Z</time></trkpt><trkpt lat="46.032626" lon="13.2868891"><ele>86.66666666666667</ele><time>2026-03-22T14:53:48.368Z</time></trkpt><trkpt lat="46.0324762" lon="13.2866721"><ele>87.0</ele><time>2026-03-22T14:53:49.356Z</time></trkpt><trkpt lat="46.0323387" lon="13.2864812"><ele>87.33333333333333</ele><time>2026-03-22T14:53:50.351Z</time></trkpt><trkpt lat="46.0322113" lon="13.2863096"><ele>87.66666666666666</ele><time>2026-03-22T14:53:51.352Z</time></trkpt><trkpt lat="46.0320877" lon="13.2861527"><ele>88.0</ele><time>2026-03-22T14:53:52.368Z</time></trkpt><trkpt lat="46.0319599" lon="13.2860068"><ele>88.0</ele><time>2026-03-22T14:53:53.361Z</time></trkpt><trkpt lat="46.0318229" lon="13.2858783"><ele>88.0</ele><time>2026-03-22T14:53:54.352Z</time></trkpt><trkpt lat="46.0316848" lon="13.2857563"><ele>88.0</ele><time>2026-03-22T14:53:55.36Z</time></trkpt><trkpt lat="46.0315493" lon="13.2856395"><ele>88.0</ele><time>2026-03-22T14:53:56.345Z</time></trkpt><trkpt lat="46.0314153" lon="13.2855227"><ele>88.0</ele><time>2026-03-22T14:53:57.354Z</time></trkpt><trkpt lat="46.0312801" lon="13.2853949"><ele>88.0</ele><time>2026-03-22T14:53:58.363Z</time></trkpt><trkpt lat="46.0311321" lon="13.2852615"><ele>88.0</ele><time>2026-03-22T14:53:59.342Z</time></trkpt><trkpt lat="46.0309681" lon="13.2851082"><ele>88.0</ele><time>2026-03-22T14:54:00.35Z</time></trkpt><trkpt lat="46.0307792" lon="13.2849477"><ele>88.0</ele><time>2026-03-22T14:54:01.364Z</time></trkpt><trkpt lat="46.030576" lon="13.2847453"><ele>88.5</ele><time>2026-03-22T14:54:02.345Z</time></trkpt><trkpt lat="46.0303499" lon="13.2845317"><ele>89.0</ele><time>2026-03-22T14:54:03.35Z</time></trkpt><trkpt lat="46.0301136" lon="13.2843053"><ele>87.5</ele><time>2026-03-22T14:54:04.351Z</time></trkpt><trkpt lat="46.0298791" lon="13.2840938"><ele>86.0</ele><time>2026-03-22T14:54:05.367Z</time></trkpt><trkpt lat="46.0296578" lon="13.2838938"><ele>86.0</ele><time>2026-03-22T14:54:06.377Z</time></trkpt><trkpt lat="46.0294509" lon="13.2837021"><ele>86.0</ele><time>2026-03-22T14:54:07.383Z</time></trkpt><trkpt lat="46.0292546" lon="13.2835236"><ele>86.33333333333334</ele><time>2026-03-22T14:54:08.35Z</time></trkpt><trkpt lat="46.0290676" lon="13.2833562"><ele>86.66666666666667</ele><time>2026-03-22T14:54:09.356Z</time></trkpt><trkpt lat="46.0288905" lon="13.283184"><ele>87.0</ele><time>2026-03-22T14:54:10.363Z</time></trkpt><trkpt lat="46.0287074" lon="13.2830307"><ele>87.33333333333333</ele><time>2026-03-22T14:54:11.363Z</time></trkpt><trkpt lat="46.0285268" lon="13.2828668"><ele>87.66666666666666</ele><time>2026-03-22T14:54:12.349Z</time></trkpt><trkpt lat="46.0283435" lon="13.2827015"><ele>88.0</ele><time>2026-03-22T14:54:13.358Z</time></trkpt><trkpt lat="46.02816" lon="13.2825323"><ele>87.33333333333333</ele><time>2026-03-22T14:54:14.356Z</time></trkpt><trkpt lat="46.02798" lon="13.282365"><ele>86.66666666666667</ele><time>2026-03-22T14:54:15.366Z</time></trkpt><trkpt lat="46.0278051" lon="13.2822032"><ele>86.0</ele><time>2026-03-22T14:54:16.347Z</time></trkpt><trkpt lat="46.0276353" lon="13.282051"><ele>86.0</ele><time>2026-03-22T14:54:17.374Z</time></trkpt><trkpt lat="46.0274719" lon="13.2819003"><ele>86.0</ele><time>2026-03-22T14:54:18.362Z</time></trkpt><trkpt lat="46.0273055" lon="13.2817526"><ele>86.0</ele><time>2026-03-22T14:54:19.358Z</time></trkpt><trkpt lat="46.0271483" lon="13.2815742"><ele>86.0</ele><time>2026-03-22T14:54:20.342Z</time></trkpt><trkpt lat="46.0269869" lon="13.2813926"><ele>86.0</ele><time>2026-03-22T14:54:21.359Z</time></trkpt><trkpt lat="46.0268411" lon="13.2811772"><ele>86.0</ele><time>2026-03-22T14:54:22.341Z</time></trkpt><trkpt lat="46.0267048" lon="13.2809512"><ele>85.66666666666667</ele><time>2026-03-22T14:54:23.355Z</time></trkpt><trkpt lat="46.0265752" lon="13.2807212"><ele>85.33333333333333</ele><time>2026-03-22T14:54:24.358Z</time></trkpt><trkpt lat="46.0264452" lon="13.2804975"><ele>85.0</ele><time>2026-03-22T14:54:25.354Z</time></trkpt><trkpt lat="46.0263193" lon="13.2802747"><ele>84.33333333333333</ele><time>2026-03-22T14:54:26.344Z</time></trkpt><trkpt lat="46.0261907" lon="13.2800617"><ele>83.66666666666667</ele><time>2026-03-22T14:54:27.35Z</time></trkpt><trkpt lat="46.0260617" lon="13.2798529"><ele>83.0</ele><time>2026-03-22T14:54:28.354Z</time></trkpt><trkpt lat="46.0259348" lon="13.2796433"><ele>84.66666666666667</ele><time>2026-03-22T14:54:29.342Z</time></trkpt><trkpt lat="46.0258067" lon="13.279436"><ele>86.33333333333333</ele><time>2026-03-22T14:54:30.354Z</time></trkpt><trkpt lat="46.0256854" lon="13.2792232"><ele>88.0</ele><time>2026-03-22T14:54:31.375Z</time></trkpt><trkpt lat="46.025561" lon="13.2790236"><ele>87.33333333333333</ele><time>2026-03-22T14:54:32.348Z</time></trkpt><trkpt lat="46.0254418" lon="13.2788258"><ele>86.66666666666667</ele><time>2026-03-22T14:54:33.349Z</time></trkpt><trkpt lat="46.0253332" lon="13.2786237"><ele>86.0</ele><time>2026-03-22T14:54:34.349Z</time></trkpt><trkpt lat="46.0252277" lon="13.2784264"><ele>86.0</ele><time>2026-03-22T14:54:35.344Z</time></trkpt><trkpt lat="46.0251311" lon="13.2782225"><ele>86.0</ele><time>2026-03-22T14:54:36.353Z</time></trkpt><trkpt lat="46.0250379" lon="13.2780153"><ele>86.0</ele><time>2026-03-22T14:54:37.348Z</time></trkpt><trkpt lat="46.0249564" lon="13.2777927"><ele>86.33333333333334</ele><time>2026-03-22T14:54:38.368Z</time></trkpt><trkpt lat="46.0248835" lon="13.2775583"><ele>86.66666666666667</ele><time>2026-03-22T14:54:39.371Z</time></trkpt><trkpt lat="46.024812" lon="13.2773177"><ele>87.0</ele><time>2026-03-22T14:54:40.353Z</time></trkpt><trkpt lat="46.0247413" lon="13.2770726"><ele>86.33333333333333</ele><time>2026-03-22T14:54:41.346Z</time></trkpt><trkpt lat="46.0246691" lon="13.2768209"><ele>85.66666666666666</ele><time>2026-03-22T14:54:42.368Z</time></trkpt><trkpt lat="46.0245987" lon="13.2765669"><ele>85.0</ele><time>2026-03-22T14:54:43.355Z</time></trkpt><trkpt lat="46.024527" lon="13.2763093"><ele>85.0</ele><time>2026-03-22T14:54:44.363Z</time></trkpt><trkpt lat="46.0244596" lon="13.2760442"><ele>85.0</ele><time>2026-03-22T14:54:45.358Z</time></trkpt><trkpt lat="46.0243952" lon="13.2757774"><ele>85.0</ele><time>2026-03-22T14:54:46.354Z</time></trkpt><trkpt lat="46.0243365" lon="13.2755153"><ele>85.0</ele><time>2026-03-22T14:54:47.356Z</time></trkpt><trkpt lat="46.0242771" lon="13.2752693"><ele>85.0</ele><time>2026-03-22T14:54:48.351Z</time></trkpt><trkpt lat="46.0242205" lon="13.275035"><ele>85.0</ele><time>2026-03-22T14:54:49.361Z</time></trkpt><trkpt lat="46.0241624" lon="13.2748027"><ele>84.66666666666666</ele><time>2026-03-22T14:54:50.363Z</time></trkpt><trkpt lat="46.0241131" lon="13.2745651"><ele>84.33333333333333</ele><time>2026-03-22T14:54:51.355Z</time></trkpt><trkpt lat="46.0240511" lon="13.2743339"><ele>84.0</ele><time>2026-03-22T14:54:52.346Z</time></trkpt><trkpt lat="46.0239936" lon="13.274109"><ele>85.0</ele><time>2026-03-22T14:54:53.355Z</time></trkpt><trkpt lat="46.0239329" lon="13.2738881"><ele>86.0</ele><time>2026-03-22T14:54:54.346Z</time></trkpt><trkpt lat="46.0238779" lon="13.2736781"><ele>87.0</ele><time>2026-03-22T14:54:55.349Z</time></trkpt><trkpt lat="46.0238279" lon="13.2734787"><ele>87.0</ele><time>2026-03-22T14:54:56.351Z</time></trkpt><trkpt lat="46.0237776" lon="13.2732919"><ele>87.0</ele><time>2026-03-22T14:54:57.353Z</time></trkpt><trkpt lat="46.0237219" lon="13.2731139"><ele>87.0</ele><time>2026-03-22T14:54:58.332Z</time></trkpt><trkpt lat="46.0236603" lon="13.2729356"><ele>87.0</ele><time>2026-03-22T14:54:59.37Z</time></trkpt><trkpt lat="46.023587" lon="13.2727597"><ele>86.33333333333333</ele><time>2026-03-22T14:55:00.352Z</time></trkpt><trkpt lat="46.0235102" lon="13.2725739"><ele>85.66666666666666</ele><time>2026-03-22T14:55:01.357Z</time></trkpt><trkpt lat="46.0234233" lon="13.2723854"><ele>85.0</ele><time>2026-03-22T14:55:02.364Z</time></trkpt><trkpt lat="46.0233361" lon="13.2721765"><ele>85.0</ele><time>2026-03-22T14:55:03.352Z</time></trkpt><trkpt lat="46.0232436" lon="13.2719478"><ele>85.0</ele><time>2026-03-22T14:55:04.366Z</time></trkpt><trkpt lat="46.0231546" lon="13.2716915"><ele>85.0</ele><time>2026-03-22T14:55:05.366Z</time></trkpt><trkpt lat="46.0230703" lon="13.2714179"><ele>85.0</ele><time>2026-03-22T14:55:06.359Z</time></trkpt><trkpt lat="46.0230033" lon="13.2711377"><ele>85.0</ele><time>2026-03-22T14:55:07.344Z</time></trkpt><trkpt lat="46.0229514" lon="13.2708658"><ele>85.0</ele><time>2026-03-22T14:55:08.348Z</time></trkpt><trkpt lat="46.0229047" lon="13.2706125"><ele>85.0</ele><time>2026-03-22T14:55:09.351Z</time></trkpt><trkpt lat="46.0228537" lon="13.2703768"><ele>85.0</ele><time>2026-03-22T14:55:10.364Z</time></trkpt><trkpt lat="46.0228033" lon="13.2701544"><ele>85.0</ele><time>2026-03-22T14:55:11.363Z</time></trkpt><trkpt lat="46.0227558" lon="13.2699439"><ele>85.0</ele><time>2026-03-22T14:55:12.369Z</time></trkpt><trkpt lat="46.0227132" lon="13.2697464"><ele>85.0</ele><time>2026-03-22T14:55:13.346Z</time></trkpt><trkpt lat="46.0226698" lon="13.2695696"><ele>85.0</ele><time>2026-03-22T14:55:14.361Z</time></trkpt><trkpt lat="46.0226349" lon="13.269402"><ele>85.0</ele><time>2026-03-22T14:55:15.356Z</time></trkpt><trkpt lat="46.0225989" lon="13.2692454"><ele>85.0</ele><time>2026-03-22T14:55:16.342Z</time></trkpt><trkpt lat="46.0225587" lon="13.2690978"><ele>85.0</ele><time>2026-03-22T14:55:17.337Z</time></trkpt><trkpt lat="46.0225271" lon="13.2689518"><ele>85.0</ele><time>2026-03-22T14:55:18.343Z</time></trkpt><trkpt lat="46.0224918" lon="13.2688097"><ele>85.0</ele><time>2026-03-22T14:55:19.342Z</time></trkpt><trkpt lat="46.0224448" lon="13.2686775"><ele>85.0</ele><time>2026-03-22T14:55:20.345Z</time></trkpt><trkpt lat="46.0224045" lon="13.2685567"><ele>84.66666666666666</ele><time>2026-03-22T14:55:21.351Z</time></trkpt><trkpt lat="46.0223693" lon="13.2684508"><ele>84.33333333333333</ele><time>2026-03-22T14:55:22.35Z</time></trkpt><trkpt lat="46.0223358" lon="13.2683551"><ele>84.0</ele><time>2026-03-22T14:55:23.336Z</time></trkpt><trkpt lat="46.0222898" lon="13.2682744"><ele>83.66666666666667</ele><time>2026-03-22T14:55:24.344Z</time></trkpt><trkpt lat="46.0222303" lon="13.268219"><ele>83.33333333333334</ele><time>2026-03-22T14:55:25.341Z</time></trkpt><trkpt lat="46.0221562" lon="13.2681987"><ele>83.0</ele><time>2026-03-22T14:55:26.352Z</time></trkpt><trkpt lat="46.0220804" lon="13.268191"><ele>83.0</ele><time>2026-03-22T14:55:27.341Z</time></trkpt><trkpt lat="46.0220053" lon="13.2681823"><ele>83.0</ele><time>2026-03-22T14:55:28.345Z</time></trkpt><trkpt lat="46.0219359" lon="13.2681554"><ele>83.0</ele><time>2026-03-22T14:55:29.373Z</time></trkpt><trkpt lat="46.0218811" lon="13.2680756"><ele>83.0</ele><time>2026-03-22T14:55:30.337Z</time></trkpt><trkpt lat="46.0218294" lon="13.2679865"><ele>83.0</ele><time>2026-03-22T14:55:31.343Z</time></trkpt><trkpt lat="46.021793" lon="13.2678839"><ele>83.0</ele><time>2026-03-22T14:55:32.344Z</time></trkpt><trkpt lat="46.0217631" lon="13.2677744"><ele>83.0</ele><time>2026-03-22T14:55:33.341Z</time></trkpt><trkpt lat="46.0217453" lon="13.2676469"><ele>83.0</ele><time>2026-03-22T14:55:34.349Z</time></trkpt><trkpt lat="46.0217257" lon="13.2675034"><ele>83.0</ele><time>2026-03-22T14:55:35.337Z</time></trkpt><trkpt lat="46.0216758" lon="13.2673604"><ele>83.0</ele><time>2026-03-22T14:55:36.339Z</time></trkpt><trkpt lat="46.0216092" lon="13.2672231"><ele>83.0</ele><time>2026-03-22T14:55:37.341Z</time></trkpt><trkpt lat="46.0215332" lon="13.2670893"><ele>82.75</ele><time>2026-03-22T14:55:38.358Z</time></trkpt><trkpt lat="46.0214418" lon="13.2669747"><ele>82.5</ele><time>2026-03-22T14:55:39.345Z</time></trkpt><trkpt lat="46.0213314" lon="13.2668749"><ele>82.25</ele><time>2026-03-22T14:55:40.339Z</time></trkpt><trkpt lat="46.0212094" lon="13.2668023"><ele>82.0</ele><time>2026-03-22T14:55:41.348Z</time></trkpt><trkpt lat="46.0210792" lon="13.2667596"><ele>82.0</ele><time>2026-03-22T14:55:42.344Z</time></trkpt><trkpt lat="46.0209426" lon="13.266753"><ele>82.0</ele><time>2026-03-22T14:55:43.35Z</time></trkpt><trkpt lat="46.0208088" lon="13.2667584"><ele>82.0</ele><time>2026-03-22T14:55:44.369Z</time></trkpt><trkpt lat="46.0206781" lon="13.2667782"><ele>82.0</ele><time>2026-03-22T14:55:45.361Z</time></trkpt><trkpt lat="46.0205457" lon="13.2667929"><ele>82.0</ele><time>2026-03-22T14:55:46.344Z</time></trkpt><trkpt lat="46.0204038" lon="13.266823"><ele>82.0</ele><time>2026-03-22T14:55:47.355Z</time></trkpt><trkpt lat="46.0202545" lon="13.2668721"><ele>82.0</ele><time>2026-03-22T14:55:48.362Z</time></trkpt><trkpt lat="46.0201035" lon="13.2669464"><ele>82.0</ele><time>2026-03-22T14:55:49.372Z</time></trkpt><trkpt lat="46.0199526" lon="13.2670415"><ele>82.0</ele><time>2026-03-22T14:55:50.373Z</time></trkpt><trkpt lat="46.0198032" lon="13.2671587"><ele>82.0</ele><time>2026-03-22T14:55:51.376Z</time></trkpt><trkpt lat="46.0196555" lon="13.2672869"><ele>82.0</ele><time>2026-03-22T14:55:52.35Z</time></trkpt><trkpt lat="46.0195144" lon="13.2674372"><ele>82.0</ele><time>2026-03-22T14:55:53.359Z</time></trkpt><trkpt lat="46.019384" lon="13.2675998"><ele>82.0</ele><time>2026-03-22T14:55:54.344Z</time></trkpt><trkpt lat="46.0192667" lon="13.2677633"><ele>82.0</ele><time>2026-03-22T14:55:55.349Z</time></trkpt><trkpt lat="46.0191781" lon="13.2679496"><ele>82.0</ele><time>2026-03-22T14:55:56.34Z</time></trkpt><trkpt lat="46.0191104" lon="13.2681453"><ele>82.0</ele><time>2026-03-22T14:55:57.362Z</time></trkpt><trkpt lat="46.0190754" lon="13.2683471"><ele>81.75</ele><time>2026-03-22T14:55:58.342Z</time></trkpt><trkpt lat="46.0190426" lon="13.2685403"><ele>81.5</ele><time>2026-03-22T14:55:59.35Z</time></trkpt><trkpt lat="46.0189906" lon="13.2687251"><ele>81.25</ele><time>2026-03-22T14:56:00.346Z</time></trkpt><trkpt lat="46.0189029" lon="13.2688829"><ele>81.0</ele><time>2026-03-22T14:56:01.359Z</time></trkpt><trkpt lat="46.0187719" lon="13.2689863"><ele>81.0</ele><time>2026-03-22T14:56:02.358Z</time></trkpt><trkpt lat="46.0186322" lon="13.2690843"><ele>81.0</ele><time>2026-03-22T14:56:03.363Z</time></trkpt><trkpt lat="46.0184565" lon="13.2691454"><ele>81.0</ele><time>2026-03-22T14:56:04.343Z</time></trkpt><trkpt lat="46.0182616" lon="13.269178"><ele>80.33333333333333</ele><time>2026-03-22T14:56:05.35Z</time></trkpt><trkpt lat="46.0180635" lon="13.2692269"><ele>79.66666666666666</ele><time>2026-03-22T14:56:06.358Z</time></trkpt><trkpt lat="46.0178687" lon="13.2692795"><ele>79.0</ele><time>2026-03-22T14:56:07.351Z</time></trkpt><trkpt lat="46.01768" lon="13.269332"><ele>79.0</ele><time>2026-03-22T14:56:08.34Z</time></trkpt><trkpt lat="46.0174936" lon="13.2693807"><ele>79.0</ele><time>2026-03-22T14:56:09.353Z</time></trkpt><trkpt lat="46.017306" lon="13.2694325"><ele>79.0</ele><time>2026-03-22T14:56:10.346Z</time></trkpt><trkpt lat="46.0171166" lon="13.2694877"><ele>79.0</ele><time>2026-03-22T14:56:11.345Z</time></trkpt><trkpt lat="46.0169268" lon="13.2695398"><ele>79.0</ele><time>2026-03-22T14:56:12.349Z</time></trkpt><trkpt lat="46.016738" lon="13.2695919"><ele>79.0</ele><time>2026-03-22T14:56:13.351Z</time></trkpt><trkpt lat="46.0165505" lon="13.2696419"><ele>79.0</ele><time>2026-03-22T14:56:14.351Z</time></trkpt><trkpt lat="46.016364" lon="13.2696962"><ele>79.0</ele><time>2026-03-22T14:56:15.365Z</time></trkpt><trkpt lat="46.0161786" lon="13.2697483"><ele>79.0</ele><time>2026-03-22T14:56:16.362Z</time></trkpt><trkpt lat="46.0159946" lon="13.2698055"><ele>79.0</ele><time>2026-03-22T14:56:17.368Z</time></trkpt><trkpt lat="46.0158107" lon="13.2698507"><ele>79.0</ele><time>2026-03-22T14:56:18.357Z</time></trkpt><trkpt lat="46.0156285" lon="13.2698944"><ele>79.0</ele><time>2026-03-22T14:56:19.36Z</time></trkpt><trkpt lat="46.0154475" lon="13.269942"><ele>79.0</ele><time>2026-03-22T14:56:20.361Z</time></trkpt><trkpt lat="46.0152652" lon="13.2699778"><ele>79.0</ele><time>2026-03-22T14:56:21.362Z</time></trkpt><trkpt lat="46.0150843" lon="13.2700252"><ele>79.0</ele><time>2026-03-22T14:56:22.36Z</time></trkpt><trkpt lat="46.0149035" lon="13.2700743"><ele>78.66666666666666</ele><time>2026-03-22T14:56:23.357Z</time></trkpt><trkpt lat="46.0147228" lon="13.2701212"><ele>78.33333333333333</ele><time>2026-03-22T14:56:24.349Z</time></trkpt><trkpt lat="46.0145455" lon="13.270182"><ele>78.0</ele><time>2026-03-22T14:56:25.352Z</time></trkpt><trkpt lat="46.0143686" lon="13.2702327"><ele>78.0</ele><time>2026-03-22T14:56:26.362Z</time></trkpt><trkpt lat="46.0141945" lon="13.2702667"><ele>78.0</ele><time>2026-03-22T14:56:27.354Z</time></trkpt><trkpt lat="46.0140295" lon="13.2703102"><ele>78.0</ele><time>2026-03-22T14:56:28.366Z</time></trkpt><trkpt lat="46.0138726" lon="13.2703629"><ele>77.75</ele><time>2026-03-22T14:56:29.349Z</time></trkpt><trkpt lat="46.0137261" lon="13.2703894"><ele>77.5</ele><time>2026-03-22T14:56:30.351Z</time></trkpt><trkpt lat="46.0135937" lon="13.2704016"><ele>77.25</ele><time>2026-03-22T14:56:31.378Z</time></trkpt><trkpt lat="46.013475" lon="13.27039"><ele>77.0</ele><time>2026-03-22T14:56:32.348Z</time></trkpt><trkpt lat="46.013368" lon="13.2703457"><ele>76.25</ele><time>2026-03-22T14:56:33.351Z</time></trkpt><trkpt lat="46.0132696" lon="13.270271"><ele>75.5</ele><time>2026-03-22T14:56:34.362Z</time></trkpt><trkpt lat="46.0131759" lon="13.2701708"><ele>74.75</ele><time>2026-03-22T14:56:35.359Z</time></trkpt><trkpt lat="46.0130669" lon="13.2700799"><ele>74.0</ele><time>2026-03-22T14:56:36.356Z</time></trkpt><trkpt lat="46.0129469" lon="13.2699984"><ele>74.0</ele><time>2026-03-22T14:56:37.372Z</time></trkpt><trkpt lat="46.0128077" lon="13.2699923"><ele>74.0</ele><time>2026-03-22T14:56:38.35Z</time></trkpt><trkpt lat="46.0126689" lon="13.2700357"><ele>74.0</ele><time>2026-03-22T14:56:39.362Z</time></trkpt><trkpt lat="46.0125466" lon="13.2701372"><ele>74.0</ele><time>2026-03-22T14:56:40.362Z</time></trkpt><trkpt lat="46.012449" lon="13.2702823"><ele>74.0</ele><time>2026-03-22T14:56:41.365Z</time></trkpt><trkpt lat="46.0123724" lon="13.2704445"><ele>74.0</ele><time>2026-03-22T14:56:42.345Z</time></trkpt><trkpt lat="46.0123005" lon="13.2705984"><ele>74.0</ele><time>2026-03-22T14:56:43.348Z</time></trkpt><trkpt lat="46.0122013" lon="13.2707307"><ele>74.0</ele><time>2026-03-22T14:56:44.352Z</time></trkpt><trkpt lat="46.0120751" lon="13.2708481"><ele>74.0</ele><time>2026-03-22T14:56:45.362Z</time></trkpt><trkpt lat="46.0119153" lon="13.2709247"><ele>74.0</ele><time>2026-03-22T14:56:46.354Z</time></trkpt><trkpt lat="46.0117355" lon="13.2709805"><ele>74.0</ele><time>2026-03-22T14:56:47.351Z</time></trkpt><trkpt lat="46.0115446" lon="13.2710317"><ele>74.0</ele><time>2026-03-22T14:56:48.34Z</time></trkpt><trkpt lat="46.011342" lon="13.2710625"><ele>74.0</ele><time>2026-03-22T14:56:49.351Z</time></trkpt><trkpt lat="46.0111481" lon="13.2711243"><ele>74.0</ele><time>2026-03-22T14:56:50.34Z</time></trkpt><trkpt lat="46.0109633" lon="13.2711804"><ele>74.0</ele><time>2026-03-22T14:56:51.341Z</time></trkpt><trkpt lat="46.0107844" lon="13.2712309"><ele>74.0</ele><time>2026-03-22T14:56:52.344Z</time></trkpt><trkpt lat="46.0106052" lon="13.2712696"><ele>74.0</ele><time>2026-03-22T14:56:53.346Z</time></trkpt><trkpt lat="46.0104248" lon="13.2713208"><ele>74.0</ele><time>2026-03-22T14:56:54.343Z</time></trkpt><trkpt lat="46.0102423" lon="13.2713671"><ele>74.0</ele><time>2026-03-22T14:56:55.358Z</time></trkpt><trkpt lat="46.0100595" lon="13.2714225"><ele>74.0</ele><time>2026-03-22T14:56:56.346Z</time></trkpt><trkpt lat="46.0098752" lon="13.2714844"><ele>74.0</ele><time>2026-03-22T14:56:57.348Z</time></trkpt><trkpt lat="46.009687" lon="13.2715408"><ele>74.0</ele><time>2026-03-22T14:56:58.365Z</time></trkpt><trkpt lat="46.0094959" lon="13.271596"><ele>74.0</ele><time>2026-03-22T14:56:59.367Z</time></trkpt><trkpt lat="46.0093028" lon="13.2716412"><ele>74.0</ele><time>2026-03-22T14:57:00.361Z</time></trkpt><trkpt lat="46.0091087" lon="13.271697"><ele>74.0</ele><time>2026-03-22T14:57:01.358Z</time></trkpt><trkpt lat="46.0089122" lon="13.2717479"><ele>74.0</ele><time>2026-03-22T14:57:02.361Z</time></trkpt><trkpt lat="46.008715" lon="13.2717981"><ele>74.0</ele><time>2026-03-22T14:57:03.351Z</time></trkpt><trkpt lat="46.0085207" lon="13.2718494"><ele>74.0</ele><time>2026-03-22T14:57:04.349Z</time></trkpt><trkpt lat="46.0083303" lon="13.2718955"><ele>74.0</ele><time>2026-03-22T14:57:05.369Z</time></trkpt><trkpt lat="46.0081437" lon="13.2719472"><ele>74.0</ele><time>2026-03-22T14:57:06.35Z</time></trkpt><trkpt lat="46.0079598" lon="13.271995"><ele>74.0</ele><time>2026-03-22T14:57:07.351Z</time></trkpt><trkpt lat="46.0077782" lon="13.2720375"><ele>74.0</ele><time>2026-03-22T14:57:08.357Z</time></trkpt><trkpt lat="46.0075985" lon="13.2720809"><ele>73.0</ele><time>2026-03-22T14:57:09.359Z</time></trkpt><trkpt lat="46.0074212" lon="13.2721458"><ele>72.0</ele><time>2026-03-22T14:57:10.358Z</time></trkpt><trkpt lat="46.0072401" lon="13.2721921"><ele>71.0</ele><time>2026-03-22T14:57:11.361Z</time></trkpt><trkpt lat="46.0070632" lon="13.2722412"><ele>71.33333333333334</ele><time>2026-03-22T14:57:12.353Z</time></trkpt><trkpt lat="46.0068909" lon="13.2722941"><ele>71.66666666666667</ele><time>2026-03-22T14:57:13.346Z</time></trkpt><trkpt lat="46.0067224" lon="13.2723386"><ele>72.0</ele><time>2026-03-22T14:57:14.34Z</time></trkpt><trkpt lat="46.0065555" lon="13.2723867"><ele>72.33333333333333</ele><time>2026-03-22T14:57:15.351Z</time></trkpt><trkpt lat="46.0063884" lon="13.2724359"><ele>72.66666666666666</ele><time>2026-03-22T14:57:16.356Z</time></trkpt><trkpt lat="46.0062192" lon="13.2724749"><ele>73.0</ele><time>2026-03-22T14:57:17.357Z</time></trkpt><trkpt lat="46.0060498" lon="13.272527"><ele>73.0</ele><time>2026-03-22T14:57:18.352Z</time></trkpt><trkpt lat="46.0058781" lon="13.2725716"><ele>73.0</ele><time>2026-03-22T14:57:19.357Z</time></trkpt><trkpt lat="46.0057056" lon="13.2726148"><ele>73.0</ele><time>2026-03-22T14:57:20.363Z</time></trkpt><trkpt lat="46.0055322" lon="13.2726581"><ele>72.66666666666666</ele><time>2026-03-22T14:57:21.377Z</time></trkpt><trkpt lat="46.005359" lon="13.2727055"><ele>72.33333333333333</ele><time>2026-03-22T14:57:22.351Z</time></trkpt><trkpt lat="46.0051848" lon="13.2727533"><ele>72.0</ele><time>2026-03-22T14:57:23.357Z</time></trkpt><trkpt lat="46.0050078" lon="13.2728003"><ele>72.0</ele><time>2026-03-22T14:57:24.365Z</time></trkpt><trkpt lat="46.0048291" lon="13.2728503"><ele>72.0</ele><time>2026-03-22T14:57:25.348Z</time></trkpt><trkpt lat="46.0046491" lon="13.2728991"><ele>72.0</ele><time>2026-03-22T14:57:26.357Z</time></trkpt><trkpt lat="46.0044688" lon="13.272949"><ele>72.0</ele><time>2026-03-22T14:57:27.362Z</time></trkpt><trkpt lat="46.0042868" lon="13.2729923"><ele>72.0</ele><time>2026-03-22T14:57:28.369Z</time></trkpt><trkpt lat="46.0041054" lon="13.2730439"><ele>72.0</ele><time>2026-03-22T14:57:29.377Z</time></trkpt><trkpt lat="46.0039229" lon="13.2730891"><ele>71.66666666666667</ele><time>2026-03-22T14:57:30.359Z</time></trkpt><trkpt lat="46.0037397" lon="13.2731337"><ele>71.33333333333334</ele><time>2026-03-22T14:57:31.37Z</time></trkpt><trkpt lat="46.0035586" lon="13.2731767"><ele>71.0</ele><time>2026-03-22T14:57:32.364Z</time></trkpt><trkpt lat="46.0033797" lon="13.2732175"><ele>71.33333333333334</ele><time>2026-03-22T14:57:33.356Z</time></trkpt><trkpt lat="46.0032044" lon="13.2732646"><ele>71.66666666666667</ele><time>2026-03-22T14:57:34.376Z</time></trkpt><trkpt lat="46.0030267" lon="13.27329"><ele>72.0</ele><time>2026-03-22T14:57:35.37Z</time></trkpt><trkpt lat="46.0028419" lon="13.2733249"><ele>72.0</ele><time>2026-03-22T14:57:36.357Z</time></trkpt><trkpt lat="46.0026481" lon="13.2733658"><ele>72.0</ele><time>2026-03-22T14:57:37.357Z</time></trkpt><trkpt lat="46.0024522" lon="13.27341"><ele>72.0</ele><time>2026-03-22T14:57:38.35Z</time></trkpt><trkpt lat="46.0022579" lon="13.2734419"><ele>71.66666666666667</ele><time>2026-03-22T14:57:39.356Z</time></trkpt><trkpt lat="46.0020678" lon="13.2734754"><ele>71.33333333333334</ele><time>2026-03-22T14:57:40.354Z</time></trkpt><trkpt lat="46.0018798" lon="13.2735043"><ele>71.0</ele><time>2026-03-22T14:57:41.35Z</time></trkpt><trkpt lat="46.001695" lon="13.2735358"><ele>72.33333333333334</ele><time>2026-03-22T14:57:42.349Z</time></trkpt><trkpt lat="46.001511" lon="13.2735653"><ele>73.66666666666667</ele><time>2026-03-22T14:57:43.36Z</time></trkpt><trkpt lat="46.0013265" lon="13.2735983"><ele>75.0</ele><time>2026-03-22T14:57:44.363Z</time></trkpt><trkpt lat="46.0011395" lon="13.2736273"><ele>75.0</ele><time>2026-03-22T14:57:45.369Z</time></trkpt><trkpt lat="46.0009519" lon="13.2736611"><ele>75.0</ele><time>2026-03-22T14:57:46.346Z</time></trkpt><trkpt lat="46.0007615" lon="13.2736908"><ele>75.0</ele><time>2026-03-22T14:57:47.366Z</time></trkpt><trkpt lat="46.0005682" lon="13.2737224"><ele>73.66666666666667</ele><time>2026-03-22T14:57:48.368Z</time></trkpt><trkpt lat="46.0003735" lon="13.2737502"><ele>72.33333333333334</ele><time>2026-03-22T14:57:49.371Z</time></trkpt><trkpt lat="46.0001777" lon="13.273782"><ele>71.0</ele><time>2026-03-22T14:57:50.357Z</time></trkpt><trkpt lat="45.9999807" lon="13.273813"><ele>71.0</ele><time>2026-03-22T14:57:51.38Z</time></trkpt><trkpt lat="45.9997823" lon="13.2738419"><ele>71.0</ele><time>2026-03-22T14:57:52.361Z</time></trkpt><trkpt lat="45.9995825" lon="13.2738732"><ele>71.0</ele><time>2026-03-22T14:57:53.355Z</time></trkpt><trkpt lat="45.9993815" lon="13.2739068"><ele>71.33333333333334</ele><time>2026-03-22T14:57:54.366Z</time></trkpt><trkpt lat="45.9991788" lon="13.2739407"><ele>71.66666666666667</ele><time>2026-03-22T14:57:55.351Z</time></trkpt><trkpt lat="45.9989755" lon="13.2739766"><ele>72.0</ele><time>2026-03-22T14:57:56.364Z</time></trkpt><trkpt lat="45.9987735" lon="13.2740123"><ele>72.33333333333333</ele><time>2026-03-22T14:57:57.369Z</time></trkpt><trkpt lat="45.998573" lon="13.2740362"><ele>72.66666666666666</ele><time>2026-03-22T14:57:58.349Z</time></trkpt><trkpt lat="45.9983741" lon="13.2740642"><ele>73.0</ele><time>2026-03-22T14:57:59.368Z</time></trkpt><trkpt lat="45.9981771" lon="13.2741"><ele>72.33333333333333</ele><time>2026-03-22T14:58:00.346Z</time></trkpt><trkpt lat="45.99798" lon="13.274133"><ele>71.66666666666667</ele><time>2026-03-22T14:58:01.362Z</time></trkpt><trkpt lat="45.9977833" lon="13.2741649"><ele>71.0</ele><time>2026-03-22T14:58:02.352Z</time></trkpt><trkpt lat="45.9975844" lon="13.2741916"><ele>70.33333333333334</ele><time>2026-03-22T14:58:03.357Z</time></trkpt><trkpt lat="45.9973872" lon="13.2742247"><ele>69.66666666666667</ele><time>2026-03-22T14:58:04.379Z</time></trkpt><trkpt lat="45.9971913" lon="13.2742578"><ele>69.0</ele><time>2026-03-22T14:58:05.36Z</time></trkpt><trkpt lat="45.9969959" lon="13.2742906"><ele>69.0</ele><time>2026-03-22T14:58:06.359Z</time></trkpt><trkpt lat="45.9968022" lon="13.27433"><ele>69.0</ele><time>2026-03-22T14:58:07.364Z</time></trkpt><trkpt lat="45.9966061" lon="13.2743503"><ele>69.0</ele><time>2026-03-22T14:58:08.349Z</time></trkpt><trkpt lat="45.9964103" lon="13.2743841"><ele>69.33333333333333</ele><time>2026-03-22T14:58:09.359Z</time></trkpt><trkpt lat="45.9962129" lon="13.2744132"><ele>69.66666666666666</ele><time>2026-03-22T14:58:10.379Z</time></trkpt><trkpt lat="45.9960211" lon="13.2744443"><ele>70.0</ele><time>2026-03-22T14:58:11.358Z</time></trkpt><trkpt lat="45.995832" lon="13.2744694"><ele>69.0</ele><time>2026-03-22T14:58:12.36Z</time></trkpt><trkpt lat="45.9956482" lon="13.2745048"><ele>68.0</ele><time>2026-03-22T14:58:13.368Z</time></trkpt><trkpt lat="45.9954663" lon="13.2745324"><ele>67.0</ele><time>2026-03-22T14:58:14.354Z</time></trkpt><trkpt lat="45.9952857" lon="13.2745608"><ele>67.0</ele><time>2026-03-22T14:58:15.355Z</time></trkpt><trkpt lat="45.9951054" lon="13.2745904"><ele>67.0</ele><time>2026-03-22T14:58:16.353Z</time></trkpt><trkpt lat="45.9949242" lon="13.2746225"><ele>67.0</ele><time>2026-03-22T14:58:17.349Z</time></trkpt><trkpt lat="45.9947406" lon="13.2746417"><ele>67.0</ele><time>2026-03-22T14:58:18.35Z</time></trkpt><trkpt lat="45.9945612" lon="13.2746688"><ele>67.0</ele><time>2026-03-22T14:58:19.357Z</time></trkpt><trkpt lat="45.9943803" lon="13.2746943"><ele>67.0</ele><time>2026-03-22T14:58:20.36Z</time></trkpt><trkpt lat="45.9942002" lon="13.2747219"><ele>67.0</ele><time>2026-03-22T14:58:21.367Z</time></trkpt><trkpt lat="45.9940223" lon="13.2747585"><ele>67.0</ele><time>2026-03-22T14:58:22.355Z</time></trkpt><trkpt lat="45.993844" lon="13.2747911"><ele>67.0</ele><time>2026-03-22T14:58:23.363Z</time></trkpt><trkpt lat="45.9936642" lon="13.2748217"><ele>66.33333333333333</ele><time>2026-03-22T14:58:24.36Z</time></trkpt><trkpt lat="45.9934828" lon="13.2748512"><ele>65.66666666666667</ele><time>2026-03-22T14:58:25.348Z</time></trkpt><trkpt lat="45.9933006" lon="13.274884"><ele>65.0</ele><time>2026-03-22T14:58:26.35Z</time></trkpt><trkpt lat="45.9931158" lon="13.2749114"><ele>65.0</ele><time>2026-03-22T14:58:27.347Z</time></trkpt><trkpt lat="45.9929283" lon="13.2749474"><ele>65.0</ele><time>2026-03-22T14:58:28.35Z</time></trkpt><trkpt lat="45.9927378" lon="13.2749795"><ele>65.0</ele><time>2026-03-22T14:58:29.363Z</time></trkpt><trkpt lat="45.9925423" lon="13.2750018"><ele>65.0</ele><time>2026-03-22T14:58:30.364Z</time></trkpt><trkpt lat="45.992349" lon="13.2750398"><ele>65.0</ele><time>2026-03-22T14:58:31.368Z</time></trkpt><trkpt lat="45.9921519" lon="13.2750698"><ele>65.0</ele><time>2026-03-22T14:58:32.347Z</time></trkpt><trkpt lat="45.991958" lon="13.2751134"><ele>65.0</ele><time>2026-03-22T14:58:33.35Z</time></trkpt><trkpt lat="45.9917654" lon="13.2751522"><ele>65.0</ele><time>2026-03-22T14:58:34.345Z</time></trkpt><trkpt lat="45.9915771" lon="13.2751895"><ele>65.0</ele><time>2026-03-22T14:58:35.373Z</time></trkpt><trkpt lat="45.9913912" lon="13.2752299"><ele>65.33333333333334</ele><time>2026-03-22T14:58:36.353Z</time></trkpt><trkpt lat="45.9912068" lon="13.2752772"><ele>65.66666666666667</ele><time>2026-03-22T14:58:37.376Z</time></trkpt><trkpt lat="45.9910234" lon="13.2753256"><ele>66.0</ele><time>2026-03-22T14:58:38.368Z</time></trkpt><trkpt lat="45.9908414" lon="13.2753766"><ele>65.33333333333333</ele><time>2026-03-22T14:58:39.355Z</time></trkpt><trkpt lat="45.9906591" lon="13.2754134"><ele>64.66666666666666</ele><time>2026-03-22T14:58:40.369Z</time></trkpt><trkpt lat="45.9904857" lon="13.2754659"><ele>64.0</ele><time>2026-03-22T14:58:41.347Z</time></trkpt><trkpt lat="45.9903174" lon="13.2755178"><ele>64.0</ele><time>2026-03-22T14:58:42.349Z</time></trkpt><trkpt lat="45.9901514" lon="13.2755768"><ele>64.0</ele><time>2026-03-22T14:58:43.359Z</time></trkpt><trkpt lat="45.9899865" lon="13.2756311"><ele>64.0</ele><time>2026-03-22T14:58:44.342Z</time></trkpt><trkpt lat="45.9898237" lon="13.2756875"><ele>63.33333333333333</ele><time>2026-03-22T14:58:45.35Z</time></trkpt><trkpt lat="45.9896634" lon="13.2757487"><ele>62.66666666666667</ele><time>2026-03-22T14:58:46.359Z</time></trkpt><trkpt lat="45.9895052" lon="13.2758022"><ele>62.0</ele><time>2026-03-22T14:58:47.37Z</time></trkpt><trkpt lat="45.9893512" lon="13.2758591"><ele>62.0</ele><time>2026-03-22T14:58:48.348Z</time></trkpt><trkpt lat="45.9892005" lon="13.275918"><ele>62.0</ele><time>2026-03-22T14:58:49.363Z</time></trkpt><trkpt lat="45.9890528" lon="13.275975"><ele>62.0</ele><time>2026-03-22T14:58:50.344Z</time></trkpt><trkpt lat="45.9889071" lon="13.2760345"><ele>62.25</ele><time>2026-03-22T14:58:51.364Z</time></trkpt><trkpt lat="45.9887636" lon="13.2760924"><ele>62.5</ele><time>2026-03-22T14:58:52.371Z</time></trkpt><trkpt lat="45.9886238" lon="13.2761397"><ele>62.75</ele><time>2026-03-22T14:58:53.355Z</time></trkpt><trkpt lat="45.9884901" lon="13.2761665"><ele>63.0</ele><time>2026-03-22T14:58:54.353Z</time></trkpt><trkpt lat="45.9883655" lon="13.2761627"><ele>63.4</ele><time>2026-03-22T14:58:55.348Z</time></trkpt><trkpt lat="45.9882534" lon="13.2761246"><ele>63.8</ele><time>2026-03-22T14:58:56.347Z</time></trkpt><trkpt lat="45.9881552" lon="13.2760588"><ele>64.2</ele><time>2026-03-22T14:58:57.353Z</time></trkpt><trkpt lat="45.9880615" lon="13.2759957"><ele>64.6</ele><time>2026-03-22T14:58:58.365Z</time></trkpt><trkpt lat="45.9879725" lon="13.2759586"><ele>65.0</ele><time>2026-03-22T14:58:59.393Z</time></trkpt><trkpt lat="45.9878764" lon="13.2759942"><ele>65.0</ele><time>2026-03-22T14:59:00.35Z</time></trkpt><trkpt lat="45.9877839" lon="13.2760692"><ele>65.0</ele><time>2026-03-22T14:59:01.36Z</time></trkpt><trkpt lat="45.9877038" lon="13.2761985"><ele>65.0</ele><time>2026-03-22T14:59:02.363Z</time></trkpt><trkpt lat="45.987603" lon="13.2763105"><ele>65.0</ele><time>2026-03-22T14:59:03.365Z</time></trkpt><trkpt lat="45.9874851" lon="13.2764186"><ele>64.0</ele><time>2026-03-22T14:59:04.349Z</time></trkpt><trkpt lat="45.9873469" lon="13.2764924"><ele>63.0</ele><time>2026-03-22T14:59:05.355Z</time></trkpt><trkpt lat="45.9872007" lon="13.2765491"><ele>62.0</ele><time>2026-03-22T14:59:06.344Z</time></trkpt><trkpt lat="45.9870418" lon="13.2765779"><ele>62.0</ele><time>2026-03-22T14:59:07.348Z</time></trkpt><trkpt lat="45.9868834" lon="13.2766089"><ele>62.0</ele><time>2026-03-22T14:59:08.35Z</time></trkpt><trkpt lat="45.9867239" lon="13.2766317"><ele>62.0</ele><time>2026-03-22T14:59:09.365Z</time></trkpt><trkpt lat="45.9865655" lon="13.2766523"><ele>62.333333333333336</ele><time>2026-03-22T14:59:10.348Z</time></trkpt><trkpt lat="45.9864083" lon="13.2766602"><ele>62.66666666666667</ele><time>2026-03-22T14:59:11.356Z</time></trkpt><trkpt lat="45.9862469" lon="13.2766778"><ele>63.0</ele><time>2026-03-22T14:59:12.343Z</time></trkpt><trkpt lat="45.9860822" lon="13.2766974"><ele>63.0</ele><time>2026-03-22T14:59:13.366Z</time></trkpt><trkpt lat="45.9859108" lon="13.2767164"><ele>63.0</ele><time>2026-03-22T14:59:14.346Z</time></trkpt><trkpt lat="45.9857334" lon="13.2767375"><ele>63.0</ele><time>2026-03-22T14:59:15.345Z</time></trkpt><trkpt lat="45.9855557" lon="13.2767608"><ele>62.66666666666667</ele><time>2026-03-22T14:59:16.344Z</time></trkpt><trkpt lat="45.9853807" lon="13.2767739"><ele>62.333333333333336</ele><time>2026-03-22T14:59:17.367Z</time></trkpt><trkpt lat="45.9852114" lon="13.2767798"><ele>62.0</ele><time>2026-03-22T14:59:18.347Z</time></trkpt><trkpt lat="45.985044" lon="13.2767805"><ele>62.0</ele><time>2026-03-22T14:59:19.378Z</time></trkpt><trkpt lat="45.9848741" lon="13.2767811"><ele>62.0</ele><time>2026-03-22T14:59:20.356Z</time></trkpt><trkpt lat="45.9846989" lon="13.2767741"><ele>62.0</ele><time>2026-03-22T14:59:21.356Z</time></trkpt><trkpt lat="45.9845205" lon="13.2767521"><ele>62.0</ele><time>2026-03-22T14:59:22.341Z</time></trkpt><trkpt lat="45.9843371" lon="13.276763"><ele>62.0</ele><time>2026-03-22T14:59:23.354Z</time></trkpt><trkpt lat="45.9841487" lon="13.2767452"><ele>62.0</ele><time>2026-03-22T14:59:24.36Z</time></trkpt><trkpt lat="45.9839573" lon="13.2767289"><ele>61.66666666666667</ele><time>2026-03-22T14:59:25.351Z</time></trkpt><trkpt lat="45.9837656" lon="13.2767234"><ele>61.33333333333333</ele><time>2026-03-22T14:59:26.361Z</time></trkpt><trkpt lat="45.983578" lon="13.2767237"><ele>61.0</ele><time>2026-03-22T14:59:27.369Z</time></trkpt><trkpt lat="45.9833956" lon="13.2767301"><ele>61.0</ele><time>2026-03-22T14:59:28.345Z</time></trkpt><trkpt lat="45.9832136" lon="13.2767289"><ele>61.0</ele><time>2026-03-22T14:59:29.349Z</time></trkpt><trkpt lat="45.9830324" lon="13.2767228"><ele>61.0</ele><time>2026-03-22T14:59:30.36Z</time></trkpt><trkpt lat="45.9828514" lon="13.2767044"><ele>61.0</ele><time>2026-03-22T14:59:31.364Z</time></trkpt><trkpt lat="45.982668" lon="13.2767019"><ele>61.0</ele><time>2026-03-22T14:59:32.343Z</time></trkpt><trkpt lat="45.9824852" lon="13.2767015"><ele>61.0</ele><time>2026-03-22T14:59:33.354Z</time></trkpt><trkpt lat="45.9823054" lon="13.2767007"><ele>61.33333333333333</ele><time>2026-03-22T14:59:34.353Z</time></trkpt><trkpt lat="45.9821277" lon="13.2767005"><ele>61.66666666666667</ele><time>2026-03-22T14:59:35.35Z</time></trkpt><trkpt lat="45.9819509" lon="13.276703"><ele>62.0</ele><time>2026-03-22T14:59:36.365Z</time></trkpt><trkpt lat="45.9817755" lon="13.2766975"><ele>62.0</ele><time>2026-03-22T14:59:37.366Z</time></trkpt><trkpt lat="45.9816013" lon="13.2766924"><ele>62.0</ele><time>2026-03-22T14:59:38.343Z</time></trkpt><trkpt lat="45.9814274" lon="13.2766896"><ele>62.0</ele><time>2026-03-22T14:59:39.374Z</time></trkpt><trkpt lat="45.981253" lon="13.2766842"><ele>62.0</ele><time>2026-03-22T14:59:40.359Z</time></trkpt><trkpt lat="45.98108" lon="13.2766811"><ele>62.0</ele><time>2026-03-22T14:59:41.347Z</time></trkpt><trkpt lat="45.980908" lon="13.2766777"><ele>62.0</ele><time>2026-03-22T14:59:42.352Z</time></trkpt><trkpt lat="45.9807366" lon="13.2766817"><ele>61.66666666666667</ele><time>2026-03-22T14:59:43.345Z</time></trkpt><trkpt lat="45.9805645" lon="13.2766755"><ele>61.33333333333333</ele><time>2026-03-22T14:59:44.347Z</time></trkpt><trkpt lat="45.9803918" lon="13.2766699"><ele>61.0</ele><time>2026-03-22T14:59:45.343Z</time></trkpt><trkpt lat="45.9802175" lon="13.2766792"><ele>61.0</ele><time>2026-03-22T14:59:46.35Z</time></trkpt><trkpt lat="45.9800496" lon="13.2766728"><ele>61.0</ele><time>2026-03-22T14:59:47.351Z</time></trkpt><trkpt lat="45.9798902" lon="13.2766686"><ele>61.0</ele><time>2026-03-22T14:59:48.371Z</time></trkpt><trkpt lat="45.9797338" lon="13.2766671"><ele>60.75</ele><time>2026-03-22T14:59:49.369Z</time></trkpt><trkpt lat="45.9795835" lon="13.2766673"><ele>60.5</ele><time>2026-03-22T14:59:50.349Z</time></trkpt><trkpt lat="45.9794437" lon="13.2766615"><ele>60.25</ele><time>2026-03-22T14:59:51.366Z</time></trkpt><trkpt lat="45.9793049" lon="13.2766465"><ele>60.0</ele><time>2026-03-22T14:59:52.354Z</time></trkpt><trkpt lat="45.9791732" lon="13.2766371"><ele>60.0</ele><time>2026-03-22T14:59:53.368Z</time></trkpt><trkpt lat="45.9790533" lon="13.2766135"><ele>60.0</ele><time>2026-03-22T14:59:54.364Z</time></trkpt><trkpt lat="45.9789529" lon="13.2765837"><ele>60.0</ele><time>2026-03-22T14:59:55.346Z</time></trkpt><trkpt lat="45.9788661" lon="13.2765449"><ele>60.0</ele><time>2026-03-22T14:59:56.359Z</time></trkpt><trkpt lat="45.9787935" lon="13.2764862"><ele>60.0</ele><time>2026-03-22T14:59:57.346Z</time></trkpt><trkpt lat="45.9787386" lon="13.2764051"><ele>59.8</ele><time>2026-03-22T14:59:58.352Z</time></trkpt><trkpt lat="45.9786963" lon="13.2763143"><ele>59.6</ele><time>2026-03-22T14:59:59.346Z</time></trkpt><trkpt lat="45.9786631" lon="13.2762085"><ele>59.400000000000006</ele><time>2026-03-22T15:00:00.331Z</time></trkpt><trkpt lat="45.9786311" lon="13.27609"><ele>59.2</ele><time>2026-03-22T15:00:01.344Z</time></trkpt><trkpt lat="45.9786205" lon="13.2759478"><ele>59.0</ele><time>2026-03-22T15:00:02.337Z</time></trkpt><trkpt lat="45.9786342" lon="13.2757856"><ele>59.0</ele><time>2026-03-22T15:00:03.372Z</time></trkpt><trkpt lat="45.9786499" lon="13.2756039"><ele>59.0</ele><time>2026-03-22T15:00:04.351Z</time></trkpt><trkpt lat="45.978676" lon="13.2754044"><ele>59.0</ele><time>2026-03-22T15:00:05.367Z</time></trkpt><trkpt lat="45.9787093" lon="13.275188"><ele>59.0</ele><time>2026-03-22T15:00:06.345Z</time></trkpt><trkpt lat="45.9787564" lon="13.274959"><ele>59.0</ele><time>2026-03-22T15:00:07.36Z</time></trkpt><trkpt lat="45.9788071" lon="13.2747152"><ele>59.0</ele><time>2026-03-22T15:00:08.347Z</time></trkpt><trkpt lat="45.9788601" lon="13.274459"><ele>59.0</ele><time>2026-03-22T15:00:09.362Z</time></trkpt><trkpt lat="45.9789086" lon="13.2742032"><ele>59.0</ele><time>2026-03-22T15:00:10.34Z</time></trkpt><trkpt lat="45.978958" lon="13.273954"><ele>59.0</ele><time>2026-03-22T15:00:11.367Z</time></trkpt><trkpt lat="45.9790098" lon="13.2737082"><ele>59.0</ele><time>2026-03-22T15:00:12.359Z</time></trkpt><trkpt lat="45.9790632" lon="13.2734631"><ele>59.0</ele><time>2026-03-22T15:00:13.357Z</time></trkpt><trkpt lat="45.9791151" lon="13.2732178"><ele>59.0</ele><time>2026-03-22T15:00:14.354Z</time></trkpt><trkpt lat="45.9791651" lon="13.2729768"><ele>59.0</ele><time>2026-03-22T15:00:15.352Z</time></trkpt><trkpt lat="45.9792126" lon="13.2727419"><ele>59.0</ele><time>2026-03-22T15:00:16.341Z</time></trkpt><trkpt lat="45.9792545" lon="13.2725108"><ele>59.0</ele><time>2026-03-22T15:00:17.365Z</time></trkpt><trkpt lat="45.979279" lon="13.2722751"><ele>59.0</ele><time>2026-03-22T15:00:18.362Z</time></trkpt><trkpt lat="45.979284" lon="13.272032"><ele>59.0</ele><time>2026-03-22T15:00:19.366Z</time></trkpt><trkpt lat="45.9792673" lon="13.2717829"><ele>59.0</ele><time>2026-03-22T15:00:20.369Z</time></trkpt><trkpt lat="45.979231" lon="13.2715283"><ele>59.0</ele><time>2026-03-22T15:00:21.359Z</time></trkpt><trkpt lat="45.9791815" lon="13.271267"><ele>58.66666666666667</ele><time>2026-03-22T15:00:22.354Z</time></trkpt><trkpt lat="45.979129" lon="13.271"><ele>58.33333333333333</ele><time>2026-03-22T15:00:23.362Z</time></trkpt><trkpt lat="45.9790668" lon="13.2707307"><ele>58.0</ele><time>2026-03-22T15:00:24.353Z</time></trkpt><trkpt lat="45.9790236" lon="13.2704613"><ele>58.0</ele><time>2026-03-22T15:00:25.354Z</time></trkpt><trkpt lat="45.9789804" lon="13.2702092"><ele>58.0</ele><time>2026-03-22T15:00:26.357Z</time></trkpt><trkpt lat="45.978933" lon="13.2699763"><ele>58.0</ele><time>2026-03-22T15:00:27.36Z</time></trkpt><trkpt lat="45.9788819" lon="13.2697615"><ele>58.25</ele><time>2026-03-22T15:00:28.344Z</time></trkpt><trkpt lat="45.97884" lon="13.2695567"><ele>58.5</ele><time>2026-03-22T15:00:29.377Z</time></trkpt><trkpt lat="45.9788047" lon="13.2693609"><ele>58.75</ele><time>2026-03-22T15:00:30.35Z</time></trkpt><trkpt lat="45.9787723" lon="13.2691702"><ele>59.0</ele><time>2026-03-22T15:00:31.362Z</time></trkpt><trkpt lat="45.9787359" lon="13.2689803"><ele>59.0</ele><time>2026-03-22T15:00:32.35Z</time></trkpt><trkpt lat="45.9786944" lon="13.2687874"><ele>59.0</ele><time>2026-03-22T15:00:33.357Z</time></trkpt><trkpt lat="45.9786456" lon="13.2685873"><ele>59.0</ele><time>2026-03-22T15:00:34.355Z</time></trkpt><trkpt lat="45.9785827" lon="13.26838"><ele>59.0</ele><time>2026-03-22T15:00:35.348Z</time></trkpt><trkpt lat="45.978505" lon="13.2681597"><ele>58.66666666666667</ele><time>2026-03-22T15:00:36.346Z</time></trkpt><trkpt lat="45.9784169" lon="13.2679212"><ele>58.33333333333333</ele><time>2026-03-22T15:00:37.364Z</time></trkpt><trkpt lat="45.9783254" lon="13.267667"><ele>58.0</ele><time>2026-03-22T15:00:38.358Z</time></trkpt><trkpt lat="45.9782339" lon="13.2673985"><ele>57.5</ele><time>2026-03-22T15:00:39.355Z</time></trkpt><trkpt lat="45.9781398" lon="13.2671073"><ele>57.0</ele><time>2026-03-22T15:00:40.354Z</time></trkpt><trkpt lat="45.978047" lon="13.266783"><ele>57.5</ele><time>2026-03-22T15:00:41.348Z</time></trkpt><trkpt lat="45.9779319" lon="13.2664408"><ele>58.0</ele><time>2026-03-22T15:00:42.349Z</time></trkpt><trkpt lat="45.9778025" lon="13.2660854"><ele>58.0</ele><time>2026-03-22T15:00:43.379Z</time></trkpt><trkpt lat="45.9776704" lon="13.2657253"><ele>58.0</ele><time>2026-03-22T15:00:44.36Z</time></trkpt><trkpt lat="45.9775356" lon="13.265373"><ele>57.0</ele><time>2026-03-22T15:00:45.357Z</time></trkpt><trkpt lat="45.9774098" lon="13.2650283"><ele>56.0</ele><time>2026-03-22T15:00:46.356Z</time></trkpt><trkpt lat="45.9772804" lon="13.2647056"><ele>56.0</ele><time>2026-03-22T15:00:47.364Z</time></trkpt><trkpt lat="45.9771624" lon="13.2643993"><ele>56.0</ele><time>2026-03-22T15:00:48.353Z</time></trkpt><trkpt lat="45.9770557" lon="13.2641077"><ele>56.0</ele><time>2026-03-22T15:00:49.353Z</time></trkpt><trkpt lat="45.9769578" lon="13.2638302"><ele>56.0</ele><time>2026-03-22T15:00:50.35Z</time></trkpt><trkpt lat="45.976866" lon="13.2635686"><ele>56.0</ele><time>2026-03-22T15:00:51.35Z</time></trkpt><trkpt lat="45.9767853" lon="13.2633186"><ele>56.333333333333336</ele><time>2026-03-22T15:00:52.359Z</time></trkpt><trkpt lat="45.9767091" lon="13.2630846"><ele>56.66666666666667</ele><time>2026-03-22T15:00:53.364Z</time></trkpt><trkpt lat="45.976639" lon="13.2628595"><ele>57.0</ele><time>2026-03-22T15:00:54.347Z</time></trkpt><trkpt lat="45.9765607" lon="13.2626488"><ele>57.33333333333333</ele><time>2026-03-22T15:00:55.354Z</time></trkpt><trkpt lat="45.9764748" lon="13.2624473"><ele>57.666666666666664</ele><time>2026-03-22T15:00:56.361Z</time></trkpt><trkpt lat="45.9763934" lon="13.2622399"><ele>58.0</ele><time>2026-03-22T15:00:57.343Z</time></trkpt><trkpt lat="45.9763162" lon="13.2620304"><ele>58.0</ele><time>2026-03-22T15:00:58.353Z</time></trkpt><trkpt lat="45.9762502" lon="13.2618118"><ele>58.0</ele><time>2026-03-22T15:00:59.337Z</time></trkpt><trkpt lat="45.976182" lon="13.2615888"><ele>58.0</ele><time>2026-03-22T15:01:00.345Z</time></trkpt><trkpt lat="45.9761099" lon="13.2613616"><ele>57.666666666666664</ele><time>2026-03-22T15:01:01.346Z</time></trkpt><trkpt lat="45.9760456" lon="13.2611253"><ele>57.33333333333333</ele><time>2026-03-22T15:01:02.35Z</time></trkpt><trkpt lat="45.9759432" lon="13.2609166"><ele>57.0</ele><time>2026-03-22T15:01:03.346Z</time></trkpt><trkpt lat="45.9758372" lon="13.2607171"><ele>57.5</ele><time>2026-03-22T15:01:04.353Z</time></trkpt><trkpt lat="45.9757421" lon="13.2605367"><ele>58.0</ele><time>2026-03-22T15:01:05.342Z</time></trkpt><trkpt lat="45.9757064" lon="13.2603395"><ele>58.5</ele><time>2026-03-22T15:01:06.372Z</time></trkpt><trkpt lat="45.9756374" lon="13.2602074"><ele>59.0</ele><time>2026-03-22T15:01:07.348Z</time></trkpt><trkpt lat="45.975563" lon="13.2600775"><ele>59.0</ele><time>2026-03-22T15:01:08.345Z</time></trkpt><trkpt lat="45.9754993" lon="13.2599218"><ele>59.0</ele><time>2026-03-22T15:01:09.352Z</time></trkpt><trkpt lat="45.9754005" lon="13.2597534"><ele>59.0</ele><time>2026-03-22T15:01:10.353Z</time></trkpt><trkpt lat="45.975295" lon="13.2595695"><ele>59.0</ele><time>2026-03-22T15:01:11.343Z</time></trkpt><trkpt lat="45.9751865" lon="13.2593873"><ele>59.0</ele><time>2026-03-22T15:01:12.357Z</time></trkpt><trkpt lat="45.9750864" lon="13.2592106"><ele>59.0</ele><time>2026-03-22T15:01:13.362Z</time></trkpt><trkpt lat="45.9749958" lon="13.2590506"><ele>59.0</ele><time>2026-03-22T15:01:14.361Z</time></trkpt><trkpt lat="45.9749179" lon="13.2589046"><ele>59.0</ele><time>2026-03-22T15:01:15.353Z</time></trkpt><trkpt lat="45.9748454" lon="13.2587777"><ele>58.6</ele><time>2026-03-22T15:01:16.349Z</time></trkpt><trkpt lat="45.9747806" lon="13.2586686"><ele>58.2</ele><time>2026-03-22T15:01:17.349Z</time></trkpt><trkpt lat="45.9747335" lon="13.2585507"><ele>57.800000000000004</ele><time>2026-03-22T15:01:18.343Z</time></trkpt><trkpt lat="45.9746766" lon="13.2584553"><ele>57.400000000000006</ele><time>2026-03-22T15:01:19.342Z</time></trkpt><trkpt lat="45.974613" lon="13.2583694"><ele>57.0</ele><time>2026-03-22T15:01:20.342Z</time></trkpt><trkpt lat="45.9745554" lon="13.2582657"><ele>57.0</ele><time>2026-03-22T15:01:21.356Z</time></trkpt><trkpt lat="45.9744992" lon="13.2581314"><ele>57.0</ele><time>2026-03-22T15:01:22.341Z</time></trkpt><trkpt lat="45.9744148" lon="13.2580006"><ele>57.0</ele><time>2026-03-22T15:01:23.35Z</time></trkpt><trkpt lat="45.9743389" lon="13.2578386"><ele>57.0</ele><time>2026-03-22T15:01:24.343Z</time></trkpt><trkpt lat="45.9742622" lon="13.2576832"><ele>57.0</ele><time>2026-03-22T15:01:25.355Z</time></trkpt><trkpt lat="45.9741877" lon="13.2575253"><ele>57.0</ele><time>2026-03-22T15:01:26.356Z</time></trkpt><trkpt lat="45.9741109" lon="13.2573635"><ele>57.0</ele><time>2026-03-22T15:01:27.347Z</time></trkpt><trkpt lat="45.9740409" lon="13.2571657"><ele>57.0</ele><time>2026-03-22T15:01:28.356Z</time></trkpt><trkpt lat="45.9739328" lon="13.2569717"><ele>57.33333333333333</ele><time>2026-03-22T15:01:29.36Z</time></trkpt><trkpt lat="45.9738235" lon="13.2567763"><ele>57.666666666666664</ele><time>2026-03-22T15:01:30.363Z</time></trkpt><trkpt lat="45.973694" lon="13.2566103"><ele>58.0</ele><time>2026-03-22T15:01:31.353Z</time></trkpt><trkpt lat="45.9735801" lon="13.2564364"><ele>58.0</ele><time>2026-03-22T15:01:32.353Z</time></trkpt><trkpt lat="45.9734585" lon="13.2562899"><ele>58.0</ele><time>2026-03-22T15:01:33.356Z</time></trkpt><trkpt lat="45.9733483" lon="13.2561389"><ele>58.0</ele><time>2026-03-22T15:01:34.35Z</time></trkpt><trkpt lat="45.9732603" lon="13.255996"><ele>58.0</ele><time>2026-03-22T15:01:35.347Z</time></trkpt><trkpt lat="45.9731973" lon="13.2558828"><ele>58.0</ele><time>2026-03-22T15:01:36.349Z</time></trkpt><trkpt lat="45.9731593" lon="13.2557455"><ele>58.0</ele><time>2026-03-22T15:01:37.351Z</time></trkpt><trkpt lat="45.9731337" lon="13.2556038"><ele>58.0</ele><time>2026-03-22T15:01:38.347Z</time></trkpt><trkpt lat="45.9730821" lon="13.2554771"><ele>58.0</ele><time>2026-03-22T15:01:39.351Z</time></trkpt><trkpt lat="45.9730434" lon="13.2553376"><ele>58.0</ele><time>2026-03-22T15:01:40.355Z</time></trkpt><trkpt lat="45.9730222" lon="13.2551884"><ele>58.0</ele><time>2026-03-22T15:01:41.357Z</time></trkpt><trkpt lat="45.9730097" lon="13.2550387"><ele>58.0</ele><time>2026-03-22T15:01:42.346Z</time></trkpt><trkpt lat="45.9729971" lon="13.2548791"><ele>58.0</ele><time>2026-03-22T15:01:43.348Z</time></trkpt><trkpt lat="45.972978" lon="13.2547193"><ele>58.0</ele><time>2026-03-22T15:01:44.352Z</time></trkpt><trkpt lat="45.9729429" lon="13.2545617"><ele>58.0</ele><time>2026-03-22T15:01:45.363Z</time></trkpt><trkpt lat="45.9729228" lon="13.2543985"><ele>58.0</ele><time>2026-03-22T15:01:46.357Z</time></trkpt><trkpt lat="45.9728884" lon="13.254243"><ele>58.0</ele><time>2026-03-22T15:01:47.357Z</time></trkpt><trkpt lat="45.9728462" lon="13.2540937"><ele>58.0</ele><time>2026-03-22T15:01:48.362Z</time></trkpt><trkpt lat="45.9728132" lon="13.2539337"><ele>58.0</ele><time>2026-03-22T15:01:49.365Z</time></trkpt><trkpt lat="45.9727943" lon="13.25376"><ele>58.0</ele><time>2026-03-22T15:01:50.357Z</time></trkpt><trkpt lat="45.9727648" lon="13.2535815"><ele>58.0</ele><time>2026-03-22T15:01:51.353Z</time></trkpt><trkpt lat="45.9727588" lon="13.2533986"><ele>58.0</ele><time>2026-03-22T15:01:52.36Z</time></trkpt><trkpt lat="45.9727483" lon="13.2532186"><ele>58.0</ele><time>2026-03-22T15:01:53.366Z</time></trkpt><trkpt lat="45.9727275" lon="13.2530454"><ele>57.75</ele><time>2026-03-22T15:01:54.345Z</time></trkpt><trkpt lat="45.9727324" lon="13.2528767"><ele>57.5</ele><time>2026-03-22T15:01:55.367Z</time></trkpt><trkpt lat="45.9726787" lon="13.2527053"><ele>57.25</ele><time>2026-03-22T15:01:56.367Z</time></trkpt><trkpt lat="45.972642" lon="13.2525201"><ele>57.0</ele><time>2026-03-22T15:01:57.359Z</time></trkpt><trkpt lat="45.9726103" lon="13.2523239"><ele>57.0</ele><time>2026-03-22T15:01:58.354Z</time></trkpt><trkpt lat="45.9725337" lon="13.2521479"><ele>57.0</ele><time>2026-03-22T15:01:59.344Z</time></trkpt><trkpt lat="45.9724961" lon="13.2519527"><ele>57.0</ele><time>2026-03-22T15:02:00.353Z</time></trkpt><trkpt lat="45.9724575" lon="13.2517524"><ele>57.0</ele><time>2026-03-22T15:02:01.358Z</time></trkpt><trkpt lat="45.9724101" lon="13.2515517"><ele>57.0</ele><time>2026-03-22T15:02:02.341Z</time></trkpt><trkpt lat="45.9723637" lon="13.2513595"><ele>57.0</ele><time>2026-03-22T15:02:03.359Z</time></trkpt><trkpt lat="45.9723325" lon="13.2511642"><ele>57.0</ele><time>2026-03-22T15:02:04.351Z</time></trkpt><trkpt lat="45.9722839" lon="13.2509907"><ele>57.0</ele><time>2026-03-22T15:02:05.354Z</time></trkpt><trkpt lat="45.9722189" lon="13.2508378"><ele>57.0</ele><time>2026-03-22T15:02:06.348Z</time></trkpt><trkpt lat="45.9721609" lon="13.2506997"><ele>57.0</ele><time>2026-03-22T15:02:07.352Z</time></trkpt><trkpt lat="45.9720833" lon="13.2506074"><ele>57.0</ele><time>2026-03-22T15:02:08.359Z</time></trkpt><trkpt lat="45.9720116" lon="13.2505237"><ele>57.0</ele><time>2026-03-22T15:02:09.355Z</time></trkpt><trkpt lat="45.9719619" lon="13.2504222"><ele>57.0</ele><time>2026-03-22T15:02:10.367Z</time></trkpt><trkpt lat="45.9719346" lon="13.2503077"><ele>56.833333333333336</ele><time>2026-03-22T15:02:11.351Z</time></trkpt><trkpt lat="45.9718927" lon="13.2502108"><ele>56.66666666666667</ele><time>2026-03-22T15:02:12.342Z</time></trkpt><trkpt lat="45.9718302" lon="13.2501322"><ele>56.5</ele><time>2026-03-22T15:02:13.353Z</time></trkpt><trkpt lat="45.9717524" lon="13.2500962"><ele>56.333333333333336</ele><time>2026-03-22T15:02:14.359Z</time></trkpt><trkpt lat="45.9716569" lon="13.2500661"><ele>56.16666666666667</ele><time>2026-03-22T15:02:15.363Z</time></trkpt><trkpt lat="45.971561" lon="13.2499973"><ele>56.0</ele><time>2026-03-22T15:02:16.354Z</time></trkpt><trkpt lat="45.9714785" lon="13.2498661"><ele>55.25</ele><time>2026-03-22T15:02:17.352Z</time></trkpt><trkpt lat="45.9714081" lon="13.2497167"><ele>54.5</ele><time>2026-03-22T15:02:18.355Z</time></trkpt><trkpt lat="45.9713399" lon="13.2495615"><ele>53.75</ele><time>2026-03-22T15:02:19.355Z</time></trkpt><trkpt lat="45.9712694" lon="13.2494202"><ele>53.0</ele><time>2026-03-22T15:02:20.358Z</time></trkpt><trkpt lat="45.9711978" lon="13.2492885"><ele>53.0</ele><time>2026-03-22T15:02:21.348Z</time></trkpt><trkpt lat="45.971133" lon="13.2491596"><ele>53.0</ele><time>2026-03-22T15:02:22.347Z</time></trkpt><trkpt lat="45.971071" lon="13.249038"><ele>53.0</ele><time>2026-03-22T15:02:23.357Z</time></trkpt><trkpt lat="45.971013" lon="13.248911"><ele>53.0</ele><time>2026-03-22T15:02:24.341Z</time></trkpt><trkpt lat="45.9709631" lon="13.2487716"><ele>53.0</ele><time>2026-03-22T15:02:25.356Z</time></trkpt><trkpt lat="45.9709139" lon="13.2486269"><ele>53.0</ele><time>2026-03-22T15:02:26.354Z</time></trkpt><trkpt lat="45.9708619" lon="13.2484699"><ele>53.0</ele><time>2026-03-22T15:02:27.349Z</time></trkpt><trkpt lat="45.9708003" lon="13.2483027"><ele>53.0</ele><time>2026-03-22T15:02:28.347Z</time></trkpt><trkpt lat="45.9707317" lon="13.2481296"><ele>53.0</ele><time>2026-03-22T15:02:29.355Z</time></trkpt><trkpt lat="45.9706648" lon="13.2479422"><ele>54.0</ele><time>2026-03-22T15:02:30.358Z</time></trkpt><trkpt lat="45.9705939" lon="13.2477467"><ele>55.0</ele><time>2026-03-22T15:02:31.366Z</time></trkpt><trkpt lat="45.9705193" lon="13.2475448"><ele>56.0</ele><time>2026-03-22T15:02:32.348Z</time></trkpt><trkpt lat="45.9704392" lon="13.2473372"><ele>55.333333333333336</ele><time>2026-03-22T15:02:33.366Z</time></trkpt><trkpt lat="45.9703621" lon="13.247123"><ele>54.66666666666667</ele><time>2026-03-22T15:02:34.349Z</time></trkpt><trkpt lat="45.9702783" lon="13.2469152"><ele>54.0</ele><time>2026-03-22T15:02:35.356Z</time></trkpt><trkpt lat="45.9701843" lon="13.24672"><ele>54.0</ele><time>2026-03-22T15:02:36.355Z</time></trkpt><trkpt lat="45.9700908" lon="13.2465262"><ele>54.0</ele><time>2026-03-22T15:02:37.361Z</time></trkpt><trkpt lat="45.9699896" lon="13.2463364"><ele>54.0</ele><time>2026-03-22T15:02:38.348Z</time></trkpt><trkpt lat="45.969873" lon="13.2461608"><ele>54.33333333333333</ele><time>2026-03-22T15:02:39.354Z</time></trkpt><trkpt lat="45.9697448" lon="13.2460012"><ele>54.666666666666664</ele><time>2026-03-22T15:02:40.357Z</time></trkpt><trkpt lat="45.9696138" lon="13.2458314"><ele>55.0</ele><time>2026-03-22T15:02:41.349Z</time></trkpt><trkpt lat="45.9694703" lon="13.2456662"><ele>54.666666666666664</ele><time>2026-03-22T15:02:42.359Z</time></trkpt><trkpt lat="45.9693205" lon="13.245497"><ele>54.33333333333333</ele><time>2026-03-22T15:02:43.355Z</time></trkpt><trkpt lat="45.9691669" lon="13.2453239"><ele>54.0</ele><time>2026-03-22T15:02:44.368Z</time></trkpt><trkpt lat="45.9690079" lon="13.2451596"><ele>54.0</ele><time>2026-03-22T15:02:45.369Z</time></trkpt><trkpt lat="45.9688499" lon="13.2449887"><ele>54.0</ele><time>2026-03-22T15:02:46.343Z</time></trkpt><trkpt lat="45.9686882" lon="13.2448175"><ele>54.0</ele><time>2026-03-22T15:02:47.361Z</time></trkpt><trkpt lat="45.9685274" lon="13.2446402"><ele>54.0</ele><time>2026-03-22T15:02:48.348Z</time></trkpt><trkpt lat="45.9683764" lon="13.2444534"><ele>54.0</ele><time>2026-03-22T15:02:49.366Z</time></trkpt><trkpt lat="45.9682282" lon="13.2442741"><ele>54.0</ele><time>2026-03-22T15:02:50.345Z</time></trkpt><trkpt lat="45.9680842" lon="13.2440907"><ele>53.33333333333333</ele><time>2026-03-22T15:02:51.362Z</time></trkpt><trkpt lat="45.9679472" lon="13.2438954"><ele>52.666666666666664</ele><time>2026-03-22T15:02:52.349Z</time></trkpt><trkpt lat="45.9678211" lon="13.2436853"><ele>52.0</ele><time>2026-03-22T15:02:53.353Z</time></trkpt><trkpt lat="45.9677061" lon="13.2434618"><ele>52.0</ele><time>2026-03-22T15:02:54.34Z</time></trkpt><trkpt lat="45.967598" lon="13.2432286"><ele>52.0</ele><time>2026-03-22T15:02:55.353Z</time></trkpt><trkpt lat="45.9674934" lon="13.2429877"><ele>52.0</ele><time>2026-03-22T15:02:56.349Z</time></trkpt><trkpt lat="45.9673892" lon="13.2427431"><ele>52.0</ele><time>2026-03-22T15:02:57.353Z</time></trkpt><trkpt lat="45.9672773" lon="13.242503"><ele>52.0</ele><time>2026-03-22T15:02:58.353Z</time></trkpt><trkpt lat="45.9671815" lon="13.242247"><ele>52.0</ele><time>2026-03-22T15:02:59.379Z</time></trkpt><trkpt lat="45.9670596" lon="13.2420128"><ele>52.0</ele><time>2026-03-22T15:03:00.352Z</time></trkpt><trkpt lat="45.9669592" lon="13.2417615"><ele>52.0</ele><time>2026-03-22T15:03:01.351Z</time></trkpt><trkpt lat="45.9668458" lon="13.2415308"><ele>52.0</ele><time>2026-03-22T15:03:02.349Z</time></trkpt><trkpt lat="45.9667371" lon="13.2413031"><ele>50.666666666666664</ele><time>2026-03-22T15:03:03.362Z</time></trkpt><trkpt lat="45.9666288" lon="13.2410811"><ele>49.33333333333333</ele><time>2026-03-22T15:03:04.362Z</time></trkpt><trkpt lat="45.9665242" lon="13.2408602"><ele>48.0</ele><time>2026-03-22T15:03:05.347Z</time></trkpt><trkpt lat="45.9664224" lon="13.2406427"><ele>48.33333333333333</ele><time>2026-03-22T15:03:06.36Z</time></trkpt><trkpt lat="45.9663265" lon="13.2404227"><ele>48.666666666666664</ele><time>2026-03-22T15:03:07.346Z</time></trkpt><trkpt lat="45.9662308" lon="13.240206"><ele>49.0</ele><time>2026-03-22T15:03:08.351Z</time></trkpt><trkpt lat="45.9661528" lon="13.2399783"><ele>49.33333333333333</ele><time>2026-03-22T15:03:09.363Z</time></trkpt><trkpt lat="45.9660748" lon="13.2397525"><ele>49.66666666666667</ele><time>2026-03-22T15:03:10.34Z</time></trkpt><trkpt lat="45.9660082" lon="13.239516"><ele>50.0</ele><time>2026-03-22T15:03:11.352Z</time></trkpt><trkpt lat="45.965935" lon="13.2392842"><ele>50.0</ele><time>2026-03-22T15:03:12.356Z</time></trkpt><trkpt lat="45.9658669" lon="13.2390488"><ele>50.0</ele><time>2026-03-22T15:03:13.369Z</time></trkpt><trkpt lat="45.9658012" lon="13.23881"><ele>50.0</ele><time>2026-03-22T15:03:14.349Z</time></trkpt><trkpt lat="45.965736" lon="13.2385693"><ele>50.0</ele><time>2026-03-22T15:03:15.354Z</time></trkpt><trkpt lat="45.9656606" lon="13.2383329"><ele>50.0</ele><time>2026-03-22T15:03:16.358Z</time></trkpt><trkpt lat="45.9655866" lon="13.2380958"><ele>50.0</ele><time>2026-03-22T15:03:17.351Z</time></trkpt><trkpt lat="45.9655173" lon="13.2378589"><ele>50.333333333333336</ele><time>2026-03-22T15:03:18.37Z</time></trkpt><trkpt lat="45.9654418" lon="13.237632"><ele>50.66666666666667</ele><time>2026-03-22T15:03:19.369Z</time></trkpt><trkpt lat="45.9653592" lon="13.2374255"><ele>51.0</ele><time>2026-03-22T15:03:20.351Z</time></trkpt><trkpt lat="45.9652717" lon="13.2372437"><ele>51.33333333333333</ele><time>2026-03-22T15:03:21.363Z</time></trkpt><trkpt lat="45.9651673" lon="13.2370891"><ele>51.666666666666664</ele><time>2026-03-22T15:03:22.36Z</time></trkpt><trkpt lat="45.9650386" lon="13.2369633"><ele>52.0</ele><time>2026-03-22T15:03:23.359Z</time></trkpt><trkpt lat="45.9648865" lon="13.2368407"><ele>52.0</ele><time>2026-03-22T15:03:24.364Z</time></trkpt><trkpt lat="45.9647084" lon="13.2367353"><ele>52.0</ele><time>2026-03-22T15:03:25.382Z</time></trkpt><trkpt lat="45.9645265" lon="13.2366208"><ele>52.0</ele><time>2026-03-22T15:03:26.348Z</time></trkpt><trkpt lat="45.9643479" lon="13.2364988"><ele>51.0</ele><time>2026-03-22T15:03:27.357Z</time></trkpt><trkpt lat="45.9641811" lon="13.2363486"><ele>50.0</ele><time>2026-03-22T15:03:28.35Z</time></trkpt><trkpt lat="45.9640233" lon="13.2361901"><ele>49.0</ele><time>2026-03-22T15:03:29.349Z</time></trkpt><trkpt lat="45.9638806" lon="13.2360061"><ele>49.0</ele><time>2026-03-22T15:03:30.352Z</time></trkpt><trkpt lat="45.963747" lon="13.2358063"><ele>49.0</ele><time>2026-03-22T15:03:31.358Z</time></trkpt><trkpt lat="45.9636055" lon="13.2356"><ele>49.0</ele><time>2026-03-22T15:03:32.347Z</time></trkpt><trkpt lat="45.9634579" lon="13.2353802"><ele>49.33333333333333</ele><time>2026-03-22T15:03:33.376Z</time></trkpt><trkpt lat="45.9633059" lon="13.2351491"><ele>49.66666666666667</ele><time>2026-03-22T15:03:34.371Z</time></trkpt><trkpt lat="45.9631509" lon="13.2349216"><ele>50.0</ele><time>2026-03-22T15:03:35.349Z</time></trkpt><trkpt lat="45.9629925" lon="13.2347032"><ele>50.333333333333336</ele><time>2026-03-22T15:03:36.357Z</time></trkpt><trkpt lat="45.962841" lon="13.2344867"><ele>50.66666666666667</ele><time>2026-03-22T15:03:37.349Z</time></trkpt><trkpt lat="45.9626746" lon="13.2343035"><ele>51.0</ele><time>2026-03-22T15:03:38.351Z</time></trkpt><trkpt lat="45.962515" lon="13.2341208"><ele>50.66666666666667</ele><time>2026-03-22T15:03:39.367Z</time></trkpt><trkpt lat="45.9623598" lon="13.2339479"><ele>50.333333333333336</ele><time>2026-03-22T15:03:40.351Z</time></trkpt><trkpt lat="45.9621997" lon="13.2337921"><ele>50.0</ele><time>2026-03-22T15:03:41.376Z</time></trkpt><trkpt lat="45.9620333" lon="13.2336517"><ele>50.0</ele><time>2026-03-22T15:03:42.361Z</time></trkpt><trkpt lat="45.9618717" lon="13.2335036"><ele>50.0</ele><time>2026-03-22T15:03:43.382Z</time></trkpt><trkpt lat="45.9617204" lon="13.2333519"><ele>50.0</ele><time>2026-03-22T15:03:44.359Z</time></trkpt><trkpt lat="45.9615751" lon="13.2332059"><ele>50.0</ele><time>2026-03-22T15:03:45.348Z</time></trkpt><trkpt lat="45.9614339" lon="13.2330686"><ele>50.0</ele><time>2026-03-22T15:03:46.354Z</time></trkpt><trkpt lat="45.9612934" lon="13.2329335"><ele>50.0</ele><time>2026-03-22T15:03:47.349Z</time></trkpt><trkpt lat="45.9611516" lon="13.2328141"><ele>50.0</ele><time>2026-03-22T15:03:48.352Z</time></trkpt><trkpt lat="45.9610084" lon="13.2327217"><ele>50.0</ele><time>2026-03-22T15:03:49.371Z</time></trkpt><trkpt lat="45.9608615" lon="13.2326534"><ele>50.0</ele><time>2026-03-22T15:03:50.369Z</time></trkpt><trkpt lat="45.9607159" lon="13.2325871"><ele>49.0</ele><time>2026-03-22T15:03:51.35Z</time></trkpt><trkpt lat="45.9605646" lon="13.2325398"><ele>48.0</ele><time>2026-03-22T15:03:52.356Z</time></trkpt><trkpt lat="45.9604122" lon="13.2325018"><ele>47.0</ele><time>2026-03-22T15:03:53.353Z</time></trkpt><trkpt lat="45.9602599" lon="13.2324501"><ele>47.0</ele><time>2026-03-22T15:03:54.361Z</time></trkpt><trkpt lat="45.9601045" lon="13.2323947"><ele>47.0</ele><time>2026-03-22T15:03:55.372Z</time></trkpt><trkpt lat="45.9599468" lon="13.2323359"><ele>47.0</ele><time>2026-03-22T15:03:56.346Z</time></trkpt><trkpt lat="45.9597884" lon="13.2322846"><ele>48.0</ele><time>2026-03-22T15:03:57.367Z</time></trkpt><trkpt lat="45.9596355" lon="13.2322332"><ele>49.0</ele><time>2026-03-22T15:03:58.363Z</time></trkpt><trkpt lat="45.9594908" lon="13.2321838"><ele>50.0</ele><time>2026-03-22T15:03:59.364Z</time></trkpt><trkpt lat="45.9593549" lon="13.2321349"><ele>51.0</ele><time>2026-03-22T15:04:00.357Z</time></trkpt><trkpt lat="45.9592232" lon="13.2320894"><ele>50.5</ele><time>2026-03-22T15:04:01.347Z</time></trkpt><trkpt lat="45.9590949" lon="13.2320439"><ele>50.0</ele><time>2026-03-22T15:04:02.349Z</time></trkpt><trkpt lat="45.9589713" lon="13.2319996"><ele>49.5</ele><time>2026-03-22T15:04:03.353Z</time></trkpt><trkpt lat="45.9588535" lon="13.2319588"><ele>49.0</ele><time>2026-03-22T15:04:04.356Z</time></trkpt><trkpt lat="45.958743" lon="13.2319178"><ele>49.0</ele><time>2026-03-22T15:04:05.35Z</time></trkpt><trkpt lat="45.9586361" lon="13.2318748"><ele>49.0</ele><time>2026-03-22T15:04:06.348Z</time></trkpt><trkpt lat="45.9585353" lon="13.2318181"><ele>49.0</ele><time>2026-03-22T15:04:07.367Z</time></trkpt><trkpt lat="45.9584398" lon="13.2317432"><ele>49.0</ele><time>2026-03-22T15:04:08.373Z</time></trkpt><trkpt lat="45.9583464" lon="13.2316549"><ele>49.0</ele><time>2026-03-22T15:04:09.36Z</time></trkpt><trkpt lat="45.9582584" lon="13.2315486"><ele>49.25</ele><time>2026-03-22T15:04:10.352Z</time></trkpt><trkpt lat="45.9581701" lon="13.2314409"><ele>49.5</ele><time>2026-03-22T15:04:11.365Z</time></trkpt><trkpt lat="45.9580879" lon="13.2313196"><ele>49.75</ele><time>2026-03-22T15:04:12.351Z</time></trkpt><trkpt lat="45.9580158" lon="13.2311857"><ele>50.0</ele><time>2026-03-22T15:04:13.357Z</time></trkpt><trkpt lat="45.9579687" lon="13.2310245"><ele>50.0</ele><time>2026-03-22T15:04:14.346Z</time></trkpt><trkpt lat="45.9579236" lon="13.2308581"><ele>50.0</ele><time>2026-03-22T15:04:15.347Z</time></trkpt><trkpt lat="45.9578954" lon="13.2306862"><ele>50.0</ele><time>2026-03-22T15:04:16.345Z</time></trkpt><trkpt lat="45.9578651" lon="13.230516"><ele>50.0</ele><time>2026-03-22T15:04:17.351Z</time></trkpt><trkpt lat="45.9578443" lon="13.2303531"><ele>49.8</ele><time>2026-03-22T15:04:18.337Z</time></trkpt><trkpt lat="45.9578282" lon="13.2302115"><ele>49.6</ele><time>2026-03-22T15:04:19.354Z</time></trkpt><trkpt lat="45.957809" lon="13.2300965"><ele>49.400000000000006</ele><time>2026-03-22T15:04:20.342Z</time></trkpt><trkpt lat="45.9577765" lon="13.2299609"><ele>49.2</ele><time>2026-03-22T15:04:22.36Z</time></trkpt><trkpt lat="45.9577369" lon="13.2298613"><ele>49.0</ele><time>2026-03-22T15:04:24.368Z</time></trkpt><trkpt lat="45.9576938" lon="13.2297412"><ele>48.800000000000004</ele><time>2026-03-22T15:04:26.347Z</time></trkpt><trkpt lat="45.9576582" lon="13.2296004"><ele>48.6</ele><time>2026-03-22T15:04:28.351Z</time></trkpt><trkpt lat="45.9575983" lon="13.2294475"><ele>48.4</ele><time>2026-03-22T15:04:30.354Z</time></trkpt><trkpt lat="45.9575588" lon="13.2293605"><ele>48.2</ele><time>2026-03-22T15:04:31.347Z</time></trkpt><trkpt lat="45.9575064" lon="13.2292686"><ele>48.0</ele><time>2026-03-22T15:04:32.367Z</time></trkpt><trkpt lat="45.9574312" lon="13.229199"><ele>47.833333333333336</ele><time>2026-03-22T15:04:33.372Z</time></trkpt><trkpt lat="45.9573677" lon="13.2291155"><ele>47.666666666666664</ele><time>2026-03-22T15:04:34.349Z</time></trkpt><trkpt lat="45.9573103" lon="13.2290196"><ele>47.5</ele><time>2026-03-22T15:04:35.347Z</time></trkpt><trkpt lat="45.9572458" lon="13.2289376"><ele>47.33333333333333</ele><time>2026-03-22T15:04:36.356Z</time></trkpt><trkpt lat="45.9571753" lon="13.2288722"><ele>47.166666666666664</ele><time>2026-03-22T15:04:37.386Z</time></trkpt><trkpt lat="45.9570984" lon="13.2287752"><ele>47.0</ele><time>2026-03-22T15:04:38.354Z</time></trkpt><trkpt lat="45.9570482" lon="13.2287185"><ele>47.0</ele><time>2026-03-22T15:04:39.346Z</time></trkpt><trkpt lat="45.956979" lon="13.2286609"><ele>47.0</ele><time>2026-03-22T15:04:40.349Z</time></trkpt><trkpt lat="45.9568751" lon="13.2285701"><ele>47.0</ele><time>2026-03-22T15:04:42.348Z</time></trkpt><trkpt lat="45.9567816" lon="13.2284896"><ele>47.0</ele><time>2026-03-22T15:04:44.354Z</time></trkpt><trkpt lat="45.95671" lon="13.2283756"><ele>47.0</ele><time>2026-03-22T15:04:46.348Z</time></trkpt><trkpt lat="45.9567028" lon="13.2282833"><ele>47.0</ele><time>2026-03-22T15:04:47.363Z</time></trkpt><trkpt lat="45.9566905" lon="13.2281913"><ele>47.0</ele><time>2026-03-22T15:04:48.348Z</time></trkpt><trkpt lat="45.9566826" lon="13.2280932"><ele>47.0</ele><time>2026-03-22T15:04:49.369Z</time></trkpt><trkpt lat="45.9566758" lon="13.2279895"><ele>47.0</ele><time>2026-03-22T15:04:50.344Z</time></trkpt><trkpt lat="45.9566628" lon="13.2278789"><ele>47.0</ele><time>2026-03-22T15:04:51.355Z</time></trkpt><trkpt lat="45.9566486" lon="13.2277625"><ele>47.0</ele><time>2026-03-22T15:04:52.35Z</time></trkpt><trkpt lat="45.9566373" lon="13.2276384"><ele>47.0</ele><time>2026-03-22T15:04:53.355Z</time></trkpt><trkpt lat="45.9565964" lon="13.2275308"><ele>47.0</ele><time>2026-03-22T15:04:54.356Z</time></trkpt><trkpt lat="45.9565453" lon="13.2274346"><ele>47.0</ele><time>2026-03-22T15:04:55.348Z</time></trkpt><trkpt lat="45.9564953" lon="13.2273413"><ele>47.0</ele><time>2026-03-22T15:04:56.353Z</time></trkpt><trkpt lat="45.9564441" lon="13.2272581"><ele>47.0</ele><time>2026-03-22T15:04:57.368Z</time></trkpt><trkpt lat="45.9563938" lon="13.2271835"><ele>47.0</ele><time>2026-03-22T15:04:58.357Z</time></trkpt><trkpt lat="45.956344" lon="13.2271091"><ele>47.0</ele><time>2026-03-22T15:04:59.353Z</time></trkpt><trkpt lat="45.9563011" lon="13.2270129"><ele>47.0</ele><time>2026-03-22T15:05:00.36Z</time></trkpt><trkpt lat="45.9562533" lon="13.2269118"><ele>47.0</ele><time>2026-03-22T15:05:01.363Z</time></trkpt><trkpt lat="45.9562079" lon="13.2267981"><ele>47.0</ele><time>2026-03-22T15:05:02.359Z</time></trkpt><trkpt lat="45.9561817" lon="13.2266653"><ele>47.0</ele><time>2026-03-22T15:05:03.387Z</time></trkpt><trkpt lat="45.9561324" lon="13.2265372"><ele>46.8</ele><time>2026-03-22T15:05:04.346Z</time></trkpt><trkpt lat="45.9560895" lon="13.2264018"><ele>46.6</ele><time>2026-03-22T15:05:05.358Z</time></trkpt><trkpt lat="45.9560543" lon="13.2262643"><ele>46.4</ele><time>2026-03-22T15:05:06.353Z</time></trkpt><trkpt lat="45.9560257" lon="13.2261269"><ele>46.199999999999996</ele><time>2026-03-22T15:05:07.351Z</time></trkpt><trkpt lat="45.956002" lon="13.2259948"><ele>46.0</ele><time>2026-03-22T15:05:08.344Z</time></trkpt><trkpt lat="45.9559866" lon="13.2258652"><ele>46.0</ele><time>2026-03-22T15:05:09.348Z</time></trkpt><trkpt lat="45.9559585" lon="13.2257481"><ele>46.0</ele><time>2026-03-22T15:05:10.371Z</time></trkpt><trkpt lat="45.9559232" lon="13.2256515"><ele>46.0</ele><time>2026-03-22T15:05:11.372Z</time></trkpt><trkpt lat="45.9559057" lon="13.2255607"><ele>46.0</ele><time>2026-03-22T15:05:12.37Z</time></trkpt><trkpt lat="45.9559367" lon="13.2253887"><ele>46.0</ele><time>2026-03-22T15:05:14.354Z</time></trkpt><trkpt lat="45.9559688" lon="13.2252956"><ele>46.0</ele><time>2026-03-22T15:05:15.356Z</time></trkpt><trkpt lat="45.9559741" lon="13.2251846"><ele>46.0</ele><time>2026-03-22T15:05:16.355Z</time></trkpt><trkpt lat="45.9559708" lon="13.2250785"><ele>46.0</ele><time>2026-03-22T15:05:17.362Z</time></trkpt><trkpt lat="45.9559152" lon="13.224986"><ele>46.0</ele><time>2026-03-22T15:05:18.36Z</time></trkpt><trkpt lat="45.9558589" lon="13.2249052"><ele>46.0</ele><time>2026-03-22T15:05:19.36Z</time></trkpt><trkpt lat="45.9558192" lon="13.2247958"><ele>46.0</ele><time>2026-03-22T15:05:20.35Z</time></trkpt><trkpt lat="45.9557563" lon="13.2247063"><ele>46.0</ele><time>2026-03-22T15:05:21.36Z</time></trkpt><trkpt lat="45.9556789" lon="13.224633"><ele>45.8</ele><time>2026-03-22T15:05:22.345Z</time></trkpt><trkpt lat="45.9556111" lon="13.2245397"><ele>45.599999999999994</ele><time>2026-03-22T15:05:23.351Z</time></trkpt><trkpt lat="45.9555305" lon="13.2244481"><ele>45.4</ele><time>2026-03-22T15:05:24.348Z</time></trkpt><trkpt lat="45.9554486" lon="13.224343"><ele>45.2</ele><time>2026-03-22T15:05:25.356Z</time></trkpt><trkpt lat="45.9553762" lon="13.2242203"><ele>45.0</ele><time>2026-03-22T15:05:26.363Z</time></trkpt><trkpt lat="45.9553002" lon="13.2241028"><ele>45.5</ele><time>2026-03-22T15:05:27.353Z</time></trkpt><trkpt lat="45.9552291" lon="13.2239755"><ele>46.0</ele><time>2026-03-22T15:05:28.355Z</time></trkpt><trkpt lat="45.9551617" lon="13.2238412"><ele>46.5</ele><time>2026-03-22T15:05:29.338Z</time></trkpt><trkpt lat="45.955093" lon="13.2237059"><ele>47.0</ele><time>2026-03-22T15:05:30.34Z</time></trkpt><trkpt lat="45.9550319" lon="13.2235607"><ele>47.0</ele><time>2026-03-22T15:05:31.357Z</time></trkpt><trkpt lat="45.9549601" lon="13.2234217"><ele>47.0</ele><time>2026-03-22T15:05:32.362Z</time></trkpt><trkpt lat="45.954886" lon="13.2232776"><ele>47.0</ele><time>2026-03-22T15:05:33.355Z</time></trkpt><trkpt lat="45.9548169" lon="13.2231226"><ele>47.0</ele><time>2026-03-22T15:05:34.35Z</time></trkpt><trkpt lat="45.9547544" lon="13.2229548"><ele>47.25</ele><time>2026-03-22T15:05:35.357Z</time></trkpt><trkpt lat="45.9547013" lon="13.2227731"><ele>47.5</ele><time>2026-03-22T15:05:36.354Z</time></trkpt><trkpt lat="45.954661" lon="13.2225784"><ele>47.75</ele><time>2026-03-22T15:05:37.36Z</time></trkpt><trkpt lat="45.9546332" lon="13.2223799"><ele>48.0</ele><time>2026-03-22T15:05:38.381Z</time></trkpt><trkpt lat="45.9546066" lon="13.2221837"><ele>47.5</ele><time>2026-03-22T15:05:39.347Z</time></trkpt><trkpt lat="45.9545809" lon="13.2219894"><ele>47.0</ele><time>2026-03-22T15:05:40.344Z</time></trkpt><trkpt lat="45.954556" lon="13.2217981"><ele>46.5</ele><time>2026-03-22T15:05:41.345Z</time></trkpt><trkpt lat="45.9545281" lon="13.2216103"><ele>46.0</ele><time>2026-03-22T15:05:42.341Z</time></trkpt><trkpt lat="45.9544983" lon="13.2214256"><ele>45.5</ele><time>2026-03-22T15:05:43.349Z</time></trkpt><trkpt lat="45.9544581" lon="13.2212438"><ele>45.0</ele><time>2026-03-22T15:05:44.361Z</time></trkpt><trkpt lat="45.9544435" lon="13.2210597"><ele>44.5</ele><time>2026-03-22T15:05:45.35Z</time></trkpt><trkpt lat="45.9544268" lon="13.2208789"><ele>44.0</ele><time>2026-03-22T15:05:46.342Z</time></trkpt><trkpt lat="45.9544066" lon="13.220703"><ele>43.75</ele><time>2026-03-22T15:05:47.36Z</time></trkpt><trkpt lat="45.9543905" lon="13.2205319"><ele>43.5</ele><time>2026-03-22T15:05:48.341Z</time></trkpt><trkpt lat="45.9543656" lon="13.2203658"><ele>43.25</ele><time>2026-03-22T15:05:49.344Z</time></trkpt><trkpt lat="45.9543454" lon="13.2202063"><ele>43.0</ele><time>2026-03-22T15:05:50.342Z</time></trkpt><trkpt lat="45.9543289" lon="13.2200639"><ele>43.0</ele><time>2026-03-22T15:05:51.353Z</time></trkpt><trkpt lat="45.9543141" lon="13.2199375"><ele>43.0</ele><time>2026-03-22T15:05:52.347Z</time></trkpt><trkpt lat="45.9543003" lon="13.2198164"><ele>43.0</ele><time>2026-03-22T15:05:53.371Z</time></trkpt><trkpt lat="45.9542898" lon="13.2196968"><ele>43.0</ele><time>2026-03-22T15:05:54.345Z</time></trkpt><trkpt lat="45.9542745" lon="13.2195694"><ele>43.0</ele><time>2026-03-22T15:05:55.371Z</time></trkpt><trkpt lat="45.9542571" lon="13.2194296"><ele>43.0</ele><time>2026-03-22T15:05:56.354Z</time></trkpt><trkpt lat="45.9542303" lon="13.219281"><ele>43.0</ele><time>2026-03-22T15:05:57.377Z</time></trkpt><trkpt lat="45.9542056" lon="13.2191183"><ele>43.0</ele><time>2026-03-22T15:05:58.349Z</time></trkpt><trkpt lat="45.9541845" lon="13.2189403"><ele>43.0</ele><time>2026-03-22T15:05:59.353Z</time></trkpt><trkpt lat="45.954153" lon="13.2187459"><ele>43.0</ele><time>2026-03-22T15:06:00.366Z</time></trkpt><trkpt lat="45.9541162" lon="13.2185411"><ele>43.0</ele><time>2026-03-22T15:06:01.351Z</time></trkpt><trkpt lat="45.9540798" lon="13.2183254"><ele>43.0</ele><time>2026-03-22T15:06:02.36Z</time></trkpt><trkpt lat="45.9540362" lon="13.2180969"><ele>43.0</ele><time>2026-03-22T15:06:03.39Z</time></trkpt><trkpt lat="45.9539743" lon="13.2178579"><ele>43.0</ele><time>2026-03-22T15:06:04.355Z</time></trkpt><trkpt lat="45.9539074" lon="13.2176126"><ele>43.0</ele><time>2026-03-22T15:06:05.369Z</time></trkpt><trkpt lat="45.9538275" lon="13.2173688"><ele>43.0</ele><time>2026-03-22T15:06:06.346Z</time></trkpt><trkpt lat="45.9537348" lon="13.2171212"><ele>43.0</ele><time>2026-03-22T15:06:07.355Z</time></trkpt><trkpt lat="45.9536376" lon="13.2168629"><ele>43.0</ele><time>2026-03-22T15:06:08.342Z</time></trkpt><trkpt lat="45.9535324" lon="13.2165974"><ele>43.0</ele><time>2026-03-22T15:06:09.353Z</time></trkpt><trkpt lat="45.9534227" lon="13.2163139"><ele>43.0</ele><time>2026-03-22T15:06:10.346Z</time></trkpt><trkpt lat="45.9533037" lon="13.2160124"><ele>43.0</ele><time>2026-03-22T15:06:11.355Z</time></trkpt><trkpt lat="45.9531801" lon="13.2157022"><ele>42.5</ele><time>2026-03-22T15:06:12.35Z</time></trkpt><trkpt lat="45.9530653" lon="13.2153932"><ele>42.0</ele><time>2026-03-22T15:06:13.353Z</time></trkpt><trkpt lat="45.9529436" lon="13.2151016"><ele>42.0</ele><time>2026-03-22T15:06:14.359Z</time></trkpt><trkpt lat="45.952832" lon="13.2148029"><ele>42.0</ele><time>2026-03-22T15:06:15.369Z</time></trkpt><trkpt lat="45.9527104" lon="13.2145085"><ele>42.0</ele><time>2026-03-22T15:06:16.351Z</time></trkpt><trkpt lat="45.9525858" lon="13.214204"><ele>42.0</ele><time>2026-03-22T15:06:17.349Z</time></trkpt><trkpt lat="45.9524555" lon="13.2138918"><ele>41.5</ele><time>2026-03-22T15:06:18.372Z</time></trkpt><trkpt lat="45.9523176" lon="13.2135643"><ele>41.0</ele><time>2026-03-22T15:06:19.363Z</time></trkpt><trkpt lat="45.952191" lon="13.2132071"><ele>40.5</ele><time>2026-03-22T15:06:20.351Z</time></trkpt><trkpt lat="45.9520601" lon="13.2128498"><ele>40.0</ele><time>2026-03-22T15:06:21.366Z</time></trkpt><trkpt lat="45.9519346" lon="13.2124935"><ele>40.0</ele><time>2026-03-22T15:06:22.357Z</time></trkpt><trkpt lat="45.9518135" lon="13.21214"><ele>40.0</ele><time>2026-03-22T15:06:23.359Z</time></trkpt><trkpt lat="45.9517066" lon="13.2117814"><ele>39.5</ele><time>2026-03-22T15:06:24.345Z</time></trkpt><trkpt lat="45.951612" lon="13.2114196"><ele>39.0</ele><time>2026-03-22T15:06:25.361Z</time></trkpt><trkpt lat="45.9515186" lon="13.2110583"><ele>39.0</ele><time>2026-03-22T15:06:26.358Z</time></trkpt><trkpt lat="45.951426" lon="13.2106997"><ele>39.0</ele><time>2026-03-22T15:06:27.351Z</time></trkpt><trkpt lat="45.9513351" lon="13.2103471"><ele>39.0</ele><time>2026-03-22T15:06:28.375Z</time></trkpt><trkpt lat="45.9512453" lon="13.2100032"><ele>39.0</ele><time>2026-03-22T15:06:29.36Z</time></trkpt><trkpt lat="45.951151" lon="13.2096664"><ele>40.5</ele><time>2026-03-22T15:06:30.344Z</time></trkpt><trkpt lat="45.9510665" lon="13.2093313"><ele>42.0</ele><time>2026-03-22T15:06:31.36Z</time></trkpt><trkpt lat="45.9509828" lon="13.209002"><ele>41.5</ele><time>2026-03-22T15:06:32.35Z</time></trkpt><trkpt lat="45.9508972" lon="13.208681"><ele>41.0</ele><time>2026-03-22T15:06:33.359Z</time></trkpt><trkpt lat="45.950805" lon="13.2083739"><ele>40.33333333333333</ele><time>2026-03-22T15:06:34.367Z</time></trkpt><trkpt lat="45.9507119" lon="13.2080793"><ele>39.666666666666664</ele><time>2026-03-22T15:06:35.376Z</time></trkpt><trkpt lat="45.9506327" lon="13.2077955"><ele>39.0</ele><time>2026-03-22T15:06:36.361Z</time></trkpt><trkpt lat="45.9505554" lon="13.2075245"><ele>39.666666666666664</ele><time>2026-03-22T15:06:37.346Z</time></trkpt><trkpt lat="45.9504903" lon="13.2072549"><ele>40.33333333333333</ele><time>2026-03-22T15:06:38.357Z</time></trkpt><trkpt lat="45.950425" lon="13.2069928"><ele>41.0</ele><time>2026-03-22T15:06:39.35Z</time></trkpt><trkpt lat="45.9503617" lon="13.2067378"><ele>41.0</ele><time>2026-03-22T15:06:40.367Z</time></trkpt><trkpt lat="45.9503" lon="13.2064868"><ele>41.0</ele><time>2026-03-22T15:06:41.356Z</time></trkpt><trkpt lat="45.9502389" lon="13.206239"><ele>41.0</ele><time>2026-03-22T15:06:42.356Z</time></trkpt><trkpt lat="45.9501805" lon="13.2059902"><ele>41.0</ele><time>2026-03-22T15:06:43.359Z</time></trkpt><trkpt lat="45.9501101" lon="13.2057466"><ele>41.0</ele><time>2026-03-22T15:06:44.353Z</time></trkpt><trkpt lat="45.9500505" lon="13.2054942"><ele>41.0</ele><time>2026-03-22T15:06:45.342Z</time></trkpt><trkpt lat="45.9499861" lon="13.205241"><ele>41.0</ele><time>2026-03-22T15:06:46.37Z</time></trkpt><trkpt lat="45.9499182" lon="13.2049863"><ele>41.0</ele><time>2026-03-22T15:06:47.372Z</time></trkpt><trkpt lat="45.9498423" lon="13.2047309"><ele>41.0</ele><time>2026-03-22T15:06:48.355Z</time></trkpt><trkpt lat="45.9497786" lon="13.2044567"><ele>41.0</ele><time>2026-03-22T15:06:49.357Z</time></trkpt><trkpt lat="45.9497007" lon="13.2041772"><ele>41.0</ele><time>2026-03-22T15:06:50.353Z</time></trkpt><trkpt lat="45.949623" lon="13.2038852"><ele>41.0</ele><time>2026-03-22T15:06:51.349Z</time></trkpt><trkpt lat="45.9495438" lon="13.20358"><ele>41.0</ele><time>2026-03-22T15:06:52.343Z</time></trkpt><trkpt lat="45.9494657" lon="13.2032626"><ele>41.0</ele><time>2026-03-22T15:06:53.339Z</time></trkpt><trkpt lat="45.9493847" lon="13.202942"><ele>40.0</ele><time>2026-03-22T15:06:54.352Z</time></trkpt><trkpt lat="45.9493016" lon="13.2026212"><ele>39.0</ele><time>2026-03-22T15:06:55.348Z</time></trkpt><trkpt lat="45.9492191" lon="13.2023003"><ele>39.5</ele><time>2026-03-22T15:06:56.354Z</time></trkpt><trkpt lat="45.9491315" lon="13.2019827"><ele>40.0</ele><time>2026-03-22T15:06:57.358Z</time></trkpt><trkpt lat="45.9490442" lon="13.201661"><ele>40.0</ele><time>2026-03-22T15:06:58.355Z</time></trkpt><trkpt lat="45.9489627" lon="13.2013336"><ele>40.0</ele><time>2026-03-22T15:06:59.354Z</time></trkpt><trkpt lat="45.9488927" lon="13.2010003"><ele>40.0</ele><time>2026-03-22T15:07:00.35Z</time></trkpt><trkpt lat="45.9488248" lon="13.2006712"><ele>40.0</ele><time>2026-03-22T15:07:01.366Z</time></trkpt><trkpt lat="45.9487804" lon="13.2003383"><ele>40.5</ele><time>2026-03-22T15:07:02.346Z</time></trkpt><trkpt lat="45.9487486" lon="13.2000073"><ele>41.0</ele><time>2026-03-22T15:07:03.371Z</time></trkpt><trkpt lat="45.9487289" lon="13.1996766"><ele>41.5</ele><time>2026-03-22T15:07:04.359Z</time></trkpt><trkpt lat="45.9487195" lon="13.1993455"><ele>42.0</ele><time>2026-03-22T15:07:05.349Z</time></trkpt><trkpt lat="45.948718" lon="13.199015"><ele>41.5</ele><time>2026-03-22T15:07:06.351Z</time></trkpt><trkpt lat="45.9487281" lon="13.1986831"><ele>41.0</ele><time>2026-03-22T15:07:07.362Z</time></trkpt><trkpt lat="45.9487587" lon="13.1983514"><ele>40.5</ele><time>2026-03-22T15:07:08.359Z</time></trkpt><trkpt lat="45.9487711" lon="13.1980191"><ele>40.0</ele><time>2026-03-22T15:07:09.355Z</time></trkpt><trkpt lat="45.9487701" lon="13.1976847"><ele>40.0</ele><time>2026-03-22T15:07:10.348Z</time></trkpt><trkpt lat="45.9487679" lon="13.1973493"><ele>40.0</ele><time>2026-03-22T15:07:11.362Z</time></trkpt><trkpt lat="45.9487682" lon="13.1970125"><ele>40.5</ele><time>2026-03-22T15:07:12.348Z</time></trkpt><trkpt lat="45.9487628" lon="13.1966749"><ele>41.0</ele><time>2026-03-22T15:07:13.355Z</time></trkpt><trkpt lat="45.9487638" lon="13.1963367"><ele>41.5</ele><time>2026-03-22T15:07:14.361Z</time></trkpt><trkpt lat="45.9487697" lon="13.1959985"><ele>42.0</ele><time>2026-03-22T15:07:15.37Z</time></trkpt><trkpt lat="45.9487792" lon="13.1956602"><ele>42.5</ele><time>2026-03-22T15:07:16.342Z</time></trkpt><trkpt lat="45.9487921" lon="13.1953214"><ele>43.0</ele><time>2026-03-22T15:07:17.354Z</time></trkpt><trkpt lat="45.9487925" lon="13.1949854"><ele>42.66666666666667</ele><time>2026-03-22T15:07:18.355Z</time></trkpt><trkpt lat="45.9487975" lon="13.1946583"><ele>42.333333333333336</ele><time>2026-03-22T15:07:19.378Z</time></trkpt><trkpt lat="45.9487984" lon="13.1943413"><ele>42.0</ele><time>2026-03-22T15:07:20.353Z</time></trkpt><trkpt lat="45.948803" lon="13.1940337"><ele>42.0</ele><time>2026-03-22T15:07:21.362Z</time></trkpt><trkpt lat="45.9488082" lon="13.193731"><ele>42.0</ele><time>2026-03-22T15:07:22.356Z</time></trkpt><trkpt lat="45.9488168" lon="13.1934298"><ele>42.0</ele><time>2026-03-22T15:07:23.371Z</time></trkpt><trkpt lat="45.9488224" lon="13.1931295"><ele>42.0</ele><time>2026-03-22T15:07:24.36Z</time></trkpt><trkpt lat="45.9488284" lon="13.1928318"><ele>42.0</ele><time>2026-03-22T15:07:25.354Z</time></trkpt><trkpt lat="45.9488335" lon="13.1925345"><ele>42.0</ele><time>2026-03-22T15:07:26.348Z</time></trkpt><trkpt lat="45.9488355" lon="13.19224"><ele>42.0</ele><time>2026-03-22T15:07:27.362Z</time></trkpt><trkpt lat="45.9488447" lon="13.191948"><ele>42.0</ele><time>2026-03-22T15:07:28.35Z</time></trkpt><trkpt lat="45.9488503" lon="13.191654"><ele>42.0</ele><time>2026-03-22T15:07:29.358Z</time></trkpt><trkpt lat="45.9488537" lon="13.1913581"><ele>42.0</ele><time>2026-03-22T15:07:30.368Z</time></trkpt><trkpt lat="45.9488569" lon="13.1910588"><ele>42.0</ele><time>2026-03-22T15:07:31.353Z</time></trkpt><trkpt lat="45.9488612" lon="13.1907562"><ele>42.0</ele><time>2026-03-22T15:07:32.368Z</time></trkpt><trkpt lat="45.9488635" lon="13.1904516"><ele>42.0</ele><time>2026-03-22T15:07:33.357Z</time></trkpt><trkpt lat="45.9488623" lon="13.190143"><ele>42.0</ele><time>2026-03-22T15:07:34.354Z</time></trkpt><trkpt lat="45.9488493" lon="13.1898302"><ele>42.0</ele><time>2026-03-22T15:07:35.366Z</time></trkpt><trkpt lat="45.948837" lon="13.1895151"><ele>41.666666666666664</ele><time>2026-03-22T15:07:36.371Z</time></trkpt><trkpt lat="45.948815" lon="13.1892002"><ele>41.33333333333333</ele><time>2026-03-22T15:07:37.367Z</time></trkpt><trkpt lat="45.9487931" lon="13.1888837"><ele>41.0</ele><time>2026-03-22T15:07:38.376Z</time></trkpt><trkpt lat="45.9487715" lon="13.1885654"><ele>41.0</ele><time>2026-03-22T15:07:39.359Z</time></trkpt><trkpt lat="45.9487543" lon="13.1882458"><ele>41.0</ele><time>2026-03-22T15:07:40.36Z</time></trkpt><trkpt lat="45.9487217" lon="13.1879295"><ele>41.0</ele><time>2026-03-22T15:07:41.357Z</time></trkpt><trkpt lat="45.9486924" lon="13.1876175"><ele>40.666666666666664</ele><time>2026-03-22T15:07:42.372Z</time></trkpt><trkpt lat="45.9486689" lon="13.1873078"><ele>40.333333333333336</ele><time>2026-03-22T15:07:43.367Z</time></trkpt><trkpt lat="45.9486444" lon="13.1870036"><ele>40.0</ele><time>2026-03-22T15:07:44.362Z</time></trkpt><trkpt lat="45.9486196" lon="13.1867058"><ele>40.0</ele><time>2026-03-22T15:07:45.369Z</time></trkpt><trkpt lat="45.9485949" lon="13.1864109"><ele>40.0</ele><time>2026-03-22T15:07:46.346Z</time></trkpt><trkpt lat="45.9485702" lon="13.1861205"><ele>40.0</ele><time>2026-03-22T15:07:47.378Z</time></trkpt><trkpt lat="45.9485526" lon="13.185837"><ele>40.333333333333336</ele><time>2026-03-22T15:07:48.368Z</time></trkpt><trkpt lat="45.9485332" lon="13.185557"><ele>40.666666666666664</ele><time>2026-03-22T15:07:49.378Z</time></trkpt><trkpt lat="45.9485141" lon="13.1852828"><ele>41.0</ele><time>2026-03-22T15:07:50.361Z</time></trkpt><trkpt lat="45.9484987" lon="13.1850138"><ele>41.33333333333333</ele><time>2026-03-22T15:07:51.387Z</time></trkpt><trkpt lat="45.9484803" lon="13.1847542"><ele>41.666666666666664</ele><time>2026-03-22T15:07:52.366Z</time></trkpt><trkpt lat="45.9484518" lon="13.1845038"><ele>42.0</ele><time>2026-03-22T15:07:53.375Z</time></trkpt><trkpt lat="45.948441" lon="13.1842591"><ele>42.0</ele><time>2026-03-22T15:07:54.373Z</time></trkpt><trkpt lat="45.948424" lon="13.18402"><ele>42.0</ele><time>2026-03-22T15:07:55.363Z</time></trkpt><trkpt lat="45.9484025" lon="13.1837865"><ele>42.0</ele><time>2026-03-22T15:07:56.354Z</time></trkpt><trkpt lat="45.9483696" lon="13.1835579"><ele>42.0</ele><time>2026-03-22T15:07:57.357Z</time></trkpt><trkpt lat="45.9483156" lon="13.1833362"><ele>42.0</ele><time>2026-03-22T15:07:58.367Z</time></trkpt><trkpt lat="45.9482496" lon="13.1831208"><ele>42.0</ele><time>2026-03-22T15:07:59.378Z</time></trkpt><trkpt lat="45.9481856" lon="13.1829034"><ele>42.0</ele><time>2026-03-22T15:08:00.379Z</time></trkpt><trkpt lat="45.9481036" lon="13.1826913"><ele>42.0</ele><time>2026-03-22T15:08:01.358Z</time></trkpt><trkpt lat="45.9480313" lon="13.1824707"><ele>42.0</ele><time>2026-03-22T15:08:02.376Z</time></trkpt><trkpt lat="45.9479485" lon="13.1822653"><ele>42.0</ele><time>2026-03-22T15:08:03.378Z</time></trkpt><trkpt lat="45.9478701" lon="13.182066"><ele>42.0</ele><time>2026-03-22T15:08:04.348Z</time></trkpt><trkpt lat="45.9477977" lon="13.181871"><ele>42.0</ele><time>2026-03-22T15:08:05.362Z</time></trkpt><trkpt lat="45.9477308" lon="13.1816722"><ele>42.0</ele><time>2026-03-22T15:08:06.361Z</time></trkpt><trkpt lat="45.9476593" lon="13.1814736"><ele>42.0</ele><time>2026-03-22T15:08:07.362Z</time></trkpt><trkpt lat="45.947594" lon="13.1812735"><ele>42.0</ele><time>2026-03-22T15:08:08.364Z</time></trkpt><trkpt lat="45.9475261" lon="13.181082"><ele>41.75</ele><time>2026-03-22T15:08:09.36Z</time></trkpt><trkpt lat="45.9474632" lon="13.1808935"><ele>41.5</ele><time>2026-03-22T15:08:10.357Z</time></trkpt><trkpt lat="45.9473995" lon="13.1807095"><ele>41.25</ele><time>2026-03-22T15:08:11.362Z</time></trkpt><trkpt lat="45.9473542" lon="13.1805181"><ele>41.0</ele><time>2026-03-22T15:08:12.357Z</time></trkpt><trkpt lat="45.9472896" lon="13.1803425"><ele>41.0</ele><time>2026-03-22T15:08:13.354Z</time></trkpt><trkpt lat="45.9472288" lon="13.1801686"><ele>41.0</ele><time>2026-03-22T15:08:14.37Z</time></trkpt><trkpt lat="45.9471695" lon="13.1800129"><ele>41.0</ele><time>2026-03-22T15:08:15.371Z</time></trkpt><trkpt lat="45.9471244" lon="13.1798669"><ele>41.0</ele><time>2026-03-22T15:08:16.369Z</time></trkpt><trkpt lat="45.947079" lon="13.1797463"><ele>41.166666666666664</ele><time>2026-03-22T15:08:17.369Z</time></trkpt><trkpt lat="45.9470546" lon="13.1796323"><ele>41.33333333333333</ele><time>2026-03-22T15:08:18.368Z</time></trkpt><trkpt lat="45.9470203" lon="13.1795476"><ele>41.5</ele><time>2026-03-22T15:08:19.356Z</time></trkpt><trkpt lat="45.9469741" lon="13.1794165"><ele>41.666666666666664</ele><time>2026-03-22T15:08:21.359Z</time></trkpt><trkpt lat="45.946951" lon="13.1793182"><ele>41.833333333333336</ele><time>2026-03-22T15:08:23.354Z</time></trkpt><trkpt lat="45.9469163" lon="13.1791992"><ele>42.0</ele><time>2026-03-22T15:10:07.36Z</time></trkpt><trkpt lat="45.9468931" lon="13.1790771"><ele>42.0</ele><time>2026-03-22T15:10:09.365Z</time></trkpt><trkpt lat="45.9468923" lon="13.1789345"><ele>42.0</ele><time>2026-03-22T15:10:11.346Z</time></trkpt><trkpt lat="45.9469032" lon="13.1788421"><ele>42.0</ele><time>2026-03-22T15:10:12.341Z</time></trkpt><trkpt lat="45.9469323" lon="13.1787412"><ele>42.0</ele><time>2026-03-22T15:10:13.361Z</time></trkpt><trkpt lat="45.9469644" lon="13.1786445"><ele>42.0</ele><time>2026-03-22T15:10:14.341Z</time></trkpt><trkpt lat="45.9469951" lon="13.1785518"><ele>42.0</ele><time>2026-03-22T15:10:15.355Z</time></trkpt><trkpt lat="45.9470136" lon="13.1784589"><ele>42.0</ele><time>2026-03-22T15:10:16.352Z</time></trkpt><trkpt lat="45.9470127" lon="13.1783596"><ele>42.0</ele><time>2026-03-22T15:10:17.36Z</time></trkpt><trkpt lat="45.9469959" lon="13.178266"><ele>42.0</ele><time>2026-03-22T15:10:18.358Z</time></trkpt><trkpt lat="45.9469416" lon="13.1781077"><ele>42.0</ele><time>2026-03-22T15:10:20.345Z</time></trkpt><trkpt lat="45.9468398" lon="13.1779996"><ele>42.0</ele><time>2026-03-22T15:10:22.356Z</time></trkpt><trkpt lat="45.9467836" lon="13.1779428"><ele>41.833333333333336</ele><time>2026-03-22T15:10:23.351Z</time></trkpt><trkpt lat="45.9467454" lon="13.1778565"><ele>41.666666666666664</ele><time>2026-03-22T15:10:24.371Z</time></trkpt><trkpt lat="45.9467147" lon="13.1777533"><ele>41.5</ele><time>2026-03-22T15:10:25.361Z</time></trkpt><trkpt lat="45.946691" lon="13.1776385"><ele>41.33333333333333</ele><time>2026-03-22T15:10:26.346Z</time></trkpt><trkpt lat="45.9466682" lon="13.177516"><ele>41.166666666666664</ele><time>2026-03-22T15:10:27.363Z</time></trkpt><trkpt lat="45.9466427" lon="13.177388"><ele>41.0</ele><time>2026-03-22T15:10:28.348Z</time></trkpt><trkpt lat="45.9466167" lon="13.1772517"><ele>41.0</ele><time>2026-03-22T15:10:29.372Z</time></trkpt><trkpt lat="45.9465874" lon="13.1771106"><ele>41.0</ele><time>2026-03-22T15:10:30.343Z</time></trkpt><trkpt lat="45.9465537" lon="13.1769608"><ele>41.0</ele><time>2026-03-22T15:10:31.355Z</time></trkpt><trkpt lat="45.9465154" lon="13.1768051"><ele>41.0</ele><time>2026-03-22T15:10:32.365Z</time></trkpt><trkpt lat="45.9464788" lon="13.1766416"><ele>41.0</ele><time>2026-03-22T15:10:33.371Z</time></trkpt><trkpt lat="45.9464604" lon="13.1764667"><ele>41.0</ele><time>2026-03-22T15:10:34.36Z</time></trkpt><trkpt lat="45.9464392" lon="13.1762986"><ele>41.0</ele><time>2026-03-22T15:10:35.367Z</time></trkpt><trkpt lat="45.9464083" lon="13.1761357"><ele>41.0</ele><time>2026-03-22T15:10:36.373Z</time></trkpt><trkpt lat="45.9463623" lon="13.1759779"><ele>41.0</ele><time>2026-03-22T15:10:37.351Z</time></trkpt><trkpt lat="45.9463152" lon="13.1758217"><ele>40.75</ele><time>2026-03-22T15:10:38.359Z</time></trkpt><trkpt lat="45.9462485" lon="13.1756774"><ele>40.5</ele><time>2026-03-22T15:10:39.354Z</time></trkpt><trkpt lat="45.9461798" lon="13.1755403"><ele>40.25</ele><time>2026-03-22T15:10:40.35Z</time></trkpt><trkpt lat="45.9461138" lon="13.1754021"><ele>40.0</ele><time>2026-03-22T15:10:41.347Z</time></trkpt><trkpt lat="45.9460296" lon="13.1752724"><ele>40.0</ele><time>2026-03-22T15:10:42.351Z</time></trkpt><trkpt lat="45.9459493" lon="13.1751451"><ele>40.0</ele><time>2026-03-22T15:10:43.372Z</time></trkpt><trkpt lat="45.9458634" lon="13.1750249"><ele>40.0</ele><time>2026-03-22T15:10:44.358Z</time></trkpt><trkpt lat="45.9457878" lon="13.1749017"><ele>40.0</ele><time>2026-03-22T15:10:45.366Z</time></trkpt><trkpt lat="45.9457148" lon="13.1747856"><ele>40.0</ele><time>2026-03-22T15:10:46.363Z</time></trkpt><trkpt lat="45.9456414" lon="13.1746814"><ele>40.0</ele><time>2026-03-22T15:10:47.356Z</time></trkpt><trkpt lat="45.9455894" lon="13.1745529"><ele>40.0</ele><time>2026-03-22T15:10:48.359Z</time></trkpt><trkpt lat="45.9455384" lon="13.1744287"><ele>40.0</ele><time>2026-03-22T15:10:49.365Z</time></trkpt><trkpt lat="45.9454999" lon="13.1742937"><ele>40.0</ele><time>2026-03-22T15:10:50.349Z</time></trkpt><trkpt lat="45.9454567" lon="13.1741583"><ele>40.0</ele><time>2026-03-22T15:10:51.367Z</time></trkpt><trkpt lat="45.9454099" lon="13.1740228"><ele>40.0</ele><time>2026-03-22T15:10:52.357Z</time></trkpt><trkpt lat="45.9453548" lon="13.1738882"><ele>40.0</ele><time>2026-03-22T15:10:53.345Z</time></trkpt><trkpt lat="45.9453075" lon="13.1737493"><ele>40.0</ele><time>2026-03-22T15:10:54.35Z</time></trkpt><trkpt lat="45.9452632" lon="13.1736077"><ele>40.0</ele><time>2026-03-22T15:10:55.348Z</time></trkpt><trkpt lat="45.9452182" lon="13.1734651"><ele>40.0</ele><time>2026-03-22T15:10:56.356Z</time></trkpt><trkpt lat="45.9451742" lon="13.1733161"><ele>40.0</ele><time>2026-03-22T15:10:57.366Z</time></trkpt><trkpt lat="45.9451285" lon="13.173167"><ele>40.0</ele><time>2026-03-22T15:10:58.352Z</time></trkpt><trkpt lat="45.9450989" lon="13.1730155"><ele>40.0</ele><time>2026-03-22T15:10:59.37Z</time></trkpt><trkpt lat="45.9450582" lon="13.1728756"><ele>40.0</ele><time>2026-03-22T15:11:00.361Z</time></trkpt><trkpt lat="45.9449984" lon="13.1727472"><ele>39.8</ele><time>2026-03-22T15:11:01.366Z</time></trkpt><trkpt lat="45.9449365" lon="13.1726243"><ele>39.6</ele><time>2026-03-22T15:11:02.359Z</time></trkpt><trkpt lat="45.9448805" lon="13.1724977"><ele>39.4</ele><time>2026-03-22T15:11:03.358Z</time></trkpt><trkpt lat="45.9448218" lon="13.172379"><ele>39.2</ele><time>2026-03-22T15:11:04.357Z</time></trkpt><trkpt lat="45.9447494" lon="13.1722787"><ele>39.0</ele><time>2026-03-22T15:11:05.362Z</time></trkpt><trkpt lat="45.9446744" lon="13.172189"><ele>39.0</ele><time>2026-03-22T15:11:06.349Z</time></trkpt><trkpt lat="45.9445814" lon="13.17213"><ele>39.0</ele><time>2026-03-22T15:11:07.361Z</time></trkpt><trkpt lat="45.9444848" lon="13.1720803"><ele>39.0</ele><time>2026-03-22T15:11:08.362Z</time></trkpt><trkpt lat="45.9443816" lon="13.1720364"><ele>39.0</ele><time>2026-03-22T15:11:09.36Z</time></trkpt><trkpt lat="45.9442758" lon="13.171994"><ele>39.0</ele><time>2026-03-22T15:11:10.35Z</time></trkpt><trkpt lat="45.9441731" lon="13.1719491"><ele>39.0</ele><time>2026-03-22T15:11:11.37Z</time></trkpt><trkpt lat="45.9440686" lon="13.1719206"><ele>39.0</ele><time>2026-03-22T15:11:12.36Z</time></trkpt><trkpt lat="45.9439701" lon="13.1718848"><ele>39.0</ele><time>2026-03-22T15:11:13.363Z</time></trkpt><trkpt lat="45.9438741" lon="13.1718546"><ele>39.0</ele><time>2026-03-22T15:11:14.351Z</time></trkpt><trkpt lat="45.9437826" lon="13.1718146"><ele>39.0</ele><time>2026-03-22T15:11:15.356Z</time></trkpt><trkpt lat="45.9436941" lon="13.1717759"><ele>39.0</ele><time>2026-03-22T15:11:16.342Z</time></trkpt><trkpt lat="45.9436159" lon="13.1717247"><ele>39.0</ele><time>2026-03-22T15:11:17.354Z</time></trkpt><trkpt lat="45.943554" lon="13.1716664"><ele>39.0</ele><time>2026-03-22T15:11:18.355Z</time></trkpt><trkpt lat="45.9434996" lon="13.1716061"><ele>39.0</ele><time>2026-03-22T15:11:19.357Z</time></trkpt><trkpt lat="45.9434518" lon="13.1715034"><ele>39.0</ele><time>2026-03-22T15:11:20.347Z</time></trkpt><trkpt lat="45.9433932" lon="13.1713763"><ele>39.0</ele><time>2026-03-22T15:11:21.353Z</time></trkpt><trkpt lat="45.943336" lon="13.1712129"><ele>39.0</ele><time>2026-03-22T15:11:22.358Z</time></trkpt><trkpt lat="45.9432835" lon="13.1710544"><ele>39.0</ele><time>2026-03-22T15:11:23.358Z</time></trkpt><trkpt lat="45.9432268" lon="13.1709264"><ele>39.0</ele><time>2026-03-22T15:11:24.345Z</time></trkpt><trkpt lat="45.9431874" lon="13.170789"><ele>39.0</ele><time>2026-03-22T15:11:25.38Z</time></trkpt><trkpt lat="45.9431356" lon="13.1706413"><ele>39.0</ele><time>2026-03-22T15:11:26.347Z</time></trkpt><trkpt lat="45.9430691" lon="13.1704851"><ele>39.0</ele><time>2026-03-22T15:11:27.358Z</time></trkpt><trkpt lat="45.9429915" lon="13.1703128"><ele>39.0</ele><time>2026-03-22T15:11:28.356Z</time></trkpt><trkpt lat="45.9429162" lon="13.170121"><ele>39.0</ele><time>2026-03-22T15:11:29.36Z</time></trkpt><trkpt lat="45.942841" lon="13.1699208"><ele>38.666666666666664</ele><time>2026-03-22T15:11:30.385Z</time></trkpt><trkpt lat="45.942771" lon="13.1697242"><ele>38.33333333333333</ele><time>2026-03-22T15:11:31.366Z</time></trkpt><trkpt lat="45.9427067" lon="13.1695271"><ele>38.0</ele><time>2026-03-22T15:11:32.358Z</time></trkpt><trkpt lat="45.9426441" lon="13.169329"><ele>38.0</ele><time>2026-03-22T15:11:33.359Z</time></trkpt><trkpt lat="45.942581" lon="13.1691427"><ele>38.0</ele><time>2026-03-22T15:11:34.352Z</time></trkpt><trkpt lat="45.9425079" lon="13.1689716"><ele>38.0</ele><time>2026-03-22T15:11:35.364Z</time></trkpt><trkpt lat="45.9424459" lon="13.1687997"><ele>38.0</ele><time>2026-03-22T15:11:36.35Z</time></trkpt><trkpt lat="45.9423713" lon="13.1686329"><ele>37.75</ele><time>2026-03-22T15:11:37.356Z</time></trkpt><trkpt lat="45.9422991" lon="13.1684579"><ele>37.5</ele><time>2026-03-22T15:11:38.357Z</time></trkpt><trkpt lat="45.9422242" lon="13.1682758"><ele>37.25</ele><time>2026-03-22T15:11:39.356Z</time></trkpt><trkpt lat="45.9421459" lon="13.1680929"><ele>37.0</ele><time>2026-03-22T15:11:40.34Z</time></trkpt><trkpt lat="45.9420659" lon="13.1679079"><ele>37.0</ele><time>2026-03-22T15:11:41.347Z</time></trkpt><trkpt lat="45.9419909" lon="13.1677177"><ele>37.0</ele><time>2026-03-22T15:11:42.354Z</time></trkpt><trkpt lat="45.9419134" lon="13.1675294"><ele>37.0</ele><time>2026-03-22T15:11:43.365Z</time></trkpt><trkpt lat="45.9418376" lon="13.1673433"><ele>36.75</ele><time>2026-03-22T15:11:44.362Z</time></trkpt><trkpt lat="45.9417624" lon="13.1671565"><ele>36.5</ele><time>2026-03-22T15:11:45.349Z</time></trkpt><trkpt lat="45.9416873" lon="13.1669724"><ele>36.25</ele><time>2026-03-22T15:11:46.343Z</time></trkpt><trkpt lat="45.9416135" lon="13.1667873"><ele>36.0</ele><time>2026-03-22T15:11:47.362Z</time></trkpt><trkpt lat="45.9415446" lon="13.1665931"><ele>36.333333333333336</ele><time>2026-03-22T15:11:48.338Z</time></trkpt><trkpt lat="45.9414713" lon="13.1663991"><ele>36.66666666666667</ele><time>2026-03-22T15:11:49.353Z</time></trkpt><trkpt lat="45.9413953" lon="13.1662048"><ele>37.0</ele><time>2026-03-22T15:11:50.352Z</time></trkpt><trkpt lat="45.9413225" lon="13.1660079"><ele>37.0</ele><time>2026-03-22T15:11:51.354Z</time></trkpt><trkpt lat="45.9412429" lon="13.1658157"><ele>37.0</ele><time>2026-03-22T15:11:52.352Z</time></trkpt><trkpt lat="45.9411641" lon="13.1656215"><ele>37.0</ele><time>2026-03-22T15:11:53.36Z</time></trkpt><trkpt lat="45.9410868" lon="13.1654244"><ele>37.0</ele><time>2026-03-22T15:11:54.352Z</time></trkpt><trkpt lat="45.9410088" lon="13.1652295"><ele>37.0</ele><time>2026-03-22T15:11:55.371Z</time></trkpt><trkpt lat="45.9409367" lon="13.1650331"><ele>37.0</ele><time>2026-03-22T15:11:56.342Z</time></trkpt><trkpt lat="45.9408704" lon="13.1648349"><ele>36.66666666666667</ele><time>2026-03-22T15:11:57.345Z</time></trkpt><trkpt lat="45.9408273" lon="13.1646211"><ele>36.333333333333336</ele><time>2026-03-22T15:11:58.347Z</time></trkpt><trkpt lat="45.9407896" lon="13.1644008"><ele>36.0</ele><time>2026-03-22T15:11:59.354Z</time></trkpt><trkpt lat="45.9407508" lon="13.1641773"><ele>36.0</ele><time>2026-03-22T15:12:00.343Z</time></trkpt><trkpt lat="45.9407198" lon="13.1639505"><ele>36.0</ele><time>2026-03-22T15:12:01.354Z</time></trkpt><trkpt lat="45.940678" lon="13.1637199"><ele>36.0</ele><time>2026-03-22T15:12:02.362Z</time></trkpt><trkpt lat="45.9406515" lon="13.1634825"><ele>36.0</ele><time>2026-03-22T15:12:03.361Z</time></trkpt><trkpt lat="45.9406304" lon="13.163246"><ele>36.0</ele><time>2026-03-22T15:12:04.357Z</time></trkpt><trkpt lat="45.9406264" lon="13.1630023"><ele>36.0</ele><time>2026-03-22T15:12:05.36Z</time></trkpt><trkpt lat="45.9406343" lon="13.1627483"><ele>35.666666666666664</ele><time>2026-03-22T15:12:06.357Z</time></trkpt><trkpt lat="45.9406529" lon="13.1624872"><ele>35.33333333333333</ele><time>2026-03-22T15:12:07.35Z</time></trkpt><trkpt lat="45.9406672" lon="13.1622217"><ele>35.0</ele><time>2026-03-22T15:12:08.369Z</time></trkpt><trkpt lat="45.9406899" lon="13.1619587"><ele>35.0</ele><time>2026-03-22T15:12:09.358Z</time></trkpt><trkpt lat="45.9407047" lon="13.1616979"><ele>35.0</ele><time>2026-03-22T15:12:10.375Z</time></trkpt><trkpt lat="45.9407151" lon="13.1614404"><ele>35.0</ele><time>2026-03-22T15:12:11.352Z</time></trkpt><trkpt lat="45.940738" lon="13.161189"><ele>34.33333333333333</ele><time>2026-03-22T15:12:12.376Z</time></trkpt><trkpt lat="45.9407446" lon="13.1609406"><ele>33.666666666666664</ele><time>2026-03-22T15:12:13.38Z</time></trkpt><trkpt lat="45.9407675" lon="13.1606963"><ele>33.0</ele><time>2026-03-22T15:12:14.357Z</time></trkpt><trkpt lat="45.9407831" lon="13.1604518"><ele>33.0</ele><time>2026-03-22T15:12:15.379Z</time></trkpt><trkpt lat="45.9407966" lon="13.1602063"><ele>33.0</ele><time>2026-03-22T15:12:16.362Z</time></trkpt><trkpt lat="45.9408069" lon="13.1599553"><ele>33.0</ele><time>2026-03-22T15:12:17.375Z</time></trkpt><trkpt lat="45.9408261" lon="13.1597011"><ele>33.333333333333336</ele><time>2026-03-22T15:12:18.353Z</time></trkpt><trkpt lat="45.9408428" lon="13.159442"><ele>33.66666666666667</ele><time>2026-03-22T15:12:19.38Z</time></trkpt><trkpt lat="45.9408555" lon="13.1591788"><ele>34.0</ele><time>2026-03-22T15:12:20.374Z</time></trkpt><trkpt lat="45.9408748" lon="13.1589138"><ele>34.0</ele><time>2026-03-22T15:12:21.357Z</time></trkpt><trkpt lat="45.9408897" lon="13.1586437"><ele>34.0</ele><time>2026-03-22T15:12:22.353Z</time></trkpt><trkpt lat="45.9408962" lon="13.1583668"><ele>34.0</ele><time>2026-03-22T15:12:23.368Z</time></trkpt><trkpt lat="45.9409001" lon="13.1580855"><ele>34.0</ele><time>2026-03-22T15:12:24.351Z</time></trkpt><trkpt lat="45.9409004" lon="13.1577985"><ele>34.0</ele><time>2026-03-22T15:12:25.379Z</time></trkpt><trkpt lat="45.9408887" lon="13.1575087"><ele>34.0</ele><time>2026-03-22T15:12:26.363Z</time></trkpt><trkpt lat="45.940876" lon="13.1572142"><ele>34.0</ele><time>2026-03-22T15:12:27.371Z</time></trkpt><trkpt lat="45.9408631" lon="13.1569157"><ele>34.0</ele><time>2026-03-22T15:12:28.353Z</time></trkpt><trkpt lat="45.9408344" lon="13.1566153"><ele>34.0</ele><time>2026-03-22T15:12:29.382Z</time></trkpt><trkpt lat="45.9407887" lon="13.1563135"><ele>34.0</ele><time>2026-03-22T15:12:30.365Z</time></trkpt><trkpt lat="45.9407529" lon="13.1560063"><ele>34.0</ele><time>2026-03-22T15:12:31.378Z</time></trkpt><trkpt lat="45.9406975" lon="13.1557015"><ele>34.0</ele><time>2026-03-22T15:12:32.352Z</time></trkpt><trkpt lat="45.9406496" lon="13.155393"><ele>34.0</ele><time>2026-03-22T15:12:33.352Z</time></trkpt><trkpt lat="45.9406197" lon="13.1550808"><ele>34.0</ele><time>2026-03-22T15:12:34.359Z</time></trkpt><trkpt lat="45.9405714" lon="13.1547719"><ele>34.0</ele><time>2026-03-22T15:12:35.364Z</time></trkpt><trkpt lat="45.9405185" lon="13.1544627"><ele>33.5</ele><time>2026-03-22T15:12:36.379Z</time></trkpt><trkpt lat="45.9404615" lon="13.1541489"><ele>33.0</ele><time>2026-03-22T15:12:37.356Z</time></trkpt><trkpt lat="45.9403735" lon="13.1538452"><ele>33.0</ele><time>2026-03-22T15:12:38.355Z</time></trkpt><trkpt lat="45.9403071" lon="13.1535261"><ele>33.0</ele><time>2026-03-22T15:12:39.356Z</time></trkpt><trkpt lat="45.9402031" lon="13.1532188"><ele>32.5</ele><time>2026-03-22T15:12:40.364Z</time></trkpt><trkpt lat="45.9401082" lon="13.1528975"><ele>32.0</ele><time>2026-03-22T15:12:41.352Z</time></trkpt><trkpt lat="45.9400038" lon="13.1525776"><ele>32.5</ele><time>2026-03-22T15:12:42.357Z</time></trkpt><trkpt lat="45.9399004" lon="13.1522514"><ele>33.0</ele><time>2026-03-22T15:12:43.352Z</time></trkpt><trkpt lat="45.9397905" lon="13.151929"><ele>33.0</ele><time>2026-03-22T15:12:44.377Z</time></trkpt><trkpt lat="45.9396698" lon="13.1516189"><ele>33.0</ele><time>2026-03-22T15:12:45.35Z</time></trkpt><trkpt lat="45.9395603" lon="13.1513062"><ele>33.5</ele><time>2026-03-22T15:12:46.354Z</time></trkpt><trkpt lat="45.939438" lon="13.1510102"><ele>34.0</ele><time>2026-03-22T15:12:47.356Z</time></trkpt><trkpt lat="45.9392976" lon="13.1507332"><ele>32.5</ele><time>2026-03-22T15:12:48.344Z</time></trkpt><trkpt lat="45.9391445" lon="13.1504651"><ele>31.0</ele><time>2026-03-22T15:12:49.366Z</time></trkpt><trkpt lat="45.9389822" lon="13.1502072"><ele>31.0</ele><time>2026-03-22T15:12:50.35Z</time></trkpt><trkpt lat="45.9388263" lon="13.1499393"><ele>31.0</ele><time>2026-03-22T15:12:51.36Z</time></trkpt><trkpt lat="45.9386715" lon="13.1496691"><ele>31.5</ele><time>2026-03-22T15:12:52.362Z</time></trkpt><trkpt lat="45.9385277" lon="13.1493863"><ele>32.0</ele><time>2026-03-22T15:12:53.366Z</time></trkpt><trkpt lat="45.9383755" lon="13.1491149"><ele>31.5</ele><time>2026-03-22T15:12:54.36Z</time></trkpt><trkpt lat="45.9382285" lon="13.1488387"><ele>31.0</ele><time>2026-03-22T15:12:55.361Z</time></trkpt><trkpt lat="45.9380795" lon="13.1485646"><ele>31.0</ele><time>2026-03-22T15:12:56.371Z</time></trkpt><trkpt lat="45.9379379" lon="13.1482823"><ele>31.0</ele><time>2026-03-22T15:12:57.361Z</time></trkpt><trkpt lat="45.9378037" lon="13.1479944"><ele>31.5</ele><time>2026-03-22T15:12:58.366Z</time></trkpt><trkpt lat="45.9376856" lon="13.1476929"><ele>32.0</ele><time>2026-03-22T15:12:59.386Z</time></trkpt><trkpt lat="45.9375794" lon="13.1473842"><ele>31.5</ele><time>2026-03-22T15:13:00.362Z</time></trkpt><trkpt lat="45.9374671" lon="13.1470794"><ele>31.0</ele><time>2026-03-22T15:13:01.357Z</time></trkpt><trkpt lat="45.9373639" lon="13.1467645"><ele>31.0</ele><time>2026-03-22T15:13:02.351Z</time></trkpt><trkpt lat="45.9372683" lon="13.1464439"><ele>31.0</ele><time>2026-03-22T15:13:03.354Z</time></trkpt><trkpt lat="45.9371706" lon="13.1461258"><ele>31.0</ele><time>2026-03-22T15:13:04.385Z</time></trkpt><trkpt lat="45.9370774" lon="13.1458068"><ele>31.0</ele><time>2026-03-22T15:13:05.36Z</time></trkpt><trkpt lat="45.9369853" lon="13.1454917"><ele>30.5</ele><time>2026-03-22T15:13:06.351Z</time></trkpt><trkpt lat="45.936882" lon="13.145186"><ele>30.0</ele><time>2026-03-22T15:13:07.361Z</time></trkpt><trkpt lat="45.936774" lon="13.1448878"><ele>30.0</ele><time>2026-03-22T15:13:08.361Z</time></trkpt><trkpt lat="45.9366587" lon="13.1445983"><ele>30.0</ele><time>2026-03-22T15:13:09.378Z</time></trkpt><trkpt lat="45.9365447" lon="13.1443129"><ele>30.0</ele><time>2026-03-22T15:13:10.361Z</time></trkpt><trkpt lat="45.9364271" lon="13.1440331"><ele>30.0</ele><time>2026-03-22T15:13:11.357Z</time></trkpt><trkpt lat="45.9363021" lon="13.1437559"><ele>30.0</ele><time>2026-03-22T15:13:12.349Z</time></trkpt><trkpt lat="45.9361835" lon="13.1434791"><ele>30.0</ele><time>2026-03-22T15:13:13.35Z</time></trkpt><trkpt lat="45.9360781" lon="13.1431954"><ele>30.333333333333336</ele><time>2026-03-22T15:13:14.357Z</time></trkpt><trkpt lat="45.9359912" lon="13.1429025"><ele>30.666666666666668</ele><time>2026-03-22T15:13:15.352Z</time></trkpt><trkpt lat="45.9359107" lon="13.1426085"><ele>31.0</ele><time>2026-03-22T15:13:16.372Z</time></trkpt><trkpt lat="45.9358351" lon="13.1423135"><ele>31.0</ele><time>2026-03-22T15:13:17.38Z</time></trkpt><trkpt lat="45.9357694" lon="13.1420154"><ele>31.0</ele><time>2026-03-22T15:13:18.368Z</time></trkpt><trkpt lat="45.9357021" lon="13.1417209"><ele>31.0</ele><time>2026-03-22T15:13:19.367Z</time></trkpt><trkpt lat="45.9356411" lon="13.1414258"><ele>31.0</ele><time>2026-03-22T15:13:20.381Z</time></trkpt><trkpt lat="45.9355593" lon="13.1411412"><ele>31.0</ele><time>2026-03-22T15:13:21.371Z</time></trkpt><trkpt lat="45.9354829" lon="13.1408572"><ele>31.0</ele><time>2026-03-22T15:13:22.348Z</time></trkpt><trkpt lat="45.9354086" lon="13.1405732"><ele>31.333333333333336</ele><time>2026-03-22T15:13:23.363Z</time></trkpt><trkpt lat="45.9353378" lon="13.1402893"><ele>31.666666666666664</ele><time>2026-03-22T15:13:24.353Z</time></trkpt><trkpt lat="45.9352834" lon="13.1399979"><ele>32.0</ele><time>2026-03-22T15:13:25.358Z</time></trkpt><trkpt lat="45.9352357" lon="13.139701"><ele>32.0</ele><time>2026-03-22T15:13:26.356Z</time></trkpt><trkpt lat="45.9351986" lon="13.1394011"><ele>32.0</ele><time>2026-03-22T15:13:27.39Z</time></trkpt><trkpt lat="45.9351632" lon="13.1391003"><ele>32.0</ele><time>2026-03-22T15:13:28.356Z</time></trkpt><trkpt lat="45.9351275" lon="13.138807"><ele>31.333333333333332</ele><time>2026-03-22T15:13:29.346Z</time></trkpt><trkpt lat="45.9350976" lon="13.1385274"><ele>30.666666666666664</ele><time>2026-03-22T15:13:30.352Z</time></trkpt><trkpt lat="45.935073" lon="13.1382564"><ele>30.0</ele><time>2026-03-22T15:13:31.361Z</time></trkpt><trkpt lat="45.9350637" lon="13.137987"><ele>29.333333333333336</ele><time>2026-03-22T15:13:32.352Z</time></trkpt><trkpt lat="45.9350663" lon="13.1377163"><ele>28.666666666666668</ele><time>2026-03-22T15:13:33.36Z</time></trkpt><trkpt lat="45.9350901" lon="13.137447"><ele>28.0</ele><time>2026-03-22T15:13:34.349Z</time></trkpt><trkpt lat="45.9351318" lon="13.1371881"><ele>28.0</ele><time>2026-03-22T15:13:35.353Z</time></trkpt><trkpt lat="45.9351816" lon="13.1369441"><ele>28.0</ele><time>2026-03-22T15:13:36.354Z</time></trkpt><trkpt lat="45.935226" lon="13.1367093"><ele>28.0</ele><time>2026-03-22T15:13:37.357Z</time></trkpt><trkpt lat="45.9352542" lon="13.1364838"><ele>28.25</ele><time>2026-03-22T15:13:38.375Z</time></trkpt><trkpt lat="45.9352669" lon="13.1362685"><ele>28.5</ele><time>2026-03-22T15:13:39.369Z</time></trkpt><trkpt lat="45.9352609" lon="13.1360706"><ele>28.75</ele><time>2026-03-22T15:13:40.354Z</time></trkpt><trkpt lat="45.935237" lon="13.1358972"><ele>29.0</ele><time>2026-03-22T15:13:41.353Z</time></trkpt><trkpt lat="45.9352306" lon="13.1357495"><ele>28.833333333333332</ele><time>2026-03-22T15:13:42.343Z</time></trkpt><trkpt lat="45.9352101" lon="13.135657"><ele>28.666666666666664</ele><time>2026-03-22T15:13:43.354Z</time></trkpt><trkpt lat="45.9351868" lon="13.1355615"><ele>28.5</ele><time>2026-03-22T15:13:45.347Z</time></trkpt><trkpt lat="45.9351362" lon="13.1354343"><ele>28.333333333333336</ele><time>2026-03-22T15:13:56.343Z</time></trkpt><trkpt lat="45.9351266" lon="13.1353336"><ele>28.166666666666668</ele><time>2026-03-22T15:13:57.364Z</time></trkpt><trkpt lat="45.9351058" lon="13.1352106"><ele>28.0</ele><time>2026-03-22T15:13:58.352Z</time></trkpt><trkpt lat="45.9350652" lon="13.1350785"><ele>28.0</ele><time>2026-03-22T15:13:59.372Z</time></trkpt><trkpt lat="45.9350064" lon="13.1349617"><ele>27.999999999999996</ele><time>2026-03-22T15:14:00.349Z</time></trkpt><trkpt lat="45.9349283" lon="13.1348764"><ele>27.999999999999996</ele><time>2026-03-22T15:14:01.381Z</time></trkpt><trkpt lat="45.9348319" lon="13.1348486"><ele>28.0</ele><time>2026-03-22T15:14:02.357Z</time></trkpt><trkpt lat="45.9347416" lon="13.134828"><ele>28.0</ele><time>2026-03-22T15:14:03.353Z</time></trkpt><trkpt lat="45.934664" lon="13.1347821"><ele>27.666666666666668</ele><time>2026-03-22T15:14:04.356Z</time></trkpt><trkpt lat="45.9345981" lon="13.1347251"><ele>27.333333333333336</ele><time>2026-03-22T15:14:05.35Z</time></trkpt><trkpt lat="45.9345431" lon="13.1346462"><ele>27.0</ele><time>2026-03-22T15:14:06.355Z</time></trkpt><trkpt lat="45.9345202" lon="13.1345344"><ele>26.666666666666664</ele><time>2026-03-22T15:14:07.354Z</time></trkpt><trkpt lat="45.9345051" lon="13.1344054"><ele>26.333333333333332</ele><time>2026-03-22T15:14:08.35Z</time></trkpt><trkpt lat="45.9345211" lon="13.1342744"><ele>26.0</ele><time>2026-03-22T15:14:09.376Z</time></trkpt><trkpt lat="45.9345209" lon="13.1341441"><ele>26.75</ele><time>2026-03-22T15:14:10.36Z</time></trkpt><trkpt lat="45.9345041" lon="13.1340098"><ele>27.5</ele><time>2026-03-22T15:14:11.35Z</time></trkpt><trkpt lat="45.9345047" lon="13.1338407"><ele>28.25</ele><time>2026-03-22T15:14:12.365Z</time></trkpt><trkpt lat="45.9345058" lon="13.1336267"><ele>29.0</ele><time>2026-03-22T15:14:13.361Z</time></trkpt><trkpt lat="45.9344912" lon="13.1333789"><ele>30.0</ele><time>2026-03-22T15:14:14.367Z</time></trkpt><trkpt lat="45.9344632" lon="13.133117"><ele>31.0</ele><time>2026-03-22T15:14:15.375Z</time></trkpt><trkpt lat="45.9344327" lon="13.1328526"><ele>32.0</ele><time>2026-03-22T15:14:16.352Z</time></trkpt><trkpt lat="45.9343993" lon="13.1325839"><ele>31.333333333333332</ele><time>2026-03-22T15:14:17.379Z</time></trkpt><trkpt lat="45.9343401" lon="13.1323242"><ele>30.666666666666664</ele><time>2026-03-22T15:14:18.358Z</time></trkpt><trkpt lat="45.9342675" lon="13.1320572"><ele>30.0</ele><time>2026-03-22T15:14:19.367Z</time></trkpt><trkpt lat="45.9341737" lon="13.1317794"><ele>28.0</ele><time>2026-03-22T15:14:20.36Z</time></trkpt><trkpt lat="45.934055" lon="13.1314955"><ele>26.0</ele><time>2026-03-22T15:14:21.375Z</time></trkpt><trkpt lat="45.9339117" lon="13.1312104"><ele>26.0</ele><time>2026-03-22T15:14:22.351Z</time></trkpt><trkpt lat="45.9337832" lon="13.1309161"><ele>26.0</ele><time>2026-03-22T15:14:23.346Z</time></trkpt><trkpt lat="45.9336552" lon="13.1306382"><ele>26.333333333333332</ele><time>2026-03-22T15:14:24.359Z</time></trkpt><trkpt lat="45.9335384" lon="13.1303737"><ele>26.666666666666664</ele><time>2026-03-22T15:14:25.364Z</time></trkpt><trkpt lat="45.9334302" lon="13.1301209"><ele>27.0</ele><time>2026-03-22T15:14:26.353Z</time></trkpt><trkpt lat="45.9333247" lon="13.1298906"><ele>27.666666666666664</ele><time>2026-03-22T15:14:27.366Z</time></trkpt><trkpt lat="45.9332197" lon="13.1296882"><ele>28.333333333333332</ele><time>2026-03-22T15:14:28.355Z</time></trkpt><trkpt lat="45.9331343" lon="13.129484"><ele>29.0</ele><time>2026-03-22T15:14:29.345Z</time></trkpt><trkpt lat="45.9330572" lon="13.1292761"><ele>29.0</ele><time>2026-03-22T15:14:30.351Z</time></trkpt><trkpt lat="45.9329835" lon="13.1290593"><ele>29.0</ele><time>2026-03-22T15:14:31.352Z</time></trkpt><trkpt lat="45.932914" lon="13.1288303"><ele>29.0</ele><time>2026-03-22T15:14:32.356Z</time></trkpt><trkpt lat="45.9328413" lon="13.1285782"><ele>29.0</ele><time>2026-03-22T15:14:33.375Z</time></trkpt><trkpt lat="45.9327641" lon="13.1282961"><ele>29.0</ele><time>2026-03-22T15:14:34.374Z</time></trkpt><trkpt lat="45.9326766" lon="13.1279805"><ele>29.0</ele><time>2026-03-22T15:14:35.367Z</time></trkpt><trkpt lat="45.932593" lon="13.127624"><ele>27.5</ele><time>2026-03-22T15:14:36.349Z</time></trkpt><trkpt lat="45.932509" lon="13.1272503"><ele>26.0</ele><time>2026-03-22T15:14:37.351Z</time></trkpt><trkpt lat="45.9324286" lon="13.1268856"><ele>28.0</ele><time>2026-03-22T15:14:38.353Z</time></trkpt><trkpt lat="45.932363" lon="13.1265349"><ele>30.0</ele><time>2026-03-22T15:14:39.366Z</time></trkpt><trkpt lat="45.9323011" lon="13.1262016"><ele>30.0</ele><time>2026-03-22T15:14:40.351Z</time></trkpt><trkpt lat="45.9322449" lon="13.1258808"><ele>30.0</ele><time>2026-03-22T15:14:41.355Z</time></trkpt><trkpt lat="45.9321952" lon="13.1255674"><ele>30.0</ele><time>2026-03-22T15:14:42.35Z</time></trkpt><trkpt lat="45.9321444" lon="13.1252662"><ele>30.0</ele><time>2026-03-22T15:14:43.359Z</time></trkpt><trkpt lat="45.9320968" lon="13.1249798"><ele>30.0</ele><time>2026-03-22T15:14:44.353Z</time></trkpt><trkpt lat="45.9320493" lon="13.1247096"><ele>29.666666666666664</ele><time>2026-03-22T15:14:45.384Z</time></trkpt><trkpt lat="45.9320044" lon="13.1244554"><ele>29.333333333333332</ele><time>2026-03-22T15:14:46.366Z</time></trkpt><trkpt lat="45.9319628" lon="13.1242145"><ele>29.0</ele><time>2026-03-22T15:14:47.357Z</time></trkpt><trkpt lat="45.9319201" lon="13.1239839"><ele>28.666666666666664</ele><time>2026-03-22T15:14:48.35Z</time></trkpt><trkpt lat="45.9318704" lon="13.123763"><ele>28.333333333333336</ele><time>2026-03-22T15:14:49.357Z</time></trkpt><trkpt lat="45.9318075" lon="13.1235506"><ele>28.0</ele><time>2026-03-22T15:14:50.347Z</time></trkpt><trkpt lat="45.931729" lon="13.1233467"><ele>28.0</ele><time>2026-03-22T15:14:51.375Z</time></trkpt><trkpt lat="45.931652" lon="13.1231434"><ele>28.0</ele><time>2026-03-22T15:14:52.363Z</time></trkpt><trkpt lat="45.931574" lon="13.12294"><ele>28.0</ele><time>2026-03-22T15:14:53.37Z</time></trkpt><trkpt lat="45.9314942" lon="13.1227378"><ele>28.0</ele><time>2026-03-22T15:14:54.349Z</time></trkpt><trkpt lat="45.9314138" lon="13.1225406"><ele>28.0</ele><time>2026-03-22T15:14:55.344Z</time></trkpt><trkpt lat="45.931336" lon="13.1223465"><ele>28.0</ele><time>2026-03-22T15:14:56.347Z</time></trkpt><trkpt lat="45.931258" lon="13.1221565"><ele>28.0</ele><time>2026-03-22T15:14:57.362Z</time></trkpt><trkpt lat="45.9311873" lon="13.1219637"><ele>28.0</ele><time>2026-03-22T15:14:58.355Z</time></trkpt><trkpt lat="45.9311138" lon="13.1217764"><ele>28.0</ele><time>2026-03-22T15:14:59.357Z</time></trkpt><trkpt lat="45.9310416" lon="13.1215944"><ele>28.0</ele><time>2026-03-22T15:15:00.349Z</time></trkpt><trkpt lat="45.9309714" lon="13.1214177"><ele>27.75</ele><time>2026-03-22T15:15:01.367Z</time></trkpt><trkpt lat="45.9309044" lon="13.1212458"><ele>27.5</ele><time>2026-03-22T15:15:02.354Z</time></trkpt><trkpt lat="45.930841" lon="13.1210773"><ele>27.25</ele><time>2026-03-22T15:15:03.363Z</time></trkpt><trkpt lat="45.930783" lon="13.1209144"><ele>27.0</ele><time>2026-03-22T15:15:04.357Z</time></trkpt><trkpt lat="45.9307329" lon="13.1207613"><ele>27.0</ele><time>2026-03-22T15:15:05.367Z</time></trkpt><trkpt lat="45.9306925" lon="13.1206134"><ele>27.0</ele><time>2026-03-22T15:15:06.35Z</time></trkpt><trkpt lat="45.9306523" lon="13.1204824"><ele>27.0</ele><time>2026-03-22T15:15:07.352Z</time></trkpt><trkpt lat="45.9306282" lon="13.1203703"><ele>27.0</ele><time>2026-03-22T15:15:08.342Z</time></trkpt><trkpt lat="45.930601" lon="13.1202795"><ele>27.0</ele><time>2026-03-22T15:15:09.375Z</time></trkpt><trkpt lat="45.9306035" lon="13.1201795"><ele>27.0</ele><time>2026-03-22T15:15:10.349Z</time></trkpt><trkpt lat="45.9305948" lon="13.1200856"><ele>27.0</ele><time>2026-03-22T15:15:11.367Z</time></trkpt><trkpt lat="45.9305831" lon="13.1199768"><ele>27.000000000000004</ele><time>2026-03-22T15:15:12.342Z</time></trkpt><trkpt lat="45.930551" lon="13.1198499"><ele>27.000000000000004</ele><time>2026-03-22T15:15:13.35Z</time></trkpt><trkpt lat="45.9305253" lon="13.1196947"><ele>27.0</ele><time>2026-03-22T15:15:14.356Z</time></trkpt><trkpt lat="45.9305261" lon="13.1195107"><ele>27.0</ele><time>2026-03-22T15:15:15.364Z</time></trkpt><trkpt lat="45.9304825" lon="13.1193236"><ele>27.0</ele><time>2026-03-22T15:15:16.352Z</time></trkpt><trkpt lat="45.9304496" lon="13.1191269"><ele>27.0</ele><time>2026-03-22T15:15:17.369Z</time></trkpt><trkpt lat="45.9304223" lon="13.1189318"><ele>27.0</ele><time>2026-03-22T15:15:18.374Z</time></trkpt><trkpt lat="45.9303915" lon="13.1187457"><ele>27.0</ele><time>2026-03-22T15:15:19.375Z</time></trkpt><trkpt lat="45.9303753" lon="13.1185626"><ele>27.0</ele><time>2026-03-22T15:15:20.368Z</time></trkpt><trkpt lat="45.930357" lon="13.1183771"><ele>27.0</ele><time>2026-03-22T15:15:21.385Z</time></trkpt><trkpt lat="45.9303152" lon="13.1181908"><ele>27.0</ele><time>2026-03-22T15:15:22.365Z</time></trkpt><trkpt lat="45.9303096" lon="13.117993"><ele>27.0</ele><time>2026-03-22T15:15:23.357Z</time></trkpt><trkpt lat="45.9303267" lon="13.1177925"><ele>27.0</ele><time>2026-03-22T15:15:24.357Z</time></trkpt><trkpt lat="45.930344" lon="13.1175964"><ele>27.0</ele><time>2026-03-22T15:15:25.354Z</time></trkpt><trkpt lat="45.9303617" lon="13.1174083"><ele>27.0</ele><time>2026-03-22T15:15:26.353Z</time></trkpt><trkpt lat="45.9303932" lon="13.1172238"><ele>27.0</ele><time>2026-03-22T15:15:27.35Z</time></trkpt><trkpt lat="45.9304446" lon="13.117037"><ele>27.0</ele><time>2026-03-22T15:15:28.36Z</time></trkpt><trkpt lat="45.9304995" lon="13.1168524"><ele>27.0</ele><time>2026-03-22T15:15:29.372Z</time></trkpt><trkpt lat="45.9305667" lon="13.1166692"><ele>27.0</ele><time>2026-03-22T15:15:30.383Z</time></trkpt><trkpt lat="45.9306233" lon="13.116474"><ele>27.0</ele><time>2026-03-22T15:15:31.367Z</time></trkpt><trkpt lat="45.9306858" lon="13.1162757"><ele>27.0</ele><time>2026-03-22T15:15:32.345Z</time></trkpt><trkpt lat="45.9307443" lon="13.1160743"><ele>27.0</ele><time>2026-03-22T15:15:33.36Z</time></trkpt><trkpt lat="45.9307917" lon="13.1158704"><ele>27.0</ele><time>2026-03-22T15:15:34.352Z</time></trkpt><trkpt lat="45.9308368" lon="13.1156724"><ele>27.0</ele><time>2026-03-22T15:15:35.368Z</time></trkpt><trkpt lat="45.93088" lon="13.1154772"><ele>27.0</ele><time>2026-03-22T15:15:36.353Z</time></trkpt><trkpt lat="45.930954" lon="13.1152998"><ele>27.0</ele><time>2026-03-22T15:15:37.353Z</time></trkpt><trkpt lat="45.9310549" lon="13.1151356"><ele>27.0</ele><time>2026-03-22T15:15:38.348Z</time></trkpt><trkpt lat="45.9311607" lon="13.1149598"><ele>26.333333333333336</ele><time>2026-03-22T15:15:39.361Z</time></trkpt><trkpt lat="45.9312731" lon="13.1147864"><ele>25.666666666666668</ele><time>2026-03-22T15:15:40.359Z</time></trkpt><trkpt lat="45.9313695" lon="13.1145961"><ele>25.0</ele><time>2026-03-22T15:15:41.365Z</time></trkpt><trkpt lat="45.9314542" lon="13.114398"><ele>25.0</ele><time>2026-03-22T15:15:42.346Z</time></trkpt><trkpt lat="45.9315264" lon="13.1141887"><ele>25.0</ele><time>2026-03-22T15:15:43.35Z</time></trkpt><trkpt lat="45.9315806" lon="13.1139688"><ele>25.0</ele><time>2026-03-22T15:15:44.359Z</time></trkpt><trkpt lat="45.9316393" lon="13.1137515"><ele>25.333333333333336</ele><time>2026-03-22T15:15:45.359Z</time></trkpt><trkpt lat="45.931681" lon="13.1135268"><ele>25.666666666666664</ele><time>2026-03-22T15:15:46.371Z</time></trkpt><trkpt lat="45.9317328" lon="13.1133088"><ele>26.0</ele><time>2026-03-22T15:15:47.345Z</time></trkpt><trkpt lat="45.9317809" lon="13.1130939"><ele>26.0</ele><time>2026-03-22T15:15:48.351Z</time></trkpt><trkpt lat="45.931823" lon="13.11288"><ele>26.0</ele><time>2026-03-22T15:15:49.356Z</time></trkpt><trkpt lat="45.9318627" lon="13.112666"><ele>26.0</ele><time>2026-03-22T15:15:50.358Z</time></trkpt><trkpt lat="45.9319019" lon="13.11245"><ele>26.666666666666664</ele><time>2026-03-22T15:15:51.347Z</time></trkpt><trkpt lat="45.9319396" lon="13.1122324"><ele>27.333333333333336</ele><time>2026-03-22T15:15:52.364Z</time></trkpt><trkpt lat="45.931978" lon="13.1120147"><ele>28.0</ele><time>2026-03-22T15:15:53.356Z</time></trkpt><trkpt lat="45.9320188" lon="13.1117967"><ele>28.0</ele><time>2026-03-22T15:15:54.358Z</time></trkpt><trkpt lat="45.9320569" lon="13.111576"><ele>28.0</ele><time>2026-03-22T15:15:55.361Z</time></trkpt><trkpt lat="45.9320954" lon="13.111354"><ele>28.0</ele><time>2026-03-22T15:15:56.342Z</time></trkpt><trkpt lat="45.932138" lon="13.1111324"><ele>28.333333333333336</ele><time>2026-03-22T15:15:57.367Z</time></trkpt><trkpt lat="45.9321816" lon="13.1109098"><ele>28.666666666666664</ele><time>2026-03-22T15:15:58.346Z</time></trkpt><trkpt lat="45.9322136" lon="13.1106815"><ele>29.0</ele><time>2026-03-22T15:15:59.359Z</time></trkpt><trkpt lat="45.9322623" lon="13.1104556"><ele>29.0</ele><time>2026-03-22T15:16:00.359Z</time></trkpt><trkpt lat="45.9323082" lon="13.1102248"><ele>29.0</ele><time>2026-03-22T15:16:01.365Z</time></trkpt><trkpt lat="45.9323493" lon="13.1099876"><ele>29.0</ele><time>2026-03-22T15:16:02.369Z</time></trkpt><trkpt lat="45.9323929" lon="13.1097494"><ele>29.0</ele><time>2026-03-22T15:16:03.352Z</time></trkpt><trkpt lat="45.9324383" lon="13.1095064"><ele>29.0</ele><time>2026-03-22T15:16:04.354Z</time></trkpt><trkpt lat="45.9324808" lon="13.1092615"><ele>29.0</ele><time>2026-03-22T15:16:05.365Z</time></trkpt><trkpt lat="45.9325242" lon="13.1090168"><ele>29.0</ele><time>2026-03-22T15:16:06.377Z</time></trkpt><trkpt lat="45.9325684" lon="13.1087733"><ele>29.0</ele><time>2026-03-22T15:16:07.369Z</time></trkpt><trkpt lat="45.9326154" lon="13.1085311"><ele>29.0</ele><time>2026-03-22T15:16:08.381Z</time></trkpt><trkpt lat="45.932661" lon="13.1082871"><ele>28.666666666666664</ele><time>2026-03-22T15:16:09.364Z</time></trkpt><trkpt lat="45.9327101" lon="13.1080401"><ele>28.333333333333336</ele><time>2026-03-22T15:16:10.352Z</time></trkpt><trkpt lat="45.9327529" lon="13.1077867"><ele>28.0</ele><time>2026-03-22T15:16:11.347Z</time></trkpt><trkpt lat="45.932804" lon="13.107535"><ele>28.0</ele><time>2026-03-22T15:16:12.354Z</time></trkpt><trkpt lat="45.9328476" lon="13.1072795"><ele>28.0</ele><time>2026-03-22T15:16:13.389Z</time></trkpt><trkpt lat="45.9328977" lon="13.1070277"><ele>28.0</ele><time>2026-03-22T15:16:14.37Z</time></trkpt><trkpt lat="45.9329362" lon="13.106772"><ele>28.333333333333336</ele><time>2026-03-22T15:16:15.349Z</time></trkpt><trkpt lat="45.932983" lon="13.1065241"><ele>28.666666666666664</ele><time>2026-03-22T15:16:16.354Z</time></trkpt><trkpt lat="45.933025" lon="13.106279"><ele>29.0</ele><time>2026-03-22T15:16:17.35Z</time></trkpt><trkpt lat="45.9330749" lon="13.106039"><ele>29.0</ele><time>2026-03-22T15:16:18.369Z</time></trkpt><trkpt lat="45.933122" lon="13.1057999"><ele>29.0</ele><time>2026-03-22T15:16:19.373Z</time></trkpt><trkpt lat="45.9331669" lon="13.1055586"><ele>29.0</ele><time>2026-03-22T15:16:20.347Z</time></trkpt><trkpt lat="45.9332116" lon="13.1053183"><ele>29.0</ele><time>2026-03-22T15:16:21.365Z</time></trkpt><trkpt lat="45.9332587" lon="13.1050764"><ele>29.0</ele><time>2026-03-22T15:16:22.364Z</time></trkpt><trkpt lat="45.933301" lon="13.1048344"><ele>29.0</ele><time>2026-03-22T15:16:23.348Z</time></trkpt><trkpt lat="45.93334" lon="13.1045947"><ele>28.666666666666664</ele><time>2026-03-22T15:16:24.35Z</time></trkpt><trkpt lat="45.9333887" lon="13.1043621"><ele>28.333333333333336</ele><time>2026-03-22T15:16:25.35Z</time></trkpt><trkpt lat="45.9334362" lon="13.1041309"><ele>28.0</ele><time>2026-03-22T15:16:26.371Z</time></trkpt><trkpt lat="45.93348" lon="13.1039012"><ele>28.0</ele><time>2026-03-22T15:16:27.365Z</time></trkpt><trkpt lat="45.9335268" lon="13.103673"><ele>28.0</ele><time>2026-03-22T15:16:28.364Z</time></trkpt><trkpt lat="45.9335668" lon="13.1034374"><ele>28.0</ele><time>2026-03-22T15:16:29.377Z</time></trkpt><trkpt lat="45.933605" lon="13.103199"><ele>28.666666666666668</ele><time>2026-03-22T15:16:30.368Z</time></trkpt><trkpt lat="45.9336468" lon="13.1029598"><ele>29.333333333333336</ele><time>2026-03-22T15:16:31.354Z</time></trkpt><trkpt lat="45.9336908" lon="13.1027199"><ele>30.0</ele><time>2026-03-22T15:16:32.361Z</time></trkpt><trkpt lat="45.9337371" lon="13.1024799"><ele>29.666666666666664</ele><time>2026-03-22T15:16:33.359Z</time></trkpt><trkpt lat="45.933782" lon="13.1022378"><ele>29.333333333333332</ele><time>2026-03-22T15:16:34.356Z</time></trkpt><trkpt lat="45.9338268" lon="13.1019963"><ele>29.0</ele><time>2026-03-22T15:16:35.346Z</time></trkpt><trkpt lat="45.9338715" lon="13.1017588"><ele>29.0</ele><time>2026-03-22T15:16:36.361Z</time></trkpt><trkpt lat="45.9339118" lon="13.101523"><ele>29.0</ele><time>2026-03-22T15:16:37.359Z</time></trkpt><trkpt lat="45.9339517" lon="13.101289"><ele>29.0</ele><time>2026-03-22T15:16:38.378Z</time></trkpt><trkpt lat="45.9339987" lon="13.1010583"><ele>29.0</ele><time>2026-03-22T15:16:39.362Z</time></trkpt><trkpt lat="45.9340221" lon="13.1008169"><ele>29.0</ele><time>2026-03-22T15:16:40.347Z</time></trkpt><trkpt lat="45.9340591" lon="13.1005817"><ele>29.0</ele><time>2026-03-22T15:16:41.352Z</time></trkpt><trkpt lat="45.9340891" lon="13.100344"><ele>29.0</ele><time>2026-03-22T15:16:42.347Z</time></trkpt><trkpt lat="45.9341332" lon="13.1001117"><ele>29.0</ele><time>2026-03-22T15:16:43.364Z</time></trkpt><trkpt lat="45.9341746" lon="13.099877"><ele>29.0</ele><time>2026-03-22T15:16:44.354Z</time></trkpt><trkpt lat="45.934209" lon="13.0996429"><ele>29.0</ele><time>2026-03-22T15:16:45.356Z</time></trkpt><trkpt lat="45.9342449" lon="13.0994148"><ele>29.0</ele><time>2026-03-22T15:16:46.373Z</time></trkpt><trkpt lat="45.934281" lon="13.0991915"><ele>29.0</ele><time>2026-03-22T15:16:47.355Z</time></trkpt><trkpt lat="45.9343199" lon="13.0989739"><ele>29.0</ele><time>2026-03-22T15:16:48.35Z</time></trkpt><trkpt lat="45.9343695" lon="13.0987632"><ele>29.0</ele><time>2026-03-22T15:16:49.353Z</time></trkpt><trkpt lat="45.9344096" lon="13.0985485"><ele>29.0</ele><time>2026-03-22T15:16:50.346Z</time></trkpt><trkpt lat="45.934436" lon="13.0983288"><ele>29.0</ele><time>2026-03-22T15:16:51.35Z</time></trkpt><trkpt lat="45.9344705" lon="13.0981119"><ele>29.0</ele><time>2026-03-22T15:16:52.363Z</time></trkpt><trkpt lat="45.9345056" lon="13.097896"><ele>29.0</ele><time>2026-03-22T15:16:53.369Z</time></trkpt><trkpt lat="45.9345451" lon="13.0976801"><ele>29.0</ele><time>2026-03-22T15:16:54.366Z</time></trkpt><trkpt lat="45.9345824" lon="13.0974664"><ele>29.0</ele><time>2026-03-22T15:16:55.361Z</time></trkpt><trkpt lat="45.93462" lon="13.0972553"><ele>29.0</ele><time>2026-03-22T15:16:56.352Z</time></trkpt><trkpt lat="45.9346529" lon="13.0970429"><ele>29.0</ele><time>2026-03-22T15:16:57.379Z</time></trkpt><trkpt lat="45.9346691" lon="13.09682"><ele>29.0</ele><time>2026-03-22T15:16:58.36Z</time></trkpt><trkpt lat="45.9346702" lon="13.0965903"><ele>29.0</ele><time>2026-03-22T15:16:59.361Z</time></trkpt><trkpt lat="45.9346415" lon="13.09636"><ele>29.0</ele><time>2026-03-22T15:17:00.364Z</time></trkpt><trkpt lat="45.9346331" lon="13.0961294"><ele>29.0</ele><time>2026-03-22T15:17:01.346Z</time></trkpt><trkpt lat="45.9345862" lon="13.0959089"><ele>29.0</ele><time>2026-03-22T15:17:02.348Z</time></trkpt><trkpt lat="45.9345309" lon="13.095695"><ele>29.0</ele><time>2026-03-22T15:17:03.36Z</time></trkpt><trkpt lat="45.9344672" lon="13.0954878"><ele>29.0</ele><time>2026-03-22T15:17:04.361Z</time></trkpt><trkpt lat="45.934414" lon="13.0952862"><ele>29.0</ele><time>2026-03-22T15:17:05.366Z</time></trkpt><trkpt lat="45.9343576" lon="13.0951014"><ele>29.0</ele><time>2026-03-22T15:17:06.371Z</time></trkpt><trkpt lat="45.9343028" lon="13.0949411"><ele>29.0</ele><time>2026-03-22T15:17:07.368Z</time></trkpt><trkpt lat="45.9342848" lon="13.0947897"><ele>29.0</ele><time>2026-03-22T15:17:08.343Z</time></trkpt><trkpt lat="45.934264" lon="13.0946502"><ele>29.0</ele><time>2026-03-22T15:17:09.349Z</time></trkpt><trkpt lat="45.9342735" lon="13.0945113"><ele>29.0</ele><time>2026-03-22T15:17:10.35Z</time></trkpt><trkpt lat="45.934322" lon="13.0943862"><ele>29.0</ele><time>2026-03-22T15:17:11.347Z</time></trkpt><trkpt lat="45.9344069" lon="13.0942678"><ele>29.0</ele><time>2026-03-22T15:17:12.344Z</time></trkpt><trkpt lat="45.9344984" lon="13.0941417"><ele>29.0</ele><time>2026-03-22T15:17:13.356Z</time></trkpt><trkpt lat="45.934586" lon="13.0940016"><ele>29.0</ele><time>2026-03-22T15:17:14.349Z</time></trkpt><trkpt lat="45.9346657" lon="13.0938563"><ele>29.0</ele><time>2026-03-22T15:17:15.351Z</time></trkpt><trkpt lat="45.9347223" lon="13.0937096"><ele>28.833333333333332</ele><time>2026-03-22T15:17:16.353Z</time></trkpt><trkpt lat="45.9347784" lon="13.0936085"><ele>28.666666666666664</ele><time>2026-03-22T15:17:17.344Z</time></trkpt><trkpt lat="45.9348362" lon="13.093536"><ele>28.5</ele><time>2026-03-22T15:17:18.357Z</time></trkpt><trkpt lat="45.9348869" lon="13.0934566"><ele>28.333333333333336</ele><time>2026-03-22T15:17:19.359Z</time></trkpt><trkpt lat="45.9349295" lon="13.0933524"><ele>28.166666666666668</ele><time>2026-03-22T15:17:20.363Z</time></trkpt><trkpt lat="45.9349749" lon="13.0932215"><ele>28.0</ele><time>2026-03-22T15:17:21.364Z</time></trkpt><trkpt lat="45.9350232" lon="13.0930871"><ele>28.2</ele><time>2026-03-22T15:17:22.35Z</time></trkpt><trkpt lat="45.9350705" lon="13.092971"><ele>28.4</ele><time>2026-03-22T15:17:23.349Z</time></trkpt><trkpt lat="45.9351301" lon="13.0928599"><ele>28.599999999999998</ele><time>2026-03-22T15:17:24.354Z</time></trkpt><trkpt lat="45.935214" lon="13.0927433"><ele>28.799999999999997</ele><time>2026-03-22T15:17:25.351Z</time></trkpt><trkpt lat="45.9353098" lon="13.0926172"><ele>29.0</ele><time>2026-03-22T15:17:26.359Z</time></trkpt><trkpt lat="45.9354175" lon="13.0925111"><ele>29.0</ele><time>2026-03-22T15:17:27.347Z</time></trkpt><trkpt lat="45.9355213" lon="13.0923956"><ele>29.0</ele><time>2026-03-22T15:17:28.344Z</time></trkpt><trkpt lat="45.935639" lon="13.0922903"><ele>29.0</ele><time>2026-03-22T15:17:29.351Z</time></trkpt><trkpt lat="45.9357088" lon="13.0921047"><ele>29.0</ele><time>2026-03-22T15:17:30.356Z</time></trkpt><trkpt lat="45.935777" lon="13.0919275"><ele>29.0</ele><time>2026-03-22T15:17:31.375Z</time></trkpt><trkpt lat="45.9358374" lon="13.0917211"><ele>29.0</ele><time>2026-03-22T15:17:32.365Z</time></trkpt><trkpt lat="45.9358566" lon="13.091474"><ele>29.0</ele><time>2026-03-22T15:17:33.351Z</time></trkpt><trkpt lat="45.9358783" lon="13.0912055"><ele>28.666666666666664</ele><time>2026-03-22T15:17:34.361Z</time></trkpt><trkpt lat="45.9359001" lon="13.0909174"><ele>28.333333333333336</ele><time>2026-03-22T15:17:35.359Z</time></trkpt><trkpt lat="45.9359204" lon="13.0906243"><ele>28.0</ele><time>2026-03-22T15:17:36.346Z</time></trkpt><trkpt lat="45.9359239" lon="13.0903446"><ele>28.0</ele><time>2026-03-22T15:17:37.349Z</time></trkpt><trkpt lat="45.9359312" lon="13.0900898"><ele>28.0</ele><time>2026-03-22T15:17:38.36Z</time></trkpt><trkpt lat="45.9359342" lon="13.089844"><ele>28.0</ele><time>2026-03-22T15:17:39.353Z</time></trkpt><trkpt lat="45.9359348" lon="13.0896036"><ele>27.666666666666668</ele><time>2026-03-22T15:17:40.361Z</time></trkpt><trkpt lat="45.9359488" lon="13.0893694"><ele>27.333333333333336</ele><time>2026-03-22T15:17:41.378Z</time></trkpt><trkpt lat="45.9359584" lon="13.0891388"><ele>27.0</ele><time>2026-03-22T15:17:42.35Z</time></trkpt><trkpt lat="45.9359718" lon="13.0889086"><ele>27.0</ele><time>2026-03-22T15:17:43.385Z</time></trkpt><trkpt lat="45.9359856" lon="13.0886778"><ele>27.0</ele><time>2026-03-22T15:17:44.387Z</time></trkpt><trkpt lat="45.9359998" lon="13.0884473"><ele>27.0</ele><time>2026-03-22T15:17:45.356Z</time></trkpt><trkpt lat="45.9360088" lon="13.0882161"><ele>27.666666666666664</ele><time>2026-03-22T15:17:46.348Z</time></trkpt><trkpt lat="45.9360223" lon="13.0879822"><ele>28.333333333333332</ele><time>2026-03-22T15:17:47.369Z</time></trkpt><trkpt lat="45.9360337" lon="13.0877449"><ele>29.0</ele><time>2026-03-22T15:17:48.351Z</time></trkpt><trkpt lat="45.9360437" lon="13.0875072"><ele>28.666666666666664</ele><time>2026-03-22T15:17:49.344Z</time></trkpt><trkpt lat="45.9360568" lon="13.0872673"><ele>28.333333333333336</ele><time>2026-03-22T15:17:50.336Z</time></trkpt><trkpt lat="45.9360671" lon="13.0870243"><ele>28.0</ele><time>2026-03-22T15:17:51.356Z</time></trkpt><trkpt lat="45.9360764" lon="13.0867812"><ele>27.333333333333336</ele><time>2026-03-22T15:17:52.374Z</time></trkpt><trkpt lat="45.9360811" lon="13.0865348"><ele>26.666666666666664</ele><time>2026-03-22T15:17:53.355Z</time></trkpt><trkpt lat="45.9360834" lon="13.0862866"><ele>26.0</ele><time>2026-03-22T15:17:54.355Z</time></trkpt><trkpt lat="45.9360901" lon="13.0860371"><ele>26.0</ele><time>2026-03-22T15:17:55.366Z</time></trkpt><trkpt lat="45.9361019" lon="13.0857869"><ele>26.0</ele><time>2026-03-22T15:17:56.363Z</time></trkpt><trkpt lat="45.9361149" lon="13.0855289"><ele>26.0</ele><time>2026-03-22T15:17:57.363Z</time></trkpt><trkpt lat="45.9361289" lon="13.0852517"><ele>26.333333333333332</ele><time>2026-03-22T15:17:58.363Z</time></trkpt><trkpt lat="45.9361429" lon="13.0849508"><ele>26.666666666666664</ele><time>2026-03-22T15:17:59.367Z</time></trkpt><trkpt lat="45.9361593" lon="13.0846245"><ele>27.0</ele><time>2026-03-22T15:18:00.389Z</time></trkpt><trkpt lat="45.9361772" lon="13.0842723"><ele>27.0</ele><time>2026-03-22T15:18:01.352Z</time></trkpt><trkpt lat="45.9361939" lon="13.0839039"><ele>27.0</ele><time>2026-03-22T15:18:02.358Z</time></trkpt><trkpt lat="45.9361962" lon="13.0835267"><ele>27.5</ele><time>2026-03-22T15:18:03.37Z</time></trkpt><trkpt lat="45.9362084" lon="13.0831445"><ele>28.0</ele><time>2026-03-22T15:18:04.358Z</time></trkpt><trkpt lat="45.9362244" lon="13.0827581"><ele>27.5</ele><time>2026-03-22T15:18:05.36Z</time></trkpt><trkpt lat="45.9362413" lon="13.0823697"><ele>27.0</ele><time>2026-03-22T15:18:06.372Z</time></trkpt><trkpt lat="45.9362578" lon="13.0819807"><ele>25.5</ele><time>2026-03-22T15:18:07.359Z</time></trkpt><trkpt lat="45.9362746" lon="13.0815889"><ele>24.0</ele><time>2026-03-22T15:18:08.388Z</time></trkpt><trkpt lat="45.9362912" lon="13.0811902"><ele>24.0</ele><time>2026-03-22T15:18:09.357Z</time></trkpt><trkpt lat="45.9363098" lon="13.080784"><ele>24.0</ele><time>2026-03-22T15:18:10.361Z</time></trkpt><trkpt lat="45.9363286" lon="13.0803734"><ele>25.5</ele><time>2026-03-22T15:18:11.374Z</time></trkpt><trkpt lat="45.9363451" lon="13.0799605"><ele>27.0</ele><time>2026-03-22T15:18:12.357Z</time></trkpt><trkpt lat="45.9363619" lon="13.0795488"><ele>27.0</ele><time>2026-03-22T15:18:13.366Z</time></trkpt><trkpt lat="45.9363794" lon="13.0791424"><ele>27.0</ele><time>2026-03-22T15:18:14.38Z</time></trkpt><trkpt lat="45.9363957" lon="13.0787449"><ele>27.0</ele><time>2026-03-22T15:18:15.355Z</time></trkpt><trkpt lat="45.9364128" lon="13.0783586"><ele>27.0</ele><time>2026-03-22T15:18:16.365Z</time></trkpt><trkpt lat="45.9364296" lon="13.0779809"><ele>26.5</ele><time>2026-03-22T15:18:17.346Z</time></trkpt><trkpt lat="45.9364465" lon="13.0776088"><ele>26.0</ele><time>2026-03-22T15:18:18.356Z</time></trkpt><trkpt lat="45.9364636" lon="13.0772434"><ele>25.5</ele><time>2026-03-22T15:18:19.352Z</time></trkpt><trkpt lat="45.9364782" lon="13.0768867"><ele>25.0</ele><time>2026-03-22T15:18:20.347Z</time></trkpt><trkpt lat="45.9364926" lon="13.0765441"><ele>26.0</ele><time>2026-03-22T15:18:21.352Z</time></trkpt><trkpt lat="45.9364938" lon="13.076227"><ele>27.0</ele><time>2026-03-22T15:18:22.349Z</time></trkpt><trkpt lat="45.9365123" lon="13.0759462"><ele>28.0</ele><time>2026-03-22T15:18:23.364Z</time></trkpt><trkpt lat="45.9365186" lon="13.0756935"><ele>28.25</ele><time>2026-03-22T15:18:24.345Z</time></trkpt><trkpt lat="45.9365165" lon="13.0754636"><ele>28.5</ele><time>2026-03-22T15:18:25.366Z</time></trkpt><trkpt lat="45.9365107" lon="13.0752643"><ele>28.75</ele><time>2026-03-22T15:18:26.351Z</time></trkpt><trkpt lat="45.936509" lon="13.0751096"><ele>29.0</ele><time>2026-03-22T15:18:27.36Z</time></trkpt><trkpt lat="45.936513" lon="13.0749875"><ele>29.000000000000004</ele><time>2026-03-22T15:18:28.341Z</time></trkpt><trkpt lat="45.9365309" lon="13.0748844"><ele>29.0</ele><time>2026-03-22T15:18:29.351Z</time></trkpt><trkpt lat="45.9365776" lon="13.0748023"><ele>29.000000000000004</ele><time>2026-03-22T15:18:30.36Z</time></trkpt><trkpt lat="45.9366249" lon="13.074728"><ele>29.000000000000004</ele><time>2026-03-22T15:18:31.353Z</time></trkpt><trkpt lat="45.9366844" lon="13.0746673"><ele>29.0</ele><time>2026-03-22T15:18:32.369Z</time></trkpt><trkpt lat="45.9367204" lon="13.0745718"><ele>29.000000000000004</ele><time>2026-03-22T15:18:33.345Z</time></trkpt><trkpt lat="45.9367292" lon="13.0744628"><ele>29.000000000000004</ele><time>2026-03-22T15:18:34.351Z</time></trkpt><trkpt lat="45.9367133" lon="13.0743606"><ele>29.0</ele><time>2026-03-22T15:18:35.349Z</time></trkpt><trkpt lat="45.9366863" lon="13.0742721"><ele>29.0</ele><time>2026-03-22T15:18:36.365Z</time></trkpt><trkpt lat="45.9366272" lon="13.0742"><ele>29.0</ele><time>2026-03-22T15:18:37.349Z</time></trkpt><trkpt lat="45.9365339" lon="13.0741645"><ele>29.0</ele><time>2026-03-22T15:18:38.344Z</time></trkpt><trkpt lat="45.936423" lon="13.0741029"><ele>29.0</ele><time>2026-03-22T15:18:39.345Z</time></trkpt><trkpt lat="45.9363024" lon="13.074003"><ele>29.333333333333332</ele><time>2026-03-22T15:18:40.342Z</time></trkpt><trkpt lat="45.9361791" lon="13.0738778"><ele>29.666666666666664</ele><time>2026-03-22T15:18:41.348Z</time></trkpt><trkpt lat="45.9360634" lon="13.073738"><ele>30.0</ele><time>2026-03-22T15:18:42.347Z</time></trkpt><trkpt lat="45.9359429" lon="13.0736028"><ele>29.333333333333336</ele><time>2026-03-22T15:18:43.35Z</time></trkpt><trkpt lat="45.9358185" lon="13.0734669"><ele>28.666666666666668</ele><time>2026-03-22T15:18:44.345Z</time></trkpt><trkpt lat="45.9356932" lon="13.0733184"><ele>28.0</ele><time>2026-03-22T15:18:45.34Z</time></trkpt><trkpt lat="45.9355601" lon="13.0731753"><ele>27.666666666666668</ele><time>2026-03-22T15:18:46.35Z</time></trkpt><trkpt lat="45.9354252" lon="13.0730255"><ele>27.333333333333336</ele><time>2026-03-22T15:18:47.347Z</time></trkpt><trkpt lat="45.9352913" lon="13.0728637"><ele>27.0</ele><time>2026-03-22T15:18:48.345Z</time></trkpt><trkpt lat="45.9351541" lon="13.0726977"><ele>27.0</ele><time>2026-03-22T15:18:49.35Z</time></trkpt><trkpt lat="45.9350139" lon="13.0725311"><ele>27.0</ele><time>2026-03-22T15:18:50.371Z</time></trkpt><trkpt lat="45.9348727" lon="13.0723604"><ele>27.0</ele><time>2026-03-22T15:18:51.343Z</time></trkpt><trkpt lat="45.9347246" lon="13.0722001"><ele>27.0</ele><time>2026-03-22T15:18:52.345Z</time></trkpt><trkpt lat="45.9345808" lon="13.0720318"><ele>27.0</ele><time>2026-03-22T15:18:53.365Z</time></trkpt><trkpt lat="45.9344402" lon="13.0718579"><ele>27.0</ele><time>2026-03-22T15:18:54.345Z</time></trkpt><trkpt lat="45.9343005" lon="13.0716898"><ele>27.0</ele><time>2026-03-22T15:18:55.357Z</time></trkpt><trkpt lat="45.9341654" lon="13.0715269"><ele>27.0</ele><time>2026-03-22T15:18:56.345Z</time></trkpt><trkpt lat="45.9340317" lon="13.0713713"><ele>27.0</ele><time>2026-03-22T15:18:57.361Z</time></trkpt><trkpt lat="45.933898" lon="13.0712158"><ele>27.0</ele><time>2026-03-22T15:18:58.351Z</time></trkpt><trkpt lat="45.9337634" lon="13.071062"><ele>27.0</ele><time>2026-03-22T15:18:59.356Z</time></trkpt><trkpt lat="45.9336262" lon="13.0709144"><ele>27.0</ele><time>2026-03-22T15:19:00.358Z</time></trkpt><trkpt lat="45.933494" lon="13.0707585"><ele>26.0</ele><time>2026-03-22T15:19:01.353Z</time></trkpt><trkpt lat="45.9333657" lon="13.0705938"><ele>25.0</ele><time>2026-03-22T15:19:02.37Z</time></trkpt><trkpt lat="45.9332301" lon="13.0704367"><ele>24.0</ele><time>2026-03-22T15:19:03.353Z</time></trkpt><trkpt lat="45.9330919" lon="13.0702795"><ele>24.0</ele><time>2026-03-22T15:19:04.357Z</time></trkpt><trkpt lat="45.9329531" lon="13.0701163"><ele>24.0</ele><time>2026-03-22T15:19:05.372Z</time></trkpt><trkpt lat="45.9328168" lon="13.0699531"><ele>24.0</ele><time>2026-03-22T15:19:06.35Z</time></trkpt><trkpt lat="45.9326784" lon="13.0697928"><ele>23.666666666666668</ele><time>2026-03-22T15:19:07.357Z</time></trkpt><trkpt lat="45.9325411" lon="13.0696296"><ele>23.333333333333336</ele><time>2026-03-22T15:19:08.347Z</time></trkpt><trkpt lat="45.9324028" lon="13.0694635"><ele>23.0</ele><time>2026-03-22T15:19:09.373Z</time></trkpt><trkpt lat="45.9322634" lon="13.0692978"><ele>23.0</ele><time>2026-03-22T15:19:10.38Z</time></trkpt><trkpt lat="45.9321239" lon="13.0691331"><ele>23.0</ele><time>2026-03-22T15:19:11.376Z</time></trkpt><trkpt lat="45.9319852" lon="13.0689637"><ele>23.0</ele><time>2026-03-22T15:19:12.349Z</time></trkpt><trkpt lat="45.9318425" lon="13.0687959"><ele>23.333333333333336</ele><time>2026-03-22T15:19:13.363Z</time></trkpt><trkpt lat="45.9316981" lon="13.0686257"><ele>23.666666666666668</ele><time>2026-03-22T15:19:14.35Z</time></trkpt><trkpt lat="45.931551" lon="13.068455"><ele>24.0</ele><time>2026-03-22T15:19:15.358Z</time></trkpt><trkpt lat="45.9314052" lon="13.0682788"><ele>24.666666666666664</ele><time>2026-03-22T15:19:16.347Z</time></trkpt><trkpt lat="45.9312551" lon="13.0681072"><ele>25.333333333333332</ele><time>2026-03-22T15:19:17.366Z</time></trkpt><trkpt lat="45.9311061" lon="13.0679314"><ele>26.0</ele><time>2026-03-22T15:19:18.37Z</time></trkpt><trkpt lat="45.9309569" lon="13.0677547"><ele>25.666666666666664</ele><time>2026-03-22T15:19:19.362Z</time></trkpt><trkpt lat="45.9308113" lon="13.0675728"><ele>25.333333333333336</ele><time>2026-03-22T15:19:20.349Z</time></trkpt><trkpt lat="45.9306634" lon="13.0673967"><ele>25.0</ele><time>2026-03-22T15:19:21.36Z</time></trkpt><trkpt lat="45.9305162" lon="13.0672226"><ele>25.0</ele><time>2026-03-22T15:19:22.354Z</time></trkpt><trkpt lat="45.9303617" lon="13.0670579"><ele>25.0</ele><time>2026-03-22T15:19:23.358Z</time></trkpt><trkpt lat="45.9302133" lon="13.0668861"><ele>25.0</ele><time>2026-03-22T15:19:24.345Z</time></trkpt><trkpt lat="45.9300647" lon="13.0667162"><ele>25.0</ele><time>2026-03-22T15:19:25.372Z</time></trkpt><trkpt lat="45.9299154" lon="13.0665446"><ele>25.0</ele><time>2026-03-22T15:19:26.355Z</time></trkpt><trkpt lat="45.9297654" lon="13.0663709"><ele>25.0</ele><time>2026-03-22T15:19:27.348Z</time></trkpt><trkpt lat="45.9296198" lon="13.0661804"><ele>25.0</ele><time>2026-03-22T15:19:28.348Z</time></trkpt><trkpt lat="45.9294673" lon="13.0659967"><ele>25.0</ele><time>2026-03-22T15:19:29.352Z</time></trkpt><trkpt lat="45.9293192" lon="13.0658017"><ele>25.0</ele><time>2026-03-22T15:19:30.352Z</time></trkpt><trkpt lat="45.9291586" lon="13.0656277"><ele>25.0</ele><time>2026-03-22T15:19:31.361Z</time></trkpt><trkpt lat="45.9290025" lon="13.0654441"><ele>25.0</ele><time>2026-03-22T15:19:32.365Z</time></trkpt><trkpt lat="45.928853" lon="13.065246"><ele>25.0</ele><time>2026-03-22T15:19:33.353Z</time></trkpt><trkpt lat="45.9286942" lon="13.0650619"><ele>25.0</ele><time>2026-03-22T15:19:34.361Z</time></trkpt><trkpt lat="45.9285396" lon="13.0648675"><ele>25.0</ele><time>2026-03-22T15:19:35.363Z</time></trkpt><trkpt lat="45.9283845" lon="13.0646775"><ele>25.0</ele><time>2026-03-22T15:19:36.354Z</time></trkpt><trkpt lat="45.9282289" lon="13.0644899"><ele>25.0</ele><time>2026-03-22T15:19:37.379Z</time></trkpt><trkpt lat="45.9280724" lon="13.0643034"><ele>25.0</ele><time>2026-03-22T15:19:38.377Z</time></trkpt><trkpt lat="45.9279129" lon="13.0641188"><ele>25.0</ele><time>2026-03-22T15:19:39.376Z</time></trkpt><trkpt lat="45.9277499" lon="13.0639368"><ele>24.333333333333336</ele><time>2026-03-22T15:19:40.376Z</time></trkpt><trkpt lat="45.927587" lon="13.0637505"><ele>23.666666666666668</ele><time>2026-03-22T15:19:41.371Z</time></trkpt><trkpt lat="45.9274244" lon="13.0635619"><ele>23.0</ele><time>2026-03-22T15:19:42.349Z</time></trkpt><trkpt lat="45.9272616" lon="13.0633737"><ele>23.666666666666668</ele><time>2026-03-22T15:19:43.356Z</time></trkpt><trkpt lat="45.927098" lon="13.0631886"><ele>24.333333333333336</ele><time>2026-03-22T15:19:44.352Z</time></trkpt><trkpt lat="45.9269426" lon="13.0629917"><ele>25.0</ele><time>2026-03-22T15:19:45.364Z</time></trkpt><trkpt lat="45.9267843" lon="13.0628025"><ele>25.0</ele><time>2026-03-22T15:19:46.36Z</time></trkpt><trkpt lat="45.9266277" lon="13.0626115"><ele>25.0</ele><time>2026-03-22T15:19:47.352Z</time></trkpt><trkpt lat="45.9264655" lon="13.0624319"><ele>25.0</ele><time>2026-03-22T15:19:48.354Z</time></trkpt><trkpt lat="45.9263046" lon="13.062251"><ele>25.0</ele><time>2026-03-22T15:19:49.357Z</time></trkpt><trkpt lat="45.9261372" lon="13.0620798"><ele>25.0</ele><time>2026-03-22T15:19:50.361Z</time></trkpt><trkpt lat="45.9259799" lon="13.0618898"><ele>25.0</ele><time>2026-03-22T15:19:51.365Z</time></trkpt><trkpt lat="45.9258273" lon="13.0616939"><ele>25.0</ele><time>2026-03-22T15:19:52.377Z</time></trkpt><trkpt lat="45.9256724" lon="13.0615016"><ele>25.0</ele><time>2026-03-22T15:19:53.379Z</time></trkpt><trkpt lat="45.9255208" lon="13.0613009"><ele>25.0</ele><time>2026-03-22T15:19:54.36Z</time></trkpt><trkpt lat="45.9253614" lon="13.0611156"><ele>25.0</ele><time>2026-03-22T15:19:55.379Z</time></trkpt><trkpt lat="45.9252045" lon="13.0609258"><ele>25.0</ele><time>2026-03-22T15:19:56.35Z</time></trkpt><trkpt lat="45.9250463" lon="13.0607418"><ele>25.0</ele><time>2026-03-22T15:19:57.362Z</time></trkpt><trkpt lat="45.924884" lon="13.0605683"><ele>25.333333333333336</ele><time>2026-03-22T15:19:58.353Z</time></trkpt><trkpt lat="45.9247253" lon="13.0603895"><ele>25.666666666666664</ele><time>2026-03-22T15:19:59.369Z</time></trkpt><trkpt lat="45.9245723" lon="13.0601995"><ele>26.0</ele><time>2026-03-22T15:20:00.353Z</time></trkpt><trkpt lat="45.9244134" lon="13.0600137"><ele>26.333333333333332</ele><time>2026-03-22T15:20:01.353Z</time></trkpt><trkpt lat="45.9242525" lon="13.0598266"><ele>26.666666666666664</ele><time>2026-03-22T15:20:02.36Z</time></trkpt><trkpt lat="45.9240912" lon="13.0596382"><ele>27.0</ele><time>2026-03-22T15:20:03.362Z</time></trkpt><trkpt lat="45.9239329" lon="13.0594453"><ele>27.333333333333336</ele><time>2026-03-22T15:20:04.355Z</time></trkpt><trkpt lat="45.9237698" lon="13.0592579"><ele>27.666666666666668</ele><time>2026-03-22T15:20:05.356Z</time></trkpt><trkpt lat="45.9236092" lon="13.05906"><ele>28.0</ele><time>2026-03-22T15:20:06.347Z</time></trkpt><trkpt lat="45.923448" lon="13.0588616"><ele>29.333333333333336</ele><time>2026-03-22T15:20:07.367Z</time></trkpt><trkpt lat="45.9232851" lon="13.0586637"><ele>30.666666666666664</ele><time>2026-03-22T15:20:08.349Z</time></trkpt><trkpt lat="45.9231171" lon="13.0584709"><ele>32.0</ele><time>2026-03-22T15:20:09.363Z</time></trkpt><trkpt lat="45.9229482" lon="13.0582751"><ele>32.666666666666664</ele><time>2026-03-22T15:20:10.353Z</time></trkpt><trkpt lat="45.9227786" lon="13.058077"><ele>33.333333333333336</ele><time>2026-03-22T15:20:11.347Z</time></trkpt><trkpt lat="45.9226071" lon="13.0578779"><ele>34.0</ele><time>2026-03-22T15:20:12.36Z</time></trkpt><trkpt lat="45.9224339" lon="13.0576759"><ele>32.0</ele><time>2026-03-22T15:20:13.349Z</time></trkpt><trkpt lat="45.9222608" lon="13.0574659"><ele>30.0</ele><time>2026-03-22T15:20:14.357Z</time></trkpt><trkpt lat="45.9220851" lon="13.0572548"><ele>29.5</ele><time>2026-03-22T15:20:15.358Z</time></trkpt><trkpt lat="45.9219071" lon="13.0570441"><ele>29.0</ele><time>2026-03-22T15:20:16.357Z</time></trkpt><trkpt lat="45.9217273" lon="13.0568314"><ele>26.5</ele><time>2026-03-22T15:20:17.372Z</time></trkpt><trkpt lat="45.9215466" lon="13.0566128"><ele>24.0</ele><time>2026-03-22T15:20:18.357Z</time></trkpt><trkpt lat="45.9213601" lon="13.0564081"><ele>24.0</ele><time>2026-03-22T15:20:19.364Z</time></trkpt><trkpt lat="45.9211838" lon="13.0561816"><ele>24.0</ele><time>2026-03-22T15:20:20.372Z</time></trkpt><trkpt lat="45.9210014" lon="13.0559653"><ele>26.0</ele><time>2026-03-22T15:20:21.374Z</time></trkpt><trkpt lat="45.9208231" lon="13.0557356"><ele>28.0</ele><time>2026-03-22T15:20:22.377Z</time></trkpt><trkpt lat="45.9206416" lon="13.0555215"><ele>28.0</ele><time>2026-03-22T15:20:23.369Z</time></trkpt><trkpt lat="45.9204621" lon="13.0553106"><ele>28.0</ele><time>2026-03-22T15:20:24.354Z</time></trkpt><trkpt lat="45.9202845" lon="13.0551024"><ele>28.0</ele><time>2026-03-22T15:20:25.352Z</time></trkpt><trkpt lat="45.9201108" lon="13.0548977"><ele>28.0</ele><time>2026-03-22T15:20:26.361Z</time></trkpt><trkpt lat="45.9199385" lon="13.0547065"><ele>28.0</ele><time>2026-03-22T15:20:27.355Z</time></trkpt><trkpt lat="45.9197748" lon="13.0545187"><ele>28.0</ele><time>2026-03-22T15:20:28.352Z</time></trkpt><trkpt lat="45.9196171" lon="13.0543351"><ele>28.0</ele><time>2026-03-22T15:20:29.36Z</time></trkpt><trkpt lat="45.9194638" lon="13.0541532"><ele>28.0</ele><time>2026-03-22T15:20:30.363Z</time></trkpt><trkpt lat="45.9193105" lon="13.0539764"><ele>27.666666666666668</ele><time>2026-03-22T15:20:31.352Z</time></trkpt><trkpt lat="45.9191582" lon="13.0537958"><ele>27.333333333333336</ele><time>2026-03-22T15:20:32.354Z</time></trkpt><trkpt lat="45.9190102" lon="13.0536038"><ele>27.0</ele><time>2026-03-22T15:20:33.358Z</time></trkpt><trkpt lat="45.9188574" lon="13.0534186"><ele>26.333333333333336</ele><time>2026-03-22T15:20:34.364Z</time></trkpt><trkpt lat="45.9187028" lon="13.0532379"><ele>25.666666666666668</ele><time>2026-03-22T15:20:35.363Z</time></trkpt><trkpt lat="45.9185438" lon="13.053068"><ele>25.0</ele><time>2026-03-22T15:20:36.354Z</time></trkpt><trkpt lat="45.9183836" lon="13.0529031"><ele>25.0</ele><time>2026-03-22T15:20:37.382Z</time></trkpt><trkpt lat="45.9182328" lon="13.0527314"><ele>25.0</ele><time>2026-03-22T15:20:38.36Z</time></trkpt><trkpt lat="45.9180913" lon="13.0525504"><ele>25.0</ele><time>2026-03-22T15:20:39.373Z</time></trkpt><trkpt lat="45.9179474" lon="13.0523724"><ele>24.333333333333336</ele><time>2026-03-22T15:20:40.359Z</time></trkpt><trkpt lat="45.9178113" lon="13.0521829"><ele>23.666666666666668</ele><time>2026-03-22T15:20:41.343Z</time></trkpt><trkpt lat="45.9176565" lon="13.0520198"><ele>23.0</ele><time>2026-03-22T15:20:42.336Z</time></trkpt><trkpt lat="45.9175059" lon="13.0518459"><ele>22.0</ele><time>2026-03-22T15:20:43.34Z</time></trkpt><trkpt lat="45.9173544" lon="13.0516722"><ele>21.0</ele><time>2026-03-22T15:20:44.346Z</time></trkpt><trkpt lat="45.9172049" lon="13.0514954"><ele>20.0</ele><time>2026-03-22T15:20:45.365Z</time></trkpt><trkpt lat="45.9170553" lon="13.0513217"><ele>20.0</ele><time>2026-03-22T15:20:46.357Z</time></trkpt><trkpt lat="45.9169016" lon="13.0511578"><ele>20.0</ele><time>2026-03-22T15:20:47.363Z</time></trkpt><trkpt lat="45.9167572" lon="13.050981"><ele>20.0</ele><time>2026-03-22T15:20:48.363Z</time></trkpt><trkpt lat="45.9166111" lon="13.0508067"><ele>20.333333333333336</ele><time>2026-03-22T15:20:49.35Z</time></trkpt><trkpt lat="45.9164638" lon="13.050629"><ele>20.666666666666668</ele><time>2026-03-22T15:20:50.352Z</time></trkpt><trkpt lat="45.9163119" lon="13.050452"><ele>21.0</ele><time>2026-03-22T15:20:51.357Z</time></trkpt><trkpt lat="45.9161654" lon="13.0502655"><ele>21.0</ele><time>2026-03-22T15:20:52.367Z</time></trkpt><trkpt lat="45.9160047" lon="13.0500915"><ele>21.0</ele><time>2026-03-22T15:20:53.383Z</time></trkpt><trkpt lat="45.915847" lon="13.0499132"><ele>21.0</ele><time>2026-03-22T15:20:54.36Z</time></trkpt><trkpt lat="45.915692" lon="13.0497344"><ele>21.333333333333332</ele><time>2026-03-22T15:20:55.374Z</time></trkpt><trkpt lat="45.9155403" lon="13.049554"><ele>21.666666666666664</ele><time>2026-03-22T15:20:56.361Z</time></trkpt><trkpt lat="45.9153834" lon="13.0493881"><ele>22.0</ele><time>2026-03-22T15:20:57.351Z</time></trkpt><trkpt lat="45.9152447" lon="13.0491958"><ele>22.0</ele><time>2026-03-22T15:20:58.352Z</time></trkpt><trkpt lat="45.9150928" lon="13.0490363"><ele>22.0</ele><time>2026-03-22T15:20:59.373Z</time></trkpt><trkpt lat="45.9149532" lon="13.0488743"><ele>22.0</ele><time>2026-03-22T15:21:00.349Z</time></trkpt><trkpt lat="45.9148247" lon="13.0487155"><ele>21.333333333333332</ele><time>2026-03-22T15:21:01.38Z</time></trkpt><trkpt lat="45.9147001" lon="13.0485733"><ele>20.666666666666668</ele><time>2026-03-22T15:21:02.363Z</time></trkpt><trkpt lat="45.914589" lon="13.048428"><ele>20.0</ele><time>2026-03-22T15:21:03.359Z</time></trkpt><trkpt lat="45.9144757" lon="13.0483029"><ele>20.0</ele><time>2026-03-22T15:21:04.354Z</time></trkpt><trkpt lat="45.914371" lon="13.0481646"><ele>20.0</ele><time>2026-03-22T15:21:05.353Z</time></trkpt><trkpt lat="45.9142656" lon="13.0480316"><ele>20.0</ele><time>2026-03-22T15:21:06.369Z</time></trkpt><trkpt lat="45.9141525" lon="13.0479164"><ele>20.0</ele><time>2026-03-22T15:21:07.351Z</time></trkpt><trkpt lat="45.9140456" lon="13.0477947"><ele>20.0</ele><time>2026-03-22T15:21:08.352Z</time></trkpt><trkpt lat="45.9139386" lon="13.047677"><ele>20.0</ele><time>2026-03-22T15:21:09.362Z</time></trkpt><trkpt lat="45.9138323" lon="13.0475549"><ele>20.0</ele><time>2026-03-22T15:21:10.376Z</time></trkpt><trkpt lat="45.9137235" lon="13.0474244"><ele>20.0</ele><time>2026-03-22T15:21:11.379Z</time></trkpt><trkpt lat="45.913607" lon="13.0472872"><ele>19.333333333333336</ele><time>2026-03-22T15:21:12.354Z</time></trkpt><trkpt lat="45.9134827" lon="13.0471385"><ele>18.666666666666668</ele><time>2026-03-22T15:21:13.382Z</time></trkpt><trkpt lat="45.9133507" lon="13.0469786"><ele>18.0</ele><time>2026-03-22T15:21:14.354Z</time></trkpt><trkpt lat="45.913212" lon="13.0468096"><ele>17.333333333333332</ele><time>2026-03-22T15:21:15.346Z</time></trkpt><trkpt lat="45.9130649" lon="13.046639"><ele>16.666666666666664</ele><time>2026-03-22T15:21:16.352Z</time></trkpt><trkpt lat="45.912917" lon="13.0464595"><ele>16.0</ele><time>2026-03-22T15:21:17.37Z</time></trkpt><trkpt lat="45.9127662" lon="13.0462786"><ele>16.0</ele><time>2026-03-22T15:21:18.361Z</time></trkpt><trkpt lat="45.9126143" lon="13.0460959"><ele>16.0</ele><time>2026-03-22T15:21:19.366Z</time></trkpt><trkpt lat="45.9124567" lon="13.0459229"><ele>16.0</ele><time>2026-03-22T15:21:20.35Z</time></trkpt><trkpt lat="45.9123054" lon="13.0457374"><ele>16.333333333333332</ele><time>2026-03-22T15:21:21.349Z</time></trkpt><trkpt lat="45.9121527" lon="13.0455533"><ele>16.666666666666668</ele><time>2026-03-22T15:21:22.354Z</time></trkpt><trkpt lat="45.9119976" lon="13.045371"><ele>17.0</ele><time>2026-03-22T15:21:23.349Z</time></trkpt><trkpt lat="45.911836" lon="13.0451944"><ele>17.333333333333336</ele><time>2026-03-22T15:21:24.374Z</time></trkpt><trkpt lat="45.9116801" lon="13.0450023"><ele>17.666666666666668</ele><time>2026-03-22T15:21:25.369Z</time></trkpt><trkpt lat="45.9115243" lon="13.044807"><ele>18.0</ele><time>2026-03-22T15:21:26.366Z</time></trkpt><trkpt lat="45.9113643" lon="13.0446181"><ele>18.0</ele><time>2026-03-22T15:21:27.353Z</time></trkpt><trkpt lat="45.9112069" lon="13.0444233"><ele>18.0</ele><time>2026-03-22T15:21:28.356Z</time></trkpt><trkpt lat="45.9110542" lon="13.0442196"><ele>18.0</ele><time>2026-03-22T15:21:29.375Z</time></trkpt><trkpt lat="45.9108939" lon="13.0440264"><ele>17.333333333333332</ele><time>2026-03-22T15:21:30.379Z</time></trkpt><trkpt lat="45.9107297" lon="13.0438368"><ele>16.666666666666664</ele><time>2026-03-22T15:21:31.368Z</time></trkpt><trkpt lat="45.9105629" lon="13.0436506"><ele>16.0</ele><time>2026-03-22T15:21:32.368Z</time></trkpt><trkpt lat="45.910399" lon="13.0434568"><ele>16.666666666666664</ele><time>2026-03-22T15:21:33.361Z</time></trkpt><trkpt lat="45.9102341" lon="13.0432639"><ele>17.333333333333332</ele><time>2026-03-22T15:21:34.353Z</time></trkpt><trkpt lat="45.9100691" lon="13.0430709"><ele>18.0</ele><time>2026-03-22T15:21:35.382Z</time></trkpt><trkpt lat="45.9099051" lon="13.0428758"><ele>18.0</ele><time>2026-03-22T15:21:36.367Z</time></trkpt><trkpt lat="45.9097405" lon="13.0426812"><ele>18.0</ele><time>2026-03-22T15:21:37.373Z</time></trkpt><trkpt lat="45.9095762" lon="13.0424868"><ele>18.0</ele><time>2026-03-22T15:21:38.354Z</time></trkpt><trkpt lat="45.9094115" lon="13.0422955"><ele>18.0</ele><time>2026-03-22T15:21:39.351Z</time></trkpt><trkpt lat="45.9092473" lon="13.0421059"><ele>18.0</ele><time>2026-03-22T15:21:40.361Z</time></trkpt><trkpt lat="45.909084" lon="13.0419135"><ele>18.0</ele><time>2026-03-22T15:21:41.363Z</time></trkpt><trkpt lat="45.90892" lon="13.0417177"><ele>17.666666666666668</ele><time>2026-03-22T15:21:42.353Z</time></trkpt><trkpt lat="45.9087553" lon="13.0415193"><ele>17.333333333333336</ele><time>2026-03-22T15:21:43.349Z</time></trkpt><trkpt lat="45.9085832" lon="13.0413296"><ele>17.0</ele><time>2026-03-22T15:21:44.356Z</time></trkpt><trkpt lat="45.9084087" lon="13.0411327"><ele>17.0</ele><time>2026-03-22T15:21:45.373Z</time></trkpt><trkpt lat="45.9082285" lon="13.0409297"><ele>17.0</ele><time>2026-03-22T15:21:46.349Z</time></trkpt><trkpt lat="45.9080445" lon="13.0407162"><ele>15.5</ele><time>2026-03-22T15:21:47.367Z</time></trkpt><trkpt lat="45.9078564" lon="13.0404938"><ele>14.0</ele><time>2026-03-22T15:21:48.381Z</time></trkpt><trkpt lat="45.9076664" lon="13.0402669"><ele>14.5</ele><time>2026-03-22T15:21:49.352Z</time></trkpt><trkpt lat="45.9074807" lon="13.0400421"><ele>15.0</ele><time>2026-03-22T15:21:50.363Z</time></trkpt><trkpt lat="45.9072967" lon="13.0398288"><ele>15.0</ele><time>2026-03-22T15:21:51.355Z</time></trkpt><trkpt lat="45.9071193" lon="13.0396177"><ele>15.0</ele><time>2026-03-22T15:21:52.356Z</time></trkpt><trkpt lat="45.9069442" lon="13.0394106"><ele>15.0</ele><time>2026-03-22T15:21:53.367Z</time></trkpt><trkpt lat="45.9067682" lon="13.0392077"><ele>15.0</ele><time>2026-03-22T15:21:54.358Z</time></trkpt><trkpt lat="45.9065944" lon="13.0390023"><ele>16.5</ele><time>2026-03-22T15:21:55.359Z</time></trkpt><trkpt lat="45.9064227" lon="13.0387918"><ele>18.0</ele><time>2026-03-22T15:21:56.361Z</time></trkpt><trkpt lat="45.9062504" lon="13.0385826"><ele>18.0</ele><time>2026-03-22T15:21:57.36Z</time></trkpt><trkpt lat="45.9060768" lon="13.0383763"><ele>18.0</ele><time>2026-03-22T15:21:58.369Z</time></trkpt><trkpt lat="45.905904" lon="13.0381728"><ele>18.0</ele><time>2026-03-22T15:21:59.352Z</time></trkpt><trkpt lat="45.9057337" lon="13.0379694"><ele>18.0</ele><time>2026-03-22T15:22:00.372Z</time></trkpt><trkpt lat="45.9055654" lon="13.0377659"><ele>18.0</ele><time>2026-03-22T15:22:01.377Z</time></trkpt><trkpt lat="45.905395" lon="13.0375684"><ele>18.0</ele><time>2026-03-22T15:22:02.364Z</time></trkpt><trkpt lat="45.9052261" lon="13.0373718"><ele>17.666666666666668</ele><time>2026-03-22T15:22:03.377Z</time></trkpt><trkpt lat="45.905059" lon="13.037175"><ele>17.333333333333336</ele><time>2026-03-22T15:22:04.351Z</time></trkpt><trkpt lat="45.9048928" lon="13.0369793"><ele>17.0</ele><time>2026-03-22T15:22:05.378Z</time></trkpt><trkpt lat="45.9047269" lon="13.0367855"><ele>17.0</ele><time>2026-03-22T15:22:06.377Z</time></trkpt><trkpt lat="45.9045628" lon="13.0365912"><ele>17.0</ele><time>2026-03-22T15:22:07.356Z</time></trkpt><trkpt lat="45.9043971" lon="13.0364"><ele>17.0</ele><time>2026-03-22T15:22:08.369Z</time></trkpt><trkpt lat="45.9042388" lon="13.0362128"><ele>17.333333333333336</ele><time>2026-03-22T15:22:09.363Z</time></trkpt><trkpt lat="45.9040897" lon="13.0360343"><ele>17.666666666666668</ele><time>2026-03-22T15:22:10.383Z</time></trkpt><trkpt lat="45.9039453" lon="13.0358612"><ele>18.0</ele><time>2026-03-22T15:22:11.357Z</time></trkpt><trkpt lat="45.9037997" lon="13.0357025"><ele>18.0</ele><time>2026-03-22T15:22:12.37Z</time></trkpt><trkpt lat="45.9036594" lon="13.0355367"><ele>18.0</ele><time>2026-03-22T15:22:13.378Z</time></trkpt><trkpt lat="45.9035208" lon="13.0353705"><ele>18.0</ele><time>2026-03-22T15:22:14.357Z</time></trkpt><trkpt lat="45.903382" lon="13.0352058"><ele>18.333333333333332</ele><time>2026-03-22T15:22:15.36Z</time></trkpt><trkpt lat="45.9032423" lon="13.0350393"><ele>18.666666666666664</ele><time>2026-03-22T15:22:16.369Z</time></trkpt><trkpt lat="45.9031025" lon="13.0348654"><ele>19.0</ele><time>2026-03-22T15:22:17.366Z</time></trkpt><trkpt lat="45.90296" lon="13.0346887"><ele>19.0</ele><time>2026-03-22T15:22:18.352Z</time></trkpt><trkpt lat="45.9028122" lon="13.0345142"><ele>19.0</ele><time>2026-03-22T15:22:19.355Z</time></trkpt><trkpt lat="45.9026606" lon="13.0343357"><ele>19.0</ele><time>2026-03-22T15:22:20.369Z</time></trkpt><trkpt lat="45.9025065" lon="13.0341521"><ele>18.666666666666664</ele><time>2026-03-22T15:22:21.349Z</time></trkpt><trkpt lat="45.9023513" lon="13.033965"><ele>18.333333333333332</ele><time>2026-03-22T15:22:22.359Z</time></trkpt><trkpt lat="45.9021903" lon="13.0337847"><ele>18.0</ele><time>2026-03-22T15:22:23.352Z</time></trkpt><trkpt lat="45.9020277" lon="13.0336015"><ele>18.0</ele><time>2026-03-22T15:22:24.366Z</time></trkpt><trkpt lat="45.9018644" lon="13.0334129"><ele>18.0</ele><time>2026-03-22T15:22:25.368Z</time></trkpt><trkpt lat="45.9017035" lon="13.0332129"><ele>18.0</ele><time>2026-03-22T15:22:26.372Z</time></trkpt><trkpt lat="45.9015353" lon="13.0330169"><ele>17.666666666666668</ele><time>2026-03-22T15:22:27.36Z</time></trkpt><trkpt lat="45.9013654" lon="13.0328173"><ele>17.333333333333336</ele><time>2026-03-22T15:22:28.367Z</time></trkpt><trkpt lat="45.9011946" lon="13.0326192"><ele>17.0</ele><time>2026-03-22T15:22:29.371Z</time></trkpt><trkpt lat="45.901026" lon="13.032421"><ele>18.666666666666668</ele><time>2026-03-22T15:22:30.37Z</time></trkpt><trkpt lat="45.9008628" lon="13.0322166"><ele>20.333333333333332</ele><time>2026-03-22T15:22:31.386Z</time></trkpt><trkpt lat="45.9006991" lon="13.0320195"><ele>22.0</ele><time>2026-03-22T15:22:32.362Z</time></trkpt><trkpt lat="45.9005345" lon="13.0318306"><ele>22.0</ele><time>2026-03-22T15:22:33.36Z</time></trkpt><trkpt lat="45.9003728" lon="13.0316418"><ele>22.0</ele><time>2026-03-22T15:22:34.358Z</time></trkpt><trkpt lat="45.9002124" lon="13.0314528"><ele>22.0</ele><time>2026-03-22T15:22:35.356Z</time></trkpt><trkpt lat="45.9000538" lon="13.0312635"><ele>22.0</ele><time>2026-03-22T15:22:36.362Z</time></trkpt><trkpt lat="45.8998949" lon="13.0310738"><ele>22.0</ele><time>2026-03-22T15:22:37.365Z</time></trkpt><trkpt lat="45.8997353" lon="13.0308839"><ele>22.0</ele><time>2026-03-22T15:22:38.371Z</time></trkpt><trkpt lat="45.8995784" lon="13.0306886"><ele>21.666666666666664</ele><time>2026-03-22T15:22:39.355Z</time></trkpt><trkpt lat="45.899416" lon="13.0304977"><ele>21.333333333333332</ele><time>2026-03-22T15:22:40.385Z</time></trkpt><trkpt lat="45.8992494" lon="13.030313"><ele>21.0</ele><time>2026-03-22T15:22:41.362Z</time></trkpt><trkpt lat="45.8990852" lon="13.0301219"><ele>19.666666666666668</ele><time>2026-03-22T15:22:42.376Z</time></trkpt><trkpt lat="45.8989178" lon="13.0299316"><ele>18.333333333333336</ele><time>2026-03-22T15:22:43.364Z</time></trkpt><trkpt lat="45.8987521" lon="13.0297359"><ele>17.0</ele><time>2026-03-22T15:22:44.363Z</time></trkpt><trkpt lat="45.8985873" lon="13.0295386"><ele>17.0</ele><time>2026-03-22T15:22:45.355Z</time></trkpt><trkpt lat="45.89842" lon="13.0293434"><ele>17.0</ele><time>2026-03-22T15:22:46.354Z</time></trkpt><trkpt lat="45.8982566" lon="13.029153"><ele>17.0</ele><time>2026-03-22T15:22:47.378Z</time></trkpt><trkpt lat="45.8981008" lon="13.0289708"><ele>17.0</ele><time>2026-03-22T15:22:48.363Z</time></trkpt><trkpt lat="45.8979522" lon="13.028794"><ele>17.0</ele><time>2026-03-22T15:22:49.395Z</time></trkpt><trkpt lat="45.8978059" lon="13.0286175"><ele>17.0</ele><time>2026-03-22T15:22:50.367Z</time></trkpt><trkpt lat="45.8976606" lon="13.0284393"><ele>18.0</ele><time>2026-03-22T15:22:51.346Z</time></trkpt><trkpt lat="45.8975108" lon="13.0282659"><ele>19.0</ele><time>2026-03-22T15:22:52.367Z</time></trkpt><trkpt lat="45.8973614" lon="13.0280917"><ele>20.0</ele><time>2026-03-22T15:22:53.361Z</time></trkpt><trkpt lat="45.8972123" lon="13.0279162"><ele>20.0</ele><time>2026-03-22T15:22:54.361Z</time></trkpt><trkpt lat="45.8970629" lon="13.0277414"><ele>20.0</ele><time>2026-03-22T15:22:55.369Z</time></trkpt><trkpt lat="45.8969157" lon="13.0275689"><ele>20.0</ele><time>2026-03-22T15:22:56.381Z</time></trkpt><trkpt lat="45.8967698" lon="13.027402"><ele>18.333333333333336</ele><time>2026-03-22T15:22:57.359Z</time></trkpt><trkpt lat="45.8966318" lon="13.0272319"><ele>16.666666666666668</ele><time>2026-03-22T15:22:58.382Z</time></trkpt><trkpt lat="45.8964957" lon="13.02707"><ele>15.0</ele><time>2026-03-22T15:22:59.359Z</time></trkpt><trkpt lat="45.8963624" lon="13.0269146"><ele>15.0</ele><time>2026-03-22T15:23:00.357Z</time></trkpt><trkpt lat="45.8962358" lon="13.0267594"><ele>15.0</ele><time>2026-03-22T15:23:01.382Z</time></trkpt><trkpt lat="45.8961088" lon="13.0266147"><ele>15.0</ele><time>2026-03-22T15:23:02.366Z</time></trkpt><trkpt lat="45.8959939" lon="13.0264615"><ele>16.25</ele><time>2026-03-22T15:23:03.367Z</time></trkpt><trkpt lat="45.8959189" lon="13.026338"><ele>17.5</ele><time>2026-03-22T15:23:04.378Z</time></trkpt><trkpt lat="45.8958058" lon="13.0262028"><ele>18.75</ele><time>2026-03-22T15:23:05.359Z</time></trkpt><trkpt lat="45.8957038" lon="13.0260792"><ele>20.0</ele><time>2026-03-22T15:23:06.356Z</time></trkpt><trkpt lat="45.8956118" lon="13.0259631"><ele>20.0</ele><time>2026-03-22T15:23:07.373Z</time></trkpt><trkpt lat="45.895531" lon="13.0258518"><ele>20.0</ele><time>2026-03-22T15:23:08.358Z</time></trkpt><trkpt lat="45.8954617" lon="13.0257379"><ele>20.0</ele><time>2026-03-22T15:23:09.364Z</time></trkpt><trkpt lat="45.8954388" lon="13.0255922"><ele>20.0</ele><time>2026-03-22T15:23:11.366Z</time></trkpt><trkpt lat="45.8953508" lon="13.025368"><ele>19.75</ele><time>2026-03-22T15:23:12.36Z</time></trkpt><trkpt lat="45.8952866" lon="13.0252729"><ele>19.5</ele><time>2026-03-22T15:23:13.342Z</time></trkpt><trkpt lat="45.8951823" lon="13.0252161"><ele>19.25</ele><time>2026-03-22T15:23:14.343Z</time></trkpt><trkpt lat="45.8950509" lon="13.0251756"><ele>19.0</ele><time>2026-03-22T15:23:15.353Z</time></trkpt><trkpt lat="45.8949112" lon="13.0250828"><ele>18.0</ele><time>2026-03-22T15:23:16.354Z</time></trkpt><trkpt lat="45.8947565" lon="13.0249607"><ele>17.0</ele><time>2026-03-22T15:23:17.36Z</time></trkpt><trkpt lat="45.8945948" lon="13.0248081"><ele>16.0</ele><time>2026-03-22T15:23:18.365Z</time></trkpt><trkpt lat="45.8944341" lon="13.0246235"><ele>16.0</ele><time>2026-03-22T15:23:19.359Z</time></trkpt><trkpt lat="45.8942766" lon="13.0244245"><ele>16.0</ele><time>2026-03-22T15:23:20.353Z</time></trkpt><trkpt lat="45.8941119" lon="13.0242367"><ele>16.0</ele><time>2026-03-22T15:23:21.367Z</time></trkpt><trkpt lat="45.8939553" lon="13.0240359"><ele>17.0</ele><time>2026-03-22T15:23:22.347Z</time></trkpt><trkpt lat="45.893794" lon="13.0238489"><ele>18.0</ele><time>2026-03-22T15:23:23.355Z</time></trkpt><trkpt lat="45.8936325" lon="13.0236666"><ele>19.0</ele><time>2026-03-22T15:23:24.368Z</time></trkpt><trkpt lat="45.8934769" lon="13.0234788"><ele>18.333333333333332</ele><time>2026-03-22T15:23:25.389Z</time></trkpt><trkpt lat="45.8933215" lon="13.0232927"><ele>17.666666666666668</ele><time>2026-03-22T15:23:26.36Z</time></trkpt><trkpt lat="45.8931642" lon="13.0231084"><ele>17.0</ele><time>2026-03-22T15:23:27.367Z</time></trkpt><trkpt lat="45.8930081" lon="13.0229189"><ele>17.0</ele><time>2026-03-22T15:23:28.358Z</time></trkpt><trkpt lat="45.8928519" lon="13.0227257"><ele>17.0</ele><time>2026-03-22T15:23:29.384Z</time></trkpt><trkpt lat="45.8926928" lon="13.0225337"><ele>17.0</ele><time>2026-03-22T15:23:30.345Z</time></trkpt><trkpt lat="45.892533" lon="13.0223386"><ele>17.333333333333336</ele><time>2026-03-22T15:23:31.357Z</time></trkpt><trkpt lat="45.8923695" lon="13.0221462"><ele>17.666666666666668</ele><time>2026-03-22T15:23:32.348Z</time></trkpt><trkpt lat="45.8922048" lon="13.0219536"><ele>18.0</ele><time>2026-03-22T15:23:33.377Z</time></trkpt><trkpt lat="45.8920399" lon="13.0217602"><ele>17.666666666666668</ele><time>2026-03-22T15:23:34.366Z</time></trkpt><trkpt lat="45.8918728" lon="13.0215699"><ele>17.333333333333336</ele><time>2026-03-22T15:23:35.366Z</time></trkpt><trkpt lat="45.8917094" lon="13.0213716"><ele>17.0</ele><time>2026-03-22T15:23:36.365Z</time></trkpt><trkpt lat="45.8915442" lon="13.0211779"><ele>17.0</ele><time>2026-03-22T15:23:37.362Z</time></trkpt><trkpt lat="45.8913802" lon="13.0209833"><ele>17.0</ele><time>2026-03-22T15:23:38.366Z</time></trkpt><trkpt lat="45.8912139" lon="13.0207947"><ele>17.0</ele><time>2026-03-22T15:23:39.351Z</time></trkpt><trkpt lat="45.8910489" lon="13.0206027"><ele>17.333333333333336</ele><time>2026-03-22T15:23:40.348Z</time></trkpt><trkpt lat="45.8908819" lon="13.0204106"><ele>17.666666666666668</ele><time>2026-03-22T15:23:41.371Z</time></trkpt><trkpt lat="45.8907134" lon="13.0202164"><ele>18.0</ele><time>2026-03-22T15:23:42.348Z</time></trkpt><trkpt lat="45.8905433" lon="13.0200197"><ele>17.666666666666668</ele><time>2026-03-22T15:23:43.361Z</time></trkpt><trkpt lat="45.8903741" lon="13.0198172"><ele>17.333333333333336</ele><time>2026-03-22T15:23:44.395Z</time></trkpt><trkpt lat="45.8902038" lon="13.0196122"><ele>17.0</ele><time>2026-03-22T15:23:45.351Z</time></trkpt><trkpt lat="45.8900307" lon="13.0194091"><ele>16.333333333333336</ele><time>2026-03-22T15:23:46.38Z</time></trkpt><trkpt lat="45.8898578" lon="13.0192032"><ele>15.666666666666668</ele><time>2026-03-22T15:23:47.375Z</time></trkpt><trkpt lat="45.8896853" lon="13.0189959"><ele>15.0</ele><time>2026-03-22T15:23:48.38Z</time></trkpt><trkpt lat="45.8895121" lon="13.0187879"><ele>15.0</ele><time>2026-03-22T15:23:49.351Z</time></trkpt><trkpt lat="45.8893372" lon="13.0185815"><ele>15.0</ele><time>2026-03-22T15:23:50.37Z</time></trkpt><trkpt lat="45.8891616" lon="13.0183736"><ele>15.5</ele><time>2026-03-22T15:23:51.369Z</time></trkpt><trkpt lat="45.8889851" lon="13.018164"><ele>16.0</ele><time>2026-03-22T15:23:52.356Z</time></trkpt><trkpt lat="45.8888066" lon="13.0179573"><ele>16.0</ele><time>2026-03-22T15:23:53.352Z</time></trkpt><trkpt lat="45.8886249" lon="13.0177563"><ele>16.0</ele><time>2026-03-22T15:23:54.381Z</time></trkpt><trkpt lat="45.8884496" lon="13.0175486"><ele>15.5</ele><time>2026-03-22T15:23:55.352Z</time></trkpt><trkpt lat="45.8882747" lon="13.017342"><ele>15.0</ele><time>2026-03-22T15:23:56.358Z</time></trkpt><trkpt lat="45.8880977" lon="13.0171396"><ele>15.0</ele><time>2026-03-22T15:23:57.393Z</time></trkpt><trkpt lat="45.8879272" lon="13.0169284"><ele>15.0</ele><time>2026-03-22T15:23:58.348Z</time></trkpt><trkpt lat="45.8877569" lon="13.0167171"><ele>15.333333333333332</ele><time>2026-03-22T15:23:59.363Z</time></trkpt><trkpt lat="45.8875818" lon="13.0165136"><ele>15.666666666666666</ele><time>2026-03-22T15:24:00.364Z</time></trkpt><trkpt lat="45.8874079" lon="13.0163101"><ele>16.0</ele><time>2026-03-22T15:24:01.352Z</time></trkpt><trkpt lat="45.8872333" lon="13.0161095"><ele>16.0</ele><time>2026-03-22T15:24:02.379Z</time></trkpt><trkpt lat="45.8870642" lon="13.0159053"><ele>16.0</ele><time>2026-03-22T15:24:03.358Z</time></trkpt><trkpt lat="45.8868959" lon="13.0157015"><ele>16.0</ele><time>2026-03-22T15:24:04.372Z</time></trkpt><trkpt lat="45.8867263" lon="13.0155039"><ele>15.666666666666666</ele><time>2026-03-22T15:24:05.361Z</time></trkpt><trkpt lat="45.8865603" lon="13.0153037"><ele>15.333333333333332</ele><time>2026-03-22T15:24:06.355Z</time></trkpt><trkpt lat="45.8863954" lon="13.0151049"><ele>15.0</ele><time>2026-03-22T15:24:07.359Z</time></trkpt><trkpt lat="45.8862338" lon="13.0149048"><ele>15.0</ele><time>2026-03-22T15:24:08.355Z</time></trkpt><trkpt lat="45.8860672" lon="13.0147186"><ele>15.0</ele><time>2026-03-22T15:24:09.376Z</time></trkpt><trkpt lat="45.8859073" lon="13.0145307"><ele>15.0</ele><time>2026-03-22T15:24:10.358Z</time></trkpt><trkpt lat="45.8857512" lon="13.0143461"><ele>15.0</ele><time>2026-03-22T15:24:11.362Z</time></trkpt><trkpt lat="45.8856021" lon="13.0141598"><ele>15.0</ele><time>2026-03-22T15:24:12.372Z</time></trkpt><trkpt lat="45.8854557" lon="13.0139792"><ele>15.0</ele><time>2026-03-22T15:24:13.349Z</time></trkpt><trkpt lat="45.885312" lon="13.0138073"><ele>15.0</ele><time>2026-03-22T15:24:14.379Z</time></trkpt><trkpt lat="45.8851709" lon="13.013639"><ele>15.0</ele><time>2026-03-22T15:24:15.37Z</time></trkpt><trkpt lat="45.8850291" lon="13.0134756"><ele>15.0</ele><time>2026-03-22T15:24:16.367Z</time></trkpt><trkpt lat="45.8848857" lon="13.0133168"><ele>15.333333333333332</ele><time>2026-03-22T15:24:17.355Z</time></trkpt><trkpt lat="45.8847478" lon="13.0131512"><ele>15.666666666666666</ele><time>2026-03-22T15:24:18.354Z</time></trkpt><trkpt lat="45.8846053" lon="13.0129931"><ele>16.0</ele><time>2026-03-22T15:24:19.35Z</time></trkpt><trkpt lat="45.8844647" lon="13.0128311"><ele>16.0</ele><time>2026-03-22T15:24:20.35Z</time></trkpt><trkpt lat="45.8843267" lon="13.0126635"><ele>16.0</ele><time>2026-03-22T15:24:21.35Z</time></trkpt><trkpt lat="45.8841807" lon="13.0125119"><ele>16.0</ele><time>2026-03-22T15:24:22.341Z</time></trkpt><trkpt lat="45.8840254" lon="13.0123934"><ele>16.666666666666664</ele><time>2026-03-22T15:24:23.342Z</time></trkpt><trkpt lat="45.8838766" lon="13.0122871"><ele>17.333333333333332</ele><time>2026-03-22T15:24:24.346Z</time></trkpt><trkpt lat="45.8837355" lon="13.0121952"><ele>18.0</ele><time>2026-03-22T15:24:25.356Z</time></trkpt><trkpt lat="45.8836126" lon="13.0120804"><ele>18.0</ele><time>2026-03-22T15:24:26.351Z</time></trkpt><trkpt lat="45.8835041" lon="13.0119539"><ele>18.0</ele><time>2026-03-22T15:24:27.367Z</time></trkpt><trkpt lat="45.8834146" lon="13.0118128"><ele>18.0</ele><time>2026-03-22T15:24:28.357Z</time></trkpt><trkpt lat="45.8833258" lon="13.0116859"><ele>18.0</ele><time>2026-03-22T15:24:29.363Z</time></trkpt><trkpt lat="45.8832434" lon="13.011571"><ele>17.8</ele><time>2026-03-22T15:24:30.347Z</time></trkpt><trkpt lat="45.883176" lon="13.0114591"><ele>17.6</ele><time>2026-03-22T15:24:31.36Z</time></trkpt><trkpt lat="45.8831295" lon="13.0113423"><ele>17.4</ele><time>2026-03-22T15:24:32.369Z</time></trkpt><trkpt lat="45.8831246" lon="13.011207"><ele>17.2</ele><time>2026-03-22T15:24:33.373Z</time></trkpt><trkpt lat="45.883134" lon="13.0110675"><ele>17.0</ele><time>2026-03-22T15:24:34.358Z</time></trkpt><trkpt lat="45.8831422" lon="13.0109168"><ele>16.5</ele><time>2026-03-22T15:24:35.362Z</time></trkpt><trkpt lat="45.8830996" lon="13.0107657"><ele>16.0</ele><time>2026-03-22T15:24:36.38Z</time></trkpt><trkpt lat="45.8830458" lon="13.0106188"><ele>15.5</ele><time>2026-03-22T15:24:37.364Z</time></trkpt><trkpt lat="45.8829325" lon="13.0105441"><ele>15.0</ele><time>2026-03-22T15:24:38.352Z</time></trkpt><trkpt lat="45.8827997" lon="13.01053"><ele>15.0</ele><time>2026-03-22T15:24:39.352Z</time></trkpt><trkpt lat="45.882674" lon="13.0104988"><ele>15.0</ele><time>2026-03-22T15:24:40.35Z</time></trkpt><trkpt lat="45.8825603" lon="13.0103969"><ele>15.0</ele><time>2026-03-22T15:24:41.369Z</time></trkpt><trkpt lat="45.8824682" lon="13.010225"><ele>15.0</ele><time>2026-03-22T15:24:42.348Z</time></trkpt><trkpt lat="45.8823707" lon="13.0100399"><ele>15.333333333333332</ele><time>2026-03-22T15:24:43.358Z</time></trkpt><trkpt lat="45.8822509" lon="13.0098626"><ele>15.666666666666666</ele><time>2026-03-22T15:24:44.351Z</time></trkpt><trkpt lat="45.8820932" lon="13.0097174"><ele>16.0</ele><time>2026-03-22T15:24:45.371Z</time></trkpt><trkpt lat="45.8819179" lon="13.0096021"><ele>16.0</ele><time>2026-03-22T15:24:46.351Z</time></trkpt><trkpt lat="45.8817466" lon="13.0094792"><ele>16.0</ele><time>2026-03-22T15:24:47.382Z</time></trkpt><trkpt lat="45.8815842" lon="13.009345"><ele>16.0</ele><time>2026-03-22T15:24:48.354Z</time></trkpt><trkpt lat="45.8814246" lon="13.0092019"><ele>15.666666666666666</ele><time>2026-03-22T15:24:49.382Z</time></trkpt><trkpt lat="45.881275" lon="13.0090367"><ele>15.333333333333332</ele><time>2026-03-22T15:24:50.351Z</time></trkpt><trkpt lat="45.8811305" lon="13.008857"><ele>15.0</ele><time>2026-03-22T15:24:51.365Z</time></trkpt><trkpt lat="45.8809824" lon="13.0086739"><ele>15.0</ele><time>2026-03-22T15:24:52.353Z</time></trkpt><trkpt lat="45.8808276" lon="13.0084932"><ele>15.0</ele><time>2026-03-22T15:24:53.382Z</time></trkpt><trkpt lat="45.8806713" lon="13.0083074"><ele>15.0</ele><time>2026-03-22T15:24:54.342Z</time></trkpt><trkpt lat="45.8805136" lon="13.0081218"><ele>15.0</ele><time>2026-03-22T15:24:55.38Z</time></trkpt><trkpt lat="45.8803575" lon="13.0079345"><ele>15.0</ele><time>2026-03-22T15:24:56.346Z</time></trkpt><trkpt lat="45.8802011" lon="13.007751"><ele>15.0</ele><time>2026-03-22T15:24:57.368Z</time></trkpt><trkpt lat="45.8800421" lon="13.007577"><ele>14.666666666666668</ele><time>2026-03-22T15:24:58.341Z</time></trkpt><trkpt lat="45.8798905" lon="13.0073933"><ele>14.333333333333334</ele><time>2026-03-22T15:24:59.369Z</time></trkpt><trkpt lat="45.8797411" lon="13.0072063"><ele>14.0</ele><time>2026-03-22T15:25:00.347Z</time></trkpt><trkpt lat="45.8795894" lon="13.0070227"><ele>14.0</ele><time>2026-03-22T15:25:01.357Z</time></trkpt><trkpt lat="45.8794355" lon="13.0068408"><ele>14.0</ele><time>2026-03-22T15:25:02.352Z</time></trkpt><trkpt lat="45.879279" lon="13.0066607"><ele>14.0</ele><time>2026-03-22T15:25:03.359Z</time></trkpt><trkpt lat="45.8791216" lon="13.0064797"><ele>13.666666666666668</ele><time>2026-03-22T15:25:04.344Z</time></trkpt><trkpt lat="45.8789635" lon="13.0062995"><ele>13.333333333333332</ele><time>2026-03-22T15:25:05.347Z</time></trkpt><trkpt lat="45.8788062" lon="13.0061176"><ele>13.0</ele><time>2026-03-22T15:25:06.348Z</time></trkpt><trkpt lat="45.8786491" lon="13.0059341"><ele>13.0</ele><time>2026-03-22T15:25:07.37Z</time></trkpt><trkpt lat="45.8784927" lon="13.0057498"><ele>13.0</ele><time>2026-03-22T15:25:08.367Z</time></trkpt><trkpt lat="45.8783386" lon="13.0055738"><ele>13.0</ele><time>2026-03-22T15:25:09.378Z</time></trkpt><trkpt lat="45.8781906" lon="13.0053993"><ele>13.0</ele><time>2026-03-22T15:25:10.349Z</time></trkpt><trkpt lat="45.8780433" lon="13.0052254"><ele>13.0</ele><time>2026-03-22T15:25:11.363Z</time></trkpt><trkpt lat="45.8778989" lon="13.005051"><ele>13.0</ele><time>2026-03-22T15:25:12.351Z</time></trkpt><trkpt lat="45.8777543" lon="13.0048803"><ele>13.333333333333332</ele><time>2026-03-22T15:25:13.37Z</time></trkpt><trkpt lat="45.8776062" lon="13.0047059"><ele>13.666666666666668</ele><time>2026-03-22T15:25:14.348Z</time></trkpt><trkpt lat="45.8774536" lon="13.0045265"><ele>14.0</ele><time>2026-03-22T15:25:15.344Z</time></trkpt><trkpt lat="45.8772993" lon="13.0043417"><ele>14.0</ele><time>2026-03-22T15:25:16.347Z</time></trkpt><trkpt lat="45.8771423" lon="13.0041553"><ele>14.0</ele><time>2026-03-22T15:25:17.356Z</time></trkpt><trkpt lat="45.8769829" lon="13.0039664"><ele>14.0</ele><time>2026-03-22T15:25:18.367Z</time></trkpt><trkpt lat="45.8768211" lon="13.0037749"><ele>13.333333333333334</ele><time>2026-03-22T15:25:19.36Z</time></trkpt><trkpt lat="45.8766607" lon="13.0035883"><ele>12.666666666666668</ele><time>2026-03-22T15:25:20.355Z</time></trkpt><trkpt lat="45.876505" lon="13.0034064"><ele>12.0</ele><time>2026-03-22T15:25:21.369Z</time></trkpt><trkpt lat="45.876349" lon="13.0032239"><ele>12.0</ele><time>2026-03-22T15:25:22.357Z</time></trkpt><trkpt lat="45.8761901" lon="13.0030382"><ele>12.0</ele><time>2026-03-22T15:25:23.362Z</time></trkpt><trkpt lat="45.8760283" lon="13.002846"><ele>12.0</ele><time>2026-03-22T15:25:24.37Z</time></trkpt><trkpt lat="45.8758612" lon="13.0026512"><ele>11.666666666666666</ele><time>2026-03-22T15:25:25.389Z</time></trkpt><trkpt lat="45.8756914" lon="13.002451"><ele>11.333333333333332</ele><time>2026-03-22T15:25:26.357Z</time></trkpt><trkpt lat="45.8755198" lon="13.0022485"><ele>11.0</ele><time>2026-03-22T15:25:27.351Z</time></trkpt><trkpt lat="45.8753468" lon="13.0020476"><ele>11.0</ele><time>2026-03-22T15:25:28.363Z</time></trkpt><trkpt lat="45.8751822" lon="13.0018453"><ele>11.0</ele><time>2026-03-22T15:25:29.357Z</time></trkpt><trkpt lat="45.8750238" lon="13.0016568"><ele>11.0</ele><time>2026-03-22T15:25:30.354Z</time></trkpt><trkpt lat="45.8748715" lon="13.0014792"><ele>11.333333333333332</ele><time>2026-03-22T15:25:31.357Z</time></trkpt><trkpt lat="45.8747283" lon="13.0013078"><ele>11.666666666666666</ele><time>2026-03-22T15:25:32.348Z</time></trkpt><trkpt lat="45.8745888" lon="13.0011452"><ele>12.0</ele><time>2026-03-22T15:25:33.374Z</time></trkpt><trkpt lat="45.8744551" lon="13.0009866"><ele>12.0</ele><time>2026-03-22T15:25:34.354Z</time></trkpt><trkpt lat="45.8743238" lon="13.0008333"><ele>12.0</ele><time>2026-03-22T15:25:35.371Z</time></trkpt><trkpt lat="45.874194" lon="13.0006783"><ele>12.0</ele><time>2026-03-22T15:25:36.368Z</time></trkpt><trkpt lat="45.8740657" lon="13.0005216"><ele>12.0</ele><time>2026-03-22T15:25:37.369Z</time></trkpt><trkpt lat="45.8739382" lon="13.0003717"><ele>12.0</ele><time>2026-03-22T15:25:38.364Z</time></trkpt><trkpt lat="45.8738145" lon="13.0002263"><ele>12.0</ele><time>2026-03-22T15:25:39.363Z</time></trkpt><trkpt lat="45.8736971" lon="13.0000864"><ele>12.0</ele><time>2026-03-22T15:25:40.368Z</time></trkpt><trkpt lat="45.8735865" lon="12.9999609"><ele>12.0</ele><time>2026-03-22T15:25:41.359Z</time></trkpt><trkpt lat="45.8734931" lon="12.999855"><ele>12.0</ele><time>2026-03-22T15:25:42.348Z</time></trkpt><trkpt lat="45.8734188" lon="12.9997675"><ele>12.0</ele><time>2026-03-22T15:25:43.348Z</time></trkpt><trkpt lat="45.8733561" lon="12.9996972"><ele>12.0</ele><time>2026-03-22T15:25:44.35Z</time></trkpt><trkpt lat="45.8732864" lon="12.9995835"><ele>12.0</ele><time>2026-03-22T15:25:46.345Z</time></trkpt><trkpt lat="45.8732791" lon="12.9994927"><ele>12.0</ele><time>2026-03-22T15:25:48.366Z</time></trkpt><trkpt lat="45.8733052" lon="12.9993741"><ele>12.0</ele><time>2026-03-22T15:25:51.376Z</time></trkpt><trkpt lat="45.8732587" lon="12.9992507"><ele>12.0</ele><time>2026-03-22T15:25:53.363Z</time></trkpt><trkpt lat="45.8731891" lon="12.999186"><ele>12.0</ele><time>2026-03-22T15:25:55.339Z</time></trkpt><trkpt lat="45.8731201" lon="12.9991033"><ele>12.0</ele><time>2026-03-22T15:26:07.339Z</time></trkpt><trkpt lat="45.8732105" lon="12.9991632"><ele>12.0</ele><time>2026-03-22T15:27:20.443Z</time></trkpt><trkpt lat="45.8731952" lon="12.9990749"><ele>12.0</ele><time>2026-03-22T15:27:36.366Z</time></trkpt></trkseg><trkseg><trkpt lat="45.873116" lon="12.9989996"><ele>11.999999999999998</ele><time>2026-03-22T15:54:52.703Z</time></trkpt><trkpt lat="45.873053" lon="12.9989395"><ele>12.0</ele><time>2026-03-22T15:55:09.691Z</time></trkpt><trkpt lat="45.8729947" lon="12.9988888"><ele>12.0</ele><time>2026-03-22T15:55:52.673Z</time></trkpt><trkpt lat="45.8729449" lon="12.9988271"><ele>12.0</ele><time>2026-03-22T15:55:56.717Z</time></trkpt><trkpt lat="45.872894" lon="12.9987598"><ele>12.0</ele><time>2026-03-22T15:56:00.701Z</time></trkpt><trkpt lat="45.8728156" lon="12.9987383"><ele>11.999999999999998</ele><time>2026-03-22T15:56:03.702Z</time></trkpt><trkpt lat="45.8727381" lon="12.9987486"><ele>12.0</ele><time>2026-03-22T15:56:06.722Z</time></trkpt><trkpt lat="45.8726399" lon="12.9987383"><ele>12.0</ele><time>2026-03-22T15:56:31.693Z</time></trkpt><trkpt lat="45.8725284" lon="12.998635"><ele>12.0</ele><time>2026-03-22T15:56:33.702Z</time></trkpt><trkpt lat="45.8724763" lon="12.9985616"><ele>12.0</ele><time>2026-03-22T15:56:34.701Z</time></trkpt><trkpt lat="45.8724048" lon="12.9984862"><ele>12.0</ele><time>2026-03-22T15:56:35.685Z</time></trkpt><trkpt lat="45.8723211" lon="12.9983975"><ele>12.0</ele><time>2026-03-22T15:56:36.713Z</time></trkpt><trkpt lat="45.8722286" lon="12.9982995"><ele>12.0</ele><time>2026-03-22T15:56:37.721Z</time></trkpt><trkpt lat="45.872129" lon="12.9981901"><ele>12.0</ele><time>2026-03-22T15:56:38.706Z</time></trkpt><trkpt lat="45.872023" lon="12.9980782"><ele>12.0</ele><time>2026-03-22T15:56:39.697Z</time></trkpt><trkpt lat="45.8719168" lon="12.9979614"><ele>12.0</ele><time>2026-03-22T15:56:40.712Z</time></trkpt><trkpt lat="45.8718093" lon="12.9978394"><ele>12.0</ele><time>2026-03-22T15:56:41.701Z</time></trkpt><trkpt lat="45.8717002" lon="12.9977131"><ele>12.0</ele><time>2026-03-22T15:56:42.693Z</time></trkpt><trkpt lat="45.8715891" lon="12.9975847"><ele>12.0</ele><time>2026-03-22T15:56:43.687Z</time></trkpt><trkpt lat="45.8714716" lon="12.9974575"><ele>12.0</ele><time>2026-03-22T15:56:44.699Z</time></trkpt><trkpt lat="45.8713535" lon="12.9973244"><ele>12.0</ele><time>2026-03-22T15:56:45.702Z</time></trkpt><trkpt lat="45.8712353" lon="12.9971881"><ele>12.0</ele><time>2026-03-22T15:56:46.692Z</time></trkpt><trkpt lat="45.8711175" lon="12.9970476"><ele>12.0</ele><time>2026-03-22T15:56:47.706Z</time></trkpt><trkpt lat="45.8709995" lon="12.9969069"><ele>12.0</ele><time>2026-03-22T15:56:48.704Z</time></trkpt><trkpt lat="45.870882" lon="12.9967648"><ele>12.0</ele><time>2026-03-22T15:56:49.685Z</time></trkpt><trkpt lat="45.8707654" lon="12.9966205"><ele>12.0</ele><time>2026-03-22T15:56:50.694Z</time></trkpt><trkpt lat="45.8706502" lon="12.996475"><ele>12.0</ele><time>2026-03-22T15:56:51.686Z</time></trkpt><trkpt lat="45.8705373" lon="12.9963286"><ele>12.0</ele><time>2026-03-22T15:56:52.709Z</time></trkpt><trkpt lat="45.8704239" lon="12.9961857"><ele>12.0</ele><time>2026-03-22T15:56:53.698Z</time></trkpt><trkpt lat="45.8703093" lon="12.9960379"><ele>12.0</ele><time>2026-03-22T15:56:54.687Z</time></trkpt><trkpt lat="45.870193" lon="12.9958894"><ele>12.0</ele><time>2026-03-22T15:56:55.699Z</time></trkpt><trkpt lat="45.8700765" lon="12.9957372"><ele>12.0</ele><time>2026-03-22T15:56:56.703Z</time></trkpt><trkpt lat="45.8699608" lon="12.9955792"><ele>12.0</ele><time>2026-03-22T15:56:57.706Z</time></trkpt><trkpt lat="45.8698434" lon="12.9954196"><ele>12.0</ele><time>2026-03-22T15:56:58.688Z</time></trkpt><trkpt lat="45.8697236" lon="12.9952596"><ele>12.0</ele><time>2026-03-22T15:56:59.693Z</time></trkpt><trkpt lat="45.8696038" lon="12.9950948"><ele>11.666666666666666</ele><time>2026-03-22T15:57:00.704Z</time></trkpt><trkpt lat="45.8694835" lon="12.9949254"><ele>11.333333333333332</ele><time>2026-03-22T15:57:01.704Z</time></trkpt><trkpt lat="45.8693642" lon="12.9947504"><ele>11.0</ele><time>2026-03-22T15:57:02.69Z</time></trkpt><trkpt lat="45.8692466" lon="12.9945723"><ele>11.0</ele><time>2026-03-22T15:57:03.701Z</time></trkpt><trkpt lat="45.8691287" lon="12.9943914"><ele>11.0</ele><time>2026-03-22T15:57:04.703Z</time></trkpt><trkpt lat="45.8690096" lon="12.9942083"><ele>11.0</ele><time>2026-03-22T15:57:05.675Z</time></trkpt><trkpt lat="45.8688897" lon="12.9940234"><ele>11.333333333333332</ele><time>2026-03-22T15:57:06.689Z</time></trkpt><trkpt lat="45.868768" lon="12.9938351"><ele>11.666666666666666</ele><time>2026-03-22T15:57:07.691Z</time></trkpt><trkpt lat="45.868646" lon="12.9936421"><ele>12.0</ele><time>2026-03-22T15:57:08.705Z</time></trkpt><trkpt lat="45.86852" lon="12.9934492"><ele>12.0</ele><time>2026-03-22T15:57:09.684Z</time></trkpt><trkpt lat="45.8683965" lon="12.9932481"><ele>12.0</ele><time>2026-03-22T15:57:10.733Z</time></trkpt><trkpt lat="45.868273" lon="12.9930469"><ele>12.0</ele><time>2026-03-22T15:57:11.678Z</time></trkpt><trkpt lat="45.8681517" lon="12.9928452"><ele>12.0</ele><time>2026-03-22T15:57:12.681Z</time></trkpt><trkpt lat="45.868034" lon="12.9926471"><ele>12.0</ele><time>2026-03-22T15:57:13.687Z</time></trkpt><trkpt lat="45.8679147" lon="12.9924632"><ele>12.0</ele><time>2026-03-22T15:57:14.685Z</time></trkpt><trkpt lat="45.8678012" lon="12.9922801"><ele>12.0</ele><time>2026-03-22T15:57:15.687Z</time></trkpt><trkpt lat="45.8676907" lon="12.9920914"><ele>12.0</ele><time>2026-03-22T15:57:16.688Z</time></trkpt><trkpt lat="45.8675825" lon="12.9919005"><ele>12.0</ele><time>2026-03-22T15:57:17.681Z</time></trkpt><trkpt lat="45.8674746" lon="12.9917128"><ele>12.0</ele><time>2026-03-22T15:57:18.684Z</time></trkpt><trkpt lat="45.8673684" lon="12.9915241"><ele>12.0</ele><time>2026-03-22T15:57:19.7Z</time></trkpt><trkpt lat="45.8672643" lon="12.9913402"><ele>12.0</ele><time>2026-03-22T15:57:20.688Z</time></trkpt><trkpt lat="45.8671665" lon="12.9911597"><ele>12.0</ele><time>2026-03-22T15:57:21.694Z</time></trkpt><trkpt lat="45.8670767" lon="12.9909846"><ele>12.0</ele><time>2026-03-22T15:57:22.705Z</time></trkpt><trkpt lat="45.8669939" lon="12.9908217"><ele>12.0</ele><time>2026-03-22T15:57:23.722Z</time></trkpt><trkpt lat="45.8669185" lon="12.9906633"><ele>12.0</ele><time>2026-03-22T15:57:24.698Z</time></trkpt><trkpt lat="45.8668455" lon="12.9905047"><ele>11.75</ele><time>2026-03-22T15:57:25.684Z</time></trkpt><trkpt lat="45.8667677" lon="12.9903491"><ele>11.5</ele><time>2026-03-22T15:57:26.686Z</time></trkpt><trkpt lat="45.8666882" lon="12.9901859"><ele>11.25</ele><time>2026-03-22T15:57:27.702Z</time></trkpt><trkpt lat="45.8666038" lon="12.990011"><ele>11.0</ele><time>2026-03-22T15:57:28.703Z</time></trkpt><trkpt lat="45.8665148" lon="12.9898224"><ele>10.666666666666666</ele><time>2026-03-22T15:57:29.693Z</time></trkpt><trkpt lat="45.8664219" lon="12.9896219"><ele>10.333333333333334</ele><time>2026-03-22T15:57:30.691Z</time></trkpt><trkpt lat="45.8663233" lon="12.9894137"><ele>10.0</ele><time>2026-03-22T15:57:31.692Z</time></trkpt><trkpt lat="45.8662239" lon="12.9891966"><ele>10.333333333333334</ele><time>2026-03-22T15:57:32.686Z</time></trkpt><trkpt lat="45.8661208" lon="12.9889733"><ele>10.666666666666666</ele><time>2026-03-22T15:57:33.684Z</time></trkpt><trkpt lat="45.8660135" lon="12.988745"><ele>11.0</ele><time>2026-03-22T15:57:34.696Z</time></trkpt><trkpt lat="45.8659062" lon="12.9885072"><ele>11.0</ele><time>2026-03-22T15:57:35.69Z</time></trkpt><trkpt lat="45.8657981" lon="12.988263"><ele>11.0</ele><time>2026-03-22T15:57:36.692Z</time></trkpt><trkpt lat="45.86569" lon="12.988016"><ele>11.0</ele><time>2026-03-22T15:57:37.682Z</time></trkpt><trkpt lat="45.865582" lon="12.9877632"><ele>11.333333333333332</ele><time>2026-03-22T15:57:38.698Z</time></trkpt><trkpt lat="45.8654737" lon="12.9875037"><ele>11.666666666666666</ele><time>2026-03-22T15:57:39.708Z</time></trkpt><trkpt lat="45.8653629" lon="12.9872397"><ele>12.0</ele><time>2026-03-22T15:57:40.694Z</time></trkpt><trkpt lat="45.8652501" lon="12.9869726"><ele>12.0</ele><time>2026-03-22T15:57:41.686Z</time></trkpt><trkpt lat="45.8651402" lon="12.9867008"><ele>12.0</ele><time>2026-03-22T15:57:42.691Z</time></trkpt><trkpt lat="45.8650276" lon="12.9864279"><ele>12.0</ele><time>2026-03-22T15:57:43.693Z</time></trkpt><trkpt lat="45.8649147" lon="12.986154"><ele>12.333333333333332</ele><time>2026-03-22T15:57:44.689Z</time></trkpt><trkpt lat="45.8648026" lon="12.9858771"><ele>12.666666666666666</ele><time>2026-03-22T15:57:45.684Z</time></trkpt><trkpt lat="45.8646968" lon="12.9855993"><ele>13.0</ele><time>2026-03-22T15:57:46.685Z</time></trkpt><trkpt lat="45.8645945" lon="12.9853222"><ele>13.0</ele><time>2026-03-22T15:57:47.692Z</time></trkpt><trkpt lat="45.8644892" lon="12.985048"><ele>13.0</ele><time>2026-03-22T15:57:48.685Z</time></trkpt><trkpt lat="45.864389" lon="12.9847821"><ele>13.0</ele><time>2026-03-22T15:57:49.695Z</time></trkpt><trkpt lat="45.8642966" lon="12.9845301"><ele>13.0</ele><time>2026-03-22T15:57:50.684Z</time></trkpt><trkpt lat="45.8642062" lon="12.9842864"><ele>13.0</ele><time>2026-03-22T15:57:51.704Z</time></trkpt><trkpt lat="45.8641245" lon="12.9840321"><ele>13.0</ele><time>2026-03-22T15:57:52.692Z</time></trkpt><trkpt lat="45.8640408" lon="12.9837801"><ele>13.333333333333332</ele><time>2026-03-22T15:57:53.699Z</time></trkpt><trkpt lat="45.8639693" lon="12.983521"><ele>13.666666666666668</ele><time>2026-03-22T15:57:54.715Z</time></trkpt><trkpt lat="45.8638859" lon="12.9832674"><ele>14.0</ele><time>2026-03-22T15:57:55.685Z</time></trkpt><trkpt lat="45.8637945" lon="12.9830137"><ele>14.0</ele><time>2026-03-22T15:57:56.695Z</time></trkpt><trkpt lat="45.863719" lon="12.9827456"><ele>14.0</ele><time>2026-03-22T15:57:57.718Z</time></trkpt><trkpt lat="45.8636299" lon="12.9824853"><ele>14.0</ele><time>2026-03-22T15:57:58.685Z</time></trkpt><trkpt lat="45.8635386" lon="12.9822279"><ele>14.333333333333334</ele><time>2026-03-22T15:57:59.702Z</time></trkpt><trkpt lat="45.8634446" lon="12.9819728"><ele>14.666666666666668</ele><time>2026-03-22T15:58:00.705Z</time></trkpt><trkpt lat="45.863357" lon="12.9817133"><ele>15.0</ele><time>2026-03-22T15:58:01.701Z</time></trkpt><trkpt lat="45.8632802" lon="12.9814522"><ele>15.0</ele><time>2026-03-22T15:58:02.704Z</time></trkpt><trkpt lat="45.8631876" lon="12.9812136"><ele>15.0</ele><time>2026-03-22T15:58:03.705Z</time></trkpt><trkpt lat="45.8631007" lon="12.980976"><ele>15.0</ele><time>2026-03-22T15:58:04.693Z</time></trkpt><trkpt lat="45.8630139" lon="12.980742"><ele>14.666666666666668</ele><time>2026-03-22T15:58:05.696Z</time></trkpt><trkpt lat="45.8629317" lon="12.9805073"><ele>14.333333333333334</ele><time>2026-03-22T15:58:06.699Z</time></trkpt><trkpt lat="45.8628424" lon="12.9802815"><ele>14.0</ele><time>2026-03-22T15:58:07.71Z</time></trkpt><trkpt lat="45.8627585" lon="12.9800545"><ele>13.666666666666668</ele><time>2026-03-22T15:58:08.708Z</time></trkpt><trkpt lat="45.8626761" lon="12.9798275"><ele>13.333333333333332</ele><time>2026-03-22T15:58:09.714Z</time></trkpt><trkpt lat="45.8625941" lon="12.9796021"><ele>13.0</ele><time>2026-03-22T15:58:10.692Z</time></trkpt><trkpt lat="45.8625087" lon="12.9793823"><ele>13.333333333333332</ele><time>2026-03-22T15:58:11.704Z</time></trkpt><trkpt lat="45.8624263" lon="12.9791616"><ele>13.666666666666668</ele><time>2026-03-22T15:58:12.696Z</time></trkpt><trkpt lat="45.8623442" lon="12.9789408"><ele>14.0</ele><time>2026-03-22T15:58:13.706Z</time></trkpt><trkpt lat="45.8622622" lon="12.9787195"><ele>14.0</ele><time>2026-03-22T15:58:14.712Z</time></trkpt><trkpt lat="45.862186" lon="12.9784909"><ele>14.0</ele><time>2026-03-22T15:58:15.695Z</time></trkpt><trkpt lat="45.8621078" lon="12.9782628"><ele>14.0</ele><time>2026-03-22T15:58:16.693Z</time></trkpt><trkpt lat="45.8620261" lon="12.9780347"><ele>14.0</ele><time>2026-03-22T15:58:17.699Z</time></trkpt><trkpt lat="45.8619415" lon="12.9778059"><ele>14.0</ele><time>2026-03-22T15:58:18.706Z</time></trkpt><trkpt lat="45.8618572" lon="12.9775746"><ele>14.0</ele><time>2026-03-22T15:58:19.698Z</time></trkpt><trkpt lat="45.8617762" lon="12.9773402"><ele>14.0</ele><time>2026-03-22T15:58:20.696Z</time></trkpt><trkpt lat="45.8616906" lon="12.9771047"><ele>14.0</ele><time>2026-03-22T15:58:21.706Z</time></trkpt><trkpt lat="45.8616062" lon="12.9768654"><ele>14.0</ele><time>2026-03-22T15:58:22.706Z</time></trkpt><trkpt lat="45.8615167" lon="12.9766239"><ele>13.666666666666668</ele><time>2026-03-22T15:58:23.696Z</time></trkpt><trkpt lat="45.8614276" lon="12.9763799"><ele>13.333333333333332</ele><time>2026-03-22T15:58:24.694Z</time></trkpt><trkpt lat="45.8613401" lon="12.9761346"><ele>13.0</ele><time>2026-03-22T15:58:25.697Z</time></trkpt><trkpt lat="45.8612533" lon="12.975888"><ele>12.666666666666666</ele><time>2026-03-22T15:58:26.69Z</time></trkpt><trkpt lat="45.8611641" lon="12.9756412"><ele>12.333333333333332</ele><time>2026-03-22T15:58:27.696Z</time></trkpt><trkpt lat="45.8610638" lon="12.9754057"><ele>12.0</ele><time>2026-03-22T15:58:28.708Z</time></trkpt><trkpt lat="45.8609725" lon="12.9751654"><ele>11.333333333333334</ele><time>2026-03-22T15:58:29.716Z</time></trkpt><trkpt lat="45.8608837" lon="12.9749264"><ele>10.666666666666668</ele><time>2026-03-22T15:58:30.695Z</time></trkpt><trkpt lat="45.860794" lon="12.9746955"><ele>10.0</ele><time>2026-03-22T15:58:31.702Z</time></trkpt><trkpt lat="45.8607184" lon="12.9744549"><ele>10.0</ele><time>2026-03-22T15:58:32.702Z</time></trkpt><trkpt lat="45.8606359" lon="12.9742193"><ele>10.0</ele><time>2026-03-22T15:58:33.699Z</time></trkpt><trkpt lat="45.8605523" lon="12.9739858"><ele>10.0</ele><time>2026-03-22T15:58:34.696Z</time></trkpt><trkpt lat="45.8604691" lon="12.9737533"><ele>10.0</ele><time>2026-03-22T15:58:35.687Z</time></trkpt><trkpt lat="45.8603871" lon="12.9735207"><ele>10.0</ele><time>2026-03-22T15:58:36.706Z</time></trkpt><trkpt lat="45.8603043" lon="12.9732895"><ele>10.0</ele><time>2026-03-22T15:58:37.708Z</time></trkpt><trkpt lat="45.8602211" lon="12.9730596"><ele>10.0</ele><time>2026-03-22T15:58:38.696Z</time></trkpt><trkpt lat="45.8601384" lon="12.9728302"><ele>10.0</ele><time>2026-03-22T15:58:39.693Z</time></trkpt><trkpt lat="45.8600544" lon="12.972601"><ele>10.0</ele><time>2026-03-22T15:58:40.688Z</time></trkpt><trkpt lat="45.859973" lon="12.9723696"><ele>11.0</ele><time>2026-03-22T15:58:41.697Z</time></trkpt><trkpt lat="45.859893" lon="12.9721367"><ele>12.0</ele><time>2026-03-22T15:58:42.683Z</time></trkpt><trkpt lat="45.8598135" lon="12.9718993"><ele>13.0</ele><time>2026-03-22T15:58:43.694Z</time></trkpt><trkpt lat="45.8597232" lon="12.9716672"><ele>13.0</ele><time>2026-03-22T15:58:44.682Z</time></trkpt><trkpt lat="45.8596424" lon="12.9714276"><ele>13.0</ele><time>2026-03-22T15:58:45.696Z</time></trkpt><trkpt lat="45.8595593" lon="12.971191"><ele>13.0</ele><time>2026-03-22T15:58:46.686Z</time></trkpt><trkpt lat="45.8594761" lon="12.970955"><ele>13.0</ele><time>2026-03-22T15:58:47.72Z</time></trkpt><trkpt lat="45.859391" lon="12.9707211"><ele>13.0</ele><time>2026-03-22T15:58:48.715Z</time></trkpt><trkpt lat="45.859301" lon="12.9704915"><ele>13.0</ele><time>2026-03-22T15:58:49.699Z</time></trkpt><trkpt lat="45.8592219" lon="12.9702556"><ele>13.666666666666666</ele><time>2026-03-22T15:58:50.684Z</time></trkpt><trkpt lat="45.8591378" lon="12.9700219"><ele>14.333333333333332</ele><time>2026-03-22T15:58:51.702Z</time></trkpt><trkpt lat="45.8590528" lon="12.9697869"><ele>15.0</ele><time>2026-03-22T15:58:52.693Z</time></trkpt><trkpt lat="45.8589635" lon="12.969554"><ele>15.0</ele><time>2026-03-22T15:58:53.697Z</time></trkpt><trkpt lat="45.8588763" lon="12.969319"><ele>15.0</ele><time>2026-03-22T15:58:54.7Z</time></trkpt><trkpt lat="45.8587901" lon="12.9690802"><ele>15.0</ele><time>2026-03-22T15:58:55.719Z</time></trkpt><trkpt lat="45.8587044" lon="12.9688385"><ele>14.333333333333332</ele><time>2026-03-22T15:58:56.69Z</time></trkpt><trkpt lat="45.858618" lon="12.968597"><ele>13.666666666666666</ele><time>2026-03-22T15:58:57.702Z</time></trkpt><trkpt lat="45.858528" lon="12.9683559"><ele>13.0</ele><time>2026-03-22T15:58:58.696Z</time></trkpt><trkpt lat="45.858437" lon="12.968112"><ele>12.666666666666666</ele><time>2026-03-22T15:58:59.713Z</time></trkpt><trkpt lat="45.8583467" lon="12.9678678"><ele>12.333333333333332</ele><time>2026-03-22T15:59:00.7Z</time></trkpt><trkpt lat="45.8582597" lon="12.9676217"><ele>12.0</ele><time>2026-03-22T15:59:01.697Z</time></trkpt><trkpt lat="45.8581737" lon="12.9673756"><ele>11.666666666666666</ele><time>2026-03-22T15:59:02.694Z</time></trkpt><trkpt lat="45.8580855" lon="12.9671345"><ele>11.333333333333332</ele><time>2026-03-22T15:59:03.69Z</time></trkpt><trkpt lat="45.8579992" lon="12.9668957"><ele>11.0</ele><time>2026-03-22T15:59:04.695Z</time></trkpt><trkpt lat="45.857914" lon="12.9666581"><ele>11.0</ele><time>2026-03-22T15:59:05.703Z</time></trkpt><trkpt lat="45.8578283" lon="12.966421"><ele>11.0</ele><time>2026-03-22T15:59:06.693Z</time></trkpt><trkpt lat="45.857747" lon="12.9661802"><ele>11.0</ele><time>2026-03-22T15:59:07.686Z</time></trkpt><trkpt lat="45.8576631" lon="12.965943"><ele>11.0</ele><time>2026-03-22T15:59:08.681Z</time></trkpt><trkpt lat="45.8575776" lon="12.9657079"><ele>11.0</ele><time>2026-03-22T15:59:09.707Z</time></trkpt><trkpt lat="45.8574895" lon="12.9654758"><ele>11.0</ele><time>2026-03-22T15:59:10.689Z</time></trkpt><trkpt lat="45.8574066" lon="12.9652395"><ele>11.333333333333332</ele><time>2026-03-22T15:59:11.692Z</time></trkpt><trkpt lat="45.8573223" lon="12.9650053"><ele>11.666666666666666</ele><time>2026-03-22T15:59:12.695Z</time></trkpt><trkpt lat="45.8572386" lon="12.9647721"><ele>12.0</ele><time>2026-03-22T15:59:13.703Z</time></trkpt><trkpt lat="45.8571545" lon="12.9645372"><ele>12.0</ele><time>2026-03-22T15:59:14.687Z</time></trkpt><trkpt lat="45.8570672" lon="12.9643021"><ele>12.0</ele><time>2026-03-22T15:59:15.696Z</time></trkpt><trkpt lat="45.8569807" lon="12.9640684"><ele>12.0</ele><time>2026-03-22T15:59:16.687Z</time></trkpt><trkpt lat="45.8568971" lon="12.9638405"><ele>12.0</ele><time>2026-03-22T15:59:17.683Z</time></trkpt><trkpt lat="45.8568151" lon="12.9636157"><ele>12.0</ele><time>2026-03-22T15:59:18.688Z</time></trkpt><trkpt lat="45.8567359" lon="12.9633924"><ele>12.0</ele><time>2026-03-22T15:59:19.693Z</time></trkpt><trkpt lat="45.8566568" lon="12.9631714"><ele>11.666666666666666</ele><time>2026-03-22T15:59:20.682Z</time></trkpt><trkpt lat="45.8565714" lon="12.962957"><ele>11.333333333333332</ele><time>2026-03-22T15:59:21.685Z</time></trkpt><trkpt lat="45.8564894" lon="12.9627408"><ele>11.0</ele><time>2026-03-22T15:59:22.686Z</time></trkpt><trkpt lat="45.8564086" lon="12.9625251"><ele>11.0</ele><time>2026-03-22T15:59:23.689Z</time></trkpt><trkpt lat="45.8563307" lon="12.9623083"><ele>11.0</ele><time>2026-03-22T15:59:24.696Z</time></trkpt><trkpt lat="45.856253" lon="12.9620914"><ele>11.0</ele><time>2026-03-22T15:59:25.695Z</time></trkpt><trkpt lat="45.8561779" lon="12.9618745"><ele>10.666666666666666</ele><time>2026-03-22T15:59:26.686Z</time></trkpt><trkpt lat="45.8561015" lon="12.9616633"><ele>10.333333333333334</ele><time>2026-03-22T15:59:27.699Z</time></trkpt><trkpt lat="45.8560254" lon="12.9614594"><ele>10.0</ele><time>2026-03-22T15:59:28.689Z</time></trkpt><trkpt lat="45.8559554" lon="12.9612683"><ele>10.0</ele><time>2026-03-22T15:59:29.694Z</time></trkpt><trkpt lat="45.8558944" lon="12.9610926"><ele>10.0</ele><time>2026-03-22T15:59:30.708Z</time></trkpt><trkpt lat="45.8558366" lon="12.9609327"><ele>10.0</ele><time>2026-03-22T15:59:31.698Z</time></trkpt><trkpt lat="45.8557871" lon="12.9607868"><ele>10.0</ele><time>2026-03-22T15:59:32.684Z</time></trkpt><trkpt lat="45.8557457" lon="12.9606585"><ele>10.166666666666668</ele><time>2026-03-22T15:59:33.686Z</time></trkpt><trkpt lat="45.855716" lon="12.9605438"><ele>10.333333333333334</ele><time>2026-03-22T15:59:34.689Z</time></trkpt><trkpt lat="45.8557059" lon="12.9604293"><ele>10.5</ele><time>2026-03-22T15:59:35.69Z</time></trkpt><trkpt lat="45.8557088" lon="12.960315"><ele>10.666666666666666</ele><time>2026-03-22T15:59:36.695Z</time></trkpt><trkpt lat="45.8557243" lon="12.9602173"><ele>10.833333333333332</ele><time>2026-03-22T15:59:37.68Z</time></trkpt><trkpt lat="45.8557354" lon="12.9601227"><ele>11.0</ele><time>2026-03-22T15:59:38.697Z</time></trkpt><trkpt lat="45.8557079" lon="12.9600329"><ele>11.0</ele><time>2026-03-22T15:59:39.691Z</time></trkpt><trkpt lat="45.8556627" lon="12.9599646"><ele>11.0</ele><time>2026-03-22T15:59:40.684Z</time></trkpt><trkpt lat="45.8556124" lon="12.9598946"><ele>11.0</ele><time>2026-03-22T15:59:41.693Z</time></trkpt><trkpt lat="45.855543" lon="12.9598417"><ele>11.0</ele><time>2026-03-22T15:59:42.691Z</time></trkpt><trkpt lat="45.8554708" lon="12.959787"><ele>11.0</ele><time>2026-03-22T15:59:43.683Z</time></trkpt><trkpt lat="45.8554079" lon="12.9597067"><ele>11.0</ele><time>2026-03-22T15:59:44.68Z</time></trkpt><trkpt lat="45.8553395" lon="12.9596239"><ele>11.0</ele><time>2026-03-22T15:59:45.675Z</time></trkpt><trkpt lat="45.8552977" lon="12.9594944"><ele>11.0</ele><time>2026-03-22T15:59:46.708Z</time></trkpt><trkpt lat="45.8552504" lon="12.9593609"><ele>11.0</ele><time>2026-03-22T15:59:47.696Z</time></trkpt><trkpt lat="45.8551993" lon="12.9592249"><ele>11.0</ele><time>2026-03-22T15:59:48.696Z</time></trkpt><trkpt lat="45.8551498" lon="12.9590838"><ele>11.0</ele><time>2026-03-22T15:59:49.704Z</time></trkpt><trkpt lat="45.8550933" lon="12.9589515"><ele>11.0</ele><time>2026-03-22T15:59:50.704Z</time></trkpt><trkpt lat="45.8550511" lon="12.9588099"><ele>11.0</ele><time>2026-03-22T15:59:51.691Z</time></trkpt><trkpt lat="45.855003" lon="12.9586752"><ele>11.0</ele><time>2026-03-22T15:59:52.684Z</time></trkpt><trkpt lat="45.8549549" lon="12.9585409"><ele>11.0</ele><time>2026-03-22T15:59:53.684Z</time></trkpt><trkpt lat="45.8549027" lon="12.9583917"><ele>11.0</ele><time>2026-03-22T15:59:54.688Z</time></trkpt><trkpt lat="45.8548355" lon="12.9582275"><ele>11.25</ele><time>2026-03-22T15:59:55.699Z</time></trkpt><trkpt lat="45.854772" lon="12.9580455"><ele>11.5</ele><time>2026-03-22T15:59:56.69Z</time></trkpt><trkpt lat="45.8547146" lon="12.9578534"><ele>11.75</ele><time>2026-03-22T15:59:57.699Z</time></trkpt><trkpt lat="45.854644" lon="12.957675"><ele>12.0</ele><time>2026-03-22T15:59:58.676Z</time></trkpt><trkpt lat="45.8545874" lon="12.9574834"><ele>12.5</ele><time>2026-03-22T15:59:59.678Z</time></trkpt><trkpt lat="45.8545261" lon="12.957293"><ele>13.0</ele><time>2026-03-22T16:00:00.684Z</time></trkpt><trkpt lat="45.8544634" lon="12.9571045"><ele>13.5</ele><time>2026-03-22T16:00:01.69Z</time></trkpt><trkpt lat="45.8543979" lon="12.9569167"><ele>14.0</ele><time>2026-03-22T16:00:02.696Z</time></trkpt><trkpt lat="45.8543288" lon="12.9567277"><ele>14.333333333333334</ele><time>2026-03-22T16:00:03.697Z</time></trkpt><trkpt lat="45.854257" lon="12.9565347"><ele>14.666666666666668</ele><time>2026-03-22T16:00:04.677Z</time></trkpt><trkpt lat="45.8541817" lon="12.9563357"><ele>15.0</ele><time>2026-03-22T16:00:05.685Z</time></trkpt><trkpt lat="45.8541056" lon="12.9561302"><ele>15.0</ele><time>2026-03-22T16:00:06.704Z</time></trkpt><trkpt lat="45.8540274" lon="12.9559212"><ele>15.0</ele><time>2026-03-22T16:00:07.693Z</time></trkpt><trkpt lat="45.8539502" lon="12.9557093"><ele>15.0</ele><time>2026-03-22T16:00:08.677Z</time></trkpt><trkpt lat="45.8538743" lon="12.9555002"><ele>14.666666666666668</ele><time>2026-03-22T16:00:09.688Z</time></trkpt><trkpt lat="45.8537995" lon="12.9552966"><ele>14.333333333333334</ele><time>2026-03-22T16:00:10.686Z</time></trkpt><trkpt lat="45.8537292" lon="12.9550925"><ele>14.0</ele><time>2026-03-22T16:00:11.685Z</time></trkpt><trkpt lat="45.8536543" lon="12.9548913"><ele>13.333333333333334</ele><time>2026-03-22T16:00:12.697Z</time></trkpt><trkpt lat="45.8535809" lon="12.954687"><ele>12.666666666666668</ele><time>2026-03-22T16:00:13.676Z</time></trkpt><trkpt lat="45.8535058" lon="12.9544808"><ele>12.0</ele><time>2026-03-22T16:00:14.683Z</time></trkpt><trkpt lat="45.8534286" lon="12.9542731"><ele>12.666666666666668</ele><time>2026-03-22T16:00:15.69Z</time></trkpt><trkpt lat="45.8533563" lon="12.95406"><ele>13.333333333333334</ele><time>2026-03-22T16:00:16.682Z</time></trkpt><trkpt lat="45.8532805" lon="12.9538463"><ele>14.0</ele><time>2026-03-22T16:00:17.685Z</time></trkpt><trkpt lat="45.8531977" lon="12.9536361"><ele>14.0</ele><time>2026-03-22T16:00:18.7Z</time></trkpt><trkpt lat="45.8531189" lon="12.9534232"><ele>14.0</ele><time>2026-03-22T16:00:19.704Z</time></trkpt><trkpt lat="45.8530399" lon="12.9532073"><ele>14.0</ele><time>2026-03-22T16:00:20.684Z</time></trkpt><trkpt lat="45.8529608" lon="12.9529873"><ele>14.0</ele><time>2026-03-22T16:00:21.681Z</time></trkpt><trkpt lat="45.8528746" lon="12.9527729"><ele>14.0</ele><time>2026-03-22T16:00:22.699Z</time></trkpt><trkpt lat="45.8527988" lon="12.9525479"><ele>14.0</ele><time>2026-03-22T16:00:23.704Z</time></trkpt><trkpt lat="45.8527183" lon="12.9523262"><ele>13.666666666666668</ele><time>2026-03-22T16:00:24.693Z</time></trkpt><trkpt lat="45.852637" lon="12.9521051"><ele>13.333333333333332</ele><time>2026-03-22T16:00:25.703Z</time></trkpt><trkpt lat="45.8525562" lon="12.9518825"><ele>13.0</ele><time>2026-03-22T16:00:26.7Z</time></trkpt><trkpt lat="45.8524739" lon="12.9516588"><ele>13.0</ele><time>2026-03-22T16:00:27.714Z</time></trkpt><trkpt lat="45.8523978" lon="12.9514306"><ele>13.0</ele><time>2026-03-22T16:00:28.702Z</time></trkpt><trkpt lat="45.8523139" lon="12.9512083"><ele>13.0</ele><time>2026-03-22T16:00:29.708Z</time></trkpt><trkpt lat="45.8522337" lon="12.950984"><ele>12.666666666666666</ele><time>2026-03-22T16:00:30.693Z</time></trkpt><trkpt lat="45.8521517" lon="12.9507594"><ele>12.333333333333332</ele><time>2026-03-22T16:00:31.698Z</time></trkpt><trkpt lat="45.8520698" lon="12.9505344"><ele>12.0</ele><time>2026-03-22T16:00:32.696Z</time></trkpt><trkpt lat="45.8519881" lon="12.9503081"><ele>12.0</ele><time>2026-03-22T16:00:33.709Z</time></trkpt><trkpt lat="45.8519031" lon="12.9500809"><ele>12.0</ele><time>2026-03-22T16:00:34.709Z</time></trkpt><trkpt lat="45.8518114" lon="12.9498588"><ele>12.0</ele><time>2026-03-22T16:00:35.7Z</time></trkpt><trkpt lat="45.8517271" lon="12.9496287"><ele>12.0</ele><time>2026-03-22T16:00:36.706Z</time></trkpt><trkpt lat="45.8516429" lon="12.9493953"><ele>12.0</ele><time>2026-03-22T16:00:37.718Z</time></trkpt><trkpt lat="45.8515597" lon="12.9491632"><ele>12.0</ele><time>2026-03-22T16:00:38.707Z</time></trkpt><trkpt lat="45.8514754" lon="12.9489325"><ele>12.0</ele><time>2026-03-22T16:00:39.719Z</time></trkpt><trkpt lat="45.8513882" lon="12.9487026"><ele>12.0</ele><time>2026-03-22T16:00:40.697Z</time></trkpt><trkpt lat="45.8513038" lon="12.948468"><ele>12.0</ele><time>2026-03-22T16:00:41.707Z</time></trkpt><trkpt lat="45.851219" lon="12.9482321"><ele>12.0</ele><time>2026-03-22T16:00:42.717Z</time></trkpt><trkpt lat="45.8511325" lon="12.9479962"><ele>12.0</ele><time>2026-03-22T16:00:43.736Z</time></trkpt><trkpt lat="45.8510572" lon="12.9477495"><ele>12.0</ele><time>2026-03-22T16:00:44.698Z</time></trkpt><trkpt lat="45.8509777" lon="12.9475071"><ele>12.333333333333332</ele><time>2026-03-22T16:00:45.703Z</time></trkpt><trkpt lat="45.8508915" lon="12.9472694"><ele>12.666666666666666</ele><time>2026-03-22T16:00:46.701Z</time></trkpt><trkpt lat="45.850809" lon="12.9470297"><ele>13.0</ele><time>2026-03-22T16:00:47.71Z</time></trkpt><trkpt lat="45.850725" lon="12.9467933"><ele>13.0</ele><time>2026-03-22T16:00:48.707Z</time></trkpt><trkpt lat="45.8506347" lon="12.9465635"><ele>13.0</ele><time>2026-03-22T16:00:49.704Z</time></trkpt><trkpt lat="45.8505516" lon="12.9463302"><ele>13.0</ele><time>2026-03-22T16:00:50.705Z</time></trkpt><trkpt lat="45.8504573" lon="12.9461079"><ele>13.0</ele><time>2026-03-22T16:00:51.7Z</time></trkpt><trkpt lat="45.8503674" lon="12.9458836"><ele>13.0</ele><time>2026-03-22T16:00:52.715Z</time></trkpt><trkpt lat="45.8502754" lon="12.9456582"><ele>13.0</ele><time>2026-03-22T16:00:53.716Z</time></trkpt><trkpt lat="45.8501871" lon="12.9454313"><ele>13.0</ele><time>2026-03-22T16:00:54.705Z</time></trkpt><trkpt lat="45.8501051" lon="12.9452023"><ele>13.0</ele><time>2026-03-22T16:00:55.707Z</time></trkpt><trkpt lat="45.8500275" lon="12.9449696"><ele>13.0</ele><time>2026-03-22T16:00:56.693Z</time></trkpt><trkpt lat="45.8499477" lon="12.9447406"><ele>13.0</ele><time>2026-03-22T16:00:57.697Z</time></trkpt><trkpt lat="45.8498777" lon="12.944508"><ele>13.0</ele><time>2026-03-22T16:00:58.699Z</time></trkpt><trkpt lat="45.8498" lon="12.9442852"><ele>13.0</ele><time>2026-03-22T16:00:59.687Z</time></trkpt><trkpt lat="45.849714" lon="12.9440679"><ele>13.0</ele><time>2026-03-22T16:01:00.714Z</time></trkpt><trkpt lat="45.8496214" lon="12.9438593"><ele>13.0</ele><time>2026-03-22T16:01:01.715Z</time></trkpt><trkpt lat="45.8495662" lon="12.9436305"><ele>13.0</ele><time>2026-03-22T16:01:02.687Z</time></trkpt><trkpt lat="45.849492" lon="12.9434183"><ele>12.666666666666666</ele><time>2026-03-22T16:01:03.703Z</time></trkpt><trkpt lat="45.8494161" lon="12.9432099"><ele>12.333333333333332</ele><time>2026-03-22T16:01:04.692Z</time></trkpt><trkpt lat="45.8493364" lon="12.9430092"><ele>12.0</ele><time>2026-03-22T16:01:05.699Z</time></trkpt><trkpt lat="45.8492673" lon="12.9428077"><ele>11.666666666666666</ele><time>2026-03-22T16:01:06.713Z</time></trkpt><trkpt lat="45.849185" lon="12.9426207"><ele>11.333333333333332</ele><time>2026-03-22T16:01:07.705Z</time></trkpt><trkpt lat="45.849112" lon="12.9424301"><ele>11.0</ele><time>2026-03-22T16:01:08.7Z</time></trkpt><trkpt lat="45.849039" lon="12.9422399"><ele>11.0</ele><time>2026-03-22T16:01:09.7Z</time></trkpt><trkpt lat="45.8489698" lon="12.9420452"><ele>11.0</ele><time>2026-03-22T16:01:10.698Z</time></trkpt><trkpt lat="45.8489007" lon="12.9418457"><ele>11.0</ele><time>2026-03-22T16:01:11.687Z</time></trkpt><trkpt lat="45.8488256" lon="12.9416446"><ele>11.0</ele><time>2026-03-22T16:01:12.692Z</time></trkpt><trkpt lat="45.8487522" lon="12.9414395"><ele>11.0</ele><time>2026-03-22T16:01:13.687Z</time></trkpt><trkpt lat="45.8486809" lon="12.9412328"><ele>11.0</ele><time>2026-03-22T16:01:14.704Z</time></trkpt><trkpt lat="45.8486056" lon="12.9410219"><ele>11.333333333333332</ele><time>2026-03-22T16:01:15.7Z</time></trkpt><trkpt lat="45.8485283" lon="12.9408042"><ele>11.666666666666666</ele><time>2026-03-22T16:01:16.704Z</time></trkpt><trkpt lat="45.8484489" lon="12.9405821"><ele>12.0</ele><time>2026-03-22T16:01:17.685Z</time></trkpt><trkpt lat="45.8483666" lon="12.9403531"><ele>12.666666666666668</ele><time>2026-03-22T16:01:18.681Z</time></trkpt><trkpt lat="45.8482836" lon="12.9401204"><ele>13.333333333333334</ele><time>2026-03-22T16:01:19.687Z</time></trkpt><trkpt lat="45.8482027" lon="12.939888"><ele>14.0</ele><time>2026-03-22T16:01:20.682Z</time></trkpt><trkpt lat="45.8481209" lon="12.9396574"><ele>14.0</ele><time>2026-03-22T16:01:21.673Z</time></trkpt><trkpt lat="45.8480384" lon="12.939428"><ele>14.0</ele><time>2026-03-22T16:01:22.688Z</time></trkpt><trkpt lat="45.8479569" lon="12.9391988"><ele>14.0</ele><time>2026-03-22T16:01:23.68Z</time></trkpt><trkpt lat="45.8478731" lon="12.9389703"><ele>13.333333333333334</ele><time>2026-03-22T16:01:24.699Z</time></trkpt><trkpt lat="45.8477988" lon="12.9387342"><ele>12.666666666666668</ele><time>2026-03-22T16:01:25.689Z</time></trkpt><trkpt lat="45.8477089" lon="12.9385112"><ele>12.0</ele><time>2026-03-22T16:01:26.683Z</time></trkpt><trkpt lat="45.8476238" lon="12.938284"><ele>12.0</ele><time>2026-03-22T16:01:27.693Z</time></trkpt><trkpt lat="45.8475421" lon="12.9380523"><ele>12.0</ele><time>2026-03-22T16:01:28.692Z</time></trkpt><trkpt lat="45.8474565" lon="12.9378181"><ele>12.0</ele><time>2026-03-22T16:01:29.693Z</time></trkpt><trkpt lat="45.8473685" lon="12.9375778"><ele>12.333333333333332</ele><time>2026-03-22T16:01:30.719Z</time></trkpt><trkpt lat="45.8472759" lon="12.9373329"><ele>12.666666666666666</ele><time>2026-03-22T16:01:31.686Z</time></trkpt><trkpt lat="45.8471845" lon="12.937083"><ele>13.0</ele><time>2026-03-22T16:01:32.694Z</time></trkpt><trkpt lat="45.847094" lon="12.9368306"><ele>12.666666666666666</ele><time>2026-03-22T16:01:33.716Z</time></trkpt><trkpt lat="45.8470035" lon="12.9365776"><ele>12.333333333333332</ele><time>2026-03-22T16:01:34.673Z</time></trkpt><trkpt lat="45.8469125" lon="12.9363245"><ele>12.0</ele><time>2026-03-22T16:01:35.689Z</time></trkpt><trkpt lat="45.8468216" lon="12.9360734"><ele>12.0</ele><time>2026-03-22T16:01:36.698Z</time></trkpt><trkpt lat="45.8467304" lon="12.9358254"><ele>12.0</ele><time>2026-03-22T16:01:37.68Z</time></trkpt><trkpt lat="45.8466408" lon="12.9355793"><ele>12.0</ele><time>2026-03-22T16:01:38.696Z</time></trkpt><trkpt lat="45.8465516" lon="12.9353379"><ele>12.0</ele><time>2026-03-22T16:01:39.687Z</time></trkpt><trkpt lat="45.8464642" lon="12.9351002"><ele>12.0</ele><time>2026-03-22T16:01:40.698Z</time></trkpt><trkpt lat="45.8463779" lon="12.9348652"><ele>12.0</ele><time>2026-03-22T16:01:41.687Z</time></trkpt><trkpt lat="45.8462923" lon="12.9346314"><ele>11.666666666666666</ele><time>2026-03-22T16:01:42.693Z</time></trkpt><trkpt lat="45.8462069" lon="12.9343982"><ele>11.333333333333332</ele><time>2026-03-22T16:01:43.687Z</time></trkpt><trkpt lat="45.8461206" lon="12.9341662"><ele>11.0</ele><time>2026-03-22T16:01:44.685Z</time></trkpt><trkpt lat="45.8460356" lon="12.9339364"><ele>11.0</ele><time>2026-03-22T16:01:45.685Z</time></trkpt><trkpt lat="45.8459512" lon="12.933707"><ele>11.0</ele><time>2026-03-22T16:01:46.703Z</time></trkpt><trkpt lat="45.8458784" lon="12.9334703"><ele>11.0</ele><time>2026-03-22T16:01:47.688Z</time></trkpt><trkpt lat="45.8457978" lon="12.9332394"><ele>11.0</ele><time>2026-03-22T16:01:48.71Z</time></trkpt><trkpt lat="45.8457142" lon="12.9330091"><ele>11.0</ele><time>2026-03-22T16:01:49.716Z</time></trkpt><trkpt lat="45.845623" lon="12.9327844"><ele>11.0</ele><time>2026-03-22T16:01:50.687Z</time></trkpt><trkpt lat="45.8455367" lon="12.9325537"><ele>11.0</ele><time>2026-03-22T16:01:51.7Z</time></trkpt><trkpt lat="45.845451" lon="12.932321"><ele>11.0</ele><time>2026-03-22T16:01:52.688Z</time></trkpt><trkpt lat="45.8453669" lon="12.9320863"><ele>11.0</ele><time>2026-03-22T16:01:53.684Z</time></trkpt><trkpt lat="45.8452802" lon="12.9318502"><ele>11.0</ele><time>2026-03-22T16:01:54.697Z</time></trkpt><trkpt lat="45.8451946" lon="12.9316119"><ele>11.0</ele><time>2026-03-22T16:01:55.69Z</time></trkpt><trkpt lat="45.8451036" lon="12.9313711"><ele>11.0</ele><time>2026-03-22T16:01:56.702Z</time></trkpt><trkpt lat="45.8450153" lon="12.9311284"><ele>11.0</ele><time>2026-03-22T16:01:57.716Z</time></trkpt><trkpt lat="45.8449269" lon="12.9308856"><ele>11.0</ele><time>2026-03-22T16:01:58.694Z</time></trkpt><trkpt lat="45.8448386" lon="12.9306427"><ele>11.0</ele><time>2026-03-22T16:01:59.704Z</time></trkpt><trkpt lat="45.8447513" lon="12.9304025"><ele>11.0</ele><time>2026-03-22T16:02:00.716Z</time></trkpt><trkpt lat="45.8446664" lon="12.9301663"><ele>11.0</ele><time>2026-03-22T16:02:01.686Z</time></trkpt><trkpt lat="45.8445817" lon="12.9299314"><ele>11.0</ele><time>2026-03-22T16:02:02.705Z</time></trkpt><trkpt lat="45.8444993" lon="12.9296968"><ele>10.666666666666666</ele><time>2026-03-22T16:02:03.71Z</time></trkpt><trkpt lat="45.8444171" lon="12.9294616"><ele>10.333333333333334</ele><time>2026-03-22T16:02:04.688Z</time></trkpt><trkpt lat="45.8443304" lon="12.9292268"><ele>10.0</ele><time>2026-03-22T16:02:05.694Z</time></trkpt><trkpt lat="45.8442437" lon="12.9289897"><ele>10.0</ele><time>2026-03-22T16:02:06.688Z</time></trkpt><trkpt lat="45.8441535" lon="12.9287509"><ele>10.0</ele><time>2026-03-22T16:02:07.702Z</time></trkpt><trkpt lat="45.8440671" lon="12.9285112"><ele>10.0</ele><time>2026-03-22T16:02:08.697Z</time></trkpt><trkpt lat="45.8439812" lon="12.9282736"><ele>9.333333333333334</ele><time>2026-03-22T16:02:09.701Z</time></trkpt><trkpt lat="45.8438961" lon="12.9280398"><ele>8.666666666666666</ele><time>2026-03-22T16:02:10.69Z</time></trkpt><trkpt lat="45.8438129" lon="12.92781"><ele>8.0</ele><time>2026-03-22T16:02:11.68Z</time></trkpt><trkpt lat="45.8437316" lon="12.927585"><ele>8.0</ele><time>2026-03-22T16:02:12.686Z</time></trkpt><trkpt lat="45.8436509" lon="12.9273623"><ele>8.0</ele><time>2026-03-22T16:02:13.689Z</time></trkpt><trkpt lat="45.8435711" lon="12.9271399"><ele>8.0</ele><time>2026-03-22T16:02:14.689Z</time></trkpt><trkpt lat="45.8434887" lon="12.9269193"><ele>9.0</ele><time>2026-03-22T16:02:15.693Z</time></trkpt><trkpt lat="45.8434093" lon="12.9267015"><ele>10.0</ele><time>2026-03-22T16:02:16.697Z</time></trkpt><trkpt lat="45.8433298" lon="12.9264856"><ele>11.0</ele><time>2026-03-22T16:02:17.698Z</time></trkpt><trkpt lat="45.8432514" lon="12.9262672"><ele>11.0</ele><time>2026-03-22T16:02:18.693Z</time></trkpt><trkpt lat="45.8431706" lon="12.9260491"><ele>11.0</ele><time>2026-03-22T16:02:19.688Z</time></trkpt><trkpt lat="45.8430912" lon="12.9258281"><ele>11.0</ele><time>2026-03-22T16:02:20.715Z</time></trkpt><trkpt lat="45.8430111" lon="12.9256018"><ele>10.666666666666666</ele><time>2026-03-22T16:02:21.701Z</time></trkpt><trkpt lat="45.84293" lon="12.9253713"><ele>10.333333333333334</ele><time>2026-03-22T16:02:22.685Z</time></trkpt><trkpt lat="45.8428451" lon="12.925139"><ele>10.0</ele><time>2026-03-22T16:02:23.714Z</time></trkpt><trkpt lat="45.8427591" lon="12.9249008"><ele>10.333333333333334</ele><time>2026-03-22T16:02:24.682Z</time></trkpt><trkpt lat="45.84268" lon="12.9246513"><ele>10.666666666666666</ele><time>2026-03-22T16:02:25.689Z</time></trkpt><trkpt lat="45.8425858" lon="12.9244085"><ele>11.0</ele><time>2026-03-22T16:02:26.676Z</time></trkpt><trkpt lat="45.8424859" lon="12.9241731"><ele>11.0</ele><time>2026-03-22T16:02:27.693Z</time></trkpt><trkpt lat="45.8423912" lon="12.9239279"><ele>11.0</ele><time>2026-03-22T16:02:28.69Z</time></trkpt><trkpt lat="45.8422908" lon="12.9236724"><ele>11.0</ele><time>2026-03-22T16:02:29.699Z</time></trkpt><trkpt lat="45.8422009" lon="12.9233941"><ele>11.0</ele><time>2026-03-22T16:02:30.69Z</time></trkpt><trkpt lat="45.8420968" lon="12.9231059"><ele>11.0</ele><time>2026-03-22T16:02:31.697Z</time></trkpt><trkpt lat="45.841982" lon="12.9228069"><ele>10.0</ele><time>2026-03-22T16:02:32.691Z</time></trkpt><trkpt lat="45.8418667" lon="12.9224989"><ele>9.0</ele><time>2026-03-22T16:02:33.702Z</time></trkpt><trkpt lat="45.8417509" lon="12.922185"><ele>9.0</ele><time>2026-03-22T16:02:34.688Z</time></trkpt><trkpt lat="45.8416375" lon="12.9218663"><ele>9.0</ele><time>2026-03-22T16:02:35.692Z</time></trkpt><trkpt lat="45.8415273" lon="12.9215494"><ele>9.0</ele><time>2026-03-22T16:02:36.708Z</time></trkpt><trkpt lat="45.841421" lon="12.9212452"><ele>9.0</ele><time>2026-03-22T16:02:37.685Z</time></trkpt><trkpt lat="45.8413175" lon="12.9209534"><ele>8.666666666666666</ele><time>2026-03-22T16:02:38.696Z</time></trkpt><trkpt lat="45.8412145" lon="12.9206686"><ele>8.333333333333332</ele><time>2026-03-22T16:02:39.695Z</time></trkpt><trkpt lat="45.8411214" lon="12.9203821"><ele>8.0</ele><time>2026-03-22T16:02:40.685Z</time></trkpt><trkpt lat="45.8410247" lon="12.9201066"><ele>9.0</ele><time>2026-03-22T16:02:41.687Z</time></trkpt><trkpt lat="45.8409285" lon="12.9198357"><ele>10.0</ele><time>2026-03-22T16:02:42.694Z</time></trkpt><trkpt lat="45.8408325" lon="12.919566"><ele>11.0</ele><time>2026-03-22T16:02:43.683Z</time></trkpt><trkpt lat="45.8407316" lon="12.9193043"><ele>10.0</ele><time>2026-03-22T16:02:44.681Z</time></trkpt><trkpt lat="45.8406308" lon="12.9190429"><ele>9.0</ele><time>2026-03-22T16:02:45.683Z</time></trkpt><trkpt lat="45.840532" lon="12.9187809"><ele>8.0</ele><time>2026-03-22T16:02:46.683Z</time></trkpt><trkpt lat="45.8404353" lon="12.9185208"><ele>7.333333333333333</ele><time>2026-03-22T16:02:47.701Z</time></trkpt><trkpt lat="45.8403408" lon="12.9182621"><ele>6.666666666666666</ele><time>2026-03-22T16:02:48.693Z</time></trkpt><trkpt lat="45.8402455" lon="12.9180057"><ele>6.0</ele><time>2026-03-22T16:02:49.702Z</time></trkpt><trkpt lat="45.8401472" lon="12.9177528"><ele>6.333333333333334</ele><time>2026-03-22T16:02:50.704Z</time></trkpt><trkpt lat="45.8400537" lon="12.9174999"><ele>6.666666666666667</ele><time>2026-03-22T16:02:51.699Z</time></trkpt><trkpt lat="45.8399616" lon="12.9172496"><ele>7.0</ele><time>2026-03-22T16:02:52.688Z</time></trkpt><trkpt lat="45.8398709" lon="12.9170011"><ele>7.0</ele><time>2026-03-22T16:02:53.699Z</time></trkpt><trkpt lat="45.8397804" lon="12.916753"><ele>7.0</ele><time>2026-03-22T16:02:54.69Z</time></trkpt><trkpt lat="45.8396885" lon="12.9165002"><ele>7.0</ele><time>2026-03-22T16:02:55.695Z</time></trkpt><trkpt lat="45.8395939" lon="12.9162426"><ele>7.0</ele><time>2026-03-22T16:02:56.691Z</time></trkpt><trkpt lat="45.8394978" lon="12.9159809"><ele>7.0</ele><time>2026-03-22T16:02:57.682Z</time></trkpt><trkpt lat="45.8393992" lon="12.9157117"><ele>7.0</ele><time>2026-03-22T16:02:58.679Z</time></trkpt><trkpt lat="45.8392952" lon="12.9154349"><ele>7.5</ele><time>2026-03-22T16:02:59.694Z</time></trkpt><trkpt lat="45.8391851" lon="12.9151499"><ele>8.0</ele><time>2026-03-22T16:03:00.696Z</time></trkpt><trkpt lat="45.8390691" lon="12.914851"><ele>8.5</ele><time>2026-03-22T16:03:01.685Z</time></trkpt><trkpt lat="45.8389477" lon="12.9145312"><ele>9.0</ele><time>2026-03-22T16:03:02.703Z</time></trkpt><trkpt lat="45.8388213" lon="12.9141885"><ele>9.0</ele><time>2026-03-22T16:03:03.702Z</time></trkpt><trkpt lat="45.8386874" lon="12.9138206"><ele>9.0</ele><time>2026-03-22T16:03:04.682Z</time></trkpt><trkpt lat="45.8385443" lon="12.9134103"><ele>9.0</ele><time>2026-03-22T16:03:05.702Z</time></trkpt><trkpt lat="45.8383768" lon="12.9129693"><ele>9.0</ele><time>2026-03-22T16:03:06.701Z</time></trkpt><trkpt lat="45.8382057" lon="12.9124937"><ele>9.0</ele><time>2026-03-22T16:03:07.731Z</time></trkpt><trkpt lat="45.8380313" lon="12.9119886"><ele>9.0</ele><time>2026-03-22T16:03:08.673Z</time></trkpt><trkpt lat="45.8378545" lon="12.911475"><ele>9.0</ele><time>2026-03-22T16:03:09.68Z</time></trkpt><trkpt lat="45.8376781" lon="12.9109832"><ele>9.0</ele><time>2026-03-22T16:03:10.685Z</time></trkpt><trkpt lat="45.8375165" lon="12.9105191"><ele>9.5</ele><time>2026-03-22T16:03:11.696Z</time></trkpt><trkpt lat="45.8373645" lon="12.9100992"><ele>10.0</ele><time>2026-03-22T16:03:12.68Z</time></trkpt><trkpt lat="45.8372109" lon="12.909686"><ele>10.0</ele><time>2026-03-22T16:03:13.697Z</time></trkpt><trkpt lat="45.837068" lon="12.909299"><ele>10.0</ele><time>2026-03-22T16:03:14.711Z</time></trkpt><trkpt lat="45.8369365" lon="12.908944"><ele>10.0</ele><time>2026-03-22T16:03:15.707Z</time></trkpt><trkpt lat="45.8368126" lon="12.9086074"><ele>10.0</ele><time>2026-03-22T16:03:16.687Z</time></trkpt><trkpt lat="45.8366942" lon="12.908284"><ele>10.0</ele><time>2026-03-22T16:03:17.682Z</time></trkpt><trkpt lat="45.8365766" lon="12.9079607"><ele>10.0</ele><time>2026-03-22T16:03:18.688Z</time></trkpt><trkpt lat="45.8364576" lon="12.9076376"><ele>10.0</ele><time>2026-03-22T16:03:19.699Z</time></trkpt><trkpt lat="45.8363414" lon="12.9073222"><ele>10.0</ele><time>2026-03-22T16:03:20.724Z</time></trkpt><trkpt lat="45.8362299" lon="12.907019"><ele>10.5</ele><time>2026-03-22T16:03:21.684Z</time></trkpt><trkpt lat="45.8361167" lon="12.906709"><ele>11.0</ele><time>2026-03-22T16:03:22.69Z</time></trkpt><trkpt lat="45.836008" lon="12.9064078"><ele>11.0</ele><time>2026-03-22T16:03:23.694Z</time></trkpt><trkpt lat="45.8358992" lon="12.9061084"><ele>11.0</ele><time>2026-03-22T16:03:24.697Z</time></trkpt><trkpt lat="45.8357919" lon="12.9058125"><ele>10.5</ele><time>2026-03-22T16:03:25.698Z</time></trkpt><trkpt lat="45.8356852" lon="12.9055182"><ele>10.0</ele><time>2026-03-22T16:03:26.698Z</time></trkpt><trkpt lat="45.8355808" lon="12.9052287"><ele>10.0</ele><time>2026-03-22T16:03:27.689Z</time></trkpt><trkpt lat="45.8354766" lon="12.9049375"><ele>10.0</ele><time>2026-03-22T16:03:28.713Z</time></trkpt><trkpt lat="45.835376" lon="12.904661"><ele>10.0</ele><time>2026-03-22T16:03:29.7Z</time></trkpt><trkpt lat="45.835275" lon="12.9043876"><ele>10.333333333333334</ele><time>2026-03-22T16:03:30.689Z</time></trkpt><trkpt lat="45.835176" lon="12.904109"><ele>10.666666666666666</ele><time>2026-03-22T16:03:31.682Z</time></trkpt><trkpt lat="45.8350827" lon="12.9038227"><ele>11.0</ele><time>2026-03-22T16:03:32.7Z</time></trkpt><trkpt lat="45.835" lon="12.9035371"><ele>10.666666666666666</ele><time>2026-03-22T16:03:33.69Z</time></trkpt><trkpt lat="45.8349237" lon="12.903279"><ele>10.333333333333334</ele><time>2026-03-22T16:03:34.69Z</time></trkpt><trkpt lat="45.8348269" lon="12.9029945"><ele>10.0</ele><time>2026-03-22T16:03:35.696Z</time></trkpt><trkpt lat="45.8347253" lon="12.9027335"><ele>10.333333333333334</ele><time>2026-03-22T16:03:36.693Z</time></trkpt><trkpt lat="45.8346206" lon="12.9024834"><ele>10.666666666666666</ele><time>2026-03-22T16:03:37.693Z</time></trkpt><trkpt lat="45.8345185" lon="12.9022218"><ele>11.0</ele><time>2026-03-22T16:03:38.692Z</time></trkpt><trkpt lat="45.8344163" lon="12.9019551"><ele>11.0</ele><time>2026-03-22T16:03:39.713Z</time></trkpt><trkpt lat="45.8343089" lon="12.9016805"><ele>11.0</ele><time>2026-03-22T16:03:40.683Z</time></trkpt><trkpt lat="45.8341968" lon="12.9013918"><ele>11.0</ele><time>2026-03-22T16:03:41.704Z</time></trkpt><trkpt lat="45.8340899" lon="12.9011077"><ele>11.0</ele><time>2026-03-22T16:03:42.696Z</time></trkpt><trkpt lat="45.8339815" lon="12.9008187"><ele>11.0</ele><time>2026-03-22T16:03:43.717Z</time></trkpt><trkpt lat="45.8338749" lon="12.9005375"><ele>11.0</ele><time>2026-03-22T16:03:44.699Z</time></trkpt><trkpt lat="45.8337698" lon="12.9002546"><ele>11.0</ele><time>2026-03-22T16:03:45.683Z</time></trkpt><trkpt lat="45.8336659" lon="12.89997"><ele>11.0</ele><time>2026-03-22T16:03:46.687Z</time></trkpt><trkpt lat="45.8335612" lon="12.899684"><ele>11.0</ele><time>2026-03-22T16:03:47.703Z</time></trkpt><trkpt lat="45.8334574" lon="12.899404"><ele>11.0</ele><time>2026-03-22T16:03:48.676Z</time></trkpt><trkpt lat="45.8333528" lon="12.8991229"><ele>11.0</ele><time>2026-03-22T16:03:49.687Z</time></trkpt><trkpt lat="45.833251" lon="12.8988487"><ele>11.0</ele><time>2026-03-22T16:03:50.695Z</time></trkpt><trkpt lat="45.8331548" lon="12.8985741"><ele>11.0</ele><time>2026-03-22T16:03:51.687Z</time></trkpt><trkpt lat="45.8330533" lon="12.8982962"><ele>11.0</ele><time>2026-03-22T16:03:52.692Z</time></trkpt><trkpt lat="45.8329443" lon="12.8980035"><ele>11.0</ele><time>2026-03-22T16:03:53.699Z</time></trkpt><trkpt lat="45.8328284" lon="12.8976865"><ele>11.0</ele><time>2026-03-22T16:03:54.713Z</time></trkpt><trkpt lat="45.8327119" lon="12.8973593"><ele>11.0</ele><time>2026-03-22T16:03:55.71Z</time></trkpt><trkpt lat="45.8325933" lon="12.89702"><ele>11.0</ele><time>2026-03-22T16:03:56.708Z</time></trkpt><trkpt lat="45.8324697" lon="12.8966761"><ele>11.0</ele><time>2026-03-22T16:03:57.707Z</time></trkpt><trkpt lat="45.8323386" lon="12.8963219"><ele>11.0</ele><time>2026-03-22T16:03:58.705Z</time></trkpt><trkpt lat="45.832202" lon="12.8959534"><ele>11.0</ele><time>2026-03-22T16:03:59.697Z</time></trkpt><trkpt lat="45.8320627" lon="12.8955676"><ele>11.0</ele><time>2026-03-22T16:04:00.694Z</time></trkpt><trkpt lat="45.8319283" lon="12.8951833"><ele>11.0</ele><time>2026-03-22T16:04:01.706Z</time></trkpt><trkpt lat="45.8318016" lon="12.894809"><ele>11.0</ele><time>2026-03-22T16:04:02.694Z</time></trkpt><trkpt lat="45.8316767" lon="12.8944404"><ele>11.0</ele><time>2026-03-22T16:04:03.697Z</time></trkpt><trkpt lat="45.831549" lon="12.8940773"><ele>11.0</ele><time>2026-03-22T16:04:04.707Z</time></trkpt><trkpt lat="45.8314247" lon="12.8937207"><ele>11.0</ele><time>2026-03-22T16:04:05.708Z</time></trkpt><trkpt lat="45.8313039" lon="12.8933751"><ele>11.0</ele><time>2026-03-22T16:04:06.694Z</time></trkpt><trkpt lat="45.831181" lon="12.8930297"><ele>11.0</ele><time>2026-03-22T16:04:07.698Z</time></trkpt><trkpt lat="45.8310587" lon="12.8926912"><ele>10.5</ele><time>2026-03-22T16:04:08.69Z</time></trkpt><trkpt lat="45.8309361" lon="12.8923583"><ele>10.0</ele><time>2026-03-22T16:04:09.699Z</time></trkpt><trkpt lat="45.8308142" lon="12.8920278"><ele>10.5</ele><time>2026-03-22T16:04:10.702Z</time></trkpt><trkpt lat="45.830696" lon="12.8917049"><ele>11.0</ele><time>2026-03-22T16:04:11.698Z</time></trkpt><trkpt lat="45.8305778" lon="12.8913815"><ele>11.0</ele><time>2026-03-22T16:04:12.697Z</time></trkpt><trkpt lat="45.8304585" lon="12.8910582"><ele>11.0</ele><time>2026-03-22T16:04:13.705Z</time></trkpt><trkpt lat="45.8303428" lon="12.8907392"><ele>11.0</ele><time>2026-03-22T16:04:14.697Z</time></trkpt><trkpt lat="45.8302271" lon="12.8904188"><ele>11.0</ele><time>2026-03-22T16:04:15.685Z</time></trkpt><trkpt lat="45.8301112" lon="12.8901006"><ele>10.5</ele><time>2026-03-22T16:04:16.687Z</time></trkpt><trkpt lat="45.8299987" lon="12.8897834"><ele>10.0</ele><time>2026-03-22T16:04:17.692Z</time></trkpt><trkpt lat="45.8298835" lon="12.8894619"><ele>9.5</ele><time>2026-03-22T16:04:18.709Z</time></trkpt><trkpt lat="45.8297724" lon="12.8891501"><ele>9.0</ele><time>2026-03-22T16:04:19.704Z</time></trkpt><trkpt lat="45.8296612" lon="12.8888356"><ele>9.0</ele><time>2026-03-22T16:04:20.706Z</time></trkpt><trkpt lat="45.8295518" lon="12.8885267"><ele>9.0</ele><time>2026-03-22T16:04:21.699Z</time></trkpt><trkpt lat="45.8294405" lon="12.8882171"><ele>9.0</ele><time>2026-03-22T16:04:22.699Z</time></trkpt><trkpt lat="45.8293277" lon="12.8879125"><ele>9.0</ele><time>2026-03-22T16:04:23.687Z</time></trkpt><trkpt lat="45.8292142" lon="12.8876057"><ele>9.5</ele><time>2026-03-22T16:04:24.703Z</time></trkpt><trkpt lat="45.829102" lon="12.8873037"><ele>10.0</ele><time>2026-03-22T16:04:25.703Z</time></trkpt><trkpt lat="45.8289929" lon="12.8870046"><ele>9.5</ele><time>2026-03-22T16:04:26.693Z</time></trkpt><trkpt lat="45.8288853" lon="12.8867074"><ele>9.0</ele><time>2026-03-22T16:04:27.712Z</time></trkpt><trkpt lat="45.8287768" lon="12.8864147"><ele>9.0</ele><time>2026-03-22T16:04:28.702Z</time></trkpt><trkpt lat="45.828668" lon="12.8861223"><ele>9.0</ele><time>2026-03-22T16:04:29.695Z</time></trkpt><trkpt lat="45.8285603" lon="12.8858303"><ele>10.0</ele><time>2026-03-22T16:04:30.684Z</time></trkpt><trkpt lat="45.8284521" lon="12.8855378"><ele>11.0</ele><time>2026-03-22T16:04:31.705Z</time></trkpt><trkpt lat="45.8283447" lon="12.8852459"><ele>11.0</ele><time>2026-03-22T16:04:32.706Z</time></trkpt><trkpt lat="45.8282395" lon="12.8849573"><ele>11.0</ele><time>2026-03-22T16:04:33.691Z</time></trkpt><trkpt lat="45.8281331" lon="12.8846629"><ele>11.0</ele><time>2026-03-22T16:04:34.703Z</time></trkpt><trkpt lat="45.8280267" lon="12.8843715"><ele>11.0</ele><time>2026-03-22T16:04:35.703Z</time></trkpt><trkpt lat="45.8279218" lon="12.8840829"><ele>10.666666666666666</ele><time>2026-03-22T16:04:36.693Z</time></trkpt><trkpt lat="45.8278172" lon="12.8837951"><ele>10.333333333333334</ele><time>2026-03-22T16:04:37.714Z</time></trkpt><trkpt lat="45.8277203" lon="12.8835257"><ele>10.0</ele><time>2026-03-22T16:04:38.702Z</time></trkpt><trkpt lat="45.8276259" lon="12.883269"><ele>9.666666666666668</ele><time>2026-03-22T16:04:39.715Z</time></trkpt><trkpt lat="45.8275351" lon="12.8830291"><ele>9.333333333333334</ele><time>2026-03-22T16:04:40.718Z</time></trkpt><trkpt lat="45.827447" lon="12.8828023"><ele>9.0</ele><time>2026-03-22T16:04:41.712Z</time></trkpt><trkpt lat="45.8273608" lon="12.8825808"><ele>9.0</ele><time>2026-03-22T16:04:42.693Z</time></trkpt><trkpt lat="45.8272744" lon="12.8823627"><ele>9.0</ele><time>2026-03-22T16:04:43.705Z</time></trkpt><trkpt lat="45.8271906" lon="12.8821514"><ele>9.0</ele><time>2026-03-22T16:04:44.691Z</time></trkpt><trkpt lat="45.8271047" lon="12.8819364"><ele>9.666666666666666</ele><time>2026-03-22T16:04:45.691Z</time></trkpt><trkpt lat="45.8270156" lon="12.8817193"><ele>10.333333333333332</ele><time>2026-03-22T16:04:46.688Z</time></trkpt><trkpt lat="45.8269298" lon="12.8814905"><ele>11.0</ele><time>2026-03-22T16:04:47.688Z</time></trkpt><trkpt lat="45.8268464" lon="12.881252"><ele>11.0</ele><time>2026-03-22T16:04:48.691Z</time></trkpt><trkpt lat="45.8267636" lon="12.8810077"><ele>11.0</ele><time>2026-03-22T16:04:49.691Z</time></trkpt><trkpt lat="45.8266795" lon="12.8807586"><ele>11.0</ele><time>2026-03-22T16:04:50.695Z</time></trkpt><trkpt lat="45.8265936" lon="12.8805131"><ele>11.0</ele><time>2026-03-22T16:04:51.684Z</time></trkpt><trkpt lat="45.8265085" lon="12.8802705"><ele>11.0</ele><time>2026-03-22T16:04:52.701Z</time></trkpt><trkpt lat="45.8264255" lon="12.8800418"><ele>11.0</ele><time>2026-03-22T16:04:53.706Z</time></trkpt><trkpt lat="45.826352" lon="12.8798366"><ele>10.75</ele><time>2026-03-22T16:04:54.685Z</time></trkpt><trkpt lat="45.8262913" lon="12.8796548"><ele>10.5</ele><time>2026-03-22T16:04:55.701Z</time></trkpt><trkpt lat="45.8262427" lon="12.8794915"><ele>10.25</ele><time>2026-03-22T16:04:56.7Z</time></trkpt><trkpt lat="45.8262149" lon="12.8793304"><ele>10.0</ele><time>2026-03-22T16:04:57.68Z</time></trkpt><trkpt lat="45.8262119" lon="12.8791847"><ele>10.0</ele><time>2026-03-22T16:04:58.679Z</time></trkpt><trkpt lat="45.8262108" lon="12.8790511"><ele>10.0</ele><time>2026-03-22T16:04:59.689Z</time></trkpt><trkpt lat="45.8261899" lon="12.878929"><ele>10.0</ele><time>2026-03-22T16:05:00.683Z</time></trkpt><trkpt lat="45.8261174" lon="12.87884"><ele>10.0</ele><time>2026-03-22T16:05:01.694Z</time></trkpt><trkpt lat="45.8260099" lon="12.8787672"><ele>10.0</ele><time>2026-03-22T16:05:02.678Z</time></trkpt><trkpt lat="45.8259083" lon="12.8786442"><ele>10.0</ele><time>2026-03-22T16:05:03.699Z</time></trkpt><trkpt lat="45.8258294" lon="12.8784413"><ele>10.0</ele><time>2026-03-22T16:05:04.684Z</time></trkpt><trkpt lat="45.8257603" lon="12.8782091"><ele>10.0</ele><time>2026-03-22T16:05:05.69Z</time></trkpt><trkpt lat="45.8256877" lon="12.8779681"><ele>9.666666666666668</ele><time>2026-03-22T16:05:06.68Z</time></trkpt><trkpt lat="45.825607" lon="12.8777314"><ele>9.333333333333334</ele><time>2026-03-22T16:05:07.689Z</time></trkpt><trkpt lat="45.8255247" lon="12.8774966"><ele>9.0</ele><time>2026-03-22T16:05:08.674Z</time></trkpt><trkpt lat="45.8254448" lon="12.8772597"><ele>9.0</ele><time>2026-03-22T16:05:09.7Z</time></trkpt><trkpt lat="45.8253597" lon="12.8770241"><ele>9.0</ele><time>2026-03-22T16:05:10.682Z</time></trkpt><trkpt lat="45.825274" lon="12.8767839"><ele>9.0</ele><time>2026-03-22T16:05:11.679Z</time></trkpt><trkpt lat="45.8251829" lon="12.8765386"><ele>9.0</ele><time>2026-03-22T16:05:12.694Z</time></trkpt><trkpt lat="45.825095" lon="12.8762852"><ele>9.0</ele><time>2026-03-22T16:05:13.684Z</time></trkpt><trkpt lat="45.8250006" lon="12.8760273"><ele>9.0</ele><time>2026-03-22T16:05:14.701Z</time></trkpt><trkpt lat="45.8249044" lon="12.8757602"><ele>8.666666666666666</ele><time>2026-03-22T16:05:15.721Z</time></trkpt><trkpt lat="45.8248041" lon="12.8754862"><ele>8.333333333333332</ele><time>2026-03-22T16:05:16.691Z</time></trkpt><trkpt lat="45.8247035" lon="12.875205"><ele>8.0</ele><time>2026-03-22T16:05:17.689Z</time></trkpt><trkpt lat="45.8246102" lon="12.8749139"><ele>8.0</ele><time>2026-03-22T16:05:18.705Z</time></trkpt><trkpt lat="45.8245081" lon="12.8746279"><ele>8.0</ele><time>2026-03-22T16:05:19.682Z</time></trkpt><trkpt lat="45.8243927" lon="12.8743529"><ele>8.0</ele><time>2026-03-22T16:05:20.688Z</time></trkpt><trkpt lat="45.8242871" lon="12.8740753"><ele>8.0</ele><time>2026-03-22T16:05:21.684Z</time></trkpt><trkpt lat="45.8241699" lon="12.873812"><ele>8.0</ele><time>2026-03-22T16:05:22.691Z</time></trkpt><trkpt lat="45.8240561" lon="12.8735498"><ele>8.0</ele><time>2026-03-22T16:05:23.679Z</time></trkpt><trkpt lat="45.8239431" lon="12.8732883"><ele>8.333333333333332</ele><time>2026-03-22T16:05:24.692Z</time></trkpt><trkpt lat="45.8238289" lon="12.8730288"><ele>8.666666666666666</ele><time>2026-03-22T16:05:25.681Z</time></trkpt><trkpt lat="45.8237119" lon="12.8727699"><ele>9.0</ele><time>2026-03-22T16:05:26.691Z</time></trkpt><trkpt lat="45.8235888" lon="12.872514"><ele>9.0</ele><time>2026-03-22T16:05:27.7Z</time></trkpt><trkpt lat="45.8234645" lon="12.8722576"><ele>9.0</ele><time>2026-03-22T16:05:28.699Z</time></trkpt><trkpt lat="45.8233369" lon="12.8720028"><ele>9.0</ele><time>2026-03-22T16:05:29.7Z</time></trkpt><trkpt lat="45.8232075" lon="12.8717495"><ele>9.0</ele><time>2026-03-22T16:05:30.696Z</time></trkpt><trkpt lat="45.8230766" lon="12.8714971"><ele>9.0</ele><time>2026-03-22T16:05:31.683Z</time></trkpt><trkpt lat="45.8229415" lon="12.87125"><ele>9.0</ele><time>2026-03-22T16:05:32.681Z</time></trkpt><trkpt lat="45.8228051" lon="12.8710056"><ele>9.0</ele><time>2026-03-22T16:05:33.711Z</time></trkpt><trkpt lat="45.8226802" lon="12.8707498"><ele>9.0</ele><time>2026-03-22T16:05:34.676Z</time></trkpt><trkpt lat="45.8225554" lon="12.8704982"><ele>9.0</ele><time>2026-03-22T16:05:35.682Z</time></trkpt><trkpt lat="45.8224178" lon="12.8702623"><ele>8.333333333333334</ele><time>2026-03-22T16:05:36.692Z</time></trkpt><trkpt lat="45.8222768" lon="12.8700291"><ele>7.666666666666667</ele><time>2026-03-22T16:05:37.716Z</time></trkpt><trkpt lat="45.8221331" lon="12.8697994"><ele>7.0</ele><time>2026-03-22T16:05:38.69Z</time></trkpt><trkpt lat="45.8219813" lon="12.8695815"><ele>7.0</ele><time>2026-03-22T16:05:39.688Z</time></trkpt><trkpt lat="45.8218348" lon="12.8693592"><ele>7.0</ele><time>2026-03-22T16:05:40.686Z</time></trkpt><trkpt lat="45.8216886" lon="12.8691395"><ele>7.0</ele><time>2026-03-22T16:05:41.677Z</time></trkpt><trkpt lat="45.821541" lon="12.868925"><ele>7.0</ele><time>2026-03-22T16:05:42.692Z</time></trkpt><trkpt lat="45.8213855" lon="12.8687259"><ele>7.0</ele><time>2026-03-22T16:05:43.686Z</time></trkpt><trkpt lat="45.821238" lon="12.8685276"><ele>7.0</ele><time>2026-03-22T16:05:44.686Z</time></trkpt><trkpt lat="45.8210963" lon="12.8683399"><ele>7.333333333333334</ele><time>2026-03-22T16:05:45.666Z</time></trkpt><trkpt lat="45.8209616" lon="12.8681607"><ele>7.666666666666666</ele><time>2026-03-22T16:05:46.676Z</time></trkpt><trkpt lat="45.8208337" lon="12.8679908"><ele>8.0</ele><time>2026-03-22T16:05:47.675Z</time></trkpt><trkpt lat="45.8207124" lon="12.8678327"><ele>8.0</ele><time>2026-03-22T16:05:48.69Z</time></trkpt><trkpt lat="45.8205971" lon="12.8676853"><ele>8.0</ele><time>2026-03-22T16:05:49.689Z</time></trkpt><trkpt lat="45.8204939" lon="12.8675469"><ele>8.0</ele><time>2026-03-22T16:05:50.678Z</time></trkpt><trkpt lat="45.8203901" lon="12.8674505"><ele>8.0</ele><time>2026-03-22T16:05:51.704Z</time></trkpt><trkpt lat="45.8202992" lon="12.8673639"><ele>8.0</ele><time>2026-03-22T16:05:52.678Z</time></trkpt><trkpt lat="45.8202133" lon="12.8672988"><ele>8.0</ele><time>2026-03-22T16:05:53.683Z</time></trkpt><trkpt lat="45.820153" lon="12.867209"><ele>8.0</ele><time>2026-03-22T16:05:54.688Z</time></trkpt><trkpt lat="45.8200993" lon="12.8671165"><ele>8.0</ele><time>2026-03-22T16:05:55.694Z</time></trkpt><trkpt lat="45.8200478" lon="12.8670164"><ele>8.0</ele><time>2026-03-22T16:05:56.706Z</time></trkpt><trkpt lat="45.8199659" lon="12.8669407"><ele>8.0</ele><time>2026-03-22T16:05:57.711Z</time></trkpt><trkpt lat="45.8198724" lon="12.8669006"><ele>8.0</ele><time>2026-03-22T16:05:58.705Z</time></trkpt><trkpt lat="45.8197909" lon="12.8668194"><ele>8.0</ele><time>2026-03-22T16:05:59.697Z</time></trkpt><trkpt lat="45.8197125" lon="12.8667025"><ele>8.0</ele><time>2026-03-22T16:06:00.698Z</time></trkpt><trkpt lat="45.8196317" lon="12.866569"><ele>8.0</ele><time>2026-03-22T16:06:01.702Z</time></trkpt><trkpt lat="45.8195404" lon="12.8664345"><ele>8.25</ele><time>2026-03-22T16:06:02.686Z</time></trkpt><trkpt lat="45.8194288" lon="12.8663149"><ele>8.5</ele><time>2026-03-22T16:06:03.693Z</time></trkpt><trkpt lat="45.8193117" lon="12.8661833"><ele>8.75</ele><time>2026-03-22T16:06:04.691Z</time></trkpt><trkpt lat="45.8191828" lon="12.8660586"><ele>9.0</ele><time>2026-03-22T16:06:05.694Z</time></trkpt><trkpt lat="45.8190548" lon="12.8659158"><ele>9.0</ele><time>2026-03-22T16:06:06.717Z</time></trkpt><trkpt lat="45.8189187" lon="12.8657709"><ele>9.0</ele><time>2026-03-22T16:06:07.687Z</time></trkpt><trkpt lat="45.8187791" lon="12.8656243"><ele>9.0</ele><time>2026-03-22T16:06:08.708Z</time></trkpt><trkpt lat="45.8186373" lon="12.8654862"><ele>9.0</ele><time>2026-03-22T16:06:09.704Z</time></trkpt><trkpt lat="45.818486" lon="12.8653795"><ele>9.0</ele><time>2026-03-22T16:06:10.705Z</time></trkpt><trkpt lat="45.8183327" lon="12.8652826"><ele>9.0</ele><time>2026-03-22T16:06:11.687Z</time></trkpt><trkpt lat="45.8181806" lon="12.8651864"><ele>9.333333333333334</ele><time>2026-03-22T16:06:12.685Z</time></trkpt><trkpt lat="45.8180169" lon="12.865117"><ele>9.666666666666668</ele><time>2026-03-22T16:06:13.701Z</time></trkpt><trkpt lat="45.8178607" lon="12.8650225"><ele>10.0</ele><time>2026-03-22T16:06:14.699Z</time></trkpt><trkpt lat="45.8176862" lon="12.8649819"><ele>9.333333333333334</ele><time>2026-03-22T16:06:15.699Z</time></trkpt><trkpt lat="45.8175095" lon="12.8649439"><ele>8.666666666666666</ele><time>2026-03-22T16:06:16.696Z</time></trkpt><trkpt lat="45.8173324" lon="12.8649211"><ele>8.0</ele><time>2026-03-22T16:06:17.711Z</time></trkpt><trkpt lat="45.8171563" lon="12.8648811"><ele>8.0</ele><time>2026-03-22T16:06:18.682Z</time></trkpt><trkpt lat="45.8169773" lon="12.8648477"><ele>8.0</ele><time>2026-03-22T16:06:19.707Z</time></trkpt><trkpt lat="45.8167974" lon="12.8648038"><ele>8.0</ele><time>2026-03-22T16:06:20.702Z</time></trkpt><trkpt lat="45.8166153" lon="12.8647593"><ele>7.666666666666666</ele><time>2026-03-22T16:06:21.709Z</time></trkpt><trkpt lat="45.8164324" lon="12.8647257"><ele>7.333333333333334</ele><time>2026-03-22T16:06:22.692Z</time></trkpt><trkpt lat="45.8162503" lon="12.8646937"><ele>7.0</ele><time>2026-03-22T16:06:23.687Z</time></trkpt><trkpt lat="45.8160684" lon="12.8646671"><ele>7.666666666666667</ele><time>2026-03-22T16:06:24.68Z</time></trkpt><trkpt lat="45.815886" lon="12.864638"><ele>8.333333333333334</ele><time>2026-03-22T16:06:25.688Z</time></trkpt><trkpt lat="45.8157031" lon="12.8646053"><ele>9.0</ele><time>2026-03-22T16:06:26.698Z</time></trkpt><trkpt lat="45.8155188" lon="12.8645765"><ele>9.0</ele><time>2026-03-22T16:06:27.706Z</time></trkpt><trkpt lat="45.815333" lon="12.8645468"><ele>9.0</ele><time>2026-03-22T16:06:28.705Z</time></trkpt><trkpt lat="45.8151466" lon="12.8645133"><ele>9.0</ele><time>2026-03-22T16:06:29.695Z</time></trkpt><trkpt lat="45.8149598" lon="12.8644769"><ele>8.666666666666666</ele><time>2026-03-22T16:06:30.687Z</time></trkpt><trkpt lat="45.8147727" lon="12.8644396"><ele>8.333333333333332</ele><time>2026-03-22T16:06:31.683Z</time></trkpt><trkpt lat="45.8145849" lon="12.8644032"><ele>8.0</ele><time>2026-03-22T16:06:32.703Z</time></trkpt><trkpt lat="45.8143973" lon="12.8643645"><ele>8.0</ele><time>2026-03-22T16:06:33.68Z</time></trkpt><trkpt lat="45.8142096" lon="12.8643271"><ele>8.0</ele><time>2026-03-22T16:06:34.711Z</time></trkpt><trkpt lat="45.8140232" lon="12.86429"><ele>8.0</ele><time>2026-03-22T16:06:35.712Z</time></trkpt><trkpt lat="45.8138378" lon="12.8642543"><ele>8.0</ele><time>2026-03-22T16:06:36.692Z</time></trkpt><trkpt lat="45.8136529" lon="12.8642206"><ele>8.0</ele><time>2026-03-22T16:06:37.687Z</time></trkpt><trkpt lat="45.8134683" lon="12.8641858"><ele>8.0</ele><time>2026-03-22T16:06:38.68Z</time></trkpt><trkpt lat="45.8132842" lon="12.8641488"><ele>8.0</ele><time>2026-03-22T16:06:39.7Z</time></trkpt><trkpt lat="45.8130989" lon="12.8641113"><ele>8.0</ele><time>2026-03-22T16:06:40.689Z</time></trkpt><trkpt lat="45.8129124" lon="12.8640728"><ele>8.0</ele><time>2026-03-22T16:06:41.693Z</time></trkpt><trkpt lat="45.8127261" lon="12.8640318"><ele>7.0</ele><time>2026-03-22T16:06:42.682Z</time></trkpt><trkpt lat="45.812541" lon="12.8639847"><ele>6.0</ele><time>2026-03-22T16:06:43.684Z</time></trkpt><trkpt lat="45.8123592" lon="12.863933"><ele>5.0</ele><time>2026-03-22T16:06:44.691Z</time></trkpt><trkpt lat="45.8121839" lon="12.8638784"><ele>5.0</ele><time>2026-03-22T16:06:45.712Z</time></trkpt><trkpt lat="45.8120154" lon="12.86382"><ele>5.0</ele><time>2026-03-22T16:06:46.68Z</time></trkpt><trkpt lat="45.8118522" lon="12.8637577"><ele>5.0</ele><time>2026-03-22T16:06:47.702Z</time></trkpt><trkpt lat="45.8116936" lon="12.8636921"><ele>5.333333333333334</ele><time>2026-03-22T16:06:48.705Z</time></trkpt><trkpt lat="45.8115385" lon="12.8636238"><ele>5.666666666666667</ele><time>2026-03-22T16:06:49.692Z</time></trkpt><trkpt lat="45.811387" lon="12.8635533"><ele>6.0</ele><time>2026-03-22T16:06:50.683Z</time></trkpt><trkpt lat="45.8112406" lon="12.863484"><ele>6.0</ele><time>2026-03-22T16:06:51.692Z</time></trkpt><trkpt lat="45.8111019" lon="12.8634152"><ele>6.0</ele><time>2026-03-22T16:06:52.706Z</time></trkpt><trkpt lat="45.8109797" lon="12.8633522"><ele>6.0</ele><time>2026-03-22T16:06:53.69Z</time></trkpt><trkpt lat="45.8108803" lon="12.863299"><ele>6.0</ele><time>2026-03-22T16:06:54.7Z</time></trkpt><trkpt lat="45.8107998" lon="12.8632522"><ele>6.0</ele><time>2026-03-22T16:06:55.697Z</time></trkpt><trkpt lat="45.81073" lon="12.8632001"><ele>6.0</ele><time>2026-03-22T16:06:56.694Z</time></trkpt><trkpt lat="45.8106692" lon="12.8631333"><ele>6.0</ele><time>2026-03-22T16:06:57.698Z</time></trkpt><trkpt lat="45.810633" lon="12.8630397"><ele>6.0</ele><time>2026-03-22T16:06:58.691Z</time></trkpt><trkpt lat="45.8106087" lon="12.8629388"><ele>6.0</ele><time>2026-03-22T16:06:59.71Z</time></trkpt><trkpt lat="45.8105642" lon="12.8628552"><ele>6.0</ele><time>2026-03-22T16:07:00.685Z</time></trkpt><trkpt lat="45.8104875" lon="12.8628334"><ele>6.0</ele><time>2026-03-22T16:07:01.691Z</time></trkpt><trkpt lat="45.810408" lon="12.8628472"><ele>6.0</ele><time>2026-03-22T16:07:02.705Z</time></trkpt><trkpt lat="45.8103255" lon="12.8628491"><ele>6.0</ele><time>2026-03-22T16:07:03.685Z</time></trkpt><trkpt lat="45.8102338" lon="12.8628371"><ele>6.0</ele><time>2026-03-22T16:07:04.686Z</time></trkpt><trkpt lat="45.8101321" lon="12.8627977"><ele>6.0</ele><time>2026-03-22T16:07:05.682Z</time></trkpt><trkpt lat="45.8100299" lon="12.8627081"><ele>6.0</ele><time>2026-03-22T16:07:06.702Z</time></trkpt><trkpt lat="45.8099168" lon="12.862619"><ele>6.0</ele><time>2026-03-22T16:07:07.709Z</time></trkpt><trkpt lat="45.8097938" lon="12.8625295"><ele>6.0</ele><time>2026-03-22T16:07:08.733Z</time></trkpt><trkpt lat="45.8096656" lon="12.8624361"><ele>6.0</ele><time>2026-03-22T16:07:09.698Z</time></trkpt><trkpt lat="45.8095288" lon="12.8623486"><ele>6.0</ele><time>2026-03-22T16:07:10.703Z</time></trkpt><trkpt lat="45.8093918" lon="12.8622432"><ele>6.0</ele><time>2026-03-22T16:07:11.703Z</time></trkpt><trkpt lat="45.8092444" lon="12.8621445"><ele>6.0</ele><time>2026-03-22T16:07:12.696Z</time></trkpt><trkpt lat="45.8090937" lon="12.8620314"><ele>6.666666666666666</ele><time>2026-03-22T16:07:13.704Z</time></trkpt><trkpt lat="45.8089426" lon="12.8618971"><ele>7.333333333333333</ele><time>2026-03-22T16:07:14.695Z</time></trkpt><trkpt lat="45.8087804" lon="12.8617709"><ele>8.0</ele><time>2026-03-22T16:07:15.696Z</time></trkpt><trkpt lat="45.8086101" lon="12.8616431"><ele>7.333333333333333</ele><time>2026-03-22T16:07:16.715Z</time></trkpt><trkpt lat="45.8084356" lon="12.8615083"><ele>6.666666666666666</ele><time>2026-03-22T16:07:17.714Z</time></trkpt><trkpt lat="45.8082586" lon="12.8613709"><ele>6.0</ele><time>2026-03-22T16:07:18.692Z</time></trkpt><trkpt lat="45.8080793" lon="12.8612348"><ele>6.0</ele><time>2026-03-22T16:07:19.691Z</time></trkpt><trkpt lat="45.8078975" lon="12.8610998"><ele>6.0</ele><time>2026-03-22T16:07:20.695Z</time></trkpt><trkpt lat="45.807713" lon="12.8609712"><ele>6.0</ele><time>2026-03-22T16:07:21.689Z</time></trkpt><trkpt lat="45.807534" lon="12.8608346"><ele>6.333333333333334</ele><time>2026-03-22T16:07:22.694Z</time></trkpt><trkpt lat="45.8073653" lon="12.8606886"><ele>6.666666666666667</ele><time>2026-03-22T16:07:23.688Z</time></trkpt><trkpt lat="45.8072067" lon="12.8605272"><ele>7.0</ele><time>2026-03-22T16:07:24.692Z</time></trkpt><trkpt lat="45.8070532" lon="12.8603514"><ele>7.0</ele><time>2026-03-22T16:07:25.68Z</time></trkpt><trkpt lat="45.8069171" lon="12.8601427"><ele>7.0</ele><time>2026-03-22T16:07:26.68Z</time></trkpt><trkpt lat="45.8067901" lon="12.8599241"><ele>7.0</ele><time>2026-03-22T16:07:27.7Z</time></trkpt><trkpt lat="45.8066831" lon="12.8596961"><ele>6.666666666666667</ele><time>2026-03-22T16:07:28.686Z</time></trkpt><trkpt lat="45.8065964" lon="12.8594662"><ele>6.333333333333334</ele><time>2026-03-22T16:07:29.692Z</time></trkpt><trkpt lat="45.8065313" lon="12.8592317"><ele>6.0</ele><time>2026-03-22T16:07:30.698Z</time></trkpt><trkpt lat="45.806499" lon="12.8589809"><ele>6.0</ele><time>2026-03-22T16:07:31.705Z</time></trkpt><trkpt lat="45.8064808" lon="12.8587243"><ele>6.0</ele><time>2026-03-22T16:07:32.703Z</time></trkpt><trkpt lat="45.8064834" lon="12.8584573"><ele>6.0</ele><time>2026-03-22T16:07:33.699Z</time></trkpt><trkpt lat="45.8065042" lon="12.8581898"><ele>6.0</ele><time>2026-03-22T16:07:34.691Z</time></trkpt><trkpt lat="45.8065435" lon="12.857928"><ele>6.0</ele><time>2026-03-22T16:07:35.7Z</time></trkpt><trkpt lat="45.8065999" lon="12.8576775"><ele>6.0</ele><time>2026-03-22T16:07:36.681Z</time></trkpt><trkpt lat="45.8066708" lon="12.8574433"><ele>6.0</ele><time>2026-03-22T16:07:37.682Z</time></trkpt><trkpt lat="45.8067522" lon="12.8572249"><ele>6.0</ele><time>2026-03-22T16:07:38.694Z</time></trkpt><trkpt lat="45.8068334" lon="12.8570163"><ele>6.0</ele><time>2026-03-22T16:07:39.695Z</time></trkpt><trkpt lat="45.8069134" lon="12.8568145"><ele>6.333333333333334</ele><time>2026-03-22T16:07:40.698Z</time></trkpt><trkpt lat="45.8069834" lon="12.8566142"><ele>6.666666666666667</ele><time>2026-03-22T16:07:41.7Z</time></trkpt><trkpt lat="45.8070521" lon="12.8564192"><ele>7.0</ele><time>2026-03-22T16:07:42.688Z</time></trkpt><trkpt lat="45.8071184" lon="12.8562309"><ele>7.0</ele><time>2026-03-22T16:07:43.715Z</time></trkpt><trkpt lat="45.8071753" lon="12.8560453"><ele>7.0</ele><time>2026-03-22T16:07:44.7Z</time></trkpt><trkpt lat="45.8072343" lon="12.8558706"><ele>7.0</ele><time>2026-03-22T16:07:45.684Z</time></trkpt><trkpt lat="45.8072907" lon="12.8557066"><ele>7.0</ele><time>2026-03-22T16:07:46.683Z</time></trkpt><trkpt lat="45.8073438" lon="12.8555503"><ele>6.8</ele><time>2026-03-22T16:07:47.692Z</time></trkpt><trkpt lat="45.8073983" lon="12.8554021"><ele>6.6</ele><time>2026-03-22T16:07:48.696Z</time></trkpt><trkpt lat="45.8074465" lon="12.8552533"><ele>6.3999999999999995</ele><time>2026-03-22T16:07:49.684Z</time></trkpt><trkpt lat="45.8074949" lon="12.8551089"><ele>6.199999999999999</ele><time>2026-03-22T16:07:50.694Z</time></trkpt><trkpt lat="45.8075413" lon="12.8549742"><ele>6.0</ele><time>2026-03-22T16:07:51.681Z</time></trkpt><trkpt lat="45.8075885" lon="12.8548486"><ele>5.8</ele><time>2026-03-22T16:07:52.691Z</time></trkpt><trkpt lat="45.8076398" lon="12.8547373"><ele>5.6</ele><time>2026-03-22T16:07:53.697Z</time></trkpt><trkpt lat="45.8076944" lon="12.8546521"><ele>5.4</ele><time>2026-03-22T16:07:54.686Z</time></trkpt><trkpt lat="45.8077847" lon="12.8545752"><ele>5.2</ele><time>2026-03-22T16:07:56.693Z</time></trkpt><trkpt lat="45.8078607" lon="12.8545211"><ele>5.0</ele><time>2026-03-22T16:07:58.695Z</time></trkpt><trkpt lat="45.8079137" lon="12.8543775"><ele>5.0</ele><time>2026-03-22T16:08:00.693Z</time></trkpt><trkpt lat="45.8079002" lon="12.8542697"><ele>5.0</ele><time>2026-03-22T16:08:01.703Z</time></trkpt><trkpt lat="45.80788" lon="12.8541421"><ele>5.0</ele><time>2026-03-22T16:08:02.701Z</time></trkpt><trkpt lat="45.8078202" lon="12.8540121"><ele>5.0</ele><time>2026-03-22T16:08:03.688Z</time></trkpt><trkpt lat="45.8077386" lon="12.8538723"><ele>5.0</ele><time>2026-03-22T16:08:04.68Z</time></trkpt><trkpt lat="45.8076428" lon="12.8537302"><ele>5.0</ele><time>2026-03-22T16:08:05.713Z</time></trkpt><trkpt lat="45.8075269" lon="12.8535876"><ele>5.0</ele><time>2026-03-22T16:08:06.69Z</time></trkpt><trkpt lat="45.8074001" lon="12.853446"><ele>5.0</ele><time>2026-03-22T16:08:07.704Z</time></trkpt><trkpt lat="45.8072654" lon="12.8533027"><ele>5.333333333333334</ele><time>2026-03-22T16:08:08.693Z</time></trkpt><trkpt lat="45.8071165" lon="12.8531662"><ele>5.666666666666667</ele><time>2026-03-22T16:08:09.692Z</time></trkpt><trkpt lat="45.8069562" lon="12.8530425"><ele>6.0</ele><time>2026-03-22T16:08:10.684Z</time></trkpt><trkpt lat="45.8067912" lon="12.8529303"><ele>6.0</ele><time>2026-03-22T16:08:11.694Z</time></trkpt><trkpt lat="45.80663" lon="12.8528149"><ele>6.0</ele><time>2026-03-22T16:08:12.692Z</time></trkpt><trkpt lat="45.8064723" lon="12.852704"><ele>6.0</ele><time>2026-03-22T16:08:13.684Z</time></trkpt><trkpt lat="45.806319" lon="12.8525894"><ele>5.666666666666667</ele><time>2026-03-22T16:08:14.686Z</time></trkpt><trkpt lat="45.8061679" lon="12.8524774"><ele>5.333333333333334</ele><time>2026-03-22T16:08:15.678Z</time></trkpt><trkpt lat="45.8060174" lon="12.8523591"><ele>5.0</ele><time>2026-03-22T16:08:16.683Z</time></trkpt><trkpt lat="45.8058636" lon="12.8522419"><ele>5.0</ele><time>2026-03-22T16:08:17.704Z</time></trkpt><trkpt lat="45.8057088" lon="12.8521247"><ele>5.0</ele><time>2026-03-22T16:08:18.712Z</time></trkpt><trkpt lat="45.8055535" lon="12.85201"><ele>5.0</ele><time>2026-03-22T16:08:19.702Z</time></trkpt><trkpt lat="45.8054001" lon="12.8518898"><ele>5.0</ele><time>2026-03-22T16:08:20.702Z</time></trkpt><trkpt lat="45.8052482" lon="12.8517715"><ele>5.0</ele><time>2026-03-22T16:08:21.711Z</time></trkpt><trkpt lat="45.8050986" lon="12.851656"><ele>5.0</ele><time>2026-03-22T16:08:22.697Z</time></trkpt><trkpt lat="45.8049507" lon="12.8515423"><ele>5.0</ele><time>2026-03-22T16:08:23.691Z</time></trkpt><trkpt lat="45.8048087" lon="12.8514257"><ele>5.0</ele><time>2026-03-22T16:08:24.692Z</time></trkpt><trkpt lat="45.8046634" lon="12.8513233"><ele>5.0</ele><time>2026-03-22T16:08:25.698Z</time></trkpt><trkpt lat="45.8045148" lon="12.8512301"><ele>5.0</ele><time>2026-03-22T16:08:26.701Z</time></trkpt><trkpt lat="45.8043632" lon="12.8511472"><ele>5.0</ele><time>2026-03-22T16:08:27.691Z</time></trkpt><trkpt lat="45.8042108" lon="12.8510661"><ele>5.0</ele><time>2026-03-22T16:08:28.69Z</time></trkpt><trkpt lat="45.8040597" lon="12.8509714"><ele>5.666666666666667</ele><time>2026-03-22T16:08:29.687Z</time></trkpt><trkpt lat="45.8039028" lon="12.8509119"><ele>6.333333333333334</ele><time>2026-03-22T16:08:30.687Z</time></trkpt><trkpt lat="45.8037443" lon="12.8508724"><ele>7.0</ele><time>2026-03-22T16:08:31.683Z</time></trkpt><trkpt lat="45.8035833" lon="12.8508358"><ele>6.333333333333334</ele><time>2026-03-22T16:08:32.714Z</time></trkpt><trkpt lat="45.8034232" lon="12.85081"><ele>5.666666666666667</ele><time>2026-03-22T16:08:33.683Z</time></trkpt><trkpt lat="45.8032617" lon="12.8507924"><ele>5.0</ele><time>2026-03-22T16:08:34.685Z</time></trkpt><trkpt lat="45.8030997" lon="12.8507797"><ele>5.0</ele><time>2026-03-22T16:08:35.71Z</time></trkpt><trkpt lat="45.8029358" lon="12.8507643"><ele>5.0</ele><time>2026-03-22T16:08:36.721Z</time></trkpt><trkpt lat="45.8027694" lon="12.8507566"><ele>5.0</ele><time>2026-03-22T16:08:37.702Z</time></trkpt><trkpt lat="45.8025998" lon="12.8507557"><ele>5.0</ele><time>2026-03-22T16:08:38.68Z</time></trkpt><trkpt lat="45.8024276" lon="12.8507647"><ele>5.0</ele><time>2026-03-22T16:08:39.692Z</time></trkpt><trkpt lat="45.8022523" lon="12.8507666"><ele>5.0</ele><time>2026-03-22T16:08:40.702Z</time></trkpt><trkpt lat="45.802072" lon="12.8507872"><ele>5.0</ele><time>2026-03-22T16:08:41.702Z</time></trkpt><trkpt lat="45.8018877" lon="12.8507993"><ele>5.0</ele><time>2026-03-22T16:08:42.714Z</time></trkpt><trkpt lat="45.8017004" lon="12.8508178"><ele>5.0</ele><time>2026-03-22T16:08:43.702Z</time></trkpt><trkpt lat="45.801509" lon="12.8508386"><ele>5.0</ele><time>2026-03-22T16:08:44.706Z</time></trkpt><trkpt lat="45.8013186" lon="12.8508498"><ele>5.0</ele><time>2026-03-22T16:08:45.694Z</time></trkpt><trkpt lat="45.8011341" lon="12.850871"><ele>5.0</ele><time>2026-03-22T16:08:46.703Z</time></trkpt><trkpt lat="45.8009539" lon="12.8508509"><ele>4.333333333333334</ele><time>2026-03-22T16:08:47.685Z</time></trkpt><trkpt lat="45.8007745" lon="12.850836"><ele>3.666666666666667</ele><time>2026-03-22T16:08:48.699Z</time></trkpt><trkpt lat="45.8005976" lon="12.850822"><ele>3.0</ele><time>2026-03-22T16:08:49.709Z</time></trkpt><trkpt lat="45.8004199" lon="12.8507977"><ele>3.0</ele><time>2026-03-22T16:08:50.684Z</time></trkpt><trkpt lat="45.8002412" lon="12.8507644"><ele>3.0</ele><time>2026-03-22T16:08:51.704Z</time></trkpt><trkpt lat="45.8000602" lon="12.8507152"><ele>3.0</ele><time>2026-03-22T16:08:52.689Z</time></trkpt><trkpt lat="45.7998788" lon="12.8506637"><ele>3.0</ele><time>2026-03-22T16:08:53.704Z</time></trkpt><trkpt lat="45.7996983" lon="12.8506048"><ele>3.0</ele><time>2026-03-22T16:08:54.697Z</time></trkpt><trkpt lat="45.7995185" lon="12.8505411"><ele>3.0</ele><time>2026-03-22T16:08:55.701Z</time></trkpt><trkpt lat="45.7993385" lon="12.8504731"><ele>4.0</ele><time>2026-03-22T16:08:56.687Z</time></trkpt><trkpt lat="45.7991579" lon="12.8503948"><ele>5.0</ele><time>2026-03-22T16:08:57.686Z</time></trkpt><trkpt lat="45.7989782" lon="12.8503047"><ele>6.0</ele><time>2026-03-22T16:08:58.702Z</time></trkpt><trkpt lat="45.7988017" lon="12.8502087"><ele>5.666666666666667</ele><time>2026-03-22T16:08:59.705Z</time></trkpt><trkpt lat="45.7986266" lon="12.8501036"><ele>5.333333333333334</ele><time>2026-03-22T16:09:00.692Z</time></trkpt><trkpt lat="45.7984588" lon="12.8500009"><ele>5.0</ele><time>2026-03-22T16:09:01.698Z</time></trkpt><trkpt lat="45.7982936" lon="12.8499079"><ele>5.666666666666667</ele><time>2026-03-22T16:09:02.689Z</time></trkpt><trkpt lat="45.798145" lon="12.8497557"><ele>6.333333333333334</ele><time>2026-03-22T16:09:03.705Z</time></trkpt><trkpt lat="45.7979988" lon="12.8495988"><ele>7.0</ele><time>2026-03-22T16:09:04.709Z</time></trkpt><trkpt lat="45.797855" lon="12.8494458"><ele>7.0</ele><time>2026-03-22T16:09:05.696Z</time></trkpt><trkpt lat="45.7976973" lon="12.8493399"><ele>7.0</ele><time>2026-03-22T16:09:06.695Z</time></trkpt><trkpt lat="45.7975499" lon="12.8492089"><ele>7.0</ele><time>2026-03-22T16:09:07.704Z</time></trkpt><trkpt lat="45.7974066" lon="12.8490706"><ele>5.666666666666667</ele><time>2026-03-22T16:09:08.702Z</time></trkpt><trkpt lat="45.7972687" lon="12.8489192"><ele>4.333333333333334</ele><time>2026-03-22T16:09:09.703Z</time></trkpt><trkpt lat="45.7971364" lon="12.8487616"><ele>3.0</ele><time>2026-03-22T16:09:10.701Z</time></trkpt><trkpt lat="45.7970077" lon="12.8485963"><ele>2.6666666666666665</ele><time>2026-03-22T16:09:11.695Z</time></trkpt><trkpt lat="45.7968816" lon="12.8484228"><ele>2.333333333333333</ele><time>2026-03-22T16:09:12.694Z</time></trkpt><trkpt lat="45.7967474" lon="12.8482577"><ele>2.0</ele><time>2026-03-22T16:09:13.699Z</time></trkpt><trkpt lat="45.796617" lon="12.8480815"><ele>2.0</ele><time>2026-03-22T16:09:14.686Z</time></trkpt><trkpt lat="45.7964919" lon="12.8478933"><ele>2.0</ele><time>2026-03-22T16:09:15.706Z</time></trkpt><trkpt lat="45.7963716" lon="12.8477008"><ele>2.0</ele><time>2026-03-22T16:09:16.706Z</time></trkpt><trkpt lat="45.7962532" lon="12.8475118"><ele>2.0</ele><time>2026-03-22T16:09:17.702Z</time></trkpt><trkpt lat="45.7961358" lon="12.8473289"><ele>2.0</ele><time>2026-03-22T16:09:18.68Z</time></trkpt><trkpt lat="45.7960238" lon="12.8471472"><ele>2.0</ele><time>2026-03-22T16:09:19.704Z</time></trkpt><trkpt lat="45.7959131" lon="12.8469716"><ele>2.0</ele><time>2026-03-22T16:09:20.692Z</time></trkpt><trkpt lat="45.7958085" lon="12.8467968"><ele>2.0</ele><time>2026-03-22T16:09:21.691Z</time></trkpt><trkpt lat="45.795704" lon="12.8466265"><ele>2.0</ele><time>2026-03-22T16:09:22.685Z</time></trkpt><trkpt lat="45.7955995" lon="12.8464571"><ele>2.333333333333333</ele><time>2026-03-22T16:09:23.697Z</time></trkpt><trkpt lat="45.7954978" lon="12.8462841"><ele>2.6666666666666665</ele><time>2026-03-22T16:09:24.707Z</time></trkpt><trkpt lat="45.7953999" lon="12.8461058"><ele>3.0</ele><time>2026-03-22T16:09:25.702Z</time></trkpt><trkpt lat="45.795294" lon="12.8459366"><ele>3.0</ele><time>2026-03-22T16:09:26.701Z</time></trkpt><trkpt lat="45.795188" lon="12.8457616"><ele>3.0</ele><time>2026-03-22T16:09:27.701Z</time></trkpt><trkpt lat="45.7950707" lon="12.8455863"><ele>3.0</ele><time>2026-03-22T16:09:28.722Z</time></trkpt><trkpt lat="45.7949384" lon="12.845405"><ele>3.0</ele><time>2026-03-22T16:09:29.706Z</time></trkpt><trkpt lat="45.7947998" lon="12.8451983"><ele>3.0</ele><time>2026-03-22T16:09:30.711Z</time></trkpt><trkpt lat="45.7946487" lon="12.844964"><ele>3.0</ele><time>2026-03-22T16:09:31.693Z</time></trkpt><trkpt lat="45.7944814" lon="12.8447056"><ele>3.0</ele><time>2026-03-22T16:09:32.692Z</time></trkpt><trkpt lat="45.7943146" lon="12.8444401"><ele>3.0</ele><time>2026-03-22T16:09:33.695Z</time></trkpt><trkpt lat="45.7941513" lon="12.8441927"><ele>3.333333333333333</ele><time>2026-03-22T16:09:34.693Z</time></trkpt><trkpt lat="45.7940062" lon="12.8439488"><ele>3.6666666666666665</ele><time>2026-03-22T16:09:35.699Z</time></trkpt><trkpt lat="45.7938777" lon="12.8437108"><ele>4.0</ele><time>2026-03-22T16:09:36.697Z</time></trkpt><trkpt lat="45.7937384" lon="12.8434938"><ele>4.0</ele><time>2026-03-22T16:09:37.695Z</time></trkpt><trkpt lat="45.7935955" lon="12.8432905"><ele>4.0</ele><time>2026-03-22T16:09:38.698Z</time></trkpt><trkpt lat="45.7934506" lon="12.8431029"><ele>4.0</ele><time>2026-03-22T16:09:39.711Z</time></trkpt><trkpt lat="45.793315" lon="12.8429028"><ele>4.0</ele><time>2026-03-22T16:09:40.689Z</time></trkpt><trkpt lat="45.7931602" lon="12.8427574"><ele>4.0</ele><time>2026-03-22T16:09:41.694Z</time></trkpt><trkpt lat="45.7929839" lon="12.842675"><ele>4.0</ele><time>2026-03-22T16:09:42.686Z</time></trkpt><trkpt lat="45.7928027" lon="12.842619"><ele>4.333333333333333</ele><time>2026-03-22T16:09:43.699Z</time></trkpt><trkpt lat="45.7926194" lon="12.842586"><ele>4.666666666666667</ele><time>2026-03-22T16:09:44.701Z</time></trkpt><trkpt lat="45.7924343" lon="12.8425829"><ele>5.0</ele><time>2026-03-22T16:09:45.696Z</time></trkpt><trkpt lat="45.7922531" lon="12.8426174"><ele>5.0</ele><time>2026-03-22T16:09:46.702Z</time></trkpt><trkpt lat="45.7920726" lon="12.8426517"><ele>5.0</ele><time>2026-03-22T16:09:47.708Z</time></trkpt><trkpt lat="45.7918955" lon="12.8427154"><ele>5.0</ele><time>2026-03-22T16:09:48.699Z</time></trkpt><trkpt lat="45.791718" lon="12.8428192"><ele>5.0</ele><time>2026-03-22T16:09:49.703Z</time></trkpt><trkpt lat="45.7915318" lon="12.8428641"><ele>5.0</ele><time>2026-03-22T16:09:50.688Z</time></trkpt><trkpt lat="45.7913462" lon="12.8428735"><ele>5.0</ele><time>2026-03-22T16:09:51.706Z</time></trkpt><trkpt lat="45.7911599" lon="12.8428546"><ele>5.333333333333334</ele><time>2026-03-22T16:09:52.704Z</time></trkpt><trkpt lat="45.7909725" lon="12.8428066"><ele>5.666666666666667</ele><time>2026-03-22T16:09:53.706Z</time></trkpt><trkpt lat="45.790787" lon="12.8427301"><ele>6.0</ele><time>2026-03-22T16:09:54.703Z</time></trkpt><trkpt lat="45.7906046" lon="12.8426221"><ele>6.0</ele><time>2026-03-22T16:09:55.711Z</time></trkpt><trkpt lat="45.7904243" lon="12.8425014"><ele>6.0</ele><time>2026-03-22T16:09:56.7Z</time></trkpt><trkpt lat="45.7902451" lon="12.8423721"><ele>6.0</ele><time>2026-03-22T16:09:57.723Z</time></trkpt><trkpt lat="45.7900724" lon="12.842224"><ele>6.0</ele><time>2026-03-22T16:09:58.703Z</time></trkpt><trkpt lat="45.7899078" lon="12.8420604"><ele>6.0</ele><time>2026-03-22T16:09:59.706Z</time></trkpt><trkpt lat="45.789744" lon="12.8419072"><ele>6.0</ele><time>2026-03-22T16:10:00.702Z</time></trkpt><trkpt lat="45.7895834" lon="12.8417669"><ele>6.0</ele><time>2026-03-22T16:10:01.706Z</time></trkpt><trkpt lat="45.7894247" lon="12.8416379"><ele>6.0</ele><time>2026-03-22T16:10:02.696Z</time></trkpt><trkpt lat="45.7892709" lon="12.8415142"><ele>6.0</ele><time>2026-03-22T16:10:03.705Z</time></trkpt><trkpt lat="45.7891194" lon="12.8413941"><ele>6.0</ele><time>2026-03-22T16:10:04.692Z</time></trkpt><trkpt lat="45.788986" lon="12.8412765"><ele>6.0</ele><time>2026-03-22T16:10:05.711Z</time></trkpt><trkpt lat="45.788869" lon="12.8411804"><ele>6.0</ele><time>2026-03-22T16:10:06.699Z</time></trkpt><trkpt lat="45.7887765" lon="12.8410963"><ele>6.0</ele><time>2026-03-22T16:10:07.706Z</time></trkpt><trkpt lat="45.7886984" lon="12.841021"><ele>6.0</ele><time>2026-03-22T16:10:09.699Z</time></trkpt><trkpt lat="45.7886158" lon="12.8409501"><ele>6.0</ele><time>2026-03-22T16:10:12.693Z</time></trkpt><trkpt lat="45.7885073" lon="12.8409627"><ele>6.0</ele><time>2026-03-22T16:10:14.702Z</time></trkpt><trkpt lat="45.788448" lon="12.8410116"><ele>6.0</ele><time>2026-03-22T16:10:15.688Z</time></trkpt><trkpt lat="45.7884033" lon="12.8411234"><ele>6.0</ele><time>2026-03-22T16:10:16.693Z</time></trkpt><trkpt lat="45.7883745" lon="12.8412761"><ele>6.0</ele><time>2026-03-22T16:10:17.683Z</time></trkpt><trkpt lat="45.788342" lon="12.8414346"><ele>6.0</ele><time>2026-03-22T16:10:18.692Z</time></trkpt><trkpt lat="45.7882792" lon="12.8416007"><ele>6.0</ele><time>2026-03-22T16:10:19.707Z</time></trkpt><trkpt lat="45.7882058" lon="12.8417756"><ele>6.0</ele><time>2026-03-22T16:10:20.74Z</time></trkpt><trkpt lat="45.788133" lon="12.8419627"><ele>5.333333333333333</ele><time>2026-03-22T16:10:21.716Z</time></trkpt><trkpt lat="45.7880539" lon="12.8421684"><ele>4.666666666666666</ele><time>2026-03-22T16:10:22.702Z</time></trkpt><trkpt lat="45.7879795" lon="12.8423929"><ele>4.0</ele><time>2026-03-22T16:10:23.712Z</time></trkpt><trkpt lat="45.7879" lon="12.8426154"><ele>3.6666666666666665</ele><time>2026-03-22T16:10:24.705Z</time></trkpt><trkpt lat="45.7878651" lon="12.8428687"><ele>3.333333333333333</ele><time>2026-03-22T16:10:25.699Z</time></trkpt><trkpt lat="45.7878066" lon="12.8430912"><ele>3.0</ele><time>2026-03-22T16:10:26.693Z</time></trkpt><trkpt lat="45.7877421" lon="12.8432953"><ele>2.5</ele><time>2026-03-22T16:10:27.7Z</time></trkpt><trkpt lat="45.7876784" lon="12.843494"><ele>2.0</ele><time>2026-03-22T16:10:28.701Z</time></trkpt><trkpt lat="45.7876085" lon="12.8436646"><ele>1.5</ele><time>2026-03-22T16:10:29.712Z</time></trkpt><trkpt lat="45.7875406" lon="12.8438325"><ele>1.0</ele><time>2026-03-22T16:10:30.691Z</time></trkpt><trkpt lat="45.7874335" lon="12.843958"><ele>0.75</ele><time>2026-03-22T16:10:31.678Z</time></trkpt><trkpt lat="45.787336" lon="12.8440757"><ele>0.5</ele><time>2026-03-22T16:10:32.694Z</time></trkpt><trkpt lat="45.7872159" lon="12.8441495"><ele>0.25</ele><time>2026-03-22T16:10:33.686Z</time></trkpt><trkpt lat="45.7870971" lon="12.844203"><ele>0.0</ele><time>2026-03-22T16:10:34.698Z</time></trkpt><trkpt lat="45.7869686" lon="12.8442313"><ele>0.0</ele><time>2026-03-22T16:10:35.684Z</time></trkpt><trkpt lat="45.7868307" lon="12.8442263"><ele>0.0</ele><time>2026-03-22T16:10:36.693Z</time></trkpt><trkpt lat="45.7866899" lon="12.8442045"><ele>0.0</ele><time>2026-03-22T16:10:37.694Z</time></trkpt><trkpt lat="45.7865502" lon="12.8441266"><ele>0.0</ele><time>2026-03-22T16:10:38.691Z</time></trkpt><trkpt lat="45.7864177" lon="12.8440207"><ele>0.0</ele><time>2026-03-22T16:10:39.7Z</time></trkpt><trkpt lat="45.786294" lon="12.8439095"><ele>0.0</ele><time>2026-03-22T16:10:40.699Z</time></trkpt><trkpt lat="45.7861782" lon="12.8438068"><ele>0.0</ele><time>2026-03-22T16:10:41.7Z</time></trkpt><trkpt lat="45.7860691" lon="12.8437155"><ele>0.0</ele><time>2026-03-22T16:10:42.689Z</time></trkpt><trkpt lat="45.785968" lon="12.8436296"><ele>0.0</ele><time>2026-03-22T16:10:43.685Z</time></trkpt><trkpt lat="45.785879" lon="12.843538"><ele>0.0</ele><time>2026-03-22T16:10:44.686Z</time></trkpt><trkpt lat="45.7858124" lon="12.843427"><ele>0.0</ele><time>2026-03-22T16:10:45.695Z</time></trkpt><trkpt lat="45.7857696" lon="12.8433043"><ele>0.0</ele><time>2026-03-22T16:10:46.688Z</time></trkpt><trkpt lat="45.7857564" lon="12.8431791"><ele>0.0</ele><time>2026-03-22T16:10:47.689Z</time></trkpt><trkpt lat="45.7857656" lon="12.8430589"><ele>0.0</ele><time>2026-03-22T16:10:48.687Z</time></trkpt><trkpt lat="45.7857795" lon="12.8429335"><ele>0.0</ele><time>2026-03-22T16:10:49.694Z</time></trkpt><trkpt lat="45.7858116" lon="12.842798"><ele>0.0</ele><time>2026-03-22T16:10:50.688Z</time></trkpt><trkpt lat="45.7858438" lon="12.8426492"><ele>0.0</ele><time>2026-03-22T16:10:51.676Z</time></trkpt><trkpt lat="45.785882" lon="12.8424835"><ele>0.0</ele><time>2026-03-22T16:10:52.686Z</time></trkpt><trkpt lat="45.785931" lon="12.8422985"><ele>0.0</ele><time>2026-03-22T16:10:53.681Z</time></trkpt><trkpt lat="45.7859836" lon="12.8420896"><ele>0.0</ele><time>2026-03-22T16:10:54.694Z</time></trkpt><trkpt lat="45.7860402" lon="12.8418592"><ele>0.0</ele><time>2026-03-22T16:10:55.688Z</time></trkpt><trkpt lat="45.7861027" lon="12.8416071"><ele>1.0</ele><time>2026-03-22T16:10:56.692Z</time></trkpt><trkpt lat="45.7861814" lon="12.8413419"><ele>2.0</ele><time>2026-03-22T16:10:57.7Z</time></trkpt><trkpt lat="45.7862668" lon="12.8410633"><ele>3.0</ele><time>2026-03-22T16:10:58.708Z</time></trkpt><trkpt lat="45.7863617" lon="12.840779"><ele>3.0</ele><time>2026-03-22T16:10:59.676Z</time></trkpt><trkpt lat="45.7864579" lon="12.8404901"><ele>3.0</ele><time>2026-03-22T16:11:00.686Z</time></trkpt><trkpt lat="45.7865586" lon="12.8401952"><ele>3.5</ele><time>2026-03-22T16:11:01.692Z</time></trkpt><trkpt lat="45.786659" lon="12.8398913"><ele>4.0</ele><time>2026-03-22T16:11:02.69Z</time></trkpt><trkpt lat="45.7867599" lon="12.8395824"><ele>4.5</ele><time>2026-03-22T16:11:03.698Z</time></trkpt><trkpt lat="45.786864" lon="12.8392731"><ele>5.0</ele><time>2026-03-22T16:11:04.692Z</time></trkpt><trkpt lat="45.7869662" lon="12.8389625"><ele>5.0</ele><time>2026-03-22T16:11:05.685Z</time></trkpt><trkpt lat="45.7870645" lon="12.8386499"><ele>5.0</ele><time>2026-03-22T16:11:06.696Z</time></trkpt><trkpt lat="45.7871733" lon="12.8383537"><ele>4.5</ele><time>2026-03-22T16:11:07.692Z</time></trkpt><trkpt lat="45.7872665" lon="12.8380588"><ele>4.0</ele><time>2026-03-22T16:11:08.71Z</time></trkpt><trkpt lat="45.7873381" lon="12.8377514"><ele>4.0</ele><time>2026-03-22T16:11:09.705Z</time></trkpt><trkpt lat="45.7874087" lon="12.8374439"><ele>4.0</ele><time>2026-03-22T16:11:10.7Z</time></trkpt><trkpt lat="45.7874799" lon="12.8371378"><ele>4.0</ele><time>2026-03-22T16:11:11.72Z</time></trkpt><trkpt lat="45.7875457" lon="12.8368294"><ele>4.0</ele><time>2026-03-22T16:11:12.707Z</time></trkpt><trkpt lat="45.7876017" lon="12.8365156"><ele>3.5</ele><time>2026-03-22T16:11:13.7Z</time></trkpt><trkpt lat="45.7876563" lon="12.8361995"><ele>3.0</ele><time>2026-03-22T16:11:14.701Z</time></trkpt><trkpt lat="45.787707" lon="12.8358816"><ele>2.5</ele><time>2026-03-22T16:11:15.7Z</time></trkpt><trkpt lat="45.7877371" lon="12.8355604"><ele>2.0</ele><time>2026-03-22T16:11:16.688Z</time></trkpt><trkpt lat="45.7877661" lon="12.8352415"><ele>2.0</ele><time>2026-03-22T16:11:17.7Z</time></trkpt><trkpt lat="45.787793" lon="12.834924"><ele>2.0</ele><time>2026-03-22T16:11:18.691Z</time></trkpt><trkpt lat="45.7878136" lon="12.8346072"><ele>2.0</ele><time>2026-03-22T16:11:19.696Z</time></trkpt><trkpt lat="45.7878285" lon="12.8342908"><ele>1.6666666666666665</ele><time>2026-03-22T16:11:20.688Z</time></trkpt><trkpt lat="45.7878372" lon="12.8339728"><ele>1.3333333333333333</ele><time>2026-03-22T16:11:21.698Z</time></trkpt><trkpt lat="45.7878392" lon="12.8336554"><ele>1.0</ele><time>2026-03-22T16:11:22.7Z</time></trkpt><trkpt lat="45.7878344" lon="12.8333409"><ele>0.6666666666666666</ele><time>2026-03-22T16:11:23.706Z</time></trkpt><trkpt lat="45.7878226" lon="12.8330303"><ele>0.3333333333333333</ele><time>2026-03-22T16:11:24.697Z</time></trkpt><trkpt lat="45.7878051" lon="12.8327219"><ele>0.0</ele><time>2026-03-22T16:11:25.696Z</time></trkpt><trkpt lat="45.787789" lon="12.8324131"><ele>0.0</ele><time>2026-03-22T16:11:26.696Z</time></trkpt><trkpt lat="45.7877657" lon="12.8321085"><ele>0.0</ele><time>2026-03-22T16:11:27.693Z</time></trkpt><trkpt lat="45.787737" lon="12.8318095"><ele>0.0</ele><time>2026-03-22T16:11:28.695Z</time></trkpt><trkpt lat="45.7877034" lon="12.8315139"><ele>0.6666666666666666</ele><time>2026-03-22T16:11:29.696Z</time></trkpt><trkpt lat="45.7876657" lon="12.83122"><ele>1.3333333333333333</ele><time>2026-03-22T16:11:30.703Z</time></trkpt><trkpt lat="45.7876254" lon="12.8309262"><ele>2.0</ele><time>2026-03-22T16:11:31.697Z</time></trkpt><trkpt lat="45.787585" lon="12.8306293"><ele>2.333333333333333</ele><time>2026-03-22T16:11:32.684Z</time></trkpt><trkpt lat="45.7875434" lon="12.830328"><ele>2.6666666666666665</ele><time>2026-03-22T16:11:33.703Z</time></trkpt><trkpt lat="45.7874892" lon="12.8300246"><ele>3.0</ele><time>2026-03-22T16:11:34.719Z</time></trkpt><trkpt lat="45.7874417" lon="12.8297174"><ele>3.666666666666667</ele><time>2026-03-22T16:11:35.72Z</time></trkpt><trkpt lat="45.7873969" lon="12.8294087"><ele>4.333333333333334</ele><time>2026-03-22T16:11:36.696Z</time></trkpt><trkpt lat="45.7873523" lon="12.8290991"><ele>5.0</ele><time>2026-03-22T16:11:37.703Z</time></trkpt><trkpt lat="45.7873154" lon="12.8287878"><ele>5.0</ele><time>2026-03-22T16:11:38.721Z</time></trkpt><trkpt lat="45.7872752" lon="12.8284766"><ele>5.0</ele><time>2026-03-22T16:11:39.715Z</time></trkpt><trkpt lat="45.787234" lon="12.8281653"><ele>5.0</ele><time>2026-03-22T16:11:40.694Z</time></trkpt><trkpt lat="45.7871925" lon="12.827854"><ele>5.333333333333334</ele><time>2026-03-22T16:11:41.704Z</time></trkpt><trkpt lat="45.7871544" lon="12.8275412"><ele>5.666666666666667</ele><time>2026-03-22T16:11:42.697Z</time></trkpt><trkpt lat="45.7871143" lon="12.8272291"><ele>6.0</ele><time>2026-03-22T16:11:43.717Z</time></trkpt><trkpt lat="45.7870722" lon="12.8269197"><ele>6.0</ele><time>2026-03-22T16:11:44.705Z</time></trkpt><trkpt lat="45.7870281" lon="12.8266124"><ele>6.0</ele><time>2026-03-22T16:11:45.696Z</time></trkpt><trkpt lat="45.7869801" lon="12.8263065"><ele>6.0</ele><time>2026-03-22T16:11:46.707Z</time></trkpt><trkpt lat="45.7869421" lon="12.8259995"><ele>6.333333333333334</ele><time>2026-03-22T16:11:47.698Z</time></trkpt><trkpt lat="45.7868946" lon="12.8256959"><ele>6.666666666666667</ele><time>2026-03-22T16:11:48.685Z</time></trkpt><trkpt lat="45.7868567" lon="12.8253895"><ele>7.0</ele><time>2026-03-22T16:11:49.714Z</time></trkpt><trkpt lat="45.7868154" lon="12.8250847"><ele>6.0</ele><time>2026-03-22T16:11:50.704Z</time></trkpt><trkpt lat="45.7867735" lon="12.8247813"><ele>5.0</ele><time>2026-03-22T16:11:51.696Z</time></trkpt><trkpt lat="45.7867304" lon="12.8244774"><ele>4.0</ele><time>2026-03-22T16:11:52.692Z</time></trkpt><trkpt lat="45.7866861" lon="12.8241714"><ele>3.6666666666666665</ele><time>2026-03-22T16:11:53.706Z</time></trkpt><trkpt lat="45.7866429" lon="12.823865"><ele>3.333333333333333</ele><time>2026-03-22T16:11:54.694Z</time></trkpt><trkpt lat="45.7866" lon="12.8235596"><ele>3.0</ele><time>2026-03-22T16:11:55.697Z</time></trkpt><trkpt lat="45.7865663" lon="12.823253"><ele>3.0</ele><time>2026-03-22T16:11:56.695Z</time></trkpt><trkpt lat="45.7864702" lon="12.8226546"><ele>3.0</ele><time>2026-03-22T16:11:58.704Z</time></trkpt><trkpt lat="45.7864051" lon="12.8223659"><ele>3.333333333333333</ele><time>2026-03-22T16:11:59.704Z</time></trkpt><trkpt lat="45.7863371" lon="12.8220795"><ele>3.6666666666666665</ele><time>2026-03-22T16:12:00.705Z</time></trkpt><trkpt lat="45.7862675" lon="12.8217958"><ele>4.0</ele><time>2026-03-22T16:12:01.704Z</time></trkpt><trkpt lat="45.7861913" lon="12.8215171"><ele>4.333333333333333</ele><time>2026-03-22T16:12:02.695Z</time></trkpt><trkpt lat="45.7861227" lon="12.8212349"><ele>4.666666666666667</ele><time>2026-03-22T16:12:03.695Z</time></trkpt><trkpt lat="45.7860467" lon="12.8209569"><ele>5.0</ele><time>2026-03-22T16:12:04.699Z</time></trkpt><trkpt lat="45.7859655" lon="12.8206825"><ele>4.666666666666667</ele><time>2026-03-22T16:12:05.696Z</time></trkpt><trkpt lat="45.7858721" lon="12.8204155"><ele>4.333333333333333</ele><time>2026-03-22T16:12:06.693Z</time></trkpt><trkpt lat="45.7857728" lon="12.8201532"><ele>4.0</ele><time>2026-03-22T16:12:07.702Z</time></trkpt><trkpt lat="45.7856736" lon="12.8198907"><ele>4.0</ele><time>2026-03-22T16:12:08.693Z</time></trkpt><trkpt lat="45.7855753" lon="12.8196267"><ele>4.0</ele><time>2026-03-22T16:12:09.693Z</time></trkpt><trkpt lat="45.7854624" lon="12.8193708"><ele>4.0</ele><time>2026-03-22T16:12:10.681Z</time></trkpt><trkpt lat="45.7853568" lon="12.8191077"><ele>4.0</ele><time>2026-03-22T16:12:11.702Z</time></trkpt><trkpt lat="45.7852463" lon="12.8188471"><ele>4.0</ele><time>2026-03-22T16:12:12.69Z</time></trkpt><trkpt lat="45.7851296" lon="12.818588"><ele>4.0</ele><time>2026-03-22T16:12:13.689Z</time></trkpt><trkpt lat="45.7850083" lon="12.8183287"><ele>3.6666666666666665</ele><time>2026-03-22T16:12:14.689Z</time></trkpt><trkpt lat="45.7848795" lon="12.818075"><ele>3.333333333333333</ele><time>2026-03-22T16:12:15.705Z</time></trkpt><trkpt lat="45.7847444" lon="12.8178279"><ele>3.0</ele><time>2026-03-22T16:12:16.696Z</time></trkpt><trkpt lat="45.7846061" lon="12.8175845"><ele>3.0</ele><time>2026-03-22T16:12:17.706Z</time></trkpt><trkpt lat="45.7844569" lon="12.8173531"><ele>3.0</ele><time>2026-03-22T16:12:18.695Z</time></trkpt><trkpt lat="45.7843073" lon="12.8171216"><ele>3.0</ele><time>2026-03-22T16:12:19.684Z</time></trkpt><trkpt lat="45.7841527" lon="12.8168951"><ele>3.0</ele><time>2026-03-22T16:12:20.716Z</time></trkpt><trkpt lat="45.7839956" lon="12.8166721"><ele>3.0</ele><time>2026-03-22T16:12:21.694Z</time></trkpt><trkpt lat="45.7838322" lon="12.8164578"><ele>3.0</ele><time>2026-03-22T16:12:22.7Z</time></trkpt><trkpt lat="45.7836635" lon="12.8162508"><ele>2.6666666666666665</ele><time>2026-03-22T16:12:23.703Z</time></trkpt><trkpt lat="45.783488" lon="12.8160537"><ele>2.333333333333333</ele><time>2026-03-22T16:12:24.68Z</time></trkpt><trkpt lat="45.7833059" lon="12.815869"><ele>2.0</ele><time>2026-03-22T16:12:25.697Z</time></trkpt><trkpt lat="45.7831174" lon="12.8156979"><ele>2.0</ele><time>2026-03-22T16:12:26.704Z</time></trkpt><trkpt lat="45.7829261" lon="12.8155317"><ele>2.0</ele><time>2026-03-22T16:12:27.695Z</time></trkpt><trkpt lat="45.7827351" lon="12.8153614"><ele>2.0</ele><time>2026-03-22T16:12:28.712Z</time></trkpt><trkpt lat="45.7825356" lon="12.8152035"><ele>3.0</ele><time>2026-03-22T16:12:29.699Z</time></trkpt><trkpt lat="45.782333" lon="12.8150462"><ele>4.0</ele><time>2026-03-22T16:12:30.693Z</time></trkpt><trkpt lat="45.7821259" lon="12.8148946"><ele>4.0</ele><time>2026-03-22T16:12:31.689Z</time></trkpt><trkpt lat="45.7819162" lon="12.8147457"><ele>4.0</ele><time>2026-03-22T16:12:32.701Z</time></trkpt><trkpt lat="45.7817028" lon="12.8146059"><ele>4.0</ele><time>2026-03-22T16:12:33.721Z</time></trkpt><trkpt lat="45.7814899" lon="12.8144738"><ele>4.0</ele><time>2026-03-22T16:12:34.712Z</time></trkpt><trkpt lat="45.7812764" lon="12.8143491"><ele>3.5</ele><time>2026-03-22T16:12:35.704Z</time></trkpt><trkpt lat="45.7810641" lon="12.8142277"><ele>3.0</ele><time>2026-03-22T16:12:36.706Z</time></trkpt><trkpt lat="45.7808509" lon="12.8141171"><ele>3.0</ele><time>2026-03-22T16:12:37.702Z</time></trkpt><trkpt lat="45.7806391" lon="12.8140105"><ele>3.0</ele><time>2026-03-22T16:12:38.694Z</time></trkpt><trkpt lat="45.7804266" lon="12.8139134"><ele>3.0</ele><time>2026-03-22T16:12:39.691Z</time></trkpt><trkpt lat="45.7802127" lon="12.8138239"><ele>3.333333333333333</ele><time>2026-03-22T16:12:40.697Z</time></trkpt><trkpt lat="45.7799972" lon="12.8137394"><ele>3.6666666666666665</ele><time>2026-03-22T16:12:41.716Z</time></trkpt><trkpt lat="45.7797784" lon="12.8136618"><ele>4.0</ele><time>2026-03-22T16:12:42.704Z</time></trkpt><trkpt lat="45.7795565" lon="12.8135885"><ele>3.5</ele><time>2026-03-22T16:12:43.711Z</time></trkpt><trkpt lat="45.7793308" lon="12.8135243"><ele>3.0</ele><time>2026-03-22T16:12:44.716Z</time></trkpt><trkpt lat="45.7791035" lon="12.8134649"><ele>2.5</ele><time>2026-03-22T16:12:45.69Z</time></trkpt><trkpt lat="45.7788774" lon="12.8134132"><ele>2.0</ele><time>2026-03-22T16:12:46.694Z</time></trkpt><trkpt lat="45.7786528" lon="12.8133716"><ele>2.0</ele><time>2026-03-22T16:12:47.688Z</time></trkpt><trkpt lat="45.7784297" lon="12.8133354"><ele>2.0</ele><time>2026-03-22T16:12:48.706Z</time></trkpt><trkpt lat="45.7782077" lon="12.8133042"><ele>2.0</ele><time>2026-03-22T16:12:49.693Z</time></trkpt><trkpt lat="45.7779864" lon="12.8132776"><ele>2.0</ele><time>2026-03-22T16:12:50.697Z</time></trkpt><trkpt lat="45.7777653" lon="12.8132563"><ele>2.0</ele><time>2026-03-22T16:12:51.698Z</time></trkpt><trkpt lat="45.7775442" lon="12.8132327"><ele>2.0</ele><time>2026-03-22T16:12:52.7Z</time></trkpt><trkpt lat="45.7773228" lon="12.8132101"><ele>2.333333333333333</ele><time>2026-03-22T16:12:53.707Z</time></trkpt><trkpt lat="45.7771013" lon="12.813187"><ele>2.6666666666666665</ele><time>2026-03-22T16:12:54.693Z</time></trkpt><trkpt lat="45.7768789" lon="12.8131628"><ele>3.0</ele><time>2026-03-22T16:12:55.703Z</time></trkpt><trkpt lat="45.7766554" lon="12.8131388"><ele>3.5</ele><time>2026-03-22T16:12:56.689Z</time></trkpt><trkpt lat="45.7764309" lon="12.813119"><ele>4.0</ele><time>2026-03-22T16:12:57.688Z</time></trkpt><trkpt lat="45.7762064" lon="12.8130989"><ele>3.0</ele><time>2026-03-22T16:12:58.684Z</time></trkpt><trkpt lat="45.7759831" lon="12.813078"><ele>2.0</ele><time>2026-03-22T16:12:59.695Z</time></trkpt><trkpt lat="45.7757623" lon="12.8130568"><ele>1.0</ele><time>2026-03-22T16:13:00.696Z</time></trkpt><trkpt lat="45.775544" lon="12.8130361"><ele>1.0</ele><time>2026-03-22T16:13:01.7Z</time></trkpt><trkpt lat="45.775327" lon="12.8130136"><ele>1.0</ele><time>2026-03-22T16:13:02.697Z</time></trkpt><trkpt lat="45.7751112" lon="12.8129896"><ele>1.0</ele><time>2026-03-22T16:13:03.688Z</time></trkpt><trkpt lat="45.7748962" lon="12.8129678"><ele>0.6666666666666666</ele><time>2026-03-22T16:13:04.687Z</time></trkpt><trkpt lat="45.7746812" lon="12.8129466"><ele>0.3333333333333333</ele><time>2026-03-22T16:13:05.696Z</time></trkpt><trkpt lat="45.7744652" lon="12.8129254"><ele>0.0</ele><time>2026-03-22T16:13:06.691Z</time></trkpt><trkpt lat="45.7742482" lon="12.8129015"><ele>0.0</ele><time>2026-03-22T16:13:07.699Z</time></trkpt><trkpt lat="45.7740301" lon="12.8128778"><ele>0.0</ele><time>2026-03-22T16:13:08.714Z</time></trkpt><trkpt lat="45.7738111" lon="12.8128546"><ele>0.0</ele><time>2026-03-22T16:13:09.699Z</time></trkpt><trkpt lat="45.773591" lon="12.8128331"><ele>0.0</ele><time>2026-03-22T16:13:10.682Z</time></trkpt><trkpt lat="45.7733699" lon="12.8128162"><ele>0.0</ele><time>2026-03-22T16:13:11.701Z</time></trkpt><trkpt lat="45.7731484" lon="12.8127944"><ele>0.0</ele><time>2026-03-22T16:13:12.685Z</time></trkpt><trkpt lat="45.7729263" lon="12.8127702"><ele>0.0</ele><time>2026-03-22T16:13:13.705Z</time></trkpt><trkpt lat="45.7727035" lon="12.8127452"><ele>0.0</ele><time>2026-03-22T16:13:14.711Z</time></trkpt><trkpt lat="45.7724802" lon="12.8127144"><ele>0.0</ele><time>2026-03-22T16:13:15.691Z</time></trkpt><trkpt lat="45.7722552" lon="12.8126853"><ele>0.0</ele><time>2026-03-22T16:13:16.725Z</time></trkpt><trkpt lat="45.7720296" lon="12.8126502"><ele>0.0</ele><time>2026-03-22T16:13:17.707Z</time></trkpt><trkpt lat="45.7718021" lon="12.8126065"><ele>0.0</ele><time>2026-03-22T16:13:18.697Z</time></trkpt><trkpt lat="45.7715738" lon="12.8125534"><ele>0.0</ele><time>2026-03-22T16:13:19.699Z</time></trkpt><trkpt lat="45.7713459" lon="12.8124893"><ele>0.0</ele><time>2026-03-22T16:13:20.693Z</time></trkpt><trkpt lat="45.7711182" lon="12.8124153"><ele>0.0</ele><time>2026-03-22T16:13:21.693Z</time></trkpt><trkpt lat="45.7708914" lon="12.8123331"><ele>2.0</ele><time>2026-03-22T16:13:22.686Z</time></trkpt><trkpt lat="45.7706669" lon="12.8122421"><ele>4.0</ele><time>2026-03-22T16:13:23.707Z</time></trkpt><trkpt lat="45.7704463" lon="12.8121405"><ele>4.0</ele><time>2026-03-22T16:13:24.697Z</time></trkpt><trkpt lat="45.7702288" lon="12.8120304"><ele>4.0</ele><time>2026-03-22T16:13:25.707Z</time></trkpt><trkpt lat="45.7700147" lon="12.8119132"><ele>4.5</ele><time>2026-03-22T16:13:26.7Z</time></trkpt><trkpt lat="45.7698061" lon="12.8117837"><ele>5.0</ele><time>2026-03-22T16:13:27.714Z</time></trkpt><trkpt lat="45.769604" lon="12.811642"><ele>5.0</ele><time>2026-03-22T16:13:28.707Z</time></trkpt><trkpt lat="45.7693999" lon="12.8115189"><ele>5.0</ele><time>2026-03-22T16:13:29.687Z</time></trkpt><trkpt lat="45.7691965" lon="12.811402"><ele>5.0</ele><time>2026-03-22T16:13:30.705Z</time></trkpt><trkpt lat="45.768994" lon="12.811286"><ele>4.666666666666667</ele><time>2026-03-22T16:13:31.695Z</time></trkpt><trkpt lat="45.7687885" lon="12.811179"><ele>4.333333333333333</ele><time>2026-03-22T16:13:32.71Z</time></trkpt><trkpt lat="45.7685811" lon="12.8110788"><ele>4.0</ele><time>2026-03-22T16:13:33.711Z</time></trkpt><trkpt lat="45.7683832" lon="12.8109478"><ele>4.0</ele><time>2026-03-22T16:13:34.707Z</time></trkpt><trkpt lat="45.7681772" lon="12.8108427"><ele>4.0</ele><time>2026-03-22T16:13:35.7Z</time></trkpt><trkpt lat="45.7679786" lon="12.8107133"><ele>4.0</ele><time>2026-03-22T16:13:36.696Z</time></trkpt><trkpt lat="45.7677772" lon="12.8105933"><ele>4.0</ele><time>2026-03-22T16:13:37.696Z</time></trkpt><trkpt lat="45.7675696" lon="12.8104915"><ele>4.0</ele><time>2026-03-22T16:13:38.697Z</time></trkpt><trkpt lat="45.767372" lon="12.8103578"><ele>4.0</ele><time>2026-03-22T16:13:39.705Z</time></trkpt><trkpt lat="45.7671695" lon="12.8102412"><ele>4.0</ele><time>2026-03-22T16:13:40.695Z</time></trkpt><trkpt lat="45.7669633" lon="12.8101345"><ele>4.0</ele><time>2026-03-22T16:13:41.708Z</time></trkpt><trkpt lat="45.7667535" lon="12.8100344"><ele>4.0</ele><time>2026-03-22T16:13:42.713Z</time></trkpt><trkpt lat="45.7665368" lon="12.809966"><ele>4.0</ele><time>2026-03-22T16:13:43.71Z</time></trkpt><trkpt lat="45.7663185" lon="12.8099058"><ele>4.0</ele><time>2026-03-22T16:13:44.703Z</time></trkpt><trkpt lat="45.7660998" lon="12.8098561"><ele>4.0</ele><time>2026-03-22T16:13:45.694Z</time></trkpt><trkpt lat="45.7658823" lon="12.8098214"><ele>4.0</ele><time>2026-03-22T16:13:46.709Z</time></trkpt><trkpt lat="45.7656702" lon="12.8097995"><ele>4.0</ele><time>2026-03-22T16:13:47.706Z</time></trkpt><trkpt lat="45.765463" lon="12.8098026"><ele>4.0</ele><time>2026-03-22T16:13:48.702Z</time></trkpt><trkpt lat="45.7652619" lon="12.8098231"><ele>4.0</ele><time>2026-03-22T16:13:49.703Z</time></trkpt><trkpt lat="45.7650713" lon="12.8098442"><ele>4.0</ele><time>2026-03-22T16:13:50.713Z</time></trkpt><trkpt lat="45.7648932" lon="12.8098717"><ele>4.0</ele><time>2026-03-22T16:13:51.703Z</time></trkpt><trkpt lat="45.7647286" lon="12.8098974"><ele>4.0</ele><time>2026-03-22T16:13:52.706Z</time></trkpt><trkpt lat="45.7645814" lon="12.8099106"><ele>4.0</ele><time>2026-03-22T16:13:53.71Z</time></trkpt><trkpt lat="45.7644465" lon="12.8099049"><ele>4.0</ele><time>2026-03-22T16:13:54.692Z</time></trkpt><trkpt lat="45.7643269" lon="12.8098758"><ele>4.0</ele><time>2026-03-22T16:13:55.717Z</time></trkpt><trkpt lat="45.7642312" lon="12.8098208"><ele>3.25</ele><time>2026-03-22T16:13:56.71Z</time></trkpt><trkpt lat="45.7641397" lon="12.8097456"><ele>2.5</ele><time>2026-03-22T16:13:57.698Z</time></trkpt><trkpt lat="45.764046" lon="12.8096567"><ele>1.75</ele><time>2026-03-22T16:13:58.701Z</time></trkpt><trkpt lat="45.7639342" lon="12.8095762"><ele>1.0</ele><time>2026-03-22T16:13:59.701Z</time></trkpt><trkpt lat="45.7638104" lon="12.8095141"><ele>1.0</ele><time>2026-03-22T16:14:00.705Z</time></trkpt><trkpt lat="45.7636798" lon="12.8094867"><ele>1.0</ele><time>2026-03-22T16:14:01.709Z</time></trkpt><trkpt lat="45.763548" lon="12.8095429"><ele>1.0</ele><time>2026-03-22T16:14:02.695Z</time></trkpt><trkpt lat="45.7634442" lon="12.8096422"><ele>1.0</ele><time>2026-03-22T16:14:03.695Z</time></trkpt><trkpt lat="45.7633549" lon="12.8097766"><ele>1.25</ele><time>2026-03-22T16:14:04.716Z</time></trkpt><trkpt lat="45.7632635" lon="12.8099047"><ele>1.5</ele><time>2026-03-22T16:14:05.694Z</time></trkpt><trkpt lat="45.7631664" lon="12.810034"><ele>1.75</ele><time>2026-03-22T16:14:06.704Z</time></trkpt><trkpt lat="45.7630449" lon="12.8101358"><ele>2.0</ele><time>2026-03-22T16:14:07.707Z</time></trkpt><trkpt lat="45.7628877" lon="12.8102074"><ele>2.0</ele><time>2026-03-22T16:14:08.684Z</time></trkpt><trkpt lat="45.7627041" lon="12.8102474"><ele>2.0</ele><time>2026-03-22T16:14:09.694Z</time></trkpt><trkpt lat="45.7625068" lon="12.8102758"><ele>2.0</ele><time>2026-03-22T16:14:10.684Z</time></trkpt><trkpt lat="45.7623086" lon="12.8103101"><ele>1.6666666666666665</ele><time>2026-03-22T16:14:11.704Z</time></trkpt><trkpt lat="45.7621176" lon="12.8103407"><ele>1.3333333333333333</ele><time>2026-03-22T16:14:12.697Z</time></trkpt><trkpt lat="45.7619304" lon="12.8103775"><ele>1.0</ele><time>2026-03-22T16:14:13.693Z</time></trkpt><trkpt lat="45.7617446" lon="12.8104142"><ele>1.6666666666666665</ele><time>2026-03-22T16:14:14.697Z</time></trkpt><trkpt lat="45.7615581" lon="12.8104513"><ele>2.3333333333333335</ele><time>2026-03-22T16:14:15.703Z</time></trkpt><trkpt lat="45.761371" lon="12.8104749"><ele>3.0</ele><time>2026-03-22T16:14:16.701Z</time></trkpt><trkpt lat="45.7611845" lon="12.8105054"><ele>3.333333333333333</ele><time>2026-03-22T16:14:17.714Z</time></trkpt><trkpt lat="45.7609989" lon="12.8105403"><ele>3.6666666666666665</ele><time>2026-03-22T16:14:18.723Z</time></trkpt><trkpt lat="45.7608132" lon="12.8105738"><ele>4.0</ele><time>2026-03-22T16:14:19.735Z</time></trkpt><trkpt lat="45.7606268" lon="12.8106057"><ele>4.0</ele><time>2026-03-22T16:14:20.692Z</time></trkpt><trkpt lat="45.7604396" lon="12.8106378"><ele>4.0</ele><time>2026-03-22T16:14:21.704Z</time></trkpt><trkpt lat="45.7602523" lon="12.8106687"><ele>4.0</ele><time>2026-03-22T16:14:22.697Z</time></trkpt><trkpt lat="45.7600663" lon="12.8107"><ele>4.666666666666666</ele><time>2026-03-22T16:14:23.7Z</time></trkpt><trkpt lat="45.7598845" lon="12.8107333"><ele>5.333333333333333</ele><time>2026-03-22T16:14:24.706Z</time></trkpt><trkpt lat="45.7597088" lon="12.8107672"><ele>6.0</ele><time>2026-03-22T16:14:25.702Z</time></trkpt><trkpt lat="45.759537" lon="12.8107915"><ele>6.0</ele><time>2026-03-22T16:14:26.706Z</time></trkpt><trkpt lat="45.7593689" lon="12.8108175"><ele>6.0</ele><time>2026-03-22T16:14:27.7Z</time></trkpt><trkpt lat="45.7592042" lon="12.8108424"><ele>6.0</ele><time>2026-03-22T16:14:28.705Z</time></trkpt><trkpt lat="45.7590428" lon="12.8108646"><ele>6.0</ele><time>2026-03-22T16:14:29.698Z</time></trkpt><trkpt lat="45.7588841" lon="12.8108843"><ele>6.0</ele><time>2026-03-22T16:14:30.692Z</time></trkpt><trkpt lat="45.7587285" lon="12.8108736"><ele>6.0</ele><time>2026-03-22T16:14:31.697Z</time></trkpt><trkpt lat="45.7585777" lon="12.8108322"><ele>5.333333333333333</ele><time>2026-03-22T16:14:32.701Z</time></trkpt><trkpt lat="45.7584378" lon="12.8107462"><ele>4.666666666666666</ele><time>2026-03-22T16:14:33.7Z</time></trkpt><trkpt lat="45.7583155" lon="12.8106128"><ele>4.0</ele><time>2026-03-22T16:14:34.716Z</time></trkpt><trkpt lat="45.7582109" lon="12.8104464"><ele>4.0</ele><time>2026-03-22T16:14:35.684Z</time></trkpt><trkpt lat="45.7581095" lon="12.8102744"><ele>4.0</ele><time>2026-03-22T16:14:36.707Z</time></trkpt><trkpt lat="45.7580374" lon="12.8100664"><ele>4.0</ele><time>2026-03-22T16:14:37.693Z</time></trkpt><trkpt lat="45.7579646" lon="12.8098436"><ele>3.333333333333333</ele><time>2026-03-22T16:14:38.684Z</time></trkpt><trkpt lat="45.7578965" lon="12.809608"><ele>2.6666666666666665</ele><time>2026-03-22T16:14:39.701Z</time></trkpt><trkpt lat="45.7578395" lon="12.8093561"><ele>2.0</ele><time>2026-03-22T16:14:40.686Z</time></trkpt><trkpt lat="45.7577831" lon="12.8090945"><ele>2.0</ele><time>2026-03-22T16:14:41.702Z</time></trkpt><trkpt lat="45.7577309" lon="12.8088241"><ele>2.0</ele><time>2026-03-22T16:14:42.694Z</time></trkpt><trkpt lat="45.7576801" lon="12.8085501"><ele>2.0</ele><time>2026-03-22T16:14:43.701Z</time></trkpt><trkpt lat="45.7576296" lon="12.808278"><ele>2.0</ele><time>2026-03-22T16:14:44.687Z</time></trkpt><trkpt lat="45.7575773" lon="12.8080132"><ele>2.0</ele><time>2026-03-22T16:14:45.702Z</time></trkpt><trkpt lat="45.7575333" lon="12.8077452"><ele>2.0</ele><time>2026-03-22T16:14:46.702Z</time></trkpt><trkpt lat="45.7574853" lon="12.8074789"><ele>2.0</ele><time>2026-03-22T16:14:47.709Z</time></trkpt><trkpt lat="45.7574293" lon="12.8072126"><ele>2.0</ele><time>2026-03-22T16:14:48.698Z</time></trkpt><trkpt lat="45.7573634" lon="12.8069501"><ele>2.0</ele><time>2026-03-22T16:14:49.699Z</time></trkpt><trkpt lat="45.7573093" lon="12.8066816"><ele>2.0</ele><time>2026-03-22T16:14:50.694Z</time></trkpt><trkpt lat="45.7572477" lon="12.8064178"><ele>2.0</ele><time>2026-03-22T16:14:51.684Z</time></trkpt><trkpt lat="45.7572008" lon="12.8061517"><ele>2.0</ele><time>2026-03-22T16:14:52.7Z</time></trkpt><trkpt lat="45.7571506" lon="12.805889"><ele>2.333333333333333</ele><time>2026-03-22T16:14:53.702Z</time></trkpt><trkpt lat="45.7570992" lon="12.8056298"><ele>2.6666666666666665</ele><time>2026-03-22T16:14:54.7Z</time></trkpt><trkpt lat="45.7570506" lon="12.8053752"><ele>3.0</ele><time>2026-03-22T16:14:55.692Z</time></trkpt><trkpt lat="45.7570011" lon="12.8051256"><ele>2.3333333333333335</ele><time>2026-03-22T16:14:56.688Z</time></trkpt><trkpt lat="45.7569503" lon="12.8048785"><ele>1.6666666666666665</ele><time>2026-03-22T16:14:57.697Z</time></trkpt><trkpt lat="45.7569017" lon="12.8046302"><ele>1.0</ele><time>2026-03-22T16:14:58.696Z</time></trkpt><trkpt lat="45.7568545" lon="12.8043787"><ele>0.6666666666666666</ele><time>2026-03-22T16:14:59.715Z</time></trkpt><trkpt lat="45.756807" lon="12.8041244"><ele>0.3333333333333333</ele><time>2026-03-22T16:15:00.709Z</time></trkpt><trkpt lat="45.7567567" lon="12.8038694"><ele>0.0</ele><time>2026-03-22T16:15:01.703Z</time></trkpt><trkpt lat="45.7567056" lon="12.8036149"><ele>0.3333333333333333</ele><time>2026-03-22T16:15:02.68Z</time></trkpt><trkpt lat="45.7566547" lon="12.8033637"><ele>0.6666666666666666</ele><time>2026-03-22T16:15:03.688Z</time></trkpt><trkpt lat="45.7566005" lon="12.8031183"><ele>1.0</ele><time>2026-03-22T16:15:04.697Z</time></trkpt><trkpt lat="45.756553" lon="12.802876"><ele>1.6666666666666665</ele><time>2026-03-22T16:15:05.694Z</time></trkpt><trkpt lat="45.7565083" lon="12.8026354"><ele>2.3333333333333335</ele><time>2026-03-22T16:15:06.699Z</time></trkpt><trkpt lat="45.7564691" lon="12.8023938"><ele>3.0</ele><time>2026-03-22T16:15:07.697Z</time></trkpt><trkpt lat="45.7564254" lon="12.8021509"><ele>3.0</ele><time>2026-03-22T16:15:08.701Z</time></trkpt><trkpt lat="45.7563865" lon="12.8019024"><ele>3.0</ele><time>2026-03-22T16:15:09.689Z</time></trkpt><trkpt lat="45.7563405" lon="12.8016524"><ele>3.0</ele><time>2026-03-22T16:15:10.695Z</time></trkpt><trkpt lat="45.7562941" lon="12.8013984"><ele>3.0</ele><time>2026-03-22T16:15:11.69Z</time></trkpt><trkpt lat="45.7562489" lon="12.8011394"><ele>3.0</ele><time>2026-03-22T16:15:12.713Z</time></trkpt><trkpt lat="45.7562061" lon="12.800878"><ele>3.0</ele><time>2026-03-22T16:15:13.703Z</time></trkpt><trkpt lat="45.756158" lon="12.800619"><ele>3.0</ele><time>2026-03-22T16:15:14.701Z</time></trkpt><trkpt lat="45.7561231" lon="12.8003555"><ele>3.0</ele><time>2026-03-22T16:15:15.705Z</time></trkpt><trkpt lat="45.7560796" lon="12.8000976"><ele>3.0</ele><time>2026-03-22T16:15:16.718Z</time></trkpt><trkpt lat="45.7560263" lon="12.7998449"><ele>3.0</ele><time>2026-03-22T16:15:17.688Z</time></trkpt><trkpt lat="45.7559809" lon="12.7995947"><ele>3.0</ele><time>2026-03-22T16:15:18.716Z</time></trkpt><trkpt lat="45.7559257" lon="12.7993511"><ele>3.0</ele><time>2026-03-22T16:15:19.715Z</time></trkpt><trkpt lat="45.755881" lon="12.7991033"><ele>2.6666666666666665</ele><time>2026-03-22T16:15:20.687Z</time></trkpt><trkpt lat="45.7558373" lon="12.7988549"><ele>2.333333333333333</ele><time>2026-03-22T16:15:21.703Z</time></trkpt><trkpt lat="45.7558015" lon="12.7986054"><ele>2.0</ele><time>2026-03-22T16:15:22.69Z</time></trkpt><trkpt lat="45.7557669" lon="12.7983574"><ele>2.0</ele><time>2026-03-22T16:15:23.688Z</time></trkpt><trkpt lat="45.7557279" lon="12.7981123"><ele>2.0</ele><time>2026-03-22T16:15:24.694Z</time></trkpt><trkpt lat="45.7556836" lon="12.7978699"><ele>2.0</ele><time>2026-03-22T16:15:25.684Z</time></trkpt><trkpt lat="45.7556421" lon="12.7976269"><ele>2.0</ele><time>2026-03-22T16:15:26.717Z</time></trkpt><trkpt lat="45.755599" lon="12.797384"><ele>2.0</ele><time>2026-03-22T16:15:27.702Z</time></trkpt><trkpt lat="45.7555637" lon="12.7971387"><ele>2.0</ele><time>2026-03-22T16:15:28.697Z</time></trkpt><trkpt lat="45.7555235" lon="12.796896"><ele>1.6666666666666665</ele><time>2026-03-22T16:15:29.695Z</time></trkpt><trkpt lat="45.7554815" lon="12.796655"><ele>1.3333333333333333</ele><time>2026-03-22T16:15:30.694Z</time></trkpt><trkpt lat="45.7554395" lon="12.796415"><ele>1.0</ele><time>2026-03-22T16:15:31.699Z</time></trkpt><trkpt lat="45.755401" lon="12.7961725"><ele>0.6666666666666666</ele><time>2026-03-22T16:15:32.702Z</time></trkpt><trkpt lat="45.7553607" lon="12.7959295"><ele>0.3333333333333333</ele><time>2026-03-22T16:15:33.693Z</time></trkpt><trkpt lat="45.7553203" lon="12.7956854"><ele>0.0</ele><time>2026-03-22T16:15:34.703Z</time></trkpt><trkpt lat="45.75528" lon="12.7954407"><ele>0.0</ele><time>2026-03-22T16:15:35.7Z</time></trkpt><trkpt lat="45.7552336" lon="12.7952001"><ele>0.0</ele><time>2026-03-22T16:15:36.723Z</time></trkpt><trkpt lat="45.7551924" lon="12.7949623"><ele>0.0</ele><time>2026-03-22T16:15:37.7Z</time></trkpt><trkpt lat="45.7551526" lon="12.7947276"><ele>0.0</ele><time>2026-03-22T16:15:38.696Z</time></trkpt><trkpt lat="45.7551138" lon="12.7944932"><ele>0.0</ele><time>2026-03-22T16:15:39.69Z</time></trkpt><trkpt lat="45.755073" lon="12.7942587"><ele>0.0</ele><time>2026-03-22T16:15:40.697Z</time></trkpt><trkpt lat="45.755034" lon="12.7940207"><ele>0.0</ele><time>2026-03-22T16:15:41.701Z</time></trkpt><trkpt lat="45.7549921" lon="12.7937793"><ele>0.0</ele><time>2026-03-22T16:15:42.704Z</time></trkpt><trkpt lat="45.7549497" lon="12.7935338"><ele>0.0</ele><time>2026-03-22T16:15:43.715Z</time></trkpt><trkpt lat="45.7549027" lon="12.7932874"><ele>0.3333333333333333</ele><time>2026-03-22T16:15:44.685Z</time></trkpt><trkpt lat="45.754859" lon="12.7930395"><ele>0.6666666666666666</ele><time>2026-03-22T16:15:45.695Z</time></trkpt><trkpt lat="45.7548156" lon="12.7927948"><ele>1.0</ele><time>2026-03-22T16:15:46.694Z</time></trkpt><trkpt lat="45.7547721" lon="12.7925564"><ele>0.0</ele><time>2026-03-22T16:15:47.693Z</time></trkpt><trkpt lat="45.7547302" lon="12.7923236"><ele>-1.0</ele><time>2026-03-22T16:15:48.705Z</time></trkpt><trkpt lat="45.7546948" lon="12.7920929"><ele>-2.0</ele><time>2026-03-22T16:15:49.703Z</time></trkpt><trkpt lat="45.754649" lon="12.7918663"><ele>-2.0</ele><time>2026-03-22T16:15:50.7Z</time></trkpt><trkpt lat="45.7546082" lon="12.7916348"><ele>-2.0</ele><time>2026-03-22T16:15:51.698Z</time></trkpt><trkpt lat="45.7545677" lon="12.791401"><ele>-2.0</ele><time>2026-03-22T16:15:52.689Z</time></trkpt><trkpt lat="45.7545264" lon="12.7911675"><ele>-1.3333333333333333</ele><time>2026-03-22T16:15:53.694Z</time></trkpt><trkpt lat="45.7544847" lon="12.7909343"><ele>-0.6666666666666666</ele><time>2026-03-22T16:15:54.704Z</time></trkpt><trkpt lat="45.7544423" lon="12.7907031"><ele>0.0</ele><time>2026-03-22T16:15:55.698Z</time></trkpt><trkpt lat="45.7544013" lon="12.7904746"><ele>0.0</ele><time>2026-03-22T16:15:56.715Z</time></trkpt><trkpt lat="45.7543587" lon="12.7902486"><ele>0.0</ele><time>2026-03-22T16:15:57.702Z</time></trkpt><trkpt lat="45.7543179" lon="12.7900235"><ele>0.0</ele><time>2026-03-22T16:15:58.692Z</time></trkpt><trkpt lat="45.7542788" lon="12.7897976"><ele>0.6666666666666666</ele><time>2026-03-22T16:15:59.691Z</time></trkpt><trkpt lat="45.754235" lon="12.7895702"><ele>1.3333333333333333</ele><time>2026-03-22T16:16:00.704Z</time></trkpt><trkpt lat="45.7541725" lon="12.7893506"><ele>2.0</ele><time>2026-03-22T16:16:01.702Z</time></trkpt><trkpt lat="45.754103" lon="12.7891333"><ele>2.0</ele><time>2026-03-22T16:16:02.693Z</time></trkpt><trkpt lat="45.7540205" lon="12.7889238"><ele>2.0</ele><time>2026-03-22T16:16:03.694Z</time></trkpt><trkpt lat="45.7539302" lon="12.788719"><ele>2.0</ele><time>2026-03-22T16:16:04.713Z</time></trkpt><trkpt lat="45.753833" lon="12.7885112"><ele>2.0</ele><time>2026-03-22T16:16:05.714Z</time></trkpt><trkpt lat="45.7537254" lon="12.7883033"><ele>2.0</ele><time>2026-03-22T16:16:06.714Z</time></trkpt><trkpt lat="45.7535994" lon="12.788106"><ele>2.0</ele><time>2026-03-22T16:16:07.727Z</time></trkpt><trkpt lat="45.7534579" lon="12.7879224"><ele>2.0</ele><time>2026-03-22T16:16:08.704Z</time></trkpt><trkpt lat="45.7533025" lon="12.7877525"><ele>2.0</ele><time>2026-03-22T16:16:09.696Z</time></trkpt><trkpt lat="45.7531484" lon="12.7875802"><ele>2.0</ele><time>2026-03-22T16:16:10.691Z</time></trkpt><trkpt lat="45.7529944" lon="12.7874127"><ele>2.0</ele><time>2026-03-22T16:16:11.723Z</time></trkpt><trkpt lat="45.7528451" lon="12.7872412"><ele>2.0</ele><time>2026-03-22T16:16:12.709Z</time></trkpt><trkpt lat="45.752695" lon="12.7870734"><ele>2.0</ele><time>2026-03-22T16:16:13.715Z</time></trkpt><trkpt lat="45.7525516" lon="12.7868976"><ele>1.3333333333333333</ele><time>2026-03-22T16:16:14.705Z</time></trkpt><trkpt lat="45.7524069" lon="12.7867277"><ele>0.6666666666666666</ele><time>2026-03-22T16:16:15.703Z</time></trkpt><trkpt lat="45.75226" lon="12.7865655"><ele>0.0</ele><time>2026-03-22T16:16:16.692Z</time></trkpt><trkpt lat="45.7521162" lon="12.7864"><ele>0.0</ele><time>2026-03-22T16:16:17.711Z</time></trkpt><trkpt lat="45.7519731" lon="12.7862346"><ele>0.0</ele><time>2026-03-22T16:16:18.714Z</time></trkpt><trkpt lat="45.7518287" lon="12.7860705"><ele>0.0</ele><time>2026-03-22T16:16:19.689Z</time></trkpt><trkpt lat="45.7516882" lon="12.7859016"><ele>-0.3333333333333333</ele><time>2026-03-22T16:16:20.683Z</time></trkpt><trkpt lat="45.7515474" lon="12.7857388"><ele>-0.6666666666666666</ele><time>2026-03-22T16:16:21.695Z</time></trkpt><trkpt lat="45.7514092" lon="12.7855791"><ele>-1.0</ele><time>2026-03-22T16:16:22.698Z</time></trkpt><trkpt lat="45.7512729" lon="12.7854239"><ele>-1.0</ele><time>2026-03-22T16:16:23.688Z</time></trkpt><trkpt lat="45.7511398" lon="12.7852724"><ele>-1.0</ele><time>2026-03-22T16:16:24.696Z</time></trkpt><trkpt lat="45.7510089" lon="12.7851224"><ele>-1.0</ele><time>2026-03-22T16:16:25.691Z</time></trkpt><trkpt lat="45.750879" lon="12.7849732"><ele>-1.0</ele><time>2026-03-22T16:16:26.696Z</time></trkpt><trkpt lat="45.7507502" lon="12.7848233"><ele>-1.0</ele><time>2026-03-22T16:16:27.703Z</time></trkpt><trkpt lat="45.7506205" lon="12.7846736"><ele>-1.0</ele><time>2026-03-22T16:16:28.696Z</time></trkpt><trkpt lat="45.7504867" lon="12.7845254"><ele>-1.0</ele><time>2026-03-22T16:16:29.722Z</time></trkpt><trkpt lat="45.7503583" lon="12.7843612"><ele>-1.0</ele><time>2026-03-22T16:16:30.723Z</time></trkpt><trkpt lat="45.7502368" lon="12.7841805"><ele>-1.0</ele><time>2026-03-22T16:16:31.706Z</time></trkpt><trkpt lat="45.7501221" lon="12.7839849"><ele>-0.6666666666666666</ele><time>2026-03-22T16:16:32.713Z</time></trkpt><trkpt lat="45.7500178" lon="12.7837721"><ele>-0.3333333333333333</ele><time>2026-03-22T16:16:33.711Z</time></trkpt><trkpt lat="45.7499301" lon="12.7835379"><ele>0.0</ele><time>2026-03-22T16:16:34.687Z</time></trkpt><trkpt lat="45.7498406" lon="12.7833023"><ele>-0.3333333333333333</ele><time>2026-03-22T16:16:35.698Z</time></trkpt><trkpt lat="45.7497654" lon="12.7830564"><ele>-0.6666666666666666</ele><time>2026-03-22T16:16:36.705Z</time></trkpt><trkpt lat="45.7496989" lon="12.7828094"><ele>-1.0</ele><time>2026-03-22T16:16:37.701Z</time></trkpt><trkpt lat="45.7496402" lon="12.7825634"><ele>-1.0</ele><time>2026-03-22T16:16:38.715Z</time></trkpt><trkpt lat="45.7495881" lon="12.782319"><ele>-1.0</ele><time>2026-03-22T16:16:39.718Z</time></trkpt><trkpt lat="45.7495375" lon="12.7820791"><ele>-1.0</ele><time>2026-03-22T16:16:40.699Z</time></trkpt><trkpt lat="45.7495001" lon="12.7818396"><ele>-0.6666666666666666</ele><time>2026-03-22T16:16:41.71Z</time></trkpt><trkpt lat="45.7494616" lon="12.781607"><ele>-0.3333333333333333</ele><time>2026-03-22T16:16:42.712Z</time></trkpt><trkpt lat="45.7494265" lon="12.781379"><ele>0.0</ele><time>2026-03-22T16:16:43.732Z</time></trkpt><trkpt lat="45.7493873" lon="12.7811576"><ele>0.0</ele><time>2026-03-22T16:16:44.716Z</time></trkpt><trkpt lat="45.7493488" lon="12.7809407"><ele>0.0</ele><time>2026-03-22T16:16:45.709Z</time></trkpt><trkpt lat="45.7493091" lon="12.7807256"><ele>0.0</ele><time>2026-03-22T16:16:46.687Z</time></trkpt><trkpt lat="45.7492705" lon="12.7805067"><ele>0.0</ele><time>2026-03-22T16:16:47.687Z</time></trkpt><trkpt lat="45.7492337" lon="12.780282"><ele>0.0</ele><time>2026-03-22T16:16:48.688Z</time></trkpt><trkpt lat="45.7491969" lon="12.7800532"><ele>0.0</ele><time>2026-03-22T16:16:49.698Z</time></trkpt><trkpt lat="45.7491561" lon="12.7798212"><ele>0.0</ele><time>2026-03-22T16:16:50.695Z</time></trkpt><trkpt lat="45.7491143" lon="12.779584"><ele>0.0</ele><time>2026-03-22T16:16:51.72Z</time></trkpt><trkpt lat="45.7490684" lon="12.779344"><ele>0.0</ele><time>2026-03-22T16:16:52.737Z</time></trkpt><trkpt lat="45.7490153" lon="12.7791057"><ele>0.3333333333333333</ele><time>2026-03-22T16:16:53.709Z</time></trkpt><trkpt lat="45.7489728" lon="12.7788616"><ele>0.6666666666666666</ele><time>2026-03-22T16:16:54.708Z</time></trkpt><trkpt lat="45.7489316" lon="12.778615"><ele>1.0</ele><time>2026-03-22T16:16:55.705Z</time></trkpt><trkpt lat="45.7488863" lon="12.7783697"><ele>1.3333333333333333</ele><time>2026-03-22T16:16:56.703Z</time></trkpt><trkpt lat="45.7488486" lon="12.7781214"><ele>1.6666666666666665</ele><time>2026-03-22T16:16:57.7Z</time></trkpt><trkpt lat="45.7488083" lon="12.777876"><ele>2.0</ele><time>2026-03-22T16:16:58.711Z</time></trkpt><trkpt lat="45.7487605" lon="12.7776337"><ele>1.3333333333333333</ele><time>2026-03-22T16:16:59.704Z</time></trkpt><trkpt lat="45.7487164" lon="12.7773866"><ele>0.6666666666666666</ele><time>2026-03-22T16:17:00.709Z</time></trkpt><trkpt lat="45.7486704" lon="12.7771371"><ele>0.0</ele><time>2026-03-22T16:17:01.72Z</time></trkpt><trkpt lat="45.7486233" lon="12.7768868"><ele>-0.3333333333333333</ele><time>2026-03-22T16:17:02.702Z</time></trkpt><trkpt lat="45.7485784" lon="12.7766356"><ele>-0.6666666666666666</ele><time>2026-03-22T16:17:03.723Z</time></trkpt><trkpt lat="45.7485345" lon="12.7763848"><ele>-1.0</ele><time>2026-03-22T16:17:04.697Z</time></trkpt><trkpt lat="45.748491" lon="12.7761354"><ele>-0.6666666666666666</ele><time>2026-03-22T16:17:05.698Z</time></trkpt><trkpt lat="45.748446" lon="12.7758873"><ele>-0.3333333333333333</ele><time>2026-03-22T16:17:06.698Z</time></trkpt><trkpt lat="45.7483982" lon="12.7756401"><ele>0.0</ele><time>2026-03-22T16:17:07.702Z</time></trkpt><trkpt lat="45.7483491" lon="12.7753929"><ele>-0.3333333333333333</ele><time>2026-03-22T16:17:08.702Z</time></trkpt><trkpt lat="45.7482932" lon="12.7751471"><ele>-0.6666666666666666</ele><time>2026-03-22T16:17:09.704Z</time></trkpt><trkpt lat="45.7482394" lon="12.7749031"><ele>-1.0</ele><time>2026-03-22T16:17:10.708Z</time></trkpt><trkpt lat="45.7481792" lon="12.774667"><ele>-1.0</ele><time>2026-03-22T16:17:11.7Z</time></trkpt><trkpt lat="45.7481115" lon="12.7744371"><ele>-1.0</ele><time>2026-03-22T16:17:12.716Z</time></trkpt><trkpt lat="45.7480424" lon="12.7742115"><ele>-1.0</ele><time>2026-03-22T16:17:13.706Z</time></trkpt><trkpt lat="45.7479699" lon="12.7739915"><ele>-1.0</ele><time>2026-03-22T16:17:14.698Z</time></trkpt><trkpt lat="45.7479071" lon="12.7737697"><ele>-1.0</ele><time>2026-03-22T16:17:15.727Z</time></trkpt><trkpt lat="45.7478392" lon="12.773558"><ele>-1.0</ele><time>2026-03-22T16:17:16.7Z</time></trkpt><trkpt lat="45.7477635" lon="12.7733583"><ele>-0.3333333333333333</ele><time>2026-03-22T16:17:17.701Z</time></trkpt><trkpt lat="45.747694" lon="12.7731574"><ele>0.3333333333333333</ele><time>2026-03-22T16:17:18.739Z</time></trkpt><trkpt lat="45.7476332" lon="12.7729485"><ele>1.0</ele><time>2026-03-22T16:17:19.708Z</time></trkpt><trkpt lat="45.7475593" lon="12.7727463"><ele>0.6666666666666666</ele><time>2026-03-22T16:17:20.693Z</time></trkpt><trkpt lat="45.7474893" lon="12.7725382"><ele>0.3333333333333333</ele><time>2026-03-22T16:17:21.703Z</time></trkpt><trkpt lat="45.7474176" lon="12.7723259"><ele>0.0</ele><time>2026-03-22T16:17:22.719Z</time></trkpt><trkpt lat="45.7473453" lon="12.7721103"><ele>0.0</ele><time>2026-03-22T16:17:23.761Z</time></trkpt><trkpt lat="45.7472634" lon="12.7718959"><ele>0.0</ele><time>2026-03-22T16:17:24.708Z</time></trkpt><trkpt lat="45.7471924" lon="12.771666"><ele>0.0</ele><time>2026-03-22T16:17:25.712Z</time></trkpt><trkpt lat="45.7471172" lon="12.7714373"><ele>0.0</ele><time>2026-03-22T16:17:26.71Z</time></trkpt><trkpt lat="45.7470435" lon="12.7712073"><ele>0.0</ele><time>2026-03-22T16:17:27.714Z</time></trkpt><trkpt lat="45.7469648" lon="12.7709827"><ele>0.0</ele><time>2026-03-22T16:17:28.702Z</time></trkpt><trkpt lat="45.7469051" lon="12.7707482"><ele>1.0</ele><time>2026-03-22T16:17:29.72Z</time></trkpt><trkpt lat="45.7468534" lon="12.770516"><ele>2.0</ele><time>2026-03-22T16:17:30.693Z</time></trkpt><trkpt lat="45.7468199" lon="12.7702721"><ele>3.0</ele><time>2026-03-22T16:17:31.708Z</time></trkpt><trkpt lat="45.7467783" lon="12.770033"><ele>3.0</ele><time>2026-03-22T16:17:32.708Z</time></trkpt><trkpt lat="45.7467515" lon="12.769794"><ele>3.0</ele><time>2026-03-22T16:17:33.714Z</time></trkpt><trkpt lat="45.746727" lon="12.7695614"><ele>3.0</ele><time>2026-03-22T16:17:34.702Z</time></trkpt><trkpt lat="45.7467165" lon="12.7693311"><ele>3.0</ele><time>2026-03-22T16:17:35.706Z</time></trkpt><trkpt lat="45.7467071" lon="12.7691033"><ele>3.0</ele><time>2026-03-22T16:17:36.724Z</time></trkpt><trkpt lat="45.7467137" lon="12.7688713"><ele>3.0</ele><time>2026-03-22T16:17:37.717Z</time></trkpt><trkpt lat="45.7467253" lon="12.7686366"><ele>3.0</ele><time>2026-03-22T16:17:38.732Z</time></trkpt><trkpt lat="45.7467382" lon="12.7683986"><ele>3.0</ele><time>2026-03-22T16:17:39.696Z</time></trkpt><trkpt lat="45.7467485" lon="12.7681603"><ele>3.0</ele><time>2026-03-22T16:17:40.698Z</time></trkpt><trkpt lat="45.7467622" lon="12.7679241"><ele>2.6666666666666665</ele><time>2026-03-22T16:17:41.711Z</time></trkpt><trkpt lat="45.7467722" lon="12.767691"><ele>2.333333333333333</ele><time>2026-03-22T16:17:42.695Z</time></trkpt><trkpt lat="45.7467812" lon="12.767462"><ele>2.0</ele><time>2026-03-22T16:17:43.698Z</time></trkpt><trkpt lat="45.7467861" lon="12.7672383"><ele>2.0</ele><time>2026-03-22T16:17:44.7Z</time></trkpt><trkpt lat="45.7467954" lon="12.7670199"><ele>2.0</ele><time>2026-03-22T16:17:45.702Z</time></trkpt><trkpt lat="45.7468036" lon="12.7668074"><ele>2.0</ele><time>2026-03-22T16:17:46.708Z</time></trkpt><trkpt lat="45.74681" lon="12.7665985"><ele>2.0</ele><time>2026-03-22T16:17:47.704Z</time></trkpt><trkpt lat="45.7468162" lon="12.7663919"><ele>1.5</ele><time>2026-03-22T16:17:48.72Z</time></trkpt><trkpt lat="45.7468223" lon="12.7661859"><ele>1.0</ele><time>2026-03-22T16:17:49.695Z</time></trkpt><trkpt lat="45.7468274" lon="12.7659802"><ele>0.5</ele><time>2026-03-22T16:17:50.69Z</time></trkpt><trkpt lat="45.7468325" lon="12.7657757"><ele>0.0</ele><time>2026-03-22T16:17:51.706Z</time></trkpt><trkpt lat="45.7468286" lon="12.7655737"><ele>0.0</ele><time>2026-03-22T16:17:52.705Z</time></trkpt><trkpt lat="45.7468289" lon="12.7653711"><ele>0.0</ele><time>2026-03-22T16:17:53.699Z</time></trkpt><trkpt lat="45.7468304" lon="12.765169"><ele>0.0</ele><time>2026-03-22T16:17:54.699Z</time></trkpt><trkpt lat="45.7468314" lon="12.7649666"><ele>0.0</ele><time>2026-03-22T16:17:55.689Z</time></trkpt><trkpt lat="45.7468313" lon="12.7647642"><ele>0.0</ele><time>2026-03-22T16:17:56.684Z</time></trkpt><trkpt lat="45.7468344" lon="12.7645627"><ele>0.0</ele><time>2026-03-22T16:17:57.701Z</time></trkpt><trkpt lat="45.7468375" lon="12.7643641"><ele>0.0</ele><time>2026-03-22T16:17:58.696Z</time></trkpt><trkpt lat="45.7468392" lon="12.764171"><ele>0.0</ele><time>2026-03-22T16:17:59.71Z</time></trkpt><trkpt lat="45.7468406" lon="12.7639823"><ele>0.0</ele><time>2026-03-22T16:18:00.699Z</time></trkpt><trkpt lat="45.7468437" lon="12.7637982"><ele>0.0</ele><time>2026-03-22T16:18:01.697Z</time></trkpt><trkpt lat="45.7468447" lon="12.7636182"><ele>0.0</ele><time>2026-03-22T16:18:02.713Z</time></trkpt><trkpt lat="45.7468453" lon="12.7634422"><ele>0.0</ele><time>2026-03-22T16:18:03.706Z</time></trkpt><trkpt lat="45.7468471" lon="12.7632701"><ele>0.25</ele><time>2026-03-22T16:18:04.697Z</time></trkpt><trkpt lat="45.74685" lon="12.7631008"><ele>0.5</ele><time>2026-03-22T16:18:05.714Z</time></trkpt><trkpt lat="45.7468532" lon="12.7629351"><ele>0.75</ele><time>2026-03-22T16:18:06.683Z</time></trkpt><trkpt lat="45.7468558" lon="12.7627723"><ele>1.0</ele><time>2026-03-22T16:18:07.727Z</time></trkpt><trkpt lat="45.7468636" lon="12.7626169"><ele>1.0</ele><time>2026-03-22T16:18:08.711Z</time></trkpt><trkpt lat="45.746867" lon="12.7624743"><ele>1.0</ele><time>2026-03-22T16:18:09.706Z</time></trkpt><trkpt lat="45.7468585" lon="12.7623444"><ele>1.0</ele><time>2026-03-22T16:18:10.702Z</time></trkpt><trkpt lat="45.7468615" lon="12.7622156"><ele>1.0</ele><time>2026-03-22T16:18:11.703Z</time></trkpt><trkpt lat="45.7468644" lon="12.7620916"><ele>1.0</ele><time>2026-03-22T16:18:12.706Z</time></trkpt><trkpt lat="45.7468677" lon="12.7619712"><ele>0.9999999999999999</ele><time>2026-03-22T16:18:13.695Z</time></trkpt><trkpt lat="45.7468706" lon="12.7618554"><ele>1.0</ele><time>2026-03-22T16:18:14.704Z</time></trkpt><trkpt lat="45.746872" lon="12.7617417"><ele>1.0</ele><time>2026-03-22T16:18:15.709Z</time></trkpt><trkpt lat="45.7468734" lon="12.7616334"><ele>1.0</ele><time>2026-03-22T16:18:16.705Z</time></trkpt><trkpt lat="45.7468745" lon="12.7615261"><ele>0.9999999999999999</ele><time>2026-03-22T16:18:17.705Z</time></trkpt><trkpt lat="45.7468743" lon="12.7614199"><ele>1.0</ele><time>2026-03-22T16:18:18.695Z</time></trkpt><trkpt lat="45.7468731" lon="12.7613123"><ele>0.9999999999999999</ele><time>2026-03-22T16:18:19.686Z</time></trkpt><trkpt lat="45.7468715" lon="12.7612003"><ele>1.0</ele><time>2026-03-22T16:18:20.699Z</time></trkpt><trkpt lat="45.7468695" lon="12.7610831"><ele>1.0</ele><time>2026-03-22T16:18:21.708Z</time></trkpt><trkpt lat="45.7468634" lon="12.7609655"><ele>1.0</ele><time>2026-03-22T16:18:22.705Z</time></trkpt><trkpt lat="45.7468532" lon="12.7608447"><ele>0.9999999999999999</ele><time>2026-03-22T16:18:23.718Z</time></trkpt><trkpt lat="45.7468351" lon="12.7607243"><ele>1.0</ele><time>2026-03-22T16:18:24.716Z</time></trkpt><trkpt lat="45.7468078" lon="12.7605944"><ele>1.25</ele><time>2026-03-22T16:18:25.716Z</time></trkpt><trkpt lat="45.7467728" lon="12.7604503"><ele>1.5</ele><time>2026-03-22T16:18:26.69Z</time></trkpt><trkpt lat="45.7467308" lon="12.7603012"><ele>1.75</ele><time>2026-03-22T16:18:27.706Z</time></trkpt><trkpt lat="45.7466889" lon="12.7601439"><ele>2.0</ele><time>2026-03-22T16:18:28.7Z</time></trkpt><trkpt lat="45.7466521" lon="12.7599767"><ele>2.0</ele><time>2026-03-22T16:18:29.704Z</time></trkpt><trkpt lat="45.7466234" lon="12.7598049"><ele>2.0</ele><time>2026-03-22T16:18:30.695Z</time></trkpt><trkpt lat="45.7466005" lon="12.7596271"><ele>2.0</ele><time>2026-03-22T16:18:31.705Z</time></trkpt><trkpt lat="45.7465868" lon="12.759458"><ele>2.0</ele><time>2026-03-22T16:18:32.684Z</time></trkpt><trkpt lat="45.7465804" lon="12.7592881"><ele>2.0</ele><time>2026-03-22T16:18:33.705Z</time></trkpt><trkpt lat="45.7465905" lon="12.7591321"><ele>2.0</ele><time>2026-03-22T16:18:34.688Z</time></trkpt><trkpt lat="45.7466235" lon="12.7590406"><ele>2.0</ele><time>2026-03-22T16:18:35.704Z</time></trkpt><trkpt lat="45.7466771" lon="12.7589311"><ele>2.0</ele><time>2026-03-22T16:18:36.691Z</time></trkpt><trkpt lat="45.7467181" lon="12.7587477"><ele>2.0</ele><time>2026-03-22T16:18:38.686Z</time></trkpt><trkpt lat="45.7467138" lon="12.7586528"><ele>2.25</ele><time>2026-03-22T16:18:39.696Z</time></trkpt><trkpt lat="45.746619" lon="12.7584116"><ele>2.5</ele><time>2026-03-22T16:18:41.704Z</time></trkpt><trkpt lat="45.7465754" lon="12.7582916"><ele>2.75</ele><time>2026-03-22T16:18:42.714Z</time></trkpt><trkpt lat="45.7465483" lon="12.7581591"><ele>3.0</ele><time>2026-03-22T16:18:43.698Z</time></trkpt><trkpt lat="45.7465322" lon="12.7578904"><ele>2.6666666666666665</ele><time>2026-03-22T16:18:44.697Z</time></trkpt><trkpt lat="45.746509" lon="12.7576426"><ele>2.333333333333333</ele><time>2026-03-22T16:18:45.711Z</time></trkpt><trkpt lat="45.7464697" lon="12.7574138"><ele>2.0</ele><time>2026-03-22T16:18:46.684Z</time></trkpt><trkpt lat="45.7464223" lon="12.7571942"><ele>2.0</ele><time>2026-03-22T16:18:47.706Z</time></trkpt><trkpt lat="45.7463718" lon="12.7569808"><ele>2.0</ele><time>2026-03-22T16:18:48.703Z</time></trkpt><trkpt lat="45.7463214" lon="12.7567834"><ele>2.0</ele><time>2026-03-22T16:18:49.719Z</time></trkpt><trkpt lat="45.7462735" lon="12.7565862"><ele>1.25</ele><time>2026-03-22T16:18:50.713Z</time></trkpt><trkpt lat="45.7462248" lon="12.7563819"><ele>0.5</ele><time>2026-03-22T16:18:51.691Z</time></trkpt><trkpt lat="45.7461772" lon="12.7561856"><ele>-0.25</ele><time>2026-03-22T16:18:52.714Z</time></trkpt><trkpt lat="45.7461315" lon="12.7559945"><ele>-1.0</ele><time>2026-03-22T16:18:53.695Z</time></trkpt><trkpt lat="45.7460835" lon="12.7558028"><ele>-0.25</ele><time>2026-03-22T16:18:54.684Z</time></trkpt><trkpt lat="45.746031" lon="12.7556073"><ele>0.5</ele><time>2026-03-22T16:18:55.696Z</time></trkpt><trkpt lat="45.745981" lon="12.7554178"><ele>1.25</ele><time>2026-03-22T16:18:56.696Z</time></trkpt><trkpt lat="45.7459279" lon="12.7552204"><ele>2.0</ele><time>2026-03-22T16:18:57.687Z</time></trkpt><trkpt lat="45.7458731" lon="12.7550201"><ele>2.0</ele><time>2026-03-22T16:18:58.695Z</time></trkpt><trkpt lat="45.7458149" lon="12.7548161"><ele>2.0</ele><time>2026-03-22T16:18:59.711Z</time></trkpt><trkpt lat="45.7457563" lon="12.754611"><ele>2.0</ele><time>2026-03-22T16:19:00.695Z</time></trkpt><trkpt lat="45.7456956" lon="12.7544005"><ele>2.333333333333333</ele><time>2026-03-22T16:19:01.71Z</time></trkpt><trkpt lat="45.7456369" lon="12.7541952"><ele>2.6666666666666665</ele><time>2026-03-22T16:19:02.699Z</time></trkpt><trkpt lat="45.7455777" lon="12.7539877"><ele>3.0</ele><time>2026-03-22T16:19:03.691Z</time></trkpt><trkpt lat="45.7455194" lon="12.7537738"><ele>3.0</ele><time>2026-03-22T16:19:04.689Z</time></trkpt><trkpt lat="45.7454616" lon="12.7535616"><ele>3.0</ele><time>2026-03-22T16:19:05.717Z</time></trkpt><trkpt lat="45.7454011" lon="12.7533547"><ele>3.0</ele><time>2026-03-22T16:19:06.695Z</time></trkpt><trkpt lat="45.7453377" lon="12.7531392"><ele>3.0</ele><time>2026-03-22T16:19:07.702Z</time></trkpt><trkpt lat="45.7452763" lon="12.7529197"><ele>3.0</ele><time>2026-03-22T16:19:08.7Z</time></trkpt><trkpt lat="45.7452137" lon="12.7527026"><ele>3.0</ele><time>2026-03-22T16:19:09.674Z</time></trkpt><trkpt lat="45.7451519" lon="12.7524799"><ele>2.3333333333333335</ele><time>2026-03-22T16:19:10.693Z</time></trkpt><trkpt lat="45.7450908" lon="12.7522587"><ele>1.6666666666666665</ele><time>2026-03-22T16:19:11.707Z</time></trkpt><trkpt lat="45.7450298" lon="12.7520375"><ele>1.0</ele><time>2026-03-22T16:19:12.723Z</time></trkpt><trkpt lat="45.7449698" lon="12.7518236"><ele>1.0</ele><time>2026-03-22T16:19:13.693Z</time></trkpt><trkpt lat="45.7449079" lon="12.7516036"><ele>1.0</ele><time>2026-03-22T16:19:14.688Z</time></trkpt><trkpt lat="45.7448449" lon="12.7513829"><ele>1.0</ele><time>2026-03-22T16:19:15.702Z</time></trkpt><trkpt lat="45.7447831" lon="12.7511618"><ele>1.0</ele><time>2026-03-22T16:19:16.692Z</time></trkpt><trkpt lat="45.7447209" lon="12.7509378"><ele>1.0</ele><time>2026-03-22T16:19:17.706Z</time></trkpt><trkpt lat="45.7446593" lon="12.7507156"><ele>1.0</ele><time>2026-03-22T16:19:18.706Z</time></trkpt><trkpt lat="45.7445983" lon="12.7504955"><ele>1.0</ele><time>2026-03-22T16:19:19.713Z</time></trkpt><trkpt lat="45.7445383" lon="12.7502736"><ele>1.0</ele><time>2026-03-22T16:19:20.704Z</time></trkpt><trkpt lat="45.7444781" lon="12.7500511"><ele>1.0</ele><time>2026-03-22T16:19:21.692Z</time></trkpt><trkpt lat="45.744417" lon="12.7498256"><ele>1.3333333333333333</ele><time>2026-03-22T16:19:22.702Z</time></trkpt><trkpt lat="45.7443555" lon="12.7496032"><ele>1.6666666666666665</ele><time>2026-03-22T16:19:23.694Z</time></trkpt><trkpt lat="45.7442938" lon="12.7493783"><ele>2.0</ele><time>2026-03-22T16:19:24.69Z</time></trkpt><trkpt lat="45.7442308" lon="12.7491518"><ele>1.3333333333333333</ele><time>2026-03-22T16:19:25.702Z</time></trkpt><trkpt lat="45.7441667" lon="12.7489245"><ele>0.6666666666666666</ele><time>2026-03-22T16:19:26.702Z</time></trkpt><trkpt lat="45.7441005" lon="12.7486925"><ele>0.0</ele><time>2026-03-22T16:19:27.696Z</time></trkpt><trkpt lat="45.7440324" lon="12.7484573"><ele>0.0</ele><time>2026-03-22T16:19:28.692Z</time></trkpt><trkpt lat="45.7439577" lon="12.7482194"><ele>0.0</ele><time>2026-03-22T16:19:29.695Z</time></trkpt><trkpt lat="45.7438761" lon="12.7479823"><ele>0.0</ele><time>2026-03-22T16:19:30.686Z</time></trkpt><trkpt lat="45.7437888" lon="12.7477452"><ele>-0.3333333333333333</ele><time>2026-03-22T16:19:31.709Z</time></trkpt><trkpt lat="45.7436988" lon="12.7475125"><ele>-0.6666666666666666</ele><time>2026-03-22T16:19:32.683Z</time></trkpt><trkpt lat="45.7436054" lon="12.7472745"><ele>-1.0</ele><time>2026-03-22T16:19:33.696Z</time></trkpt><trkpt lat="45.7435098" lon="12.7470359"><ele>-0.3333333333333333</ele><time>2026-03-22T16:19:34.696Z</time></trkpt><trkpt lat="45.7434103" lon="12.7467895"><ele>0.3333333333333333</ele><time>2026-03-22T16:19:35.697Z</time></trkpt><trkpt lat="45.7433089" lon="12.7465358"><ele>1.0</ele><time>2026-03-22T16:19:36.705Z</time></trkpt><trkpt lat="45.743204" lon="12.7462763"><ele>0.3333333333333333</ele><time>2026-03-22T16:19:37.703Z</time></trkpt><trkpt lat="45.743102" lon="12.7460114"><ele>-0.3333333333333333</ele><time>2026-03-22T16:19:38.706Z</time></trkpt><trkpt lat="45.7429963" lon="12.7457391"><ele>-1.0</ele><time>2026-03-22T16:19:39.706Z</time></trkpt><trkpt lat="45.7428881" lon="12.7454653"><ele>-1.0</ele><time>2026-03-22T16:19:40.694Z</time></trkpt><trkpt lat="45.7427755" lon="12.7451956"><ele>-1.0</ele><time>2026-03-22T16:19:41.701Z</time></trkpt><trkpt lat="45.7426608" lon="12.7449269"><ele>-1.0</ele><time>2026-03-22T16:19:42.688Z</time></trkpt><trkpt lat="45.7425449" lon="12.7446547"><ele>-1.0</ele><time>2026-03-22T16:19:43.721Z</time></trkpt><trkpt lat="45.7424334" lon="12.7443858"><ele>-1.0</ele><time>2026-03-22T16:19:44.706Z</time></trkpt><trkpt lat="45.7423224" lon="12.7441128"><ele>-1.0</ele><time>2026-03-22T16:19:45.687Z</time></trkpt><trkpt lat="45.7422115" lon="12.743836"><ele>-1.0</ele><time>2026-03-22T16:19:46.687Z</time></trkpt><trkpt lat="45.7421015" lon="12.7435563"><ele>-1.0</ele><time>2026-03-22T16:19:47.692Z</time></trkpt><trkpt lat="45.7419952" lon="12.7432767"><ele>-1.0</ele><time>2026-03-22T16:19:48.705Z</time></trkpt><trkpt lat="45.7418902" lon="12.7429995"><ele>-1.0</ele><time>2026-03-22T16:19:49.712Z</time></trkpt><trkpt lat="45.7417857" lon="12.7427285"><ele>-1.0</ele><time>2026-03-22T16:19:50.694Z</time></trkpt><trkpt lat="45.7416763" lon="12.7424549"><ele>-1.0</ele><time>2026-03-22T16:19:51.701Z</time></trkpt><trkpt lat="45.7415662" lon="12.7421897"><ele>-1.0</ele><time>2026-03-22T16:19:52.686Z</time></trkpt><trkpt lat="45.7414553" lon="12.7419254"><ele>-1.0</ele><time>2026-03-22T16:19:53.708Z</time></trkpt><trkpt lat="45.7413461" lon="12.7416579"><ele>-1.0</ele><time>2026-03-22T16:19:54.712Z</time></trkpt><trkpt lat="45.7412415" lon="12.7413933"><ele>-1.0</ele><time>2026-03-22T16:19:55.708Z</time></trkpt><trkpt lat="45.7411396" lon="12.7411341"><ele>-1.0</ele><time>2026-03-22T16:19:56.693Z</time></trkpt><trkpt lat="45.7410371" lon="12.7408709"><ele>-1.0</ele><time>2026-03-22T16:19:57.702Z</time></trkpt><trkpt lat="45.7409359" lon="12.7406178"><ele>-0.6666666666666666</ele><time>2026-03-22T16:19:58.686Z</time></trkpt><trkpt lat="45.7408299" lon="12.7403633"><ele>-0.3333333333333333</ele><time>2026-03-22T16:19:59.714Z</time></trkpt><trkpt lat="45.7407252" lon="12.7401175"><ele>0.0</ele><time>2026-03-22T16:20:00.693Z</time></trkpt><trkpt lat="45.7406174" lon="12.7398662"><ele>-0.6666666666666666</ele><time>2026-03-22T16:20:01.704Z</time></trkpt><trkpt lat="45.7405133" lon="12.7396168"><ele>-1.3333333333333333</ele><time>2026-03-22T16:20:02.692Z</time></trkpt><trkpt lat="45.7404097" lon="12.7393687"><ele>-2.0</ele><time>2026-03-22T16:20:03.708Z</time></trkpt><trkpt lat="45.7403104" lon="12.7391278"><ele>-2.0</ele><time>2026-03-22T16:20:04.702Z</time></trkpt><trkpt lat="45.7402118" lon="12.7388843"><ele>-2.0</ele><time>2026-03-22T16:20:05.701Z</time></trkpt><trkpt lat="45.7401132" lon="12.7386403"><ele>-2.0</ele><time>2026-03-22T16:20:06.704Z</time></trkpt><trkpt lat="45.7400158" lon="12.7384042"><ele>-2.0</ele><time>2026-03-22T16:20:07.7Z</time></trkpt><trkpt lat="45.7399164" lon="12.7381693"><ele>-2.0</ele><time>2026-03-22T16:20:08.687Z</time></trkpt><trkpt lat="45.739819" lon="12.7379314"><ele>-2.0</ele><time>2026-03-22T16:20:09.703Z</time></trkpt><trkpt lat="45.7397243" lon="12.7376955"><ele>-2.0</ele><time>2026-03-22T16:20:10.694Z</time></trkpt><trkpt lat="45.7396324" lon="12.7374585"><ele>-2.0</ele><time>2026-03-22T16:20:11.699Z</time></trkpt><trkpt lat="45.7395396" lon="12.7372223"><ele>-2.0</ele><time>2026-03-22T16:20:12.685Z</time></trkpt><trkpt lat="45.7394471" lon="12.7369919"><ele>-1.6666666666666665</ele><time>2026-03-22T16:20:13.689Z</time></trkpt><trkpt lat="45.7393559" lon="12.7367653"><ele>-1.3333333333333333</ele><time>2026-03-22T16:20:14.699Z</time></trkpt><trkpt lat="45.7392658" lon="12.7365447"><ele>-1.0</ele><time>2026-03-22T16:20:15.696Z</time></trkpt><trkpt lat="45.7391741" lon="12.7363188"><ele>-1.0</ele><time>2026-03-22T16:20:16.689Z</time></trkpt><trkpt lat="45.7390796" lon="12.7360872"><ele>-1.0</ele><time>2026-03-22T16:20:17.706Z</time></trkpt><trkpt lat="45.7389848" lon="12.7358531"><ele>-1.0</ele><time>2026-03-22T16:20:18.699Z</time></trkpt><trkpt lat="45.7388889" lon="12.7356176"><ele>-1.0</ele><time>2026-03-22T16:20:19.693Z</time></trkpt><trkpt lat="45.73879" lon="12.7353799"><ele>-1.0</ele><time>2026-03-22T16:20:20.712Z</time></trkpt><trkpt lat="45.738695" lon="12.735151"><ele>-1.0</ele><time>2026-03-22T16:20:21.696Z</time></trkpt><trkpt lat="45.7385994" lon="12.7349188"><ele>-1.0</ele><time>2026-03-22T16:20:22.7Z</time></trkpt><trkpt lat="45.738505" lon="12.7346895"><ele>-1.0</ele><time>2026-03-22T16:20:23.703Z</time></trkpt><trkpt lat="45.7384109" lon="12.73446"><ele>-1.0</ele><time>2026-03-22T16:20:24.703Z</time></trkpt><trkpt lat="45.7383173" lon="12.7342309"><ele>-1.0</ele><time>2026-03-22T16:20:25.696Z</time></trkpt><trkpt lat="45.7382224" lon="12.7339967"><ele>-1.0</ele><time>2026-03-22T16:20:26.707Z</time></trkpt><trkpt lat="45.7381279" lon="12.7337669"><ele>-1.0</ele><time>2026-03-22T16:20:27.701Z</time></trkpt><trkpt lat="45.738033" lon="12.7335361"><ele>-1.0</ele><time>2026-03-22T16:20:28.679Z</time></trkpt><trkpt lat="45.7379389" lon="12.7332992"><ele>-1.0</ele><time>2026-03-22T16:20:29.704Z</time></trkpt><trkpt lat="45.737846" lon="12.7330653"><ele>-1.0</ele><time>2026-03-22T16:20:30.701Z</time></trkpt><trkpt lat="45.7377523" lon="12.7328339"><ele>-0.3333333333333333</ele><time>2026-03-22T16:20:31.691Z</time></trkpt><trkpt lat="45.7376554" lon="12.7325922"><ele>0.3333333333333333</ele><time>2026-03-22T16:20:32.688Z</time></trkpt><trkpt lat="45.7375526" lon="12.7323396"><ele>1.0</ele><time>2026-03-22T16:20:33.688Z</time></trkpt><trkpt lat="45.7374469" lon="12.732083"><ele>0.3333333333333333</ele><time>2026-03-22T16:20:34.696Z</time></trkpt><trkpt lat="45.7373414" lon="12.7318231"><ele>-0.3333333333333333</ele><time>2026-03-22T16:20:35.693Z</time></trkpt><trkpt lat="45.7372308" lon="12.7315512"><ele>-1.0</ele><time>2026-03-22T16:20:36.706Z</time></trkpt><trkpt lat="45.7371151" lon="12.7312703"><ele>-1.0</ele><time>2026-03-22T16:20:37.706Z</time></trkpt><trkpt lat="45.7369957" lon="12.730977"><ele>-1.0</ele><time>2026-03-22T16:20:38.696Z</time></trkpt><trkpt lat="45.7368745" lon="12.7306702"><ele>-1.0</ele><time>2026-03-22T16:20:39.706Z</time></trkpt><trkpt lat="45.7367561" lon="12.7303684"><ele>-1.0</ele><time>2026-03-22T16:20:40.694Z</time></trkpt><trkpt lat="45.7366341" lon="12.7300638"><ele>0.5</ele><time>2026-03-22T16:20:41.708Z</time></trkpt><trkpt lat="45.736507" lon="12.7297545"><ele>2.0</ele><time>2026-03-22T16:20:42.71Z</time></trkpt><trkpt lat="45.7363772" lon="12.7294377"><ele>0.5</ele><time>2026-03-22T16:20:43.706Z</time></trkpt><trkpt lat="45.7362556" lon="12.7291351"><ele>-1.0</ele><time>2026-03-22T16:20:44.69Z</time></trkpt><trkpt lat="45.7361394" lon="12.7288445"><ele>-1.0</ele><time>2026-03-22T16:20:45.688Z</time></trkpt><trkpt lat="45.7360292" lon="12.7285671"><ele>-1.0</ele><time>2026-03-22T16:20:46.686Z</time></trkpt><trkpt lat="45.7359188" lon="12.7282943"><ele>-1.0</ele><time>2026-03-22T16:20:47.693Z</time></trkpt><trkpt lat="45.7358064" lon="12.7280216"><ele>-1.0</ele><time>2026-03-22T16:20:48.706Z</time></trkpt><trkpt lat="45.7356976" lon="12.72775"><ele>-1.0</ele><time>2026-03-22T16:20:49.686Z</time></trkpt><trkpt lat="45.7355893" lon="12.7274755"><ele>-1.0</ele><time>2026-03-22T16:20:50.717Z</time></trkpt><trkpt lat="45.7354857" lon="12.7272207"><ele>-1.0</ele><time>2026-03-22T16:20:51.693Z</time></trkpt><trkpt lat="45.7353761" lon="12.726962"><ele>-1.0</ele><time>2026-03-22T16:20:52.711Z</time></trkpt><trkpt lat="45.73527" lon="12.7267117"><ele>-1.0</ele><time>2026-03-22T16:20:53.681Z</time></trkpt><trkpt lat="45.7351635" lon="12.7264589"><ele>-1.0</ele><time>2026-03-22T16:20:54.679Z</time></trkpt><trkpt lat="45.7350604" lon="12.7262149"><ele>-1.0</ele><time>2026-03-22T16:20:55.686Z</time></trkpt><trkpt lat="45.734959" lon="12.7259706"><ele>-1.0</ele><time>2026-03-22T16:20:56.677Z</time></trkpt><trkpt lat="45.734858" lon="12.7257239"><ele>-1.0</ele><time>2026-03-22T16:20:57.697Z</time></trkpt><trkpt lat="45.7347609" lon="12.7254829"><ele>-1.0</ele><time>2026-03-22T16:20:58.694Z</time></trkpt><trkpt lat="45.7346647" lon="12.7252419"><ele>-1.0</ele><time>2026-03-22T16:20:59.679Z</time></trkpt><trkpt lat="45.7345679" lon="12.7249994"><ele>-1.0</ele><time>2026-03-22T16:21:00.681Z</time></trkpt><trkpt lat="45.7344699" lon="12.724756"><ele>-1.0</ele><time>2026-03-22T16:21:01.684Z</time></trkpt><trkpt lat="45.7343712" lon="12.7245124"><ele>-1.0</ele><time>2026-03-22T16:21:02.679Z</time></trkpt><trkpt lat="45.7342701" lon="12.7242645"><ele>-1.0</ele><time>2026-03-22T16:21:03.681Z</time></trkpt><trkpt lat="45.7341674" lon="12.7240142"><ele>-1.0</ele><time>2026-03-22T16:21:04.684Z</time></trkpt><trkpt lat="45.7340631" lon="12.72376"><ele>-1.0</ele><time>2026-03-22T16:21:05.685Z</time></trkpt><trkpt lat="45.7339591" lon="12.7235013"><ele>-1.3333333333333333</ele><time>2026-03-22T16:21:06.707Z</time></trkpt><trkpt lat="45.7338562" lon="12.7232476"><ele>-1.6666666666666665</ele><time>2026-03-22T16:21:07.69Z</time></trkpt><trkpt lat="45.7337525" lon="12.7229875"><ele>-2.0</ele><time>2026-03-22T16:21:08.692Z</time></trkpt><trkpt lat="45.7336492" lon="12.7227304"><ele>-1.3333333333333333</ele><time>2026-03-22T16:21:09.697Z</time></trkpt><trkpt lat="45.7335471" lon="12.7224743"><ele>-0.6666666666666666</ele><time>2026-03-22T16:21:10.685Z</time></trkpt><trkpt lat="45.7334473" lon="12.7222194"><ele>0.0</ele><time>2026-03-22T16:21:11.691Z</time></trkpt><trkpt lat="45.7333489" lon="12.7219647"><ele>-0.3333333333333333</ele><time>2026-03-22T16:21:12.705Z</time></trkpt><trkpt lat="45.7332488" lon="12.7217125"><ele>-0.6666666666666666</ele><time>2026-03-22T16:21:13.692Z</time></trkpt><trkpt lat="45.733149" lon="12.7214619"><ele>-1.0</ele><time>2026-03-22T16:21:14.691Z</time></trkpt><trkpt lat="45.7330501" lon="12.7212074"><ele>-0.6666666666666666</ele><time>2026-03-22T16:21:15.715Z</time></trkpt><trkpt lat="45.7329534" lon="12.7209579"><ele>-0.3333333333333333</ele><time>2026-03-22T16:21:16.704Z</time></trkpt><trkpt lat="45.7328545" lon="12.7207066"><ele>0.0</ele><time>2026-03-22T16:21:17.701Z</time></trkpt><trkpt lat="45.7327554" lon="12.7204558"><ele>0.0</ele><time>2026-03-22T16:21:18.713Z</time></trkpt><trkpt lat="45.7326556" lon="12.7202056"><ele>0.0</ele><time>2026-03-22T16:21:19.694Z</time></trkpt><trkpt lat="45.7325538" lon="12.7199521"><ele>0.0</ele><time>2026-03-22T16:21:20.696Z</time></trkpt><trkpt lat="45.7324517" lon="12.7197003"><ele>0.0</ele><time>2026-03-22T16:21:21.699Z</time></trkpt><trkpt lat="45.7323491" lon="12.7194477"><ele>0.0</ele><time>2026-03-22T16:21:22.686Z</time></trkpt><trkpt lat="45.7322416" lon="12.719189"><ele>0.0</ele><time>2026-03-22T16:21:23.707Z</time></trkpt><trkpt lat="45.7321377" lon="12.7189368"><ele>-0.3333333333333333</ele><time>2026-03-22T16:21:24.708Z</time></trkpt><trkpt lat="45.7320312" lon="12.7186807"><ele>-0.6666666666666666</ele><time>2026-03-22T16:21:25.712Z</time></trkpt><trkpt lat="45.7319277" lon="12.7184259"><ele>-1.0</ele><time>2026-03-22T16:21:26.703Z</time></trkpt><trkpt lat="45.7318243" lon="12.7181684"><ele>-1.0</ele><time>2026-03-22T16:21:27.709Z</time></trkpt><trkpt lat="45.731723" lon="12.7179154"><ele>-1.0</ele><time>2026-03-22T16:21:28.724Z</time></trkpt><trkpt lat="45.731626" lon="12.7176747"><ele>-1.0</ele><time>2026-03-22T16:21:29.705Z</time></trkpt><trkpt lat="45.7315289" lon="12.7174354"><ele>-0.3333333333333333</ele><time>2026-03-22T16:21:30.716Z</time></trkpt><trkpt lat="45.7314341" lon="12.7171964"><ele>0.3333333333333333</ele><time>2026-03-22T16:21:31.721Z</time></trkpt><trkpt lat="45.7313401" lon="12.7169568"><ele>1.0</ele><time>2026-03-22T16:21:32.692Z</time></trkpt><trkpt lat="45.731246" lon="12.7167202"><ele>1.0</ele><time>2026-03-22T16:21:33.693Z</time></trkpt><trkpt lat="45.7311529" lon="12.716496"><ele>1.0</ele><time>2026-03-22T16:21:34.704Z</time></trkpt><trkpt lat="45.7310633" lon="12.7162819"><ele>1.0</ele><time>2026-03-22T16:21:35.724Z</time></trkpt><trkpt lat="45.7309831" lon="12.71608"><ele>0.25</ele><time>2026-03-22T16:21:36.699Z</time></trkpt><trkpt lat="45.730909" lon="12.7158925"><ele>-0.5</ele><time>2026-03-22T16:21:37.694Z</time></trkpt><trkpt lat="45.7308407" lon="12.7157259"><ele>-1.25</ele><time>2026-03-22T16:21:38.688Z</time></trkpt><trkpt lat="45.7307837" lon="12.7155863"><ele>-2.0</ele><time>2026-03-22T16:21:39.688Z</time></trkpt><trkpt lat="45.7307354" lon="12.7154558"><ele>-2.0</ele><time>2026-03-22T16:21:40.7Z</time></trkpt><trkpt lat="45.7306938" lon="12.7153533"><ele>-2.0</ele><time>2026-03-22T16:21:41.701Z</time></trkpt><trkpt lat="45.7306793" lon="12.7152425"><ele>-2.0</ele><time>2026-03-22T16:21:42.7Z</time></trkpt><trkpt lat="45.7307008" lon="12.7151138"><ele>-2.0</ele><time>2026-03-22T16:21:43.684Z</time></trkpt><trkpt lat="45.7307332" lon="12.7149766"><ele>-2.0</ele><time>2026-03-22T16:21:44.689Z</time></trkpt><trkpt lat="45.7307412" lon="12.7148321"><ele>-2.0</ele><time>2026-03-22T16:21:45.686Z</time></trkpt><trkpt lat="45.7307205" lon="12.714681"><ele>-2.0</ele><time>2026-03-22T16:21:46.692Z</time></trkpt><trkpt lat="45.7306647" lon="12.7145414"><ele>-2.0</ele><time>2026-03-22T16:21:47.704Z</time></trkpt><trkpt lat="45.7305745" lon="12.7144362"><ele>-2.0</ele><time>2026-03-22T16:21:48.719Z</time></trkpt><trkpt lat="45.7304559" lon="12.7143666"><ele>-2.0</ele><time>2026-03-22T16:21:49.695Z</time></trkpt><trkpt lat="45.7303369" lon="12.7142852"><ele>-2.0</ele><time>2026-03-22T16:21:50.702Z</time></trkpt><trkpt lat="45.7302239" lon="12.7141759"><ele>-2.0</ele><time>2026-03-22T16:21:51.701Z</time></trkpt><trkpt lat="45.730139" lon="12.7140022"><ele>-2.0</ele><time>2026-03-22T16:21:52.707Z</time></trkpt><trkpt lat="45.7300488" lon="12.71381"><ele>-1.6666666666666665</ele><time>2026-03-22T16:21:53.701Z</time></trkpt><trkpt lat="45.7299546" lon="12.7136"><ele>-1.3333333333333333</ele><time>2026-03-22T16:21:54.699Z</time></trkpt><trkpt lat="45.7298583" lon="12.7133846"><ele>-1.0</ele><time>2026-03-22T16:21:55.703Z</time></trkpt><trkpt lat="45.7297648" lon="12.713162"><ele>-1.0</ele><time>2026-03-22T16:21:56.687Z</time></trkpt><trkpt lat="45.7296725" lon="12.7129346"><ele>-1.0</ele><time>2026-03-22T16:21:57.693Z</time></trkpt><trkpt lat="45.7295802" lon="12.7127013"><ele>-1.0</ele><time>2026-03-22T16:21:58.698Z</time></trkpt><trkpt lat="45.7294837" lon="12.7124627"><ele>-1.3333333333333333</ele><time>2026-03-22T16:21:59.701Z</time></trkpt><trkpt lat="45.7293819" lon="12.7122194"><ele>-1.6666666666666665</ele><time>2026-03-22T16:22:00.705Z</time></trkpt><trkpt lat="45.7292756" lon="12.7119695"><ele>-2.0</ele><time>2026-03-22T16:22:01.714Z</time></trkpt><trkpt lat="45.7291662" lon="12.7117078"><ele>-1.3333333333333333</ele><time>2026-03-22T16:22:02.679Z</time></trkpt><trkpt lat="45.7290551" lon="12.711436"><ele>-0.6666666666666666</ele><time>2026-03-22T16:22:03.694Z</time></trkpt><trkpt lat="45.7289476" lon="12.7111592"><ele>0.0</ele><time>2026-03-22T16:22:04.685Z</time></trkpt><trkpt lat="45.7288374" lon="12.7108858"><ele>0.0</ele><time>2026-03-22T16:22:05.691Z</time></trkpt><trkpt lat="45.728728" lon="12.7106162"><ele>0.0</ele><time>2026-03-22T16:22:06.702Z</time></trkpt><trkpt lat="45.7286199" lon="12.7103537"><ele>0.0</ele><time>2026-03-22T16:22:07.694Z</time></trkpt><trkpt lat="45.7285152" lon="12.710099"><ele>0.0</ele><time>2026-03-22T16:22:08.69Z</time></trkpt><trkpt lat="45.7284127" lon="12.7098524"><ele>0.0</ele><time>2026-03-22T16:22:09.682Z</time></trkpt><trkpt lat="45.7283129" lon="12.7096113"><ele>0.0</ele><time>2026-03-22T16:22:10.685Z</time></trkpt><trkpt lat="45.7282146" lon="12.7093727"><ele>0.0</ele><time>2026-03-22T16:22:11.696Z</time></trkpt><trkpt lat="45.7281199" lon="12.7091357"><ele>0.0</ele><time>2026-03-22T16:22:12.688Z</time></trkpt><trkpt lat="45.7280262" lon="12.7089002"><ele>0.0</ele><time>2026-03-22T16:22:13.694Z</time></trkpt><trkpt lat="45.72794" lon="12.7086609"><ele>-0.3333333333333333</ele><time>2026-03-22T16:22:14.684Z</time></trkpt><trkpt lat="45.7278493" lon="12.7084293"><ele>-0.6666666666666666</ele><time>2026-03-22T16:22:15.685Z</time></trkpt><trkpt lat="45.7277589" lon="12.7081996"><ele>-1.0</ele><time>2026-03-22T16:22:16.687Z</time></trkpt><trkpt lat="45.7276617" lon="12.7079748"><ele>0.0</ele><time>2026-03-22T16:22:17.696Z</time></trkpt><trkpt lat="45.727566" lon="12.7077483"><ele>1.0</ele><time>2026-03-22T16:22:18.684Z</time></trkpt><trkpt lat="45.7274746" lon="12.7075198"><ele>2.0</ele><time>2026-03-22T16:22:19.699Z</time></trkpt><trkpt lat="45.7273953" lon="12.7072853"><ele>2.0</ele><time>2026-03-22T16:22:20.691Z</time></trkpt><trkpt lat="45.7273093" lon="12.7070659"><ele>2.0</ele><time>2026-03-22T16:22:21.688Z</time></trkpt><trkpt lat="45.7272171" lon="12.706855"><ele>2.0</ele><time>2026-03-22T16:22:22.679Z</time></trkpt><trkpt lat="45.7271196" lon="12.7066474"><ele>2.0</ele><time>2026-03-22T16:22:23.679Z</time></trkpt><trkpt lat="45.7270201" lon="12.706439"><ele>2.0</ele><time>2026-03-22T16:22:24.693Z</time></trkpt><trkpt lat="45.7269113" lon="12.7062352"><ele>2.0</ele><time>2026-03-22T16:22:25.69Z</time></trkpt><trkpt lat="45.7267999" lon="12.7060246"><ele>2.0</ele><time>2026-03-22T16:22:26.694Z</time></trkpt><trkpt lat="45.7266725" lon="12.7058235"><ele>2.0</ele><time>2026-03-22T16:22:27.683Z</time></trkpt><trkpt lat="45.7265333" lon="12.7056271"><ele>2.0</ele><time>2026-03-22T16:22:28.69Z</time></trkpt><trkpt lat="45.7263905" lon="12.7054365"><ele>2.0</ele><time>2026-03-22T16:22:29.695Z</time></trkpt><trkpt lat="45.7262457" lon="12.705247"><ele>2.0</ele><time>2026-03-22T16:22:30.691Z</time></trkpt><trkpt lat="45.7261012" lon="12.7050559"><ele>2.0</ele><time>2026-03-22T16:22:31.695Z</time></trkpt><trkpt lat="45.7259559" lon="12.704865"><ele>1.3333333333333333</ele><time>2026-03-22T16:22:32.689Z</time></trkpt><trkpt lat="45.7258103" lon="12.7046754"><ele>0.6666666666666666</ele><time>2026-03-22T16:22:33.703Z</time></trkpt><trkpt lat="45.7256655" lon="12.7044867"><ele>0.0</ele><time>2026-03-22T16:22:34.694Z</time></trkpt><trkpt lat="45.7255211" lon="12.7042976"><ele>0.0</ele><time>2026-03-22T16:22:35.69Z</time></trkpt><trkpt lat="45.7253766" lon="12.7041098"><ele>0.0</ele><time>2026-03-22T16:22:36.702Z</time></trkpt><trkpt lat="45.725234" lon="12.7039193"><ele>0.0</ele><time>2026-03-22T16:22:37.693Z</time></trkpt><trkpt lat="45.7250928" lon="12.7037298"><ele>0.0</ele><time>2026-03-22T16:22:38.697Z</time></trkpt><trkpt lat="45.7249513" lon="12.7035473"><ele>0.0</ele><time>2026-03-22T16:22:39.694Z</time></trkpt><trkpt lat="45.7248115" lon="12.7033677"><ele>0.0</ele><time>2026-03-22T16:22:40.684Z</time></trkpt><trkpt lat="45.7246739" lon="12.7031882"><ele>0.0</ele><time>2026-03-22T16:22:41.695Z</time></trkpt><trkpt lat="45.7245379" lon="12.7030115"><ele>0.0</ele><time>2026-03-22T16:22:42.707Z</time></trkpt><trkpt lat="45.7244015" lon="12.7028378"><ele>0.0</ele><time>2026-03-22T16:22:43.704Z</time></trkpt><trkpt lat="45.7242657" lon="12.7026648"><ele>0.6666666666666666</ele><time>2026-03-22T16:22:44.697Z</time></trkpt><trkpt lat="45.7241317" lon="12.7024902"><ele>1.3333333333333333</ele><time>2026-03-22T16:22:45.691Z</time></trkpt><trkpt lat="45.7239976" lon="12.7023153"><ele>2.0</ele><time>2026-03-22T16:22:46.704Z</time></trkpt><trkpt lat="45.7238626" lon="12.7021399"><ele>2.0</ele><time>2026-03-22T16:22:47.711Z</time></trkpt><trkpt lat="45.7237275" lon="12.7019629"><ele>2.0</ele><time>2026-03-22T16:22:48.715Z</time></trkpt><trkpt lat="45.7235913" lon="12.7017876"><ele>2.0</ele><time>2026-03-22T16:22:49.694Z</time></trkpt><trkpt lat="45.7234644" lon="12.7016072"><ele>1.6666666666666665</ele><time>2026-03-22T16:22:50.713Z</time></trkpt><trkpt lat="45.7233395" lon="12.7014375"><ele>1.3333333333333333</ele><time>2026-03-22T16:22:51.72Z</time></trkpt><trkpt lat="45.7232199" lon="12.7012787"><ele>1.0</ele><time>2026-03-22T16:22:52.702Z</time></trkpt><trkpt lat="45.7231087" lon="12.7011307"><ele>1.25</ele><time>2026-03-22T16:22:53.727Z</time></trkpt><trkpt lat="45.7230038" lon="12.7009896"><ele>1.5</ele><time>2026-03-22T16:22:54.706Z</time></trkpt><trkpt lat="45.7229083" lon="12.7008593"><ele>1.75</ele><time>2026-03-22T16:22:55.703Z</time></trkpt><trkpt lat="45.7228289" lon="12.7007529"><ele>2.0</ele><time>2026-03-22T16:22:56.705Z</time></trkpt><trkpt lat="45.7227781" lon="12.7006787"><ele>1.9999999999999998</ele><time>2026-03-22T16:22:57.689Z</time></trkpt><trkpt lat="45.7227373" lon="12.7006041"><ele>2.0</ele><time>2026-03-22T16:22:59.698Z</time></trkpt><trkpt lat="45.7227019" lon="12.7005285"><ele>2.0</ele><time>2026-03-22T16:23:01.696Z</time></trkpt><trkpt lat="45.7226324" lon="12.7003982"><ele>2.0</ele><time>2026-03-22T16:23:03.688Z</time></trkpt><trkpt lat="45.7225881" lon="12.7002977"><ele>1.9999999999999998</ele><time>2026-03-22T16:23:04.698Z</time></trkpt><trkpt lat="45.7225415" lon="12.7001751"><ele>2.0</ele><time>2026-03-22T16:23:05.699Z</time></trkpt><trkpt lat="45.7224613" lon="12.7000629"><ele>2.25</ele><time>2026-03-22T16:23:06.689Z</time></trkpt><trkpt lat="45.7223492" lon="12.6999671"><ele>2.5</ele><time>2026-03-22T16:23:07.7Z</time></trkpt><trkpt lat="45.7222232" lon="12.6998755"><ele>2.75</ele><time>2026-03-22T16:23:08.695Z</time></trkpt><trkpt lat="45.7220949" lon="12.6997642"><ele>3.0</ele><time>2026-03-22T16:23:09.687Z</time></trkpt><trkpt lat="45.7219716" lon="12.699616"><ele>2.6666666666666665</ele><time>2026-03-22T16:23:10.695Z</time></trkpt><trkpt lat="45.7218437" lon="12.699455"><ele>2.333333333333333</ele><time>2026-03-22T16:23:11.684Z</time></trkpt><trkpt lat="45.7217082" lon="12.6992926"><ele>2.0</ele><time>2026-03-22T16:23:12.702Z</time></trkpt><trkpt lat="45.7215789" lon="12.6991142"><ele>2.0</ele><time>2026-03-22T16:23:13.737Z</time></trkpt><trkpt lat="45.7214453" lon="12.6989319"><ele>2.0</ele><time>2026-03-22T16:23:14.704Z</time></trkpt><trkpt lat="45.7213074" lon="12.6987434"><ele>2.0</ele><time>2026-03-22T16:23:15.704Z</time></trkpt><trkpt lat="45.7211645" lon="12.6985491"><ele>1.6666666666666665</ele><time>2026-03-22T16:23:16.685Z</time></trkpt><trkpt lat="45.7210123" lon="12.6983525"><ele>1.3333333333333333</ele><time>2026-03-22T16:23:17.717Z</time></trkpt><trkpt lat="45.7208635" lon="12.6981584"><ele>1.0</ele><time>2026-03-22T16:23:18.694Z</time></trkpt><trkpt lat="45.7207175" lon="12.697963"><ele>1.0</ele><time>2026-03-22T16:23:19.684Z</time></trkpt><trkpt lat="45.7205713" lon="12.6977675"><ele>1.0</ele><time>2026-03-22T16:23:20.696Z</time></trkpt><trkpt lat="45.720421" lon="12.6975787"><ele>1.0</ele><time>2026-03-22T16:23:21.7Z</time></trkpt><trkpt lat="45.7202705" lon="12.6973911"><ele>1.0</ele><time>2026-03-22T16:23:22.711Z</time></trkpt><trkpt lat="45.7201236" lon="12.6972002"><ele>1.0</ele><time>2026-03-22T16:23:23.698Z</time></trkpt><trkpt lat="45.7199768" lon="12.6970113"><ele>1.0</ele><time>2026-03-22T16:23:24.7Z</time></trkpt><trkpt lat="45.7198313" lon="12.6968201"><ele>1.0</ele><time>2026-03-22T16:23:25.706Z</time></trkpt><trkpt lat="45.7196933" lon="12.6966176"><ele>1.0</ele><time>2026-03-22T16:23:26.707Z</time></trkpt><trkpt lat="45.7195439" lon="12.6964337"><ele>1.0</ele><time>2026-03-22T16:23:27.707Z</time></trkpt><trkpt lat="45.719398" lon="12.6962425"><ele>1.6666666666666665</ele><time>2026-03-22T16:23:28.711Z</time></trkpt><trkpt lat="45.7192499" lon="12.6960518"><ele>2.3333333333333335</ele><time>2026-03-22T16:23:29.712Z</time></trkpt><trkpt lat="45.7191015" lon="12.6958604"><ele>3.0</ele><time>2026-03-22T16:23:30.718Z</time></trkpt><trkpt lat="45.7189539" lon="12.6956691"><ele>3.0</ele><time>2026-03-22T16:23:31.705Z</time></trkpt><trkpt lat="45.7188079" lon="12.6954783"><ele>3.0</ele><time>2026-03-22T16:23:32.69Z</time></trkpt><trkpt lat="45.7186639" lon="12.6952862"><ele>3.0</ele><time>2026-03-22T16:23:33.705Z</time></trkpt><trkpt lat="45.7185208" lon="12.6950942"><ele>1.6666666666666667</ele><time>2026-03-22T16:23:34.695Z</time></trkpt><trkpt lat="45.7183806" lon="12.6948992"><ele>0.33333333333333337</ele><time>2026-03-22T16:23:35.695Z</time></trkpt><trkpt lat="45.7182419" lon="12.6947032"><ele>-1.0</ele><time>2026-03-22T16:23:36.688Z</time></trkpt><trkpt lat="45.7181035" lon="12.6945079"><ele>-0.6666666666666666</ele><time>2026-03-22T16:23:37.696Z</time></trkpt><trkpt lat="45.7179647" lon="12.6943119"><ele>-0.3333333333333333</ele><time>2026-03-22T16:23:38.696Z</time></trkpt><trkpt lat="45.7178209" lon="12.6941214"><ele>0.0</ele><time>2026-03-22T16:23:39.7Z</time></trkpt><trkpt lat="45.7176785" lon="12.6939282"><ele>0.0</ele><time>2026-03-22T16:23:40.702Z</time></trkpt><trkpt lat="45.7175349" lon="12.6937367"><ele>0.0</ele><time>2026-03-22T16:23:41.692Z</time></trkpt><trkpt lat="45.7173911" lon="12.6935446"><ele>0.0</ele><time>2026-03-22T16:23:42.696Z</time></trkpt><trkpt lat="45.7172484" lon="12.6933501"><ele>0.0</ele><time>2026-03-22T16:23:43.699Z</time></trkpt><trkpt lat="45.7171019" lon="12.6931612"><ele>0.0</ele><time>2026-03-22T16:23:44.691Z</time></trkpt><trkpt lat="45.716954" lon="12.6929743"><ele>0.0</ele><time>2026-03-22T16:23:45.705Z</time></trkpt><trkpt lat="45.7168053" lon="12.6927886"><ele>-0.6666666666666666</ele><time>2026-03-22T16:23:46.714Z</time></trkpt><trkpt lat="45.7166567" lon="12.6926014"><ele>-1.3333333333333333</ele><time>2026-03-22T16:23:47.684Z</time></trkpt><trkpt lat="45.7165067" lon="12.6924146"><ele>-2.0</ele><time>2026-03-22T16:23:48.716Z</time></trkpt><trkpt lat="45.7163625" lon="12.6922188"><ele>-2.0</ele><time>2026-03-22T16:23:49.703Z</time></trkpt><trkpt lat="45.7162143" lon="12.6920303"><ele>-2.0</ele><time>2026-03-22T16:23:50.71Z</time></trkpt><trkpt lat="45.7160697" lon="12.691841"><ele>-2.0</ele><time>2026-03-22T16:23:51.697Z</time></trkpt><trkpt lat="45.7159276" lon="12.6916525"><ele>-1.0</ele><time>2026-03-22T16:23:52.699Z</time></trkpt><trkpt lat="45.7157856" lon="12.6914658"><ele>0.0</ele><time>2026-03-22T16:23:53.695Z</time></trkpt><trkpt lat="45.7156442" lon="12.6912797"><ele>1.0</ele><time>2026-03-22T16:23:54.705Z</time></trkpt><trkpt lat="45.715504" lon="12.6910936"><ele>1.0</ele><time>2026-03-22T16:23:55.693Z</time></trkpt><trkpt lat="45.715356" lon="12.6909214"><ele>1.0</ele><time>2026-03-22T16:23:56.695Z</time></trkpt><trkpt lat="45.715228" lon="12.6907194"><ele>1.0</ele><time>2026-03-22T16:23:57.714Z</time></trkpt><trkpt lat="45.7150921" lon="12.6905285"><ele>1.0</ele><time>2026-03-22T16:23:58.69Z</time></trkpt><trkpt lat="45.7149433" lon="12.6903543"><ele>1.0</ele><time>2026-03-22T16:23:59.702Z</time></trkpt><trkpt lat="45.7148122" lon="12.6901518"><ele>1.0</ele><time>2026-03-22T16:24:00.707Z</time></trkpt><trkpt lat="45.7146767" lon="12.6899575"><ele>1.3333333333333333</ele><time>2026-03-22T16:24:01.693Z</time></trkpt><trkpt lat="45.7145447" lon="12.6897676"><ele>1.6666666666666665</ele><time>2026-03-22T16:24:02.695Z</time></trkpt><trkpt lat="45.7144085" lon="12.6896006"><ele>2.0</ele><time>2026-03-22T16:24:03.689Z</time></trkpt><trkpt lat="45.7142817" lon="12.6894341"><ele>2.0</ele><time>2026-03-22T16:24:04.695Z</time></trkpt><trkpt lat="45.7141573" lon="12.6892697"><ele>2.0</ele><time>2026-03-22T16:24:05.724Z</time></trkpt><trkpt lat="45.7140341" lon="12.689111"><ele>2.0</ele><time>2026-03-22T16:24:06.694Z</time></trkpt><trkpt lat="45.7139177" lon="12.6889551"><ele>2.0</ele><time>2026-03-22T16:24:07.702Z</time></trkpt><trkpt lat="45.713807" lon="12.688805"><ele>2.0</ele><time>2026-03-22T16:24:08.705Z</time></trkpt><trkpt lat="45.7137038" lon="12.6886608"><ele>2.0</ele><time>2026-03-22T16:24:09.708Z</time></trkpt><trkpt lat="45.7136019" lon="12.6885337"><ele>2.0</ele><time>2026-03-22T16:24:10.694Z</time></trkpt><trkpt lat="45.7135081" lon="12.6884179"><ele>2.4000000000000004</ele><time>2026-03-22T16:24:11.692Z</time></trkpt><trkpt lat="45.7134219" lon="12.6883112"><ele>2.8000000000000003</ele><time>2026-03-22T16:24:12.683Z</time></trkpt><trkpt lat="45.7133434" lon="12.6882127"><ele>3.2</ele><time>2026-03-22T16:24:13.707Z</time></trkpt><trkpt lat="45.7132743" lon="12.6881306"><ele>3.6</ele><time>2026-03-22T16:24:14.704Z</time></trkpt><trkpt lat="45.7132124" lon="12.6880656"><ele>4.0</ele><time>2026-03-22T16:24:15.707Z</time></trkpt><trkpt lat="45.7131576" lon="12.6880058"><ele>4.0</ele><time>2026-03-22T16:24:16.691Z</time></trkpt><trkpt lat="45.7130664" lon="12.6879067"><ele>4.0</ele><time>2026-03-22T16:24:18.688Z</time></trkpt><trkpt lat="45.7129958" lon="12.687832"><ele>4.0</ele><time>2026-03-22T16:24:20.689Z</time></trkpt><trkpt lat="45.7129449" lon="12.6877725"><ele>4.0</ele><time>2026-03-22T16:24:22.687Z</time></trkpt><trkpt lat="45.7128695" lon="12.6876349"><ele>4.0</ele><time>2026-03-22T16:24:29.681Z</time></trkpt><trkpt lat="45.7127628" lon="12.6875749"><ele>3.6</ele><time>2026-03-22T16:25:07.685Z</time></trkpt><trkpt lat="45.7126688" lon="12.6874336"><ele>3.2</ele><time>2026-03-22T16:25:09.696Z</time></trkpt><trkpt lat="45.712603" lon="12.6873494"><ele>2.8000000000000003</ele><time>2026-03-22T16:25:10.683Z</time></trkpt><trkpt lat="45.7125242" lon="12.6872539"><ele>2.4000000000000004</ele><time>2026-03-22T16:25:11.707Z</time></trkpt><trkpt lat="45.7124401" lon="12.6871448"><ele>2.0</ele><time>2026-03-22T16:25:12.716Z</time></trkpt><trkpt lat="45.7123531" lon="12.6870287"><ele>1.5</ele><time>2026-03-22T16:25:13.7Z</time></trkpt><trkpt lat="45.7122644" lon="12.6869071"><ele>1.0</ele><time>2026-03-22T16:25:14.701Z</time></trkpt><trkpt lat="45.7121714" lon="12.6867881"><ele>0.5</ele><time>2026-03-22T16:25:15.705Z</time></trkpt><trkpt lat="45.7120774" lon="12.6866865"><ele>0.0</ele><time>2026-03-22T16:25:16.713Z</time></trkpt><trkpt lat="45.7119811" lon="12.6865625"><ele>0.0</ele><time>2026-03-22T16:25:17.698Z</time></trkpt><trkpt lat="45.7118826" lon="12.686435"><ele>0.0</ele><time>2026-03-22T16:25:18.698Z</time></trkpt><trkpt lat="45.7117794" lon="12.6863026"><ele>0.0</ele><time>2026-03-22T16:25:19.703Z</time></trkpt><trkpt lat="45.7116703" lon="12.6861618"><ele>0.0</ele><time>2026-03-22T16:25:20.696Z</time></trkpt><trkpt lat="45.7115505" lon="12.6860087"><ele>0.6666666666666666</ele><time>2026-03-22T16:25:21.694Z</time></trkpt><trkpt lat="45.7114224" lon="12.6858437"><ele>1.3333333333333333</ele><time>2026-03-22T16:25:22.693Z</time></trkpt><trkpt lat="45.7112871" lon="12.6856716"><ele>2.0</ele><time>2026-03-22T16:25:23.695Z</time></trkpt><trkpt lat="45.7111521" lon="12.6854992"><ele>2.333333333333333</ele><time>2026-03-22T16:25:24.694Z</time></trkpt><trkpt lat="45.7110175" lon="12.6853266"><ele>2.6666666666666665</ele><time>2026-03-22T16:25:25.714Z</time></trkpt><trkpt lat="45.7108844" lon="12.6851557"><ele>3.0</ele><time>2026-03-22T16:25:26.69Z</time></trkpt><trkpt lat="45.7107504" lon="12.6849844"><ele>3.0</ele><time>2026-03-22T16:25:27.69Z</time></trkpt><trkpt lat="45.7106147" lon="12.6848114"><ele>3.0</ele><time>2026-03-22T16:25:28.702Z</time></trkpt><trkpt lat="45.7104809" lon="12.6846403"><ele>3.0</ele><time>2026-03-22T16:25:29.696Z</time></trkpt><trkpt lat="45.7103462" lon="12.6844694"><ele>3.0</ele><time>2026-03-22T16:25:30.684Z</time></trkpt><trkpt lat="45.7102083" lon="12.6842952"><ele>3.0</ele><time>2026-03-22T16:25:31.694Z</time></trkpt><trkpt lat="45.7100675" lon="12.6841201"><ele>3.0</ele><time>2026-03-22T16:25:32.696Z</time></trkpt><trkpt lat="45.7099243" lon="12.6839423"><ele>3.0</ele><time>2026-03-22T16:25:33.705Z</time></trkpt><trkpt lat="45.7097823" lon="12.6837658"><ele>3.0</ele><time>2026-03-22T16:25:34.715Z</time></trkpt><trkpt lat="45.7096411" lon="12.6835905"><ele>3.0</ele><time>2026-03-22T16:25:35.688Z</time></trkpt><trkpt lat="45.7094994" lon="12.683414"><ele>2.0</ele><time>2026-03-22T16:25:36.692Z</time></trkpt><trkpt lat="45.7093605" lon="12.6832419"><ele>1.0</ele><time>2026-03-22T16:25:37.688Z</time></trkpt><trkpt lat="45.7092215" lon="12.6830671"><ele>0.0</ele><time>2026-03-22T16:25:38.705Z</time></trkpt><trkpt lat="45.7090862" lon="12.6829011"><ele>0.0</ele><time>2026-03-22T16:25:39.694Z</time></trkpt><trkpt lat="45.7089491" lon="12.6827342"><ele>0.0</ele><time>2026-03-22T16:25:40.714Z</time></trkpt><trkpt lat="45.7088187" lon="12.6825746"><ele>0.0</ele><time>2026-03-22T16:25:41.698Z</time></trkpt><trkpt lat="45.7086891" lon="12.6824127"><ele>-0.3333333333333333</ele><time>2026-03-22T16:25:42.685Z</time></trkpt><trkpt lat="45.7085582" lon="12.6822479"><ele>-0.6666666666666666</ele><time>2026-03-22T16:25:43.707Z</time></trkpt><trkpt lat="45.7084308" lon="12.6820875"><ele>-1.0</ele><time>2026-03-22T16:25:44.694Z</time></trkpt><trkpt lat="45.7082995" lon="12.6819228"><ele>-1.3333333333333333</ele><time>2026-03-22T16:25:45.704Z</time></trkpt><trkpt lat="45.7081675" lon="12.6817591"><ele>-1.6666666666666665</ele><time>2026-03-22T16:25:46.695Z</time></trkpt><trkpt lat="45.708032" lon="12.6815913"><ele>-2.0</ele><time>2026-03-22T16:25:47.701Z</time></trkpt><trkpt lat="45.7078954" lon="12.6814198"><ele>-2.0</ele><time>2026-03-22T16:25:48.702Z</time></trkpt><trkpt lat="45.7077581" lon="12.6812464"><ele>-2.0</ele><time>2026-03-22T16:25:49.721Z</time></trkpt><trkpt lat="45.707624" lon="12.6810772"><ele>-2.0</ele><time>2026-03-22T16:25:50.708Z</time></trkpt><trkpt lat="45.7074884" lon="12.6809082"><ele>-1.3333333333333333</ele><time>2026-03-22T16:25:51.685Z</time></trkpt><trkpt lat="45.7073502" lon="12.6807349"><ele>-0.6666666666666666</ele><time>2026-03-22T16:25:52.695Z</time></trkpt><trkpt lat="45.7072134" lon="12.6805588"><ele>0.0</ele><time>2026-03-22T16:25:53.718Z</time></trkpt><trkpt lat="45.7070782" lon="12.6803865"><ele>0.3333333333333333</ele><time>2026-03-22T16:25:54.698Z</time></trkpt><trkpt lat="45.7069412" lon="12.6802148"><ele>0.6666666666666666</ele><time>2026-03-22T16:25:55.701Z</time></trkpt><trkpt lat="45.7068066" lon="12.6800416"><ele>1.0</ele><time>2026-03-22T16:25:56.7Z</time></trkpt><trkpt lat="45.7066712" lon="12.6798686"><ele>1.0</ele><time>2026-03-22T16:25:57.691Z</time></trkpt><trkpt lat="45.7065348" lon="12.6796966"><ele>1.0</ele><time>2026-03-22T16:25:58.697Z</time></trkpt><trkpt lat="45.7063985" lon="12.6795259"><ele>1.0</ele><time>2026-03-22T16:25:59.705Z</time></trkpt><trkpt lat="45.7062639" lon="12.6793562"><ele>1.0</ele><time>2026-03-22T16:26:00.695Z</time></trkpt><trkpt lat="45.7061243" lon="12.6791842"><ele>1.0</ele><time>2026-03-22T16:26:01.708Z</time></trkpt><trkpt lat="45.7059885" lon="12.6790127"><ele>1.0</ele><time>2026-03-22T16:26:02.7Z</time></trkpt><trkpt lat="45.7058513" lon="12.6788365"><ele>1.0</ele><time>2026-03-22T16:26:03.705Z</time></trkpt><trkpt lat="45.7057152" lon="12.6786596"><ele>1.0</ele><time>2026-03-22T16:26:04.711Z</time></trkpt><trkpt lat="45.7055797" lon="12.6784842"><ele>1.0</ele><time>2026-03-22T16:26:05.684Z</time></trkpt><trkpt lat="45.705439" lon="12.6783048"><ele>1.0</ele><time>2026-03-22T16:26:06.703Z</time></trkpt><trkpt lat="45.7052987" lon="12.6781292"><ele>1.0</ele><time>2026-03-22T16:26:07.718Z</time></trkpt><trkpt lat="45.7051585" lon="12.6779564"><ele>1.0</ele><time>2026-03-22T16:26:08.702Z</time></trkpt><trkpt lat="45.7050146" lon="12.6777797"><ele>0.3333333333333333</ele><time>2026-03-22T16:26:09.697Z</time></trkpt><trkpt lat="45.7048718" lon="12.6775964"><ele>-0.3333333333333333</ele><time>2026-03-22T16:26:10.71Z</time></trkpt><trkpt lat="45.7047269" lon="12.6774087"><ele>-1.0</ele><time>2026-03-22T16:26:11.701Z</time></trkpt><trkpt lat="45.7045809" lon="12.6772186"><ele>-1.0</ele><time>2026-03-22T16:26:12.705Z</time></trkpt><trkpt lat="45.7044299" lon="12.6770264"><ele>-1.0</ele><time>2026-03-22T16:26:13.705Z</time></trkpt><trkpt lat="45.7042795" lon="12.6768359"><ele>-1.0</ele><time>2026-03-22T16:26:14.695Z</time></trkpt><trkpt lat="45.7041275" lon="12.6766436"><ele>-1.3333333333333333</ele><time>2026-03-22T16:26:15.695Z</time></trkpt><trkpt lat="45.7039739" lon="12.6764506"><ele>-1.6666666666666665</ele><time>2026-03-22T16:26:16.703Z</time></trkpt><trkpt lat="45.7038214" lon="12.6762625"><ele>-2.0</ele><time>2026-03-22T16:26:17.683Z</time></trkpt><trkpt lat="45.7036666" lon="12.6760698"><ele>-1.3333333333333333</ele><time>2026-03-22T16:26:18.704Z</time></trkpt><trkpt lat="45.7035139" lon="12.6758805"><ele>-0.6666666666666666</ele><time>2026-03-22T16:26:19.715Z</time></trkpt><trkpt lat="45.7033648" lon="12.6756991"><ele>0.0</ele><time>2026-03-22T16:26:20.696Z</time></trkpt><trkpt lat="45.7032083" lon="12.6755181"><ele>0.0</ele><time>2026-03-22T16:26:21.695Z</time></trkpt><trkpt lat="45.7030496" lon="12.6753459"><ele>0.0</ele><time>2026-03-22T16:26:22.68Z</time></trkpt><trkpt lat="45.7028864" lon="12.6751785"><ele>0.0</ele><time>2026-03-22T16:26:23.707Z</time></trkpt><trkpt lat="45.7027237" lon="12.6750207"><ele>0.3333333333333333</ele><time>2026-03-22T16:26:24.692Z</time></trkpt><trkpt lat="45.7025574" lon="12.6748671"><ele>0.6666666666666666</ele><time>2026-03-22T16:26:25.693Z</time></trkpt><trkpt lat="45.7023881" lon="12.6747193"><ele>1.0</ele><time>2026-03-22T16:26:26.697Z</time></trkpt><trkpt lat="45.702216" lon="12.6745758"><ele>0.6666666666666666</ele><time>2026-03-22T16:26:27.702Z</time></trkpt><trkpt lat="45.702041" lon="12.6744354"><ele>0.3333333333333333</ele><time>2026-03-22T16:26:28.705Z</time></trkpt><trkpt lat="45.7018619" lon="12.6742957"><ele>0.0</ele><time>2026-03-22T16:26:29.718Z</time></trkpt><trkpt lat="45.7016829" lon="12.6741595"><ele>0.0</ele><time>2026-03-22T16:26:30.714Z</time></trkpt><trkpt lat="45.701501" lon="12.6740227"><ele>0.0</ele><time>2026-03-22T16:26:31.696Z</time></trkpt><trkpt lat="45.7013173" lon="12.6738851"><ele>0.0</ele><time>2026-03-22T16:26:32.701Z</time></trkpt><trkpt lat="45.7011313" lon="12.6737467"><ele>0.0</ele><time>2026-03-22T16:26:33.706Z</time></trkpt><trkpt lat="45.7009462" lon="12.673609"><ele>0.0</ele><time>2026-03-22T16:26:34.693Z</time></trkpt><trkpt lat="45.700759" lon="12.6734683"><ele>0.0</ele><time>2026-03-22T16:26:35.701Z</time></trkpt><trkpt lat="45.7005742" lon="12.6733288"><ele>0.0</ele><time>2026-03-22T16:26:36.69Z</time></trkpt><trkpt lat="45.700385" lon="12.6731859"><ele>0.0</ele><time>2026-03-22T16:26:37.707Z</time></trkpt><trkpt lat="45.7001995" lon="12.6730485"><ele>0.0</ele><time>2026-03-22T16:26:38.696Z</time></trkpt><trkpt lat="45.7000126" lon="12.6729025"><ele>0.3333333333333333</ele><time>2026-03-22T16:26:39.695Z</time></trkpt><trkpt lat="45.6998241" lon="12.6727658"><ele>0.6666666666666666</ele><time>2026-03-22T16:26:40.697Z</time></trkpt><trkpt lat="45.6996368" lon="12.672637"><ele>1.0</ele><time>2026-03-22T16:26:41.693Z</time></trkpt><trkpt lat="45.6994508" lon="12.6725046"><ele>1.0</ele><time>2026-03-22T16:26:42.714Z</time></trkpt><trkpt lat="45.6992658" lon="12.6723715"><ele>1.0</ele><time>2026-03-22T16:26:43.69Z</time></trkpt><trkpt lat="45.6990823" lon="12.672237"><ele>1.0</ele><time>2026-03-22T16:26:44.696Z</time></trkpt><trkpt lat="45.698901" lon="12.6721026"><ele>1.0</ele><time>2026-03-22T16:26:45.701Z</time></trkpt><trkpt lat="45.6987233" lon="12.6719715"><ele>1.0</ele><time>2026-03-22T16:26:46.694Z</time></trkpt><trkpt lat="45.6985423" lon="12.6718468"><ele>1.0</ele><time>2026-03-22T16:26:47.698Z</time></trkpt><trkpt lat="45.6983594" lon="12.6717313"><ele>1.0</ele><time>2026-03-22T16:26:48.693Z</time></trkpt><trkpt lat="45.6981754" lon="12.67162"><ele>1.0</ele><time>2026-03-22T16:26:49.698Z</time></trkpt><trkpt lat="45.6979894" lon="12.6715147"><ele>1.0</ele><time>2026-03-22T16:26:50.705Z</time></trkpt><trkpt lat="45.6978019" lon="12.6714137"><ele>0.3333333333333333</ele><time>2026-03-22T16:26:51.71Z</time></trkpt><trkpt lat="45.6976157" lon="12.6713179"><ele>-0.3333333333333333</ele><time>2026-03-22T16:26:52.695Z</time></trkpt><trkpt lat="45.6974261" lon="12.6712303"><ele>-1.0</ele><time>2026-03-22T16:26:53.701Z</time></trkpt><trkpt lat="45.6972338" lon="12.6711459"><ele>-0.6666666666666666</ele><time>2026-03-22T16:26:54.7Z</time></trkpt><trkpt lat="45.6970405" lon="12.6710649"><ele>-0.3333333333333333</ele><time>2026-03-22T16:26:55.696Z</time></trkpt><trkpt lat="45.6968469" lon="12.6709881"><ele>0.0</ele><time>2026-03-22T16:26:56.711Z</time></trkpt><trkpt lat="45.6966563" lon="12.6709136"><ele>0.6666666666666666</ele><time>2026-03-22T16:26:57.71Z</time></trkpt><trkpt lat="45.6964662" lon="12.6708411"><ele>1.3333333333333333</ele><time>2026-03-22T16:26:58.701Z</time></trkpt><trkpt lat="45.696278" lon="12.6707727"><ele>2.0</ele><time>2026-03-22T16:26:59.7Z</time></trkpt><trkpt lat="45.6960906" lon="12.6707239"><ele>2.0</ele><time>2026-03-22T16:27:00.705Z</time></trkpt><trkpt lat="45.6959017" lon="12.6706978"><ele>2.0</ele><time>2026-03-22T16:27:01.693Z</time></trkpt><trkpt lat="45.695712" lon="12.6706855"><ele>2.0</ele><time>2026-03-22T16:27:02.704Z</time></trkpt><trkpt lat="45.6955274" lon="12.6706743"><ele>2.0</ele><time>2026-03-22T16:27:03.714Z</time></trkpt><trkpt lat="45.6953568" lon="12.6706624"><ele>2.0</ele><time>2026-03-22T16:27:04.704Z</time></trkpt><trkpt lat="45.6951793" lon="12.6706464"><ele>2.0</ele><time>2026-03-22T16:27:05.725Z</time></trkpt><trkpt lat="45.6950055" lon="12.670624"><ele>2.0</ele><time>2026-03-22T16:27:06.709Z</time></trkpt><trkpt lat="45.6948322" lon="12.6705907"><ele>2.0</ele><time>2026-03-22T16:27:07.699Z</time></trkpt><trkpt lat="45.6946602" lon="12.6705409"><ele>2.0</ele><time>2026-03-22T16:27:08.714Z</time></trkpt><trkpt lat="45.6944903" lon="12.6704684"><ele>1.6666666666666665</ele><time>2026-03-22T16:27:09.706Z</time></trkpt><trkpt lat="45.6943164" lon="12.670377"><ele>1.3333333333333333</ele><time>2026-03-22T16:27:10.695Z</time></trkpt><trkpt lat="45.6941406" lon="12.6702793"><ele>1.0</ele><time>2026-03-22T16:27:11.707Z</time></trkpt><trkpt lat="45.6939633" lon="12.6701825"><ele>0.6666666666666666</ele><time>2026-03-22T16:27:12.695Z</time></trkpt><trkpt lat="45.6937814" lon="12.6700863"><ele>0.3333333333333333</ele><time>2026-03-22T16:27:13.692Z</time></trkpt><trkpt lat="45.6935971" lon="12.6699902"><ele>0.0</ele><time>2026-03-22T16:27:14.704Z</time></trkpt><trkpt lat="45.6934149" lon="12.6698942"><ele>0.6666666666666666</ele><time>2026-03-22T16:27:15.686Z</time></trkpt><trkpt lat="45.69323" lon="12.6697939"><ele>1.3333333333333333</ele><time>2026-03-22T16:27:16.707Z</time></trkpt><trkpt lat="45.6930532" lon="12.6696977"><ele>2.0</ele><time>2026-03-22T16:27:17.723Z</time></trkpt><trkpt lat="45.6928848" lon="12.669604"><ele>1.6666666666666665</ele><time>2026-03-22T16:27:18.693Z</time></trkpt><trkpt lat="45.6927129" lon="12.6695069"><ele>1.3333333333333333</ele><time>2026-03-22T16:27:19.733Z</time></trkpt><trkpt lat="45.6925435" lon="12.6694136"><ele>1.0</ele><time>2026-03-22T16:27:20.712Z</time></trkpt><trkpt lat="45.6923723" lon="12.6693196"><ele>1.0</ele><time>2026-03-22T16:27:21.694Z</time></trkpt><trkpt lat="45.6921991" lon="12.6692246"><ele>1.0</ele><time>2026-03-22T16:27:22.711Z</time></trkpt><trkpt lat="45.6920289" lon="12.6691305"><ele>1.0</ele><time>2026-03-22T16:27:23.697Z</time></trkpt><trkpt lat="45.6918551" lon="12.6690345"><ele>0.6666666666666666</ele><time>2026-03-22T16:27:24.691Z</time></trkpt><trkpt lat="45.6916775" lon="12.6689373"><ele>0.3333333333333333</ele><time>2026-03-22T16:27:25.721Z</time></trkpt><trkpt lat="45.6915036" lon="12.6688426"><ele>0.0</ele><time>2026-03-22T16:27:26.711Z</time></trkpt><trkpt lat="45.6913283" lon="12.6687487"><ele>0.0</ele><time>2026-03-22T16:27:27.703Z</time></trkpt><trkpt lat="45.6911527" lon="12.6686525"><ele>0.0</ele><time>2026-03-22T16:27:28.702Z</time></trkpt><trkpt lat="45.6909773" lon="12.6685539"><ele>0.0</ele><time>2026-03-22T16:27:29.719Z</time></trkpt><trkpt lat="45.6908048" lon="12.6684571"><ele>-0.3333333333333333</ele><time>2026-03-22T16:27:30.704Z</time></trkpt><trkpt lat="45.6906323" lon="12.6683608"><ele>-0.6666666666666666</ele><time>2026-03-22T16:27:31.709Z</time></trkpt><trkpt lat="45.6904616" lon="12.6682665"><ele>-1.0</ele><time>2026-03-22T16:27:32.711Z</time></trkpt><trkpt lat="45.690292" lon="12.6681732"><ele>0.33333333333333337</ele><time>2026-03-22T16:27:33.697Z</time></trkpt><trkpt lat="45.6901194" lon="12.6680782"><ele>1.6666666666666667</ele><time>2026-03-22T16:27:34.703Z</time></trkpt><trkpt lat="45.6899497" lon="12.6679873"><ele>3.0</ele><time>2026-03-22T16:27:35.737Z</time></trkpt><trkpt lat="45.6897825" lon="12.6678968"><ele>3.0</ele><time>2026-03-22T16:27:36.725Z</time></trkpt><trkpt lat="45.6896174" lon="12.6678051"><ele>3.0</ele><time>2026-03-22T16:27:37.703Z</time></trkpt><trkpt lat="45.6894478" lon="12.6677088"><ele>3.0</ele><time>2026-03-22T16:27:38.71Z</time></trkpt><trkpt lat="45.68928" lon="12.6676127"><ele>2.3333333333333335</ele><time>2026-03-22T16:27:39.707Z</time></trkpt><trkpt lat="45.6891142" lon="12.6675165"><ele>1.6666666666666665</ele><time>2026-03-22T16:27:40.685Z</time></trkpt><trkpt lat="45.6889434" lon="12.6674172"><ele>1.0</ele><time>2026-03-22T16:27:41.689Z</time></trkpt><trkpt lat="45.6887726" lon="12.667321"><ele>1.0</ele><time>2026-03-22T16:27:42.706Z</time></trkpt><trkpt lat="45.6886035" lon="12.6672273"><ele>1.0</ele><time>2026-03-22T16:27:43.71Z</time></trkpt><trkpt lat="45.6884404" lon="12.6671362"><ele>1.0</ele><time>2026-03-22T16:27:44.693Z</time></trkpt><trkpt lat="45.688279" lon="12.6670444"><ele>1.0</ele><time>2026-03-22T16:27:45.696Z</time></trkpt><trkpt lat="45.6881196" lon="12.6669549"><ele>1.0</ele><time>2026-03-22T16:27:46.708Z</time></trkpt><trkpt lat="45.687967" lon="12.66687"><ele>1.0</ele><time>2026-03-22T16:27:47.69Z</time></trkpt><trkpt lat="45.687816" lon="12.6667856"><ele>0.6666666666666666</ele><time>2026-03-22T16:27:48.702Z</time></trkpt><trkpt lat="45.6876682" lon="12.6667019"><ele>0.3333333333333333</ele><time>2026-03-22T16:27:49.707Z</time></trkpt><trkpt lat="45.6875253" lon="12.6666179"><ele>0.0</ele><time>2026-03-22T16:27:50.703Z</time></trkpt><trkpt lat="45.6873851" lon="12.6665266"><ele>0.0</ele><time>2026-03-22T16:27:51.706Z</time></trkpt><trkpt lat="45.6872454" lon="12.6664259"><ele>0.0</ele><time>2026-03-22T16:27:52.695Z</time></trkpt><trkpt lat="45.6871044" lon="12.6663134"><ele>0.0</ele><time>2026-03-22T16:27:53.694Z</time></trkpt><trkpt lat="45.6869618" lon="12.6661895"><ele>0.0</ele><time>2026-03-22T16:27:54.706Z</time></trkpt><trkpt lat="45.686822" lon="12.6660574"><ele>0.0</ele><time>2026-03-22T16:27:55.703Z</time></trkpt><trkpt lat="45.686683" lon="12.6659101"><ele>0.0</ele><time>2026-03-22T16:27:56.695Z</time></trkpt><trkpt lat="45.6865462" lon="12.6657467"><ele>0.0</ele><time>2026-03-22T16:27:57.695Z</time></trkpt><trkpt lat="45.6864122" lon="12.6655685"><ele>0.0</ele><time>2026-03-22T16:27:58.696Z</time></trkpt><trkpt lat="45.6862827" lon="12.6653778"><ele>0.0</ele><time>2026-03-22T16:27:59.7Z</time></trkpt><trkpt lat="45.6861592" lon="12.6651752"><ele>0.3333333333333333</ele><time>2026-03-22T16:28:00.691Z</time></trkpt><trkpt lat="45.6860412" lon="12.664956"><ele>0.6666666666666666</ele><time>2026-03-22T16:28:01.694Z</time></trkpt><trkpt lat="45.6859385" lon="12.6647242"><ele>1.0</ele><time>2026-03-22T16:28:02.691Z</time></trkpt><trkpt lat="45.6858518" lon="12.6644789"><ele>1.0</ele><time>2026-03-22T16:28:03.698Z</time></trkpt><trkpt lat="45.6857764" lon="12.6642225"><ele>1.0</ele><time>2026-03-22T16:28:04.701Z</time></trkpt><trkpt lat="45.6857084" lon="12.6639639"><ele>1.0</ele><time>2026-03-22T16:28:05.693Z</time></trkpt><trkpt lat="45.6856509" lon="12.6637064"><ele>1.0</ele><time>2026-03-22T16:28:06.696Z</time></trkpt><trkpt lat="45.6856008" lon="12.6634497"><ele>1.0</ele><time>2026-03-22T16:28:07.7Z</time></trkpt><trkpt lat="45.6855606" lon="12.6631941"><ele>1.0</ele><time>2026-03-22T16:28:08.702Z</time></trkpt><trkpt lat="45.685528" lon="12.662939"><ele>1.3333333333333333</ele><time>2026-03-22T16:28:09.701Z</time></trkpt><trkpt lat="45.6855007" lon="12.6626829"><ele>1.6666666666666665</ele><time>2026-03-22T16:28:10.688Z</time></trkpt><trkpt lat="45.685477" lon="12.6624278"><ele>2.0</ele><time>2026-03-22T16:28:11.709Z</time></trkpt><trkpt lat="45.6854557" lon="12.6621781"><ele>1.6666666666666665</ele><time>2026-03-22T16:28:12.697Z</time></trkpt><trkpt lat="45.6854338" lon="12.6619312"><ele>1.3333333333333333</ele><time>2026-03-22T16:28:13.702Z</time></trkpt><trkpt lat="45.685411" lon="12.6616851"><ele>1.0</ele><time>2026-03-22T16:28:14.697Z</time></trkpt><trkpt lat="45.6853867" lon="12.661448"><ele>1.0</ele><time>2026-03-22T16:28:15.691Z</time></trkpt><trkpt lat="45.6853628" lon="12.6612135"><ele>1.0</ele><time>2026-03-22T16:28:16.697Z</time></trkpt><trkpt lat="45.6853373" lon="12.660976"><ele>1.0</ele><time>2026-03-22T16:28:17.714Z</time></trkpt><trkpt lat="45.6853104" lon="12.6607437"><ele>1.0</ele><time>2026-03-22T16:28:18.7Z</time></trkpt><trkpt lat="45.6852835" lon="12.6605044"><ele>1.0</ele><time>2026-03-22T16:28:19.701Z</time></trkpt><trkpt lat="45.6852569" lon="12.6602674"><ele>1.0</ele><time>2026-03-22T16:28:20.694Z</time></trkpt><trkpt lat="45.6852338" lon="12.6600289"><ele>1.0</ele><time>2026-03-22T16:28:21.686Z</time></trkpt><trkpt lat="45.6852194" lon="12.6597909"><ele>1.0</ele><time>2026-03-22T16:28:22.694Z</time></trkpt><trkpt lat="45.6852155" lon="12.6595547"><ele>1.0</ele><time>2026-03-22T16:28:23.696Z</time></trkpt><trkpt lat="45.6852222" lon="12.6593143"><ele>1.0</ele><time>2026-03-22T16:28:24.696Z</time></trkpt><trkpt lat="45.6852377" lon="12.6590727"><ele>1.0</ele><time>2026-03-22T16:28:25.718Z</time></trkpt><trkpt lat="45.6852573" lon="12.6588366"><ele>1.0</ele><time>2026-03-22T16:28:26.718Z</time></trkpt><trkpt lat="45.6852788" lon="12.6586019"><ele>1.0</ele><time>2026-03-22T16:28:27.695Z</time></trkpt><trkpt lat="45.6853007" lon="12.6583637"><ele>1.0</ele><time>2026-03-22T16:28:28.698Z</time></trkpt><trkpt lat="45.6853234" lon="12.6581252"><ele>1.0</ele><time>2026-03-22T16:28:29.696Z</time></trkpt><trkpt lat="45.6853446" lon="12.6578856"><ele>1.0</ele><time>2026-03-22T16:28:30.698Z</time></trkpt><trkpt lat="45.6853601" lon="12.6576446"><ele>1.0</ele><time>2026-03-22T16:28:31.705Z</time></trkpt><trkpt lat="45.6853748" lon="12.6574024"><ele>1.0</ele><time>2026-03-22T16:28:32.7Z</time></trkpt><trkpt lat="45.6853906" lon="12.6571562"><ele>1.0</ele><time>2026-03-22T16:28:33.71Z</time></trkpt><trkpt lat="45.6854075" lon="12.6569071"><ele>1.0</ele><time>2026-03-22T16:28:34.695Z</time></trkpt><trkpt lat="45.685425" lon="12.6566569"><ele>1.0</ele><time>2026-03-22T16:28:35.695Z</time></trkpt><trkpt lat="45.6854426" lon="12.6564057"><ele>1.0</ele><time>2026-03-22T16:28:36.683Z</time></trkpt><trkpt lat="45.6854587" lon="12.6561479"><ele>1.0</ele><time>2026-03-22T16:28:37.699Z</time></trkpt><trkpt lat="45.6854754" lon="12.6558887"><ele>1.0</ele><time>2026-03-22T16:28:38.699Z</time></trkpt><trkpt lat="45.6854929" lon="12.6556246"><ele>1.0</ele><time>2026-03-22T16:28:39.695Z</time></trkpt><trkpt lat="45.6855108" lon="12.6553519"><ele>1.0</ele><time>2026-03-22T16:28:40.697Z</time></trkpt><trkpt lat="45.6855291" lon="12.6550814"><ele>1.0</ele><time>2026-03-22T16:28:41.699Z</time></trkpt><trkpt lat="45.685548" lon="12.6548017"><ele>1.3333333333333333</ele><time>2026-03-22T16:28:42.706Z</time></trkpt><trkpt lat="45.6855681" lon="12.6545271"><ele>1.6666666666666665</ele><time>2026-03-22T16:28:43.701Z</time></trkpt><trkpt lat="45.6855882" lon="12.6542464"><ele>2.0</ele><time>2026-03-22T16:28:44.693Z</time></trkpt><trkpt lat="45.6856077" lon="12.6539682"><ele>2.0</ele><time>2026-03-22T16:28:45.679Z</time></trkpt><trkpt lat="45.6856276" lon="12.6536892"><ele>2.0</ele><time>2026-03-22T16:28:46.676Z</time></trkpt><trkpt lat="45.6856473" lon="12.6534125"><ele>2.0</ele><time>2026-03-22T16:28:47.698Z</time></trkpt><trkpt lat="45.6856668" lon="12.653147"><ele>2.0</ele><time>2026-03-22T16:28:48.697Z</time></trkpt><trkpt lat="45.6856852" lon="12.6528847"><ele>2.0</ele><time>2026-03-22T16:28:49.702Z</time></trkpt><trkpt lat="45.6857017" lon="12.6526168"><ele>2.0</ele><time>2026-03-22T16:28:50.676Z</time></trkpt><trkpt lat="45.6857125" lon="12.6523451"><ele>1.6666666666666665</ele><time>2026-03-22T16:28:51.697Z</time></trkpt><trkpt lat="45.6857131" lon="12.6520789"><ele>1.3333333333333333</ele><time>2026-03-22T16:28:52.686Z</time></trkpt><trkpt lat="45.6857045" lon="12.6518091"><ele>1.0</ele><time>2026-03-22T16:28:53.687Z</time></trkpt><trkpt lat="45.6856866" lon="12.6515368"><ele>0.6666666666666666</ele><time>2026-03-22T16:28:54.701Z</time></trkpt><trkpt lat="45.6856632" lon="12.6512636"><ele>0.3333333333333333</ele><time>2026-03-22T16:28:55.701Z</time></trkpt><trkpt lat="45.6856376" lon="12.6509885"><ele>0.0</ele><time>2026-03-22T16:28:56.699Z</time></trkpt><trkpt lat="45.6856102" lon="12.6507069"><ele>0.3333333333333333</ele><time>2026-03-22T16:28:57.703Z</time></trkpt><trkpt lat="45.6855814" lon="12.6504187"><ele>0.6666666666666666</ele><time>2026-03-22T16:28:58.701Z</time></trkpt><trkpt lat="45.6855537" lon="12.6501207"><ele>1.0</ele><time>2026-03-22T16:28:59.705Z</time></trkpt><trkpt lat="45.685529" lon="12.6498156"><ele>1.0</ele><time>2026-03-22T16:29:00.694Z</time></trkpt><trkpt lat="45.6855027" lon="12.6495277"><ele>1.0</ele><time>2026-03-22T16:29:01.708Z</time></trkpt><trkpt lat="45.6854767" lon="12.6492462"><ele>1.0</ele><time>2026-03-22T16:29:02.708Z</time></trkpt><trkpt lat="45.6854493" lon="12.6489632"><ele>0.3333333333333333</ele><time>2026-03-22T16:29:03.712Z</time></trkpt><trkpt lat="45.6854216" lon="12.6486889"><ele>-0.3333333333333333</ele><time>2026-03-22T16:29:04.713Z</time></trkpt><trkpt lat="45.6853939" lon="12.6484235"><ele>-1.0</ele><time>2026-03-22T16:29:05.702Z</time></trkpt><trkpt lat="45.6853671" lon="12.6481655"><ele>-1.3333333333333333</ele><time>2026-03-22T16:29:06.709Z</time></trkpt><trkpt lat="45.6853423" lon="12.6479148"><ele>-1.6666666666666665</ele><time>2026-03-22T16:29:07.698Z</time></trkpt><trkpt lat="45.6853152" lon="12.6476731"><ele>-2.0</ele><time>2026-03-22T16:29:08.698Z</time></trkpt><trkpt lat="45.6852876" lon="12.6474409"><ele>-1.0</ele><time>2026-03-22T16:29:09.696Z</time></trkpt><trkpt lat="45.6852595" lon="12.6472161"><ele>0.0</ele><time>2026-03-22T16:29:10.722Z</time></trkpt><trkpt lat="45.6852351" lon="12.6470119"><ele>1.0</ele><time>2026-03-22T16:29:11.722Z</time></trkpt><trkpt lat="45.6852139" lon="12.6468306"><ele>2.0</ele><time>2026-03-22T16:29:12.716Z</time></trkpt><trkpt lat="45.6851942" lon="12.6466626"><ele>2.0</ele><time>2026-03-22T16:29:13.704Z</time></trkpt><trkpt lat="45.6851706" lon="12.6465109"><ele>2.0</ele><time>2026-03-22T16:29:14.706Z</time></trkpt><trkpt lat="45.6851725" lon="12.6463694"><ele>2.0</ele><time>2026-03-22T16:29:15.703Z</time></trkpt><trkpt lat="45.6851977" lon="12.6462447"><ele>2.0</ele><time>2026-03-22T16:29:16.681Z</time></trkpt><trkpt lat="45.685234" lon="12.6461357"><ele>2.0</ele><time>2026-03-22T16:29:17.697Z</time></trkpt><trkpt lat="45.6852715" lon="12.6460301"><ele>2.0</ele><time>2026-03-22T16:29:18.696Z</time></trkpt><trkpt lat="45.6852601" lon="12.6459142"><ele>2.0</ele><time>2026-03-22T16:29:19.714Z</time></trkpt><trkpt lat="45.6852174" lon="12.645793"><ele>2.0</ele><time>2026-03-22T16:29:20.691Z</time></trkpt><trkpt lat="45.6851675" lon="12.6456566"><ele>2.0</ele><time>2026-03-22T16:29:21.689Z</time></trkpt><trkpt lat="45.6851191" lon="12.6455042"><ele>2.0</ele><time>2026-03-22T16:29:22.686Z</time></trkpt><trkpt lat="45.685082" lon="12.6453316"><ele>2.25</ele><time>2026-03-22T16:29:23.699Z</time></trkpt><trkpt lat="45.6850577" lon="12.6451439"><ele>2.5</ele><time>2026-03-22T16:29:24.709Z</time></trkpt><trkpt lat="45.6850357" lon="12.64495"><ele>2.75</ele><time>2026-03-22T16:29:25.711Z</time></trkpt><trkpt lat="45.6850109" lon="12.64476"><ele>3.0</ele><time>2026-03-22T16:29:26.688Z</time></trkpt><trkpt lat="45.6849828" lon="12.6445615"><ele>2.75</ele><time>2026-03-22T16:29:27.706Z</time></trkpt><trkpt lat="45.6849685" lon="12.6443603"><ele>2.5</ele><time>2026-03-22T16:29:28.697Z</time></trkpt><trkpt lat="45.6849528" lon="12.6441628"><ele>2.25</ele><time>2026-03-22T16:29:29.697Z</time></trkpt><trkpt lat="45.6849386" lon="12.6439687"><ele>2.0</ele><time>2026-03-22T16:29:30.707Z</time></trkpt><trkpt lat="45.6849208" lon="12.6437735"><ele>2.25</ele><time>2026-03-22T16:29:31.708Z</time></trkpt><trkpt lat="45.6849022" lon="12.6435758"><ele>2.5</ele><time>2026-03-22T16:29:32.707Z</time></trkpt><trkpt lat="45.6848837" lon="12.643372"><ele>2.75</ele><time>2026-03-22T16:29:33.688Z</time></trkpt><trkpt lat="45.6848632" lon="12.6431615"><ele>3.0</ele><time>2026-03-22T16:29:34.687Z</time></trkpt><trkpt lat="45.6848427" lon="12.6429493"><ele>2.75</ele><time>2026-03-22T16:29:35.701Z</time></trkpt><trkpt lat="45.6848222" lon="12.6427409"><ele>2.5</ele><time>2026-03-22T16:29:36.709Z</time></trkpt><trkpt lat="45.6847953" lon="12.642537"><ele>2.25</ele><time>2026-03-22T16:29:37.724Z</time></trkpt><trkpt lat="45.6847683" lon="12.6423352"><ele>2.0</ele><time>2026-03-22T16:29:38.692Z</time></trkpt><trkpt lat="45.6847526" lon="12.6421291"><ele>1.75</ele><time>2026-03-22T16:29:39.697Z</time></trkpt><trkpt lat="45.6847335" lon="12.6419216"><ele>1.5</ele><time>2026-03-22T16:29:40.695Z</time></trkpt><trkpt lat="45.6847163" lon="12.6417097"><ele>1.25</ele><time>2026-03-22T16:29:41.686Z</time></trkpt><trkpt lat="45.6846962" lon="12.6414942"><ele>1.0</ele><time>2026-03-22T16:29:42.705Z</time></trkpt><trkpt lat="45.6846752" lon="12.6412748"><ele>0.6666666666666666</ele><time>2026-03-22T16:29:43.701Z</time></trkpt><trkpt lat="45.6846513" lon="12.6410532"><ele>0.3333333333333333</ele><time>2026-03-22T16:29:44.69Z</time></trkpt><trkpt lat="45.6846283" lon="12.6408314"><ele>0.0</ele><time>2026-03-22T16:29:45.697Z</time></trkpt><trkpt lat="45.6846065" lon="12.6406112"><ele>0.0</ele><time>2026-03-22T16:29:46.704Z</time></trkpt><trkpt lat="45.6845856" lon="12.6403945"><ele>0.0</ele><time>2026-03-22T16:29:47.691Z</time></trkpt><trkpt lat="45.684565" lon="12.640182"><ele>0.0</ele><time>2026-03-22T16:29:48.7Z</time></trkpt><trkpt lat="45.6845371" lon="12.6399747"><ele>0.25</ele><time>2026-03-22T16:29:49.709Z</time></trkpt><trkpt lat="45.6845022" lon="12.6397724"><ele>0.5</ele><time>2026-03-22T16:29:50.691Z</time></trkpt><trkpt lat="45.6844735" lon="12.6395716"><ele>0.75</ele><time>2026-03-22T16:29:51.697Z</time></trkpt><trkpt lat="45.6844419" lon="12.6393771"><ele>1.0</ele><time>2026-03-22T16:29:52.702Z</time></trkpt><trkpt lat="45.684407" lon="12.6391928"><ele>1.25</ele><time>2026-03-22T16:29:53.704Z</time></trkpt><trkpt lat="45.6843675" lon="12.6390264"><ele>1.5</ele><time>2026-03-22T16:29:54.692Z</time></trkpt><trkpt lat="45.6843264" lon="12.6388736"><ele>1.75</ele><time>2026-03-22T16:29:55.686Z</time></trkpt><trkpt lat="45.6842889" lon="12.6387251"><ele>2.0</ele><time>2026-03-22T16:29:56.694Z</time></trkpt><trkpt lat="45.6842462" lon="12.6385903"><ele>1.9999999999999998</ele><time>2026-03-22T16:29:57.685Z</time></trkpt><trkpt lat="45.6842032" lon="12.6384756"><ele>2.0</ele><time>2026-03-22T16:29:58.697Z</time></trkpt><trkpt lat="45.6841721" lon="12.6383712"><ele>2.0</ele><time>2026-03-22T16:29:59.69Z</time></trkpt><trkpt lat="45.6841491" lon="12.6382777"><ele>2.0</ele><time>2026-03-22T16:30:00.682Z</time></trkpt><trkpt lat="45.6841135" lon="12.6381268"><ele>1.9999999999999998</ele><time>2026-03-22T16:30:02.713Z</time></trkpt><trkpt lat="45.6840857" lon="12.6380377"><ele>2.0</ele><time>2026-03-22T16:30:04.696Z</time></trkpt><trkpt lat="45.6840707" lon="12.6379162"><ele>1.9999999999999998</ele><time>2026-03-22T16:30:07.692Z</time></trkpt><trkpt lat="45.6840408" lon="12.637813"><ele>2.0</ele><time>2026-03-22T16:30:10.696Z</time></trkpt><trkpt lat="45.6840587" lon="12.6376929"><ele>2.0</ele><time>2026-03-22T16:30:13.689Z</time></trkpt><trkpt lat="45.68403" lon="12.6375712"><ele>2.0</ele><time>2026-03-22T16:30:27.702Z</time></trkpt><trkpt lat="45.6839893" lon="12.6374698"><ele>1.9999999999999998</ele><time>2026-03-22T16:30:29.681Z</time></trkpt><trkpt lat="45.6839375" lon="12.637329"><ele>2.0</ele><time>2026-03-22T16:30:31.697Z</time></trkpt><trkpt lat="45.6839069" lon="12.6372394"><ele>2.0</ele><time>2026-03-22T16:30:32.69Z</time></trkpt><trkpt lat="45.6838664" lon="12.637137"><ele>2.0</ele><time>2026-03-22T16:30:33.702Z</time></trkpt><trkpt lat="45.6838228" lon="12.6370246"><ele>2.0</ele><time>2026-03-22T16:30:34.7Z</time></trkpt><trkpt lat="45.6837811" lon="12.6368994"><ele>2.0</ele><time>2026-03-22T16:30:35.685Z</time></trkpt><trkpt lat="45.6837267" lon="12.636777"><ele>2.0</ele><time>2026-03-22T16:30:36.69Z</time></trkpt><trkpt lat="45.6836819" lon="12.6366394"><ele>2.0</ele><time>2026-03-22T16:30:37.695Z</time></trkpt><trkpt lat="45.6836374" lon="12.6364939"><ele>2.0</ele><time>2026-03-22T16:30:38.688Z</time></trkpt><trkpt lat="45.6835865" lon="12.6363401"><ele>2.0</ele><time>2026-03-22T16:30:39.69Z</time></trkpt><trkpt lat="45.6835354" lon="12.6361744"><ele>2.0</ele><time>2026-03-22T16:30:40.69Z</time></trkpt><trkpt lat="45.6834889" lon="12.6359995"><ele>2.0</ele><time>2026-03-22T16:30:41.705Z</time></trkpt><trkpt lat="45.6834337" lon="12.6358223"><ele>2.0</ele><time>2026-03-22T16:30:42.7Z</time></trkpt><trkpt lat="45.6833804" lon="12.6356393"><ele>2.0</ele><time>2026-03-22T16:30:43.711Z</time></trkpt><trkpt lat="45.683323" lon="12.6354559"><ele>2.0</ele><time>2026-03-22T16:30:44.684Z</time></trkpt><trkpt lat="45.6832631" lon="12.6352717"><ele>2.0</ele><time>2026-03-22T16:30:45.692Z</time></trkpt><trkpt lat="45.6832071" lon="12.6350773"><ele>2.0</ele><time>2026-03-22T16:30:46.702Z</time></trkpt><trkpt lat="45.6831385" lon="12.6348881"><ele>2.0</ele><time>2026-03-22T16:30:47.707Z</time></trkpt><trkpt lat="45.6830507" lon="12.6347112"><ele>2.0</ele><time>2026-03-22T16:30:48.7Z</time></trkpt><trkpt lat="45.6829517" lon="12.6345393"><ele>1.3333333333333333</ele><time>2026-03-22T16:30:49.699Z</time></trkpt><trkpt lat="45.6828446" lon="12.63437"><ele>0.6666666666666666</ele><time>2026-03-22T16:30:50.691Z</time></trkpt><trkpt lat="45.6827265" lon="12.6342143"><ele>0.0</ele><time>2026-03-22T16:30:51.705Z</time></trkpt><trkpt lat="45.6826017" lon="12.6340642"><ele>0.0</ele><time>2026-03-22T16:30:52.695Z</time></trkpt><trkpt lat="45.6824725" lon="12.6339217"><ele>0.0</ele><time>2026-03-22T16:30:53.701Z</time></trkpt><trkpt lat="45.682349" lon="12.6337693"><ele>0.0</ele><time>2026-03-22T16:30:54.702Z</time></trkpt><trkpt lat="45.6822203" lon="12.6336275"><ele>0.0</ele><time>2026-03-22T16:30:55.689Z</time></trkpt><trkpt lat="45.6820861" lon="12.6334895"><ele>0.0</ele><time>2026-03-22T16:30:56.688Z</time></trkpt><trkpt lat="45.6819489" lon="12.6333537"><ele>0.0</ele><time>2026-03-22T16:30:57.704Z</time></trkpt><trkpt lat="45.681806" lon="12.6332243"><ele>0.0</ele><time>2026-03-22T16:30:58.703Z</time></trkpt><trkpt lat="45.681664" lon="12.6330892"><ele>0.0</ele><time>2026-03-22T16:30:59.703Z</time></trkpt><trkpt lat="45.6815269" lon="12.6329381"><ele>0.0</ele><time>2026-03-22T16:31:00.715Z</time></trkpt><trkpt lat="45.6813836" lon="12.6327951"><ele>0.0</ele><time>2026-03-22T16:31:01.705Z</time></trkpt><trkpt lat="45.6812383" lon="12.6326575"><ele>0.0</ele><time>2026-03-22T16:31:02.703Z</time></trkpt><trkpt lat="45.6810934" lon="12.6325205"><ele>0.0</ele><time>2026-03-22T16:31:03.692Z</time></trkpt><trkpt lat="45.6809464" lon="12.6323783"><ele>0.0</ele><time>2026-03-22T16:31:04.701Z</time></trkpt><trkpt lat="45.680796" lon="12.6322312"><ele>0.0</ele><time>2026-03-22T16:31:05.699Z</time></trkpt><trkpt lat="45.6806446" lon="12.63208"><ele>0.0</ele><time>2026-03-22T16:31:06.686Z</time></trkpt><trkpt lat="45.680492" lon="12.6319261"><ele>-0.3333333333333333</ele><time>2026-03-22T16:31:07.702Z</time></trkpt><trkpt lat="45.6803387" lon="12.6317743"><ele>-0.6666666666666666</ele><time>2026-03-22T16:31:08.716Z</time></trkpt><trkpt lat="45.6801841" lon="12.631625"><ele>-1.0</ele><time>2026-03-22T16:31:09.716Z</time></trkpt><trkpt lat="45.6800304" lon="12.6314748"><ele>-1.3333333333333333</ele><time>2026-03-22T16:31:10.697Z</time></trkpt><trkpt lat="45.679877" lon="12.631324"><ele>-1.6666666666666665</ele><time>2026-03-22T16:31:11.697Z</time></trkpt><trkpt lat="45.6797222" lon="12.6311725"><ele>-2.0</ele><time>2026-03-22T16:31:12.704Z</time></trkpt><trkpt lat="45.6795668" lon="12.6310211"><ele>-2.0</ele><time>2026-03-22T16:31:13.699Z</time></trkpt><trkpt lat="45.6794123" lon="12.6308682"><ele>-2.0</ele><time>2026-03-22T16:31:14.7Z</time></trkpt><trkpt lat="45.6792586" lon="12.6307154"><ele>-2.0</ele><time>2026-03-22T16:31:15.704Z</time></trkpt><trkpt lat="45.679107" lon="12.6305623"><ele>-2.0</ele><time>2026-03-22T16:31:16.705Z</time></trkpt><trkpt lat="45.6789566" lon="12.6304089"><ele>-2.0</ele><time>2026-03-22T16:31:17.707Z</time></trkpt><trkpt lat="45.6788085" lon="12.6302481"><ele>-2.0</ele><time>2026-03-22T16:31:18.699Z</time></trkpt><trkpt lat="45.6786558" lon="12.6300954"><ele>-1.6666666666666665</ele><time>2026-03-22T16:31:19.707Z</time></trkpt><trkpt lat="45.678502" lon="12.6299456"><ele>-1.3333333333333333</ele><time>2026-03-22T16:31:20.701Z</time></trkpt><trkpt lat="45.678346" lon="12.6297961"><ele>-1.0</ele><time>2026-03-22T16:31:21.698Z</time></trkpt><trkpt lat="45.6781902" lon="12.6296399"><ele>-1.0</ele><time>2026-03-22T16:31:22.709Z</time></trkpt><trkpt lat="45.6780338" lon="12.6294795"><ele>-1.0</ele><time>2026-03-22T16:31:23.713Z</time></trkpt><trkpt lat="45.677876" lon="12.6293184"><ele>-1.0</ele><time>2026-03-22T16:31:24.71Z</time></trkpt><trkpt lat="45.6777168" lon="12.6291549"><ele>-1.0</ele><time>2026-03-22T16:31:25.708Z</time></trkpt><trkpt lat="45.6775569" lon="12.6289892"><ele>-1.0</ele><time>2026-03-22T16:31:26.708Z</time></trkpt><trkpt lat="45.6773957" lon="12.6288218"><ele>-1.0</ele><time>2026-03-22T16:31:27.714Z</time></trkpt><trkpt lat="45.6772288" lon="12.6286593"><ele>-1.3333333333333333</ele><time>2026-03-22T16:31:28.695Z</time></trkpt><trkpt lat="45.6770584" lon="12.6284975"><ele>-1.6666666666666665</ele><time>2026-03-22T16:31:29.701Z</time></trkpt><trkpt lat="45.6768874" lon="12.6283264"><ele>-2.0</ele><time>2026-03-22T16:31:30.702Z</time></trkpt><trkpt lat="45.6767143" lon="12.6281527"><ele>-2.333333333333333</ele><time>2026-03-22T16:31:31.707Z</time></trkpt><trkpt lat="45.6765438" lon="12.6279818"><ele>-2.6666666666666665</ele><time>2026-03-22T16:31:32.708Z</time></trkpt><trkpt lat="45.6763781" lon="12.6278149"><ele>-3.0</ele><time>2026-03-22T16:31:33.702Z</time></trkpt><trkpt lat="45.6762118" lon="12.6276524"><ele>-3.666666666666667</ele><time>2026-03-22T16:31:34.697Z</time></trkpt><trkpt lat="45.676045" lon="12.6274884"><ele>-4.333333333333334</ele><time>2026-03-22T16:31:35.712Z</time></trkpt><trkpt lat="45.6758775" lon="12.627324"><ele>-5.0</ele><time>2026-03-22T16:31:36.698Z</time></trkpt><trkpt lat="45.6757115" lon="12.627156"><ele>-5.0</ele><time>2026-03-22T16:31:37.712Z</time></trkpt><trkpt lat="45.675544" lon="12.626988"><ele>-5.0</ele><time>2026-03-22T16:31:38.715Z</time></trkpt><trkpt lat="45.6753662" lon="12.6268361"><ele>-5.0</ele><time>2026-03-22T16:31:39.696Z</time></trkpt><trkpt lat="45.6751932" lon="12.6266695"><ele>-5.0</ele><time>2026-03-22T16:31:40.712Z</time></trkpt><trkpt lat="45.6750198" lon="12.6264977"><ele>-5.0</ele><time>2026-03-22T16:31:41.707Z</time></trkpt><trkpt lat="45.6748448" lon="12.6263235"><ele>-5.0</ele><time>2026-03-22T16:31:42.706Z</time></trkpt><trkpt lat="45.6746685" lon="12.6261474"><ele>-4.333333333333334</ele><time>2026-03-22T16:31:43.738Z</time></trkpt><trkpt lat="45.6744898" lon="12.6259705"><ele>-3.666666666666667</ele><time>2026-03-22T16:31:44.706Z</time></trkpt><trkpt lat="45.6743107" lon="12.6257892"><ele>-3.0</ele><time>2026-03-22T16:31:45.707Z</time></trkpt><trkpt lat="45.6741288" lon="12.6256048"><ele>-3.0</ele><time>2026-03-22T16:31:46.704Z</time></trkpt><trkpt lat="45.6739427" lon="12.6254173"><ele>-3.0</ele><time>2026-03-22T16:31:47.711Z</time></trkpt><trkpt lat="45.6737476" lon="12.625241"><ele>-2.5</ele><time>2026-03-22T16:31:48.702Z</time></trkpt><trkpt lat="45.6735581" lon="12.625056"><ele>-2.0</ele><time>2026-03-22T16:31:49.709Z</time></trkpt><trkpt lat="45.6733728" lon="12.6248687"><ele>-2.0</ele><time>2026-03-22T16:31:50.696Z</time></trkpt><trkpt lat="45.6731887" lon="12.6246861"><ele>-2.0</ele><time>2026-03-22T16:31:51.7Z</time></trkpt><trkpt lat="45.6730049" lon="12.6245056"><ele>-2.0</ele><time>2026-03-22T16:31:52.703Z</time></trkpt><trkpt lat="45.67282" lon="12.6243247"><ele>-3.0</ele><time>2026-03-22T16:31:53.707Z</time></trkpt><trkpt lat="45.6726359" lon="12.6241395"><ele>-4.0</ele><time>2026-03-22T16:31:54.703Z</time></trkpt><trkpt lat="45.6724511" lon="12.6239545"><ele>-4.0</ele><time>2026-03-22T16:31:55.692Z</time></trkpt><trkpt lat="45.6722678" lon="12.623768"><ele>-4.0</ele><time>2026-03-22T16:31:56.698Z</time></trkpt><trkpt lat="45.6720911" lon="12.6235691"><ele>-3.0</ele><time>2026-03-22T16:31:57.703Z</time></trkpt><trkpt lat="45.6719017" lon="12.6233936"><ele>-2.0</ele><time>2026-03-22T16:31:58.72Z</time></trkpt><trkpt lat="45.6717154" lon="12.6232105"><ele>-2.0</ele><time>2026-03-22T16:31:59.71Z</time></trkpt><trkpt lat="45.6715357" lon="12.6230137"><ele>-2.0</ele><time>2026-03-22T16:32:00.697Z</time></trkpt><trkpt lat="45.6713505" lon="12.6228266"><ele>-2.0</ele><time>2026-03-22T16:32:01.712Z</time></trkpt><trkpt lat="45.6711641" lon="12.6226411"><ele>-2.0</ele><time>2026-03-22T16:32:02.696Z</time></trkpt><trkpt lat="45.6709776" lon="12.6224565"><ele>-2.0</ele><time>2026-03-22T16:32:03.711Z</time></trkpt><trkpt lat="45.670786" lon="12.6222841"><ele>-2.0</ele><time>2026-03-22T16:32:04.71Z</time></trkpt><trkpt lat="45.6706006" lon="12.6221022"><ele>-2.0</ele><time>2026-03-22T16:32:05.703Z</time></trkpt><trkpt lat="45.6704179" lon="12.6219164"><ele>-2.0</ele><time>2026-03-22T16:32:06.697Z</time></trkpt><trkpt lat="45.6702353" lon="12.6217321"><ele>-2.0</ele><time>2026-03-22T16:32:07.716Z</time></trkpt><trkpt lat="45.6700534" lon="12.6215473"><ele>-2.0</ele><time>2026-03-22T16:32:08.707Z</time></trkpt><trkpt lat="45.6698697" lon="12.6213644"><ele>-2.0</ele><time>2026-03-22T16:32:09.704Z</time></trkpt><trkpt lat="45.6696849" lon="12.6211833"><ele>-2.0</ele><time>2026-03-22T16:32:10.702Z</time></trkpt><trkpt lat="45.6695008" lon="12.6210028"><ele>-0.33333333333333326</ele><time>2026-03-22T16:32:11.698Z</time></trkpt><trkpt lat="45.6693172" lon="12.6208252"><ele>1.3333333333333335</ele><time>2026-03-22T16:32:12.695Z</time></trkpt><trkpt lat="45.6691335" lon="12.6206465"><ele>3.0</ele><time>2026-03-22T16:32:13.71Z</time></trkpt><trkpt lat="45.6689482" lon="12.6204689"><ele>1.6666666666666667</ele><time>2026-03-22T16:32:14.713Z</time></trkpt><trkpt lat="45.6687647" lon="12.6202879"><ele>0.33333333333333337</ele><time>2026-03-22T16:32:15.709Z</time></trkpt><trkpt lat="45.6685823" lon="12.6201034"><ele>-1.0</ele><time>2026-03-22T16:32:16.709Z</time></trkpt><trkpt lat="45.6683983" lon="12.6199187"><ele>-1.5</ele><time>2026-03-22T16:32:17.706Z</time></trkpt><trkpt lat="45.6682123" lon="12.6197337"><ele>-2.0</ele><time>2026-03-22T16:32:18.712Z</time></trkpt><trkpt lat="45.6680258" lon="12.6195476"><ele>-2.0</ele><time>2026-03-22T16:32:19.72Z</time></trkpt><trkpt lat="45.6678392" lon="12.6193603"><ele>-2.0</ele><time>2026-03-22T16:32:20.719Z</time></trkpt><trkpt lat="45.6676531" lon="12.6191743"><ele>-2.5</ele><time>2026-03-22T16:32:21.702Z</time></trkpt><trkpt lat="45.667466" lon="12.6189889"><ele>-3.0</ele><time>2026-03-22T16:32:22.701Z</time></trkpt><trkpt lat="45.6672766" lon="12.6188029"><ele>-2.5</ele><time>2026-03-22T16:32:23.712Z</time></trkpt><trkpt lat="45.6670868" lon="12.6186158"><ele>-2.0</ele><time>2026-03-22T16:32:24.698Z</time></trkpt><trkpt lat="45.6669052" lon="12.6184222"><ele>-2.0</ele><time>2026-03-22T16:32:25.705Z</time></trkpt><trkpt lat="45.6667154" lon="12.6182547"><ele>-2.0</ele><time>2026-03-22T16:32:26.705Z</time></trkpt><trkpt lat="45.6665303" lon="12.6180782"><ele>-2.0</ele><time>2026-03-22T16:32:27.684Z</time></trkpt><trkpt lat="45.6663434" lon="12.6179039"><ele>-2.0</ele><time>2026-03-22T16:32:28.702Z</time></trkpt><trkpt lat="45.6661567" lon="12.6177233"><ele>-2.0</ele><time>2026-03-22T16:32:29.714Z</time></trkpt><trkpt lat="45.6659677" lon="12.6175375"><ele>-3.0</ele><time>2026-03-22T16:32:30.7Z</time></trkpt><trkpt lat="45.6657843" lon="12.6173404"><ele>-4.0</ele><time>2026-03-22T16:32:31.7Z</time></trkpt><trkpt lat="45.6655958" lon="12.6171531"><ele>-3.5</ele><time>2026-03-22T16:32:32.705Z</time></trkpt><trkpt lat="45.6654122" lon="12.6169603"><ele>-3.0</ele><time>2026-03-22T16:32:33.698Z</time></trkpt><trkpt lat="45.6652288" lon="12.6167728"><ele>-3.0</ele><time>2026-03-22T16:32:34.689Z</time></trkpt><trkpt lat="45.6650438" lon="12.6165977"><ele>-3.0</ele><time>2026-03-22T16:32:35.717Z</time></trkpt><trkpt lat="45.6648593" lon="12.6164172"><ele>-3.0</ele><time>2026-03-22T16:32:36.723Z</time></trkpt><trkpt lat="45.6646666" lon="12.6162271"><ele>-3.0</ele><time>2026-03-22T16:32:37.714Z</time></trkpt><trkpt lat="45.6644671" lon="12.6160269"><ele>-3.0</ele><time>2026-03-22T16:32:38.709Z</time></trkpt><trkpt lat="45.6642589" lon="12.615824"><ele>-3.0</ele><time>2026-03-22T16:32:39.694Z</time></trkpt><trkpt lat="45.6640402" lon="12.6156205"><ele>-3.0</ele><time>2026-03-22T16:32:40.733Z</time></trkpt><trkpt lat="45.6638222" lon="12.6154057"><ele>-3.5</ele><time>2026-03-22T16:32:41.724Z</time></trkpt><trkpt lat="45.6636083" lon="12.6151834"><ele>-4.0</ele><time>2026-03-22T16:32:42.706Z</time></trkpt><trkpt lat="45.6633866" lon="12.6149633"><ele>-4.0</ele><time>2026-03-22T16:32:43.708Z</time></trkpt><trkpt lat="45.6631687" lon="12.6147293"><ele>-4.0</ele><time>2026-03-22T16:32:44.688Z</time></trkpt><trkpt lat="45.66295" lon="12.6144932"><ele>-4.0</ele><time>2026-03-22T16:32:45.712Z</time></trkpt><trkpt lat="45.6627293" lon="12.6142619"><ele>-4.0</ele><time>2026-03-22T16:32:46.704Z</time></trkpt><trkpt lat="45.6625094" lon="12.6140427"><ele>-4.0</ele><time>2026-03-22T16:32:47.71Z</time></trkpt><trkpt lat="45.6622964" lon="12.6138317"><ele>-4.0</ele><time>2026-03-22T16:32:48.699Z</time></trkpt><trkpt lat="45.6620872" lon="12.613625"><ele>-3.0</ele><time>2026-03-22T16:32:49.705Z</time></trkpt><trkpt lat="45.6618812" lon="12.6134165"><ele>-2.0</ele><time>2026-03-22T16:32:50.712Z</time></trkpt><trkpt lat="45.6616775" lon="12.6132103"><ele>-2.0</ele><time>2026-03-22T16:32:51.704Z</time></trkpt><trkpt lat="45.6614749" lon="12.6130058"><ele>-2.0</ele><time>2026-03-22T16:32:52.704Z</time></trkpt><trkpt lat="45.6612704" lon="12.6128034"><ele>-2.5</ele><time>2026-03-22T16:32:53.713Z</time></trkpt><trkpt lat="45.6610665" lon="12.6125971"><ele>-3.0</ele><time>2026-03-22T16:32:54.705Z</time></trkpt><trkpt lat="45.6608616" lon="12.612391"><ele>-3.0</ele><time>2026-03-22T16:32:55.734Z</time></trkpt><trkpt lat="45.6606571" lon="12.612184"><ele>-3.0</ele><time>2026-03-22T16:32:56.707Z</time></trkpt><trkpt lat="45.6604509" lon="12.6119824"><ele>-2.5</ele><time>2026-03-22T16:32:57.72Z</time></trkpt><trkpt lat="45.6602461" lon="12.6117827"><ele>-2.0</ele><time>2026-03-22T16:32:58.694Z</time></trkpt><trkpt lat="45.6600451" lon="12.6115832"><ele>-2.0</ele><time>2026-03-22T16:32:59.71Z</time></trkpt><trkpt lat="45.6598482" lon="12.611383"><ele>-2.0</ele><time>2026-03-22T16:33:00.699Z</time></trkpt><trkpt lat="45.6596531" lon="12.611186"><ele>-2.0</ele><time>2026-03-22T16:33:01.717Z</time></trkpt><trkpt lat="45.6594593" lon="12.6109923"><ele>-2.0</ele><time>2026-03-22T16:33:02.704Z</time></trkpt><trkpt lat="45.6592717" lon="12.6108059"><ele>-0.6666666666666666</ele><time>2026-03-22T16:33:03.716Z</time></trkpt><trkpt lat="45.6590929" lon="12.6106278"><ele>0.6666666666666666</ele><time>2026-03-22T16:33:04.696Z</time></trkpt><trkpt lat="45.6589183" lon="12.6104571"><ele>2.0</ele><time>2026-03-22T16:33:05.706Z</time></trkpt><trkpt lat="45.6587479" lon="12.6102912"><ele>1.6666666666666665</ele><time>2026-03-22T16:33:06.705Z</time></trkpt><trkpt lat="45.6585807" lon="12.6101247"><ele>1.3333333333333333</ele><time>2026-03-22T16:33:07.694Z</time></trkpt><trkpt lat="45.6584166" lon="12.6099564"><ele>1.0</ele><time>2026-03-22T16:33:08.698Z</time></trkpt><trkpt lat="45.6582486" lon="12.6097913"><ele>1.0</ele><time>2026-03-22T16:33:09.711Z</time></trkpt><trkpt lat="45.658079" lon="12.6096257"><ele>1.0</ele><time>2026-03-22T16:33:10.697Z</time></trkpt><trkpt lat="45.6579143" lon="12.6094582"><ele>1.0</ele><time>2026-03-22T16:33:11.71Z</time></trkpt><trkpt lat="45.6577502" lon="12.6093034"><ele>0.3333333333333333</ele><time>2026-03-22T16:33:12.704Z</time></trkpt><trkpt lat="45.6575938" lon="12.609151"><ele>-0.3333333333333333</ele><time>2026-03-22T16:33:13.707Z</time></trkpt><trkpt lat="45.6574434" lon="12.6090026"><ele>-1.0</ele><time>2026-03-22T16:33:14.7Z</time></trkpt><trkpt lat="45.6572951" lon="12.6088619"><ele>-1.0</ele><time>2026-03-22T16:33:15.715Z</time></trkpt><trkpt lat="45.6571536" lon="12.6087154"><ele>-1.0</ele><time>2026-03-22T16:33:16.699Z</time></trkpt><trkpt lat="45.6570106" lon="12.6085688"><ele>-1.0</ele><time>2026-03-22T16:33:17.715Z</time></trkpt><trkpt lat="45.6568664" lon="12.6084355"><ele>-0.6666666666666666</ele><time>2026-03-22T16:33:18.71Z</time></trkpt><trkpt lat="45.6567227" lon="12.6082996"><ele>-0.3333333333333333</ele><time>2026-03-22T16:33:19.706Z</time></trkpt><trkpt lat="45.65658" lon="12.6081628"><ele>0.0</ele><time>2026-03-22T16:33:20.7Z</time></trkpt><trkpt lat="45.6564416" lon="12.60802"><ele>0.0</ele><time>2026-03-22T16:33:21.695Z</time></trkpt><trkpt lat="45.6563035" lon="12.6078826"><ele>0.0</ele><time>2026-03-22T16:33:22.694Z</time></trkpt><trkpt lat="45.6561636" lon="12.6077545"><ele>0.0</ele><time>2026-03-22T16:33:23.71Z</time></trkpt><trkpt lat="45.6560269" lon="12.6076258"><ele>0.3333333333333333</ele><time>2026-03-22T16:33:24.709Z</time></trkpt><trkpt lat="45.6558989" lon="12.6074775"><ele>0.6666666666666666</ele><time>2026-03-22T16:33:25.708Z</time></trkpt><trkpt lat="45.6557671" lon="12.6073422"><ele>1.0</ele><time>2026-03-22T16:33:26.698Z</time></trkpt><trkpt lat="45.6556354" lon="12.6072156"><ele>1.0</ele><time>2026-03-22T16:33:27.716Z</time></trkpt><trkpt lat="45.6555068" lon="12.6070838"><ele>1.0</ele><time>2026-03-22T16:33:28.707Z</time></trkpt><trkpt lat="45.6553693" lon="12.6069677"><ele>1.0</ele><time>2026-03-22T16:33:29.708Z</time></trkpt><trkpt lat="45.6552394" lon="12.6068346"><ele>0.6666666666666666</ele><time>2026-03-22T16:33:30.707Z</time></trkpt><trkpt lat="45.6551068" lon="12.6067076"><ele>0.3333333333333333</ele><time>2026-03-22T16:33:31.696Z</time></trkpt><trkpt lat="45.6549769" lon="12.6065769"><ele>0.0</ele><time>2026-03-22T16:33:32.717Z</time></trkpt><trkpt lat="45.6548508" lon="12.606453"><ele>0.0</ele><time>2026-03-22T16:33:33.716Z</time></trkpt><trkpt lat="45.6547314" lon="12.6063327"><ele>0.0</ele><time>2026-03-22T16:33:34.701Z</time></trkpt><trkpt lat="45.6546136" lon="12.6062196"><ele>0.0</ele><time>2026-03-22T16:33:35.703Z</time></trkpt><trkpt lat="45.654498" lon="12.6061093"><ele>0.0</ele><time>2026-03-22T16:33:36.706Z</time></trkpt><trkpt lat="45.6543832" lon="12.6059966"><ele>0.25</ele><time>2026-03-22T16:33:37.702Z</time></trkpt><trkpt lat="45.6542725" lon="12.6058798"><ele>0.5</ele><time>2026-03-22T16:33:38.704Z</time></trkpt><trkpt lat="45.6541641" lon="12.6057651"><ele>0.75</ele><time>2026-03-22T16:33:39.711Z</time></trkpt><trkpt lat="45.6540431" lon="12.6056426"><ele>1.0</ele><time>2026-03-22T16:33:40.697Z</time></trkpt><trkpt lat="45.6539089" lon="12.605506"><ele>1.0</ele><time>2026-03-22T16:33:41.711Z</time></trkpt><trkpt lat="45.6537707" lon="12.6053585"><ele>1.0</ele><time>2026-03-22T16:33:42.703Z</time></trkpt><trkpt lat="45.6536254" lon="12.6051978"><ele>1.0</ele><time>2026-03-22T16:33:43.708Z</time></trkpt><trkpt lat="45.6534738" lon="12.6050201"><ele>0.3333333333333333</ele><time>2026-03-22T16:33:44.704Z</time></trkpt><trkpt lat="45.6533207" lon="12.6048494"><ele>-0.3333333333333333</ele><time>2026-03-22T16:33:45.706Z</time></trkpt><trkpt lat="45.653164" lon="12.6046818"><ele>-1.0</ele><time>2026-03-22T16:33:46.702Z</time></trkpt><trkpt lat="45.653012" lon="12.6045245"><ele>-1.0</ele><time>2026-03-22T16:33:47.697Z</time></trkpt><trkpt lat="45.6528541" lon="12.6043667"><ele>-1.0</ele><time>2026-03-22T16:33:48.716Z</time></trkpt><trkpt lat="45.6526995" lon="12.604214"><ele>-1.0</ele><time>2026-03-22T16:33:49.722Z</time></trkpt><trkpt lat="45.6525456" lon="12.6040603"><ele>-0.6666666666666666</ele><time>2026-03-22T16:33:50.7Z</time></trkpt><trkpt lat="45.6523869" lon="12.6039021"><ele>-0.3333333333333333</ele><time>2026-03-22T16:33:51.707Z</time></trkpt><trkpt lat="45.6522286" lon="12.6037482"><ele>0.0</ele><time>2026-03-22T16:33:52.713Z</time></trkpt><trkpt lat="45.6520706" lon="12.6035966"><ele>0.3333333333333333</ele><time>2026-03-22T16:33:53.702Z</time></trkpt><trkpt lat="45.6519108" lon="12.6034434"><ele>0.6666666666666666</ele><time>2026-03-22T16:33:54.701Z</time></trkpt><trkpt lat="45.6517508" lon="12.6032888"><ele>1.0</ele><time>2026-03-22T16:33:55.685Z</time></trkpt><trkpt lat="45.6515906" lon="12.6031333"><ele>1.0</ele><time>2026-03-22T16:33:56.676Z</time></trkpt><trkpt lat="45.6514289" lon="12.6029781"><ele>1.0</ele><time>2026-03-22T16:33:57.697Z</time></trkpt><trkpt lat="45.6512729" lon="12.6028285"><ele>1.0</ele><time>2026-03-22T16:33:58.692Z</time></trkpt><trkpt lat="45.6511213" lon="12.6026824"><ele>0.6666666666666666</ele><time>2026-03-22T16:33:59.704Z</time></trkpt><trkpt lat="45.650973" lon="12.6025401"><ele>0.3333333333333333</ele><time>2026-03-22T16:34:00.704Z</time></trkpt><trkpt lat="45.6508273" lon="12.602403"><ele>0.0</ele><time>2026-03-22T16:34:01.715Z</time></trkpt><trkpt lat="45.650686" lon="12.6022742"><ele>0.0</ele><time>2026-03-22T16:34:02.702Z</time></trkpt><trkpt lat="45.6505489" lon="12.602151"><ele>0.0</ele><time>2026-03-22T16:34:03.712Z</time></trkpt><trkpt lat="45.6504254" lon="12.6020362"><ele>0.0</ele><time>2026-03-22T16:34:04.696Z</time></trkpt><trkpt lat="45.6503131" lon="12.6019274"><ele>0.0</ele><time>2026-03-22T16:34:05.705Z</time></trkpt><trkpt lat="45.6502256" lon="12.6018359"><ele>-0.5</ele><time>2026-03-22T16:34:06.707Z</time></trkpt><trkpt lat="45.6501543" lon="12.6017628"><ele>-1.0</ele><time>2026-03-22T16:34:07.704Z</time></trkpt><trkpt lat="45.6500984" lon="12.6017077"><ele>-1.5</ele><time>2026-03-22T16:34:08.701Z</time></trkpt><trkpt lat="45.6500278" lon="12.6016379"><ele>-2.0</ele><time>2026-03-22T16:34:10.696Z</time></trkpt><trkpt lat="45.6499505" lon="12.601566"><ele>-2.5</ele><time>2026-03-22T16:34:16.7Z</time></trkpt><trkpt lat="45.6498843" lon="12.6014988"><ele>-3.0</ele><time>2026-03-22T16:34:18.69Z</time></trkpt><trkpt lat="45.6497841" lon="12.601405"><ele>-3.0</ele><time>2026-03-22T16:34:50.697Z</time></trkpt><trkpt lat="45.6496897" lon="12.6013158"><ele>-3.0</ele><time>2026-03-22T16:34:52.688Z</time></trkpt><trkpt lat="45.6496325" lon="12.6012557"><ele>-3.0</ele><time>2026-03-22T16:34:53.712Z</time></trkpt><trkpt lat="45.6495728" lon="12.6011875"><ele>-3.0</ele><time>2026-03-22T16:34:54.708Z</time></trkpt><trkpt lat="45.6495115" lon="12.6011195"><ele>-3.0</ele><time>2026-03-22T16:34:55.71Z</time></trkpt><trkpt lat="45.649448" lon="12.6010498"><ele>-3.0</ele><time>2026-03-22T16:34:56.712Z</time></trkpt><trkpt lat="45.6493833" lon="12.6009802"><ele>-2.6</ele><time>2026-03-22T16:34:57.717Z</time></trkpt><trkpt lat="45.6493076" lon="12.6009039"><ele>-2.1999999999999997</ele><time>2026-03-22T16:34:58.714Z</time></trkpt><trkpt lat="45.6492233" lon="12.6008168"><ele>-1.8</ele><time>2026-03-22T16:34:59.706Z</time></trkpt><trkpt lat="45.6491338" lon="12.6007223"><ele>-1.4</ele><time>2026-03-22T16:35:00.707Z</time></trkpt><trkpt lat="45.6490385" lon="12.6006217"><ele>-1.0</ele><time>2026-03-22T16:35:01.703Z</time></trkpt><trkpt lat="45.6489396" lon="12.6005208"><ele>-1.0</ele><time>2026-03-22T16:35:02.704Z</time></trkpt><trkpt lat="45.6488383" lon="12.600419"><ele>-1.0</ele><time>2026-03-22T16:35:03.706Z</time></trkpt><trkpt lat="45.6487317" lon="12.6003111"><ele>-1.0</ele><time>2026-03-22T16:35:04.729Z</time></trkpt><trkpt lat="45.6486247" lon="12.6002011"><ele>-1.0</ele><time>2026-03-22T16:35:05.73Z</time></trkpt><trkpt lat="45.6485132" lon="12.6000845"><ele>-0.5</ele><time>2026-03-22T16:35:06.719Z</time></trkpt><trkpt lat="45.6483962" lon="12.5999662"><ele>0.0</ele><time>2026-03-22T16:35:07.726Z</time></trkpt><trkpt lat="45.6482742" lon="12.599842"><ele>0.5</ele><time>2026-03-22T16:35:08.706Z</time></trkpt><trkpt lat="45.6481516" lon="12.5997141"><ele>1.0</ele><time>2026-03-22T16:35:09.705Z</time></trkpt><trkpt lat="45.6480303" lon="12.5995861"><ele>1.0</ele><time>2026-03-22T16:35:10.709Z</time></trkpt><trkpt lat="45.6479092" lon="12.5994592"><ele>1.0</ele><time>2026-03-22T16:35:11.709Z</time></trkpt><trkpt lat="45.6477885" lon="12.5993371"><ele>1.0</ele><time>2026-03-22T16:35:12.7Z</time></trkpt><trkpt lat="45.6476644" lon="12.5992106"><ele>1.0</ele><time>2026-03-22T16:35:13.7Z</time></trkpt><trkpt lat="45.6475383" lon="12.5990811"><ele>1.0</ele><time>2026-03-22T16:35:14.695Z</time></trkpt><trkpt lat="45.6474098" lon="12.5989462"><ele>1.0</ele><time>2026-03-22T16:35:15.709Z</time></trkpt><trkpt lat="45.6472839" lon="12.5988138"><ele>1.0</ele><time>2026-03-22T16:35:16.7Z</time></trkpt><trkpt lat="45.647159" lon="12.5986834"><ele>1.0</ele><time>2026-03-22T16:35:17.708Z</time></trkpt><trkpt lat="45.6470362" lon="12.5985569"><ele>1.0</ele><time>2026-03-22T16:35:18.706Z</time></trkpt><trkpt lat="45.6469146" lon="12.5984339"><ele>0.5</ele><time>2026-03-22T16:35:19.707Z</time></trkpt><trkpt lat="45.6467938" lon="12.5983093"><ele>0.0</ele><time>2026-03-22T16:35:20.715Z</time></trkpt><trkpt lat="45.6466766" lon="12.5981862"><ele>-0.5</ele><time>2026-03-22T16:35:21.727Z</time></trkpt><trkpt lat="45.6465632" lon="12.5980667"><ele>-1.0</ele><time>2026-03-22T16:35:22.707Z</time></trkpt><trkpt lat="45.6464486" lon="12.5979476"><ele>-1.0</ele><time>2026-03-22T16:35:23.713Z</time></trkpt><trkpt lat="45.6463349" lon="12.5978309"><ele>-1.0</ele><time>2026-03-22T16:35:24.704Z</time></trkpt><trkpt lat="45.6462188" lon="12.5977103"><ele>-1.0</ele><time>2026-03-22T16:35:25.71Z</time></trkpt><trkpt lat="45.6461042" lon="12.5975916"><ele>-1.0</ele><time>2026-03-22T16:35:26.707Z</time></trkpt><trkpt lat="45.6459872" lon="12.5974711"><ele>-0.5</ele><time>2026-03-22T16:35:27.699Z</time></trkpt><trkpt lat="45.6458703" lon="12.5973489"><ele>0.0</ele><time>2026-03-22T16:35:28.713Z</time></trkpt><trkpt lat="45.6457561" lon="12.5972212"><ele>0.5</ele><time>2026-03-22T16:35:29.709Z</time></trkpt><trkpt lat="45.645645" lon="12.5970877"><ele>1.0</ele><time>2026-03-22T16:35:30.699Z</time></trkpt><trkpt lat="45.6455389" lon="12.5969426"><ele>1.0</ele><time>2026-03-22T16:35:31.694Z</time></trkpt><trkpt lat="45.6454394" lon="12.596786"><ele>1.0</ele><time>2026-03-22T16:35:32.704Z</time></trkpt><trkpt lat="45.645346" lon="12.5966298"><ele>1.0</ele><time>2026-03-22T16:35:33.708Z</time></trkpt><trkpt lat="45.6452551" lon="12.5964775"><ele>1.0</ele><time>2026-03-22T16:35:34.687Z</time></trkpt><trkpt lat="45.6451639" lon="12.5963259"><ele>1.2000000000000002</ele><time>2026-03-22T16:35:35.736Z</time></trkpt><trkpt lat="45.6450842" lon="12.5961913"><ele>1.4000000000000001</ele><time>2026-03-22T16:35:36.687Z</time></trkpt><trkpt lat="45.6450071" lon="12.5960585"><ele>1.6</ele><time>2026-03-22T16:35:37.688Z</time></trkpt><trkpt lat="45.6449374" lon="12.5959375"><ele>1.8</ele><time>2026-03-22T16:35:38.695Z</time></trkpt><trkpt lat="45.6448753" lon="12.5958335"><ele>2.0</ele><time>2026-03-22T16:35:39.696Z</time></trkpt><trkpt lat="45.6448245" lon="12.5957477"><ele>1.6666666666666665</ele><time>2026-03-22T16:35:40.708Z</time></trkpt><trkpt lat="45.6447431" lon="12.5956156"><ele>1.3333333333333333</ele><time>2026-03-22T16:35:42.699Z</time></trkpt><trkpt lat="45.6446757" lon="12.5955111"><ele>1.0</ele><time>2026-03-22T16:35:44.719Z</time></trkpt><trkpt lat="45.6446926" lon="12.5953916"><ele>0.6666666666666666</ele><time>2026-03-22T16:35:46.699Z</time></trkpt><trkpt lat="45.6446515" lon="12.5953204"><ele>0.3333333333333333</ele><time>2026-03-22T16:35:50.701Z</time></trkpt><trkpt lat="45.6445968" lon="12.5952511"><ele>0.0</ele><time>2026-03-22T16:35:55.714Z</time></trkpt><trkpt lat="45.6445644" lon="12.5951462"><ele>0.0</ele><time>2026-03-22T16:36:00.702Z</time></trkpt><trkpt lat="45.6445441" lon="12.5950569"><ele>0.0</ele><time>2026-03-22T16:36:01.704Z</time></trkpt><trkpt lat="45.6445298" lon="12.5949392"><ele>0.0</ele><time>2026-03-22T16:36:02.691Z</time></trkpt><trkpt lat="45.6445094" lon="12.5948175"><ele>0.0</ele><time>2026-03-22T16:36:03.695Z</time></trkpt><trkpt lat="45.6444862" lon="12.5946922"><ele>0.0</ele><time>2026-03-22T16:36:04.695Z</time></trkpt><trkpt lat="45.6444429" lon="12.5945674"><ele>0.0</ele><time>2026-03-22T16:36:05.705Z</time></trkpt><trkpt lat="45.6443657" lon="12.5944652"><ele>-0.4</ele><time>2026-03-22T16:36:06.692Z</time></trkpt><trkpt lat="45.644283" lon="12.5943659"><ele>-0.8</ele><time>2026-03-22T16:36:07.697Z</time></trkpt><trkpt lat="45.6441829" lon="12.5943142"><ele>-1.2000000000000002</ele><time>2026-03-22T16:36:08.692Z</time></trkpt><trkpt lat="45.6440747" lon="12.5943174"><ele>-1.6</ele><time>2026-03-22T16:36:09.703Z</time></trkpt><trkpt lat="45.6439655" lon="12.5943212"><ele>-2.0</ele><time>2026-03-22T16:36:10.714Z</time></trkpt><trkpt lat="45.6438496" lon="12.5943253"><ele>-2.0</ele><time>2026-03-22T16:36:11.703Z</time></trkpt><trkpt lat="45.6437301" lon="12.5942704"><ele>-2.0</ele><time>2026-03-22T16:36:12.688Z</time></trkpt><trkpt lat="45.643616" lon="12.5941439"><ele>-2.0</ele><time>2026-03-22T16:36:13.712Z</time></trkpt><trkpt lat="45.6435181" lon="12.5939864"><ele>-2.0</ele><time>2026-03-22T16:36:14.701Z</time></trkpt><trkpt lat="45.643412" lon="12.593834"><ele>-1.3333333333333333</ele><time>2026-03-22T16:36:15.703Z</time></trkpt><trkpt lat="45.6432979" lon="12.5936893"><ele>-0.6666666666666666</ele><time>2026-03-22T16:36:16.696Z</time></trkpt><trkpt lat="45.643181" lon="12.5935441"><ele>0.0</ele><time>2026-03-22T16:36:17.707Z</time></trkpt><trkpt lat="45.643062" lon="12.5933977"><ele>0.0</ele><time>2026-03-22T16:36:18.698Z</time></trkpt><trkpt lat="45.6429381" lon="12.5932538"><ele>0.0</ele><time>2026-03-22T16:36:19.689Z</time></trkpt><trkpt lat="45.642814" lon="12.5931069"><ele>0.0</ele><time>2026-03-22T16:36:20.712Z</time></trkpt><trkpt lat="45.6426892" lon="12.5929585"><ele>-1.0</ele><time>2026-03-22T16:36:21.702Z</time></trkpt><trkpt lat="45.6425615" lon="12.5928096"><ele>-2.0</ele><time>2026-03-22T16:36:22.694Z</time></trkpt><trkpt lat="45.6424366" lon="12.592656"><ele>-3.0</ele><time>2026-03-22T16:36:23.711Z</time></trkpt><trkpt lat="45.6423105" lon="12.5925001"><ele>-3.0</ele><time>2026-03-22T16:36:24.696Z</time></trkpt><trkpt lat="45.6421828" lon="12.5923465"><ele>-3.0</ele><time>2026-03-22T16:36:25.709Z</time></trkpt><trkpt lat="45.6420527" lon="12.5921895"><ele>-3.0</ele><time>2026-03-22T16:36:26.697Z</time></trkpt><trkpt lat="45.6419219" lon="12.5920299"><ele>-3.0</ele><time>2026-03-22T16:36:27.697Z</time></trkpt><trkpt lat="45.6417899" lon="12.5918678"><ele>-3.0</ele><time>2026-03-22T16:36:28.695Z</time></trkpt><trkpt lat="45.6416551" lon="12.5917063"><ele>-3.0</ele><time>2026-03-22T16:36:29.696Z</time></trkpt><trkpt lat="45.6415223" lon="12.5915387"><ele>-3.0</ele><time>2026-03-22T16:36:30.7Z</time></trkpt><trkpt lat="45.6413881" lon="12.5913718"><ele>-3.0</ele><time>2026-03-22T16:36:31.697Z</time></trkpt><trkpt lat="45.6412548" lon="12.5912048"><ele>-3.0</ele><time>2026-03-22T16:36:32.695Z</time></trkpt><trkpt lat="45.6411219" lon="12.5910364"><ele>-2.3333333333333335</ele><time>2026-03-22T16:36:33.694Z</time></trkpt><trkpt lat="45.6409871" lon="12.5908733"><ele>-1.6666666666666665</ele><time>2026-03-22T16:36:34.707Z</time></trkpt><trkpt lat="45.6408542" lon="12.5907104"><ele>-1.0</ele><time>2026-03-22T16:36:35.701Z</time></trkpt><trkpt lat="45.6407222" lon="12.590551"><ele>-1.0</ele><time>2026-03-22T16:36:36.704Z</time></trkpt><trkpt lat="45.6405971" lon="12.5903935"><ele>-1.0</ele><time>2026-03-22T16:36:37.707Z</time></trkpt><trkpt lat="45.6404758" lon="12.590243"><ele>-1.0</ele><time>2026-03-22T16:36:38.697Z</time></trkpt><trkpt lat="45.6403606" lon="12.5900998"><ele>-1.0</ele><time>2026-03-22T16:36:39.699Z</time></trkpt><trkpt lat="45.6402567" lon="12.5899628"><ele>-1.0</ele><time>2026-03-22T16:36:40.7Z</time></trkpt><trkpt lat="45.640164" lon="12.5898156"><ele>-1.0</ele><time>2026-03-22T16:36:41.711Z</time></trkpt><trkpt lat="45.6400893" lon="12.5896783"><ele>-1.0</ele><time>2026-03-22T16:36:42.706Z</time></trkpt><trkpt lat="45.6400232" lon="12.589537"><ele>-1.25</ele><time>2026-03-22T16:36:43.706Z</time></trkpt><trkpt lat="45.6399702" lon="12.5893805"><ele>-1.5</ele><time>2026-03-22T16:36:44.702Z</time></trkpt><trkpt lat="45.6399296" lon="12.589209"><ele>-1.75</ele><time>2026-03-22T16:36:45.692Z</time></trkpt><trkpt lat="45.6398989" lon="12.589029"><ele>-2.0</ele><time>2026-03-22T16:36:46.698Z</time></trkpt><trkpt lat="45.6398585" lon="12.5888514"><ele>-2.0</ele><time>2026-03-22T16:36:47.701Z</time></trkpt><trkpt lat="45.6398138" lon="12.588679"><ele>-2.0</ele><time>2026-03-22T16:36:48.69Z</time></trkpt><trkpt lat="45.6397364" lon="12.5885438"><ele>-2.0</ele><time>2026-03-22T16:36:49.702Z</time></trkpt><trkpt lat="45.6396462" lon="12.5884426"><ele>-2.0</ele><time>2026-03-22T16:36:50.705Z</time></trkpt><trkpt lat="45.6395308" lon="12.5883921"><ele>-1.75</ele><time>2026-03-22T16:36:51.697Z</time></trkpt><trkpt lat="45.6394054" lon="12.5883851"><ele>-1.5</ele><time>2026-03-22T16:36:52.7Z</time></trkpt><trkpt lat="45.6392759" lon="12.5884102"><ele>-1.25</ele><time>2026-03-22T16:36:53.703Z</time></trkpt><trkpt lat="45.6391482" lon="12.5884675"><ele>-1.0</ele><time>2026-03-22T16:36:54.71Z</time></trkpt><trkpt lat="45.639015" lon="12.5885205"><ele>-1.0</ele><time>2026-03-22T16:36:55.712Z</time></trkpt><trkpt lat="45.6388761" lon="12.5885248"><ele>-1.0</ele><time>2026-03-22T16:36:56.695Z</time></trkpt><trkpt lat="45.6387342" lon="12.5884972"><ele>-1.0</ele><time>2026-03-22T16:36:57.706Z</time></trkpt><trkpt lat="45.6385914" lon="12.5884663"><ele>-1.0</ele><time>2026-03-22T16:36:58.697Z</time></trkpt><trkpt lat="45.6384488" lon="12.5884229"><ele>-1.0</ele><time>2026-03-22T16:36:59.705Z</time></trkpt><trkpt lat="45.6383037" lon="12.588386"><ele>-1.0</ele><time>2026-03-22T16:37:00.696Z</time></trkpt><trkpt lat="45.6381524" lon="12.5883571"><ele>-1.0</ele><time>2026-03-22T16:37:01.698Z</time></trkpt><trkpt lat="45.637993" lon="12.5883324"><ele>-1.0</ele><time>2026-03-22T16:37:02.714Z</time></trkpt><trkpt lat="45.6378279" lon="12.5883106"><ele>-1.0</ele><time>2026-03-22T16:37:03.701Z</time></trkpt><trkpt lat="45.6376594" lon="12.588282"><ele>-1.0</ele><time>2026-03-22T16:37:04.701Z</time></trkpt><trkpt lat="45.6374877" lon="12.5882605"><ele>-0.6666666666666666</ele><time>2026-03-22T16:37:05.716Z</time></trkpt><trkpt lat="45.6373156" lon="12.5882371"><ele>-0.3333333333333333</ele><time>2026-03-22T16:37:06.703Z</time></trkpt><trkpt lat="45.6371439" lon="12.588219"><ele>0.0</ele><time>2026-03-22T16:37:07.713Z</time></trkpt><trkpt lat="45.6369739" lon="12.5882019"><ele>0.0</ele><time>2026-03-22T16:37:08.705Z</time></trkpt><trkpt lat="45.6368077" lon="12.5881659"><ele>0.0</ele><time>2026-03-22T16:37:09.738Z</time></trkpt><trkpt lat="45.6366455" lon="12.5881441"><ele>0.0</ele><time>2026-03-22T16:37:10.695Z</time></trkpt><trkpt lat="45.6364874" lon="12.5881262"><ele>0.0</ele><time>2026-03-22T16:37:11.712Z</time></trkpt><trkpt lat="45.6363428" lon="12.5880949"><ele>0.0</ele><time>2026-03-22T16:37:12.699Z</time></trkpt><trkpt lat="45.6362009" lon="12.5880917"><ele>0.0</ele><time>2026-03-22T16:37:13.705Z</time></trkpt><trkpt lat="45.636064" lon="12.5880837"><ele>0.0</ele><time>2026-03-22T16:37:14.702Z</time></trkpt><trkpt lat="45.6359338" lon="12.5880616"><ele>0.0</ele><time>2026-03-22T16:37:15.706Z</time></trkpt><trkpt lat="45.6358065" lon="12.5880462"><ele>0.0</ele><time>2026-03-22T16:37:16.71Z</time></trkpt><trkpt lat="45.6356856" lon="12.5880354"><ele>0.0</ele><time>2026-03-22T16:37:17.707Z</time></trkpt><trkpt lat="45.6355738" lon="12.5880219"><ele>0.0</ele><time>2026-03-22T16:37:18.705Z</time></trkpt><trkpt lat="45.6354754" lon="12.5880081"><ele>0.0</ele><time>2026-03-22T16:37:19.702Z</time></trkpt><trkpt lat="45.6353903" lon="12.5879764"><ele>0.0</ele><time>2026-03-22T16:37:20.718Z</time></trkpt><trkpt lat="45.6353172" lon="12.5879297"><ele>0.0</ele><time>2026-03-22T16:37:21.7Z</time></trkpt><trkpt lat="45.6352474" lon="12.5878854"><ele>0.0</ele><time>2026-03-22T16:37:22.69Z</time></trkpt><trkpt lat="45.6351727" lon="12.5878641"><ele>0.0</ele><time>2026-03-22T16:37:23.709Z</time></trkpt><trkpt lat="45.6350948" lon="12.5878862"><ele>0.0</ele><time>2026-03-22T16:37:24.692Z</time></trkpt><trkpt lat="45.6350135" lon="12.5879151"><ele>-0.16666666666666666</ele><time>2026-03-22T16:37:25.711Z</time></trkpt><trkpt lat="45.6349334" lon="12.5879396"><ele>-0.3333333333333333</ele><time>2026-03-22T16:37:26.706Z</time></trkpt><trkpt lat="45.6348552" lon="12.5879407"><ele>-0.5</ele><time>2026-03-22T16:37:27.703Z</time></trkpt><trkpt lat="45.6347734" lon="12.5879281"><ele>-0.6666666666666666</ele><time>2026-03-22T16:37:28.708Z</time></trkpt><trkpt lat="45.6346858" lon="12.5879156"><ele>-0.8333333333333333</ele><time>2026-03-22T16:37:29.701Z</time></trkpt><trkpt lat="45.6345959" lon="12.5879041"><ele>-1.0</ele><time>2026-03-22T16:37:30.703Z</time></trkpt><trkpt lat="45.6344985" lon="12.5878924"><ele>-0.8</ele><time>2026-03-22T16:37:31.704Z</time></trkpt><trkpt lat="45.6343924" lon="12.5878792"><ele>-0.6000000000000001</ele><time>2026-03-22T16:37:32.7Z</time></trkpt><trkpt lat="45.6342831" lon="12.5878666"><ele>-0.4</ele><time>2026-03-22T16:37:33.721Z</time></trkpt><trkpt lat="45.6341764" lon="12.5878514"><ele>-0.2</ele><time>2026-03-22T16:37:34.72Z</time></trkpt><trkpt lat="45.634072" lon="12.5878315"><ele>0.0</ele><time>2026-03-22T16:37:35.708Z</time></trkpt><trkpt lat="45.6339703" lon="12.5878092"><ele>0.2</ele><time>2026-03-22T16:37:36.713Z</time></trkpt><trkpt lat="45.6338719" lon="12.5877858"><ele>0.4</ele><time>2026-03-22T16:37:37.706Z</time></trkpt><trkpt lat="45.6337753" lon="12.5877598"><ele>0.6000000000000001</ele><time>2026-03-22T16:37:38.696Z</time></trkpt><trkpt lat="45.6336816" lon="12.5877318"><ele>0.8</ele><time>2026-03-22T16:37:39.708Z</time></trkpt><trkpt lat="45.6335906" lon="12.5876987"><ele>1.0</ele><time>2026-03-22T16:37:40.711Z</time></trkpt><trkpt lat="45.6335015" lon="12.5876582"><ele>1.2000000000000002</ele><time>2026-03-22T16:37:41.716Z</time></trkpt><trkpt lat="45.6334125" lon="12.5876187"><ele>1.4000000000000001</ele><time>2026-03-22T16:37:42.695Z</time></trkpt><trkpt lat="45.6333229" lon="12.5875743"><ele>1.6</ele><time>2026-03-22T16:37:43.704Z</time></trkpt><trkpt lat="45.6332326" lon="12.5875235"><ele>1.8</ele><time>2026-03-22T16:37:44.7Z</time></trkpt><trkpt lat="45.6331419" lon="12.5874674"><ele>2.0</ele><time>2026-03-22T16:37:45.704Z</time></trkpt><trkpt lat="45.6330519" lon="12.5874097"><ele>2.0</ele><time>2026-03-22T16:37:46.694Z</time></trkpt><trkpt lat="45.6329611" lon="12.5873533"><ele>2.0</ele><time>2026-03-22T16:37:47.7Z</time></trkpt><trkpt lat="45.6328723" lon="12.5872951"><ele>2.0</ele><time>2026-03-22T16:37:48.691Z</time></trkpt><trkpt lat="45.6327873" lon="12.5872276"><ele>2.0</ele><time>2026-03-22T16:37:49.7Z</time></trkpt><trkpt lat="45.6327004" lon="12.5871583"><ele>2.0</ele><time>2026-03-22T16:37:50.698Z</time></trkpt><trkpt lat="45.6326133" lon="12.587085"><ele>1.8</ele><time>2026-03-22T16:37:51.693Z</time></trkpt><trkpt lat="45.6325291" lon="12.5870078"><ele>1.6</ele><time>2026-03-22T16:37:52.71Z</time></trkpt><trkpt lat="45.6324457" lon="12.5869269"><ele>1.4000000000000001</ele><time>2026-03-22T16:37:53.705Z</time></trkpt><trkpt lat="45.6323624" lon="12.5868418"><ele>1.2000000000000002</ele><time>2026-03-22T16:37:54.695Z</time></trkpt><trkpt lat="45.6322765" lon="12.5867565"><ele>1.0</ele><time>2026-03-22T16:37:55.705Z</time></trkpt><trkpt lat="45.6321972" lon="12.5866646"><ele>0.9999999999999999</ele><time>2026-03-22T16:37:56.7Z</time></trkpt><trkpt lat="45.6321215" lon="12.5865713"><ele>1.0</ele><time>2026-03-22T16:37:57.721Z</time></trkpt><trkpt lat="45.6320502" lon="12.5864804"><ele>1.0</ele><time>2026-03-22T16:37:58.696Z</time></trkpt><trkpt lat="45.6319832" lon="12.586397"><ele>1.0</ele><time>2026-03-22T16:37:59.701Z</time></trkpt><trkpt lat="45.6319202" lon="12.5863203"><ele>0.9999999999999999</ele><time>2026-03-22T16:38:00.694Z</time></trkpt><trkpt lat="45.6318651" lon="12.586235"><ele>1.0</ele><time>2026-03-22T16:38:01.704Z</time></trkpt><trkpt lat="45.6318244" lon="12.5861266"><ele>0.6666666666666666</ele><time>2026-03-22T16:38:02.698Z</time></trkpt><trkpt lat="45.6317755" lon="12.586032"><ele>0.3333333333333333</ele><time>2026-03-22T16:38:03.71Z</time></trkpt><trkpt lat="45.6317046" lon="12.5859647"><ele>0.0</ele><time>2026-03-22T16:38:04.716Z</time></trkpt><trkpt lat="45.631624" lon="12.5859066"><ele>-0.3333333333333333</ele><time>2026-03-22T16:38:05.731Z</time></trkpt><trkpt lat="45.6315431" lon="12.585836"><ele>-0.6666666666666666</ele><time>2026-03-22T16:38:06.704Z</time></trkpt><trkpt lat="45.6314552" lon="12.5857881"><ele>-1.0</ele><time>2026-03-22T16:38:07.695Z</time></trkpt><trkpt lat="45.631369" lon="12.585749"><ele>-0.9999999999999999</ele><time>2026-03-22T16:38:08.697Z</time></trkpt><trkpt lat="45.6312874" lon="12.585719"><ele>-1.0</ele><time>2026-03-22T16:38:09.707Z</time></trkpt><trkpt lat="45.6312058" lon="12.5857106"><ele>-1.0</ele><time>2026-03-22T16:38:10.696Z</time></trkpt><trkpt lat="45.6311397" lon="12.5856821"><ele>-1.0</ele><time>2026-03-22T16:38:11.699Z</time></trkpt><trkpt lat="45.6310932" lon="12.5856169"><ele>-0.9999999999999999</ele><time>2026-03-22T16:38:12.724Z</time></trkpt><trkpt lat="45.6310614" lon="12.5855364"><ele>-1.0</ele><time>2026-03-22T16:38:13.708Z</time></trkpt><trkpt lat="45.6309968" lon="12.5854138"><ele>-0.6000000000000001</ele><time>2026-03-22T16:38:15.696Z</time></trkpt><trkpt lat="45.6309167" lon="12.5853876"><ele>-0.20000000000000007</ele><time>2026-03-22T16:38:17.698Z</time></trkpt><trkpt lat="45.63084" lon="12.5854911"><ele>0.20000000000000007</ele><time>2026-03-22T16:38:19.721Z</time></trkpt><trkpt lat="45.6307474" lon="12.5855974"><ele>0.6000000000000001</ele><time>2026-03-22T16:38:21.707Z</time></trkpt><trkpt lat="45.6306435" lon="12.5856534"><ele>1.0</ele><time>2026-03-22T16:38:23.7Z</time></trkpt><trkpt lat="45.6305148" lon="12.585625"><ele>1.0</ele><time>2026-03-22T16:38:25.691Z</time></trkpt><trkpt lat="45.6304373" lon="12.585584"><ele>1.0</ele><time>2026-03-22T16:38:26.711Z</time></trkpt><trkpt lat="45.6303432" lon="12.5855636"><ele>1.0</ele><time>2026-03-22T16:38:27.695Z</time></trkpt><trkpt lat="45.6302431" lon="12.5855357"><ele>1.0</ele><time>2026-03-22T16:38:28.701Z</time></trkpt><trkpt lat="45.6301431" lon="12.5855193"><ele>1.0</ele><time>2026-03-22T16:38:29.702Z</time></trkpt><trkpt lat="45.630045" lon="12.5855055"><ele>1.2000000000000002</ele><time>2026-03-22T16:38:30.709Z</time></trkpt><trkpt lat="45.6299462" lon="12.5854983"><ele>1.4000000000000001</ele><time>2026-03-22T16:38:31.714Z</time></trkpt><trkpt lat="45.6298486" lon="12.5854875"><ele>1.6</ele><time>2026-03-22T16:38:32.694Z</time></trkpt><trkpt lat="45.6297653" lon="12.5854454"><ele>1.8</ele><time>2026-03-22T16:38:33.704Z</time></trkpt><trkpt lat="45.6296927" lon="12.5854121"><ele>2.0</ele><time>2026-03-22T16:38:34.696Z</time></trkpt><trkpt lat="45.6295901" lon="12.5853755"><ele>1.9999999999999998</ele><time>2026-03-22T16:38:36.699Z</time></trkpt><trkpt lat="45.6295226" lon="12.5853608"><ele>2.0</ele><time>2026-03-22T16:38:38.694Z</time></trkpt><trkpt lat="45.6294244" lon="12.5853643"><ele>2.0</ele><time>2026-03-22T16:38:41.692Z</time></trkpt><trkpt lat="45.6293357" lon="12.5853723"><ele>2.0</ele><time>2026-03-22T16:38:43.696Z</time></trkpt><trkpt lat="45.6292586" lon="12.5853331"><ele>1.9999999999999998</ele><time>2026-03-22T16:38:45.701Z</time></trkpt><trkpt lat="45.6291713" lon="12.5852992"><ele>2.0</ele><time>2026-03-22T16:38:47.694Z</time></trkpt><trkpt lat="45.6290623" lon="12.5852712"><ele>2.0</ele><time>2026-03-22T16:38:49.693Z</time></trkpt><trkpt lat="45.628989" lon="12.5852622"><ele>2.0</ele><time>2026-03-22T16:38:50.716Z</time></trkpt><trkpt lat="45.6289063" lon="12.5852431"><ele>2.0</ele><time>2026-03-22T16:38:51.7Z</time></trkpt><trkpt lat="45.6288037" lon="12.585229"><ele>2.0</ele><time>2026-03-22T16:38:52.71Z</time></trkpt><trkpt lat="45.6286941" lon="12.5852042"><ele>2.0</ele><time>2026-03-22T16:38:53.705Z</time></trkpt><trkpt lat="45.6285862" lon="12.5851668"><ele>2.0</ele><time>2026-03-22T16:38:54.692Z</time></trkpt><trkpt lat="45.62848" lon="12.5851455"><ele>2.0</ele><time>2026-03-22T16:38:55.699Z</time></trkpt><trkpt lat="45.6283791" lon="12.5851161"><ele>2.0</ele><time>2026-03-22T16:38:56.695Z</time></trkpt><trkpt lat="45.6282796" lon="12.5850874"><ele>2.0</ele><time>2026-03-22T16:38:57.708Z</time></trkpt><trkpt lat="45.6281817" lon="12.5850548"><ele>2.0</ele><time>2026-03-22T16:38:58.683Z</time></trkpt><trkpt lat="45.6280795" lon="12.5850276"><ele>2.0</ele><time>2026-03-22T16:38:59.7Z</time></trkpt><trkpt lat="45.6279727" lon="12.5849928"><ele>2.0</ele><time>2026-03-22T16:39:00.703Z</time></trkpt><trkpt lat="45.6278632" lon="12.584962"><ele>2.0</ele><time>2026-03-22T16:39:01.692Z</time></trkpt><trkpt lat="45.6277536" lon="12.584933"><ele>2.0</ele><time>2026-03-22T16:39:02.711Z</time></trkpt><trkpt lat="45.6276412" lon="12.5848973"><ele>2.0</ele><time>2026-03-22T16:39:03.698Z</time></trkpt><trkpt lat="45.627527" lon="12.5848602"><ele>2.0</ele><time>2026-03-22T16:39:04.688Z</time></trkpt><trkpt lat="45.6274113" lon="12.5848225"><ele>2.0</ele><time>2026-03-22T16:39:05.704Z</time></trkpt><trkpt lat="45.6272941" lon="12.5847863"><ele>2.0</ele><time>2026-03-22T16:39:06.7Z</time></trkpt><trkpt lat="45.6271762" lon="12.5847642"><ele>2.0</ele><time>2026-03-22T16:39:07.705Z</time></trkpt><trkpt lat="45.6270637" lon="12.5847288"><ele>1.8</ele><time>2026-03-22T16:39:08.706Z</time></trkpt><trkpt lat="45.6269511" lon="12.5846988"><ele>1.6</ele><time>2026-03-22T16:39:09.705Z</time></trkpt><trkpt lat="45.6268418" lon="12.5846644"><ele>1.4000000000000001</ele><time>2026-03-22T16:39:10.686Z</time></trkpt><trkpt lat="45.6267333" lon="12.5846296"><ele>1.2000000000000002</ele><time>2026-03-22T16:39:11.694Z</time></trkpt><trkpt lat="45.6266284" lon="12.5845971"><ele>1.0</ele><time>2026-03-22T16:39:12.692Z</time></trkpt><trkpt lat="45.6265286" lon="12.5845677"><ele>0.9999999999999999</ele><time>2026-03-22T16:39:13.699Z</time></trkpt><trkpt lat="45.6264471" lon="12.5845359"><ele>1.0</ele><time>2026-03-22T16:39:14.697Z</time></trkpt><trkpt lat="45.6263825" lon="12.5845311"><ele>1.0</ele><time>2026-03-22T16:39:15.694Z</time></trkpt><trkpt lat="45.6263155" lon="12.5845183"><ele>1.0</ele><time>2026-03-22T16:39:16.693Z</time></trkpt><trkpt lat="45.6262423" lon="12.5845002"><ele>0.9999999999999999</ele><time>2026-03-22T16:39:17.692Z</time></trkpt><trkpt lat="45.6261576" lon="12.5844804"><ele>1.0</ele><time>2026-03-22T16:39:18.699Z</time></trkpt><trkpt lat="45.6260654" lon="12.58445"><ele>1.2000000000000002</ele><time>2026-03-22T16:39:19.702Z</time></trkpt><trkpt lat="45.6259706" lon="12.5844146"><ele>1.4000000000000001</ele><time>2026-03-22T16:39:20.704Z</time></trkpt><trkpt lat="45.6258742" lon="12.5843845"><ele>1.6</ele><time>2026-03-22T16:39:21.692Z</time></trkpt><trkpt lat="45.6257785" lon="12.5843522"><ele>1.8</ele><time>2026-03-22T16:39:22.69Z</time></trkpt><trkpt lat="45.6256864" lon="12.5843232"><ele>2.0</ele><time>2026-03-22T16:39:23.703Z</time></trkpt><trkpt lat="45.6255996" lon="12.5843028"><ele>2.0</ele><time>2026-03-22T16:39:24.696Z</time></trkpt><trkpt lat="45.6255188" lon="12.5842803"><ele>1.9999999999999998</ele><time>2026-03-22T16:39:25.696Z</time></trkpt><trkpt lat="45.6254455" lon="12.5842548"><ele>2.0</ele><time>2026-03-22T16:39:26.711Z</time></trkpt><trkpt lat="45.6253758" lon="12.5842317"><ele>2.0</ele><time>2026-03-22T16:39:27.705Z</time></trkpt><trkpt lat="45.6253065" lon="12.5842168"><ele>1.9999999999999998</ele><time>2026-03-22T16:39:28.693Z</time></trkpt><trkpt lat="45.6252363" lon="12.5841987"><ele>2.0</ele><time>2026-03-22T16:39:29.693Z</time></trkpt><trkpt lat="45.6251664" lon="12.5841685"><ele>2.0</ele><time>2026-03-22T16:39:30.694Z</time></trkpt><trkpt lat="45.6250971" lon="12.5841312"><ele>2.0</ele><time>2026-03-22T16:39:31.703Z</time></trkpt><trkpt lat="45.6250286" lon="12.5840873"><ele>1.9999999999999998</ele><time>2026-03-22T16:39:32.693Z</time></trkpt><trkpt lat="45.624958" lon="12.5840496"><ele>2.0</ele><time>2026-03-22T16:39:33.701Z</time></trkpt><trkpt lat="45.6248887" lon="12.5840069"><ele>2.0</ele><time>2026-03-22T16:39:34.698Z</time></trkpt><trkpt lat="45.6248205" lon="12.5839622"><ele>1.9999999999999998</ele><time>2026-03-22T16:39:35.694Z</time></trkpt><trkpt lat="45.6247535" lon="12.5839114"><ele>2.0</ele><time>2026-03-22T16:39:36.695Z</time></trkpt><trkpt lat="45.6246889" lon="12.5838639"><ele>2.0</ele><time>2026-03-22T16:39:37.692Z</time></trkpt><trkpt lat="45.6246283" lon="12.5838165"><ele>1.9999999999999998</ele><time>2026-03-22T16:39:38.694Z</time></trkpt><trkpt lat="45.6245689" lon="12.5837731"><ele>2.0</ele><time>2026-03-22T16:39:39.696Z</time></trkpt><trkpt lat="45.6245114" lon="12.5837169"><ele>2.0</ele><time>2026-03-22T16:39:40.695Z</time></trkpt><trkpt lat="45.624448" lon="12.5836535"><ele>2.0</ele><time>2026-03-22T16:39:41.704Z</time></trkpt><trkpt lat="45.6243646" lon="12.583586"><ele>1.9999999999999998</ele><time>2026-03-22T16:39:42.693Z</time></trkpt><trkpt lat="45.6242534" lon="12.5835246"><ele>2.0</ele><time>2026-03-22T16:39:43.699Z</time></trkpt><trkpt lat="45.6241226" lon="12.5834594"><ele>2.0</ele><time>2026-03-22T16:39:44.699Z</time></trkpt><trkpt lat="45.6239857" lon="12.5833784"><ele>2.0</ele><time>2026-03-22T16:39:45.703Z</time></trkpt><trkpt lat="45.623848" lon="12.5832929"><ele>2.0</ele><time>2026-03-22T16:39:46.701Z</time></trkpt><trkpt lat="45.6237123" lon="12.583199"><ele>2.0</ele><time>2026-03-22T16:39:47.712Z</time></trkpt><trkpt lat="45.6235721" lon="12.5831122"><ele>2.0</ele><time>2026-03-22T16:39:48.7Z</time></trkpt><trkpt lat="45.6234326" lon="12.5830224"><ele>2.0</ele><time>2026-03-22T16:39:49.689Z</time></trkpt><trkpt lat="45.6232917" lon="12.5829303"><ele>2.0</ele><time>2026-03-22T16:39:50.693Z</time></trkpt><trkpt lat="45.6231475" lon="12.582837"><ele>2.0</ele><time>2026-03-22T16:39:51.695Z</time></trkpt><trkpt lat="45.6229973" lon="12.5827458"><ele>2.0</ele><time>2026-03-22T16:39:52.712Z</time></trkpt><trkpt lat="45.6228543" lon="12.5826463"><ele>2.0</ele><time>2026-03-22T16:39:53.697Z</time></trkpt><trkpt lat="45.6227053" lon="12.5825468"><ele>1.3333333333333333</ele><time>2026-03-22T16:39:54.697Z</time></trkpt><trkpt lat="45.6225555" lon="12.5824392"><ele>0.6666666666666666</ele><time>2026-03-22T16:39:55.701Z</time></trkpt><trkpt lat="45.6224051" lon="12.5823407"><ele>0.0</ele><time>2026-03-22T16:39:56.679Z</time></trkpt><trkpt lat="45.6222613" lon="12.5822131"><ele>0.0</ele><time>2026-03-22T16:39:57.711Z</time></trkpt><trkpt lat="45.6221175" lon="12.5821001"><ele>0.0</ele><time>2026-03-22T16:39:58.701Z</time></trkpt><trkpt lat="45.6219803" lon="12.5819756"><ele>0.0</ele><time>2026-03-22T16:39:59.726Z</time></trkpt><trkpt lat="45.6218487" lon="12.5818416"><ele>1.0</ele><time>2026-03-22T16:40:00.71Z</time></trkpt><trkpt lat="45.6217221" lon="12.5817087"><ele>2.0</ele><time>2026-03-22T16:40:01.711Z</time></trkpt><trkpt lat="45.6215937" lon="12.5815901"><ele>3.0</ele><time>2026-03-22T16:40:02.695Z</time></trkpt><trkpt lat="45.6214688" lon="12.5814743"><ele>3.0</ele><time>2026-03-22T16:40:03.699Z</time></trkpt><trkpt lat="45.6213535" lon="12.5813518"><ele>3.0</ele><time>2026-03-22T16:40:04.702Z</time></trkpt><trkpt lat="45.621234" lon="12.5812435"><ele>3.0</ele><time>2026-03-22T16:40:05.693Z</time></trkpt><trkpt lat="45.6211225" lon="12.5811296"><ele>3.0</ele><time>2026-03-22T16:40:06.687Z</time></trkpt><trkpt lat="45.621034" lon="12.5809838"><ele>2.75</ele><time>2026-03-22T16:40:07.711Z</time></trkpt><trkpt lat="45.6209491" lon="12.5808369"><ele>2.5</ele><time>2026-03-22T16:40:08.69Z</time></trkpt><trkpt lat="45.6208883" lon="12.5806679"><ele>2.25</ele><time>2026-03-22T16:40:09.713Z</time></trkpt><trkpt lat="45.6208544" lon="12.5804715"><ele>2.0</ele><time>2026-03-22T16:40:10.695Z</time></trkpt><trkpt lat="45.620811" lon="12.5802646"><ele>2.0</ele><time>2026-03-22T16:40:11.688Z</time></trkpt><trkpt lat="45.6207679" lon="12.580043"><ele>2.0</ele><time>2026-03-22T16:40:12.7Z</time></trkpt><trkpt lat="45.620725" lon="12.5798016"><ele>2.0</ele><time>2026-03-22T16:40:13.7Z</time></trkpt><trkpt lat="45.6206753" lon="12.5795515"><ele>2.6666666666666665</ele><time>2026-03-22T16:40:14.7Z</time></trkpt><trkpt lat="45.6206392" lon="12.5792979"><ele>3.333333333333333</ele><time>2026-03-22T16:40:15.701Z</time></trkpt><trkpt lat="45.62058" lon="12.5790634"><ele>4.0</ele><time>2026-03-22T16:40:16.697Z</time></trkpt><trkpt lat="45.6205404" lon="12.578823"><ele>4.0</ele><time>2026-03-22T16:40:17.694Z</time></trkpt><trkpt lat="45.6204896" lon="12.5785965"><ele>4.0</ele><time>2026-03-22T16:40:18.698Z</time></trkpt><trkpt lat="45.6204443" lon="12.5783772"><ele>4.0</ele><time>2026-03-22T16:40:19.701Z</time></trkpt><trkpt lat="45.620393" lon="12.5781587"><ele>4.0</ele><time>2026-03-22T16:40:20.693Z</time></trkpt><trkpt lat="45.6203466" lon="12.577939"><ele>4.0</ele><time>2026-03-22T16:40:21.705Z</time></trkpt><trkpt lat="45.6203003" lon="12.5777165"><ele>4.0</ele><time>2026-03-22T16:40:22.694Z</time></trkpt><trkpt lat="45.6202679" lon="12.5774915"><ele>3.333333333333333</ele><time>2026-03-22T16:40:23.711Z</time></trkpt><trkpt lat="45.620228" lon="12.5772713"><ele>2.6666666666666665</ele><time>2026-03-22T16:40:24.696Z</time></trkpt><trkpt lat="45.6201831" lon="12.5770508"><ele>2.0</ele><time>2026-03-22T16:40:25.691Z</time></trkpt><trkpt lat="45.620139" lon="12.5768325"><ele>2.0</ele><time>2026-03-22T16:40:26.711Z</time></trkpt><trkpt lat="45.6200884" lon="12.5766184"><ele>2.0</ele><time>2026-03-22T16:40:27.713Z</time></trkpt><trkpt lat="45.620046" lon="12.5763987"><ele>2.0</ele><time>2026-03-22T16:40:28.691Z</time></trkpt><trkpt lat="45.6199981" lon="12.5761781"><ele>1.6666666666666665</ele><time>2026-03-22T16:40:29.682Z</time></trkpt><trkpt lat="45.619957" lon="12.5759512"><ele>1.3333333333333333</ele><time>2026-03-22T16:40:30.701Z</time></trkpt><trkpt lat="45.6199258" lon="12.5757191"><ele>1.0</ele><time>2026-03-22T16:40:31.696Z</time></trkpt><trkpt lat="45.6199031" lon="12.5754856"><ele>1.6666666666666665</ele><time>2026-03-22T16:40:32.71Z</time></trkpt><trkpt lat="45.6198974" lon="12.5752454"><ele>2.3333333333333335</ele><time>2026-03-22T16:40:33.703Z</time></trkpt><trkpt lat="45.6199039" lon="12.5750067"><ele>3.0</ele><time>2026-03-22T16:40:34.684Z</time></trkpt><trkpt lat="45.619932" lon="12.574776"><ele>3.0</ele><time>2026-03-22T16:40:35.696Z</time></trkpt><trkpt lat="45.6199557" lon="12.5745522"><ele>3.0</ele><time>2026-03-22T16:40:36.696Z</time></trkpt><trkpt lat="45.6200024" lon="12.574345"><ele>3.0</ele><time>2026-03-22T16:40:37.697Z</time></trkpt><trkpt lat="45.6200522" lon="12.5741428"><ele>3.0</ele><time>2026-03-22T16:40:38.703Z</time></trkpt><trkpt lat="45.6201283" lon="12.5739579"><ele>3.0</ele><time>2026-03-22T16:40:39.706Z</time></trkpt><trkpt lat="45.6202123" lon="12.5737874"><ele>3.0</ele><time>2026-03-22T16:40:40.701Z</time></trkpt><trkpt lat="45.6203085" lon="12.5736364"><ele>3.0</ele><time>2026-03-22T16:40:41.701Z</time></trkpt><trkpt lat="45.6204064" lon="12.5734957"><ele>2.75</ele><time>2026-03-22T16:40:42.698Z</time></trkpt><trkpt lat="45.6205065" lon="12.5733622"><ele>2.5</ele><time>2026-03-22T16:40:43.702Z</time></trkpt><trkpt lat="45.6206189" lon="12.5732398"><ele>2.25</ele><time>2026-03-22T16:40:44.738Z</time></trkpt><trkpt lat="45.6207422" lon="12.5731279"><ele>2.0</ele><time>2026-03-22T16:40:45.711Z</time></trkpt><trkpt lat="45.6208785" lon="12.5730361"><ele>2.0</ele><time>2026-03-22T16:40:46.695Z</time></trkpt><trkpt lat="45.6210199" lon="12.5729479"><ele>2.0</ele><time>2026-03-22T16:40:47.709Z</time></trkpt><trkpt lat="45.6211729" lon="12.572887"><ele>2.0</ele><time>2026-03-22T16:40:48.701Z</time></trkpt><trkpt lat="45.6213336" lon="12.5728377"><ele>2.333333333333333</ele><time>2026-03-22T16:40:49.72Z</time></trkpt><trkpt lat="45.6214958" lon="12.5727932"><ele>2.6666666666666665</ele><time>2026-03-22T16:40:50.695Z</time></trkpt><trkpt lat="45.6216571" lon="12.5727465"><ele>3.0</ele><time>2026-03-22T16:40:51.692Z</time></trkpt><trkpt lat="45.6218158" lon="12.572702"><ele>3.0</ele><time>2026-03-22T16:40:52.701Z</time></trkpt><trkpt lat="45.6219724" lon="12.572648"><ele>3.0</ele><time>2026-03-22T16:40:53.717Z</time></trkpt><trkpt lat="45.6221233" lon="12.5725832"><ele>3.0</ele><time>2026-03-22T16:40:54.699Z</time></trkpt><trkpt lat="45.622268" lon="12.5725232"><ele>3.5</ele><time>2026-03-22T16:40:55.706Z</time></trkpt><trkpt lat="45.6224029" lon="12.5724618"><ele>4.0</ele><time>2026-03-22T16:40:56.711Z</time></trkpt><trkpt lat="45.6225312" lon="12.5724035"><ele>4.5</ele><time>2026-03-22T16:40:57.714Z</time></trkpt><trkpt lat="45.6226524" lon="12.5723485"><ele>5.0</ele><time>2026-03-22T16:40:58.693Z</time></trkpt><trkpt lat="45.6227655" lon="12.5722939"><ele>4.8</ele><time>2026-03-22T16:40:59.704Z</time></trkpt><trkpt lat="45.6228689" lon="12.5722392"><ele>4.6</ele><time>2026-03-22T16:41:00.708Z</time></trkpt><trkpt lat="45.6229616" lon="12.5721835"><ele>4.4</ele><time>2026-03-22T16:41:01.741Z</time></trkpt><trkpt lat="45.6230412" lon="12.5721237"><ele>4.2</ele><time>2026-03-22T16:41:02.693Z</time></trkpt><trkpt lat="45.6231083" lon="12.5720642"><ele>4.0</ele><time>2026-03-22T16:41:03.7Z</time></trkpt><trkpt lat="45.6231682" lon="12.5720064"><ele>4.333333333333333</ele><time>2026-03-22T16:41:04.704Z</time></trkpt><trkpt lat="45.6232228" lon="12.5719466"><ele>4.666666666666666</ele><time>2026-03-22T16:41:05.696Z</time></trkpt><trkpt lat="45.6232732" lon="12.5718833"><ele>5.0</ele><time>2026-03-22T16:41:06.695Z</time></trkpt><trkpt lat="45.6233252" lon="12.5718176"><ele>5.333333333333333</ele><time>2026-03-22T16:41:07.708Z</time></trkpt><trkpt lat="45.6233903" lon="12.5717439"><ele>5.666666666666667</ele><time>2026-03-22T16:41:08.706Z</time></trkpt><trkpt lat="45.6234741" lon="12.5716541"><ele>6.0</ele><time>2026-03-22T16:41:09.702Z</time></trkpt><trkpt lat="45.6235842" lon="12.5715442"><ele>5.666666666666667</ele><time>2026-03-22T16:41:10.692Z</time></trkpt><trkpt lat="45.6237221" lon="12.5714138"><ele>5.333333333333334</ele><time>2026-03-22T16:41:11.699Z</time></trkpt><trkpt lat="45.6238861" lon="12.5712649"><ele>5.0</ele><time>2026-03-22T16:41:12.7Z</time></trkpt><trkpt lat="45.6240708" lon="12.5710937"><ele>5.0</ele><time>2026-03-22T16:41:13.702Z</time></trkpt><trkpt lat="45.6242593" lon="12.5709216"><ele>5.0</ele><time>2026-03-22T16:41:14.704Z</time></trkpt><trkpt lat="45.6244404" lon="12.5707524"><ele>5.0</ele><time>2026-03-22T16:41:15.693Z</time></trkpt><trkpt lat="45.624609" lon="12.5705945"><ele>5.0</ele><time>2026-03-22T16:41:16.702Z</time></trkpt><trkpt lat="45.6247677" lon="12.5704436"><ele>5.0</ele><time>2026-03-22T16:41:17.697Z</time></trkpt><trkpt lat="45.6249194" lon="12.5702988"><ele>5.0</ele><time>2026-03-22T16:41:18.691Z</time></trkpt><trkpt lat="45.6250637" lon="12.570163"><ele>5.0</ele><time>2026-03-22T16:41:19.693Z</time></trkpt><trkpt lat="45.6252001" lon="12.5700377"><ele>5.0</ele><time>2026-03-22T16:41:20.685Z</time></trkpt><trkpt lat="45.6253319" lon="12.5699174"><ele>5.0</ele><time>2026-03-22T16:41:21.705Z</time></trkpt><trkpt lat="45.6254623" lon="12.5698005"><ele>5.0</ele><time>2026-03-22T16:41:22.699Z</time></trkpt><trkpt lat="45.625593" lon="12.5696855"><ele>5.0</ele><time>2026-03-22T16:41:23.695Z</time></trkpt><trkpt lat="45.625722" lon="12.5695707"><ele>5.0</ele><time>2026-03-22T16:41:24.731Z</time></trkpt><trkpt lat="45.6258498" lon="12.5694602"><ele>5.0</ele><time>2026-03-22T16:41:25.702Z</time></trkpt><trkpt lat="45.6259733" lon="12.5693548"><ele>5.0</ele><time>2026-03-22T16:41:26.706Z</time></trkpt><trkpt lat="45.6260878" lon="12.5692559"><ele>5.0</ele><time>2026-03-22T16:41:27.698Z</time></trkpt><trkpt lat="45.6261859" lon="12.5691721"><ele>5.0</ele><time>2026-03-22T16:41:28.713Z</time></trkpt><trkpt lat="45.6262637" lon="12.5691044"><ele>4.5</ele><time>2026-03-22T16:41:29.704Z</time></trkpt><trkpt lat="45.6263288" lon="12.569051"><ele>4.0</ele><time>2026-03-22T16:41:30.701Z</time></trkpt><trkpt lat="45.626405" lon="12.5690337"><ele>3.5</ele><time>2026-03-22T16:41:31.696Z</time></trkpt><trkpt lat="45.6264743" lon="12.5690232"><ele>3.0</ele><time>2026-03-22T16:41:32.697Z</time></trkpt><trkpt lat="45.6265373" lon="12.5689892"><ele>2.5</ele><time>2026-03-22T16:41:33.714Z</time></trkpt><trkpt lat="45.6265943" lon="12.5689158"><ele>2.0</ele><time>2026-03-22T16:41:34.7Z</time></trkpt><trkpt lat="45.6266633" lon="12.5688291"><ele>2.0</ele><time>2026-03-22T16:41:35.697Z</time></trkpt><trkpt lat="45.6267406" lon="12.5687349"><ele>2.0</ele><time>2026-03-22T16:41:36.692Z</time></trkpt><trkpt lat="45.6268209" lon="12.5686356"><ele>2.0</ele><time>2026-03-22T16:41:37.7Z</time></trkpt><trkpt lat="45.6268973" lon="12.5685319"><ele>2.0</ele><time>2026-03-22T16:41:38.692Z</time></trkpt><trkpt lat="45.626972" lon="12.5684305"><ele>2.0</ele><time>2026-03-22T16:41:39.698Z</time></trkpt><trkpt lat="45.6270426" lon="12.5683416"><ele>2.0</ele><time>2026-03-22T16:41:40.696Z</time></trkpt><trkpt lat="45.6271073" lon="12.5682674"><ele>2.0</ele><time>2026-03-22T16:41:41.696Z</time></trkpt><trkpt lat="45.6271604" lon="12.5682072"><ele>2.0</ele><time>2026-03-22T16:41:42.713Z</time></trkpt><trkpt lat="45.6272452" lon="12.5681198"><ele>2.0</ele><time>2026-03-22T16:41:44.686Z</time></trkpt><trkpt lat="45.6273322" lon="12.5679797"><ele>2.0</ele><time>2026-03-22T16:41:46.687Z</time></trkpt><trkpt lat="45.6273799" lon="12.5678729"><ele>2.6</ele><time>2026-03-22T16:41:47.708Z</time></trkpt><trkpt lat="45.6274404" lon="12.567752"><ele>3.2</ele><time>2026-03-22T16:41:48.695Z</time></trkpt><trkpt lat="45.6275017" lon="12.5676227"><ele>3.8</ele><time>2026-03-22T16:41:49.698Z</time></trkpt><trkpt lat="45.6275485" lon="12.5674752"><ele>4.4</ele><time>2026-03-22T16:41:50.695Z</time></trkpt><trkpt lat="45.6275932" lon="12.5673162"><ele>5.0</ele><time>2026-03-22T16:41:51.704Z</time></trkpt><trkpt lat="45.6276281" lon="12.5671458"><ele>7.0</ele><time>2026-03-22T16:41:52.698Z</time></trkpt><trkpt lat="45.6276711" lon="12.5669778"><ele>9.0</ele><time>2026-03-22T16:41:53.703Z</time></trkpt><trkpt lat="45.6276918" lon="12.566796"><ele>11.0</ele><time>2026-03-22T16:41:54.697Z</time></trkpt><trkpt lat="45.6276921" lon="12.5666024"><ele>13.0</ele><time>2026-03-22T16:41:55.684Z</time></trkpt><trkpt lat="45.6276853" lon="12.5664039"><ele>13.0</ele><time>2026-03-22T16:41:56.694Z</time></trkpt><trkpt lat="45.6276675" lon="12.5662094"><ele>13.0</ele><time>2026-03-22T16:41:57.696Z</time></trkpt><trkpt lat="45.6276471" lon="12.5660203"><ele>13.0</ele><time>2026-03-22T16:41:58.702Z</time></trkpt><trkpt lat="45.6276271" lon="12.565831"><ele>13.0</ele><time>2026-03-22T16:41:59.706Z</time></trkpt><trkpt lat="45.6275845" lon="12.5656468"><ele>12.75</ele><time>2026-03-22T16:42:00.698Z</time></trkpt><trkpt lat="45.6275227" lon="12.5654636"><ele>12.5</ele><time>2026-03-22T16:42:01.707Z</time></trkpt><trkpt lat="45.6274497" lon="12.5652823"><ele>12.25</ele><time>2026-03-22T16:42:02.687Z</time></trkpt><trkpt lat="45.6273818" lon="12.5650918"><ele>12.0</ele><time>2026-03-22T16:42:03.715Z</time></trkpt><trkpt lat="45.6273034" lon="12.5648992"><ele>10.666666666666666</ele><time>2026-03-22T16:42:04.695Z</time></trkpt><trkpt lat="45.627225" lon="12.5647054"><ele>9.333333333333332</ele><time>2026-03-22T16:42:05.702Z</time></trkpt><trkpt lat="45.6271409" lon="12.5645209"><ele>8.0</ele><time>2026-03-22T16:42:06.701Z</time></trkpt><trkpt lat="45.6270666" lon="12.5643339"><ele>8.0</ele><time>2026-03-22T16:42:07.7Z</time></trkpt><trkpt lat="45.627013" lon="12.5641385"><ele>8.0</ele><time>2026-03-22T16:42:08.703Z</time></trkpt><trkpt lat="45.6269571" lon="12.5639645"><ele>8.0</ele><time>2026-03-22T16:42:09.719Z</time></trkpt><trkpt lat="45.62692" lon="12.56382"><ele>8.0</ele><time>2026-03-22T16:42:10.711Z</time></trkpt><trkpt lat="45.6268977" lon="12.5637144"><ele>8.333333333333332</ele><time>2026-03-22T16:42:11.696Z</time></trkpt><trkpt lat="45.6268702" lon="12.5635724"><ele>8.666666666666666</ele><time>2026-03-22T16:42:13.69Z</time></trkpt><trkpt lat="45.6268719" lon="12.5634686"><ele>9.0</ele><time>2026-03-22T16:42:15.694Z</time></trkpt><trkpt lat="45.6268891" lon="12.5633301"><ele>9.333333333333334</ele><time>2026-03-22T16:42:19.697Z</time></trkpt><trkpt lat="45.6269264" lon="12.5632199"><ele>9.666666666666668</ele><time>2026-03-22T16:42:21.705Z</time></trkpt><trkpt lat="45.6268725" lon="12.5631313"><ele>10.0</ele><time>2026-03-22T16:42:23.689Z</time></trkpt><trkpt lat="45.6267491" lon="12.5631338"><ele>10.0</ele><time>2026-03-22T16:42:25.711Z</time></trkpt><trkpt lat="45.6266538" lon="12.5631448"><ele>10.0</ele><time>2026-03-22T16:42:26.706Z</time></trkpt><trkpt lat="45.6265311" lon="12.5631331"><ele>10.0</ele><time>2026-03-22T16:42:27.702Z</time></trkpt><trkpt lat="45.6263994" lon="12.5631238"><ele>10.0</ele><time>2026-03-22T16:42:28.693Z</time></trkpt><trkpt lat="45.6262794" lon="12.5631311"><ele>10.0</ele><time>2026-03-22T16:42:29.706Z</time></trkpt><trkpt lat="45.6261664" lon="12.5631013"><ele>10.0</ele><time>2026-03-22T16:42:30.724Z</time></trkpt><trkpt lat="45.6260605" lon="12.5630827"><ele>10.0</ele><time>2026-03-22T16:42:31.708Z</time></trkpt><trkpt lat="45.6259595" lon="12.5630617"><ele>10.0</ele><time>2026-03-22T16:42:32.712Z</time></trkpt><trkpt lat="45.625856" lon="12.5630507"><ele>10.0</ele><time>2026-03-22T16:42:33.707Z</time></trkpt><trkpt lat="45.6257575" lon="12.5630413"><ele>8.8</ele><time>2026-03-22T16:42:34.699Z</time></trkpt><trkpt lat="45.6256589" lon="12.5630385"><ele>7.6</ele><time>2026-03-22T16:42:35.697Z</time></trkpt><trkpt lat="45.6255588" lon="12.5630283"><ele>6.4</ele><time>2026-03-22T16:42:36.703Z</time></trkpt><trkpt lat="45.6254552" lon="12.5629985"><ele>5.2</ele><time>2026-03-22T16:42:37.717Z</time></trkpt><trkpt lat="45.6253393" lon="12.5629981"><ele>4.0</ele><time>2026-03-22T16:42:38.698Z</time></trkpt><trkpt lat="45.6252243" lon="12.5629807"><ele>4.0</ele><time>2026-03-22T16:42:39.706Z</time></trkpt><trkpt lat="45.6251052" lon="12.562974"><ele>4.0</ele><time>2026-03-22T16:42:40.706Z</time></trkpt><trkpt lat="45.6249884" lon="12.5629458"><ele>4.0</ele><time>2026-03-22T16:42:41.704Z</time></trkpt><trkpt lat="45.6248702" lon="12.5629172"><ele>4.0</ele><time>2026-03-22T16:42:42.704Z</time></trkpt><trkpt lat="45.6247548" lon="12.5629026"><ele>4.0</ele><time>2026-03-22T16:42:43.705Z</time></trkpt><trkpt lat="45.6246461" lon="12.562891"><ele>4.0</ele><time>2026-03-22T16:42:44.709Z</time></trkpt><trkpt lat="45.6245348" lon="12.5628636"><ele>4.0</ele><time>2026-03-22T16:42:45.704Z</time></trkpt><trkpt lat="45.6244228" lon="12.5628016"><ele>4.0</ele><time>2026-03-22T16:42:46.699Z</time></trkpt><trkpt lat="45.6243115" lon="12.5627109"><ele>4.25</ele><time>2026-03-22T16:42:47.711Z</time></trkpt><trkpt lat="45.6242067" lon="12.5625859"><ele>4.5</ele><time>2026-03-22T16:42:48.714Z</time></trkpt><trkpt lat="45.6241053" lon="12.5624437"><ele>4.75</ele><time>2026-03-22T16:42:49.72Z</time></trkpt><trkpt lat="45.6240116" lon="12.5623003"><ele>5.0</ele><time>2026-03-22T16:42:50.687Z</time></trkpt><trkpt lat="45.6239211" lon="12.5621559"><ele>4.25</ele><time>2026-03-22T16:42:51.711Z</time></trkpt><trkpt lat="45.6238559" lon="12.5619732"><ele>3.5</ele><time>2026-03-22T16:42:52.685Z</time></trkpt><trkpt lat="45.6237751" lon="12.5618041"><ele>2.75</ele><time>2026-03-22T16:42:53.699Z</time></trkpt><trkpt lat="45.6236819" lon="12.5616438"><ele>2.0</ele><time>2026-03-22T16:42:54.701Z</time></trkpt><trkpt lat="45.623599" lon="12.5614691"><ele>2.0</ele><time>2026-03-22T16:42:55.703Z</time></trkpt><trkpt lat="45.62352" lon="12.5612825"><ele>2.0</ele><time>2026-03-22T16:42:56.708Z</time></trkpt><trkpt lat="45.6234387" lon="12.5610908"><ele>2.0</ele><time>2026-03-22T16:42:57.701Z</time></trkpt><trkpt lat="45.6233535" lon="12.5608995"><ele>1.6666666666666665</ele><time>2026-03-22T16:42:58.71Z</time></trkpt><trkpt lat="45.6232735" lon="12.5607049"><ele>1.3333333333333333</ele><time>2026-03-22T16:42:59.714Z</time></trkpt><trkpt lat="45.6232012" lon="12.560506"><ele>1.0</ele><time>2026-03-22T16:43:00.705Z</time></trkpt><trkpt lat="45.6231344" lon="12.5603034"><ele>0.6666666666666666</ele><time>2026-03-22T16:43:01.691Z</time></trkpt><trkpt lat="45.6230717" lon="12.5600953"><ele>0.3333333333333333</ele><time>2026-03-22T16:43:02.694Z</time></trkpt><trkpt lat="45.6230111" lon="12.5598829"><ele>0.0</ele><time>2026-03-22T16:43:03.703Z</time></trkpt><trkpt lat="45.6229666" lon="12.5596616"><ele>-0.25</ele><time>2026-03-22T16:43:04.696Z</time></trkpt><trkpt lat="45.6229027" lon="12.5594588"><ele>-0.5</ele><time>2026-03-22T16:43:05.704Z</time></trkpt><trkpt lat="45.6228628" lon="12.5592604"><ele>-0.75</ele><time>2026-03-22T16:43:06.708Z</time></trkpt><trkpt lat="45.6228224" lon="12.5590872"><ele>-1.0</ele><time>2026-03-22T16:43:07.696Z</time></trkpt><trkpt lat="45.6227851" lon="12.5589427"><ele>-0.16666666666666663</ele><time>2026-03-22T16:43:08.696Z</time></trkpt><trkpt lat="45.622745" lon="12.5588371"><ele>0.6666666666666666</ele><time>2026-03-22T16:43:09.697Z</time></trkpt><trkpt lat="45.6227044" lon="12.5586931"><ele>1.5</ele><time>2026-03-22T16:43:11.705Z</time></trkpt><trkpt lat="45.6226772" lon="12.5586054"><ele>2.333333333333333</ele><time>2026-03-22T16:43:13.697Z</time></trkpt><trkpt lat="45.6226513" lon="12.5584767"><ele>3.1666666666666665</ele><time>2026-03-22T16:44:26.7Z</time></trkpt><trkpt lat="45.6226145" lon="12.5583532"><ele>4.0</ele><time>2026-03-22T16:44:28.697Z</time></trkpt><trkpt lat="45.6225864" lon="12.5582702"><ele>3.9999999999999996</ele><time>2026-03-22T16:44:29.698Z</time></trkpt><trkpt lat="45.6225639" lon="12.5581845"><ele>4.0</ele><time>2026-03-22T16:44:30.697Z</time></trkpt><trkpt lat="45.6225417" lon="12.5580937"><ele>4.0</ele><time>2026-03-22T16:44:31.708Z</time></trkpt><trkpt lat="45.622519" lon="12.5580062"><ele>4.0</ele><time>2026-03-22T16:44:32.719Z</time></trkpt><trkpt lat="45.622505" lon="12.5579006"><ele>3.9999999999999996</ele><time>2026-03-22T16:44:33.728Z</time></trkpt><trkpt lat="45.6224937" lon="12.5577691"><ele>4.0</ele><time>2026-03-22T16:44:34.71Z</time></trkpt><trkpt lat="45.6224797" lon="12.5576152"><ele>4.0</ele><time>2026-03-22T16:44:35.696Z</time></trkpt><trkpt lat="45.6224608" lon="12.5574444"><ele>4.0</ele><time>2026-03-22T16:44:36.696Z</time></trkpt><trkpt lat="45.6224397" lon="12.5572676"><ele>4.0</ele><time>2026-03-22T16:44:37.706Z</time></trkpt><trkpt lat="45.6224147" lon="12.5570949"><ele>4.0</ele><time>2026-03-22T16:44:38.696Z</time></trkpt><trkpt lat="45.6223922" lon="12.5569232"><ele>3.75</ele><time>2026-03-22T16:44:39.712Z</time></trkpt><trkpt lat="45.6223762" lon="12.5567493"><ele>3.5</ele><time>2026-03-22T16:44:40.703Z</time></trkpt><trkpt lat="45.6223819" lon="12.5565677"><ele>3.25</ele><time>2026-03-22T16:44:41.706Z</time></trkpt><trkpt lat="45.622393" lon="12.5563856"><ele>3.0</ele><time>2026-03-22T16:44:42.692Z</time></trkpt><trkpt lat="45.6224129" lon="12.5561994"><ele>2.5</ele><time>2026-03-22T16:44:43.699Z</time></trkpt><trkpt lat="45.622434" lon="12.5560086"><ele>2.0</ele><time>2026-03-22T16:44:44.698Z</time></trkpt><trkpt lat="45.6224517" lon="12.555815"><ele>1.5</ele><time>2026-03-22T16:44:45.705Z</time></trkpt><trkpt lat="45.6224619" lon="12.5556233"><ele>1.0</ele><time>2026-03-22T16:44:46.715Z</time></trkpt><trkpt lat="45.6224751" lon="12.5554393"><ele>1.0</ele><time>2026-03-22T16:44:47.723Z</time></trkpt><trkpt lat="45.6224853" lon="12.5552609"><ele>1.0</ele><time>2026-03-22T16:44:48.71Z</time></trkpt><trkpt lat="45.622497" lon="12.5550823"><ele>1.0</ele><time>2026-03-22T16:44:49.719Z</time></trkpt><trkpt lat="45.6225084" lon="12.5548991"><ele>1.0</ele><time>2026-03-22T16:44:50.704Z</time></trkpt><trkpt lat="45.6225234" lon="12.5547103"><ele>1.25</ele><time>2026-03-22T16:44:51.695Z</time></trkpt><trkpt lat="45.6225368" lon="12.5545192"><ele>1.5</ele><time>2026-03-22T16:44:52.698Z</time></trkpt><trkpt lat="45.6225436" lon="12.5543283"><ele>1.75</ele><time>2026-03-22T16:44:53.713Z</time></trkpt><trkpt lat="45.6225539" lon="12.5541341"><ele>2.0</ele><time>2026-03-22T16:44:54.694Z</time></trkpt><trkpt lat="45.6225661" lon="12.5539347"><ele>2.0</ele><time>2026-03-22T16:44:55.707Z</time></trkpt><trkpt lat="45.6225759" lon="12.5537284"><ele>2.0</ele><time>2026-03-22T16:44:56.687Z</time></trkpt><trkpt lat="45.6225781" lon="12.5535123"><ele>2.0</ele><time>2026-03-22T16:44:57.709Z</time></trkpt><trkpt lat="45.6225835" lon="12.5532908"><ele>1.6666666666666665</ele><time>2026-03-22T16:44:58.704Z</time></trkpt><trkpt lat="45.6225795" lon="12.5530619"><ele>1.3333333333333333</ele><time>2026-03-22T16:44:59.706Z</time></trkpt><trkpt lat="45.6225718" lon="12.5528256"><ele>1.0</ele><time>2026-03-22T16:45:00.71Z</time></trkpt><trkpt lat="45.6225929" lon="12.5525773"><ele>1.0</ele><time>2026-03-22T16:45:01.706Z</time></trkpt><trkpt lat="45.6225877" lon="12.5523172"><ele>1.0</ele><time>2026-03-22T16:45:02.705Z</time></trkpt><trkpt lat="45.6225746" lon="12.5520532"><ele>1.0</ele><time>2026-03-22T16:45:03.708Z</time></trkpt><trkpt lat="45.6225453" lon="12.5517888"><ele>0.6666666666666666</ele><time>2026-03-22T16:45:04.702Z</time></trkpt><trkpt lat="45.6225154" lon="12.5515256"><ele>0.3333333333333333</ele><time>2026-03-22T16:45:05.694Z</time></trkpt><trkpt lat="45.6224798" lon="12.5512628"><ele>0.0</ele><time>2026-03-22T16:45:06.697Z</time></trkpt><trkpt lat="45.6224592" lon="12.5509985"><ele>0.0</ele><time>2026-03-22T16:45:07.714Z</time></trkpt><trkpt lat="45.6224411" lon="12.550738"><ele>0.0</ele><time>2026-03-22T16:45:08.71Z</time></trkpt><trkpt lat="45.6224229" lon="12.5504806"><ele>0.0</ele><time>2026-03-22T16:45:09.71Z</time></trkpt><trkpt lat="45.6224142" lon="12.5502238"><ele>0.0</ele><time>2026-03-22T16:45:10.71Z</time></trkpt><trkpt lat="45.6223954" lon="12.5499729"><ele>0.0</ele><time>2026-03-22T16:45:11.698Z</time></trkpt><trkpt lat="45.6223831" lon="12.5497224"><ele>0.0</ele><time>2026-03-22T16:45:12.721Z</time></trkpt><trkpt lat="45.6223751" lon="12.5494712"><ele>0.3333333333333333</ele><time>2026-03-22T16:45:13.707Z</time></trkpt><trkpt lat="45.6223606" lon="12.5492222"><ele>0.6666666666666666</ele><time>2026-03-22T16:45:14.714Z</time></trkpt><trkpt lat="45.6223471" lon="12.5489724"><ele>1.0</ele><time>2026-03-22T16:45:15.727Z</time></trkpt><trkpt lat="45.6223322" lon="12.548725"><ele>1.3333333333333333</ele><time>2026-03-22T16:45:16.702Z</time></trkpt><trkpt lat="45.6223173" lon="12.5484825"><ele>1.6666666666666665</ele><time>2026-03-22T16:45:17.721Z</time></trkpt><trkpt lat="45.622303" lon="12.548245"><ele>2.0</ele><time>2026-03-22T16:45:18.711Z</time></trkpt><trkpt lat="45.6222917" lon="12.5480108"><ele>2.0</ele><time>2026-03-22T16:45:19.71Z</time></trkpt><trkpt lat="45.6222771" lon="12.5477767"><ele>2.0</ele><time>2026-03-22T16:45:20.707Z</time></trkpt><trkpt lat="45.6222641" lon="12.5475414"><ele>2.0</ele><time>2026-03-22T16:45:21.702Z</time></trkpt><trkpt lat="45.6222514" lon="12.547303"><ele>2.0</ele><time>2026-03-22T16:45:22.718Z</time></trkpt><trkpt lat="45.6222399" lon="12.5470612"><ele>2.0</ele><time>2026-03-22T16:45:23.717Z</time></trkpt><trkpt lat="45.622224" lon="12.5468183"><ele>2.0</ele><time>2026-03-22T16:45:24.703Z</time></trkpt><trkpt lat="45.6222075" lon="12.5465768"><ele>2.0</ele><time>2026-03-22T16:45:25.709Z</time></trkpt><trkpt lat="45.6221902" lon="12.5463378"><ele>2.0</ele><time>2026-03-22T16:45:26.696Z</time></trkpt><trkpt lat="45.6221743" lon="12.5461013"><ele>2.0</ele><time>2026-03-22T16:45:27.705Z</time></trkpt><trkpt lat="45.6221583" lon="12.5458666"><ele>2.333333333333333</ele><time>2026-03-22T16:45:28.717Z</time></trkpt><trkpt lat="45.6221445" lon="12.5456322"><ele>2.6666666666666665</ele><time>2026-03-22T16:45:29.708Z</time></trkpt><trkpt lat="45.6221294" lon="12.545399"><ele>3.0</ele><time>2026-03-22T16:45:30.703Z</time></trkpt><trkpt lat="45.6221156" lon="12.5451658"><ele>3.333333333333333</ele><time>2026-03-22T16:45:31.704Z</time></trkpt><trkpt lat="45.6220958" lon="12.544935"><ele>3.6666666666666665</ele><time>2026-03-22T16:45:32.7Z</time></trkpt><trkpt lat="45.6220808" lon="12.544705"><ele>4.0</ele><time>2026-03-22T16:45:33.704Z</time></trkpt><trkpt lat="45.6220729" lon="12.544477"><ele>4.0</ele><time>2026-03-22T16:45:34.696Z</time></trkpt><trkpt lat="45.6220629" lon="12.544253"><ele>4.0</ele><time>2026-03-22T16:45:35.712Z</time></trkpt><trkpt lat="45.6220531" lon="12.5440324"><ele>4.0</ele><time>2026-03-22T16:45:36.699Z</time></trkpt><trkpt lat="45.6220387" lon="12.5438127"><ele>3.0</ele><time>2026-03-22T16:45:37.718Z</time></trkpt><trkpt lat="45.6220243" lon="12.5435957"><ele>2.0</ele><time>2026-03-22T16:45:38.712Z</time></trkpt><trkpt lat="45.6220085" lon="12.5433811"><ele>1.0</ele><time>2026-03-22T16:45:39.699Z</time></trkpt><trkpt lat="45.62199" lon="12.543167"><ele>1.0</ele><time>2026-03-22T16:45:40.719Z</time></trkpt><trkpt lat="45.6219829" lon="12.5429533"><ele>1.0</ele><time>2026-03-22T16:45:41.715Z</time></trkpt><trkpt lat="45.6219729" lon="12.5427399"><ele>1.0</ele><time>2026-03-22T16:45:42.715Z</time></trkpt><trkpt lat="45.6219602" lon="12.5425268"><ele>1.0</ele><time>2026-03-22T16:45:43.708Z</time></trkpt><trkpt lat="45.6219554" lon="12.5423104"><ele>1.0</ele><time>2026-03-22T16:45:44.714Z</time></trkpt><trkpt lat="45.6219372" lon="12.5420927"><ele>1.0</ele><time>2026-03-22T16:45:45.702Z</time></trkpt><trkpt lat="45.6219274" lon="12.5418736"><ele>1.0</ele><time>2026-03-22T16:45:46.701Z</time></trkpt><trkpt lat="45.6219182" lon="12.5416544"><ele>1.0</ele><time>2026-03-22T16:45:47.705Z</time></trkpt><trkpt lat="45.6218951" lon="12.5414356"><ele>1.0</ele><time>2026-03-22T16:45:48.705Z</time></trkpt><trkpt lat="45.6218786" lon="12.5412198"><ele>1.0</ele><time>2026-03-22T16:45:49.722Z</time></trkpt><trkpt lat="45.6218692" lon="12.5410002"><ele>1.0</ele><time>2026-03-22T16:45:50.723Z</time></trkpt><trkpt lat="45.6218498" lon="12.5407799"><ele>1.0</ele><time>2026-03-22T16:45:51.706Z</time></trkpt><trkpt lat="45.6218247" lon="12.5405533"><ele>1.0</ele><time>2026-03-22T16:45:52.715Z</time></trkpt><trkpt lat="45.6218167" lon="12.5403269"><ele>1.0</ele><time>2026-03-22T16:45:53.702Z</time></trkpt><trkpt lat="45.6217953" lon="12.5401017"><ele>1.0</ele><time>2026-03-22T16:45:54.717Z</time></trkpt><trkpt lat="45.6217902" lon="12.5398776"><ele>1.0</ele><time>2026-03-22T16:45:55.712Z</time></trkpt><trkpt lat="45.6217759" lon="12.539653"><ele>0.3333333333333333</ele><time>2026-03-22T16:45:56.707Z</time></trkpt><trkpt lat="45.6217537" lon="12.5394287"><ele>-0.3333333333333333</ele><time>2026-03-22T16:45:57.712Z</time></trkpt><trkpt lat="45.6217345" lon="12.5392056"><ele>-1.0</ele><time>2026-03-22T16:45:58.704Z</time></trkpt><trkpt lat="45.6217179" lon="12.5389843"><ele>-1.0</ele><time>2026-03-22T16:45:59.708Z</time></trkpt><trkpt lat="45.6217085" lon="12.5387625"><ele>-1.0</ele><time>2026-03-22T16:46:00.703Z</time></trkpt><trkpt lat="45.6216985" lon="12.5385406"><ele>-1.0</ele><time>2026-03-22T16:46:01.7Z</time></trkpt><trkpt lat="45.6216889" lon="12.5383183"><ele>-1.0</ele><time>2026-03-22T16:46:02.706Z</time></trkpt><trkpt lat="45.6216754" lon="12.5380952"><ele>-1.0</ele><time>2026-03-22T16:46:03.716Z</time></trkpt><trkpt lat="45.6216557" lon="12.5378726"><ele>-1.0</ele><time>2026-03-22T16:46:04.704Z</time></trkpt><trkpt lat="45.6216467" lon="12.5376468"><ele>-1.0</ele><time>2026-03-22T16:46:05.707Z</time></trkpt><trkpt lat="45.6216281" lon="12.5374199"><ele>-1.0</ele><time>2026-03-22T16:46:06.703Z</time></trkpt><trkpt lat="45.6216149" lon="12.5371914"><ele>-1.0</ele><time>2026-03-22T16:46:07.711Z</time></trkpt><trkpt lat="45.6216085" lon="12.5369612"><ele>-1.0</ele><time>2026-03-22T16:46:08.698Z</time></trkpt><trkpt lat="45.6215957" lon="12.5367299"><ele>-1.0</ele><time>2026-03-22T16:46:09.707Z</time></trkpt><trkpt lat="45.6215818" lon="12.5364982"><ele>-1.0</ele><time>2026-03-22T16:46:10.703Z</time></trkpt><trkpt lat="45.6215671" lon="12.5362657"><ele>-2.0</ele><time>2026-03-22T16:46:11.692Z</time></trkpt><trkpt lat="45.6215512" lon="12.5360324"><ele>-3.0</ele><time>2026-03-22T16:46:12.694Z</time></trkpt><trkpt lat="45.6215358" lon="12.5357987"><ele>-4.0</ele><time>2026-03-22T16:46:13.703Z</time></trkpt><trkpt lat="45.6215164" lon="12.5355665"><ele>-3.6666666666666665</ele><time>2026-03-22T16:46:14.703Z</time></trkpt><trkpt lat="45.6215059" lon="12.5353306"><ele>-3.333333333333333</ele><time>2026-03-22T16:46:15.717Z</time></trkpt><trkpt lat="45.6214897" lon="12.5350947"><ele>-3.0</ele><time>2026-03-22T16:46:16.706Z</time></trkpt><trkpt lat="45.6214691" lon="12.5348596"><ele>-3.0</ele><time>2026-03-22T16:46:17.712Z</time></trkpt><trkpt lat="45.6214455" lon="12.5346231"><ele>-3.0</ele><time>2026-03-22T16:46:18.711Z</time></trkpt><trkpt lat="45.6214304" lon="12.5343848"><ele>-3.0</ele><time>2026-03-22T16:46:19.711Z</time></trkpt><trkpt lat="45.6214237" lon="12.5341458"><ele>-2.3333333333333335</ele><time>2026-03-22T16:46:20.719Z</time></trkpt><trkpt lat="45.621404" lon="12.5339063"><ele>-1.6666666666666665</ele><time>2026-03-22T16:46:21.74Z</time></trkpt><trkpt lat="45.6213894" lon="12.5336661"><ele>-1.0</ele><time>2026-03-22T16:46:22.721Z</time></trkpt><trkpt lat="45.621385" lon="12.5334253"><ele>-1.0</ele><time>2026-03-22T16:46:23.714Z</time></trkpt><trkpt lat="45.6213726" lon="12.5331847"><ele>-1.0</ele><time>2026-03-22T16:46:24.7Z</time></trkpt><trkpt lat="45.6213557" lon="12.5329446"><ele>-1.0</ele><time>2026-03-22T16:46:25.704Z</time></trkpt><trkpt lat="45.621344" lon="12.5327042"><ele>-1.0</ele><time>2026-03-22T16:46:26.704Z</time></trkpt><trkpt lat="45.6213283" lon="12.5324646"><ele>-1.0</ele><time>2026-03-22T16:46:27.712Z</time></trkpt><trkpt lat="45.6213165" lon="12.5322242"><ele>-1.0</ele><time>2026-03-22T16:46:28.709Z</time></trkpt><trkpt lat="45.6213111" lon="12.5319818"><ele>-0.6666666666666666</ele><time>2026-03-22T16:46:29.715Z</time></trkpt><trkpt lat="45.621295" lon="12.5317392"><ele>-0.3333333333333333</ele><time>2026-03-22T16:46:30.718Z</time></trkpt><trkpt lat="45.621275" lon="12.5314955"><ele>0.0</ele><time>2026-03-22T16:46:31.715Z</time></trkpt><trkpt lat="45.6212633" lon="12.5312502"><ele>0.6666666666666666</ele><time>2026-03-22T16:46:32.725Z</time></trkpt><trkpt lat="45.6212491" lon="12.5310034"><ele>1.3333333333333333</ele><time>2026-03-22T16:46:33.716Z</time></trkpt><trkpt lat="45.6212317" lon="12.5307564"><ele>2.0</ele><time>2026-03-22T16:46:34.712Z</time></trkpt><trkpt lat="45.6212147" lon="12.5305114"><ele>1.3333333333333333</ele><time>2026-03-22T16:46:35.713Z</time></trkpt><trkpt lat="45.6211938" lon="12.5302696"><ele>0.6666666666666666</ele><time>2026-03-22T16:46:36.691Z</time></trkpt><trkpt lat="45.6211738" lon="12.5300312"><ele>0.0</ele><time>2026-03-22T16:46:37.706Z</time></trkpt><trkpt lat="45.6211653" lon="12.5297935"><ele>0.0</ele><time>2026-03-22T16:46:38.718Z</time></trkpt><trkpt lat="45.6211473" lon="12.5295573"><ele>0.0</ele><time>2026-03-22T16:46:39.737Z</time></trkpt><trkpt lat="45.621131" lon="12.5293187"><ele>0.0</ele><time>2026-03-22T16:46:40.713Z</time></trkpt><trkpt lat="45.6211131" lon="12.5290797"><ele>0.0</ele><time>2026-03-22T16:46:41.707Z</time></trkpt><trkpt lat="45.6210982" lon="12.5288405"><ele>0.0</ele><time>2026-03-22T16:46:42.7Z</time></trkpt><trkpt lat="45.6210809" lon="12.5286024"><ele>0.0</ele><time>2026-03-22T16:46:43.704Z</time></trkpt><trkpt lat="45.6210667" lon="12.5283659"><ele>-0.3333333333333333</ele><time>2026-03-22T16:46:44.701Z</time></trkpt><trkpt lat="45.6210503" lon="12.5281328"><ele>-0.6666666666666666</ele><time>2026-03-22T16:46:45.702Z</time></trkpt><trkpt lat="45.6210349" lon="12.5279018"><ele>-1.0</ele><time>2026-03-22T16:46:46.73Z</time></trkpt><trkpt lat="45.6210198" lon="12.5276712"><ele>-0.3333333333333333</ele><time>2026-03-22T16:46:47.728Z</time></trkpt><trkpt lat="45.6210022" lon="12.527442"><ele>0.3333333333333333</ele><time>2026-03-22T16:46:48.704Z</time></trkpt><trkpt lat="45.6209854" lon="12.527216"><ele>1.0</ele><time>2026-03-22T16:46:49.707Z</time></trkpt><trkpt lat="45.6209621" lon="12.5269945"><ele>1.0</ele><time>2026-03-22T16:46:50.717Z</time></trkpt><trkpt lat="45.6209493" lon="12.5267749"><ele>1.0</ele><time>2026-03-22T16:46:51.708Z</time></trkpt><trkpt lat="45.6209371" lon="12.526555"><ele>1.0</ele><time>2026-03-22T16:46:52.714Z</time></trkpt><trkpt lat="45.6209247" lon="12.5263335"><ele>0.0</ele><time>2026-03-22T16:46:53.705Z</time></trkpt><trkpt lat="45.6209203" lon="12.5261107"><ele>-1.0</ele><time>2026-03-22T16:46:54.692Z</time></trkpt><trkpt lat="45.6209085" lon="12.5258879"><ele>-2.0</ele><time>2026-03-22T16:46:55.711Z</time></trkpt><trkpt lat="45.6208956" lon="12.5256665"><ele>-2.0</ele><time>2026-03-22T16:46:56.697Z</time></trkpt><trkpt lat="45.6208829" lon="12.5254487"><ele>-2.0</ele><time>2026-03-22T16:46:57.708Z</time></trkpt><trkpt lat="45.6208702" lon="12.5252335"><ele>-2.0</ele><time>2026-03-22T16:46:58.703Z</time></trkpt><trkpt lat="45.6208455" lon="12.5250186"><ele>-1.3333333333333333</ele><time>2026-03-22T16:46:59.703Z</time></trkpt><trkpt lat="45.6208421" lon="12.5248004"><ele>-0.6666666666666666</ele><time>2026-03-22T16:47:00.684Z</time></trkpt><trkpt lat="45.6208325" lon="12.5245799"><ele>0.0</ele><time>2026-03-22T16:47:01.716Z</time></trkpt><trkpt lat="45.620808" lon="12.524357"><ele>0.0</ele><time>2026-03-22T16:47:02.705Z</time></trkpt><trkpt lat="45.620795" lon="12.5241332"><ele>0.0</ele><time>2026-03-22T16:47:03.706Z</time></trkpt><trkpt lat="45.6207758" lon="12.523911"><ele>0.0</ele><time>2026-03-22T16:47:04.703Z</time></trkpt><trkpt lat="45.6207582" lon="12.5236908"><ele>0.3333333333333333</ele><time>2026-03-22T16:47:05.714Z</time></trkpt><trkpt lat="45.6207521" lon="12.5234679"><ele>0.6666666666666666</ele><time>2026-03-22T16:47:06.695Z</time></trkpt><trkpt lat="45.6207348" lon="12.5232468"><ele>1.0</ele><time>2026-03-22T16:47:07.713Z</time></trkpt><trkpt lat="45.6207319" lon="12.5230224"><ele>1.3333333333333333</ele><time>2026-03-22T16:47:08.707Z</time></trkpt><trkpt lat="45.6207234" lon="12.5227969"><ele>1.6666666666666665</ele><time>2026-03-22T16:47:09.73Z</time></trkpt><trkpt lat="45.6207051" lon="12.5225732"><ele>2.0</ele><time>2026-03-22T16:47:10.706Z</time></trkpt><trkpt lat="45.6206861" lon="12.5223497"><ele>2.0</ele><time>2026-03-22T16:47:11.712Z</time></trkpt><trkpt lat="45.620668" lon="12.5221231"><ele>2.0</ele><time>2026-03-22T16:47:12.708Z</time></trkpt><trkpt lat="45.6206505" lon="12.5218935"><ele>2.0</ele><time>2026-03-22T16:47:13.734Z</time></trkpt><trkpt lat="45.6206338" lon="12.5216604"><ele>1.3333333333333333</ele><time>2026-03-22T16:47:14.703Z</time></trkpt><trkpt lat="45.6206159" lon="12.5214252"><ele>0.6666666666666666</ele><time>2026-03-22T16:47:15.727Z</time></trkpt><trkpt lat="45.6206043" lon="12.5211899"><ele>0.0</ele><time>2026-03-22T16:47:16.707Z</time></trkpt><trkpt lat="45.6205868" lon="12.5209565"><ele>0.0</ele><time>2026-03-22T16:47:17.711Z</time></trkpt><trkpt lat="45.6205615" lon="12.5207244"><ele>0.0</ele><time>2026-03-22T16:47:18.708Z</time></trkpt><trkpt lat="45.6205405" lon="12.520494"><ele>0.0</ele><time>2026-03-22T16:47:19.705Z</time></trkpt><trkpt lat="45.6205208" lon="12.5202688"><ele>-0.25</ele><time>2026-03-22T16:47:20.718Z</time></trkpt><trkpt lat="45.6205029" lon="12.520051"><ele>-0.5</ele><time>2026-03-22T16:47:21.713Z</time></trkpt><trkpt lat="45.620485" lon="12.5198397"><ele>-0.75</ele><time>2026-03-22T16:47:22.697Z</time></trkpt><trkpt lat="45.6204681" lon="12.5196329"><ele>-1.0</ele><time>2026-03-22T16:47:23.716Z</time></trkpt><trkpt lat="45.6204497" lon="12.5194284"><ele>-1.0</ele><time>2026-03-22T16:47:24.71Z</time></trkpt><trkpt lat="45.6204323" lon="12.5192236"><ele>-1.0</ele><time>2026-03-22T16:47:25.704Z</time></trkpt><trkpt lat="45.6204159" lon="12.519018"><ele>-1.0</ele><time>2026-03-22T16:47:26.709Z</time></trkpt><trkpt lat="45.6203994" lon="12.5188123"><ele>-1.0</ele><time>2026-03-22T16:47:27.715Z</time></trkpt><trkpt lat="45.620383" lon="12.5186067"><ele>-1.0</ele><time>2026-03-22T16:47:28.714Z</time></trkpt><trkpt lat="45.6203659" lon="12.5184008"><ele>-1.0</ele><time>2026-03-22T16:47:29.714Z</time></trkpt><trkpt lat="45.6203493" lon="12.5181946"><ele>-1.0</ele><time>2026-03-22T16:47:30.723Z</time></trkpt><trkpt lat="45.6203311" lon="12.5179881"><ele>-1.0</ele><time>2026-03-22T16:47:31.736Z</time></trkpt><trkpt lat="45.6203165" lon="12.5177802"><ele>-1.0</ele><time>2026-03-22T16:47:32.721Z</time></trkpt><trkpt lat="45.6203004" lon="12.5175717"><ele>-1.0</ele><time>2026-03-22T16:47:33.71Z</time></trkpt><trkpt lat="45.6202848" lon="12.5173602"><ele>-1.0</ele><time>2026-03-22T16:47:34.731Z</time></trkpt><trkpt lat="45.620265" lon="12.5171482"><ele>-1.0</ele><time>2026-03-22T16:47:35.709Z</time></trkpt><trkpt lat="45.6202475" lon="12.5169351"><ele>-0.6666666666666666</ele><time>2026-03-22T16:47:36.711Z</time></trkpt><trkpt lat="45.6202302" lon="12.5167204"><ele>-0.3333333333333333</ele><time>2026-03-22T16:47:37.719Z</time></trkpt><trkpt lat="45.6202205" lon="12.5165024"><ele>0.0</ele><time>2026-03-22T16:47:38.706Z</time></trkpt><trkpt lat="45.6202047" lon="12.5162832"><ele>-0.6666666666666666</ele><time>2026-03-22T16:47:39.685Z</time></trkpt><trkpt lat="45.620189" lon="12.5160632"><ele>-1.3333333333333333</ele><time>2026-03-22T16:47:40.71Z</time></trkpt><trkpt lat="45.6201734" lon="12.5158414"><ele>-2.0</ele><time>2026-03-22T16:47:41.715Z</time></trkpt><trkpt lat="45.6201565" lon="12.5156179"><ele>-2.0</ele><time>2026-03-22T16:47:42.708Z</time></trkpt><trkpt lat="45.6201371" lon="12.5153939"><ele>-2.0</ele><time>2026-03-22T16:47:43.709Z</time></trkpt><trkpt lat="45.6201194" lon="12.5151698"><ele>-2.0</ele><time>2026-03-22T16:47:44.722Z</time></trkpt><trkpt lat="45.6201017" lon="12.5149477"><ele>-2.0</ele><time>2026-03-22T16:47:45.723Z</time></trkpt><trkpt lat="45.6200851" lon="12.5147298"><ele>-2.0</ele><time>2026-03-22T16:47:46.71Z</time></trkpt><trkpt lat="45.6200704" lon="12.5145167"><ele>-2.0</ele><time>2026-03-22T16:47:47.716Z</time></trkpt><trkpt lat="45.6200484" lon="12.5143087"><ele>-2.0</ele><time>2026-03-22T16:47:48.708Z</time></trkpt><trkpt lat="45.6200355" lon="12.5141029"><ele>-2.0</ele><time>2026-03-22T16:47:49.704Z</time></trkpt><trkpt lat="45.6200202" lon="12.5138984"><ele>-2.0</ele><time>2026-03-22T16:47:50.712Z</time></trkpt><trkpt lat="45.620003" lon="12.5136943"><ele>-2.0</ele><time>2026-03-22T16:47:51.711Z</time></trkpt><trkpt lat="45.6199877" lon="12.5134873"><ele>-2.0</ele><time>2026-03-22T16:47:52.719Z</time></trkpt><trkpt lat="45.6199786" lon="12.5132775"><ele>-2.0</ele><time>2026-03-22T16:47:53.711Z</time></trkpt><trkpt lat="45.6199653" lon="12.5130648"><ele>-2.0</ele><time>2026-03-22T16:47:54.736Z</time></trkpt><trkpt lat="45.6199466" lon="12.5128486"><ele>-2.0</ele><time>2026-03-22T16:47:55.727Z</time></trkpt><trkpt lat="45.619926" lon="12.512629"><ele>-1.6666666666666665</ele><time>2026-03-22T16:47:56.717Z</time></trkpt><trkpt lat="45.6199071" lon="12.5124056"><ele>-1.3333333333333333</ele><time>2026-03-22T16:47:57.712Z</time></trkpt><trkpt lat="45.6198892" lon="12.5121833"><ele>-1.0</ele><time>2026-03-22T16:47:58.699Z</time></trkpt><trkpt lat="45.6198728" lon="12.5119675"><ele>-0.75</ele><time>2026-03-22T16:47:59.702Z</time></trkpt><trkpt lat="45.6198575" lon="12.5117635"><ele>-0.5</ele><time>2026-03-22T16:48:00.706Z</time></trkpt><trkpt lat="45.6198407" lon="12.5115701"><ele>-0.25</ele><time>2026-03-22T16:48:01.709Z</time></trkpt><trkpt lat="45.6198249" lon="12.5113844"><ele>0.0</ele><time>2026-03-22T16:48:02.72Z</time></trkpt><trkpt lat="45.6198102" lon="12.5112044"><ele>0.0</ele><time>2026-03-22T16:48:03.715Z</time></trkpt><trkpt lat="45.6197961" lon="12.5110309"><ele>0.0</ele><time>2026-03-22T16:48:04.711Z</time></trkpt><trkpt lat="45.6197858" lon="12.5108702"><ele>0.0</ele><time>2026-03-22T16:48:05.715Z</time></trkpt><trkpt lat="45.6197763" lon="12.5107236"><ele>0.0</ele><time>2026-03-22T16:48:06.711Z</time></trkpt><trkpt lat="45.6197683" lon="12.5105916"><ele>0.0</ele><time>2026-03-22T16:48:07.711Z</time></trkpt><trkpt lat="45.6197603" lon="12.5104723"><ele>0.6</ele><time>2026-03-22T16:48:08.706Z</time></trkpt><trkpt lat="45.6197565" lon="12.5103564"><ele>1.2</ele><time>2026-03-22T16:48:09.725Z</time></trkpt><trkpt lat="45.6197509" lon="12.5102408"><ele>1.7999999999999998</ele><time>2026-03-22T16:48:10.701Z</time></trkpt><trkpt lat="45.6197508" lon="12.5101143"><ele>2.4</ele><time>2026-03-22T16:48:11.715Z</time></trkpt><trkpt lat="45.6197545" lon="12.5099589"><ele>3.0</ele><time>2026-03-22T16:48:12.703Z</time></trkpt><trkpt lat="45.6197655" lon="12.5097736"><ele>3.333333333333333</ele><time>2026-03-22T16:48:13.705Z</time></trkpt><trkpt lat="45.6197861" lon="12.5095652"><ele>3.6666666666666665</ele><time>2026-03-22T16:48:14.724Z</time></trkpt><trkpt lat="45.6198154" lon="12.5093364"><ele>4.0</ele><time>2026-03-22T16:48:15.711Z</time></trkpt><trkpt lat="45.6198504" lon="12.5090853"><ele>4.0</ele><time>2026-03-22T16:48:16.714Z</time></trkpt><trkpt lat="45.6198932" lon="12.5088039"><ele>4.0</ele><time>2026-03-22T16:48:17.728Z</time></trkpt><trkpt lat="45.6199381" lon="12.5084907"><ele>4.0</ele><time>2026-03-22T16:48:18.707Z</time></trkpt><trkpt lat="45.6199843" lon="12.5081647"><ele>1.5</ele><time>2026-03-22T16:48:19.709Z</time></trkpt><trkpt lat="45.6200373" lon="12.5078453"><ele>-1.0</ele><time>2026-03-22T16:48:20.706Z</time></trkpt><trkpt lat="45.6200885" lon="12.5075348"><ele>-1.0</ele><time>2026-03-22T16:48:21.714Z</time></trkpt><trkpt lat="45.6201361" lon="12.5072308"><ele>-1.0</ele><time>2026-03-22T16:48:22.699Z</time></trkpt><trkpt lat="45.6201817" lon="12.5069296"><ele>-1.0</ele><time>2026-03-22T16:48:23.701Z</time></trkpt><trkpt lat="45.6202273" lon="12.5066301"><ele>-1.0</ele><time>2026-03-22T16:48:24.705Z</time></trkpt><trkpt lat="45.6202715" lon="12.5063323"><ele>-1.0</ele><time>2026-03-22T16:48:25.723Z</time></trkpt><trkpt lat="45.6203171" lon="12.5060358"><ele>-1.0</ele><time>2026-03-22T16:48:26.697Z</time></trkpt><trkpt lat="45.6203627" lon="12.5057395"><ele>-1.0</ele><time>2026-03-22T16:48:27.706Z</time></trkpt><trkpt lat="45.6204075" lon="12.5054432"><ele>-1.0</ele><time>2026-03-22T16:48:28.719Z</time></trkpt><trkpt lat="45.6204535" lon="12.5051476"><ele>-1.0</ele><time>2026-03-22T16:48:29.71Z</time></trkpt><trkpt lat="45.6204986" lon="12.5048527"><ele>-1.0</ele><time>2026-03-22T16:48:30.709Z</time></trkpt><trkpt lat="45.6205422" lon="12.5045597"><ele>-1.0</ele><time>2026-03-22T16:48:31.712Z</time></trkpt><trkpt lat="45.6205898" lon="12.5042682"><ele>-1.0</ele><time>2026-03-22T16:48:32.697Z</time></trkpt><trkpt lat="45.6206351" lon="12.5039775"><ele>-1.0</ele><time>2026-03-22T16:48:33.705Z</time></trkpt><trkpt lat="45.6206783" lon="12.5036912"><ele>-1.0</ele><time>2026-03-22T16:48:34.706Z</time></trkpt><trkpt lat="45.6207213" lon="12.5034105"><ele>-1.0</ele><time>2026-03-22T16:48:35.706Z</time></trkpt><trkpt lat="45.6207631" lon="12.5031357"><ele>-0.6666666666666666</ele><time>2026-03-22T16:48:36.707Z</time></trkpt><trkpt lat="45.6208025" lon="12.5028651"><ele>-0.3333333333333333</ele><time>2026-03-22T16:48:37.714Z</time></trkpt><trkpt lat="45.6208368" lon="12.502602"><ele>0.0</ele><time>2026-03-22T16:48:38.712Z</time></trkpt><trkpt lat="45.6208693" lon="12.5023498"><ele>0.0</ele><time>2026-03-22T16:48:39.702Z</time></trkpt><trkpt lat="45.6208971" lon="12.5021028"><ele>0.0</ele><time>2026-03-22T16:48:40.72Z</time></trkpt><trkpt lat="45.6209185" lon="12.5018588"><ele>0.0</ele><time>2026-03-22T16:48:41.724Z</time></trkpt><trkpt lat="45.6209291" lon="12.5016167"><ele>0.0</ele><time>2026-03-22T16:48:42.714Z</time></trkpt><trkpt lat="45.6208987" lon="12.5013795"><ele>0.0</ele><time>2026-03-22T16:48:43.714Z</time></trkpt><trkpt lat="45.6209034" lon="12.5011429"><ele>0.0</ele><time>2026-03-22T16:48:44.713Z</time></trkpt><trkpt lat="45.6209014" lon="12.5009132"><ele>0.0</ele><time>2026-03-22T16:48:45.715Z</time></trkpt><trkpt lat="45.6208941" lon="12.5006939"><ele>0.0</ele><time>2026-03-22T16:48:46.704Z</time></trkpt><trkpt lat="45.6208804" lon="12.500475"><ele>0.0</ele><time>2026-03-22T16:48:47.708Z</time></trkpt><trkpt lat="45.6208606" lon="12.5002592"><ele>0.0</ele><time>2026-03-22T16:48:48.706Z</time></trkpt><trkpt lat="45.6208416" lon="12.5000473"><ele>0.0</ele><time>2026-03-22T16:48:49.702Z</time></trkpt><trkpt lat="45.6208186" lon="12.499835"><ele>0.0</ele><time>2026-03-22T16:48:50.704Z</time></trkpt><trkpt lat="45.6207929" lon="12.4996231"><ele>-0.25</ele><time>2026-03-22T16:48:51.714Z</time></trkpt><trkpt lat="45.6207615" lon="12.4994129"><ele>-0.5</ele><time>2026-03-22T16:48:52.694Z</time></trkpt><trkpt lat="45.620723" lon="12.499201"><ele>-0.75</ele><time>2026-03-22T16:48:53.716Z</time></trkpt><trkpt lat="45.6206783" lon="12.4990049"><ele>-1.0</ele><time>2026-03-22T16:48:54.705Z</time></trkpt><trkpt lat="45.6206261" lon="12.4988068"><ele>0.0</ele><time>2026-03-22T16:48:55.697Z</time></trkpt><trkpt lat="45.6205687" lon="12.4986034"><ele>1.0</ele><time>2026-03-22T16:48:56.711Z</time></trkpt><trkpt lat="45.6205057" lon="12.4984085"><ele>2.0</ele><time>2026-03-22T16:48:57.712Z</time></trkpt><trkpt lat="45.6204376" lon="12.4982127"><ele>2.0</ele><time>2026-03-22T16:48:58.717Z</time></trkpt><trkpt lat="45.6203643" lon="12.4980185"><ele>2.0</ele><time>2026-03-22T16:48:59.71Z</time></trkpt><trkpt lat="45.6202844" lon="12.4978278"><ele>2.0</ele><time>2026-03-22T16:49:00.701Z</time></trkpt><trkpt lat="45.6202002" lon="12.4976382"><ele>1.6666666666666665</ele><time>2026-03-22T16:49:01.715Z</time></trkpt><trkpt lat="45.620112" lon="12.4974506"><ele>1.3333333333333333</ele><time>2026-03-22T16:49:02.713Z</time></trkpt><trkpt lat="45.6200196" lon="12.497267"><ele>1.0</ele><time>2026-03-22T16:49:03.704Z</time></trkpt><trkpt lat="45.619922" lon="12.4970864"><ele>0.6666666666666666</ele><time>2026-03-22T16:49:04.699Z</time></trkpt><trkpt lat="45.6198209" lon="12.4969133"><ele>0.3333333333333333</ele><time>2026-03-22T16:49:05.708Z</time></trkpt><trkpt lat="45.6197143" lon="12.4967416"><ele>0.0</ele><time>2026-03-22T16:49:06.705Z</time></trkpt><trkpt lat="45.619603" lon="12.4965756"><ele>0.0</ele><time>2026-03-22T16:49:07.711Z</time></trkpt><trkpt lat="45.6194871" lon="12.4964114"><ele>0.0</ele><time>2026-03-22T16:49:08.699Z</time></trkpt><trkpt lat="45.6193659" lon="12.4962503"><ele>0.0</ele><time>2026-03-22T16:49:09.712Z</time></trkpt><trkpt lat="45.6192437" lon="12.4960936"><ele>0.0</ele><time>2026-03-22T16:49:10.73Z</time></trkpt><trkpt lat="45.6191236" lon="12.4959444"><ele>0.0</ele><time>2026-03-22T16:49:11.703Z</time></trkpt><trkpt lat="45.6190005" lon="12.4957999"><ele>0.0</ele><time>2026-03-22T16:49:12.694Z</time></trkpt><trkpt lat="45.618876" lon="12.4956621"><ele>0.0</ele><time>2026-03-22T16:49:13.702Z</time></trkpt><trkpt lat="45.6187553" lon="12.4955418"><ele>0.0</ele><time>2026-03-22T16:49:14.706Z</time></trkpt><trkpt lat="45.6186301" lon="12.4954349"><ele>0.0</ele><time>2026-03-22T16:49:15.715Z</time></trkpt><trkpt lat="45.6185056" lon="12.4953406"><ele>0.0</ele><time>2026-03-22T16:49:16.703Z</time></trkpt><trkpt lat="45.6183776" lon="12.4952523"><ele>-0.5</ele><time>2026-03-22T16:49:17.712Z</time></trkpt><trkpt lat="45.6182526" lon="12.4951709"><ele>-1.0</ele><time>2026-03-22T16:49:18.702Z</time></trkpt><trkpt lat="45.6181214" lon="12.4950828"><ele>-1.5</ele><time>2026-03-22T16:49:19.708Z</time></trkpt><trkpt lat="45.6179893" lon="12.4949936"><ele>-2.0</ele><time>2026-03-22T16:49:20.725Z</time></trkpt><trkpt lat="45.6178667" lon="12.4949108"><ele>-1.25</ele><time>2026-03-22T16:49:21.706Z</time></trkpt><trkpt lat="45.6177421" lon="12.494824"><ele>-0.5</ele><time>2026-03-22T16:49:22.717Z</time></trkpt><trkpt lat="45.6176164" lon="12.4947355"><ele>0.25</ele><time>2026-03-22T16:49:23.72Z</time></trkpt><trkpt lat="45.6174905" lon="12.4946481"><ele>1.0</ele><time>2026-03-22T16:49:24.705Z</time></trkpt><trkpt lat="45.6173592" lon="12.4945595"><ele>1.0</ele><time>2026-03-22T16:49:25.712Z</time></trkpt><trkpt lat="45.6172278" lon="12.4944707"><ele>1.0</ele><time>2026-03-22T16:49:26.712Z</time></trkpt><trkpt lat="45.6170938" lon="12.4943795"><ele>1.0</ele><time>2026-03-22T16:49:27.716Z</time></trkpt><trkpt lat="45.6169591" lon="12.4942889"><ele>1.0</ele><time>2026-03-22T16:49:28.701Z</time></trkpt><trkpt lat="45.6168201" lon="12.4941956"><ele>0.6666666666666666</ele><time>2026-03-22T16:49:29.707Z</time></trkpt><trkpt lat="45.6166833" lon="12.4941014"><ele>0.3333333333333333</ele><time>2026-03-22T16:49:30.713Z</time></trkpt><trkpt lat="45.6165441" lon="12.494004"><ele>0.0</ele><time>2026-03-22T16:49:31.721Z</time></trkpt><trkpt lat="45.6164067" lon="12.4939072"><ele>0.0</ele><time>2026-03-22T16:49:32.715Z</time></trkpt><trkpt lat="45.6162739" lon="12.4938136"><ele>0.0</ele><time>2026-03-22T16:49:33.7Z</time></trkpt><trkpt lat="45.616138" lon="12.4937237"><ele>0.0</ele><time>2026-03-22T16:49:34.702Z</time></trkpt><trkpt lat="45.6160073" lon="12.4936359"><ele>0.0</ele><time>2026-03-22T16:49:35.713Z</time></trkpt><trkpt lat="45.6158824" lon="12.4935521"><ele>0.5</ele><time>2026-03-22T16:49:36.707Z</time></trkpt><trkpt lat="45.6157585" lon="12.4934688"><ele>1.0</ele><time>2026-03-22T16:49:37.72Z</time></trkpt><trkpt lat="45.6156427" lon="12.4933889"><ele>1.5</ele><time>2026-03-22T16:49:38.701Z</time></trkpt><trkpt lat="45.6155274" lon="12.4933091"><ele>2.0</ele><time>2026-03-22T16:49:39.712Z</time></trkpt><trkpt lat="45.615415" lon="12.4932322"><ele>1.75</ele><time>2026-03-22T16:49:40.702Z</time></trkpt><trkpt lat="45.6153031" lon="12.4931592"><ele>1.5</ele><time>2026-03-22T16:49:41.705Z</time></trkpt><trkpt lat="45.6151902" lon="12.4930866"><ele>1.25</ele><time>2026-03-22T16:49:42.72Z</time></trkpt><trkpt lat="45.6150791" lon="12.4930129"><ele>1.0</ele><time>2026-03-22T16:49:43.711Z</time></trkpt><trkpt lat="45.6149639" lon="12.4929351"><ele>0.5</ele><time>2026-03-22T16:49:44.727Z</time></trkpt><trkpt lat="45.614849" lon="12.4928564"><ele>0.0</ele><time>2026-03-22T16:49:45.717Z</time></trkpt><trkpt lat="45.6147331" lon="12.4927769"><ele>-0.5</ele><time>2026-03-22T16:49:46.7Z</time></trkpt><trkpt lat="45.614618" lon="12.4926976"><ele>-1.0</ele><time>2026-03-22T16:49:47.702Z</time></trkpt><trkpt lat="45.6145048" lon="12.4926207"><ele>-0.6000000000000001</ele><time>2026-03-22T16:49:48.7Z</time></trkpt><trkpt lat="45.6143975" lon="12.4925489"><ele>-0.20000000000000007</ele><time>2026-03-22T16:49:49.715Z</time></trkpt><trkpt lat="45.6142954" lon="12.4924816"><ele>0.20000000000000007</ele><time>2026-03-22T16:49:50.711Z</time></trkpt><trkpt lat="45.614203" lon="12.492421"><ele>0.6000000000000001</ele><time>2026-03-22T16:49:51.714Z</time></trkpt><trkpt lat="45.6141209" lon="12.4923669"><ele>1.0</ele><time>2026-03-22T16:49:52.713Z</time></trkpt><trkpt lat="45.6140441" lon="12.4923165"><ele>0.9999999999999999</ele><time>2026-03-22T16:49:53.707Z</time></trkpt><trkpt lat="45.6139727" lon="12.4922687"><ele>1.0</ele><time>2026-03-22T16:49:54.706Z</time></trkpt><trkpt lat="45.6139143" lon="12.4922325"><ele>1.0</ele><time>2026-03-22T16:49:55.706Z</time></trkpt><trkpt lat="45.6138548" lon="12.4921643"><ele>1.0</ele><time>2026-03-22T16:49:57.715Z</time></trkpt><trkpt lat="45.6138147" lon="12.4920756"><ele>0.9999999999999999</ele><time>2026-03-22T16:49:59.697Z</time></trkpt><trkpt lat="45.6137884" lon="12.4919022"><ele>1.0</ele><time>2026-03-22T16:50:01.71Z</time></trkpt><trkpt lat="45.6137756" lon="12.4917958"><ele>0.8</ele><time>2026-03-22T16:50:02.693Z</time></trkpt><trkpt lat="45.6137608" lon="12.4916764"><ele>0.6000000000000001</ele><time>2026-03-22T16:50:03.713Z</time></trkpt><trkpt lat="45.6137407" lon="12.4915469"><ele>0.4</ele><time>2026-03-22T16:50:04.706Z</time></trkpt><trkpt lat="45.6137143" lon="12.49141"><ele>0.2</ele><time>2026-03-22T16:50:05.716Z</time></trkpt><trkpt lat="45.6136795" lon="12.491271"><ele>0.0</ele><time>2026-03-22T16:50:06.7Z</time></trkpt><trkpt lat="45.6136443" lon="12.4911366"><ele>0.0</ele><time>2026-03-22T16:50:07.708Z</time></trkpt><trkpt lat="45.6136245" lon="12.4910009"><ele>0.0</ele><time>2026-03-22T16:50:08.692Z</time></trkpt><trkpt lat="45.6136293" lon="12.4908628"><ele>0.0</ele><time>2026-03-22T16:50:09.701Z</time></trkpt><trkpt lat="45.6136564" lon="12.4907257"><ele>0.0</ele><time>2026-03-22T16:50:10.696Z</time></trkpt><trkpt lat="45.6136949" lon="12.4905928"><ele>0.0</ele><time>2026-03-22T16:50:11.704Z</time></trkpt><trkpt lat="45.6137613" lon="12.4904751"><ele>-0.25</ele><time>2026-03-22T16:50:12.697Z</time></trkpt><trkpt lat="45.6138309" lon="12.490358"><ele>-0.5</ele><time>2026-03-22T16:50:13.709Z</time></trkpt><trkpt lat="45.6139119" lon="12.490241"><ele>-0.75</ele><time>2026-03-22T16:50:14.714Z</time></trkpt><trkpt lat="45.6139945" lon="12.4901166"><ele>-1.0</ele><time>2026-03-22T16:50:15.709Z</time></trkpt><trkpt lat="45.6140821" lon="12.4899922"><ele>-1.0</ele><time>2026-03-22T16:50:16.715Z</time></trkpt><trkpt lat="45.6141701" lon="12.4898615"><ele>-1.0</ele><time>2026-03-22T16:50:17.703Z</time></trkpt><trkpt lat="45.614268" lon="12.4897433"><ele>-1.0</ele><time>2026-03-22T16:50:18.706Z</time></trkpt><trkpt lat="45.614367" lon="12.4896256"><ele>-1.0</ele><time>2026-03-22T16:50:19.719Z</time></trkpt><trkpt lat="45.6144688" lon="12.4895105"><ele>-1.25</ele><time>2026-03-22T16:50:20.726Z</time></trkpt><trkpt lat="45.6145724" lon="12.4893952"><ele>-1.5</ele><time>2026-03-22T16:50:21.707Z</time></trkpt><trkpt lat="45.6146753" lon="12.489274"><ele>-1.75</ele><time>2026-03-22T16:50:22.701Z</time></trkpt><trkpt lat="45.6147817" lon="12.4891557"><ele>-2.0</ele><time>2026-03-22T16:50:23.708Z</time></trkpt><trkpt lat="45.6148869" lon="12.4890329"><ele>-2.0</ele><time>2026-03-22T16:50:24.707Z</time></trkpt><trkpt lat="45.6149941" lon="12.4889114"><ele>-2.0</ele><time>2026-03-22T16:50:25.696Z</time></trkpt><trkpt lat="45.6151019" lon="12.4887872"><ele>-2.0</ele><time>2026-03-22T16:50:26.704Z</time></trkpt><trkpt lat="45.6152085" lon="12.4886578"><ele>-2.0</ele><time>2026-03-22T16:50:27.703Z</time></trkpt><trkpt lat="45.6153143" lon="12.4885241"><ele>-1.75</ele><time>2026-03-22T16:50:28.704Z</time></trkpt><trkpt lat="45.6154196" lon="12.4883856"><ele>-1.5</ele><time>2026-03-22T16:50:29.694Z</time></trkpt><trkpt lat="45.615526" lon="12.488241"><ele>-1.25</ele><time>2026-03-22T16:50:30.708Z</time></trkpt><trkpt lat="45.6156316" lon="12.4880886"><ele>-1.0</ele><time>2026-03-22T16:50:31.698Z</time></trkpt><trkpt lat="45.6157342" lon="12.4879294"><ele>-0.6666666666666666</ele><time>2026-03-22T16:50:32.701Z</time></trkpt><trkpt lat="45.6158337" lon="12.4877628"><ele>-0.3333333333333333</ele><time>2026-03-22T16:50:33.692Z</time></trkpt><trkpt lat="45.6159273" lon="12.4875867"><ele>0.0</ele><time>2026-03-22T16:50:34.702Z</time></trkpt><trkpt lat="45.6160164" lon="12.4874055"><ele>0.0</ele><time>2026-03-22T16:50:35.7Z</time></trkpt><trkpt lat="45.6161031" lon="12.4872216"><ele>0.0</ele><time>2026-03-22T16:50:36.7Z</time></trkpt><trkpt lat="45.6161892" lon="12.4870362"><ele>0.0</ele><time>2026-03-22T16:50:37.71Z</time></trkpt><trkpt lat="45.6162765" lon="12.4868501"><ele>-0.3333333333333333</ele><time>2026-03-22T16:50:38.696Z</time></trkpt><trkpt lat="45.6163655" lon="12.4866661"><ele>-0.6666666666666666</ele><time>2026-03-22T16:50:39.709Z</time></trkpt><trkpt lat="45.6164529" lon="12.4864836"><ele>-1.0</ele><time>2026-03-22T16:50:40.701Z</time></trkpt><trkpt lat="45.6165377" lon="12.4863039"><ele>-0.75</ele><time>2026-03-22T16:50:41.712Z</time></trkpt><trkpt lat="45.6166114" lon="12.4861208"><ele>-0.5</ele><time>2026-03-22T16:50:42.701Z</time></trkpt><trkpt lat="45.6166862" lon="12.4859433"><ele>-0.25</ele><time>2026-03-22T16:50:43.703Z</time></trkpt><trkpt lat="45.6167573" lon="12.4857651"><ele>0.0</ele><time>2026-03-22T16:50:44.689Z</time></trkpt><trkpt lat="45.6168307" lon="12.4855895"><ele>0.25</ele><time>2026-03-22T16:50:45.696Z</time></trkpt><trkpt lat="45.6169042" lon="12.485416"><ele>0.5</ele><time>2026-03-22T16:50:46.702Z</time></trkpt><trkpt lat="45.6169815" lon="12.4852491"><ele>0.75</ele><time>2026-03-22T16:50:47.719Z</time></trkpt><trkpt lat="45.617061" lon="12.4850887"><ele>1.0</ele><time>2026-03-22T16:50:48.696Z</time></trkpt><trkpt lat="45.6171372" lon="12.484931"><ele>0.75</ele><time>2026-03-22T16:50:49.706Z</time></trkpt><trkpt lat="45.6172144" lon="12.4847776"><ele>0.5</ele><time>2026-03-22T16:50:50.711Z</time></trkpt><trkpt lat="45.6172901" lon="12.4846222"><ele>0.25</ele><time>2026-03-22T16:50:51.692Z</time></trkpt><trkpt lat="45.6173663" lon="12.4844668"><ele>0.0</ele><time>2026-03-22T16:50:52.705Z</time></trkpt><trkpt lat="45.6174435" lon="12.4843116"><ele>0.0</ele><time>2026-03-22T16:50:53.702Z</time></trkpt><trkpt lat="45.6175215" lon="12.4841561"><ele>0.0</ele><time>2026-03-22T16:50:54.714Z</time></trkpt><trkpt lat="45.617601" lon="12.483999"><ele>0.0</ele><time>2026-03-22T16:50:55.696Z</time></trkpt><trkpt lat="45.6176824" lon="12.4838406"><ele>0.0</ele><time>2026-03-22T16:50:56.701Z</time></trkpt><trkpt lat="45.617764" lon="12.4836814"><ele>0.0</ele><time>2026-03-22T16:50:57.696Z</time></trkpt><trkpt lat="45.6178525" lon="12.4835245"><ele>0.0</ele><time>2026-03-22T16:50:58.694Z</time></trkpt><trkpt lat="45.6179338" lon="12.4833591"><ele>0.0</ele><time>2026-03-22T16:50:59.706Z</time></trkpt><trkpt lat="45.6180157" lon="12.4831929"><ele>0.0</ele><time>2026-03-22T16:51:00.7Z</time></trkpt><trkpt lat="45.6181024" lon="12.4830287"><ele>0.25</ele><time>2026-03-22T16:51:01.693Z</time></trkpt><trkpt lat="45.6181831" lon="12.4828559"><ele>0.5</ele><time>2026-03-22T16:51:02.7Z</time></trkpt><trkpt lat="45.618268" lon="12.4826836"><ele>0.75</ele><time>2026-03-22T16:51:03.687Z</time></trkpt><trkpt lat="45.6183556" lon="12.4825115"><ele>1.0</ele><time>2026-03-22T16:51:04.703Z</time></trkpt><trkpt lat="45.6184489" lon="12.4823438"><ele>1.0</ele><time>2026-03-22T16:51:05.704Z</time></trkpt><trkpt lat="45.6185297" lon="12.4821676"><ele>1.0</ele><time>2026-03-22T16:51:06.696Z</time></trkpt><trkpt lat="45.6186116" lon="12.4819999"><ele>1.0</ele><time>2026-03-22T16:51:07.712Z</time></trkpt><trkpt lat="45.6186937" lon="12.4818366"><ele>1.0</ele><time>2026-03-22T16:51:08.708Z</time></trkpt><trkpt lat="45.6187777" lon="12.4816762"><ele>1.25</ele><time>2026-03-22T16:51:09.721Z</time></trkpt><trkpt lat="45.6188653" lon="12.4815184"><ele>1.5</ele><time>2026-03-22T16:51:10.709Z</time></trkpt><trkpt lat="45.6189488" lon="12.4813542"><ele>1.75</ele><time>2026-03-22T16:51:11.703Z</time></trkpt><trkpt lat="45.6190368" lon="12.4811882"><ele>2.0</ele><time>2026-03-22T16:51:12.689Z</time></trkpt><trkpt lat="45.6191236" lon="12.4810133"><ele>2.0</ele><time>2026-03-22T16:51:13.703Z</time></trkpt><trkpt lat="45.6192143" lon="12.4808362"><ele>2.0</ele><time>2026-03-22T16:51:14.702Z</time></trkpt><trkpt lat="45.6193038" lon="12.4806551"><ele>2.0</ele><time>2026-03-22T16:51:15.73Z</time></trkpt><trkpt lat="45.6193999" lon="12.4804774"><ele>1.3333333333333333</ele><time>2026-03-22T16:51:16.7Z</time></trkpt><trkpt lat="45.6194902" lon="12.4802933"><ele>0.6666666666666666</ele><time>2026-03-22T16:51:17.708Z</time></trkpt><trkpt lat="45.6195819" lon="12.4801121"><ele>0.0</ele><time>2026-03-22T16:51:18.713Z</time></trkpt><trkpt lat="45.6196728" lon="12.4799334"><ele>0.0</ele><time>2026-03-22T16:51:19.7Z</time></trkpt><trkpt lat="45.6197623" lon="12.4797599"><ele>0.0</ele><time>2026-03-22T16:51:20.709Z</time></trkpt><trkpt lat="45.6198493" lon="12.4795897"><ele>0.0</ele><time>2026-03-22T16:51:21.71Z</time></trkpt><trkpt lat="45.6199475" lon="12.4794305"><ele>0.0</ele><time>2026-03-22T16:51:22.694Z</time></trkpt><trkpt lat="45.6200351" lon="12.4792591"><ele>0.3333333333333333</ele><time>2026-03-22T16:51:23.711Z</time></trkpt><trkpt lat="45.6201291" lon="12.479091"><ele>0.6666666666666666</ele><time>2026-03-22T16:51:24.701Z</time></trkpt><trkpt lat="45.6202236" lon="12.4789176"><ele>1.0</ele><time>2026-03-22T16:51:25.703Z</time></trkpt><trkpt lat="45.6203119" lon="12.4787335"><ele>1.6666666666666665</ele><time>2026-03-22T16:51:26.7Z</time></trkpt><trkpt lat="45.6204107" lon="12.4785565"><ele>2.3333333333333335</ele><time>2026-03-22T16:51:27.701Z</time></trkpt><trkpt lat="45.6205068" lon="12.4783758"><ele>3.0</ele><time>2026-03-22T16:51:28.692Z</time></trkpt><trkpt lat="45.6205988" lon="12.4781914"><ele>3.0</ele><time>2026-03-22T16:51:29.701Z</time></trkpt><trkpt lat="45.6206943" lon="12.4780103"><ele>3.0</ele><time>2026-03-22T16:51:30.716Z</time></trkpt><trkpt lat="45.6207896" lon="12.4778292"><ele>3.0</ele><time>2026-03-22T16:51:31.725Z</time></trkpt><trkpt lat="45.620886" lon="12.4776476"><ele>2.3333333333333335</ele><time>2026-03-22T16:51:32.702Z</time></trkpt><trkpt lat="45.6209839" lon="12.477464"><ele>1.6666666666666665</ele><time>2026-03-22T16:51:33.704Z</time></trkpt><trkpt lat="45.6210806" lon="12.4772771"><ele>1.0</ele><time>2026-03-22T16:51:34.71Z</time></trkpt><trkpt lat="45.6211677" lon="12.4770788"><ele>0.3333333333333333</ele><time>2026-03-22T16:51:35.701Z</time></trkpt><trkpt lat="45.6212629" lon="12.4768857"><ele>-0.3333333333333333</ele><time>2026-03-22T16:51:36.71Z</time></trkpt><trkpt lat="45.6213538" lon="12.476687"><ele>-1.0</ele><time>2026-03-22T16:51:37.712Z</time></trkpt><trkpt lat="45.6214504" lon="12.4764939"><ele>-1.0</ele><time>2026-03-22T16:51:38.717Z</time></trkpt><trkpt lat="45.621547" lon="12.4763029"><ele>-1.0</ele><time>2026-03-22T16:51:39.695Z</time></trkpt><trkpt lat="45.6216437" lon="12.4761128"><ele>-1.0</ele><time>2026-03-22T16:51:40.696Z</time></trkpt><trkpt lat="45.6217421" lon="12.4759211"><ele>-1.0</ele><time>2026-03-22T16:51:41.712Z</time></trkpt><trkpt lat="45.6218403" lon="12.475727"><ele>-1.0</ele><time>2026-03-22T16:51:42.701Z</time></trkpt><trkpt lat="45.6219402" lon="12.4755334"><ele>-1.0</ele><time>2026-03-22T16:51:43.708Z</time></trkpt><trkpt lat="45.6220406" lon="12.4753402"><ele>-0.6666666666666666</ele><time>2026-03-22T16:51:44.692Z</time></trkpt><trkpt lat="45.6221402" lon="12.4751481"><ele>-0.3333333333333333</ele><time>2026-03-22T16:51:45.703Z</time></trkpt><trkpt lat="45.6222382" lon="12.4749558"><ele>0.0</ele><time>2026-03-22T16:51:46.705Z</time></trkpt><trkpt lat="45.6223356" lon="12.4747647"><ele>0.6666666666666666</ele><time>2026-03-22T16:51:47.736Z</time></trkpt><trkpt lat="45.6224329" lon="12.474576"><ele>1.3333333333333333</ele><time>2026-03-22T16:51:48.731Z</time></trkpt><trkpt lat="45.6225295" lon="12.4743896"><ele>2.0</ele><time>2026-03-22T16:51:49.697Z</time></trkpt><trkpt lat="45.6226251" lon="12.4742049"><ele>2.0</ele><time>2026-03-22T16:51:50.708Z</time></trkpt><trkpt lat="45.6227211" lon="12.4740223"><ele>2.0</ele><time>2026-03-22T16:51:51.707Z</time></trkpt><trkpt lat="45.6228185" lon="12.4738422"><ele>2.0</ele><time>2026-03-22T16:51:52.723Z</time></trkpt><trkpt lat="45.6229148" lon="12.4736622"><ele>1.0</ele><time>2026-03-22T16:51:53.721Z</time></trkpt><trkpt lat="45.6230085" lon="12.473481"><ele>0.0</ele><time>2026-03-22T16:51:54.705Z</time></trkpt><trkpt lat="45.6231016" lon="12.4732993"><ele>-1.0</ele><time>2026-03-22T16:51:55.702Z</time></trkpt><trkpt lat="45.6231946" lon="12.4731146"><ele>-0.6666666666666666</ele><time>2026-03-22T16:51:56.717Z</time></trkpt><trkpt lat="45.6232877" lon="12.4729275"><ele>-0.3333333333333333</ele><time>2026-03-22T16:51:57.703Z</time></trkpt><trkpt lat="45.6233823" lon="12.4727405"><ele>0.0</ele><time>2026-03-22T16:51:58.704Z</time></trkpt><trkpt lat="45.6234774" lon="12.4725534"><ele>0.0</ele><time>2026-03-22T16:51:59.71Z</time></trkpt><trkpt lat="45.6235724" lon="12.472368"><ele>0.0</ele><time>2026-03-22T16:52:00.702Z</time></trkpt><trkpt lat="45.6236666" lon="12.4721853"><ele>0.0</ele><time>2026-03-22T16:52:01.71Z</time></trkpt><trkpt lat="45.6237625" lon="12.4720073"><ele>0.3333333333333333</ele><time>2026-03-22T16:52:02.7Z</time></trkpt><trkpt lat="45.6238574" lon="12.4718292"><ele>0.6666666666666666</ele><time>2026-03-22T16:52:03.716Z</time></trkpt><trkpt lat="45.6239481" lon="12.4716494"><ele>1.0</ele><time>2026-03-22T16:52:04.699Z</time></trkpt><trkpt lat="45.6240384" lon="12.4714727"><ele>1.0</ele><time>2026-03-22T16:52:05.704Z</time></trkpt><trkpt lat="45.6241303" lon="12.4712988"><ele>1.0</ele><time>2026-03-22T16:52:06.697Z</time></trkpt><trkpt lat="45.6242206" lon="12.471123"><ele>1.0</ele><time>2026-03-22T16:52:07.706Z</time></trkpt><trkpt lat="45.6243093" lon="12.470945"><ele>1.0</ele><time>2026-03-22T16:52:08.704Z</time></trkpt><trkpt lat="45.6244006" lon="12.4707682"><ele>1.0</ele><time>2026-03-22T16:52:09.701Z</time></trkpt><trkpt lat="45.6244919" lon="12.4705904"><ele>1.0</ele><time>2026-03-22T16:52:10.703Z</time></trkpt><trkpt lat="45.6245837" lon="12.4704125"><ele>0.6666666666666666</ele><time>2026-03-22T16:52:11.704Z</time></trkpt><trkpt lat="45.6246763" lon="12.4702328"><ele>0.3333333333333333</ele><time>2026-03-22T16:52:12.704Z</time></trkpt><trkpt lat="45.6247699" lon="12.4700516"><ele>0.0</ele><time>2026-03-22T16:52:13.707Z</time></trkpt><trkpt lat="45.6248634" lon="12.4698699"><ele>0.0</ele><time>2026-03-22T16:52:14.706Z</time></trkpt><trkpt lat="45.6249578" lon="12.4696902"><ele>0.0</ele><time>2026-03-22T16:52:15.714Z</time></trkpt><trkpt lat="45.6250516" lon="12.4695132"><ele>0.0</ele><time>2026-03-22T16:52:16.7Z</time></trkpt><trkpt lat="45.6251427" lon="12.4693372"><ele>0.0</ele><time>2026-03-22T16:52:17.701Z</time></trkpt><trkpt lat="45.6252314" lon="12.4691607"><ele>0.0</ele><time>2026-03-22T16:52:18.707Z</time></trkpt><trkpt lat="45.6253213" lon="12.4689852"><ele>0.0</ele><time>2026-03-22T16:52:19.699Z</time></trkpt><trkpt lat="45.6254112" lon="12.4688096"><ele>1.0</ele><time>2026-03-22T16:52:20.71Z</time></trkpt><trkpt lat="45.6255006" lon="12.4686332"><ele>2.0</ele><time>2026-03-22T16:52:21.702Z</time></trkpt><trkpt lat="45.6255914" lon="12.4684572"><ele>3.0</ele><time>2026-03-22T16:52:22.706Z</time></trkpt><trkpt lat="45.625684" lon="12.4682813"><ele>3.0</ele><time>2026-03-22T16:52:23.703Z</time></trkpt><trkpt lat="45.6257786" lon="12.4681028"><ele>3.0</ele><time>2026-03-22T16:52:24.705Z</time></trkpt><trkpt lat="45.6258739" lon="12.4679205"><ele>3.0</ele><time>2026-03-22T16:52:25.702Z</time></trkpt><trkpt lat="45.6259669" lon="12.4677328"><ele>2.6666666666666665</ele><time>2026-03-22T16:52:26.706Z</time></trkpt><trkpt lat="45.6260611" lon="12.4675435"><ele>2.333333333333333</ele><time>2026-03-22T16:52:27.717Z</time></trkpt><trkpt lat="45.6261555" lon="12.4673529"><ele>2.0</ele><time>2026-03-22T16:52:28.709Z</time></trkpt><trkpt lat="45.6262521" lon="12.4671637"><ele>2.0</ele><time>2026-03-22T16:52:29.708Z</time></trkpt><trkpt lat="45.6263501" lon="12.4669762"><ele>2.0</ele><time>2026-03-22T16:52:30.716Z</time></trkpt><trkpt lat="45.6264481" lon="12.4667892"><ele>2.0</ele><time>2026-03-22T16:52:31.731Z</time></trkpt><trkpt lat="45.6265433" lon="12.4665997"><ele>2.0</ele><time>2026-03-22T16:52:32.693Z</time></trkpt><trkpt lat="45.6266384" lon="12.4664126"><ele>2.0</ele><time>2026-03-22T16:52:33.71Z</time></trkpt><trkpt lat="45.6267281" lon="12.4662262"><ele>2.0</ele><time>2026-03-22T16:52:34.701Z</time></trkpt><trkpt lat="45.626814" lon="12.4660445"><ele>2.0</ele><time>2026-03-22T16:52:35.701Z</time></trkpt><trkpt lat="45.6268948" lon="12.4658699"><ele>2.0</ele><time>2026-03-22T16:52:36.7Z</time></trkpt><trkpt lat="45.6269691" lon="12.465702"><ele>2.0</ele><time>2026-03-22T16:52:37.706Z</time></trkpt><trkpt lat="45.6270392" lon="12.4655387"><ele>2.0</ele><time>2026-03-22T16:52:38.722Z</time></trkpt><trkpt lat="45.6271064" lon="12.4653817"><ele>2.0</ele><time>2026-03-22T16:52:39.706Z</time></trkpt><trkpt lat="45.6271672" lon="12.4652311"><ele>2.0</ele><time>2026-03-22T16:52:40.716Z</time></trkpt><trkpt lat="45.6272227" lon="12.4650869"><ele>2.0</ele><time>2026-03-22T16:52:41.729Z</time></trkpt><trkpt lat="45.6272735" lon="12.464947"><ele>2.0</ele><time>2026-03-22T16:52:42.7Z</time></trkpt><trkpt lat="45.6273193" lon="12.4648133"><ele>1.9999999999999998</ele><time>2026-03-22T16:52:43.71Z</time></trkpt><trkpt lat="45.6273592" lon="12.4646925"><ele>2.0</ele><time>2026-03-22T16:52:44.723Z</time></trkpt><trkpt lat="45.6273912" lon="12.464581"><ele>2.0</ele><time>2026-03-22T16:52:45.708Z</time></trkpt><trkpt lat="45.6274218" lon="12.4644858"><ele>2.0</ele><time>2026-03-22T16:52:46.702Z</time></trkpt><trkpt lat="45.6274601" lon="12.4643872"><ele>1.9999999999999998</ele><time>2026-03-22T16:52:48.716Z</time></trkpt><trkpt lat="45.6275053" lon="12.4643138"><ele>2.0</ele><time>2026-03-22T16:52:51.727Z</time></trkpt><trkpt lat="45.6275758" lon="12.46424"><ele>2.2</ele><time>2026-03-22T16:52:53.702Z</time></trkpt><trkpt lat="45.6276422" lon="12.4640905"><ele>2.4000000000000004</ele><time>2026-03-22T16:52:55.702Z</time></trkpt><trkpt lat="45.6276696" lon="12.4639955"><ele>2.5999999999999996</ele><time>2026-03-22T16:52:56.704Z</time></trkpt><trkpt lat="45.6276717" lon="12.463881"><ele>2.8</ele><time>2026-03-22T16:52:57.697Z</time></trkpt><trkpt lat="45.6276652" lon="12.4637589"><ele>3.0</ele><time>2026-03-22T16:52:58.702Z</time></trkpt><trkpt lat="45.6276704" lon="12.4636222"><ele>3.25</ele><time>2026-03-22T16:52:59.718Z</time></trkpt><trkpt lat="45.6276909" lon="12.4634744"><ele>3.5</ele><time>2026-03-22T16:53:00.715Z</time></trkpt><trkpt lat="45.6277166" lon="12.4633171"><ele>3.75</ele><time>2026-03-22T16:53:01.718Z</time></trkpt><trkpt lat="45.6277316" lon="12.4631437"><ele>4.0</ele><time>2026-03-22T16:53:02.698Z</time></trkpt><trkpt lat="45.6277594" lon="12.462968"><ele>3.75</ele><time>2026-03-22T16:53:03.705Z</time></trkpt><trkpt lat="45.6277895" lon="12.4627837"><ele>3.5</ele><time>2026-03-22T16:53:04.713Z</time></trkpt><trkpt lat="45.6278266" lon="12.4625913"><ele>3.25</ele><time>2026-03-22T16:53:05.719Z</time></trkpt><trkpt lat="45.6278571" lon="12.4623856"><ele>3.0</ele><time>2026-03-22T16:53:06.724Z</time></trkpt><trkpt lat="45.627885" lon="12.4621731"><ele>2.3333333333333335</ele><time>2026-03-22T16:53:07.715Z</time></trkpt><trkpt lat="45.6279181" lon="12.4619582"><ele>1.6666666666666665</ele><time>2026-03-22T16:53:08.721Z</time></trkpt><trkpt lat="45.6279454" lon="12.4617391"><ele>1.0</ele><time>2026-03-22T16:53:09.706Z</time></trkpt><trkpt lat="45.627966" lon="12.4615133"><ele>1.0</ele><time>2026-03-22T16:53:10.715Z</time></trkpt><trkpt lat="45.6279892" lon="12.4612846"><ele>1.0</ele><time>2026-03-22T16:53:11.703Z</time></trkpt><trkpt lat="45.6280103" lon="12.4610522"><ele>1.0</ele><time>2026-03-22T16:53:12.707Z</time></trkpt><trkpt lat="45.6280372" lon="12.4608189"><ele>1.3333333333333333</ele><time>2026-03-22T16:53:13.721Z</time></trkpt><trkpt lat="45.6280486" lon="12.460578"><ele>1.6666666666666665</ele><time>2026-03-22T16:53:14.72Z</time></trkpt><trkpt lat="45.6280601" lon="12.460333"><ele>2.0</ele><time>2026-03-22T16:53:15.713Z</time></trkpt><trkpt lat="45.6280727" lon="12.4600843"><ele>2.0</ele><time>2026-03-22T16:53:16.707Z</time></trkpt><trkpt lat="45.6280792" lon="12.459833"><ele>2.0</ele><time>2026-03-22T16:53:17.729Z</time></trkpt><trkpt lat="45.6280873" lon="12.4595796"><ele>2.0</ele><time>2026-03-22T16:53:18.711Z</time></trkpt><trkpt lat="45.6280885" lon="12.4593234"><ele>2.0</ele><time>2026-03-22T16:53:19.716Z</time></trkpt><trkpt lat="45.6280847" lon="12.4590637"><ele>2.0</ele><time>2026-03-22T16:53:20.717Z</time></trkpt><trkpt lat="45.6280804" lon="12.4587932"><ele>2.0</ele><time>2026-03-22T16:53:21.71Z</time></trkpt><trkpt lat="45.6280666" lon="12.458497"><ele>2.0</ele><time>2026-03-22T16:53:22.696Z</time></trkpt><trkpt lat="45.6280453" lon="12.4581616"><ele>2.0</ele><time>2026-03-22T16:53:23.706Z</time></trkpt><trkpt lat="45.628024" lon="12.4577811"><ele>2.0</ele><time>2026-03-22T16:53:24.699Z</time></trkpt><trkpt lat="45.627998" lon="12.45737"><ele>2.0</ele><time>2026-03-22T16:53:25.703Z</time></trkpt><trkpt lat="45.6279767" lon="12.4569577"><ele>1.5</ele><time>2026-03-22T16:53:26.708Z</time></trkpt><trkpt lat="45.6279541" lon="12.456564"><ele>1.0</ele><time>2026-03-22T16:53:27.71Z</time></trkpt><trkpt lat="45.6279421" lon="12.4561938"><ele>1.0</ele><time>2026-03-22T16:53:28.694Z</time></trkpt><trkpt lat="45.6279358" lon="12.4558379"><ele>1.0</ele><time>2026-03-22T16:53:29.714Z</time></trkpt><trkpt lat="45.6279255" lon="12.4554873"><ele>0.5</ele><time>2026-03-22T16:53:30.699Z</time></trkpt><trkpt lat="45.6279122" lon="12.4551473"><ele>0.0</ele><time>2026-03-22T16:53:31.703Z</time></trkpt><trkpt lat="45.6279064" lon="12.4548239"><ele>0.3333333333333333</ele><time>2026-03-22T16:53:32.706Z</time></trkpt><trkpt lat="45.6279089" lon="12.4545122"><ele>0.6666666666666666</ele><time>2026-03-22T16:53:33.716Z</time></trkpt><trkpt lat="45.6279173" lon="12.4542102"><ele>1.0</ele><time>2026-03-22T16:53:34.725Z</time></trkpt><trkpt lat="45.6279308" lon="12.4539153"><ele>1.0</ele><time>2026-03-22T16:53:35.708Z</time></trkpt><trkpt lat="45.6279487" lon="12.4536255"><ele>1.0</ele><time>2026-03-22T16:53:36.696Z</time></trkpt><trkpt lat="45.6279727" lon="12.4533409"><ele>1.0</ele><time>2026-03-22T16:53:37.702Z</time></trkpt><trkpt lat="45.6280031" lon="12.4530585"><ele>1.0</ele><time>2026-03-22T16:53:38.697Z</time></trkpt><trkpt lat="45.6280362" lon="12.452775"><ele>1.0</ele><time>2026-03-22T16:53:39.699Z</time></trkpt><trkpt lat="45.6280734" lon="12.4524893"><ele>1.0</ele><time>2026-03-22T16:53:40.712Z</time></trkpt><trkpt lat="45.6281123" lon="12.452204"><ele>1.3333333333333333</ele><time>2026-03-22T16:53:41.726Z</time></trkpt><trkpt lat="45.6281506" lon="12.4519217"><ele>1.6666666666666665</ele><time>2026-03-22T16:53:42.738Z</time></trkpt><trkpt lat="45.6281875" lon="12.4516462"><ele>2.0</ele><time>2026-03-22T16:53:43.702Z</time></trkpt><trkpt lat="45.6282157" lon="12.4513829"><ele>1.6666666666666665</ele><time>2026-03-22T16:53:44.704Z</time></trkpt><trkpt lat="45.6282479" lon="12.4511375"><ele>1.3333333333333333</ele><time>2026-03-22T16:53:45.698Z</time></trkpt><trkpt lat="45.6282781" lon="12.4509101"><ele>1.0</ele><time>2026-03-22T16:53:46.704Z</time></trkpt><trkpt lat="45.6283073" lon="12.4507002"><ele>1.0</ele><time>2026-03-22T16:53:47.706Z</time></trkpt><trkpt lat="45.6283342" lon="12.4505098"><ele>1.0</ele><time>2026-03-22T16:53:48.71Z</time></trkpt><trkpt lat="45.6283615" lon="12.4503402"><ele>1.0</ele><time>2026-03-22T16:53:49.692Z</time></trkpt><trkpt lat="45.6283901" lon="12.4502013"><ele>1.0</ele><time>2026-03-22T16:53:50.698Z</time></trkpt><trkpt lat="45.6284132" lon="12.4501153"><ele>1.0</ele><time>2026-03-22T16:53:51.708Z</time></trkpt><trkpt lat="45.6284518" lon="12.4499761"><ele>1.2000000000000002</ele><time>2026-03-22T16:53:56.688Z</time></trkpt><trkpt lat="45.6284967" lon="12.4498987"><ele>1.4000000000000001</ele><time>2026-03-22T16:53:58.699Z</time></trkpt><trkpt lat="45.6285679" lon="12.4497624"><ele>1.6</ele><time>2026-03-22T16:54:00.695Z</time></trkpt><trkpt lat="45.6285935" lon="12.4496571"><ele>1.8</ele><time>2026-03-22T16:54:01.699Z</time></trkpt><trkpt lat="45.6286179" lon="12.4495364"><ele>2.0</ele><time>2026-03-22T16:54:02.699Z</time></trkpt><trkpt lat="45.6286332" lon="12.4494024"><ele>2.2</ele><time>2026-03-22T16:54:03.703Z</time></trkpt><trkpt lat="45.628679" lon="12.4492717"><ele>2.4000000000000004</ele><time>2026-03-22T16:54:04.696Z</time></trkpt><trkpt lat="45.6287258" lon="12.4491395"><ele>2.5999999999999996</ele><time>2026-03-22T16:54:05.716Z</time></trkpt><trkpt lat="45.6287816" lon="12.4490123"><ele>2.8</ele><time>2026-03-22T16:54:06.697Z</time></trkpt><trkpt lat="45.6288427" lon="12.4488813"><ele>3.0</ele><time>2026-03-22T16:54:07.715Z</time></trkpt><trkpt lat="45.6289113" lon="12.4487481"><ele>3.0</ele><time>2026-03-22T16:54:08.698Z</time></trkpt><trkpt lat="45.6289855" lon="12.4486155"><ele>3.0</ele><time>2026-03-22T16:54:09.707Z</time></trkpt><trkpt lat="45.6290714" lon="12.4484705"><ele>3.0</ele><time>2026-03-22T16:54:10.701Z</time></trkpt><trkpt lat="45.6291646" lon="12.448312"><ele>3.0</ele><time>2026-03-22T16:54:11.701Z</time></trkpt><trkpt lat="45.6292639" lon="12.4481647"><ele>3.0</ele><time>2026-03-22T16:54:12.72Z</time></trkpt><trkpt lat="45.629358" lon="12.4480278"><ele>3.0</ele><time>2026-03-22T16:54:13.708Z</time></trkpt><trkpt lat="45.6294431" lon="12.4479032"><ele>3.0</ele><time>2026-03-22T16:54:14.712Z</time></trkpt><trkpt lat="45.6295303" lon="12.4477882"><ele>3.0</ele><time>2026-03-22T16:54:15.708Z</time></trkpt><trkpt lat="45.6296188" lon="12.4476736"><ele>3.25</ele><time>2026-03-22T16:54:16.699Z</time></trkpt><trkpt lat="45.6297084" lon="12.4475565"><ele>3.5</ele><time>2026-03-22T16:54:17.695Z</time></trkpt><trkpt lat="45.6297971" lon="12.4474416"><ele>3.75</ele><time>2026-03-22T16:54:18.7Z</time></trkpt><trkpt lat="45.6298834" lon="12.4473312"><ele>4.0</ele><time>2026-03-22T16:54:19.7Z</time></trkpt><trkpt lat="45.6299692" lon="12.447224"><ele>4.0</ele><time>2026-03-22T16:54:20.711Z</time></trkpt><trkpt lat="45.6300567" lon="12.4471165"><ele>4.0</ele><time>2026-03-22T16:54:21.697Z</time></trkpt><trkpt lat="45.6301455" lon="12.4470076"><ele>4.0</ele><time>2026-03-22T16:54:22.688Z</time></trkpt><trkpt lat="45.6302381" lon="12.4468907"><ele>4.0</ele><time>2026-03-22T16:54:23.705Z</time></trkpt><trkpt lat="45.630342" lon="12.4467795"><ele>3.75</ele><time>2026-03-22T16:54:24.704Z</time></trkpt><trkpt lat="45.6304438" lon="12.4466601"><ele>3.5</ele><time>2026-03-22T16:54:25.703Z</time></trkpt><trkpt lat="45.6305454" lon="12.446539"><ele>3.25</ele><time>2026-03-22T16:54:26.713Z</time></trkpt><trkpt lat="45.6306538" lon="12.44642"><ele>3.0</ele><time>2026-03-22T16:54:27.715Z</time></trkpt><trkpt lat="45.6307585" lon="12.4462903"><ele>3.0</ele><time>2026-03-22T16:54:28.7Z</time></trkpt><trkpt lat="45.6308608" lon="12.4461612"><ele>3.0</ele><time>2026-03-22T16:54:29.705Z</time></trkpt><trkpt lat="45.6309567" lon="12.4460319"><ele>3.0</ele><time>2026-03-22T16:54:30.695Z</time></trkpt><trkpt lat="45.6310527" lon="12.4459084"><ele>3.0</ele><time>2026-03-22T16:54:31.705Z</time></trkpt><trkpt lat="45.6311457" lon="12.4457803"><ele>3.0</ele><time>2026-03-22T16:54:32.704Z</time></trkpt><trkpt lat="45.6312399" lon="12.4456476"><ele>3.0</ele><time>2026-03-22T16:54:33.701Z</time></trkpt><trkpt lat="45.6313351" lon="12.4455083"><ele>3.0</ele><time>2026-03-22T16:54:34.718Z</time></trkpt><trkpt lat="45.6314319" lon="12.4453679"><ele>3.0</ele><time>2026-03-22T16:54:35.707Z</time></trkpt><trkpt lat="45.6315232" lon="12.4452211"><ele>3.0</ele><time>2026-03-22T16:54:36.723Z</time></trkpt><trkpt lat="45.6316137" lon="12.4450793"><ele>3.0</ele><time>2026-03-22T16:54:37.715Z</time></trkpt><trkpt lat="45.6317056" lon="12.4449465"><ele>3.0</ele><time>2026-03-22T16:54:38.698Z</time></trkpt><trkpt lat="45.6317898" lon="12.4448066"><ele>3.0</ele><time>2026-03-22T16:54:39.712Z</time></trkpt><trkpt lat="45.6318762" lon="12.4446753"><ele>3.0</ele><time>2026-03-22T16:54:40.703Z</time></trkpt><trkpt lat="45.6319558" lon="12.4445526"><ele>3.0</ele><time>2026-03-22T16:54:41.701Z</time></trkpt><trkpt lat="45.6320276" lon="12.444427"><ele>3.0</ele><time>2026-03-22T16:54:42.727Z</time></trkpt><trkpt lat="45.6321133" lon="12.4442846"><ele>3.0</ele><time>2026-03-22T16:54:43.716Z</time></trkpt><trkpt lat="45.6322142" lon="12.4441224"><ele>3.333333333333333</ele><time>2026-03-22T16:54:44.703Z</time></trkpt><trkpt lat="45.6323237" lon="12.4439582"><ele>3.6666666666666665</ele><time>2026-03-22T16:54:45.707Z</time></trkpt><trkpt lat="45.6324306" lon="12.4437904"><ele>4.0</ele><time>2026-03-22T16:54:46.705Z</time></trkpt><trkpt lat="45.6325386" lon="12.4436168"><ele>3.6666666666666665</ele><time>2026-03-22T16:54:47.712Z</time></trkpt><trkpt lat="45.632644" lon="12.4434282"><ele>3.333333333333333</ele><time>2026-03-22T16:54:48.697Z</time></trkpt><trkpt lat="45.6327724" lon="12.443258"><ele>3.0</ele><time>2026-03-22T16:54:49.695Z</time></trkpt><trkpt lat="45.6328987" lon="12.4430769"><ele>2.3333333333333335</ele><time>2026-03-22T16:54:50.711Z</time></trkpt><trkpt lat="45.6330223" lon="12.442883"><ele>1.6666666666666665</ele><time>2026-03-22T16:54:51.708Z</time></trkpt><trkpt lat="45.6331474" lon="12.4426883"><ele>1.0</ele><time>2026-03-22T16:54:52.699Z</time></trkpt><trkpt lat="45.6332657" lon="12.4424863"><ele>1.0</ele><time>2026-03-22T16:54:53.703Z</time></trkpt><trkpt lat="45.6333811" lon="12.4422843"><ele>1.0</ele><time>2026-03-22T16:54:54.698Z</time></trkpt><trkpt lat="45.6334873" lon="12.4420781"><ele>1.0</ele><time>2026-03-22T16:54:55.709Z</time></trkpt><trkpt lat="45.6335797" lon="12.4418609"><ele>1.3333333333333333</ele><time>2026-03-22T16:54:56.694Z</time></trkpt><trkpt lat="45.6336762" lon="12.4416473"><ele>1.6666666666666665</ele><time>2026-03-22T16:54:57.701Z</time></trkpt><trkpt lat="45.6337706" lon="12.4414275"><ele>2.0</ele><time>2026-03-22T16:54:58.704Z</time></trkpt><trkpt lat="45.6338746" lon="12.4412067"><ele>2.0</ele><time>2026-03-22T16:54:59.704Z</time></trkpt><trkpt lat="45.633976" lon="12.4409781"><ele>2.0</ele><time>2026-03-22T16:55:00.695Z</time></trkpt><trkpt lat="45.634091" lon="12.4407575"><ele>2.0</ele><time>2026-03-22T16:55:01.703Z</time></trkpt><trkpt lat="45.6341951" lon="12.4405217"><ele>2.0</ele><time>2026-03-22T16:55:02.71Z</time></trkpt><trkpt lat="45.6342954" lon="12.4402777"><ele>2.0</ele><time>2026-03-22T16:55:03.695Z</time></trkpt><trkpt lat="45.6343856" lon="12.440021"><ele>2.0</ele><time>2026-03-22T16:55:04.7Z</time></trkpt><trkpt lat="45.6344704" lon="12.4397595"><ele>2.0</ele><time>2026-03-22T16:55:05.706Z</time></trkpt><trkpt lat="45.6345494" lon="12.4395033"><ele>2.0</ele><time>2026-03-22T16:55:06.703Z</time></trkpt><trkpt lat="45.6346176" lon="12.4392564"><ele>2.0</ele><time>2026-03-22T16:55:07.723Z</time></trkpt><trkpt lat="45.6346817" lon="12.4390219"><ele>1.3333333333333333</ele><time>2026-03-22T16:55:08.72Z</time></trkpt><trkpt lat="45.6347371" lon="12.4387982"><ele>0.6666666666666666</ele><time>2026-03-22T16:55:09.7Z</time></trkpt><trkpt lat="45.63479" lon="12.43859"><ele>0.0</ele><time>2026-03-22T16:55:10.709Z</time></trkpt><trkpt lat="45.6348386" lon="12.4383922"><ele>0.0</ele><time>2026-03-22T16:55:11.702Z</time></trkpt><trkpt lat="45.6348854" lon="12.4382098"><ele>0.0</ele><time>2026-03-22T16:55:12.701Z</time></trkpt><trkpt lat="45.6349281" lon="12.4380465"><ele>0.0</ele><time>2026-03-22T16:55:13.716Z</time></trkpt><trkpt lat="45.6349639" lon="12.4379017"><ele>0.0</ele><time>2026-03-22T16:55:14.697Z</time></trkpt><trkpt lat="45.6349994" lon="12.4377708"><ele>-0.16666666666666666</ele><time>2026-03-22T16:55:15.699Z</time></trkpt><trkpt lat="45.6350493" lon="12.4376549"><ele>-0.3333333333333333</ele><time>2026-03-22T16:55:16.704Z</time></trkpt><trkpt lat="45.6351108" lon="12.4375558"><ele>-0.5</ele><time>2026-03-22T16:55:17.706Z</time></trkpt><trkpt lat="45.6351933" lon="12.4375084"><ele>-0.6666666666666666</ele><time>2026-03-22T16:55:18.699Z</time></trkpt><trkpt lat="45.6352688" lon="12.4374606"><ele>-0.8333333333333333</ele><time>2026-03-22T16:55:19.72Z</time></trkpt><trkpt lat="45.6353306" lon="12.4373886"><ele>-1.0</ele><time>2026-03-22T16:55:20.711Z</time></trkpt><trkpt lat="45.6353807" lon="12.4373086"><ele>-0.9999999999999999</ele><time>2026-03-22T16:55:21.696Z</time></trkpt><trkpt lat="45.6354225" lon="12.4372225"><ele>-1.0</ele><time>2026-03-22T16:55:22.71Z</time></trkpt><trkpt lat="45.6354536" lon="12.4371214"><ele>-1.0</ele><time>2026-03-22T16:55:23.703Z</time></trkpt><trkpt lat="45.6354656" lon="12.4370075"><ele>-1.0</ele><time>2026-03-22T16:55:24.71Z</time></trkpt><trkpt lat="45.6354552" lon="12.4368904"><ele>-0.9999999999999999</ele><time>2026-03-22T16:55:25.711Z</time></trkpt><trkpt lat="45.6354258" lon="12.4367756"><ele>-1.0</ele><time>2026-03-22T16:55:26.691Z</time></trkpt><trkpt lat="45.6353904" lon="12.4366683"><ele>-0.6666666666666666</ele><time>2026-03-22T16:55:27.712Z</time></trkpt><trkpt lat="45.6353566" lon="12.4365712"><ele>-0.3333333333333333</ele><time>2026-03-22T16:55:28.695Z</time></trkpt><trkpt lat="45.6353202" lon="12.4364827"><ele>0.0</ele><time>2026-03-22T16:55:29.7Z</time></trkpt><trkpt lat="45.6353002" lon="12.4363843"><ele>0.3333333333333333</ele><time>2026-03-22T16:55:30.691Z</time></trkpt><trkpt lat="45.635285" lon="12.4362781"><ele>0.6666666666666666</ele><time>2026-03-22T16:55:31.703Z</time></trkpt><trkpt lat="45.6352745" lon="12.436169"><ele>1.0</ele><time>2026-03-22T16:55:32.702Z</time></trkpt><trkpt lat="45.6352735" lon="12.4360545"><ele>1.2000000000000002</ele><time>2026-03-22T16:55:33.693Z</time></trkpt><trkpt lat="45.6352832" lon="12.4359299"><ele>1.4000000000000001</ele><time>2026-03-22T16:55:34.693Z</time></trkpt><trkpt lat="45.6352852" lon="12.4357977"><ele>1.6</ele><time>2026-03-22T16:55:35.691Z</time></trkpt><trkpt lat="45.6352942" lon="12.4356655"><ele>1.8</ele><time>2026-03-22T16:55:36.713Z</time></trkpt><trkpt lat="45.635305" lon="12.4355327"><ele>2.0</ele><time>2026-03-22T16:55:37.699Z</time></trkpt><trkpt lat="45.6353167" lon="12.4353969"><ele>1.4000000000000001</ele><time>2026-03-22T16:55:38.705Z</time></trkpt><trkpt lat="45.635336" lon="12.435258"><ele>0.8000000000000002</ele><time>2026-03-22T16:55:39.693Z</time></trkpt><trkpt lat="45.6353431" lon="12.4351142"><ele>0.19999999999999996</ele><time>2026-03-22T16:55:40.708Z</time></trkpt><trkpt lat="45.6353492" lon="12.434969"><ele>-0.4</ele><time>2026-03-22T16:55:41.696Z</time></trkpt><trkpt lat="45.6353575" lon="12.4348164"><ele>-1.0</ele><time>2026-03-22T16:55:42.702Z</time></trkpt><trkpt lat="45.6353655" lon="12.4346558"><ele>-1.0</ele><time>2026-03-22T16:55:43.702Z</time></trkpt><trkpt lat="45.6353723" lon="12.4344943"><ele>-1.0</ele><time>2026-03-22T16:55:44.695Z</time></trkpt><trkpt lat="45.6353759" lon="12.4343334"><ele>-1.0</ele><time>2026-03-22T16:55:45.713Z</time></trkpt><trkpt lat="45.6353759" lon="12.4341704"><ele>-1.0</ele><time>2026-03-22T16:55:46.695Z</time></trkpt><trkpt lat="45.635376" lon="12.4340047"><ele>-1.0</ele><time>2026-03-22T16:55:47.698Z</time></trkpt><trkpt lat="45.6353731" lon="12.4338379"><ele>-1.0</ele><time>2026-03-22T16:55:48.698Z</time></trkpt><trkpt lat="45.6353689" lon="12.433672"><ele>-1.0</ele><time>2026-03-22T16:55:49.702Z</time></trkpt><trkpt lat="45.6353629" lon="12.4335073"><ele>-1.0</ele><time>2026-03-22T16:55:50.72Z</time></trkpt><trkpt lat="45.6353566" lon="12.433342"><ele>-1.0</ele><time>2026-03-22T16:55:51.711Z</time></trkpt><trkpt lat="45.6353493" lon="12.4331735"><ele>-1.0</ele><time>2026-03-22T16:55:52.696Z</time></trkpt><trkpt lat="45.6353447" lon="12.433"><ele>-1.0</ele><time>2026-03-22T16:55:53.695Z</time></trkpt><trkpt lat="45.6353366" lon="12.432823"><ele>-1.0</ele><time>2026-03-22T16:55:54.688Z</time></trkpt><trkpt lat="45.6353292" lon="12.4326448"><ele>-0.75</ele><time>2026-03-22T16:55:55.699Z</time></trkpt><trkpt lat="45.6353211" lon="12.432467"><ele>-0.5</ele><time>2026-03-22T16:55:56.703Z</time></trkpt><trkpt lat="45.6353047" lon="12.4322899"><ele>-0.25</ele><time>2026-03-22T16:55:57.717Z</time></trkpt><trkpt lat="45.6352931" lon="12.4321116"><ele>0.0</ele><time>2026-03-22T16:55:58.712Z</time></trkpt><trkpt lat="45.6352847" lon="12.4319294"><ele>0.25</ele><time>2026-03-22T16:55:59.702Z</time></trkpt><trkpt lat="45.6352795" lon="12.4317457"><ele>0.5</ele><time>2026-03-22T16:56:00.7Z</time></trkpt><trkpt lat="45.6352792" lon="12.431565"><ele>0.75</ele><time>2026-03-22T16:56:01.725Z</time></trkpt><trkpt lat="45.6352826" lon="12.4313883"><ele>1.0</ele><time>2026-03-22T16:56:02.721Z</time></trkpt><trkpt lat="45.6352856" lon="12.4312119"><ele>1.0</ele><time>2026-03-22T16:56:03.709Z</time></trkpt><trkpt lat="45.6352864" lon="12.4310346"><ele>1.0</ele><time>2026-03-22T16:56:04.71Z</time></trkpt><trkpt lat="45.6352862" lon="12.4308583"><ele>1.0</ele><time>2026-03-22T16:56:05.712Z</time></trkpt><trkpt lat="45.6352838" lon="12.4306769"><ele>1.0</ele><time>2026-03-22T16:56:06.699Z</time></trkpt><trkpt lat="45.6352763" lon="12.4304862"><ele>1.3333333333333333</ele><time>2026-03-22T16:56:07.714Z</time></trkpt><trkpt lat="45.635274" lon="12.4302834"><ele>1.6666666666666665</ele><time>2026-03-22T16:56:08.702Z</time></trkpt><trkpt lat="45.635273" lon="12.4300666"><ele>2.0</ele><time>2026-03-22T16:56:09.717Z</time></trkpt><trkpt lat="45.6352698" lon="12.429839"><ele>2.0</ele><time>2026-03-22T16:56:10.695Z</time></trkpt><trkpt lat="45.635265" lon="12.4295937"><ele>2.0</ele><time>2026-03-22T16:56:11.716Z</time></trkpt><trkpt lat="45.6352543" lon="12.4293324"><ele>2.0</ele><time>2026-03-22T16:56:12.728Z</time></trkpt><trkpt lat="45.6352476" lon="12.4290626"><ele>2.333333333333333</ele><time>2026-03-22T16:56:13.701Z</time></trkpt><trkpt lat="45.6352429" lon="12.4287873"><ele>2.6666666666666665</ele><time>2026-03-22T16:56:14.713Z</time></trkpt><trkpt lat="45.6352438" lon="12.428506"><ele>3.0</ele><time>2026-03-22T16:56:15.718Z</time></trkpt><trkpt lat="45.6352448" lon="12.4282192"><ele>2.6666666666666665</ele><time>2026-03-22T16:56:16.694Z</time></trkpt><trkpt lat="45.6352471" lon="12.4279284"><ele>2.333333333333333</ele><time>2026-03-22T16:56:17.709Z</time></trkpt><trkpt lat="45.6352496" lon="12.4276349"><ele>2.0</ele><time>2026-03-22T16:56:18.703Z</time></trkpt><trkpt lat="45.6352497" lon="12.4273413"><ele>2.333333333333333</ele><time>2026-03-22T16:56:19.714Z</time></trkpt><trkpt lat="45.6352469" lon="12.4270495"><ele>2.6666666666666665</ele><time>2026-03-22T16:56:20.712Z</time></trkpt><trkpt lat="45.6352424" lon="12.4267598"><ele>3.0</ele><time>2026-03-22T16:56:21.701Z</time></trkpt><trkpt lat="45.6352387" lon="12.426472"><ele>3.0</ele><time>2026-03-22T16:56:22.701Z</time></trkpt><trkpt lat="45.6352364" lon="12.426186"><ele>3.0</ele><time>2026-03-22T16:56:23.701Z</time></trkpt><trkpt lat="45.6352329" lon="12.4259008"><ele>3.0</ele><time>2026-03-22T16:56:24.698Z</time></trkpt><trkpt lat="45.635231" lon="12.4256159"><ele>3.333333333333333</ele><time>2026-03-22T16:56:25.703Z</time></trkpt><trkpt lat="45.6352288" lon="12.4253296"><ele>3.6666666666666665</ele><time>2026-03-22T16:56:26.715Z</time></trkpt><trkpt lat="45.6352299" lon="12.425042"><ele>4.0</ele><time>2026-03-22T16:56:27.72Z</time></trkpt><trkpt lat="45.6352278" lon="12.424753"><ele>3.6666666666666665</ele><time>2026-03-22T16:56:28.711Z</time></trkpt><trkpt lat="45.6352276" lon="12.4244622"><ele>3.333333333333333</ele><time>2026-03-22T16:56:29.713Z</time></trkpt><trkpt lat="45.6352291" lon="12.4241674"><ele>3.0</ele><time>2026-03-22T16:56:30.71Z</time></trkpt><trkpt lat="45.6352295" lon="12.4238655"><ele>3.0</ele><time>2026-03-22T16:56:31.71Z</time></trkpt><trkpt lat="45.6352314" lon="12.4235581"><ele>3.0</ele><time>2026-03-22T16:56:32.707Z</time></trkpt><trkpt lat="45.6352389" lon="12.423244"><ele>3.0</ele><time>2026-03-22T16:56:33.704Z</time></trkpt><trkpt lat="45.6352499" lon="12.4229247"><ele>3.0</ele><time>2026-03-22T16:56:34.705Z</time></trkpt><trkpt lat="45.6352608" lon="12.4226026"><ele>3.0</ele><time>2026-03-22T16:56:35.696Z</time></trkpt><trkpt lat="45.635289" lon="12.4222839"><ele>2.6666666666666665</ele><time>2026-03-22T16:56:36.722Z</time></trkpt><trkpt lat="45.635328" lon="12.4219707"><ele>2.333333333333333</ele><time>2026-03-22T16:56:37.716Z</time></trkpt><trkpt lat="45.6353725" lon="12.42166"><ele>2.0</ele><time>2026-03-22T16:56:38.711Z</time></trkpt><trkpt lat="45.6354188" lon="12.421352"><ele>2.0</ele><time>2026-03-22T16:56:39.725Z</time></trkpt><trkpt lat="45.635465" lon="12.4210456"><ele>2.0</ele><time>2026-03-22T16:56:40.706Z</time></trkpt><trkpt lat="45.6355106" lon="12.4207406"><ele>2.0</ele><time>2026-03-22T16:56:41.715Z</time></trkpt><trkpt lat="45.6355584" lon="12.4204402"><ele>2.333333333333333</ele><time>2026-03-22T16:56:42.719Z</time></trkpt><trkpt lat="45.6356024" lon="12.4201415"><ele>2.6666666666666665</ele><time>2026-03-22T16:56:43.713Z</time></trkpt><trkpt lat="45.6356458" lon="12.4198457"><ele>3.0</ele><time>2026-03-22T16:56:44.702Z</time></trkpt><trkpt lat="45.6356881" lon="12.4195515"><ele>3.333333333333333</ele><time>2026-03-22T16:56:45.712Z</time></trkpt><trkpt lat="45.6357294" lon="12.4192621"><ele>3.6666666666666665</ele><time>2026-03-22T16:56:46.701Z</time></trkpt><trkpt lat="45.6357674" lon="12.4189786"><ele>4.0</ele><time>2026-03-22T16:56:47.704Z</time></trkpt><trkpt lat="45.6357973" lon="12.4186966"><ele>4.333333333333333</ele><time>2026-03-22T16:56:48.718Z</time></trkpt><trkpt lat="45.6358314" lon="12.4184184"><ele>4.666666666666667</ele><time>2026-03-22T16:56:49.715Z</time></trkpt><trkpt lat="45.6358675" lon="12.4181424"><ele>5.0</ele><time>2026-03-22T16:56:50.721Z</time></trkpt><trkpt lat="45.6359012" lon="12.4178656"><ele>5.0</ele><time>2026-03-22T16:56:51.731Z</time></trkpt><trkpt lat="45.6359474" lon="12.4175942"><ele>5.0</ele><time>2026-03-22T16:56:52.726Z</time></trkpt><trkpt lat="45.6359896" lon="12.4173214"><ele>5.0</ele><time>2026-03-22T16:56:53.715Z</time></trkpt><trkpt lat="45.6360293" lon="12.417046"><ele>4.666666666666667</ele><time>2026-03-22T16:56:54.702Z</time></trkpt><trkpt lat="45.6360663" lon="12.4167674"><ele>4.333333333333333</ele><time>2026-03-22T16:56:55.714Z</time></trkpt><trkpt lat="45.6361045" lon="12.4164881"><ele>4.0</ele><time>2026-03-22T16:56:56.704Z</time></trkpt><trkpt lat="45.6361446" lon="12.4162072"><ele>4.0</ele><time>2026-03-22T16:56:57.733Z</time></trkpt><trkpt lat="45.6361863" lon="12.4159237"><ele>4.0</ele><time>2026-03-22T16:56:58.714Z</time></trkpt><trkpt lat="45.6362299" lon="12.4156397"><ele>4.0</ele><time>2026-03-22T16:56:59.703Z</time></trkpt><trkpt lat="45.6362717" lon="12.4153551"><ele>4.0</ele><time>2026-03-22T16:57:00.717Z</time></trkpt><trkpt lat="45.6363127" lon="12.4150708"><ele>4.0</ele><time>2026-03-22T16:57:01.702Z</time></trkpt><trkpt lat="45.6363449" lon="12.4147845"><ele>4.0</ele><time>2026-03-22T16:57:02.705Z</time></trkpt><trkpt lat="45.63638" lon="12.4144976"><ele>4.666666666666666</ele><time>2026-03-22T16:57:03.706Z</time></trkpt><trkpt lat="45.6364123" lon="12.4142054"><ele>5.333333333333333</ele><time>2026-03-22T16:57:04.711Z</time></trkpt><trkpt lat="45.636437" lon="12.4139096"><ele>6.0</ele><time>2026-03-22T16:57:05.713Z</time></trkpt><trkpt lat="45.6364563" lon="12.4136146"><ele>6.0</ele><time>2026-03-22T16:57:06.699Z</time></trkpt><trkpt lat="45.6364715" lon="12.4133239"><ele>6.0</ele><time>2026-03-22T16:57:07.709Z</time></trkpt><trkpt lat="45.6364896" lon="12.4130383"><ele>6.0</ele><time>2026-03-22T16:57:08.705Z</time></trkpt><trkpt lat="45.6365103" lon="12.4127534"><ele>5.666666666666667</ele><time>2026-03-22T16:57:09.72Z</time></trkpt><trkpt lat="45.6365291" lon="12.4124684"><ele>5.333333333333334</ele><time>2026-03-22T16:57:10.705Z</time></trkpt><trkpt lat="45.6365499" lon="12.4121816"><ele>5.0</ele><time>2026-03-22T16:57:11.706Z</time></trkpt><trkpt lat="45.6365662" lon="12.4118932"><ele>4.333333333333334</ele><time>2026-03-22T16:57:12.702Z</time></trkpt><trkpt lat="45.636585" lon="12.4116049"><ele>3.666666666666667</ele><time>2026-03-22T16:57:13.718Z</time></trkpt><trkpt lat="45.6366009" lon="12.4113163"><ele>3.0</ele><time>2026-03-22T16:57:14.702Z</time></trkpt><trkpt lat="45.6366177" lon="12.4110291"><ele>3.0</ele><time>2026-03-22T16:57:15.705Z</time></trkpt><trkpt lat="45.6366329" lon="12.4107454"><ele>3.0</ele><time>2026-03-22T16:57:16.719Z</time></trkpt><trkpt lat="45.6366471" lon="12.4104642"><ele>3.0</ele><time>2026-03-22T16:57:17.705Z</time></trkpt><trkpt lat="45.6366642" lon="12.4101858"><ele>3.0</ele><time>2026-03-22T16:57:18.725Z</time></trkpt><trkpt lat="45.6366794" lon="12.4099083"><ele>3.0</ele><time>2026-03-22T16:57:19.712Z</time></trkpt><trkpt lat="45.6366957" lon="12.4096317"><ele>3.0</ele><time>2026-03-22T16:57:20.701Z</time></trkpt><trkpt lat="45.6367138" lon="12.4093573"><ele>3.333333333333333</ele><time>2026-03-22T16:57:21.705Z</time></trkpt><trkpt lat="45.63673" lon="12.4090863"><ele>3.6666666666666665</ele><time>2026-03-22T16:57:22.704Z</time></trkpt><trkpt lat="45.6367495" lon="12.4088203"><ele>4.0</ele><time>2026-03-22T16:57:23.719Z</time></trkpt><trkpt lat="45.6367638" lon="12.4085599"><ele>4.0</ele><time>2026-03-22T16:57:24.711Z</time></trkpt><trkpt lat="45.6367808" lon="12.4083049"><ele>4.0</ele><time>2026-03-22T16:57:25.713Z</time></trkpt><trkpt lat="45.6367926" lon="12.408049"><ele>4.0</ele><time>2026-03-22T16:57:26.716Z</time></trkpt><trkpt lat="45.6368083" lon="12.4077911"><ele>4.0</ele><time>2026-03-22T16:57:27.7Z</time></trkpt><trkpt lat="45.6368283" lon="12.4075289"><ele>4.0</ele><time>2026-03-22T16:57:28.707Z</time></trkpt><trkpt lat="45.6368534" lon="12.4072609"><ele>4.0</ele><time>2026-03-22T16:57:29.703Z</time></trkpt><trkpt lat="45.6368835" lon="12.4069966"><ele>4.333333333333333</ele><time>2026-03-22T16:57:30.706Z</time></trkpt><trkpt lat="45.6369131" lon="12.4067444"><ele>4.666666666666667</ele><time>2026-03-22T16:57:31.706Z</time></trkpt><trkpt lat="45.6369471" lon="12.4065074"><ele>5.0</ele><time>2026-03-22T16:57:32.704Z</time></trkpt><trkpt lat="45.6369773" lon="12.4062834"><ele>4.25</ele><time>2026-03-22T16:57:33.703Z</time></trkpt><trkpt lat="45.6370059" lon="12.4060719"><ele>3.5</ele><time>2026-03-22T16:57:34.705Z</time></trkpt><trkpt lat="45.6370338" lon="12.4058722"><ele>2.75</ele><time>2026-03-22T16:57:35.71Z</time></trkpt><trkpt lat="45.637058" lon="12.4056831"><ele>2.0</ele><time>2026-03-22T16:57:36.701Z</time></trkpt><trkpt lat="45.6370799" lon="12.4055044"><ele>2.2</ele><time>2026-03-22T16:57:37.712Z</time></trkpt><trkpt lat="45.6371012" lon="12.4053403"><ele>2.4000000000000004</ele><time>2026-03-22T16:57:38.705Z</time></trkpt><trkpt lat="45.6371211" lon="12.4052028"><ele>2.5999999999999996</ele><time>2026-03-22T16:57:39.705Z</time></trkpt><trkpt lat="45.6371353" lon="12.4051012"><ele>2.8</ele><time>2026-03-22T16:57:40.705Z</time></trkpt><trkpt lat="45.6371534" lon="12.4049604"><ele>3.0</ele><time>2026-03-22T16:57:42.701Z</time></trkpt><trkpt lat="45.6371701" lon="12.4048447"><ele>3.0</ele><time>2026-03-22T16:57:44.703Z</time></trkpt><trkpt lat="45.6372036" lon="12.4047314"><ele>3.0</ele><time>2026-03-22T16:57:46.706Z</time></trkpt><trkpt lat="45.6372334" lon="12.4046313"><ele>3.0</ele><time>2026-03-22T16:57:48.705Z</time></trkpt><trkpt lat="45.6372686" lon="12.4045341"><ele>3.0</ele><time>2026-03-22T16:57:51.699Z</time></trkpt><trkpt lat="45.6373198" lon="12.4044145"><ele>3.0</ele><time>2026-03-22T16:57:58.695Z</time></trkpt><trkpt lat="45.6373992" lon="12.4042978"><ele>3.0</ele><time>2026-03-22T16:58:00.701Z</time></trkpt><trkpt lat="45.6374677" lon="12.4042498"><ele>3.0</ele><time>2026-03-22T16:58:01.702Z</time></trkpt><trkpt lat="45.6375251" lon="12.404177"><ele>3.0</ele><time>2026-03-22T16:58:02.705Z</time></trkpt><trkpt lat="45.6375713" lon="12.4040821"><ele>3.0</ele><time>2026-03-22T16:58:03.7Z</time></trkpt><trkpt lat="45.6375906" lon="12.4039638"><ele>3.0</ele><time>2026-03-22T16:58:04.701Z</time></trkpt><trkpt lat="45.6375879" lon="12.4038372"><ele>3.0</ele><time>2026-03-22T16:58:05.706Z</time></trkpt><trkpt lat="45.6375581" lon="12.4037152"><ele>3.0</ele><time>2026-03-22T16:58:06.705Z</time></trkpt><trkpt lat="45.637507" lon="12.4036066"><ele>3.0</ele><time>2026-03-22T16:58:07.707Z</time></trkpt><trkpt lat="45.6374328" lon="12.4035289"><ele>3.0</ele><time>2026-03-22T16:58:08.707Z</time></trkpt><trkpt lat="45.6373489" lon="12.4034716"><ele>3.0</ele><time>2026-03-22T16:58:09.713Z</time></trkpt><trkpt lat="45.6372651" lon="12.4034384"><ele>3.0</ele><time>2026-03-22T16:58:10.697Z</time></trkpt><trkpt lat="45.6371788" lon="12.4034636"><ele>3.0</ele><time>2026-03-22T16:58:11.714Z</time></trkpt><trkpt lat="45.6370956" lon="12.403505"><ele>3.0</ele><time>2026-03-22T16:58:12.723Z</time></trkpt><trkpt lat="45.6370158" lon="12.4035493"><ele>3.0</ele><time>2026-03-22T16:58:13.708Z</time></trkpt><trkpt lat="45.6369323" lon="12.4035644"><ele>3.0</ele><time>2026-03-22T16:58:14.711Z</time></trkpt><trkpt lat="45.6368485" lon="12.4035378"><ele>3.0</ele><time>2026-03-22T16:58:15.706Z</time></trkpt><trkpt lat="45.6367723" lon="12.4034807"><ele>3.0</ele><time>2026-03-22T16:58:16.702Z</time></trkpt><trkpt lat="45.6366958" lon="12.4034163"><ele>3.2</ele><time>2026-03-22T16:58:17.706Z</time></trkpt><trkpt lat="45.63663" lon="12.4033213"><ele>3.4</ele><time>2026-03-22T16:58:18.687Z</time></trkpt><trkpt lat="45.6365871" lon="12.4031978"><ele>3.6000000000000005</ele><time>2026-03-22T16:58:19.683Z</time></trkpt><trkpt lat="45.6365572" lon="12.4030538"><ele>3.8000000000000003</ele><time>2026-03-22T16:58:20.695Z</time></trkpt><trkpt lat="45.6365257" lon="12.4029039"><ele>4.0</ele><time>2026-03-22T16:58:21.698Z</time></trkpt><trkpt lat="45.6364998" lon="12.4027399"><ele>4.0</ele><time>2026-03-22T16:58:22.7Z</time></trkpt><trkpt lat="45.6364695" lon="12.4025679"><ele>4.0</ele><time>2026-03-22T16:58:23.706Z</time></trkpt><trkpt lat="45.6364356" lon="12.4023927"><ele>4.0</ele><time>2026-03-22T16:58:24.693Z</time></trkpt><trkpt lat="45.6364043" lon="12.4022036"><ele>4.0</ele><time>2026-03-22T16:58:25.715Z</time></trkpt><trkpt lat="45.6363689" lon="12.4020048"><ele>4.0</ele><time>2026-03-22T16:58:26.707Z</time></trkpt><trkpt lat="45.6363299" lon="12.4017917"><ele>4.0</ele><time>2026-03-22T16:58:27.696Z</time></trkpt><trkpt lat="45.6362848" lon="12.4015656"><ele>4.0</ele><time>2026-03-22T16:58:28.705Z</time></trkpt><trkpt lat="45.6362366" lon="12.4013301"><ele>4.0</ele><time>2026-03-22T16:58:29.695Z</time></trkpt><trkpt lat="45.6361891" lon="12.4010897"><ele>4.0</ele><time>2026-03-22T16:58:30.722Z</time></trkpt><trkpt lat="45.63614" lon="12.4008442"><ele>4.0</ele><time>2026-03-22T16:58:31.702Z</time></trkpt><trkpt lat="45.6360941" lon="12.4005922"><ele>3.6666666666666665</ele><time>2026-03-22T16:58:32.707Z</time></trkpt><trkpt lat="45.6360343" lon="12.4003477"><ele>3.333333333333333</ele><time>2026-03-22T16:58:33.716Z</time></trkpt><trkpt lat="45.6359687" lon="12.4001085"><ele>3.0</ele><time>2026-03-22T16:58:34.705Z</time></trkpt><trkpt lat="45.6359105" lon="12.3998728"><ele>3.0</ele><time>2026-03-22T16:58:35.718Z</time></trkpt><trkpt lat="45.6358573" lon="12.3996427"><ele>3.0</ele><time>2026-03-22T16:58:36.701Z</time></trkpt><trkpt lat="45.6358003" lon="12.399418"><ele>3.0</ele><time>2026-03-22T16:58:37.702Z</time></trkpt><trkpt lat="45.635743" lon="12.3992003"><ele>3.0</ele><time>2026-03-22T16:58:38.708Z</time></trkpt><trkpt lat="45.6356923" lon="12.3989813"><ele>3.0</ele><time>2026-03-22T16:58:39.705Z</time></trkpt><trkpt lat="45.6356412" lon="12.3987638"><ele>3.0</ele><time>2026-03-22T16:58:40.71Z</time></trkpt><trkpt lat="45.6355934" lon="12.3985459"><ele>2.6666666666666665</ele><time>2026-03-22T16:58:41.712Z</time></trkpt><trkpt lat="45.6355413" lon="12.3983302"><ele>2.333333333333333</ele><time>2026-03-22T16:58:42.704Z</time></trkpt><trkpt lat="45.6354811" lon="12.3981185"><ele>2.0</ele><time>2026-03-22T16:58:43.693Z</time></trkpt><trkpt lat="45.6354303" lon="12.3979054"><ele>1.6666666666666665</ele><time>2026-03-22T16:58:44.721Z</time></trkpt><trkpt lat="45.635378" lon="12.3976977"><ele>1.3333333333333333</ele><time>2026-03-22T16:58:45.709Z</time></trkpt><trkpt lat="45.6353316" lon="12.3974925"><ele>1.0</ele><time>2026-03-22T16:58:46.704Z</time></trkpt><trkpt lat="45.6352815" lon="12.39729"><ele>1.75</ele><time>2026-03-22T16:58:47.705Z</time></trkpt><trkpt lat="45.6352346" lon="12.3970883"><ele>2.5</ele><time>2026-03-22T16:58:48.716Z</time></trkpt><trkpt lat="45.6351952" lon="12.3968849"><ele>3.25</ele><time>2026-03-22T16:58:49.694Z</time></trkpt><trkpt lat="45.6351496" lon="12.3966837"><ele>4.0</ele><time>2026-03-22T16:58:50.693Z</time></trkpt><trkpt lat="45.6351022" lon="12.3964818"><ele>4.333333333333333</ele><time>2026-03-22T16:58:51.701Z</time></trkpt><trkpt lat="45.6350528" lon="12.3962801"><ele>4.666666666666667</ele><time>2026-03-22T16:58:52.703Z</time></trkpt><trkpt lat="45.6350055" lon="12.3960755"><ele>5.0</ele><time>2026-03-22T16:58:53.708Z</time></trkpt><trkpt lat="45.6349576" lon="12.3958678"><ele>5.0</ele><time>2026-03-22T16:58:54.72Z</time></trkpt><trkpt lat="45.6349081" lon="12.3956568"><ele>5.0</ele><time>2026-03-22T16:58:55.716Z</time></trkpt><trkpt lat="45.6348563" lon="12.3954429"><ele>5.0</ele><time>2026-03-22T16:58:56.723Z</time></trkpt><trkpt lat="45.6348042" lon="12.3952252"><ele>5.333333333333334</ele><time>2026-03-22T16:58:57.705Z</time></trkpt><trkpt lat="45.6347527" lon="12.3950051"><ele>5.666666666666667</ele><time>2026-03-22T16:58:58.695Z</time></trkpt><trkpt lat="45.6346997" lon="12.394787"><ele>6.0</ele><time>2026-03-22T16:58:59.707Z</time></trkpt><trkpt lat="45.6346497" lon="12.3945711"><ele>6.0</ele><time>2026-03-22T16:59:00.715Z</time></trkpt><trkpt lat="45.634605" lon="12.394363"><ele>6.0</ele><time>2026-03-22T16:59:01.705Z</time></trkpt><trkpt lat="45.6345681" lon="12.3941561"><ele>6.0</ele><time>2026-03-22T16:59:02.705Z</time></trkpt><trkpt lat="45.6345461" lon="12.3939503"><ele>6.0</ele><time>2026-03-22T16:59:03.711Z</time></trkpt><trkpt lat="45.6345384" lon="12.3937478"><ele>6.0</ele><time>2026-03-22T16:59:04.703Z</time></trkpt><trkpt lat="45.6345376" lon="12.3935501"><ele>6.0</ele><time>2026-03-22T16:59:05.726Z</time></trkpt><trkpt lat="45.634542" lon="12.3933519"><ele>6.0</ele><time>2026-03-22T16:59:06.706Z</time></trkpt><trkpt lat="45.6345518" lon="12.3931518"><ele>6.0</ele><time>2026-03-22T16:59:07.707Z</time></trkpt><trkpt lat="45.6345616" lon="12.392948"><ele>6.0</ele><time>2026-03-22T16:59:08.708Z</time></trkpt><trkpt lat="45.6345602" lon="12.3927137"><ele>6.0</ele><time>2026-03-22T16:59:09.723Z</time></trkpt><trkpt lat="45.6345682" lon="12.3925379"><ele>6.0</ele><time>2026-03-22T16:59:10.702Z</time></trkpt><trkpt lat="45.6345765" lon="12.39235"><ele>6.0</ele><time>2026-03-22T16:59:11.723Z</time></trkpt><trkpt lat="45.6345842" lon="12.3921653"><ele>6.0</ele><time>2026-03-22T16:59:12.742Z</time></trkpt><trkpt lat="45.6345919" lon="12.391979"><ele>6.0</ele><time>2026-03-22T16:59:13.707Z</time></trkpt><trkpt lat="45.6345971" lon="12.3917869"><ele>6.0</ele><time>2026-03-22T16:59:14.708Z</time></trkpt><trkpt lat="45.6345923" lon="12.3915926"><ele>6.0</ele><time>2026-03-22T16:59:15.709Z</time></trkpt><trkpt lat="45.6345778" lon="12.3913933"><ele>6.25</ele><time>2026-03-22T16:59:16.705Z</time></trkpt><trkpt lat="45.6345534" lon="12.3911996"><ele>6.5</ele><time>2026-03-22T16:59:17.708Z</time></trkpt><trkpt lat="45.6345146" lon="12.3910048"><ele>6.75</ele><time>2026-03-22T16:59:18.707Z</time></trkpt><trkpt lat="45.6344727" lon="12.3908068"><ele>7.0</ele><time>2026-03-22T16:59:19.725Z</time></trkpt><trkpt lat="45.6344283" lon="12.3906095"><ele>7.0</ele><time>2026-03-22T16:59:20.703Z</time></trkpt><trkpt lat="45.6343799" lon="12.3904073"><ele>7.0</ele><time>2026-03-22T16:59:21.72Z</time></trkpt><trkpt lat="45.6343322" lon="12.3902043"><ele>7.0</ele><time>2026-03-22T16:59:22.701Z</time></trkpt><trkpt lat="45.6342835" lon="12.3899968"><ele>7.0</ele><time>2026-03-22T16:59:23.714Z</time></trkpt><trkpt lat="45.6342336" lon="12.3897911"><ele>7.0</ele><time>2026-03-22T16:59:24.715Z</time></trkpt><trkpt lat="45.6341823" lon="12.3895813"><ele>7.0</ele><time>2026-03-22T16:59:25.745Z</time></trkpt><trkpt lat="45.6341333" lon="12.3893767"><ele>7.0</ele><time>2026-03-22T16:59:26.706Z</time></trkpt><trkpt lat="45.634082" lon="12.3891599"><ele>7.0</ele><time>2026-03-22T16:59:27.705Z</time></trkpt><trkpt lat="45.6340305" lon="12.3889452"><ele>7.0</ele><time>2026-03-22T16:59:28.721Z</time></trkpt><trkpt lat="45.63398" lon="12.3887363"><ele>6.5</ele><time>2026-03-22T16:59:29.705Z</time></trkpt><trkpt lat="45.63393" lon="12.3885307"><ele>6.0</ele><time>2026-03-22T16:59:30.715Z</time></trkpt><trkpt lat="45.6338824" lon="12.3883304"><ele>5.5</ele><time>2026-03-22T16:59:31.731Z</time></trkpt><trkpt lat="45.6338357" lon="12.3881414"><ele>5.0</ele><time>2026-03-22T16:59:32.705Z</time></trkpt><trkpt lat="45.6337874" lon="12.3879524"><ele>5.0</ele><time>2026-03-22T16:59:33.71Z</time></trkpt><trkpt lat="45.633741" lon="12.38777"><ele>5.0</ele><time>2026-03-22T16:59:34.711Z</time></trkpt><trkpt lat="45.6336947" lon="12.3875871"><ele>5.0</ele><time>2026-03-22T16:59:35.701Z</time></trkpt><trkpt lat="45.6336488" lon="12.3874033"><ele>5.0</ele><time>2026-03-22T16:59:36.704Z</time></trkpt><trkpt lat="45.6336029" lon="12.3872167"><ele>5.25</ele><time>2026-03-22T16:59:37.719Z</time></trkpt><trkpt lat="45.6335568" lon="12.3870289"><ele>5.5</ele><time>2026-03-22T16:59:38.721Z</time></trkpt><trkpt lat="45.6335115" lon="12.3868441"><ele>5.75</ele><time>2026-03-22T16:59:39.706Z</time></trkpt><trkpt lat="45.6334651" lon="12.3866574"><ele>6.0</ele><time>2026-03-22T16:59:40.697Z</time></trkpt><trkpt lat="45.6334188" lon="12.3864677"><ele>5.75</ele><time>2026-03-22T16:59:41.714Z</time></trkpt><trkpt lat="45.6333712" lon="12.3862779"><ele>5.5</ele><time>2026-03-22T16:59:42.711Z</time></trkpt><trkpt lat="45.6333223" lon="12.386086"><ele>5.25</ele><time>2026-03-22T16:59:43.707Z</time></trkpt><trkpt lat="45.6332741" lon="12.3858917"><ele>5.0</ele><time>2026-03-22T16:59:44.711Z</time></trkpt><trkpt lat="45.6332278" lon="12.3856948"><ele>5.333333333333334</ele><time>2026-03-22T16:59:45.701Z</time></trkpt><trkpt lat="45.6331794" lon="12.3854864"><ele>5.666666666666667</ele><time>2026-03-22T16:59:46.707Z</time></trkpt><trkpt lat="45.6331297" lon="12.3852805"><ele>6.0</ele><time>2026-03-22T16:59:47.706Z</time></trkpt><trkpt lat="45.6330807" lon="12.3850752"><ele>6.0</ele><time>2026-03-22T16:59:48.711Z</time></trkpt><trkpt lat="45.6330335" lon="12.384877"><ele>6.0</ele><time>2026-03-22T16:59:49.724Z</time></trkpt><trkpt lat="45.6329895" lon="12.3846853"><ele>6.0</ele><time>2026-03-22T16:59:50.694Z</time></trkpt><trkpt lat="45.6329435" lon="12.384495"><ele>6.0</ele><time>2026-03-22T16:59:51.721Z</time></trkpt><trkpt lat="45.6329067" lon="12.3843232"><ele>6.199999999999999</ele><time>2026-03-22T16:59:52.693Z</time></trkpt><trkpt lat="45.632875" lon="12.3841576"><ele>6.3999999999999995</ele><time>2026-03-22T16:59:53.705Z</time></trkpt><trkpt lat="45.6328456" lon="12.3840032"><ele>6.6</ele><time>2026-03-22T16:59:54.705Z</time></trkpt><trkpt lat="45.6328143" lon="12.3838546"><ele>6.8</ele><time>2026-03-22T16:59:55.73Z</time></trkpt><trkpt lat="45.632787" lon="12.3837275"><ele>7.0</ele><time>2026-03-22T16:59:56.705Z</time></trkpt><trkpt lat="45.6327628" lon="12.3836189"><ele>6.833333333333334</ele><time>2026-03-22T16:59:57.713Z</time></trkpt><trkpt lat="45.632747" lon="12.3835199"><ele>6.666666666666667</ele><time>2026-03-22T16:59:58.695Z</time></trkpt><trkpt lat="45.6327371" lon="12.3834251"><ele>6.5</ele><time>2026-03-22T16:59:59.717Z</time></trkpt><trkpt lat="45.6327369" lon="12.3833338"><ele>6.333333333333334</ele><time>2026-03-22T17:00:00.705Z</time></trkpt><trkpt lat="45.6327527" lon="12.3831588"><ele>6.166666666666667</ele><time>2026-03-22T17:00:02.7Z</time></trkpt><trkpt lat="45.6327496" lon="12.3830619"><ele>6.0</ele><time>2026-03-22T17:00:03.695Z</time></trkpt><trkpt lat="45.6327343" lon="12.3829644"><ele>6.0</ele><time>2026-03-22T17:00:04.695Z</time></trkpt><trkpt lat="45.6326886" lon="12.3828744"><ele>6.0</ele><time>2026-03-22T17:00:05.712Z</time></trkpt><trkpt lat="45.6326373" lon="12.382784"><ele>6.0</ele><time>2026-03-22T17:00:06.7Z</time></trkpt><trkpt lat="45.6325567" lon="12.382728"><ele>6.0</ele><time>2026-03-22T17:00:07.725Z</time></trkpt><trkpt lat="45.6324709" lon="12.3826774"><ele>6.0</ele><time>2026-03-22T17:00:08.712Z</time></trkpt><trkpt lat="45.6323823" lon="12.3826208"><ele>6.0</ele><time>2026-03-22T17:00:09.702Z</time></trkpt><trkpt lat="45.6322996" lon="12.3825331"><ele>6.0</ele><time>2026-03-22T17:00:10.695Z</time></trkpt><trkpt lat="45.6322238" lon="12.3824172"><ele>6.0</ele><time>2026-03-22T17:00:11.707Z</time></trkpt><trkpt lat="45.632149" lon="12.3822821"><ele>6.0</ele><time>2026-03-22T17:00:12.706Z</time></trkpt><trkpt lat="45.6320701" lon="12.382136"><ele>6.0</ele><time>2026-03-22T17:00:13.706Z</time></trkpt><trkpt lat="45.6319806" lon="12.3819956"><ele>6.25</ele><time>2026-03-22T17:00:14.721Z</time></trkpt><trkpt lat="45.6318939" lon="12.3818442"><ele>6.5</ele><time>2026-03-22T17:00:15.699Z</time></trkpt><trkpt lat="45.6318043" lon="12.3816901"><ele>6.75</ele><time>2026-03-22T17:00:16.688Z</time></trkpt><trkpt lat="45.6317091" lon="12.3815382"><ele>7.0</ele><time>2026-03-22T17:00:17.708Z</time></trkpt><trkpt lat="45.6316176" lon="12.3813765"><ele>7.0</ele><time>2026-03-22T17:00:18.71Z</time></trkpt><trkpt lat="45.6315207" lon="12.3812243"><ele>7.0</ele><time>2026-03-22T17:00:19.704Z</time></trkpt><trkpt lat="45.6314257" lon="12.3810752"><ele>7.0</ele><time>2026-03-22T17:00:20.717Z</time></trkpt><trkpt lat="45.6313362" lon="12.380921"><ele>7.0</ele><time>2026-03-22T17:00:21.713Z</time></trkpt><trkpt lat="45.6312474" lon="12.3807664"><ele>7.0</ele><time>2026-03-22T17:00:22.699Z</time></trkpt><trkpt lat="45.6311603" lon="12.3806138"><ele>7.0</ele><time>2026-03-22T17:00:23.705Z</time></trkpt><trkpt lat="45.6310739" lon="12.3804671"><ele>7.0</ele><time>2026-03-22T17:00:24.719Z</time></trkpt><trkpt lat="45.6309904" lon="12.3803319"><ele>7.0</ele><time>2026-03-22T17:00:25.726Z</time></trkpt><trkpt lat="45.6309141" lon="12.3802066"><ele>7.0</ele><time>2026-03-22T17:00:26.709Z</time></trkpt><trkpt lat="45.6308394" lon="12.3800896"><ele>6.999999999999999</ele><time>2026-03-22T17:00:27.707Z</time></trkpt><trkpt lat="45.6307723" lon="12.3799716"><ele>6.999999999999999</ele><time>2026-03-22T17:00:28.706Z</time></trkpt><trkpt lat="45.6307048" lon="12.3798605"><ele>7.0</ele><time>2026-03-22T17:00:29.721Z</time></trkpt><trkpt lat="45.6306355" lon="12.3797586"><ele>7.0</ele><time>2026-03-22T17:00:30.725Z</time></trkpt><trkpt lat="45.6305667" lon="12.3796617"><ele>7.0</ele><time>2026-03-22T17:00:31.713Z</time></trkpt><trkpt lat="45.6305149" lon="12.3795495"><ele>6.999999999999999</ele><time>2026-03-22T17:00:32.701Z</time></trkpt><trkpt lat="45.630469" lon="12.3794352"><ele>6.999999999999999</ele><time>2026-03-22T17:00:33.699Z</time></trkpt><trkpt lat="45.6304062" lon="12.37934"><ele>7.0</ele><time>2026-03-22T17:00:34.703Z</time></trkpt><trkpt lat="45.6303401" lon="12.3792391"><ele>7.0</ele><time>2026-03-22T17:00:35.724Z</time></trkpt><trkpt lat="45.6302696" lon="12.3791305"><ele>7.25</ele><time>2026-03-22T17:00:36.707Z</time></trkpt><trkpt lat="45.6301947" lon="12.3790167"><ele>7.5</ele><time>2026-03-22T17:00:37.715Z</time></trkpt><trkpt lat="45.630118" lon="12.3788944"><ele>7.75</ele><time>2026-03-22T17:00:38.731Z</time></trkpt><trkpt lat="45.6300397" lon="12.3787662"><ele>8.0</ele><time>2026-03-22T17:00:39.725Z</time></trkpt><trkpt lat="45.6299622" lon="12.3786327"><ele>8.0</ele><time>2026-03-22T17:00:40.719Z</time></trkpt><trkpt lat="45.629883" lon="12.3785033"><ele>8.0</ele><time>2026-03-22T17:00:41.726Z</time></trkpt><trkpt lat="45.6298053" lon="12.3783801"><ele>8.0</ele><time>2026-03-22T17:00:42.706Z</time></trkpt><trkpt lat="45.629735" lon="12.3782532"><ele>8.0</ele><time>2026-03-22T17:00:43.706Z</time></trkpt><trkpt lat="45.6296642" lon="12.3781262"><ele>8.0</ele><time>2026-03-22T17:00:44.713Z</time></trkpt><trkpt lat="45.6295975" lon="12.3779929"><ele>8.0</ele><time>2026-03-22T17:00:45.704Z</time></trkpt><trkpt lat="45.6295318" lon="12.3778553"><ele>8.0</ele><time>2026-03-22T17:00:46.715Z</time></trkpt><trkpt lat="45.6294693" lon="12.3777147"><ele>8.0</ele><time>2026-03-22T17:00:47.712Z</time></trkpt><trkpt lat="45.6294121" lon="12.3775719"><ele>8.0</ele><time>2026-03-22T17:00:48.695Z</time></trkpt><trkpt lat="45.6293631" lon="12.3774259"><ele>8.0</ele><time>2026-03-22T17:00:49.708Z</time></trkpt><trkpt lat="45.6293229" lon="12.3772786"><ele>8.0</ele><time>2026-03-22T17:00:50.699Z</time></trkpt><trkpt lat="45.6292591" lon="12.3771572"><ele>8.0</ele><time>2026-03-22T17:00:51.699Z</time></trkpt><trkpt lat="45.6292079" lon="12.3770347"><ele>8.0</ele><time>2026-03-22T17:00:52.721Z</time></trkpt><trkpt lat="45.6291601" lon="12.3769229"><ele>8.0</ele><time>2026-03-22T17:00:53.711Z</time></trkpt><trkpt lat="45.6291205" lon="12.3768161"><ele>7.999999999999999</ele><time>2026-03-22T17:00:54.707Z</time></trkpt><trkpt lat="45.6290928" lon="12.3767064"><ele>8.0</ele><time>2026-03-22T17:00:55.729Z</time></trkpt><trkpt lat="45.629061" lon="12.3766063"><ele>8.0</ele><time>2026-03-22T17:00:56.704Z</time></trkpt><trkpt lat="45.6290283" lon="12.3765196"><ele>7.999999999999999</ele><time>2026-03-22T17:00:57.726Z</time></trkpt><trkpt lat="45.6289982" lon="12.3764387"><ele>8.0</ele><time>2026-03-22T17:00:58.699Z</time></trkpt><trkpt lat="45.6289939" lon="12.3763389"><ele>8.0</ele><time>2026-03-22T17:00:59.705Z</time></trkpt><trkpt lat="45.6289131" lon="12.3762332"><ele>8.166666666666666</ele><time>2026-03-22T17:01:01.707Z</time></trkpt><trkpt lat="45.6288565" lon="12.3761314"><ele>8.333333333333332</ele><time>2026-03-22T17:01:03.708Z</time></trkpt><trkpt lat="45.6288122" lon="12.3759941"><ele>8.5</ele><time>2026-03-22T17:01:05.72Z</time></trkpt><trkpt lat="45.6287763" lon="12.3759184"><ele>8.666666666666666</ele><time>2026-03-22T17:01:06.728Z</time></trkpt><trkpt lat="45.6287371" lon="12.3758301"><ele>8.833333333333334</ele><time>2026-03-22T17:01:07.697Z</time></trkpt><trkpt lat="45.6287038" lon="12.3757318"><ele>9.0</ele><time>2026-03-22T17:01:08.716Z</time></trkpt><trkpt lat="45.6286691" lon="12.3756418"><ele>8.833333333333334</ele><time>2026-03-22T17:01:09.719Z</time></trkpt><trkpt lat="45.6286357" lon="12.3755561"><ele>8.666666666666666</ele><time>2026-03-22T17:01:10.714Z</time></trkpt><trkpt lat="45.6286046" lon="12.3754778"><ele>8.5</ele><time>2026-03-22T17:01:11.708Z</time></trkpt><trkpt lat="45.6285514" lon="12.3753401"><ele>8.333333333333332</ele><time>2026-03-22T17:01:13.708Z</time></trkpt><trkpt lat="45.6285063" lon="12.37524"><ele>8.166666666666666</ele><time>2026-03-22T17:01:15.705Z</time></trkpt><trkpt lat="45.6284937" lon="12.3751281"><ele>8.0</ele><time>2026-03-22T17:01:19.699Z</time></trkpt><trkpt lat="45.6284794" lon="12.3749939"><ele>7.666666666666666</ele><time>2026-03-22T17:01:22.71Z</time></trkpt><trkpt lat="45.6284508" lon="12.3748802"><ele>7.333333333333333</ele><time>2026-03-22T17:01:24.696Z</time></trkpt><trkpt lat="45.6283992" lon="12.3748226"><ele>7.0</ele><time>2026-03-22T17:01:25.697Z</time></trkpt><trkpt lat="45.6283302" lon="12.3747803"><ele>6.666666666666666</ele><time>2026-03-22T17:01:26.702Z</time></trkpt><trkpt lat="45.6282443" lon="12.3747536"><ele>6.333333333333333</ele><time>2026-03-22T17:01:27.708Z</time></trkpt><trkpt lat="45.6281728" lon="12.374684"><ele>6.0</ele><time>2026-03-22T17:01:28.699Z</time></trkpt><trkpt lat="45.6281037" lon="12.3746149"><ele>5.833333333333333</ele><time>2026-03-22T17:01:29.707Z</time></trkpt><trkpt lat="45.6280546" lon="12.3745205"><ele>5.666666666666667</ele><time>2026-03-22T17:01:30.714Z</time></trkpt><trkpt lat="45.6280006" lon="12.3744358"><ele>5.5</ele><time>2026-03-22T17:01:31.702Z</time></trkpt><trkpt lat="45.6279437" lon="12.3743592"><ele>5.333333333333334</ele><time>2026-03-22T17:01:32.717Z</time></trkpt><trkpt lat="45.6278898" lon="12.3742798"><ele>5.166666666666667</ele><time>2026-03-22T17:01:33.703Z</time></trkpt><trkpt lat="45.6278224" lon="12.3742156"><ele>5.0</ele><time>2026-03-22T17:01:34.697Z</time></trkpt><trkpt lat="45.6277598" lon="12.3741413"><ele>5.0</ele><time>2026-03-22T17:01:35.698Z</time></trkpt><trkpt lat="45.6277031" lon="12.3740544"><ele>5.0</ele><time>2026-03-22T17:01:36.696Z</time></trkpt><trkpt lat="45.627641" lon="12.3739695"><ele>5.0</ele><time>2026-03-22T17:01:37.71Z</time></trkpt><trkpt lat="45.6275762" lon="12.3738762"><ele>5.0</ele><time>2026-03-22T17:01:38.691Z</time></trkpt><trkpt lat="45.6275092" lon="12.3737715"><ele>5.0</ele><time>2026-03-22T17:01:39.7Z</time></trkpt><trkpt lat="45.6274395" lon="12.3736637"><ele>5.0</ele><time>2026-03-22T17:01:40.693Z</time></trkpt><trkpt lat="45.6273683" lon="12.3735571"><ele>5.0</ele><time>2026-03-22T17:01:41.699Z</time></trkpt><trkpt lat="45.6273116" lon="12.3734313"><ele>5.0</ele><time>2026-03-22T17:01:42.697Z</time></trkpt><trkpt lat="45.6272456" lon="12.3733161"><ele>5.0</ele><time>2026-03-22T17:01:43.706Z</time></trkpt><trkpt lat="45.6271781" lon="12.3732043"><ele>5.0</ele><time>2026-03-22T17:01:44.694Z</time></trkpt><trkpt lat="45.6271076" lon="12.3730962"><ele>5.0</ele><time>2026-03-22T17:01:45.698Z</time></trkpt><trkpt lat="45.627035" lon="12.3729859"><ele>5.0</ele><time>2026-03-22T17:01:46.695Z</time></trkpt><trkpt lat="45.6269606" lon="12.3728717"><ele>5.0</ele><time>2026-03-22T17:01:47.694Z</time></trkpt><trkpt lat="45.6268866" lon="12.372759"><ele>5.0</ele><time>2026-03-22T17:01:48.698Z</time></trkpt><trkpt lat="45.6268107" lon="12.3726484"><ele>5.0</ele><time>2026-03-22T17:01:49.704Z</time></trkpt><trkpt lat="45.6267343" lon="12.3725348"><ele>5.0</ele><time>2026-03-22T17:01:50.708Z</time></trkpt><trkpt lat="45.6266463" lon="12.3724303"><ele>5.0</ele><time>2026-03-22T17:01:51.722Z</time></trkpt><trkpt lat="45.6265697" lon="12.3723055"><ele>5.0</ele><time>2026-03-22T17:01:52.698Z</time></trkpt><trkpt lat="45.6264799" lon="12.3721936"><ele>5.0</ele><time>2026-03-22T17:01:53.707Z</time></trkpt><trkpt lat="45.6263935" lon="12.3720776"><ele>5.25</ele><time>2026-03-22T17:01:54.712Z</time></trkpt><trkpt lat="45.6263091" lon="12.371961"><ele>5.5</ele><time>2026-03-22T17:01:55.725Z</time></trkpt><trkpt lat="45.6262275" lon="12.3718464"><ele>5.75</ele><time>2026-03-22T17:01:56.705Z</time></trkpt><trkpt lat="45.6261471" lon="12.3717337"><ele>6.0</ele><time>2026-03-22T17:01:57.707Z</time></trkpt><trkpt lat="45.6260673" lon="12.3716188"><ele>6.0</ele><time>2026-03-22T17:01:58.711Z</time></trkpt><trkpt lat="45.6259895" lon="12.3715"><ele>6.0</ele><time>2026-03-22T17:01:59.701Z</time></trkpt><trkpt lat="45.6259124" lon="12.371383"><ele>6.0</ele><time>2026-03-22T17:02:00.702Z</time></trkpt><trkpt lat="45.6258359" lon="12.3712727"><ele>6.0</ele><time>2026-03-22T17:02:01.712Z</time></trkpt><trkpt lat="45.625757" lon="12.3711704"><ele>6.0</ele><time>2026-03-22T17:02:02.703Z</time></trkpt><trkpt lat="45.6256713" lon="12.3710741"><ele>5.8</ele><time>2026-03-22T17:02:03.706Z</time></trkpt><trkpt lat="45.6255819" lon="12.3709776"><ele>5.6</ele><time>2026-03-22T17:02:04.715Z</time></trkpt><trkpt lat="45.6254898" lon="12.3708899"><ele>5.4</ele><time>2026-03-22T17:02:05.706Z</time></trkpt><trkpt lat="45.625396" lon="12.3708082"><ele>5.2</ele><time>2026-03-22T17:02:06.706Z</time></trkpt><trkpt lat="45.6252979" lon="12.3707299"><ele>5.0</ele><time>2026-03-22T17:02:07.705Z</time></trkpt><trkpt lat="45.625187" lon="12.3706674"><ele>4.75</ele><time>2026-03-22T17:02:08.703Z</time></trkpt><trkpt lat="45.6250701" lon="12.3706048"><ele>4.5</ele><time>2026-03-22T17:02:09.713Z</time></trkpt><trkpt lat="45.624949" lon="12.3705397"><ele>4.25</ele><time>2026-03-22T17:02:10.71Z</time></trkpt><trkpt lat="45.624824" lon="12.3704806"><ele>4.0</ele><time>2026-03-22T17:02:11.712Z</time></trkpt><trkpt lat="45.6246947" lon="12.3704332"><ele>3.75</ele><time>2026-03-22T17:02:12.697Z</time></trkpt><trkpt lat="45.6245627" lon="12.3703955"><ele>3.5</ele><time>2026-03-22T17:02:13.707Z</time></trkpt><trkpt lat="45.6244311" lon="12.3703503"><ele>3.25</ele><time>2026-03-22T17:02:14.694Z</time></trkpt><trkpt lat="45.6242962" lon="12.3703193"><ele>3.0</ele><time>2026-03-22T17:02:15.705Z</time></trkpt><trkpt lat="45.624161" lon="12.3702886"><ele>3.5</ele><time>2026-03-22T17:02:16.698Z</time></trkpt><trkpt lat="45.6240247" lon="12.3702605"><ele>4.0</ele><time>2026-03-22T17:02:17.704Z</time></trkpt><trkpt lat="45.6238903" lon="12.3702252"><ele>4.5</ele><time>2026-03-22T17:02:18.706Z</time></trkpt><trkpt lat="45.6237554" lon="12.370198"><ele>5.0</ele><time>2026-03-22T17:02:19.741Z</time></trkpt><trkpt lat="45.6236238" lon="12.3701634"><ele>5.25</ele><time>2026-03-22T17:02:20.7Z</time></trkpt><trkpt lat="45.6234941" lon="12.3701336"><ele>5.5</ele><time>2026-03-22T17:02:21.72Z</time></trkpt><trkpt lat="45.6233695" lon="12.3701026"><ele>5.75</ele><time>2026-03-22T17:02:22.702Z</time></trkpt><trkpt lat="45.6232498" lon="12.3700683"><ele>6.0</ele><time>2026-03-22T17:02:23.705Z</time></trkpt><trkpt lat="45.6231356" lon="12.3700389"><ele>6.0</ele><time>2026-03-22T17:02:24.702Z</time></trkpt><trkpt lat="45.6230318" lon="12.370014"><ele>6.0</ele><time>2026-03-22T17:02:25.707Z</time></trkpt><trkpt lat="45.6229386" lon="12.3699999"><ele>6.0</ele><time>2026-03-22T17:02:26.701Z</time></trkpt><trkpt lat="45.622855" lon="12.3699825"><ele>6.0</ele><time>2026-03-22T17:02:27.713Z</time></trkpt><trkpt lat="45.6227757" lon="12.3699647"><ele>6.0</ele><time>2026-03-22T17:02:28.72Z</time></trkpt><trkpt lat="45.6226883" lon="12.3699468"><ele>6.25</ele><time>2026-03-22T17:02:29.71Z</time></trkpt><trkpt lat="45.6225793" lon="12.3699086"><ele>6.5</ele><time>2026-03-22T17:02:30.696Z</time></trkpt><trkpt lat="45.6224461" lon="12.369855"><ele>6.75</ele><time>2026-03-22T17:02:31.701Z</time></trkpt><trkpt lat="45.6222981" lon="12.3697792"><ele>7.0</ele><time>2026-03-22T17:02:32.704Z</time></trkpt><trkpt lat="45.6221405" lon="12.3696981"><ele>6.333333333333334</ele><time>2026-03-22T17:02:33.714Z</time></trkpt><trkpt lat="45.6219719" lon="12.369609"><ele>5.666666666666667</ele><time>2026-03-22T17:02:34.707Z</time></trkpt><trkpt lat="45.6217952" lon="12.3695138"><ele>5.0</ele><time>2026-03-22T17:02:35.704Z</time></trkpt><trkpt lat="45.6216146" lon="12.3694206"><ele>5.0</ele><time>2026-03-22T17:02:36.719Z</time></trkpt><trkpt lat="45.6214331" lon="12.3693261"><ele>5.0</ele><time>2026-03-22T17:02:37.724Z</time></trkpt><trkpt lat="45.6212514" lon="12.3692374"><ele>5.0</ele><time>2026-03-22T17:02:38.702Z</time></trkpt><trkpt lat="45.6210716" lon="12.3691428"><ele>4.666666666666667</ele><time>2026-03-22T17:02:39.713Z</time></trkpt><trkpt lat="45.6208924" lon="12.3690481"><ele>4.333333333333333</ele><time>2026-03-22T17:02:40.694Z</time></trkpt><trkpt lat="45.6207095" lon="12.3689688"><ele>4.0</ele><time>2026-03-22T17:02:41.714Z</time></trkpt><trkpt lat="45.6205308" lon="12.36887"><ele>4.666666666666666</ele><time>2026-03-22T17:02:42.701Z</time></trkpt><trkpt lat="45.6203505" lon="12.3687787"><ele>5.333333333333333</ele><time>2026-03-22T17:02:43.702Z</time></trkpt><trkpt lat="45.6201703" lon="12.3686874"><ele>6.0</ele><time>2026-03-22T17:02:44.7Z</time></trkpt><trkpt lat="45.6199889" lon="12.3685991"><ele>6.0</ele><time>2026-03-22T17:02:45.704Z</time></trkpt><trkpt lat="45.6198078" lon="12.3685095"><ele>6.0</ele><time>2026-03-22T17:02:46.722Z</time></trkpt><trkpt lat="45.6196328" lon="12.3683992"><ele>6.0</ele><time>2026-03-22T17:02:47.706Z</time></trkpt><trkpt lat="45.6194522" lon="12.368311"><ele>6.0</ele><time>2026-03-22T17:02:48.712Z</time></trkpt><trkpt lat="45.619272" lon="12.3682194"><ele>6.0</ele><time>2026-03-22T17:02:49.705Z</time></trkpt><trkpt lat="45.6190916" lon="12.3681265"><ele>6.0</ele><time>2026-03-22T17:02:50.706Z</time></trkpt><trkpt lat="45.61891" lon="12.3680342"><ele>6.0</ele><time>2026-03-22T17:02:51.716Z</time></trkpt><trkpt lat="45.61873" lon="12.3679359"><ele>6.0</ele><time>2026-03-22T17:02:52.712Z</time></trkpt><trkpt lat="45.6185508" lon="12.3678303"><ele>6.0</ele><time>2026-03-22T17:02:53.716Z</time></trkpt><trkpt lat="45.6183676" lon="12.3677297"><ele>5.666666666666667</ele><time>2026-03-22T17:02:54.699Z</time></trkpt><trkpt lat="45.6181808" lon="12.3676423"><ele>5.333333333333334</ele><time>2026-03-22T17:02:55.703Z</time></trkpt><trkpt lat="45.6180001" lon="12.3675309"><ele>5.0</ele><time>2026-03-22T17:02:56.709Z</time></trkpt><trkpt lat="45.617823" lon="12.3674029"><ele>5.0</ele><time>2026-03-22T17:02:57.72Z</time></trkpt><trkpt lat="45.6176481" lon="12.3672593"><ele>5.0</ele><time>2026-03-22T17:02:58.704Z</time></trkpt><trkpt lat="45.6174708" lon="12.3671102"><ele>5.0</ele><time>2026-03-22T17:02:59.719Z</time></trkpt><trkpt lat="45.6172992" lon="12.3669483"><ele>5.0</ele><time>2026-03-22T17:03:00.715Z</time></trkpt><trkpt lat="45.6171346" lon="12.3667976"><ele>5.0</ele><time>2026-03-22T17:03:01.707Z</time></trkpt><trkpt lat="45.6169756" lon="12.3666624"><ele>5.0</ele><time>2026-03-22T17:03:02.701Z</time></trkpt><trkpt lat="45.616819" lon="12.3665411"><ele>5.666666666666667</ele><time>2026-03-22T17:03:03.732Z</time></trkpt><trkpt lat="45.616677" lon="12.3664023"><ele>6.333333333333334</ele><time>2026-03-22T17:03:04.73Z</time></trkpt><trkpt lat="45.6165389" lon="12.3662766"><ele>7.0</ele><time>2026-03-22T17:03:05.714Z</time></trkpt><trkpt lat="45.6164166" lon="12.3661439"><ele>7.0</ele><time>2026-03-22T17:03:06.712Z</time></trkpt><trkpt lat="45.6163015" lon="12.3660292"><ele>7.0</ele><time>2026-03-22T17:03:07.704Z</time></trkpt><trkpt lat="45.6161949" lon="12.3659317"><ele>7.0</ele><time>2026-03-22T17:03:08.716Z</time></trkpt><trkpt lat="45.6160985" lon="12.3658433"><ele>7.0</ele><time>2026-03-22T17:03:09.734Z</time></trkpt><trkpt lat="45.6160144" lon="12.36576"><ele>7.0</ele><time>2026-03-22T17:03:10.747Z</time></trkpt><trkpt lat="45.6159574" lon="12.3656611"><ele>6.999999999999999</ele><time>2026-03-22T17:03:11.714Z</time></trkpt><trkpt lat="45.6159013" lon="12.3656075"><ele>6.999999999999999</ele><time>2026-03-22T17:03:12.714Z</time></trkpt><trkpt lat="45.6158283" lon="12.3655442"><ele>7.0</ele><time>2026-03-22T17:03:14.7Z</time></trkpt><trkpt lat="45.6157821" lon="12.3654828"><ele>7.0</ele><time>2026-03-22T17:03:16.705Z</time></trkpt><trkpt lat="45.6156054" lon="12.3654108"><ele>7.0</ele><time>2026-03-22T17:03:42.722Z</time></trkpt><trkpt lat="45.6155387" lon="12.3653508"><ele>7.0</ele><time>2026-03-22T17:03:43.702Z</time></trkpt><trkpt lat="45.6154488" lon="12.3652737"><ele>7.0</ele><time>2026-03-22T17:03:44.712Z</time></trkpt><trkpt lat="45.615335" lon="12.3651945"><ele>7.0</ele><time>2026-03-22T17:03:45.713Z</time></trkpt><trkpt lat="45.6152138" lon="12.3650873"><ele>6.666666666666667</ele><time>2026-03-22T17:03:46.695Z</time></trkpt><trkpt lat="45.6150703" lon="12.3649977"><ele>6.333333333333334</ele><time>2026-03-22T17:03:47.722Z</time></trkpt><trkpt lat="45.6149282" lon="12.3648907"><ele>6.0</ele><time>2026-03-22T17:03:48.704Z</time></trkpt><trkpt lat="45.6147853" lon="12.3647752"><ele>6.0</ele><time>2026-03-22T17:03:49.706Z</time></trkpt><trkpt lat="45.6146369" lon="12.3646687"><ele>6.0</ele><time>2026-03-22T17:03:50.712Z</time></trkpt><trkpt lat="45.6144982" lon="12.364541"><ele>6.0</ele><time>2026-03-22T17:03:51.716Z</time></trkpt><trkpt lat="45.614353" lon="12.3644283"><ele>6.0</ele><time>2026-03-22T17:03:52.697Z</time></trkpt><trkpt lat="45.6142153" lon="12.3643"><ele>6.0</ele><time>2026-03-22T17:03:53.721Z</time></trkpt><trkpt lat="45.6140773" lon="12.3641748"><ele>6.0</ele><time>2026-03-22T17:03:54.708Z</time></trkpt><trkpt lat="45.6139377" lon="12.3640558"><ele>6.0</ele><time>2026-03-22T17:03:55.734Z</time></trkpt><trkpt lat="45.6137982" lon="12.3639363"><ele>6.0</ele><time>2026-03-22T17:03:56.704Z</time></trkpt><trkpt lat="45.6136572" lon="12.3638178"><ele>6.0</ele><time>2026-03-22T17:03:57.701Z</time></trkpt><trkpt lat="45.6135135" lon="12.3637007"><ele>5.666666666666667</ele><time>2026-03-22T17:03:58.705Z</time></trkpt><trkpt lat="45.6133692" lon="12.3635805"><ele>5.333333333333334</ele><time>2026-03-22T17:03:59.706Z</time></trkpt><trkpt lat="45.6132254" lon="12.3634512"><ele>5.0</ele><time>2026-03-22T17:04:00.725Z</time></trkpt><trkpt lat="45.6130811" lon="12.3633194"><ele>5.0</ele><time>2026-03-22T17:04:01.717Z</time></trkpt><trkpt lat="45.6129351" lon="12.3631912"><ele>5.0</ele><time>2026-03-22T17:04:02.707Z</time></trkpt><trkpt lat="45.6127899" lon="12.3630541"><ele>5.0</ele><time>2026-03-22T17:04:03.716Z</time></trkpt><trkpt lat="45.6126314" lon="12.3629407"><ele>5.0</ele><time>2026-03-22T17:04:04.687Z</time></trkpt><trkpt lat="45.612476" lon="12.3628131"><ele>5.0</ele><time>2026-03-22T17:04:05.716Z</time></trkpt><trkpt lat="45.6123175" lon="12.3626848"><ele>5.0</ele><time>2026-03-22T17:04:06.701Z</time></trkpt><trkpt lat="45.6121583" lon="12.3625514"><ele>5.0</ele><time>2026-03-22T17:04:07.704Z</time></trkpt><trkpt lat="45.611999" lon="12.3624168"><ele>5.0</ele><time>2026-03-22T17:04:08.706Z</time></trkpt><trkpt lat="45.6118418" lon="12.362279"><ele>5.0</ele><time>2026-03-22T17:04:09.703Z</time></trkpt><trkpt lat="45.6116815" lon="12.3621485"><ele>5.333333333333334</ele><time>2026-03-22T17:04:10.709Z</time></trkpt><trkpt lat="45.6115324" lon="12.361995"><ele>5.666666666666667</ele><time>2026-03-22T17:04:11.702Z</time></trkpt><trkpt lat="45.6114157" lon="12.3617896"><ele>6.0</ele><time>2026-03-22T17:04:12.703Z</time></trkpt><trkpt lat="45.6112995" lon="12.3615865"><ele>6.333333333333334</ele><time>2026-03-22T17:04:13.718Z</time></trkpt><trkpt lat="45.611203" lon="12.361364"><ele>6.666666666666667</ele><time>2026-03-22T17:04:14.716Z</time></trkpt><trkpt lat="45.6111156" lon="12.3611344"><ele>7.0</ele><time>2026-03-22T17:04:15.712Z</time></trkpt><trkpt lat="45.6110454" lon="12.3608895"><ele>6.333333333333334</ele><time>2026-03-22T17:04:16.707Z</time></trkpt><trkpt lat="45.6109898" lon="12.3606357"><ele>5.666666666666667</ele><time>2026-03-22T17:04:17.714Z</time></trkpt><trkpt lat="45.6109386" lon="12.3603801"><ele>5.0</ele><time>2026-03-22T17:04:18.701Z</time></trkpt><trkpt lat="45.6108948" lon="12.3601165"><ele>5.0</ele><time>2026-03-22T17:04:19.707Z</time></trkpt><trkpt lat="45.610848" lon="12.3598521"><ele>5.0</ele><time>2026-03-22T17:04:20.71Z</time></trkpt><trkpt lat="45.6108102" lon="12.3595794"><ele>5.0</ele><time>2026-03-22T17:04:21.706Z</time></trkpt><trkpt lat="45.6107401" lon="12.359319"><ele>5.0</ele><time>2026-03-22T17:04:22.712Z</time></trkpt><trkpt lat="45.6106799" lon="12.3590547"><ele>5.0</ele><time>2026-03-22T17:04:23.734Z</time></trkpt><trkpt lat="45.6106268" lon="12.3587882"><ele>5.0</ele><time>2026-03-22T17:04:24.727Z</time></trkpt><trkpt lat="45.610573" lon="12.358523"><ele>5.0</ele><time>2026-03-22T17:04:25.714Z</time></trkpt><trkpt lat="45.6105229" lon="12.3582574"><ele>5.0</ele><time>2026-03-22T17:04:26.701Z</time></trkpt><trkpt lat="45.6104726" lon="12.3579922"><ele>5.0</ele><time>2026-03-22T17:04:27.708Z</time></trkpt><trkpt lat="45.6104207" lon="12.3577275"><ele>5.0</ele><time>2026-03-22T17:04:28.723Z</time></trkpt><trkpt lat="45.610369" lon="12.3574633"><ele>5.0</ele><time>2026-03-22T17:04:29.71Z</time></trkpt><trkpt lat="45.61032" lon="12.357198"><ele>5.0</ele><time>2026-03-22T17:04:30.705Z</time></trkpt><trkpt lat="45.610269" lon="12.3569336"><ele>5.0</ele><time>2026-03-22T17:04:31.72Z</time></trkpt><trkpt lat="45.6102183" lon="12.3566692"><ele>5.0</ele><time>2026-03-22T17:04:32.7Z</time></trkpt><trkpt lat="45.6101654" lon="12.3564056"><ele>5.0</ele><time>2026-03-22T17:04:33.712Z</time></trkpt><trkpt lat="45.6101219" lon="12.3561381"><ele>5.0</ele><time>2026-03-22T17:04:34.704Z</time></trkpt><trkpt lat="45.6100829" lon="12.3558675"><ele>5.0</ele><time>2026-03-22T17:04:35.721Z</time></trkpt><trkpt lat="45.6100294" lon="12.3556019"><ele>5.0</ele><time>2026-03-22T17:04:36.703Z</time></trkpt><trkpt lat="45.6099857" lon="12.3553333"><ele>4.666666666666667</ele><time>2026-03-22T17:04:37.723Z</time></trkpt><trkpt lat="45.6099238" lon="12.3550723"><ele>4.333333333333333</ele><time>2026-03-22T17:04:38.7Z</time></trkpt><trkpt lat="45.6098689" lon="12.3548078"><ele>4.0</ele><time>2026-03-22T17:04:39.716Z</time></trkpt><trkpt lat="45.6098156" lon="12.354543"><ele>4.0</ele><time>2026-03-22T17:04:40.704Z</time></trkpt><trkpt lat="45.6097651" lon="12.3542774"><ele>4.0</ele><time>2026-03-22T17:04:41.709Z</time></trkpt><trkpt lat="45.6097129" lon="12.3540111"><ele>4.0</ele><time>2026-03-22T17:04:42.712Z</time></trkpt><trkpt lat="45.6096634" lon="12.3537417"><ele>3.6666666666666665</ele><time>2026-03-22T17:04:43.707Z</time></trkpt><trkpt lat="45.6096125" lon="12.3534718"><ele>3.333333333333333</ele><time>2026-03-22T17:04:44.717Z</time></trkpt><trkpt lat="45.6095596" lon="12.3532018"><ele>3.0</ele><time>2026-03-22T17:04:45.724Z</time></trkpt><trkpt lat="45.6095091" lon="12.3529301"><ele>3.666666666666667</ele><time>2026-03-22T17:04:46.71Z</time></trkpt><trkpt lat="45.6094549" lon="12.3526592"><ele>4.333333333333334</ele><time>2026-03-22T17:04:47.715Z</time></trkpt><trkpt lat="45.6094148" lon="12.3523801"><ele>5.0</ele><time>2026-03-22T17:04:48.697Z</time></trkpt><trkpt lat="45.6093656" lon="12.3521067"><ele>5.0</ele><time>2026-03-22T17:04:49.717Z</time></trkpt><trkpt lat="45.609315" lon="12.351847"><ele>5.0</ele><time>2026-03-22T17:04:50.706Z</time></trkpt><trkpt lat="45.6092639" lon="12.3515952"><ele>5.0</ele><time>2026-03-22T17:04:51.707Z</time></trkpt><trkpt lat="45.6091991" lon="12.3513507"><ele>5.0</ele><time>2026-03-22T17:04:52.713Z</time></trkpt><trkpt lat="45.6091178" lon="12.351117"><ele>5.0</ele><time>2026-03-22T17:04:53.708Z</time></trkpt><trkpt lat="45.6090095" lon="12.3509015"><ele>5.0</ele><time>2026-03-22T17:04:54.703Z</time></trkpt><trkpt lat="45.6088908" lon="12.3506942"><ele>4.666666666666667</ele><time>2026-03-22T17:04:55.706Z</time></trkpt><trkpt lat="45.608765" lon="12.3504915"><ele>4.333333333333333</ele><time>2026-03-22T17:04:56.698Z</time></trkpt><trkpt lat="45.6086237" lon="12.3503073"><ele>4.0</ele><time>2026-03-22T17:04:57.72Z</time></trkpt><trkpt lat="45.6084694" lon="12.3501394"><ele>4.333333333333333</ele><time>2026-03-22T17:04:58.718Z</time></trkpt><trkpt lat="45.6083051" lon="12.3499833"><ele>4.666666666666667</ele><time>2026-03-22T17:04:59.721Z</time></trkpt><trkpt lat="45.6081397" lon="12.349826"><ele>5.0</ele><time>2026-03-22T17:05:00.732Z</time></trkpt><trkpt lat="45.6079826" lon="12.3496486"><ele>4.666666666666667</ele><time>2026-03-22T17:05:01.702Z</time></trkpt><trkpt lat="45.6078243" lon="12.3494725"><ele>4.333333333333333</ele><time>2026-03-22T17:05:02.721Z</time></trkpt><trkpt lat="45.6076775" lon="12.3492856"><ele>4.0</ele><time>2026-03-22T17:05:03.706Z</time></trkpt><trkpt lat="45.6075243" lon="12.3491271"><ele>4.0</ele><time>2026-03-22T17:05:04.705Z</time></trkpt><trkpt lat="45.6073918" lon="12.3489429"><ele>4.0</ele><time>2026-03-22T17:05:05.721Z</time></trkpt><trkpt lat="45.607253" lon="12.3487743"><ele>4.0</ele><time>2026-03-22T17:05:06.704Z</time></trkpt><trkpt lat="45.6071134" lon="12.3486098"><ele>4.333333333333333</ele><time>2026-03-22T17:05:07.731Z</time></trkpt><trkpt lat="45.6069893" lon="12.3484218"><ele>4.666666666666667</ele><time>2026-03-22T17:05:08.703Z</time></trkpt><trkpt lat="45.6068518" lon="12.3482622"><ele>5.0</ele><time>2026-03-22T17:05:09.716Z</time></trkpt><trkpt lat="45.6067154" lon="12.3481095"><ele>5.0</ele><time>2026-03-22T17:05:10.698Z</time></trkpt><trkpt lat="45.6065828" lon="12.3479653"><ele>5.0</ele><time>2026-03-22T17:05:11.708Z</time></trkpt><trkpt lat="45.6064542" lon="12.3478219"><ele>5.0</ele><time>2026-03-22T17:05:12.719Z</time></trkpt><trkpt lat="45.6063254" lon="12.3476812"><ele>5.0</ele><time>2026-03-22T17:05:13.731Z</time></trkpt><trkpt lat="45.6061882" lon="12.3475688"><ele>5.0</ele><time>2026-03-22T17:05:14.7Z</time></trkpt><trkpt lat="45.606076" lon="12.3474197"><ele>5.0</ele><time>2026-03-22T17:05:15.72Z</time></trkpt><trkpt lat="45.6059607" lon="12.3472806"><ele>4.333333333333334</ele><time>2026-03-22T17:05:16.707Z</time></trkpt><trkpt lat="45.6058417" lon="12.3471484"><ele>3.666666666666667</ele><time>2026-03-22T17:05:17.718Z</time></trkpt><trkpt lat="45.6057024" lon="12.3470359"><ele>3.0</ele><time>2026-03-22T17:05:18.705Z</time></trkpt><trkpt lat="45.6055622" lon="12.3468993"><ele>3.0</ele><time>2026-03-22T17:05:19.708Z</time></trkpt><trkpt lat="45.6054216" lon="12.3467519"><ele>3.0</ele><time>2026-03-22T17:05:20.705Z</time></trkpt><trkpt lat="45.6052872" lon="12.3466037"><ele>3.0</ele><time>2026-03-22T17:05:21.705Z</time></trkpt><trkpt lat="45.6051646" lon="12.3464526"><ele>2.6666666666666665</ele><time>2026-03-22T17:05:22.709Z</time></trkpt><trkpt lat="45.6050449" lon="12.3463086"><ele>2.333333333333333</ele><time>2026-03-22T17:05:23.706Z</time></trkpt><trkpt lat="45.6049213" lon="12.3461771"><ele>2.0</ele><time>2026-03-22T17:05:24.725Z</time></trkpt><trkpt lat="45.6048047" lon="12.3460432"><ele>2.0</ele><time>2026-03-22T17:05:25.713Z</time></trkpt><trkpt lat="45.6047016" lon="12.3458909"><ele>2.0</ele><time>2026-03-22T17:05:26.712Z</time></trkpt><trkpt lat="45.604628" lon="12.3456947"><ele>2.0</ele><time>2026-03-22T17:05:27.703Z</time></trkpt><trkpt lat="45.6045794" lon="12.3454541"><ele>2.0</ele><time>2026-03-22T17:05:28.708Z</time></trkpt><trkpt lat="45.6045394" lon="12.3451944"><ele>2.0</ele><time>2026-03-22T17:05:29.711Z</time></trkpt><trkpt lat="45.6045065" lon="12.344914"><ele>2.0</ele><time>2026-03-22T17:05:30.708Z</time></trkpt><trkpt lat="45.6044824" lon="12.3446267"><ele>2.0</ele><time>2026-03-22T17:05:31.719Z</time></trkpt><trkpt lat="45.6044662" lon="12.3443363"><ele>2.0</ele><time>2026-03-22T17:05:32.714Z</time></trkpt><trkpt lat="45.6044576" lon="12.3440454"><ele>2.0</ele><time>2026-03-22T17:05:33.713Z</time></trkpt><trkpt lat="45.6044666" lon="12.3437408"><ele>2.5</ele><time>2026-03-22T17:05:34.706Z</time></trkpt><trkpt lat="45.6044938" lon="12.3434186"><ele>3.0</ele><time>2026-03-22T17:05:35.714Z</time></trkpt><trkpt lat="45.6045197" lon="12.3430859"><ele>2.5</ele><time>2026-03-22T17:05:36.713Z</time></trkpt><trkpt lat="45.6045418" lon="12.3427437"><ele>2.0</ele><time>2026-03-22T17:05:37.713Z</time></trkpt><trkpt lat="45.6045701" lon="12.3423904"><ele>1.0</ele><time>2026-03-22T17:05:38.719Z</time></trkpt><trkpt lat="45.604599" lon="12.3420279"><ele>0.0</ele><time>2026-03-22T17:05:39.723Z</time></trkpt><trkpt lat="45.604628" lon="12.3416612"><ele>1.5</ele><time>2026-03-22T17:05:40.711Z</time></trkpt><trkpt lat="45.6046552" lon="12.3412985"><ele>3.0</ele><time>2026-03-22T17:05:41.725Z</time></trkpt><trkpt lat="45.6046807" lon="12.3409453"><ele>3.0</ele><time>2026-03-22T17:05:42.706Z</time></trkpt><trkpt lat="45.6047004" lon="12.3406019"><ele>3.0</ele><time>2026-03-22T17:05:43.732Z</time></trkpt><trkpt lat="45.6047201" lon="12.3402649"><ele>3.0</ele><time>2026-03-22T17:05:44.707Z</time></trkpt><trkpt lat="45.6047369" lon="12.3399324"><ele>3.0</ele><time>2026-03-22T17:05:45.722Z</time></trkpt><trkpt lat="45.6047431" lon="12.3396062"><ele>2.0</ele><time>2026-03-22T17:05:46.708Z</time></trkpt><trkpt lat="45.6047274" lon="12.3392792"><ele>1.0</ele><time>2026-03-22T17:05:47.735Z</time></trkpt><trkpt lat="45.6046939" lon="12.3389464"><ele>1.0</ele><time>2026-03-22T17:05:48.716Z</time></trkpt><trkpt lat="45.6046566" lon="12.3386331"><ele>1.0</ele><time>2026-03-22T17:05:49.721Z</time></trkpt><trkpt lat="45.6046256" lon="12.3383194"><ele>1.0</ele><time>2026-03-22T17:05:50.708Z</time></trkpt><trkpt lat="45.6045136" lon="12.3380031"><ele>2.0</ele><time>2026-03-22T17:05:51.732Z</time></trkpt><trkpt lat="45.6044347" lon="12.3377"><ele>3.0</ele><time>2026-03-22T17:05:52.716Z</time></trkpt><trkpt lat="45.6043582" lon="12.3374061"><ele>4.0</ele><time>2026-03-22T17:05:53.72Z</time></trkpt><trkpt lat="45.6042922" lon="12.3371138"><ele>4.0</ele><time>2026-03-22T17:05:54.713Z</time></trkpt><trkpt lat="45.6042259" lon="12.3368377"><ele>4.0</ele><time>2026-03-22T17:05:55.715Z</time></trkpt><trkpt lat="45.6041684" lon="12.3365894"><ele>4.0</ele><time>2026-03-22T17:05:56.716Z</time></trkpt><trkpt lat="45.6041147" lon="12.3363676"><ele>3.5</ele><time>2026-03-22T17:05:57.71Z</time></trkpt><trkpt lat="45.6040711" lon="12.3361661"><ele>3.0</ele><time>2026-03-22T17:05:58.705Z</time></trkpt><trkpt lat="45.6040304" lon="12.3359874"><ele>2.5</ele><time>2026-03-22T17:05:59.708Z</time></trkpt><trkpt lat="45.6039903" lon="12.335797"><ele>2.0</ele><time>2026-03-22T17:06:00.693Z</time></trkpt><trkpt lat="45.6039508" lon="12.3356284"><ele>2.0</ele><time>2026-03-22T17:06:01.704Z</time></trkpt><trkpt lat="45.6039127" lon="12.3354443"><ele>2.0</ele><time>2026-03-22T17:06:02.702Z</time></trkpt><trkpt lat="45.6038775" lon="12.3352595"><ele>2.0</ele><time>2026-03-22T17:06:03.708Z</time></trkpt><trkpt lat="45.6038426" lon="12.3350738"><ele>2.0</ele><time>2026-03-22T17:06:04.704Z</time></trkpt><trkpt lat="45.6038076" lon="12.3348859"><ele>2.5</ele><time>2026-03-22T17:06:05.704Z</time></trkpt><trkpt lat="45.6037719" lon="12.3346983"><ele>3.0</ele><time>2026-03-22T17:06:06.716Z</time></trkpt><trkpt lat="45.603736" lon="12.3345124"><ele>3.5</ele><time>2026-03-22T17:06:07.736Z</time></trkpt><trkpt lat="45.6037013" lon="12.3343353"><ele>4.0</ele><time>2026-03-22T17:06:08.712Z</time></trkpt><trkpt lat="45.6036666" lon="12.3341565"><ele>4.0</ele><time>2026-03-22T17:06:09.706Z</time></trkpt><trkpt lat="45.6036333" lon="12.3339827"><ele>4.0</ele><time>2026-03-22T17:06:10.702Z</time></trkpt><trkpt lat="45.6035992" lon="12.3338085"><ele>4.0</ele><time>2026-03-22T17:06:11.723Z</time></trkpt><trkpt lat="45.6035667" lon="12.3336383"><ele>4.0</ele><time>2026-03-22T17:06:12.707Z</time></trkpt><trkpt lat="45.6035347" lon="12.333469"><ele>4.0</ele><time>2026-03-22T17:06:13.705Z</time></trkpt><trkpt lat="45.6034986" lon="12.3333041"><ele>4.0</ele><time>2026-03-22T17:06:14.704Z</time></trkpt><trkpt lat="45.6034643" lon="12.3331435"><ele>4.0</ele><time>2026-03-22T17:06:15.707Z</time></trkpt><trkpt lat="45.6034285" lon="12.3329861"><ele>4.0</ele><time>2026-03-22T17:06:16.705Z</time></trkpt><trkpt lat="45.6033923" lon="12.3328336"><ele>3.5</ele><time>2026-03-22T17:06:17.705Z</time></trkpt><trkpt lat="45.6033547" lon="12.3326836"><ele>3.0</ele><time>2026-03-22T17:06:18.704Z</time></trkpt><trkpt lat="45.6033138" lon="12.332532"><ele>2.5</ele><time>2026-03-22T17:06:19.707Z</time></trkpt><trkpt lat="45.6032673" lon="12.3323813"><ele>2.0</ele><time>2026-03-22T17:06:20.716Z</time></trkpt><trkpt lat="45.6032167" lon="12.3322348"><ele>2.25</ele><time>2026-03-22T17:06:21.704Z</time></trkpt><trkpt lat="45.6031617" lon="12.3320895"><ele>2.5</ele><time>2026-03-22T17:06:22.702Z</time></trkpt><trkpt lat="45.6031034" lon="12.3319428"><ele>2.75</ele><time>2026-03-22T17:06:23.713Z</time></trkpt><trkpt lat="45.6030418" lon="12.3317956"><ele>3.0</ele><time>2026-03-22T17:06:24.717Z</time></trkpt><trkpt lat="45.6029784" lon="12.3316462"><ele>3.0</ele><time>2026-03-22T17:06:25.72Z</time></trkpt><trkpt lat="45.6029137" lon="12.3314973"><ele>3.0</ele><time>2026-03-22T17:06:26.715Z</time></trkpt><trkpt lat="45.6028441" lon="12.3313525"><ele>3.0</ele><time>2026-03-22T17:06:27.727Z</time></trkpt><trkpt lat="45.6027716" lon="12.3312123"><ele>3.0</ele><time>2026-03-22T17:06:28.712Z</time></trkpt><trkpt lat="45.6026947" lon="12.3310707"><ele>3.25</ele><time>2026-03-22T17:06:29.719Z</time></trkpt><trkpt lat="45.6026157" lon="12.3309298"><ele>3.5</ele><time>2026-03-22T17:06:30.721Z</time></trkpt><trkpt lat="45.6025396" lon="12.3307952"><ele>3.75</ele><time>2026-03-22T17:06:31.712Z</time></trkpt><trkpt lat="45.6024615" lon="12.3306558"><ele>4.0</ele><time>2026-03-22T17:06:32.705Z</time></trkpt><trkpt lat="45.6023778" lon="12.3305161"><ele>4.0</ele><time>2026-03-22T17:06:33.709Z</time></trkpt><trkpt lat="45.6022926" lon="12.3303812"><ele>4.0</ele><time>2026-03-22T17:06:34.697Z</time></trkpt><trkpt lat="45.602208" lon="12.3302497"><ele>4.0</ele><time>2026-03-22T17:06:35.705Z</time></trkpt><trkpt lat="45.6021241" lon="12.3301228"><ele>4.0</ele><time>2026-03-22T17:06:36.702Z</time></trkpt><trkpt lat="45.6020436" lon="12.3299991"><ele>4.0</ele><time>2026-03-22T17:06:37.701Z</time></trkpt><trkpt lat="45.6019674" lon="12.3298742"><ele>4.0</ele><time>2026-03-22T17:06:38.695Z</time></trkpt><trkpt lat="45.6018892" lon="12.3297472"><ele>4.0</ele><time>2026-03-22T17:06:39.707Z</time></trkpt><trkpt lat="45.6018111" lon="12.3296197"><ele>4.0</ele><time>2026-03-22T17:06:40.705Z</time></trkpt><trkpt lat="45.601731" lon="12.3294907"><ele>4.0</ele><time>2026-03-22T17:06:41.703Z</time></trkpt><trkpt lat="45.6016522" lon="12.3293638"><ele>4.0</ele><time>2026-03-22T17:06:42.713Z</time></trkpt><trkpt lat="45.6015738" lon="12.3292373"><ele>4.0</ele><time>2026-03-22T17:06:43.722Z</time></trkpt><trkpt lat="45.6014992" lon="12.3291142"><ele>4.0</ele><time>2026-03-22T17:06:44.708Z</time></trkpt><trkpt lat="45.6014268" lon="12.3289907"><ele>4.0</ele><time>2026-03-22T17:06:45.697Z</time></trkpt><trkpt lat="45.6013587" lon="12.3288685"><ele>4.0</ele><time>2026-03-22T17:06:46.705Z</time></trkpt><trkpt lat="45.6012938" lon="12.3287539"><ele>4.0</ele><time>2026-03-22T17:06:47.707Z</time></trkpt><trkpt lat="45.6012287" lon="12.3286404"><ele>4.0</ele><time>2026-03-22T17:06:48.701Z</time></trkpt><trkpt lat="45.6011597" lon="12.3285277"><ele>4.0</ele><time>2026-03-22T17:06:49.699Z</time></trkpt><trkpt lat="45.6010854" lon="12.3284099"><ele>4.0</ele><time>2026-03-22T17:06:50.701Z</time></trkpt><trkpt lat="45.6010096" lon="12.3282879"><ele>4.0</ele><time>2026-03-22T17:06:51.712Z</time></trkpt><trkpt lat="45.6009363" lon="12.3281668"><ele>4.0</ele><time>2026-03-22T17:06:52.704Z</time></trkpt><trkpt lat="45.6008636" lon="12.3280448"><ele>4.0</ele><time>2026-03-22T17:06:53.701Z</time></trkpt><trkpt lat="45.6007923" lon="12.3279236"><ele>4.0</ele><time>2026-03-22T17:06:54.707Z</time></trkpt><trkpt lat="45.6007304" lon="12.3277944"><ele>4.0</ele><time>2026-03-22T17:06:55.705Z</time></trkpt><trkpt lat="45.6006639" lon="12.3276709"><ele>4.0</ele><time>2026-03-22T17:06:56.701Z</time></trkpt><trkpt lat="45.6005957" lon="12.3275537"><ele>4.0</ele><time>2026-03-22T17:06:57.72Z</time></trkpt><trkpt lat="45.6005294" lon="12.3274379"><ele>4.0</ele><time>2026-03-22T17:06:58.72Z</time></trkpt><trkpt lat="45.6004626" lon="12.3273233"><ele>4.0</ele><time>2026-03-22T17:06:59.697Z</time></trkpt><trkpt lat="45.6003947" lon="12.3272121"><ele>3.9999999999999996</ele><time>2026-03-22T17:07:00.714Z</time></trkpt><trkpt lat="45.6003307" lon="12.3271057"><ele>4.0</ele><time>2026-03-22T17:07:01.726Z</time></trkpt><trkpt lat="45.6002718" lon="12.3270087"><ele>4.0</ele><time>2026-03-22T17:07:02.709Z</time></trkpt><trkpt lat="45.6002169" lon="12.3269178"><ele>4.0</ele><time>2026-03-22T17:07:03.702Z</time></trkpt><trkpt lat="45.6001635" lon="12.3268311"><ele>3.9999999999999996</ele><time>2026-03-22T17:07:04.701Z</time></trkpt><trkpt lat="45.6001146" lon="12.3267475"><ele>4.0</ele><time>2026-03-22T17:07:05.707Z</time></trkpt><trkpt lat="45.6000757" lon="12.326667"><ele>3.9999999999999996</ele><time>2026-03-22T17:07:06.698Z</time></trkpt><trkpt lat="45.6000485" lon="12.326577"><ele>4.0</ele><time>2026-03-22T17:07:07.704Z</time></trkpt><trkpt lat="45.6000538" lon="12.3264394"><ele>4.0</ele><time>2026-03-22T17:07:09.727Z</time></trkpt><trkpt lat="45.6000821" lon="12.3263537"><ele>4.0</ele><time>2026-03-22T17:07:10.707Z</time></trkpt><trkpt lat="45.6001313" lon="12.3262912"><ele>3.9999999999999996</ele><time>2026-03-22T17:07:11.708Z</time></trkpt><trkpt lat="45.6002045" lon="12.3262165"><ele>4.0</ele><time>2026-03-22T17:07:12.711Z</time></trkpt><trkpt lat="45.60027" lon="12.3260762"><ele>3.8000000000000003</ele><time>2026-03-22T17:07:13.699Z</time></trkpt><trkpt lat="45.600317" lon="12.3259556"><ele>3.6000000000000005</ele><time>2026-03-22T17:07:14.703Z</time></trkpt><trkpt lat="45.6003169" lon="12.3258208"><ele>3.4</ele><time>2026-03-22T17:07:15.719Z</time></trkpt><trkpt lat="45.6002956" lon="12.3256924"><ele>3.2</ele><time>2026-03-22T17:07:16.703Z</time></trkpt><trkpt lat="45.6002269" lon="12.3255931"><ele>3.0</ele><time>2026-03-22T17:07:17.718Z</time></trkpt><trkpt lat="45.6001366" lon="12.3255157"><ele>3.0</ele><time>2026-03-22T17:07:18.74Z</time></trkpt><trkpt lat="45.6000357" lon="12.3254401"><ele>3.0</ele><time>2026-03-22T17:07:19.726Z</time></trkpt><trkpt lat="45.5999123" lon="12.325374"><ele>3.0</ele><time>2026-03-22T17:07:20.728Z</time></trkpt><trkpt lat="45.5997727" lon="12.3253029"><ele>3.0</ele><time>2026-03-22T17:07:21.72Z</time></trkpt><trkpt lat="45.5996174" lon="12.3252242"><ele>3.666666666666667</ele><time>2026-03-22T17:07:22.698Z</time></trkpt><trkpt lat="45.5994634" lon="12.3251352"><ele>4.333333333333334</ele><time>2026-03-22T17:07:23.723Z</time></trkpt><trkpt lat="45.5993102" lon="12.3250756"><ele>5.0</ele><time>2026-03-22T17:07:24.706Z</time></trkpt><trkpt lat="45.5991723" lon="12.3249952"><ele>5.0</ele><time>2026-03-22T17:07:25.713Z</time></trkpt><trkpt lat="45.5990421" lon="12.3249185"><ele>5.0</ele><time>2026-03-22T17:07:26.706Z</time></trkpt><trkpt lat="45.5989326" lon="12.3248099"><ele>5.0</ele><time>2026-03-22T17:07:27.705Z</time></trkpt><trkpt lat="45.5988367" lon="12.3246891"><ele>5.0</ele><time>2026-03-22T17:07:28.708Z</time></trkpt><trkpt lat="45.5987566" lon="12.3245531"><ele>5.2</ele><time>2026-03-22T17:07:29.707Z</time></trkpt><trkpt lat="45.5986825" lon="12.3244216"><ele>5.4</ele><time>2026-03-22T17:07:30.704Z</time></trkpt><trkpt lat="45.5986187" lon="12.3243033"><ele>5.6</ele><time>2026-03-22T17:07:31.704Z</time></trkpt><trkpt lat="45.598559" lon="12.3242021"><ele>5.8</ele><time>2026-03-22T17:07:32.701Z</time></trkpt><trkpt lat="45.5985022" lon="12.3241086"><ele>6.0</ele><time>2026-03-22T17:07:33.718Z</time></trkpt><trkpt lat="45.5984467" lon="12.3240135"><ele>6.0</ele><time>2026-03-22T17:07:34.7Z</time></trkpt><trkpt lat="45.5983896" lon="12.3239139"><ele>6.0</ele><time>2026-03-22T17:07:35.72Z</time></trkpt><trkpt lat="45.5983316" lon="12.3238123"><ele>6.0</ele><time>2026-03-22T17:07:36.702Z</time></trkpt><trkpt lat="45.5982794" lon="12.3237029"><ele>6.0</ele><time>2026-03-22T17:07:37.699Z</time></trkpt><trkpt lat="45.5982263" lon="12.3235857"><ele>6.0</ele><time>2026-03-22T17:07:38.708Z</time></trkpt><trkpt lat="45.598184" lon="12.3234472"><ele>5.75</ele><time>2026-03-22T17:07:39.712Z</time></trkpt><trkpt lat="45.5981655" lon="12.3232912"><ele>5.5</ele><time>2026-03-22T17:07:40.699Z</time></trkpt><trkpt lat="45.5981717" lon="12.323126"><ele>5.25</ele><time>2026-03-22T17:07:41.698Z</time></trkpt><trkpt lat="45.5982066" lon="12.3229572"><ele>5.0</ele><time>2026-03-22T17:07:42.696Z</time></trkpt><trkpt lat="45.5982439" lon="12.3227934"><ele>5.0</ele><time>2026-03-22T17:07:43.695Z</time></trkpt><trkpt lat="45.5982763" lon="12.3226315"><ele>5.0</ele><time>2026-03-22T17:07:44.716Z</time></trkpt><trkpt lat="45.5983198" lon="12.3224802"><ele>5.0</ele><time>2026-03-22T17:07:45.721Z</time></trkpt><trkpt lat="45.5983576" lon="12.3223335"><ele>5.0</ele><time>2026-03-22T17:07:46.702Z</time></trkpt><trkpt lat="45.5983901" lon="12.322192"><ele>5.0</ele><time>2026-03-22T17:07:47.705Z</time></trkpt><trkpt lat="45.5984229" lon="12.3220578"><ele>4.833333333333334</ele><time>2026-03-22T17:07:48.7Z</time></trkpt><trkpt lat="45.5984515" lon="12.3219278"><ele>4.666666666666667</ele><time>2026-03-22T17:07:49.711Z</time></trkpt><trkpt lat="45.5984842" lon="12.3218062"><ele>4.5</ele><time>2026-03-22T17:07:50.707Z</time></trkpt><trkpt lat="45.5985158" lon="12.3216858"><ele>4.333333333333333</ele><time>2026-03-22T17:07:51.7Z</time></trkpt><trkpt lat="45.5985384" lon="12.3215658"><ele>4.166666666666666</ele><time>2026-03-22T17:07:52.72Z</time></trkpt><trkpt lat="45.5985576" lon="12.3214501"><ele>4.0</ele><time>2026-03-22T17:07:53.716Z</time></trkpt><trkpt lat="45.5985771" lon="12.3213316"><ele>4.0</ele><time>2026-03-22T17:07:54.697Z</time></trkpt><trkpt lat="45.5986061" lon="12.3212045"><ele>4.0</ele><time>2026-03-22T17:07:55.711Z</time></trkpt><trkpt lat="45.5986426" lon="12.3210711"><ele>4.0</ele><time>2026-03-22T17:07:56.718Z</time></trkpt><trkpt lat="45.5986769" lon="12.3209331"><ele>4.0</ele><time>2026-03-22T17:07:57.726Z</time></trkpt><trkpt lat="45.598714" lon="12.320791"><ele>4.0</ele><time>2026-03-22T17:07:58.691Z</time></trkpt><trkpt lat="45.598753" lon="12.3206454"><ele>4.2</ele><time>2026-03-22T17:07:59.708Z</time></trkpt><trkpt lat="45.5987856" lon="12.3204974"><ele>4.4</ele><time>2026-03-22T17:08:00.709Z</time></trkpt><trkpt lat="45.5988215" lon="12.3203453"><ele>4.6</ele><time>2026-03-22T17:08:01.702Z</time></trkpt><trkpt lat="45.5988522" lon="12.3201898"><ele>4.8</ele><time>2026-03-22T17:08:02.696Z</time></trkpt><trkpt lat="45.5988917" lon="12.3200346"><ele>5.0</ele><time>2026-03-22T17:08:03.699Z</time></trkpt><trkpt lat="45.5989319" lon="12.3198777"><ele>4.8</ele><time>2026-03-22T17:08:04.711Z</time></trkpt><trkpt lat="45.5989716" lon="12.3197219"><ele>4.6</ele><time>2026-03-22T17:08:05.704Z</time></trkpt><trkpt lat="45.5990053" lon="12.3195686"><ele>4.4</ele><time>2026-03-22T17:08:06.706Z</time></trkpt><trkpt lat="45.5990247" lon="12.3194219"><ele>4.2</ele><time>2026-03-22T17:08:07.701Z</time></trkpt><trkpt lat="45.5990548" lon="12.3192794"><ele>4.0</ele><time>2026-03-22T17:08:08.717Z</time></trkpt><trkpt lat="45.5990765" lon="12.3191405"><ele>4.0</ele><time>2026-03-22T17:08:09.716Z</time></trkpt><trkpt lat="45.5990994" lon="12.3190073"><ele>4.0</ele><time>2026-03-22T17:08:10.705Z</time></trkpt><trkpt lat="45.5991231" lon="12.3188771"><ele>4.0</ele><time>2026-03-22T17:08:11.716Z</time></trkpt><trkpt lat="45.5991425" lon="12.3187495"><ele>4.0</ele><time>2026-03-22T17:08:12.702Z</time></trkpt><trkpt lat="45.5991578" lon="12.3186262"><ele>4.0</ele><time>2026-03-22T17:08:13.714Z</time></trkpt><trkpt lat="45.599169" lon="12.3185072"><ele>3.833333333333333</ele><time>2026-03-22T17:08:14.7Z</time></trkpt><trkpt lat="45.5991867" lon="12.3183939"><ele>3.6666666666666665</ele><time>2026-03-22T17:08:15.713Z</time></trkpt><trkpt lat="45.5992063" lon="12.3182831"><ele>3.5</ele><time>2026-03-22T17:08:16.697Z</time></trkpt><trkpt lat="45.5992301" lon="12.3181753"><ele>3.333333333333333</ele><time>2026-03-22T17:08:17.701Z</time></trkpt><trkpt lat="45.5992567" lon="12.3180724"><ele>3.1666666666666665</ele><time>2026-03-22T17:08:18.706Z</time></trkpt><trkpt lat="45.5992775" lon="12.317972"><ele>3.0</ele><time>2026-03-22T17:08:19.708Z</time></trkpt><trkpt lat="45.5992996" lon="12.3178758"><ele>3.4</ele><time>2026-03-22T17:08:20.704Z</time></trkpt><trkpt lat="45.5993302" lon="12.3177183"><ele>3.8</ele><time>2026-03-22T17:08:22.704Z</time></trkpt><trkpt lat="45.5992738" lon="12.3175974"><ele>4.2</ele><time>2026-03-22T17:08:24.699Z</time></trkpt><trkpt lat="45.5991996" lon="12.3175517"><ele>4.6</ele><time>2026-03-22T17:08:25.711Z</time></trkpt><trkpt lat="45.5991076" lon="12.3174794"><ele>5.0</ele><time>2026-03-22T17:08:26.698Z</time></trkpt><trkpt lat="45.5990036" lon="12.3173725"><ele>5.0</ele><time>2026-03-22T17:08:27.705Z</time></trkpt><trkpt lat="45.5989005" lon="12.3172417"><ele>5.0</ele><time>2026-03-22T17:08:28.697Z</time></trkpt><trkpt lat="45.5987933" lon="12.3171044"><ele>5.0</ele><time>2026-03-22T17:08:29.707Z</time></trkpt><trkpt lat="45.5986801" lon="12.3169613"><ele>5.0</ele><time>2026-03-22T17:08:30.702Z</time></trkpt><trkpt lat="45.5985569" lon="12.316815"><ele>5.0</ele><time>2026-03-22T17:08:31.721Z</time></trkpt><trkpt lat="45.5984349" lon="12.3166569"><ele>5.0</ele><time>2026-03-22T17:08:32.713Z</time></trkpt><trkpt lat="45.5983146" lon="12.316512"><ele>5.0</ele><time>2026-03-22T17:08:33.7Z</time></trkpt><trkpt lat="45.5981922" lon="12.3163898"><ele>4.75</ele><time>2026-03-22T17:08:34.709Z</time></trkpt><trkpt lat="45.598086" lon="12.3162578"><ele>4.5</ele><time>2026-03-22T17:08:35.699Z</time></trkpt><trkpt lat="45.5979962" lon="12.3161149"><ele>4.25</ele><time>2026-03-22T17:08:36.701Z</time></trkpt><trkpt lat="45.5979036" lon="12.3159846"><ele>4.0</ele><time>2026-03-22T17:08:37.727Z</time></trkpt><trkpt lat="45.5978239" lon="12.3158402"><ele>4.0</ele><time>2026-03-22T17:08:38.713Z</time></trkpt><trkpt lat="45.5977534" lon="12.3156895"><ele>4.0</ele><time>2026-03-22T17:08:39.701Z</time></trkpt><trkpt lat="45.5976865" lon="12.3155334"><ele>4.0</ele><time>2026-03-22T17:08:40.715Z</time></trkpt><trkpt lat="45.5976332" lon="12.3153639"><ele>4.0</ele><time>2026-03-22T17:08:41.702Z</time></trkpt><trkpt lat="45.5976054" lon="12.3151681"><ele>3.6666666666666665</ele><time>2026-03-22T17:08:42.715Z</time></trkpt><trkpt lat="45.5975807" lon="12.3149498"><ele>3.333333333333333</ele><time>2026-03-22T17:08:43.709Z</time></trkpt><trkpt lat="45.5975599" lon="12.3147282"><ele>3.0</ele><time>2026-03-22T17:08:44.717Z</time></trkpt><trkpt lat="45.5975278" lon="12.3145248"><ele>3.0</ele><time>2026-03-22T17:08:45.737Z</time></trkpt><trkpt lat="45.5974952" lon="12.3143431"><ele>3.0</ele><time>2026-03-22T17:08:46.699Z</time></trkpt><trkpt lat="45.597452" lon="12.3141888"><ele>3.0</ele><time>2026-03-22T17:08:47.716Z</time></trkpt><trkpt lat="45.5974163" lon="12.3140624"><ele>3.0</ele><time>2026-03-22T17:08:48.698Z</time></trkpt><trkpt lat="45.5973838" lon="12.313959"><ele>3.0</ele><time>2026-03-22T17:08:49.703Z</time></trkpt><trkpt lat="45.5973442" lon="12.3138697"><ele>3.0</ele><time>2026-03-22T17:08:50.695Z</time></trkpt><trkpt lat="45.5972843" lon="12.3137959"><ele>3.0</ele><time>2026-03-22T17:08:51.689Z</time></trkpt><trkpt lat="45.5972032" lon="12.3137232"><ele>3.0</ele><time>2026-03-22T17:08:52.701Z</time></trkpt><trkpt lat="45.5971059" lon="12.3136395"><ele>3.0</ele><time>2026-03-22T17:08:53.718Z</time></trkpt><trkpt lat="45.5970106" lon="12.3135454"><ele>3.0</ele><time>2026-03-22T17:08:54.706Z</time></trkpt><trkpt lat="45.5969252" lon="12.3134585"><ele>3.0</ele><time>2026-03-22T17:08:55.719Z</time></trkpt><trkpt lat="45.596845" lon="12.3133777"><ele>3.0</ele><time>2026-03-22T17:08:56.72Z</time></trkpt><trkpt lat="45.5967694" lon="12.3132884"><ele>3.0</ele><time>2026-03-22T17:08:57.715Z</time></trkpt><trkpt lat="45.5966851" lon="12.3132153"><ele>3.0</ele><time>2026-03-22T17:08:58.711Z</time></trkpt><trkpt lat="45.5966008" lon="12.3131429"><ele>3.0</ele><time>2026-03-22T17:08:59.702Z</time></trkpt><trkpt lat="45.5965219" lon="12.3130684"><ele>2.8</ele><time>2026-03-22T17:09:00.715Z</time></trkpt><trkpt lat="45.5964487" lon="12.3129929"><ele>2.5999999999999996</ele><time>2026-03-22T17:09:01.716Z</time></trkpt><trkpt lat="45.5963754" lon="12.3129177"><ele>2.4000000000000004</ele><time>2026-03-22T17:09:02.702Z</time></trkpt><trkpt lat="45.5962994" lon="12.3128312"><ele>2.2</ele><time>2026-03-22T17:09:03.716Z</time></trkpt><trkpt lat="45.5962254" lon="12.3127218"><ele>2.0</ele><time>2026-03-22T17:09:04.704Z</time></trkpt><trkpt lat="45.5961463" lon="12.312626"><ele>2.1666666666666665</ele><time>2026-03-22T17:09:05.726Z</time></trkpt><trkpt lat="45.5960732" lon="12.3125416"><ele>2.333333333333333</ele><time>2026-03-22T17:09:06.712Z</time></trkpt><trkpt lat="45.5960079" lon="12.3124614"><ele>2.5</ele><time>2026-03-22T17:09:07.699Z</time></trkpt><trkpt lat="45.59596" lon="12.3123727"><ele>2.6666666666666665</ele><time>2026-03-22T17:09:08.718Z</time></trkpt><trkpt lat="45.5959143" lon="12.3122995"><ele>2.8333333333333335</ele><time>2026-03-22T17:09:09.727Z</time></trkpt><trkpt lat="45.595835" lon="12.3121942"><ele>3.0</ele><time>2026-03-22T17:09:11.721Z</time></trkpt><trkpt lat="45.595773" lon="12.312149"><ele>3.0</ele><time>2026-03-22T17:09:13.731Z</time></trkpt><trkpt lat="45.5956789" lon="12.3121376"><ele>3.0</ele><time>2026-03-22T17:09:18.715Z</time></trkpt><trkpt lat="45.5956062" lon="12.3122459"><ele>3.0</ele><time>2026-03-22T17:09:21.696Z</time></trkpt><trkpt lat="45.5955574" lon="12.3123627"><ele>3.0</ele><time>2026-03-22T17:09:23.712Z</time></trkpt><trkpt lat="45.5955161" lon="12.3124585"><ele>3.0</ele><time>2026-03-22T17:09:25.702Z</time></trkpt><trkpt lat="45.5954651" lon="12.3125528"><ele>4.0</ele><time>2026-03-22T17:09:28.704Z</time></trkpt><trkpt lat="45.5954354" lon="12.312647"><ele>4.0</ele><time>2026-03-22T17:10:22.707Z</time></trkpt><trkpt lat="45.5953613" lon="12.3126012"><ele>4.0</ele><time>2026-03-22T17:10:23.696Z</time></trkpt><trkpt lat="45.5953214" lon="12.3127265"><ele>5.0</ele><time>2026-03-22T17:10:31.703Z</time></trkpt></trkseg></trk></gpx>